<?xml version='1.0' encoding='UTF-8'?><gpx version="1.1" creator="JPX - https://github.com/jenetics/jpx" xmlns="http://www.topografix.com/GPX/1/1"><trk><trkseg><trkpt lat="43.1195988" lon="13.5774297"><ele>146.0</ele><time>2026-04-12T06:45:43.056Z</time></trkpt><trkpt lat="43.119687" lon="13.5774101"><ele>146.0</ele><time>2026-04-12T06:45:45.051Z</time></trkpt><trkpt lat="43.1197724" lon="13.5773551"><ele>146.0</ele><time>2026-04-12T06:45:47.063Z</time></trkpt><trkpt lat="43.1198341" lon="13.5772933"><ele>146.0</ele><time>2026-04-12T06:45:49.01Z</time></trkpt><trkpt lat="43.1198967" lon="13.5772298"><ele>146.0</ele><time>2026-04-12T06:45:51.04Z</time></trkpt><trkpt lat="43.1199553" lon="13.5771814"><ele>146.0</ele><time>2026-04-12T06:45:53.019Z</time></trkpt><trkpt lat="43.120029" lon="13.5771354"><ele>146.5</ele><time>2026-04-12T06:45:55.073Z</time></trkpt><trkpt lat="43.1201193" lon="13.5770716"><ele>147.0</ele><time>2026-04-12T06:45:57.041Z</time></trkpt><trkpt lat="43.1201822" lon="13.5770277"><ele>147.5</ele><time>2026-04-12T06:45:59.039Z</time></trkpt><trkpt lat="43.1202039" lon="13.5769297"><ele>148.0</ele><time>2026-04-12T06:46:10.05Z</time></trkpt><trkpt lat="43.120169" lon="13.5767788"><ele>148.5</ele><time>2026-04-12T06:46:12.04Z</time></trkpt><trkpt lat="43.120139" lon="13.5766926"><ele>149.0</ele><time>2026-04-12T06:46:13.03Z</time></trkpt><trkpt lat="43.1201167" lon="13.5765936"><ele>149.33333333333331</ele><time>2026-04-12T06:46:14.038Z</time></trkpt><trkpt lat="43.1200838" lon="13.5764955"><ele>149.66666666666666</ele><time>2026-04-12T06:46:15.058Z</time></trkpt><trkpt lat="43.1200464" lon="13.5763869"><ele>150.0</ele><time>2026-04-12T06:46:16.046Z</time></trkpt><trkpt lat="43.1200096" lon="13.5762894"><ele>150.33333333333334</ele><time>2026-04-12T06:46:17.047Z</time></trkpt><trkpt lat="43.1199768" lon="13.5761908"><ele>150.66666666666669</ele><time>2026-04-12T06:46:18.026Z</time></trkpt><trkpt lat="43.1199505" lon="13.57609"><ele>151.0</ele><time>2026-04-12T06:46:19.048Z</time></trkpt><trkpt lat="43.1199154" lon="13.5759832"><ele>150.6</ele><time>2026-04-12T06:46:20.038Z</time></trkpt><trkpt lat="43.1198788" lon="13.575877"><ele>150.2</ele><time>2026-04-12T06:46:21.053Z</time></trkpt><trkpt lat="43.1198439" lon="13.5757638"><ele>149.8</ele><time>2026-04-12T06:46:22.043Z</time></trkpt><trkpt lat="43.1198069" lon="13.5756509"><ele>149.4</ele><time>2026-04-12T06:46:23.036Z</time></trkpt><trkpt lat="43.1197715" lon="13.575537"><ele>149.0</ele><time>2026-04-12T06:46:24.061Z</time></trkpt><trkpt lat="43.1197283" lon="13.5754113"><ele>149.2</ele><time>2026-04-12T06:46:25.031Z</time></trkpt><trkpt lat="43.1196858" lon="13.5752767"><ele>149.4</ele><time>2026-04-12T06:46:26.049Z</time></trkpt><trkpt lat="43.1196425" lon="13.5751433"><ele>149.6</ele><time>2026-04-12T06:46:27.05Z</time></trkpt><trkpt lat="43.1195994" lon="13.5750043"><ele>149.8</ele><time>2026-04-12T06:46:28.067Z</time></trkpt><trkpt lat="43.1195579" lon="13.5748755"><ele>150.0</ele><time>2026-04-12T06:46:29.041Z</time></trkpt><trkpt lat="43.1195143" lon="13.5747379"><ele>150.0</ele><time>2026-04-12T06:46:30.047Z</time></trkpt><trkpt lat="43.1194638" lon="13.5746022"><ele>150.0</ele><time>2026-04-12T06:46:31.057Z</time></trkpt><trkpt lat="43.1194152" lon="13.5744648"><ele>150.0</ele><time>2026-04-12T06:46:32.039Z</time></trkpt><trkpt lat="43.1193558" lon="13.5743287"><ele>150.0</ele><time>2026-04-12T06:46:33.04Z</time></trkpt><trkpt lat="43.1192992" lon="13.5741943"><ele>150.4</ele><time>2026-04-12T06:46:34.038Z</time></trkpt><trkpt lat="43.1192424" lon="13.5740609"><ele>150.8</ele><time>2026-04-12T06:46:35.045Z</time></trkpt><trkpt lat="43.1191865" lon="13.5739253"><ele>151.2</ele><time>2026-04-12T06:46:36.043Z</time></trkpt><trkpt lat="43.1191341" lon="13.5737848"><ele>151.6</ele><time>2026-04-12T06:46:37.029Z</time></trkpt><trkpt lat="43.1190915" lon="13.5736579"><ele>152.0</ele><time>2026-04-12T06:46:38.057Z</time></trkpt><trkpt lat="43.1190534" lon="13.5735447"><ele>151.2</ele><time>2026-04-12T06:46:39.059Z</time></trkpt><trkpt lat="43.1190104" lon="13.573423"><ele>150.39999999999998</ele><time>2026-04-12T06:46:40.069Z</time></trkpt><trkpt lat="43.1189717" lon="13.5733174"><ele>149.60000000000002</ele><time>2026-04-12T06:46:41.052Z</time></trkpt><trkpt lat="43.1189385" lon="13.5732242"><ele>148.8</ele><time>2026-04-12T06:46:42.025Z</time></trkpt><trkpt lat="43.1188879" lon="13.5730858"><ele>148.0</ele><time>2026-04-12T06:46:44.005Z</time></trkpt><trkpt lat="43.1188343" lon="13.5729652"><ele>148.0</ele><time>2026-04-12T06:46:46.059Z</time></trkpt><trkpt lat="43.1187257" lon="13.5729342"><ele>148.0</ele><time>2026-04-12T06:46:48.065Z</time></trkpt><trkpt lat="43.1185965" lon="13.573029"><ele>148.0</ele><time>2026-04-12T06:46:50.051Z</time></trkpt><trkpt lat="43.1185172" lon="13.5730917"><ele>148.0</ele><time>2026-04-12T06:46:51.047Z</time></trkpt><trkpt lat="43.1184442" lon="13.5731571"><ele>148.0</ele><time>2026-04-12T06:46:52.085Z</time></trkpt><trkpt lat="43.1183645" lon="13.5732282"><ele>148.0</ele><time>2026-04-12T06:46:53.054Z</time></trkpt><trkpt lat="43.11828" lon="13.5733197"><ele>148.0</ele><time>2026-04-12T06:46:54.05Z</time></trkpt><trkpt lat="43.1181917" lon="13.5734085"><ele>148.0</ele><time>2026-04-12T06:46:55.058Z</time></trkpt><trkpt lat="43.118119" lon="13.5734821"><ele>148.0</ele><time>2026-04-12T06:46:56.053Z</time></trkpt><trkpt lat="43.1180478" lon="13.5735366"><ele>148.0</ele><time>2026-04-12T06:46:57.055Z</time></trkpt><trkpt lat="43.1179827" lon="13.5735973"><ele>148.0</ele><time>2026-04-12T06:46:58.052Z</time></trkpt><trkpt lat="43.1179218" lon="13.5736583"><ele>148.0</ele><time>2026-04-12T06:46:59.051Z</time></trkpt><trkpt lat="43.1178662" lon="13.573716"><ele>148.0</ele><time>2026-04-12T06:47:00.047Z</time></trkpt><trkpt lat="43.1178097" lon="13.5737721"><ele>148.0</ele><time>2026-04-12T06:47:01.031Z</time></trkpt><trkpt lat="43.1177507" lon="13.5738301"><ele>148.0</ele><time>2026-04-12T06:47:02.066Z</time></trkpt><trkpt lat="43.1176924" lon="13.5738936"><ele>148.0</ele><time>2026-04-12T06:47:03.057Z</time></trkpt><trkpt lat="43.117626" lon="13.5739588"><ele>148.0</ele><time>2026-04-12T06:47:04.063Z</time></trkpt><trkpt lat="43.1175549" lon="13.5740277"><ele>147.66666666666669</ele><time>2026-04-12T06:47:05.055Z</time></trkpt><trkpt lat="43.1174907" lon="13.5740886"><ele>147.33333333333334</ele><time>2026-04-12T06:47:06.03Z</time></trkpt><trkpt lat="43.1174321" lon="13.574146"><ele>147.0</ele><time>2026-04-12T06:47:07.054Z</time></trkpt><trkpt lat="43.117329" lon="13.5742287"><ele>146.66666666666666</ele><time>2026-04-12T06:47:09.064Z</time></trkpt><trkpt lat="43.1172389" lon="13.5742317"><ele>146.33333333333331</ele><time>2026-04-12T06:47:11.045Z</time></trkpt><trkpt lat="43.117185" lon="13.574137"><ele>146.0</ele><time>2026-04-12T06:47:13.073Z</time></trkpt><trkpt lat="43.1171622" lon="13.5740536"><ele>146.0</ele><time>2026-04-12T06:47:14.041Z</time></trkpt><trkpt lat="43.1171196" lon="13.5738988"><ele>146.0</ele><time>2026-04-12T06:47:16.038Z</time></trkpt><trkpt lat="43.1170622" lon="13.5737623"><ele>146.0</ele><time>2026-04-12T06:47:18.035Z</time></trkpt><trkpt lat="43.1170194" lon="13.5736609"><ele>146.0</ele><time>2026-04-12T06:47:20.037Z</time></trkpt><trkpt lat="43.1169788" lon="13.5735862"><ele>146.0</ele><time>2026-04-12T06:47:22.048Z</time></trkpt><trkpt lat="43.116914" lon="13.5735382"><ele>146.16666666666666</ele><time>2026-04-12T06:47:24.046Z</time></trkpt><trkpt lat="43.1168222" lon="13.5734826"><ele>146.33333333333331</ele><time>2026-04-12T06:47:26.038Z</time></trkpt><trkpt lat="43.1167126" lon="13.5734053"><ele>146.5</ele><time>2026-04-12T06:47:28.027Z</time></trkpt><trkpt lat="43.1166457" lon="13.573361"><ele>146.66666666666666</ele><time>2026-04-12T06:47:29.01Z</time></trkpt><trkpt lat="43.1165749" lon="13.5733221"><ele>146.83333333333334</ele><time>2026-04-12T06:47:30.003Z</time></trkpt><trkpt lat="43.1165045" lon="13.5733007"><ele>147.0</ele><time>2026-04-12T06:47:31.007Z</time></trkpt><trkpt lat="43.1164362" lon="13.5732781"><ele>147.0</ele><time>2026-04-12T06:47:32.025Z</time></trkpt><trkpt lat="43.1163253" lon="13.5732495"><ele>147.0</ele><time>2026-04-12T06:47:34.058Z</time></trkpt><trkpt lat="43.1162259" lon="13.5732377"><ele>147.0</ele><time>2026-04-12T06:47:36.067Z</time></trkpt><trkpt lat="43.1161635" lon="13.573274"><ele>147.0</ele><time>2026-04-12T06:47:38.072Z</time></trkpt><trkpt lat="43.1161052" lon="13.5733545"><ele>147.0</ele><time>2026-04-12T06:47:41.032Z</time></trkpt><trkpt lat="43.116072" lon="13.5734398"><ele>147.0</ele><time>2026-04-12T06:47:45.056Z</time></trkpt><trkpt lat="43.1161403" lon="13.5734663"><ele>147.0</ele><time>2026-04-12T06:47:55.027Z</time></trkpt><trkpt lat="43.1162262" lon="13.5734778"><ele>147.0</ele><time>2026-04-12T06:47:57.045Z</time></trkpt><trkpt lat="43.1162945" lon="13.5735035"><ele>147.0</ele><time>2026-04-12T06:47:59.01Z</time></trkpt><trkpt lat="43.1163548" lon="13.573562"><ele>147.0</ele><time>2026-04-12T06:48:01.048Z</time></trkpt><trkpt lat="43.1163983" lon="13.5736694"><ele>147.0</ele><time>2026-04-12T06:48:04.014Z</time></trkpt><trkpt lat="43.1164193" lon="13.5737564"><ele>147.0</ele><time>2026-04-12T06:48:07.041Z</time></trkpt><trkpt lat="43.1164668" lon="13.5738648"><ele>146.83333333333334</ele><time>2026-04-12T06:48:11.041Z</time></trkpt><trkpt lat="43.1165157" lon="13.5739334"><ele>146.66666666666666</ele><time>2026-04-12T06:48:14.041Z</time></trkpt><trkpt lat="43.1165545" lon="13.5740248"><ele>146.5</ele><time>2026-04-12T06:48:17.034Z</time></trkpt><trkpt lat="43.1165824" lon="13.5741453"><ele>146.33333333333331</ele><time>2026-04-12T06:48:19.031Z</time></trkpt><trkpt lat="43.1166142" lon="13.5742318"><ele>146.16666666666666</ele><time>2026-04-12T06:48:21.038Z</time></trkpt><trkpt lat="43.1166529" lon="13.5743179"><ele>146.0</ele><time>2026-04-12T06:48:23.037Z</time></trkpt><trkpt lat="43.1166855" lon="13.5744212"><ele>145.66666666666666</ele><time>2026-04-12T06:48:26.049Z</time></trkpt><trkpt lat="43.1166792" lon="13.5745235"><ele>145.33333333333331</ele><time>2026-04-12T06:48:29.059Z</time></trkpt><trkpt lat="43.1166442" lon="13.5745966"><ele>145.0</ele><time>2026-04-12T06:48:32.055Z</time></trkpt><trkpt lat="43.1165734" lon="13.5746369"><ele>144.66666666666666</ele><time>2026-04-12T06:48:35.08Z</time></trkpt><trkpt lat="43.116508" lon="13.5746887"><ele>144.33333333333334</ele><time>2026-04-12T06:48:39.057Z</time></trkpt><trkpt lat="43.1165651" lon="13.5747858"><ele>144.0</ele><time>2026-04-12T06:48:53.034Z</time></trkpt><trkpt lat="43.1166325" lon="13.5748239"><ele>144.0</ele><time>2026-04-12T06:48:55.051Z</time></trkpt><trkpt lat="43.1167147" lon="13.5747739"><ele>144.0</ele><time>2026-04-12T06:48:57.016Z</time></trkpt><trkpt lat="43.1167226" lon="13.5746375"><ele>144.0</ele><time>2026-04-12T06:48:59.014Z</time></trkpt><trkpt lat="43.1167073" lon="13.5744999"><ele>144.0</ele><time>2026-04-12T06:49:01.042Z</time></trkpt><trkpt lat="43.1166945" lon="13.5743665"><ele>144.0</ele><time>2026-04-12T06:49:03.045Z</time></trkpt><trkpt lat="43.1166441" lon="13.5742329"><ele>144.0</ele><time>2026-04-12T06:49:05.047Z</time></trkpt><trkpt lat="43.1165926" lon="13.574106"><ele>144.0</ele><time>2026-04-12T06:49:07.05Z</time></trkpt><trkpt lat="43.1165393" lon="13.5739652"><ele>144.0</ele><time>2026-04-12T06:49:09.038Z</time></trkpt><trkpt lat="43.1164696" lon="13.5738652"><ele>144.0</ele><time>2026-04-12T06:49:11.046Z</time></trkpt><trkpt lat="43.1164179" lon="13.5737406"><ele>144.0</ele><time>2026-04-12T06:49:13.043Z</time></trkpt><trkpt lat="43.1163727" lon="13.5735973"><ele>144.6</ele><time>2026-04-12T06:49:15.022Z</time></trkpt><trkpt lat="43.116298" lon="13.5735005"><ele>145.2</ele><time>2026-04-12T06:49:17.035Z</time></trkpt><trkpt lat="43.1162347" lon="13.5734615"><ele>145.79999999999998</ele><time>2026-04-12T06:49:18.037Z</time></trkpt><trkpt lat="43.1161141" lon="13.5733938"><ele>146.4</ele><time>2026-04-12T06:49:20.043Z</time></trkpt><trkpt lat="43.1159956" lon="13.5733861"><ele>147.0</ele><time>2026-04-12T06:49:22.049Z</time></trkpt><trkpt lat="43.1158796" lon="13.5733858"><ele>147.0</ele><time>2026-04-12T06:49:24.03Z</time></trkpt><trkpt lat="43.1157639" lon="13.5733447"><ele>147.0</ele><time>2026-04-12T06:49:26.058Z</time></trkpt><trkpt lat="43.1157026" lon="13.5733207"><ele>147.0</ele><time>2026-04-12T06:49:27.047Z</time></trkpt><trkpt lat="43.1156413" lon="13.5732994"><ele>147.0</ele><time>2026-04-12T06:49:28.057Z</time></trkpt><trkpt lat="43.1155724" lon="13.5732918"><ele>147.0</ele><time>2026-04-12T06:49:29.052Z</time></trkpt><trkpt lat="43.115494" lon="13.5732909"><ele>147.0</ele><time>2026-04-12T06:49:30.048Z</time></trkpt><trkpt lat="43.1154269" lon="13.5733182"><ele>146.57142857142858</ele><time>2026-04-12T06:49:31.056Z</time></trkpt><trkpt lat="43.1153594" lon="13.5733405"><ele>146.14285714285714</ele><time>2026-04-12T06:49:32.053Z</time></trkpt><trkpt lat="43.1152884" lon="13.5733792"><ele>145.71428571428572</ele><time>2026-04-12T06:49:33.05Z</time></trkpt><trkpt lat="43.1152243" lon="13.573428"><ele>145.28571428571428</ele><time>2026-04-12T06:49:34.035Z</time></trkpt><trkpt lat="43.1151591" lon="13.5734789"><ele>144.85714285714286</ele><time>2026-04-12T06:49:35.068Z</time></trkpt><trkpt lat="43.1151009" lon="13.5735352"><ele>144.42857142857144</ele><time>2026-04-12T06:49:36.058Z</time></trkpt><trkpt lat="43.1150489" lon="13.5735948"><ele>144.0</ele><time>2026-04-12T06:49:37.055Z</time></trkpt><trkpt lat="43.1149808" lon="13.5737134"><ele>143.5</ele><time>2026-04-12T06:49:39.069Z</time></trkpt><trkpt lat="43.114969" lon="13.5738168"><ele>143.0</ele><time>2026-04-12T06:49:41.069Z</time></trkpt><trkpt lat="43.1150051" lon="13.5738936"><ele>142.5</ele><time>2026-04-12T06:49:43.032Z</time></trkpt><trkpt lat="43.1150839" lon="13.5739186"><ele>142.0</ele><time>2026-04-12T06:49:45.058Z</time></trkpt><trkpt lat="43.1151787" lon="13.5738977"><ele>141.5</ele><time>2026-04-12T06:49:47.055Z</time></trkpt><trkpt lat="43.1152718" lon="13.573859"><ele>141.0</ele><time>2026-04-12T06:49:49.038Z</time></trkpt><trkpt lat="43.115383" lon="13.5738006"><ele>141.0</ele><time>2026-04-12T06:49:51.046Z</time></trkpt><trkpt lat="43.1155064" lon="13.5737637"><ele>141.0</ele><time>2026-04-12T06:49:53.037Z</time></trkpt><trkpt lat="43.1155936" lon="13.5737687"><ele>141.0</ele><time>2026-04-12T06:49:54.062Z</time></trkpt><trkpt lat="43.1156869" lon="13.5737878"><ele>141.0</ele><time>2026-04-12T06:49:55.048Z</time></trkpt><trkpt lat="43.1157646" lon="13.5738243"><ele>141.0</ele><time>2026-04-12T06:49:56.038Z</time></trkpt><trkpt lat="43.1158283" lon="13.5738594"><ele>141.6</ele><time>2026-04-12T06:49:57.034Z</time></trkpt><trkpt lat="43.1158935" lon="13.5738972"><ele>142.2</ele><time>2026-04-12T06:49:58.046Z</time></trkpt><trkpt lat="43.1159529" lon="13.5739391"><ele>142.8</ele><time>2026-04-12T06:49:59.035Z</time></trkpt><trkpt lat="43.1160399" lon="13.574043"><ele>143.4</ele><time>2026-04-12T06:50:01.051Z</time></trkpt><trkpt lat="43.1161113" lon="13.5741823"><ele>144.0</ele><time>2026-04-12T06:50:03.06Z</time></trkpt><trkpt lat="43.1161613" lon="13.5743279"><ele>144.0</ele><time>2026-04-12T06:50:05.039Z</time></trkpt><trkpt lat="43.1161949" lon="13.5744788"><ele>144.0</ele><time>2026-04-12T06:50:07.054Z</time></trkpt><trkpt lat="43.116241" lon="13.5746341"><ele>144.0</ele><time>2026-04-12T06:50:09.057Z</time></trkpt><trkpt lat="43.1162671" lon="13.5747187"><ele>144.0</ele><time>2026-04-12T06:50:10.005Z</time></trkpt><trkpt lat="43.1162916" lon="13.5748001"><ele>144.0</ele><time>2026-04-12T06:50:11.066Z</time></trkpt><trkpt lat="43.116345" lon="13.5749198"><ele>144.0</ele><time>2026-04-12T06:50:13.049Z</time></trkpt><trkpt lat="43.11641" lon="13.5749653"><ele>144.0</ele><time>2026-04-12T06:50:15.049Z</time></trkpt><trkpt lat="43.11649" lon="13.5749399"><ele>144.0</ele><time>2026-04-12T06:50:18.031Z</time></trkpt><trkpt lat="43.1165102" lon="13.574843"><ele>144.0</ele><time>2026-04-12T06:50:21.047Z</time></trkpt><trkpt lat="43.1164936" lon="13.5747454"><ele>144.0</ele><time>2026-04-12T06:50:36.061Z</time></trkpt><trkpt lat="43.1165314" lon="13.5745177"><ele>143.33333333333334</ele><time>2026-04-12T07:06:37.403Z</time></trkpt><trkpt lat="43.1164696" lon="13.5747774"><ele>142.66666666666669</ele><time>2026-04-12T07:06:53.052Z</time></trkpt><trkpt lat="43.1165398" lon="13.5747421"><ele>142.0</ele><time>2026-04-12T07:15:29.058Z</time></trkpt><trkpt lat="43.1165989" lon="13.5744571"><ele>142.0</ele><time>2026-04-12T07:15:45.334Z</time></trkpt><trkpt lat="43.1165206" lon="13.5746921"><ele>142.0</ele><time>2026-04-12T07:15:58.046Z</time></trkpt><trkpt lat="43.1166022" lon="13.5744777"><ele>142.0</ele><time>2026-04-12T07:17:14.932Z</time></trkpt><trkpt lat="43.116681" lon="13.5745571"><ele>144.0</ele><time>2026-04-12T07:17:23.78Z</time></trkpt><trkpt lat="43.1166936" lon="13.5751775"><ele>143.5</ele><time>2026-04-12T07:17:31.024Z</time></trkpt><trkpt lat="43.1165047" lon="13.5751502"><ele>143.0</ele><time>2026-04-12T07:17:43.05Z</time></trkpt><trkpt lat="43.116521" lon="13.5750655"><ele>142.5</ele><time>2026-04-12T07:17:50.04Z</time></trkpt><trkpt lat="43.1165163" lon="13.5749586"><ele>142.0</ele><time>2026-04-12T07:17:57.045Z</time></trkpt><trkpt lat="43.1165055" lon="13.5747917"><ele>142.0</ele><time>2026-04-12T07:17:58.04Z</time></trkpt><trkpt lat="43.1164756" lon="13.5747082"><ele>142.0</ele><time>2026-04-12T07:18:21.997Z</time></trkpt><trkpt lat="43.1165202" lon="13.5747803"><ele>142.0</ele><time>2026-04-12T07:23:30.045Z</time></trkpt><trkpt lat="43.1164879" lon="13.5747049"><ele>142.0</ele><time>2026-04-12T07:25:43.036Z</time></trkpt><trkpt lat="43.1164507" lon="13.5746262"><ele>142.0</ele><time>2026-04-12T07:32:04.035Z</time></trkpt><trkpt lat="43.1164314" lon="13.5745286"><ele>142.0</ele><time>2026-04-12T07:32:08.068Z</time></trkpt><trkpt lat="43.1164035" lon="13.5744489"><ele>142.0</ele><time>2026-04-12T07:32:10.07Z</time></trkpt><trkpt lat="43.1163691" lon="13.5743145"><ele>142.5</ele><time>2026-04-12T07:32:12.08Z</time></trkpt><trkpt lat="43.1163211" lon="13.5741589"><ele>143.0</ele><time>2026-04-12T07:32:14.084Z</time></trkpt><trkpt lat="43.1162569" lon="13.5740307"><ele>143.5</ele><time>2026-04-12T07:32:16.07Z</time></trkpt><trkpt lat="43.1161934" lon="13.573896"><ele>144.0</ele><time>2026-04-12T07:32:18.072Z</time></trkpt><trkpt lat="43.116125" lon="13.5737859"><ele>144.0</ele><time>2026-04-12T07:32:20.054Z</time></trkpt><trkpt lat="43.1160487" lon="13.5736983"><ele>144.0</ele><time>2026-04-12T07:32:22.075Z</time></trkpt><trkpt lat="43.1159482" lon="13.5736104"><ele>144.0</ele><time>2026-04-12T07:32:24.056Z</time></trkpt><trkpt lat="43.115844" lon="13.5735384"><ele>144.0</ele><time>2026-04-12T07:32:26.065Z</time></trkpt><trkpt lat="43.1157372" lon="13.5734883"><ele>144.0</ele><time>2026-04-12T07:32:28.064Z</time></trkpt><trkpt lat="43.1156223" lon="13.5734654"><ele>144.0</ele><time>2026-04-12T07:32:30.007Z</time></trkpt><trkpt lat="43.1155065" lon="13.5734636"><ele>144.0</ele><time>2026-04-12T07:32:32.047Z</time></trkpt><trkpt lat="43.1153895" lon="13.5735002"><ele>144.0</ele><time>2026-04-12T07:32:34.064Z</time></trkpt><trkpt lat="43.1153261" lon="13.5735258"><ele>144.0</ele><time>2026-04-12T07:32:35.05Z</time></trkpt><trkpt lat="43.1152572" lon="13.5735465"><ele>144.0</ele><time>2026-04-12T07:32:36.069Z</time></trkpt><trkpt lat="43.1151939" lon="13.5735853"><ele>144.0</ele><time>2026-04-12T07:32:37.056Z</time></trkpt><trkpt lat="43.1151298" lon="13.5736425"><ele>144.0</ele><time>2026-04-12T07:32:38.061Z</time></trkpt><trkpt lat="43.1150663" lon="13.5736987"><ele>144.0</ele><time>2026-04-12T07:32:39.05Z</time></trkpt><trkpt lat="43.1150051" lon="13.5737641"><ele>144.0</ele><time>2026-04-12T07:32:40.062Z</time></trkpt><trkpt lat="43.1149508" lon="13.5738407"><ele>144.0</ele><time>2026-04-12T07:32:41.051Z</time></trkpt><trkpt lat="43.1148983" lon="13.5739152"><ele>144.0</ele><time>2026-04-12T07:32:42.057Z</time></trkpt><trkpt lat="43.114846" lon="13.5740111"><ele>144.0</ele><time>2026-04-12T07:32:43.051Z</time></trkpt><trkpt lat="43.1148017" lon="13.5741204"><ele>144.0</ele><time>2026-04-12T07:32:44.057Z</time></trkpt><trkpt lat="43.1147652" lon="13.5742354"><ele>144.0</ele><time>2026-04-12T07:32:45.063Z</time></trkpt><trkpt lat="43.1147402" lon="13.5743451"><ele>144.0</ele><time>2026-04-12T07:32:46.029Z</time></trkpt><trkpt lat="43.1147383" lon="13.5744618"><ele>144.0</ele><time>2026-04-12T07:32:47.047Z</time></trkpt><trkpt lat="43.1147502" lon="13.5745688"><ele>144.0</ele><time>2026-04-12T07:32:47.998Z</time></trkpt><trkpt lat="43.1147688" lon="13.5746789"><ele>144.0</ele><time>2026-04-12T07:32:49.022Z</time></trkpt><trkpt lat="43.1147984" lon="13.5747968"><ele>143.6</ele><time>2026-04-12T07:32:50.047Z</time></trkpt><trkpt lat="43.1148212" lon="13.5749324"><ele>143.2</ele><time>2026-04-12T07:32:51.055Z</time></trkpt><trkpt lat="43.1148514" lon="13.5750504"><ele>142.79999999999998</ele><time>2026-04-12T07:32:52.049Z</time></trkpt><trkpt lat="43.1148794" lon="13.5751644"><ele>142.4</ele><time>2026-04-12T07:32:53.048Z</time></trkpt><trkpt lat="43.1149172" lon="13.5752797"><ele>142.0</ele><time>2026-04-12T07:32:54.067Z</time></trkpt><trkpt lat="43.1149606" lon="13.57539"><ele>142.0</ele><time>2026-04-12T07:32:55.052Z</time></trkpt><trkpt lat="43.1150073" lon="13.5755086"><ele>142.0</ele><time>2026-04-12T07:32:56.058Z</time></trkpt><trkpt lat="43.1150546" lon="13.575627"><ele>142.0</ele><time>2026-04-12T07:32:57.049Z</time></trkpt><trkpt lat="43.1150939" lon="13.5757507"><ele>142.0</ele><time>2026-04-12T07:32:58.058Z</time></trkpt><trkpt lat="43.1151355" lon="13.5758727"><ele>142.0</ele><time>2026-04-12T07:32:59.058Z</time></trkpt><trkpt lat="43.1151763" lon="13.5759956"><ele>142.0</ele><time>2026-04-12T07:33:00.064Z</time></trkpt><trkpt lat="43.1152198" lon="13.5761154"><ele>142.0</ele><time>2026-04-12T07:33:01.062Z</time></trkpt><trkpt lat="43.1152677" lon="13.576234"><ele>142.0</ele><time>2026-04-12T07:33:02.066Z</time></trkpt><trkpt lat="43.1153112" lon="13.5763673"><ele>142.0</ele><time>2026-04-12T07:33:03.044Z</time></trkpt><trkpt lat="43.1153577" lon="13.5765059"><ele>142.0</ele><time>2026-04-12T07:33:04.079Z</time></trkpt><trkpt lat="43.1154097" lon="13.5766437"><ele>141.79999999999998</ele><time>2026-04-12T07:33:05.051Z</time></trkpt><trkpt lat="43.115455" lon="13.5767846"><ele>141.6</ele><time>2026-04-12T07:33:06.071Z</time></trkpt><trkpt lat="43.1155039" lon="13.5769118"><ele>141.39999999999998</ele><time>2026-04-12T07:33:07.067Z</time></trkpt><trkpt lat="43.1155584" lon="13.5770268"><ele>141.2</ele><time>2026-04-12T07:33:08.049Z</time></trkpt><trkpt lat="43.1156152" lon="13.5771305"><ele>141.0</ele><time>2026-04-12T07:33:09.072Z</time></trkpt><trkpt lat="43.1156735" lon="13.577233"><ele>141.33333333333334</ele><time>2026-04-12T07:33:10.055Z</time></trkpt><trkpt lat="43.1157373" lon="13.5773331"><ele>141.66666666666666</ele><time>2026-04-12T07:33:11.074Z</time></trkpt><trkpt lat="43.1158097" lon="13.5774042"><ele>142.0</ele><time>2026-04-12T07:33:12.042Z</time></trkpt><trkpt lat="43.1158855" lon="13.5774651"><ele>142.33333333333331</ele><time>2026-04-12T07:33:13.061Z</time></trkpt><trkpt lat="43.1159595" lon="13.5774975"><ele>142.66666666666666</ele><time>2026-04-12T07:33:14.069Z</time></trkpt><trkpt lat="43.1160273" lon="13.5775266"><ele>143.0</ele><time>2026-04-12T07:33:15.055Z</time></trkpt><trkpt lat="43.1160821" lon="13.5775831"><ele>143.0</ele><time>2026-04-12T07:33:17.038Z</time></trkpt><trkpt lat="43.1159801" lon="13.5776488"><ele>143.0</ele><time>2026-04-12T07:33:20.068Z</time></trkpt><trkpt lat="43.1158759" lon="13.5775807"><ele>143.0</ele><time>2026-04-12T07:33:21.073Z</time></trkpt><trkpt lat="43.1157507" lon="13.5774731"><ele>143.0</ele><time>2026-04-12T07:33:22.04Z</time></trkpt><trkpt lat="43.1156286" lon="13.5773537"><ele>142.6</ele><time>2026-04-12T07:33:23.065Z</time></trkpt><trkpt lat="43.1155327" lon="13.5772328"><ele>142.20000000000002</ele><time>2026-04-12T07:33:24.052Z</time></trkpt><trkpt lat="43.1154485" lon="13.577116"><ele>141.8</ele><time>2026-04-12T07:33:25.064Z</time></trkpt><trkpt lat="43.1153881" lon="13.5770084"><ele>141.4</ele><time>2026-04-12T07:33:26.078Z</time></trkpt><trkpt lat="43.1153198" lon="13.5769398"><ele>141.0</ele><time>2026-04-12T07:33:27.063Z</time></trkpt><trkpt lat="43.1152544" lon="13.5769122"><ele>141.0</ele><time>2026-04-12T07:33:28.076Z</time></trkpt><trkpt lat="43.115148" lon="13.5769404"><ele>141.0</ele><time>2026-04-12T07:33:30.049Z</time></trkpt><trkpt lat="43.1150827" lon="13.5769821"><ele>141.0</ele><time>2026-04-12T07:33:32.055Z</time></trkpt><trkpt lat="43.1150259" lon="13.5768395"><ele>141.0</ele><time>2026-04-12T07:33:35.049Z</time></trkpt><trkpt lat="43.1149494" lon="13.5767257"><ele>141.0</ele><time>2026-04-12T07:33:36.064Z</time></trkpt><trkpt lat="43.1148531" lon="13.5765903"><ele>141.0</ele><time>2026-04-12T07:33:37.054Z</time></trkpt><trkpt lat="43.1147389" lon="13.5764675"><ele>141.0</ele><time>2026-04-12T07:33:38.048Z</time></trkpt><trkpt lat="43.1146085" lon="13.5763588"><ele>141.0</ele><time>2026-04-12T07:33:39.051Z</time></trkpt><trkpt lat="43.1144676" lon="13.5762578"><ele>141.33333333333334</ele><time>2026-04-12T07:33:40.045Z</time></trkpt><trkpt lat="43.1143189" lon="13.5761513"><ele>141.66666666666669</ele><time>2026-04-12T07:33:41.044Z</time></trkpt><trkpt lat="43.114167" lon="13.5760292"><ele>142.0</ele><time>2026-04-12T07:33:42.063Z</time></trkpt><trkpt lat="43.1140131" lon="13.575912"><ele>141.33333333333334</ele><time>2026-04-12T07:33:43.04Z</time></trkpt><trkpt lat="43.1138663" lon="13.5758029"><ele>140.66666666666666</ele><time>2026-04-12T07:33:44.073Z</time></trkpt><trkpt lat="43.1137301" lon="13.5757006"><ele>140.0</ele><time>2026-04-12T07:33:45.073Z</time></trkpt><trkpt lat="43.1135877" lon="13.575602"><ele>140.0</ele><time>2026-04-12T07:33:46.08Z</time></trkpt><trkpt lat="43.1134563" lon="13.5755022"><ele>140.0</ele><time>2026-04-12T07:33:47.08Z</time></trkpt><trkpt lat="43.1133208" lon="13.5754058"><ele>140.0</ele><time>2026-04-12T07:33:48.067Z</time></trkpt><trkpt lat="43.1131914" lon="13.5753145"><ele>140.0</ele><time>2026-04-12T07:33:49.084Z</time></trkpt><trkpt lat="43.1130657" lon="13.5752177"><ele>140.25</ele><time>2026-04-12T07:33:50.031Z</time></trkpt><trkpt lat="43.1129425" lon="13.5751199"><ele>140.5</ele><time>2026-04-12T07:33:51.054Z</time></trkpt><trkpt lat="43.1128144" lon="13.575028"><ele>140.75</ele><time>2026-04-12T07:33:52.057Z</time></trkpt><trkpt lat="43.112684" lon="13.5749306"><ele>141.0</ele><time>2026-04-12T07:33:53.061Z</time></trkpt><trkpt lat="43.1125612" lon="13.5748357"><ele>141.0</ele><time>2026-04-12T07:33:54.066Z</time></trkpt><trkpt lat="43.112447" lon="13.5747332"><ele>141.0</ele><time>2026-04-12T07:33:55.077Z</time></trkpt><trkpt lat="43.1123399" lon="13.5746416"><ele>141.0</ele><time>2026-04-12T07:33:56.066Z</time></trkpt><trkpt lat="43.112226" lon="13.5745453"><ele>141.0</ele><time>2026-04-12T07:33:57.08Z</time></trkpt><trkpt lat="43.1121087" lon="13.5744585"><ele>141.25</ele><time>2026-04-12T07:33:58.067Z</time></trkpt><trkpt lat="43.1119927" lon="13.5743666"><ele>141.5</ele><time>2026-04-12T07:33:59.079Z</time></trkpt><trkpt lat="43.1118816" lon="13.5742874"><ele>141.75</ele><time>2026-04-12T07:34:00.057Z</time></trkpt><trkpt lat="43.1117729" lon="13.5742115"><ele>142.0</ele><time>2026-04-12T07:34:01.075Z</time></trkpt><trkpt lat="43.1116698" lon="13.5741251"><ele>142.0</ele><time>2026-04-12T07:34:02.072Z</time></trkpt><trkpt lat="43.1115655" lon="13.574044"><ele>142.0</ele><time>2026-04-12T07:34:03.041Z</time></trkpt><trkpt lat="43.111469" lon="13.573973"><ele>142.0</ele><time>2026-04-12T07:34:04.065Z</time></trkpt><trkpt lat="43.1113778" lon="13.5739021"><ele>142.0</ele><time>2026-04-12T07:34:05.076Z</time></trkpt><trkpt lat="43.1112908" lon="13.5738205"><ele>142.0</ele><time>2026-04-12T07:34:06.076Z</time></trkpt><trkpt lat="43.1111991" lon="13.5737428"><ele>142.25</ele><time>2026-04-12T07:34:07.069Z</time></trkpt><trkpt lat="43.1110973" lon="13.5736611"><ele>142.5</ele><time>2026-04-12T07:34:08.011Z</time></trkpt><trkpt lat="43.1110002" lon="13.5735592"><ele>142.75</ele><time>2026-04-12T07:34:09.016Z</time></trkpt><trkpt lat="43.1109092" lon="13.5734478"><ele>143.0</ele><time>2026-04-12T07:34:10.063Z</time></trkpt><trkpt lat="43.1108312" lon="13.5733223"><ele>143.0</ele><time>2026-04-12T07:34:11.057Z</time></trkpt><trkpt lat="43.1107559" lon="13.5731699"><ele>143.0</ele><time>2026-04-12T07:34:12.066Z</time></trkpt><trkpt lat="43.1106857" lon="13.5730109"><ele>143.0</ele><time>2026-04-12T07:34:13.045Z</time></trkpt><trkpt lat="43.1106176" lon="13.5728575"><ele>143.0</ele><time>2026-04-12T07:34:14.072Z</time></trkpt><trkpt lat="43.1105515" lon="13.5727161"><ele>142.75</ele><time>2026-04-12T07:34:15.066Z</time></trkpt><trkpt lat="43.1104762" lon="13.5725905"><ele>142.5</ele><time>2026-04-12T07:34:16.069Z</time></trkpt><trkpt lat="43.1104037" lon="13.5724778"><ele>142.25</ele><time>2026-04-12T07:34:17.074Z</time></trkpt><trkpt lat="43.1103451" lon="13.572346"><ele>142.0</ele><time>2026-04-12T07:34:18.07Z</time></trkpt><trkpt lat="43.1102863" lon="13.5722026"><ele>142.0</ele><time>2026-04-12T07:34:19.069Z</time></trkpt><trkpt lat="43.1102319" lon="13.572046"><ele>142.0</ele><time>2026-04-12T07:34:20.077Z</time></trkpt><trkpt lat="43.110183" lon="13.5718785"><ele>142.0</ele><time>2026-04-12T07:34:21.063Z</time></trkpt><trkpt lat="43.1101505" lon="13.5717115"><ele>142.0</ele><time>2026-04-12T07:34:22.064Z</time></trkpt><trkpt lat="43.1101075" lon="13.5715599"><ele>142.6</ele><time>2026-04-12T07:34:23.059Z</time></trkpt><trkpt lat="43.1100753" lon="13.5714229"><ele>143.2</ele><time>2026-04-12T07:34:24.068Z</time></trkpt><trkpt lat="43.1100431" lon="13.57129"><ele>143.8</ele><time>2026-04-12T07:34:25.055Z</time></trkpt><trkpt lat="43.1100173" lon="13.57116"><ele>144.4</ele><time>2026-04-12T07:34:26.068Z</time></trkpt><trkpt lat="43.109998" lon="13.5710263"><ele>145.0</ele><time>2026-04-12T07:34:27.076Z</time></trkpt><trkpt lat="43.1099774" lon="13.5708891"><ele>145.25</ele><time>2026-04-12T07:34:28.067Z</time></trkpt><trkpt lat="43.1099501" lon="13.570733"><ele>145.5</ele><time>2026-04-12T07:34:29.073Z</time></trkpt><trkpt lat="43.1099223" lon="13.5705649"><ele>145.75</ele><time>2026-04-12T07:34:30.075Z</time></trkpt><trkpt lat="43.1098801" lon="13.5703976"><ele>146.0</ele><time>2026-04-12T07:34:31.058Z</time></trkpt><trkpt lat="43.1098475" lon="13.5702297"><ele>145.25</ele><time>2026-04-12T07:34:31.996Z</time></trkpt><trkpt lat="43.1098139" lon="13.5700511"><ele>144.5</ele><time>2026-04-12T07:34:33.043Z</time></trkpt><trkpt lat="43.109775" lon="13.5698727"><ele>143.75</ele><time>2026-04-12T07:34:34.057Z</time></trkpt><trkpt lat="43.1097373" lon="13.5697065"><ele>143.0</ele><time>2026-04-12T07:34:35.044Z</time></trkpt><trkpt lat="43.1097052" lon="13.5695554"><ele>143.6</ele><time>2026-04-12T07:34:36.025Z</time></trkpt><trkpt lat="43.1096767" lon="13.5694079"><ele>144.20000000000002</ele><time>2026-04-12T07:34:37.048Z</time></trkpt><trkpt lat="43.1096565" lon="13.5692547"><ele>144.8</ele><time>2026-04-12T07:34:38.049Z</time></trkpt><trkpt lat="43.1096369" lon="13.5691186"><ele>145.4</ele><time>2026-04-12T07:34:39.051Z</time></trkpt><trkpt lat="43.1096205" lon="13.5689791"><ele>146.0</ele><time>2026-04-12T07:34:40.052Z</time></trkpt><trkpt lat="43.1096082" lon="13.568858"><ele>146.0</ele><time>2026-04-12T07:34:41.072Z</time></trkpt><trkpt lat="43.1095883" lon="13.5687508"><ele>146.0</ele><time>2026-04-12T07:34:42.058Z</time></trkpt><trkpt lat="43.1095371" lon="13.5686132"><ele>146.0</ele><time>2026-04-12T07:34:44.063Z</time></trkpt><trkpt lat="43.1094579" lon="13.5685924"><ele>146.0</ele><time>2026-04-12T07:34:46.036Z</time></trkpt><trkpt lat="43.1093803" lon="13.5686964"><ele>146.0</ele><time>2026-04-12T07:34:48.083Z</time></trkpt><trkpt lat="43.1093321" lon="13.5687786"><ele>146.0</ele><time>2026-04-12T07:34:49.044Z</time></trkpt><trkpt lat="43.1093006" lon="13.5688708"><ele>146.0</ele><time>2026-04-12T07:34:50.069Z</time></trkpt><trkpt lat="43.109268" lon="13.568984"><ele>146.0</ele><time>2026-04-12T07:34:51.069Z</time></trkpt><trkpt lat="43.1092412" lon="13.569069"><ele>146.0</ele><time>2026-04-12T07:34:52.068Z</time></trkpt><trkpt lat="43.1091964" lon="13.5691407"><ele>146.0</ele><time>2026-04-12T07:34:53.081Z</time></trkpt><trkpt lat="43.1090623" lon="13.569172"><ele>146.0</ele><time>2026-04-12T07:34:55.067Z</time></trkpt><trkpt lat="43.1090095" lon="13.5690879"><ele>145.5</ele><time>2026-04-12T07:34:56.069Z</time></trkpt><trkpt lat="43.1089449" lon="13.5689523"><ele>145.0</ele><time>2026-04-12T07:34:57.057Z</time></trkpt><trkpt lat="43.1088567" lon="13.5687832"><ele>144.5</ele><time>2026-04-12T07:34:58.058Z</time></trkpt><trkpt lat="43.1087677" lon="13.5686224"><ele>144.0</ele><time>2026-04-12T07:34:59.078Z</time></trkpt><trkpt lat="43.108673" lon="13.5684621"><ele>144.0</ele><time>2026-04-12T07:35:00.053Z</time></trkpt><trkpt lat="43.1085822" lon="13.5682926"><ele>144.0</ele><time>2026-04-12T07:35:01.055Z</time></trkpt><trkpt lat="43.1084867" lon="13.568131"><ele>144.0</ele><time>2026-04-12T07:35:02.075Z</time></trkpt><trkpt lat="43.1083948" lon="13.5679594"><ele>143.66666666666666</ele><time>2026-04-12T07:35:03.057Z</time></trkpt><trkpt lat="43.1082977" lon="13.5677873"><ele>143.33333333333331</ele><time>2026-04-12T07:35:04.068Z</time></trkpt><trkpt lat="43.1081973" lon="13.5676085"><ele>143.0</ele><time>2026-04-12T07:35:05.082Z</time></trkpt><trkpt lat="43.1080939" lon="13.5674335"><ele>143.0</ele><time>2026-04-12T07:35:06.075Z</time></trkpt><trkpt lat="43.1079858" lon="13.5672558"><ele>143.0</ele><time>2026-04-12T07:35:07.058Z</time></trkpt><trkpt lat="43.1078805" lon="13.5670791"><ele>143.0</ele><time>2026-04-12T07:35:08.033Z</time></trkpt><trkpt lat="43.1077842" lon="13.5669116"><ele>142.66666666666666</ele><time>2026-04-12T07:35:09.07Z</time></trkpt><trkpt lat="43.1076785" lon="13.5667377"><ele>142.33333333333334</ele><time>2026-04-12T07:35:10.084Z</time></trkpt><trkpt lat="43.1075712" lon="13.5665482"><ele>142.0</ele><time>2026-04-12T07:35:11.062Z</time></trkpt><trkpt lat="43.1074655" lon="13.5663597"><ele>142.66666666666669</ele><time>2026-04-12T07:35:12.09Z</time></trkpt><trkpt lat="43.1073649" lon="13.5661871"><ele>143.33333333333334</ele><time>2026-04-12T07:35:13.075Z</time></trkpt><trkpt lat="43.1072669" lon="13.5660145"><ele>144.0</ele><time>2026-04-12T07:35:14.064Z</time></trkpt><trkpt lat="43.1071775" lon="13.5658487"><ele>144.0</ele><time>2026-04-12T07:35:15.073Z</time></trkpt><trkpt lat="43.1070879" lon="13.5656881"><ele>144.0</ele><time>2026-04-12T07:35:16.058Z</time></trkpt><trkpt lat="43.1069951" lon="13.5655251"><ele>144.0</ele><time>2026-04-12T07:35:17.088Z</time></trkpt><trkpt lat="43.1069023" lon="13.5653599"><ele>144.33333333333334</ele><time>2026-04-12T07:35:18.084Z</time></trkpt><trkpt lat="43.1068134" lon="13.5651944"><ele>144.66666666666669</ele><time>2026-04-12T07:35:19.084Z</time></trkpt><trkpt lat="43.1067237" lon="13.5650189"><ele>145.0</ele><time>2026-04-12T07:35:20.078Z</time></trkpt><trkpt lat="43.1066317" lon="13.5648469"><ele>145.0</ele><time>2026-04-12T07:35:21.036Z</time></trkpt><trkpt lat="43.1065333" lon="13.5646697"><ele>145.0</ele><time>2026-04-12T07:35:22.064Z</time></trkpt><trkpt lat="43.1064321" lon="13.5644958"><ele>145.0</ele><time>2026-04-12T07:35:23.074Z</time></trkpt><trkpt lat="43.1063329" lon="13.5643152"><ele>145.0</ele><time>2026-04-12T07:35:24.046Z</time></trkpt><trkpt lat="43.1062299" lon="13.5641385"><ele>145.0</ele><time>2026-04-12T07:35:25.07Z</time></trkpt><trkpt lat="43.1061294" lon="13.5639564"><ele>145.0</ele><time>2026-04-12T07:35:26.074Z</time></trkpt><trkpt lat="43.1060313" lon="13.5637741"><ele>144.66666666666669</ele><time>2026-04-12T07:35:27.036Z</time></trkpt><trkpt lat="43.1059285" lon="13.5635954"><ele>144.33333333333334</ele><time>2026-04-12T07:35:28.085Z</time></trkpt><trkpt lat="43.1058319" lon="13.5634137"><ele>144.0</ele><time>2026-04-12T07:35:29.063Z</time></trkpt><trkpt lat="43.1057405" lon="13.5632453"><ele>144.5</ele><time>2026-04-12T07:35:30.076Z</time></trkpt><trkpt lat="43.1056571" lon="13.5630885"><ele>145.0</ele><time>2026-04-12T07:35:31.049Z</time></trkpt><trkpt lat="43.1055675" lon="13.5629339"><ele>145.5</ele><time>2026-04-12T07:35:32.031Z</time></trkpt><trkpt lat="43.1054819" lon="13.5627811"><ele>146.0</ele><time>2026-04-12T07:35:33.065Z</time></trkpt><trkpt lat="43.1053875" lon="13.5626196"><ele>146.25</ele><time>2026-04-12T07:35:34.052Z</time></trkpt><trkpt lat="43.1052977" lon="13.5624558"><ele>146.5</ele><time>2026-04-12T07:35:35.042Z</time></trkpt><trkpt lat="43.1052137" lon="13.5622963"><ele>146.75</ele><time>2026-04-12T07:35:36.069Z</time></trkpt><trkpt lat="43.1051456" lon="13.5621518"><ele>147.0</ele><time>2026-04-12T07:35:37.049Z</time></trkpt><trkpt lat="43.1050856" lon="13.5620426"><ele>147.25</ele><time>2026-04-12T07:35:38.032Z</time></trkpt><trkpt lat="43.10502" lon="13.5619268"><ele>147.5</ele><time>2026-04-12T07:35:39.044Z</time></trkpt><trkpt lat="43.1049366" lon="13.5618038"><ele>147.75</ele><time>2026-04-12T07:35:40.078Z</time></trkpt><trkpt lat="43.1048599" lon="13.5616696"><ele>148.0</ele><time>2026-04-12T07:35:41.052Z</time></trkpt><trkpt lat="43.1047803" lon="13.561532"><ele>147.5</ele><time>2026-04-12T07:35:42.063Z</time></trkpt><trkpt lat="43.1046959" lon="13.5613888"><ele>147.0</ele><time>2026-04-12T07:35:43.074Z</time></trkpt><trkpt lat="43.1046112" lon="13.5612423"><ele>146.5</ele><time>2026-04-12T07:35:44.076Z</time></trkpt><trkpt lat="43.1045457" lon="13.5611246"><ele>146.0</ele><time>2026-04-12T07:35:45.052Z</time></trkpt><trkpt lat="43.1044906" lon="13.5610215"><ele>146.0</ele><time>2026-04-12T07:35:46.024Z</time></trkpt><trkpt lat="43.1044396" lon="13.5609273"><ele>146.0</ele><time>2026-04-12T07:35:47.062Z</time></trkpt><trkpt lat="43.10437" lon="13.5608148"><ele>146.0</ele><time>2026-04-12T07:35:48.06Z</time></trkpt><trkpt lat="43.1042994" lon="13.5606927"><ele>146.0</ele><time>2026-04-12T07:35:49.049Z</time></trkpt><trkpt lat="43.1042251" lon="13.5605623"><ele>146.0</ele><time>2026-04-12T07:35:50.054Z</time></trkpt><trkpt lat="43.1041472" lon="13.5604357"><ele>145.75</ele><time>2026-04-12T07:35:51.05Z</time></trkpt><trkpt lat="43.1040676" lon="13.5602939"><ele>145.5</ele><time>2026-04-12T07:35:52.054Z</time></trkpt><trkpt lat="43.1039867" lon="13.5601415"><ele>145.25</ele><time>2026-04-12T07:35:53.048Z</time></trkpt><trkpt lat="43.1039083" lon="13.5599774"><ele>145.0</ele><time>2026-04-12T07:35:54.074Z</time></trkpt><trkpt lat="43.1038239" lon="13.5598133"><ele>145.0</ele><time>2026-04-12T07:35:55.067Z</time></trkpt><trkpt lat="43.1037342" lon="13.5596518"><ele>145.0</ele><time>2026-04-12T07:35:56.065Z</time></trkpt><trkpt lat="43.1036398" lon="13.5594918"><ele>145.0</ele><time>2026-04-12T07:35:57.072Z</time></trkpt><trkpt lat="43.1035457" lon="13.5593294"><ele>146.0</ele><time>2026-04-12T07:35:58.054Z</time></trkpt><trkpt lat="43.1034567" lon="13.5591598"><ele>147.0</ele><time>2026-04-12T07:35:59.074Z</time></trkpt><trkpt lat="43.1033665" lon="13.5589907"><ele>148.0</ele><time>2026-04-12T07:36:00.074Z</time></trkpt><trkpt lat="43.1032691" lon="13.5588246"><ele>148.33333333333334</ele><time>2026-04-12T07:36:01.067Z</time></trkpt><trkpt lat="43.1031749" lon="13.5586499"><ele>148.66666666666666</ele><time>2026-04-12T07:36:02.063Z</time></trkpt><trkpt lat="43.1030786" lon="13.5584653"><ele>149.0</ele><time>2026-04-12T07:36:03.064Z</time></trkpt><trkpt lat="43.1029824" lon="13.5582889"><ele>149.0</ele><time>2026-04-12T07:36:04.069Z</time></trkpt><trkpt lat="43.102879" lon="13.5581186"><ele>149.0</ele><time>2026-04-12T07:36:05.063Z</time></trkpt><trkpt lat="43.1027765" lon="13.5579334"><ele>149.0</ele><time>2026-04-12T07:36:06.068Z</time></trkpt><trkpt lat="43.1026711" lon="13.5577583"><ele>149.0</ele><time>2026-04-12T07:36:07.067Z</time></trkpt><trkpt lat="43.1025755" lon="13.5575789"><ele>149.0</ele><time>2026-04-12T07:36:08.046Z</time></trkpt><trkpt lat="43.1024732" lon="13.5573904"><ele>149.0</ele><time>2026-04-12T07:36:09.066Z</time></trkpt><trkpt lat="43.1023725" lon="13.5572038"><ele>148.33333333333331</ele><time>2026-04-12T07:36:10.084Z</time></trkpt><trkpt lat="43.1022699" lon="13.5570181"><ele>147.66666666666666</ele><time>2026-04-12T07:36:10.989Z</time></trkpt><trkpt lat="43.1021682" lon="13.5568334"><ele>147.0</ele><time>2026-04-12T07:36:12.001Z</time></trkpt><trkpt lat="43.102068" lon="13.5566495"><ele>147.0</ele><time>2026-04-12T07:36:13.053Z</time></trkpt><trkpt lat="43.1019652" lon="13.5564639"><ele>147.0</ele><time>2026-04-12T07:36:13.993Z</time></trkpt><trkpt lat="43.1018624" lon="13.5562921"><ele>147.0</ele><time>2026-04-12T07:36:15.015Z</time></trkpt><trkpt lat="43.1017627" lon="13.5561227"><ele>147.0</ele><time>2026-04-12T07:36:15.99Z</time></trkpt><trkpt lat="43.1016654" lon="13.5559494"><ele>147.0</ele><time>2026-04-12T07:36:17.014Z</time></trkpt><trkpt lat="43.1015754" lon="13.555785"><ele>147.0</ele><time>2026-04-12T07:36:18.032Z</time></trkpt><trkpt lat="43.1014929" lon="13.5556373"><ele>147.0</ele><time>2026-04-12T07:36:19.002Z</time></trkpt><trkpt lat="43.1014245" lon="13.5555058"><ele>147.0</ele><time>2026-04-12T07:36:20.017Z</time></trkpt><trkpt lat="43.1013619" lon="13.5553944"><ele>147.0</ele><time>2026-04-12T07:36:21.027Z</time></trkpt><trkpt lat="43.1013163" lon="13.5552934"><ele>147.0</ele><time>2026-04-12T07:36:22.002Z</time></trkpt><trkpt lat="43.1012718" lon="13.5552017"><ele>147.0</ele><time>2026-04-12T07:36:23.079Z</time></trkpt><trkpt lat="43.1012547" lon="13.5551181"><ele>147.0</ele><time>2026-04-12T07:36:24.042Z</time></trkpt><trkpt lat="43.1013052" lon="13.554976"><ele>147.0</ele><time>2026-04-12T07:36:26.025Z</time></trkpt><trkpt lat="43.1013697" lon="13.5548941"><ele>147.4</ele><time>2026-04-12T07:36:27.049Z</time></trkpt><trkpt lat="43.1014509" lon="13.554807"><ele>147.79999999999998</ele><time>2026-04-12T07:36:28.047Z</time></trkpt><trkpt lat="43.101529" lon="13.5547167"><ele>148.2</ele><time>2026-04-12T07:36:29.047Z</time></trkpt><trkpt lat="43.1016021" lon="13.5546257"><ele>148.6</ele><time>2026-04-12T07:36:30.061Z</time></trkpt><trkpt lat="43.1016633" lon="13.5545416"><ele>149.0</ele><time>2026-04-12T07:36:31.049Z</time></trkpt><trkpt lat="43.1017171" lon="13.5544791"><ele>149.5</ele><time>2026-04-12T07:36:32.044Z</time></trkpt><trkpt lat="43.10183" lon="13.5544038"><ele>150.0</ele><time>2026-04-12T07:36:34.033Z</time></trkpt><trkpt lat="43.1018948" lon="13.5543558"><ele>150.5</ele><time>2026-04-12T07:36:35.022Z</time></trkpt><trkpt lat="43.1019615" lon="13.5542975"><ele>151.0</ele><time>2026-04-12T07:36:36.056Z</time></trkpt><trkpt lat="43.1020366" lon="13.554229"><ele>151.5</ele><time>2026-04-12T07:36:37.062Z</time></trkpt><trkpt lat="43.1020889" lon="13.5541563"><ele>152.0</ele><time>2026-04-12T07:36:38.035Z</time></trkpt><trkpt lat="43.1021355" lon="13.554074"><ele>152.0</ele><time>2026-04-12T07:36:39.066Z</time></trkpt><trkpt lat="43.1021669" lon="13.5539987"><ele>152.0</ele><time>2026-04-12T07:36:40.044Z</time></trkpt><trkpt lat="43.1021995" lon="13.5538774"><ele>152.0</ele><time>2026-04-12T07:36:42.055Z</time></trkpt><trkpt lat="43.1021818" lon="13.5537768"><ele>152.0</ele><time>2026-04-12T07:36:44.055Z</time></trkpt><trkpt lat="43.1021202" lon="13.5537214"><ele>152.0</ele><time>2026-04-12T07:36:45.05Z</time></trkpt><trkpt lat="43.1020109" lon="13.5536484"><ele>152.0</ele><time>2026-04-12T07:36:46.066Z</time></trkpt><trkpt lat="43.1018977" lon="13.5535579"><ele>152.25</ele><time>2026-04-12T07:36:47.051Z</time></trkpt><trkpt lat="43.1017845" lon="13.5534583"><ele>152.5</ele><time>2026-04-12T07:36:48.064Z</time></trkpt><trkpt lat="43.1016904" lon="13.5533577"><ele>152.75</ele><time>2026-04-12T07:36:49.059Z</time></trkpt><trkpt lat="43.1015962" lon="13.5532782"><ele>153.0</ele><time>2026-04-12T07:36:50.068Z</time></trkpt><trkpt lat="43.1015001" lon="13.5532125"><ele>153.0</ele><time>2026-04-12T07:36:51.072Z</time></trkpt><trkpt lat="43.1014232" lon="13.5531318"><ele>153.0</ele><time>2026-04-12T07:36:52.053Z</time></trkpt><trkpt lat="43.1013552" lon="13.5530282"><ele>153.0</ele><time>2026-04-12T07:36:53.063Z</time></trkpt><trkpt lat="43.1012941" lon="13.552949"><ele>153.0</ele><time>2026-04-12T07:36:54.064Z</time></trkpt><trkpt lat="43.1012327" lon="13.5529008"><ele>153.0</ele><time>2026-04-12T07:36:55.013Z</time></trkpt><trkpt lat="43.1011541" lon="13.552836"><ele>153.0</ele><time>2026-04-12T07:36:56.071Z</time></trkpt><trkpt lat="43.1010707" lon="13.5527533"><ele>153.25</ele><time>2026-04-12T07:36:57.016Z</time></trkpt><trkpt lat="43.1009818" lon="13.5526519"><ele>153.5</ele><time>2026-04-12T07:36:58.077Z</time></trkpt><trkpt lat="43.1008934" lon="13.5525409"><ele>153.75</ele><time>2026-04-12T07:36:59.05Z</time></trkpt><trkpt lat="43.1007996" lon="13.5524388"><ele>154.0</ele><time>2026-04-12T07:37:00.057Z</time></trkpt><trkpt lat="43.1006954" lon="13.5523404"><ele>154.0</ele><time>2026-04-12T07:37:01.062Z</time></trkpt><trkpt lat="43.1005922" lon="13.5522386"><ele>154.0</ele><time>2026-04-12T07:37:02.065Z</time></trkpt><trkpt lat="43.1004843" lon="13.5521536"><ele>154.0</ele><time>2026-04-12T07:37:03.055Z</time></trkpt><trkpt lat="43.1003854" lon="13.5520734"><ele>154.0</ele><time>2026-04-12T07:37:04.063Z</time></trkpt><trkpt lat="43.1002877" lon="13.5519957"><ele>153.5</ele><time>2026-04-12T07:37:05.044Z</time></trkpt><trkpt lat="43.1001859" lon="13.5519131"><ele>153.0</ele><time>2026-04-12T07:37:06.077Z</time></trkpt><trkpt lat="43.100087" lon="13.5518186"><ele>152.5</ele><time>2026-04-12T07:37:07.056Z</time></trkpt><trkpt lat="43.0999967" lon="13.5517323"><ele>152.0</ele><time>2026-04-12T07:37:08.042Z</time></trkpt><trkpt lat="43.0999118" lon="13.5516471"><ele>152.0</ele><time>2026-04-12T07:37:09.064Z</time></trkpt><trkpt lat="43.0998208" lon="13.5515632"><ele>152.0</ele><time>2026-04-12T07:37:10.059Z</time></trkpt><trkpt lat="43.0997509" lon="13.5514871"><ele>152.0</ele><time>2026-04-12T07:37:11.072Z</time></trkpt><trkpt lat="43.0996905" lon="13.5514188"><ele>152.0</ele><time>2026-04-12T07:37:12.063Z</time></trkpt><trkpt lat="43.0996357" lon="13.551358"><ele>152.0</ele><time>2026-04-12T07:37:13.049Z</time></trkpt><trkpt lat="43.099563" lon="13.5513176"><ele>152.0</ele><time>2026-04-12T07:37:14.012Z</time></trkpt><trkpt lat="43.0994884" lon="13.5512769"><ele>152.0</ele><time>2026-04-12T07:37:15.055Z</time></trkpt><trkpt lat="43.099402" lon="13.5512216"><ele>152.0</ele><time>2026-04-12T07:37:16.06Z</time></trkpt><trkpt lat="43.0993156" lon="13.5511485"><ele>152.0</ele><time>2026-04-12T07:37:17.07Z</time></trkpt><trkpt lat="43.0992263" lon="13.5510804"><ele>152.0</ele><time>2026-04-12T07:37:18.062Z</time></trkpt><trkpt lat="43.0991451" lon="13.5510177"><ele>152.0</ele><time>2026-04-12T07:37:19.065Z</time></trkpt><trkpt lat="43.099056" lon="13.5509668"><ele>152.5</ele><time>2026-04-12T07:37:20.02Z</time></trkpt><trkpt lat="43.0989716" lon="13.5509184"><ele>153.0</ele><time>2026-04-12T07:37:21.065Z</time></trkpt><trkpt lat="43.0988865" lon="13.550869"><ele>153.5</ele><time>2026-04-12T07:37:22.072Z</time></trkpt><trkpt lat="43.0988015" lon="13.5508335"><ele>154.0</ele><time>2026-04-12T07:37:23.011Z</time></trkpt><trkpt lat="43.0987189" lon="13.5507995"><ele>154.5</ele><time>2026-04-12T07:37:24.066Z</time></trkpt><trkpt lat="43.0986334" lon="13.5507692"><ele>155.0</ele><time>2026-04-12T07:37:25.05Z</time></trkpt><trkpt lat="43.0985377" lon="13.5507667"><ele>155.0</ele><time>2026-04-12T07:37:27.06Z</time></trkpt><trkpt lat="43.0984474" lon="13.5507514"><ele>155.0</ele><time>2026-04-12T07:37:29.052Z</time></trkpt><trkpt lat="43.0983639" lon="13.5507176"><ele>155.0</ele><time>2026-04-12T07:37:31.053Z</time></trkpt><trkpt lat="43.0982451" lon="13.5506595"><ele>155.0</ele><time>2026-04-12T07:37:33.04Z</time></trkpt><trkpt lat="43.0981779" lon="13.5506196"><ele>155.0</ele><time>2026-04-12T07:37:34.06Z</time></trkpt><trkpt lat="43.0980866" lon="13.5505449"><ele>155.5</ele><time>2026-04-12T07:37:36.053Z</time></trkpt><trkpt lat="43.0980369" lon="13.5504313"><ele>156.0</ele><time>2026-04-12T07:37:39.059Z</time></trkpt><trkpt lat="43.0979924" lon="13.5503617"><ele>156.5</ele><time>2026-04-12T07:37:40.055Z</time></trkpt><trkpt lat="43.0979257" lon="13.5502847"><ele>157.0</ele><time>2026-04-12T07:37:41.053Z</time></trkpt><trkpt lat="43.0978715" lon="13.5501999"><ele>157.5</ele><time>2026-04-12T07:37:42.085Z</time></trkpt><trkpt lat="43.0978255" lon="13.5501003"><ele>158.0</ele><time>2026-04-12T07:37:43.061Z</time></trkpt><trkpt lat="43.097797" lon="13.5499799"><ele>158.20000000000002</ele><time>2026-04-12T07:37:44.057Z</time></trkpt><trkpt lat="43.097759" lon="13.5498427"><ele>158.4</ele><time>2026-04-12T07:37:45.07Z</time></trkpt><trkpt lat="43.097731" lon="13.5497067"><ele>158.60000000000002</ele><time>2026-04-12T07:37:46.048Z</time></trkpt><trkpt lat="43.0977118" lon="13.5495625"><ele>158.8</ele><time>2026-04-12T07:37:47.052Z</time></trkpt><trkpt lat="43.097697" lon="13.5494108"><ele>159.0</ele><time>2026-04-12T07:37:48.051Z</time></trkpt><trkpt lat="43.0976957" lon="13.5492617"><ele>159.0</ele><time>2026-04-12T07:37:49.071Z</time></trkpt><trkpt lat="43.0976809" lon="13.5491108"><ele>159.0</ele><time>2026-04-12T07:37:50.062Z</time></trkpt><trkpt lat="43.0976809" lon="13.5489574"><ele>159.0</ele><time>2026-04-12T07:37:51.047Z</time></trkpt><trkpt lat="43.097674" lon="13.5487923"><ele>159.0</ele><time>2026-04-12T07:37:52.046Z</time></trkpt><trkpt lat="43.097674" lon="13.5486254"><ele>159.0</ele><time>2026-04-12T07:37:53.077Z</time></trkpt><trkpt lat="43.0976777" lon="13.5484686"><ele>159.0</ele><time>2026-04-12T07:37:54.062Z</time></trkpt><trkpt lat="43.0976832" lon="13.5483463"><ele>159.0</ele><time>2026-04-12T07:37:55.059Z</time></trkpt><trkpt lat="43.0976999" lon="13.5482623"><ele>159.0</ele><time>2026-04-12T07:37:56.06Z</time></trkpt><trkpt lat="43.0977767" lon="13.5481941"><ele>159.0</ele><time>2026-04-12T07:37:58.062Z</time></trkpt><trkpt lat="43.0978846" lon="13.5481706"><ele>159.0</ele><time>2026-04-12T07:38:00.068Z</time></trkpt><trkpt lat="43.0979488" lon="13.5480955"><ele>159.0</ele><time>2026-04-12T07:38:01.062Z</time></trkpt><trkpt lat="43.0980141" lon="13.5479994"><ele>159.0</ele><time>2026-04-12T07:38:02.074Z</time></trkpt><trkpt lat="43.0980732" lon="13.547906"><ele>159.0</ele><time>2026-04-12T07:38:03.058Z</time></trkpt><trkpt lat="43.0981004" lon="13.5477255"><ele>159.0</ele><time>2026-04-12T07:38:04.064Z</time></trkpt><trkpt lat="43.0981162" lon="13.5474978"><ele>158.33333333333334</ele><time>2026-04-12T07:38:05.061Z</time></trkpt><trkpt lat="43.0981321" lon="13.5472741"><ele>157.66666666666669</ele><time>2026-04-12T07:38:06.08Z</time></trkpt><trkpt lat="43.0981556" lon="13.5470541"><ele>157.0</ele><time>2026-04-12T07:38:07.059Z</time></trkpt><trkpt lat="43.0981699" lon="13.5468398"><ele>157.0</ele><time>2026-04-12T07:38:08.079Z</time></trkpt><trkpt lat="43.0981916" lon="13.5466081"><ele>157.0</ele><time>2026-04-12T07:38:08.99Z</time></trkpt><trkpt lat="43.0982143" lon="13.5463779"><ele>157.0</ele><time>2026-04-12T07:38:10.069Z</time></trkpt><trkpt lat="43.0982412" lon="13.5461532"><ele>157.66666666666669</ele><time>2026-04-12T07:38:11.039Z</time></trkpt><trkpt lat="43.0982658" lon="13.5459233"><ele>158.33333333333334</ele><time>2026-04-12T07:38:12.07Z</time></trkpt><trkpt lat="43.0982914" lon="13.5456923"><ele>159.0</ele><time>2026-04-12T07:38:13.072Z</time></trkpt><trkpt lat="43.0983103" lon="13.545458"><ele>159.0</ele><time>2026-04-12T07:38:14.061Z</time></trkpt><trkpt lat="43.0983363" lon="13.5452399"><ele>159.0</ele><time>2026-04-12T07:38:15.069Z</time></trkpt><trkpt lat="43.0983669" lon="13.5450316"><ele>159.0</ele><time>2026-04-12T07:38:16.068Z</time></trkpt><trkpt lat="43.0983926" lon="13.5448177"><ele>159.0</ele><time>2026-04-12T07:38:17.065Z</time></trkpt><trkpt lat="43.0984157" lon="13.5446155"><ele>159.0</ele><time>2026-04-12T07:38:18.032Z</time></trkpt><trkpt lat="43.0984306" lon="13.5444111"><ele>159.0</ele><time>2026-04-12T07:38:19.064Z</time></trkpt><trkpt lat="43.0984448" lon="13.5442021"><ele>159.25</ele><time>2026-04-12T07:38:20.067Z</time></trkpt><trkpt lat="43.0984693" lon="13.5440071"><ele>159.5</ele><time>2026-04-12T07:38:21.071Z</time></trkpt><trkpt lat="43.098493" lon="13.5438058"><ele>159.75</ele><time>2026-04-12T07:38:22.067Z</time></trkpt><trkpt lat="43.0985114" lon="13.5436123"><ele>160.0</ele><time>2026-04-12T07:38:23.082Z</time></trkpt><trkpt lat="43.0985264" lon="13.5434257"><ele>160.0</ele><time>2026-04-12T07:38:24.07Z</time></trkpt><trkpt lat="43.0985269" lon="13.543275"><ele>160.0</ele><time>2026-04-12T07:38:25.068Z</time></trkpt><trkpt lat="43.0985412" lon="13.5431196"><ele>160.0</ele><time>2026-04-12T07:38:26.063Z</time></trkpt><trkpt lat="43.0985632" lon="13.5429742"><ele>160.0</ele><time>2026-04-12T07:38:27.063Z</time></trkpt><trkpt lat="43.0985887" lon="13.5428182"><ele>160.0</ele><time>2026-04-12T07:38:28.039Z</time></trkpt><trkpt lat="43.098614" lon="13.5426649"><ele>160.0</ele><time>2026-04-12T07:38:29.03Z</time></trkpt><trkpt lat="43.0986448" lon="13.5425499"><ele>160.0</ele><time>2026-04-12T07:38:30.069Z</time></trkpt><trkpt lat="43.0986883" lon="13.5424669"><ele>160.0</ele><time>2026-04-12T07:38:31.069Z</time></trkpt><trkpt lat="43.0987515" lon="13.5424165"><ele>160.0</ele><time>2026-04-12T07:38:32.051Z</time></trkpt><trkpt lat="43.0988205" lon="13.5423861"><ele>160.0</ele><time>2026-04-12T07:38:33.036Z</time></trkpt><trkpt lat="43.0988874" lon="13.5423487"><ele>160.0</ele><time>2026-04-12T07:38:34.056Z</time></trkpt><trkpt lat="43.0989457" lon="13.5422973"><ele>160.0</ele><time>2026-04-12T07:38:36.051Z</time></trkpt><trkpt lat="43.0989116" lon="13.5422188"><ele>160.0</ele><time>2026-04-12T07:38:39.08Z</time></trkpt><trkpt lat="43.0988343" lon="13.5422276"><ele>160.0</ele><time>2026-04-12T07:38:40.072Z</time></trkpt><trkpt lat="43.0987257" lon="13.5422698"><ele>160.0</ele><time>2026-04-12T07:38:41.052Z</time></trkpt><trkpt lat="43.0986103" lon="13.5423041"><ele>160.0</ele><time>2026-04-12T07:38:42.061Z</time></trkpt><trkpt lat="43.0984906" lon="13.5423226"><ele>160.0</ele><time>2026-04-12T07:38:43.046Z</time></trkpt><trkpt lat="43.0983589" lon="13.5423131"><ele>160.0</ele><time>2026-04-12T07:38:44.057Z</time></trkpt><trkpt lat="43.0982218" lon="13.5422819"><ele>160.0</ele><time>2026-04-12T07:38:45.076Z</time></trkpt><trkpt lat="43.098087" lon="13.5422384"><ele>160.0</ele><time>2026-04-12T07:38:46.087Z</time></trkpt><trkpt lat="43.0979475" lon="13.5421987"><ele>159.75</ele><time>2026-04-12T07:38:47.066Z</time></trkpt><trkpt lat="43.0978061" lon="13.5421655"><ele>159.5</ele><time>2026-04-12T07:38:48.062Z</time></trkpt><trkpt lat="43.0976574" lon="13.5421286"><ele>159.25</ele><time>2026-04-12T07:38:49.068Z</time></trkpt><trkpt lat="43.0975061" lon="13.5420973"><ele>159.0</ele><time>2026-04-12T07:38:50.04Z</time></trkpt><trkpt lat="43.0973592" lon="13.5420649"><ele>160.25</ele><time>2026-04-12T07:38:51.065Z</time></trkpt><trkpt lat="43.0972194" lon="13.5420294"><ele>161.5</ele><time>2026-04-12T07:38:52.052Z</time></trkpt><trkpt lat="43.0970967" lon="13.541992"><ele>162.75</ele><time>2026-04-12T07:38:53.079Z</time></trkpt><trkpt lat="43.0969897" lon="13.5419553"><ele>164.0</ele><time>2026-04-12T07:38:54.071Z</time></trkpt><trkpt lat="43.0968932" lon="13.5418978"><ele>164.0</ele><time>2026-04-12T07:38:55.057Z</time></trkpt><trkpt lat="43.0968174" lon="13.5418304"><ele>164.0</ele><time>2026-04-12T07:38:56.064Z</time></trkpt><trkpt lat="43.0967515" lon="13.5417621"><ele>164.0</ele><time>2026-04-12T07:38:57.06Z</time></trkpt><trkpt lat="43.096697" lon="13.5416841"><ele>164.0</ele><time>2026-04-12T07:38:58.049Z</time></trkpt><trkpt lat="43.0966586" lon="13.5416074"><ele>164.0</ele><time>2026-04-12T07:38:59.019Z</time></trkpt><trkpt lat="43.0966061" lon="13.5415511"><ele>164.0</ele><time>2026-04-12T07:39:01.078Z</time></trkpt><trkpt lat="43.0965817" lon="13.5416811"><ele>164.0</ele><time>2026-04-12T07:39:04.06Z</time></trkpt><trkpt lat="43.0966097" lon="13.5417647"><ele>164.0</ele><time>2026-04-12T07:39:05.065Z</time></trkpt><trkpt lat="43.0966665" lon="13.5418605"><ele>164.0</ele><time>2026-04-12T07:39:06.055Z</time></trkpt><trkpt lat="43.0967309" lon="13.5419576"><ele>164.0</ele><time>2026-04-12T07:39:07.051Z</time></trkpt><trkpt lat="43.0967893" lon="13.5420582"><ele>164.0</ele><time>2026-04-12T07:39:08.057Z</time></trkpt><trkpt lat="43.0968594" lon="13.5421409"><ele>164.0</ele><time>2026-04-12T07:39:09.048Z</time></trkpt><trkpt lat="43.0969337" lon="13.5422051"><ele>164.0</ele><time>2026-04-12T07:39:10.05Z</time></trkpt><trkpt lat="43.0970163" lon="13.542256"><ele>164.0</ele><time>2026-04-12T07:39:11.068Z</time></trkpt><trkpt lat="43.0970802" lon="13.5422788"><ele>164.0</ele><time>2026-04-12T07:39:12.057Z</time></trkpt><trkpt lat="43.0971854" lon="13.5421961"><ele>164.0</ele><time>2026-04-12T07:39:14.064Z</time></trkpt><trkpt lat="43.0972796" lon="13.5420488"><ele>164.0</ele><time>2026-04-12T07:39:16.055Z</time></trkpt><trkpt lat="43.097327" lon="13.5419203"><ele>164.0</ele><time>2026-04-12T07:39:17.054Z</time></trkpt><trkpt lat="43.0973535" lon="13.5417698"><ele>164.0</ele><time>2026-04-12T07:39:18.01Z</time></trkpt><trkpt lat="43.0973738" lon="13.5416381"><ele>164.0</ele><time>2026-04-12T07:39:19.07Z</time></trkpt><trkpt lat="43.0973854" lon="13.5415117"><ele>164.0</ele><time>2026-04-12T07:39:20.067Z</time></trkpt><trkpt lat="43.097395" lon="13.541395"><ele>164.0</ele><time>2026-04-12T07:39:21.065Z</time></trkpt><trkpt lat="43.0974148" lon="13.5412726"><ele>162.79999999999998</ele><time>2026-04-12T07:39:22.078Z</time></trkpt><trkpt lat="43.0974447" lon="13.5411393"><ele>161.6</ele><time>2026-04-12T07:39:23.037Z</time></trkpt><trkpt lat="43.0974835" lon="13.5410087"><ele>160.4</ele><time>2026-04-12T07:39:24.053Z</time></trkpt><trkpt lat="43.0975176" lon="13.5408637"><ele>159.2</ele><time>2026-04-12T07:39:25.055Z</time></trkpt><trkpt lat="43.097547" lon="13.5407296"><ele>158.0</ele><time>2026-04-12T07:39:26.07Z</time></trkpt><trkpt lat="43.097572" lon="13.5406127"><ele>158.0</ele><time>2026-04-12T07:39:27.058Z</time></trkpt><trkpt lat="43.0975936" lon="13.5404813"><ele>158.0</ele><time>2026-04-12T07:39:28.053Z</time></trkpt><trkpt lat="43.0976158" lon="13.5403347"><ele>158.0</ele><time>2026-04-12T07:39:29.052Z</time></trkpt><trkpt lat="43.0976407" lon="13.5401781"><ele>158.0</ele><time>2026-04-12T07:39:30.038Z</time></trkpt><trkpt lat="43.097665" lon="13.5400385"><ele>158.0</ele><time>2026-04-12T07:39:31.05Z</time></trkpt><trkpt lat="43.0976695" lon="13.5398609"><ele>158.25</ele><time>2026-04-12T07:39:32.057Z</time></trkpt><trkpt lat="43.0976872" lon="13.5396999"><ele>158.5</ele><time>2026-04-12T07:39:33.068Z</time></trkpt><trkpt lat="43.0976897" lon="13.539526"><ele>158.75</ele><time>2026-04-12T07:39:34.049Z</time></trkpt><trkpt lat="43.0976896" lon="13.5393298"><ele>159.0</ele><time>2026-04-12T07:39:35.06Z</time></trkpt><trkpt lat="43.0977002" lon="13.5391411"><ele>159.25</ele><time>2026-04-12T07:39:36.063Z</time></trkpt><trkpt lat="43.0977237" lon="13.5389735"><ele>159.5</ele><time>2026-04-12T07:39:37.042Z</time></trkpt><trkpt lat="43.0977368" lon="13.5388144"><ele>159.75</ele><time>2026-04-12T07:39:38.059Z</time></trkpt><trkpt lat="43.0977326" lon="13.5386365"><ele>160.0</ele><time>2026-04-12T07:39:39.064Z</time></trkpt><trkpt lat="43.0977318" lon="13.5384663"><ele>159.75</ele><time>2026-04-12T07:39:40.052Z</time></trkpt><trkpt lat="43.0977351" lon="13.5383036"><ele>159.5</ele><time>2026-04-12T07:39:41.055Z</time></trkpt><trkpt lat="43.0977589" lon="13.5381385"><ele>159.25</ele><time>2026-04-12T07:39:42.057Z</time></trkpt><trkpt lat="43.097772" lon="13.5379657"><ele>159.0</ele><time>2026-04-12T07:39:43.059Z</time></trkpt><trkpt lat="43.0977798" lon="13.5377911"><ele>159.0</ele><time>2026-04-12T07:39:44.029Z</time></trkpt><trkpt lat="43.0977889" lon="13.5376142"><ele>159.0</ele><time>2026-04-12T07:39:45.058Z</time></trkpt><trkpt lat="43.0977903" lon="13.5374174"><ele>159.0</ele><time>2026-04-12T07:39:46.033Z</time></trkpt><trkpt lat="43.097794" lon="13.5372236"><ele>159.0</ele><time>2026-04-12T07:39:47.049Z</time></trkpt><trkpt lat="43.0978021" lon="13.5370306"><ele>159.0</ele><time>2026-04-12T07:39:48.071Z</time></trkpt><trkpt lat="43.0978019" lon="13.5368228"><ele>159.0</ele><time>2026-04-12T07:39:49.043Z</time></trkpt><trkpt lat="43.0977929" lon="13.5366172"><ele>159.0</ele><time>2026-04-12T07:39:50.055Z</time></trkpt><trkpt lat="43.0977764" lon="13.5364129"><ele>159.0</ele><time>2026-04-12T07:39:51.04Z</time></trkpt><trkpt lat="43.0977554" lon="13.5362202"><ele>159.0</ele><time>2026-04-12T07:39:52.064Z</time></trkpt><trkpt lat="43.0977394" lon="13.5360385"><ele>159.0</ele><time>2026-04-12T07:39:53.067Z</time></trkpt><trkpt lat="43.0977141" lon="13.5358471"><ele>159.0</ele><time>2026-04-12T07:39:54.062Z</time></trkpt><trkpt lat="43.0976783" lon="13.5356494"><ele>159.25</ele><time>2026-04-12T07:39:55.051Z</time></trkpt><trkpt lat="43.0976407" lon="13.5354573"><ele>159.5</ele><time>2026-04-12T07:39:56.067Z</time></trkpt><trkpt lat="43.0976015" lon="13.5352626"><ele>159.75</ele><time>2026-04-12T07:39:57.048Z</time></trkpt><trkpt lat="43.097552" lon="13.5350633"><ele>160.0</ele><time>2026-04-12T07:39:58.063Z</time></trkpt><trkpt lat="43.0975063" lon="13.5348816"><ele>160.0</ele><time>2026-04-12T07:39:59.047Z</time></trkpt><trkpt lat="43.0974664" lon="13.5347022"><ele>160.0</ele><time>2026-04-12T07:40:00.067Z</time></trkpt><trkpt lat="43.0974269" lon="13.5345244"><ele>160.0</ele><time>2026-04-12T07:40:01.026Z</time></trkpt><trkpt lat="43.0973876" lon="13.5343436"><ele>160.0</ele><time>2026-04-12T07:40:02.059Z</time></trkpt><trkpt lat="43.0973469" lon="13.5341725"><ele>161.4</ele><time>2026-04-12T07:40:03.04Z</time></trkpt><trkpt lat="43.0973073" lon="13.5340082"><ele>162.8</ele><time>2026-04-12T07:40:04.027Z</time></trkpt><trkpt lat="43.0972789" lon="13.5338515"><ele>164.2</ele><time>2026-04-12T07:40:05.018Z</time></trkpt><trkpt lat="43.0972612" lon="13.5337239"><ele>165.6</ele><time>2026-04-12T07:40:06.071Z</time></trkpt><trkpt lat="43.0972406" lon="13.5336209"><ele>167.0</ele><time>2026-04-12T07:40:07.049Z</time></trkpt><trkpt lat="43.0972071" lon="13.5335217"><ele>167.0</ele><time>2026-04-12T07:40:08.05Z</time></trkpt><trkpt lat="43.0971646" lon="13.5334267"><ele>167.0</ele><time>2026-04-12T07:40:09.059Z</time></trkpt><trkpt lat="43.0971242" lon="13.5333389"><ele>167.0</ele><time>2026-04-12T07:40:10.055Z</time></trkpt><trkpt lat="43.097083" lon="13.533255"><ele>167.0</ele><time>2026-04-12T07:40:11.068Z</time></trkpt><trkpt lat="43.0970719" lon="13.5331296"><ele>167.0</ele><time>2026-04-12T07:40:12.054Z</time></trkpt><trkpt lat="43.0970535" lon="13.5329459"><ele>166.25</ele><time>2026-04-12T07:40:13.044Z</time></trkpt><trkpt lat="43.0970226" lon="13.5327812"><ele>165.5</ele><time>2026-04-12T07:40:14.069Z</time></trkpt><trkpt lat="43.0969831" lon="13.5326156"><ele>164.75</ele><time>2026-04-12T07:40:15.06Z</time></trkpt><trkpt lat="43.0969467" lon="13.5324459"><ele>164.0</ele><time>2026-04-12T07:40:16.053Z</time></trkpt><trkpt lat="43.0969042" lon="13.5322814"><ele>164.0</ele><time>2026-04-12T07:40:17.016Z</time></trkpt><trkpt lat="43.0968725" lon="13.532116"><ele>164.0</ele><time>2026-04-12T07:40:18.014Z</time></trkpt><trkpt lat="43.0968349" lon="13.5319425"><ele>164.0</ele><time>2026-04-12T07:40:19.001Z</time></trkpt><trkpt lat="43.0967972" lon="13.5317685"><ele>164.0</ele><time>2026-04-12T07:40:20.048Z</time></trkpt><trkpt lat="43.0967725" lon="13.5316076"><ele>164.0</ele><time>2026-04-12T07:40:21.034Z</time></trkpt><trkpt lat="43.0967574" lon="13.5314562"><ele>164.0</ele><time>2026-04-12T07:40:22.039Z</time></trkpt><trkpt lat="43.0967539" lon="13.5313151"><ele>164.0</ele><time>2026-04-12T07:40:23.049Z</time></trkpt><trkpt lat="43.096766" lon="13.5312039"><ele>164.0</ele><time>2026-04-12T07:40:24.046Z</time></trkpt><trkpt lat="43.0967935" lon="13.5310956"><ele>164.0</ele><time>2026-04-12T07:40:25.018Z</time></trkpt><trkpt lat="43.096815" lon="13.5310015"><ele>164.2</ele><time>2026-04-12T07:40:26.037Z</time></trkpt><trkpt lat="43.096833" lon="13.5308256"><ele>164.39999999999998</ele><time>2026-04-12T07:40:28.058Z</time></trkpt><trkpt lat="43.0968126" lon="13.5307252"><ele>164.6</ele><time>2026-04-12T07:40:29.059Z</time></trkpt><trkpt lat="43.0967878" lon="13.5306066"><ele>164.8</ele><time>2026-04-12T07:40:30.033Z</time></trkpt><trkpt lat="43.0967624" lon="13.5304709"><ele>165.0</ele><time>2026-04-12T07:40:31.052Z</time></trkpt><trkpt lat="43.0967362" lon="13.53033"><ele>165.0</ele><time>2026-04-12T07:40:32.076Z</time></trkpt><trkpt lat="43.0967104" lon="13.5301784"><ele>165.0</ele><time>2026-04-12T07:40:33.005Z</time></trkpt><trkpt lat="43.0966883" lon="13.5300132"><ele>165.0</ele><time>2026-04-12T07:40:34.045Z</time></trkpt><trkpt lat="43.0966595" lon="13.5298474"><ele>165.0</ele><time>2026-04-12T07:40:35.001Z</time></trkpt><trkpt lat="43.0966273" lon="13.5296682"><ele>164.75</ele><time>2026-04-12T07:40:36.046Z</time></trkpt><trkpt lat="43.0965912" lon="13.5294908"><ele>164.5</ele><time>2026-04-12T07:40:37.045Z</time></trkpt><trkpt lat="43.0965671" lon="13.5292936"><ele>164.25</ele><time>2026-04-12T07:40:38.022Z</time></trkpt><trkpt lat="43.0965526" lon="13.5291002"><ele>164.0</ele><time>2026-04-12T07:40:39.033Z</time></trkpt><trkpt lat="43.0965338" lon="13.5289051"><ele>165.5</ele><time>2026-04-12T07:40:40.036Z</time></trkpt><trkpt lat="43.096521" lon="13.5287149"><ele>167.0</ele><time>2026-04-12T07:40:41.041Z</time></trkpt><trkpt lat="43.0965066" lon="13.5285202"><ele>168.5</ele><time>2026-04-12T07:40:42.052Z</time></trkpt><trkpt lat="43.0964951" lon="13.5283239"><ele>170.0</ele><time>2026-04-12T07:40:43.047Z</time></trkpt><trkpt lat="43.0964838" lon="13.5281522"><ele>170.0</ele><time>2026-04-12T07:40:44.026Z</time></trkpt><trkpt lat="43.0964676" lon="13.5279869"><ele>170.0</ele><time>2026-04-12T07:40:45.061Z</time></trkpt><trkpt lat="43.0964495" lon="13.5278295"><ele>170.0</ele><time>2026-04-12T07:40:46.024Z</time></trkpt><trkpt lat="43.0964179" lon="13.5276702"><ele>170.0</ele><time>2026-04-12T07:40:47.034Z</time></trkpt><trkpt lat="43.0963887" lon="13.5275171"><ele>170.25</ele><time>2026-04-12T07:40:48.044Z</time></trkpt><trkpt lat="43.0963775" lon="13.5273617"><ele>170.5</ele><time>2026-04-12T07:40:49.047Z</time></trkpt><trkpt lat="43.0963709" lon="13.5272003"><ele>170.75</ele><time>2026-04-12T07:40:50.074Z</time></trkpt><trkpt lat="43.0963663" lon="13.52704"><ele>171.0</ele><time>2026-04-12T07:40:51.047Z</time></trkpt><trkpt lat="43.0963509" lon="13.5268792"><ele>170.60000000000002</ele><time>2026-04-12T07:40:52.052Z</time></trkpt><trkpt lat="43.096329" lon="13.5267474"><ele>170.2</ele><time>2026-04-12T07:40:53.043Z</time></trkpt><trkpt lat="43.0963169" lon="13.52663"><ele>169.8</ele><time>2026-04-12T07:40:54.047Z</time></trkpt><trkpt lat="43.0963196" lon="13.5264817"><ele>169.39999999999998</ele><time>2026-04-12T07:40:55.041Z</time></trkpt><trkpt lat="43.0963223" lon="13.5263112"><ele>169.0</ele><time>2026-04-12T07:40:56.053Z</time></trkpt><trkpt lat="43.0963158" lon="13.5261201"><ele>169.0</ele><time>2026-04-12T07:40:57.047Z</time></trkpt><trkpt lat="43.0963165" lon="13.5259465"><ele>169.0</ele><time>2026-04-12T07:40:58.041Z</time></trkpt><trkpt lat="43.0962958" lon="13.5257645"><ele>169.0</ele><time>2026-04-12T07:40:59.069Z</time></trkpt><trkpt lat="43.09627" lon="13.525595"><ele>169.0</ele><time>2026-04-12T07:41:00.053Z</time></trkpt><trkpt lat="43.0962426" lon="13.5254093"><ele>168.5</ele><time>2026-04-12T07:41:01.048Z</time></trkpt><trkpt lat="43.0962211" lon="13.5252193"><ele>168.0</ele><time>2026-04-12T07:41:02.061Z</time></trkpt><trkpt lat="43.0961873" lon="13.5250192"><ele>167.5</ele><time>2026-04-12T07:41:03.058Z</time></trkpt><trkpt lat="43.0961626" lon="13.524824"><ele>167.0</ele><time>2026-04-12T07:41:04.075Z</time></trkpt><trkpt lat="43.0961291" lon="13.5246292"><ele>167.0</ele><time>2026-04-12T07:41:05.043Z</time></trkpt><trkpt lat="43.0960972" lon="13.5244374"><ele>167.0</ele><time>2026-04-12T07:41:06.053Z</time></trkpt><trkpt lat="43.0960606" lon="13.5242527"><ele>167.0</ele><time>2026-04-12T07:41:07.05Z</time></trkpt><trkpt lat="43.0960329" lon="13.5240586"><ele>167.0</ele><time>2026-04-12T07:41:08.047Z</time></trkpt><trkpt lat="43.0959994" lon="13.5238712"><ele>167.25</ele><time>2026-04-12T07:41:09.065Z</time></trkpt><trkpt lat="43.0959669" lon="13.5236991"><ele>167.5</ele><time>2026-04-12T07:41:10.044Z</time></trkpt><trkpt lat="43.0959478" lon="13.5235473"><ele>167.75</ele><time>2026-04-12T07:41:11.058Z</time></trkpt><trkpt lat="43.0959366" lon="13.5233934"><ele>168.0</ele><time>2026-04-12T07:41:11.998Z</time></trkpt><trkpt lat="43.0959307" lon="13.5232359"><ele>168.0</ele><time>2026-04-12T07:41:13.034Z</time></trkpt><trkpt lat="43.0959545" lon="13.5230706"><ele>168.0</ele><time>2026-04-12T07:41:14.019Z</time></trkpt><trkpt lat="43.0959941" lon="13.5228941"><ele>168.0</ele><time>2026-04-12T07:41:15.022Z</time></trkpt><trkpt lat="43.0960434" lon="13.5227207"><ele>168.0</ele><time>2026-04-12T07:41:16.03Z</time></trkpt><trkpt lat="43.0960771" lon="13.522569"><ele>167.5</ele><time>2026-04-12T07:41:17.029Z</time></trkpt><trkpt lat="43.0960945" lon="13.5224267"><ele>167.0</ele><time>2026-04-12T07:41:18.034Z</time></trkpt><trkpt lat="43.0961023" lon="13.5222758"><ele>166.5</ele><time>2026-04-12T07:41:19.024Z</time></trkpt><trkpt lat="43.0960925" lon="13.5221213"><ele>166.0</ele><time>2026-04-12T07:41:20.036Z</time></trkpt><trkpt lat="43.0960694" lon="13.5219544"><ele>166.0</ele><time>2026-04-12T07:41:21.031Z</time></trkpt><trkpt lat="43.0960447" lon="13.5217664"><ele>166.0</ele><time>2026-04-12T07:41:22.05Z</time></trkpt><trkpt lat="43.0960134" lon="13.521583"><ele>166.0</ele><time>2026-04-12T07:41:22.988Z</time></trkpt><trkpt lat="43.0960073" lon="13.5213891"><ele>166.0</ele><time>2026-04-12T07:41:24.06Z</time></trkpt><trkpt lat="43.0960033" lon="13.5211964"><ele>166.0</ele><time>2026-04-12T07:41:25.046Z</time></trkpt><trkpt lat="43.0960011" lon="13.5210024"><ele>166.0</ele><time>2026-04-12T07:41:26.065Z</time></trkpt><trkpt lat="43.0959919" lon="13.5208059"><ele>166.0</ele><time>2026-04-12T07:41:27.049Z</time></trkpt><trkpt lat="43.0959841" lon="13.5206378"><ele>166.0</ele><time>2026-04-12T07:41:28.016Z</time></trkpt><trkpt lat="43.0959856" lon="13.52049"><ele>166.0</ele><time>2026-04-12T07:41:29.046Z</time></trkpt><trkpt lat="43.0959692" lon="13.5203523"><ele>166.0</ele><time>2026-04-12T07:41:30.059Z</time></trkpt><trkpt lat="43.0959419" lon="13.5202234"><ele>166.0</ele><time>2026-04-12T07:41:31.055Z</time></trkpt><trkpt lat="43.095904" lon="13.5200737"><ele>166.0</ele><time>2026-04-12T07:41:32.059Z</time></trkpt><trkpt lat="43.0958523" lon="13.5199083"><ele>166.0</ele><time>2026-04-12T07:41:33.042Z</time></trkpt><trkpt lat="43.0958013" lon="13.5197424"><ele>166.5</ele><time>2026-04-12T07:41:34.04Z</time></trkpt><trkpt lat="43.095738" lon="13.5195711"><ele>167.0</ele><time>2026-04-12T07:41:35.039Z</time></trkpt><trkpt lat="43.095677" lon="13.5194133"><ele>167.5</ele><time>2026-04-12T07:41:36.042Z</time></trkpt><trkpt lat="43.0956169" lon="13.5192775"><ele>168.0</ele><time>2026-04-12T07:41:37.048Z</time></trkpt><trkpt lat="43.0955291" lon="13.5191365"><ele>168.0</ele><time>2026-04-12T07:41:38.056Z</time></trkpt><trkpt lat="43.0954328" lon="13.5189961"><ele>168.0</ele><time>2026-04-12T07:41:39.06Z</time></trkpt><trkpt lat="43.0953412" lon="13.5188567"><ele>168.0</ele><time>2026-04-12T07:41:40.034Z</time></trkpt><trkpt lat="43.0952467" lon="13.5187017"><ele>168.0</ele><time>2026-04-12T07:41:41.015Z</time></trkpt><trkpt lat="43.0951641" lon="13.5185577"><ele>168.0</ele><time>2026-04-12T07:41:42.048Z</time></trkpt><trkpt lat="43.0950736" lon="13.5184064"><ele>168.0</ele><time>2026-04-12T07:41:43.047Z</time></trkpt><trkpt lat="43.0949957" lon="13.5182565"><ele>168.0</ele><time>2026-04-12T07:41:44.063Z</time></trkpt><trkpt lat="43.0949436" lon="13.5180981"><ele>168.0</ele><time>2026-04-12T07:41:45.037Z</time></trkpt><trkpt lat="43.0949029" lon="13.5179612"><ele>168.4</ele><time>2026-04-12T07:41:46.06Z</time></trkpt><trkpt lat="43.0948659" lon="13.5178409"><ele>168.8</ele><time>2026-04-12T07:41:47.05Z</time></trkpt><trkpt lat="43.0948252" lon="13.517744"><ele>169.2</ele><time>2026-04-12T07:41:48.042Z</time></trkpt><trkpt lat="43.0947408" lon="13.517691"><ele>169.6</ele><time>2026-04-12T07:41:50.045Z</time></trkpt><trkpt lat="43.094617" lon="13.5177654"><ele>170.0</ele><time>2026-04-12T07:41:52.058Z</time></trkpt><trkpt lat="43.0945415" lon="13.517847"><ele>170.0</ele><time>2026-04-12T07:41:53.055Z</time></trkpt><trkpt lat="43.0944643" lon="13.5179504"><ele>170.0</ele><time>2026-04-12T07:41:54.051Z</time></trkpt><trkpt lat="43.0943665" lon="13.5180505"><ele>170.0</ele><time>2026-04-12T07:41:55.025Z</time></trkpt><trkpt lat="43.0942542" lon="13.5181692"><ele>170.0</ele><time>2026-04-12T07:41:56.044Z</time></trkpt><trkpt lat="43.0941382" lon="13.5182851"><ele>171.33333333333331</ele><time>2026-04-12T07:41:57.057Z</time></trkpt><trkpt lat="43.0940261" lon="13.5184104"><ele>172.66666666666666</ele><time>2026-04-12T07:41:58.035Z</time></trkpt><trkpt lat="43.0939067" lon="13.5185372"><ele>174.0</ele><time>2026-04-12T07:41:58.996Z</time></trkpt><trkpt lat="43.0937836" lon="13.5186689"><ele>174.0</ele><time>2026-04-12T07:42:00.012Z</time></trkpt><trkpt lat="43.0936731" lon="13.5187921"><ele>174.0</ele><time>2026-04-12T07:42:01.041Z</time></trkpt><trkpt lat="43.0935614" lon="13.5189131"><ele>174.0</ele><time>2026-04-12T07:42:02.048Z</time></trkpt><trkpt lat="43.0934547" lon="13.5190233"><ele>174.0</ele><time>2026-04-12T07:42:03.056Z</time></trkpt><trkpt lat="43.0933655" lon="13.5191229"><ele>174.0</ele><time>2026-04-12T07:42:04.051Z</time></trkpt><trkpt lat="43.0932907" lon="13.5192089"><ele>174.0</ele><time>2026-04-12T07:42:05.034Z</time></trkpt><trkpt lat="43.0932309" lon="13.519275"><ele>174.0</ele><time>2026-04-12T07:42:06.015Z</time></trkpt><trkpt lat="43.0931501" lon="13.5193062"><ele>174.0</ele><time>2026-04-12T07:42:08.069Z</time></trkpt><trkpt lat="43.0930671" lon="13.5192009"><ele>174.0</ele><time>2026-04-12T07:42:10.054Z</time></trkpt><trkpt lat="43.0930148" lon="13.5191031"><ele>174.6</ele><time>2026-04-12T07:42:11.067Z</time></trkpt><trkpt lat="43.0929652" lon="13.5189907"><ele>175.2</ele><time>2026-04-12T07:42:12.057Z</time></trkpt><trkpt lat="43.0929142" lon="13.5188677"><ele>175.79999999999998</ele><time>2026-04-12T07:42:13.063Z</time></trkpt><trkpt lat="43.0928641" lon="13.5187527"><ele>176.39999999999998</ele><time>2026-04-12T07:42:14.051Z</time></trkpt><trkpt lat="43.0928198" lon="13.5186505"><ele>177.0</ele><time>2026-04-12T07:42:15.074Z</time></trkpt><trkpt lat="43.092761" lon="13.5185378"><ele>177.0</ele><time>2026-04-12T07:42:17.047Z</time></trkpt><trkpt lat="43.0926665" lon="13.518568"><ele>177.0</ele><time>2026-04-12T07:42:19.035Z</time></trkpt><trkpt lat="43.0926136" lon="13.5186336"><ele>177.0</ele><time>2026-04-12T07:42:20.045Z</time></trkpt><trkpt lat="43.0925608" lon="13.518694"><ele>177.0</ele><time>2026-04-12T07:42:21.037Z</time></trkpt><trkpt lat="43.0924926" lon="13.5187535"><ele>177.0</ele><time>2026-04-12T07:42:22.038Z</time></trkpt><trkpt lat="43.0924347" lon="13.5188218"><ele>177.0</ele><time>2026-04-12T07:42:23.04Z</time></trkpt><trkpt lat="43.0923759" lon="13.5188865"><ele>178.2</ele><time>2026-04-12T07:42:24.061Z</time></trkpt><trkpt lat="43.0923208" lon="13.5189552"><ele>179.39999999999998</ele><time>2026-04-12T07:42:25.062Z</time></trkpt><trkpt lat="43.0922576" lon="13.5190197"><ele>180.60000000000002</ele><time>2026-04-12T07:42:26.052Z</time></trkpt><trkpt lat="43.0921847" lon="13.5191041"><ele>181.8</ele><time>2026-04-12T07:42:27.039Z</time></trkpt><trkpt lat="43.0921042" lon="13.5191935"><ele>183.0</ele><time>2026-04-12T07:42:28.027Z</time></trkpt><trkpt lat="43.0920232" lon="13.5192772"><ele>183.0</ele><time>2026-04-12T07:42:29.05Z</time></trkpt><trkpt lat="43.0919477" lon="13.5193621"><ele>183.0</ele><time>2026-04-12T07:42:30.049Z</time></trkpt><trkpt lat="43.0918708" lon="13.5194485"><ele>183.0</ele><time>2026-04-12T07:42:31.047Z</time></trkpt><trkpt lat="43.0918021" lon="13.5195281"><ele>183.0</ele><time>2026-04-12T07:42:32.053Z</time></trkpt><trkpt lat="43.0917287" lon="13.5195984"><ele>183.0</ele><time>2026-04-12T07:42:33.071Z</time></trkpt><trkpt lat="43.091661" lon="13.5196778"><ele>183.66666666666666</ele><time>2026-04-12T07:42:34.062Z</time></trkpt><trkpt lat="43.0915911" lon="13.519757"><ele>184.33333333333334</ele><time>2026-04-12T07:42:35.046Z</time></trkpt><trkpt lat="43.0915297" lon="13.5198211"><ele>185.0</ele><time>2026-04-12T07:42:36.049Z</time></trkpt><trkpt lat="43.0914701" lon="13.5198618"><ele>185.66666666666669</ele><time>2026-04-12T07:42:37.041Z</time></trkpt><trkpt lat="43.09134" lon="13.5198716"><ele>186.33333333333334</ele><time>2026-04-12T07:42:39.035Z</time></trkpt><trkpt lat="43.0912711" lon="13.5198484"><ele>187.0</ele><time>2026-04-12T07:42:40.045Z</time></trkpt><trkpt lat="43.0911968" lon="13.5197993"><ele>188.16666666666669</ele><time>2026-04-12T07:42:41.058Z</time></trkpt><trkpt lat="43.0911311" lon="13.519735"><ele>189.33333333333334</ele><time>2026-04-12T07:42:42.066Z</time></trkpt><trkpt lat="43.0910699" lon="13.5196646"><ele>190.5</ele><time>2026-04-12T07:42:43.039Z</time></trkpt><trkpt lat="43.0909997" lon="13.519593"><ele>191.66666666666669</ele><time>2026-04-12T07:42:44.032Z</time></trkpt><trkpt lat="43.0909374" lon="13.5195201"><ele>192.83333333333334</ele><time>2026-04-12T07:42:45.036Z</time></trkpt><trkpt lat="43.0908835" lon="13.5194672"><ele>194.0</ele><time>2026-04-12T07:42:46.055Z</time></trkpt><trkpt lat="43.090804" lon="13.5194541"><ele>196.2</ele><time>2026-04-12T07:42:48.049Z</time></trkpt><trkpt lat="43.0907479" lon="13.5196032"><ele>198.39999999999998</ele><time>2026-04-12T07:42:50.028Z</time></trkpt><trkpt lat="43.0907601" lon="13.5197731"><ele>200.6</ele><time>2026-04-12T07:42:52.038Z</time></trkpt><trkpt lat="43.0908072" lon="13.5198812"><ele>202.8</ele><time>2026-04-12T07:42:53.047Z</time></trkpt><trkpt lat="43.0908238" lon="13.5199955"><ele>205.0</ele><time>2026-04-12T07:42:54.042Z</time></trkpt><trkpt lat="43.0908181" lon="13.5201073"><ele>204.99999999999997</ele><time>2026-04-12T07:42:55.048Z</time></trkpt><trkpt lat="43.09079" lon="13.5202127"><ele>205.0</ele><time>2026-04-12T07:42:56.019Z</time></trkpt><trkpt lat="43.0907431" lon="13.52031"><ele>205.0</ele><time>2026-04-12T07:42:57.033Z</time></trkpt><trkpt lat="43.0907075" lon="13.5203857"><ele>205.0</ele><time>2026-04-12T07:42:58.041Z</time></trkpt><trkpt lat="43.0907048" lon="13.5205603"><ele>204.99999999999997</ele><time>2026-04-12T07:43:00.06Z</time></trkpt><trkpt lat="43.0907316" lon="13.5206603"><ele>205.0</ele><time>2026-04-12T07:43:01.061Z</time></trkpt><trkpt lat="43.0907781" lon="13.520782"><ele>208.0</ele><time>2026-04-12T07:43:02.031Z</time></trkpt><trkpt lat="43.0908371" lon="13.5209019"><ele>211.0</ele><time>2026-04-12T07:43:03.038Z</time></trkpt><trkpt lat="43.090882" lon="13.5209998"><ele>214.0</ele><time>2026-04-12T07:43:04.037Z</time></trkpt><trkpt lat="43.0909447" lon="13.5211057"><ele>217.0</ele><time>2026-04-12T07:43:05.053Z</time></trkpt><trkpt lat="43.0910052" lon="13.5212188"><ele>220.0</ele><time>2026-04-12T07:43:06.019Z</time></trkpt><trkpt lat="43.0910658" lon="13.5213515"><ele>222.99999999999997</ele><time>2026-04-12T07:43:07.056Z</time></trkpt><trkpt lat="43.0911093" lon="13.5214771"><ele>226.0</ele><time>2026-04-12T07:43:08.044Z</time></trkpt><trkpt lat="43.0911405" lon="13.521591"><ele>229.0</ele><time>2026-04-12T07:43:09.056Z</time></trkpt><trkpt lat="43.091168" lon="13.5217046"><ele>232.0</ele><time>2026-04-12T07:43:10.033Z</time></trkpt><trkpt lat="43.0911614" lon="13.5217967"><ele>234.99999999999997</ele><time>2026-04-12T07:43:12.085Z</time></trkpt><trkpt lat="43.0910826" lon="13.5218093"><ele>238.0</ele><time>2026-04-12T07:43:15.047Z</time></trkpt><trkpt lat="43.0909951" lon="13.5217593"><ele>237.99999999999997</ele><time>2026-04-12T07:43:17.05Z</time></trkpt><trkpt lat="43.0909237" lon="13.5217191"><ele>238.0</ele><time>2026-04-12T07:43:18.05Z</time></trkpt><trkpt lat="43.0908436" lon="13.5216808"><ele>238.0</ele><time>2026-04-12T07:43:19.044Z</time></trkpt><trkpt lat="43.0907547" lon="13.5216569"><ele>238.0</ele><time>2026-04-12T07:43:20.059Z</time></trkpt><trkpt lat="43.0906601" lon="13.5216293"><ele>237.99999999999997</ele><time>2026-04-12T07:43:21.049Z</time></trkpt><trkpt lat="43.0905725" lon="13.521599"><ele>238.0</ele><time>2026-04-12T07:43:22.035Z</time></trkpt><trkpt lat="43.0904938" lon="13.5215673"><ele>241.2</ele><time>2026-04-12T07:43:23.039Z</time></trkpt><trkpt lat="43.0904038" lon="13.5215333"><ele>244.4</ele><time>2026-04-12T07:43:24.031Z</time></trkpt><trkpt lat="43.0903189" lon="13.5215075"><ele>247.59999999999997</ele><time>2026-04-12T07:43:25.036Z</time></trkpt><trkpt lat="43.0902272" lon="13.5214856"><ele>250.79999999999998</ele><time>2026-04-12T07:43:26.044Z</time></trkpt><trkpt lat="43.0901403" lon="13.5214733"><ele>254.0</ele><time>2026-04-12T07:43:27.043Z</time></trkpt><trkpt lat="43.0900408" lon="13.5214611"><ele>254.0</ele><time>2026-04-12T07:43:28.049Z</time></trkpt><trkpt lat="43.0899475" lon="13.5214482"><ele>253.99999999999997</ele><time>2026-04-12T07:43:29.049Z</time></trkpt><trkpt lat="43.089843" lon="13.5214431"><ele>253.99999999999997</ele><time>2026-04-12T07:43:30.051Z</time></trkpt><trkpt lat="43.0897367" lon="13.5214251"><ele>254.0</ele><time>2026-04-12T07:43:31.031Z</time></trkpt><trkpt lat="43.0896421" lon="13.5214057"><ele>254.0</ele><time>2026-04-12T07:43:32.028Z</time></trkpt><trkpt lat="43.0895473" lon="13.5214052"><ele>255.66666666666669</ele><time>2026-04-12T07:43:33.037Z</time></trkpt><trkpt lat="43.0894618" lon="13.5214142"><ele>257.33333333333337</ele><time>2026-04-12T07:43:34.046Z</time></trkpt><trkpt lat="43.0893709" lon="13.5214368"><ele>259.0</ele><time>2026-04-12T07:43:35.055Z</time></trkpt><trkpt lat="43.0892801" lon="13.5214651"><ele>260.6666666666667</ele><time>2026-04-12T07:43:36.039Z</time></trkpt><trkpt lat="43.0891971" lon="13.5214988"><ele>262.3333333333333</ele><time>2026-04-12T07:43:37.035Z</time></trkpt><trkpt lat="43.0891282" lon="13.5215569"><ele>264.0</ele><time>2026-04-12T07:43:38.015Z</time></trkpt><trkpt lat="43.0890596" lon="13.5216327"><ele>266.0</ele><time>2026-04-12T07:43:39.011Z</time></trkpt><trkpt lat="43.088982" lon="13.5217321"><ele>268.0</ele><time>2026-04-12T07:43:40.017Z</time></trkpt><trkpt lat="43.0889241" lon="13.5218071"><ele>270.0</ele><time>2026-04-12T07:43:41.033Z</time></trkpt><trkpt lat="43.0888586" lon="13.5218964"><ele>272.0</ele><time>2026-04-12T07:43:42.008Z</time></trkpt><trkpt lat="43.0888037" lon="13.5219886"><ele>274.0</ele><time>2026-04-12T07:43:43.031Z</time></trkpt><trkpt lat="43.0887584" lon="13.5220677"><ele>276.0</ele><time>2026-04-12T07:43:44.044Z</time></trkpt><trkpt lat="43.0887182" lon="13.5221499"><ele>276.57142857142856</ele><time>2026-04-12T07:43:45.044Z</time></trkpt><trkpt lat="43.088683" lon="13.5222241"><ele>277.14285714285717</ele><time>2026-04-12T07:43:46.034Z</time></trkpt><trkpt lat="43.088642" lon="13.5222968"><ele>277.7142857142857</ele><time>2026-04-12T07:43:47.01Z</time></trkpt><trkpt lat="43.0885978" lon="13.5223659"><ele>278.2857142857143</ele><time>2026-04-12T07:43:48.026Z</time></trkpt><trkpt lat="43.0885214" lon="13.5224825"><ele>278.8571428571429</ele><time>2026-04-12T07:43:50.063Z</time></trkpt><trkpt lat="43.0885028" lon="13.5225696"><ele>279.42857142857144</ele><time>2026-04-12T07:43:51.024Z</time></trkpt><trkpt lat="43.0884908" lon="13.522655"><ele>280.0</ele><time>2026-04-12T07:43:52.031Z</time></trkpt><trkpt lat="43.088438" lon="13.522833"><ele>280.0</ele><time>2026-04-12T07:43:54.04Z</time></trkpt><trkpt lat="43.088359" lon="13.5228613"><ele>280.0</ele><time>2026-04-12T07:43:57.048Z</time></trkpt><trkpt lat="43.0882884" lon="13.5227654"><ele>280.0</ele><time>2026-04-12T07:43:59.047Z</time></trkpt><trkpt lat="43.0882378" lon="13.5226869"><ele>280.0</ele><time>2026-04-12T07:44:00.08Z</time></trkpt><trkpt lat="43.0881822" lon="13.5225979"><ele>280.0</ele><time>2026-04-12T07:44:01.036Z</time></trkpt><trkpt lat="43.0881186" lon="13.5224936"><ele>280.0</ele><time>2026-04-12T07:44:02.035Z</time></trkpt><trkpt lat="43.0880495" lon="13.5223875"><ele>280.75</ele><time>2026-04-12T07:44:03.063Z</time></trkpt><trkpt lat="43.0879648" lon="13.52228"><ele>281.5</ele><time>2026-04-12T07:44:04.064Z</time></trkpt><trkpt lat="43.0878665" lon="13.5221701"><ele>282.25</ele><time>2026-04-12T07:44:05.034Z</time></trkpt><trkpt lat="43.0877567" lon="13.5220689"><ele>283.0</ele><time>2026-04-12T07:44:06.057Z</time></trkpt><trkpt lat="43.0876386" lon="13.5219718"><ele>283.0</ele><time>2026-04-12T07:44:07.058Z</time></trkpt><trkpt lat="43.0875231" lon="13.5218727"><ele>283.0</ele><time>2026-04-12T07:44:08.049Z</time></trkpt><trkpt lat="43.0874017" lon="13.5217721"><ele>283.0</ele><time>2026-04-12T07:44:09.072Z</time></trkpt><trkpt lat="43.0872795" lon="13.5216727"><ele>283.0</ele><time>2026-04-12T07:44:10.041Z</time></trkpt><trkpt lat="43.0871594" lon="13.5215681"><ele>283.75</ele><time>2026-04-12T07:44:11.051Z</time></trkpt><trkpt lat="43.0870352" lon="13.5214642"><ele>284.5</ele><time>2026-04-12T07:44:12.045Z</time></trkpt><trkpt lat="43.0869013" lon="13.5213568"><ele>285.25</ele><time>2026-04-12T07:44:13.044Z</time></trkpt><trkpt lat="43.0867767" lon="13.5212484"><ele>286.0</ele><time>2026-04-12T07:44:14.012Z</time></trkpt><trkpt lat="43.0866525" lon="13.5211406"><ele>282.75</ele><time>2026-04-12T07:44:15.058Z</time></trkpt><trkpt lat="43.0865288" lon="13.5210379"><ele>279.5</ele><time>2026-04-12T07:44:16.06Z</time></trkpt><trkpt lat="43.0864018" lon="13.5209376"><ele>276.25</ele><time>2026-04-12T07:44:17.038Z</time></trkpt><trkpt lat="43.0862835" lon="13.5208274"><ele>273.0</ele><time>2026-04-12T07:44:18.048Z</time></trkpt><trkpt lat="43.0861651" lon="13.5207049"><ele>273.0</ele><time>2026-04-12T07:44:19.051Z</time></trkpt><trkpt lat="43.0860603" lon="13.5205816"><ele>273.0</ele><time>2026-04-12T07:44:19.998Z</time></trkpt><trkpt lat="43.0859639" lon="13.5204531"><ele>273.0</ele><time>2026-04-12T07:44:21.044Z</time></trkpt><trkpt lat="43.0858781" lon="13.5203302"><ele>273.0</ele><time>2026-04-12T07:44:22.057Z</time></trkpt><trkpt lat="43.0858135" lon="13.5201897"><ele>272.75</ele><time>2026-04-12T07:44:23.049Z</time></trkpt><trkpt lat="43.0857775" lon="13.5200101"><ele>272.5</ele><time>2026-04-12T07:44:24.055Z</time></trkpt><trkpt lat="43.0857462" lon="13.5198185"><ele>272.25</ele><time>2026-04-12T07:44:25.04Z</time></trkpt><trkpt lat="43.0857144" lon="13.5196219"><ele>272.0</ele><time>2026-04-12T07:44:26.037Z</time></trkpt><trkpt lat="43.0856788" lon="13.5194294"><ele>272.0</ele><time>2026-04-12T07:44:27.053Z</time></trkpt><trkpt lat="43.0856484" lon="13.5192436"><ele>272.0</ele><time>2026-04-12T07:44:28.054Z</time></trkpt><trkpt lat="43.0856185" lon="13.5190482"><ele>272.0</ele><time>2026-04-12T07:44:29.043Z</time></trkpt><trkpt lat="43.0855737" lon="13.5188493"><ele>272.0</ele><time>2026-04-12T07:44:30.051Z</time></trkpt><trkpt lat="43.0855311" lon="13.5186551"><ele>274.33333333333337</ele><time>2026-04-12T07:44:31.069Z</time></trkpt><trkpt lat="43.0854862" lon="13.5184602"><ele>276.6666666666667</ele><time>2026-04-12T07:44:32.069Z</time></trkpt><trkpt lat="43.0854425" lon="13.5182477"><ele>279.0</ele><time>2026-04-12T07:44:33.05Z</time></trkpt><trkpt lat="43.0853944" lon="13.5180456"><ele>280.0</ele><time>2026-04-12T07:44:34.051Z</time></trkpt><trkpt lat="43.08534" lon="13.5178326"><ele>281.0</ele><time>2026-04-12T07:44:35.045Z</time></trkpt><trkpt lat="43.0852907" lon="13.5176131"><ele>282.0</ele><time>2026-04-12T07:44:36.049Z</time></trkpt><trkpt lat="43.0852441" lon="13.5174027"><ele>282.0</ele><time>2026-04-12T07:44:37.073Z</time></trkpt><trkpt lat="43.0851951" lon="13.5171901"><ele>282.0</ele><time>2026-04-12T07:44:38.068Z</time></trkpt><trkpt lat="43.0851447" lon="13.5169817"><ele>282.0</ele><time>2026-04-12T07:44:39.054Z</time></trkpt><trkpt lat="43.0850927" lon="13.516771"><ele>283.0</ele><time>2026-04-12T07:44:40.053Z</time></trkpt><trkpt lat="43.0850471" lon="13.5165752"><ele>284.0</ele><time>2026-04-12T07:44:41.054Z</time></trkpt><trkpt lat="43.0850087" lon="13.5163765"><ele>285.0</ele><time>2026-04-12T07:44:42.059Z</time></trkpt><trkpt lat="43.0849659" lon="13.516182"><ele>286.0</ele><time>2026-04-12T07:44:43.049Z</time></trkpt><trkpt lat="43.0849182" lon="13.5159844"><ele>282.0</ele><time>2026-04-12T07:44:44.043Z</time></trkpt><trkpt lat="43.0848779" lon="13.5157852"><ele>278.0</ele><time>2026-04-12T07:44:45.043Z</time></trkpt><trkpt lat="43.0848281" lon="13.5155894"><ele>274.0</ele><time>2026-04-12T07:44:46.055Z</time></trkpt><trkpt lat="43.084772" lon="13.5153931"><ele>274.0</ele><time>2026-04-12T07:44:47.056Z</time></trkpt><trkpt lat="43.0847137" lon="13.515203"><ele>274.0</ele><time>2026-04-12T07:44:48.052Z</time></trkpt><trkpt lat="43.084646" lon="13.5150225"><ele>274.0</ele><time>2026-04-12T07:44:49.051Z</time></trkpt><trkpt lat="43.084575" lon="13.5148388"><ele>274.0</ele><time>2026-04-12T07:44:50.056Z</time></trkpt><trkpt lat="43.0845026" lon="13.5146524"><ele>274.0</ele><time>2026-04-12T07:44:51.041Z</time></trkpt><trkpt lat="43.0844286" lon="13.5144669"><ele>274.0</ele><time>2026-04-12T07:44:52.049Z</time></trkpt><trkpt lat="43.084349" lon="13.5142894"><ele>276.0</ele><time>2026-04-12T07:44:53.042Z</time></trkpt><trkpt lat="43.0842557" lon="13.5141183"><ele>278.0</ele><time>2026-04-12T07:44:54.051Z</time></trkpt><trkpt lat="43.0841631" lon="13.5139441"><ele>280.0</ele><time>2026-04-12T07:44:55.026Z</time></trkpt><trkpt lat="43.0840622" lon="13.5137889"><ele>279.66666666666663</ele><time>2026-04-12T07:44:56.038Z</time></trkpt><trkpt lat="43.0839606" lon="13.5136278"><ele>279.3333333333333</ele><time>2026-04-12T07:44:57.041Z</time></trkpt><trkpt lat="43.0838507" lon="13.5134796"><ele>279.0</ele><time>2026-04-12T07:44:58.044Z</time></trkpt><trkpt lat="43.0837382" lon="13.5133371"><ele>279.0</ele><time>2026-04-12T07:44:59.036Z</time></trkpt><trkpt lat="43.083625" lon="13.5131821"><ele>279.0</ele><time>2026-04-12T07:45:00.045Z</time></trkpt><trkpt lat="43.0835192" lon="13.5130324"><ele>279.0</ele><time>2026-04-12T07:45:01.045Z</time></trkpt><trkpt lat="43.0834128" lon="13.5128783"><ele>278.5</ele><time>2026-04-12T07:45:01.986Z</time></trkpt><trkpt lat="43.0833165" lon="13.512724"><ele>278.0</ele><time>2026-04-12T07:45:03.009Z</time></trkpt><trkpt lat="43.0832167" lon="13.5125666"><ele>277.5</ele><time>2026-04-12T07:45:04.062Z</time></trkpt><trkpt lat="43.0831219" lon="13.5124106"><ele>277.0</ele><time>2026-04-12T07:45:05.065Z</time></trkpt><trkpt lat="43.0830257" lon="13.5122632"><ele>277.0</ele><time>2026-04-12T07:45:06.064Z</time></trkpt><trkpt lat="43.082933" lon="13.5121187"><ele>277.0</ele><time>2026-04-12T07:45:07.054Z</time></trkpt><trkpt lat="43.0828362" lon="13.5119639"><ele>277.0</ele><time>2026-04-12T07:45:08.044Z</time></trkpt><trkpt lat="43.0827424" lon="13.5118157"><ele>277.0</ele><time>2026-04-12T07:45:09.058Z</time></trkpt><trkpt lat="43.0826497" lon="13.5116796"><ele>278.25</ele><time>2026-04-12T07:45:10.078Z</time></trkpt><trkpt lat="43.0825654" lon="13.511545"><ele>279.5</ele><time>2026-04-12T07:45:11.057Z</time></trkpt><trkpt lat="43.0824836" lon="13.5114231"><ele>280.75</ele><time>2026-04-12T07:45:12.064Z</time></trkpt><trkpt lat="43.0823909" lon="13.5113257"><ele>282.0</ele><time>2026-04-12T07:45:13.055Z</time></trkpt><trkpt lat="43.0823004" lon="13.5112541"><ele>284.6</ele><time>2026-04-12T07:45:14.05Z</time></trkpt><trkpt lat="43.0822118" lon="13.5111926"><ele>287.2</ele><time>2026-04-12T07:45:15.05Z</time></trkpt><trkpt lat="43.0821336" lon="13.5111585"><ele>289.8</ele><time>2026-04-12T07:45:16.009Z</time></trkpt><trkpt lat="43.0820438" lon="13.5110962"><ele>292.4</ele><time>2026-04-12T07:45:18.047Z</time></trkpt><trkpt lat="43.0820367" lon="13.5109367"><ele>295.0</ele><time>2026-04-12T07:45:20.041Z</time></trkpt><trkpt lat="43.0820391" lon="13.5108379"><ele>295.0</ele><time>2026-04-12T07:45:21.033Z</time></trkpt><trkpt lat="43.0820318" lon="13.5107059"><ele>295.0</ele><time>2026-04-12T07:45:22.04Z</time></trkpt><trkpt lat="43.0820186" lon="13.51056"><ele>295.0</ele><time>2026-04-12T07:45:23.06Z</time></trkpt><trkpt lat="43.0820121" lon="13.5104046"><ele>295.0</ele><time>2026-04-12T07:45:24.046Z</time></trkpt><trkpt lat="43.0819942" lon="13.5102552"><ele>295.0</ele><time>2026-04-12T07:45:25.037Z</time></trkpt><trkpt lat="43.081987" lon="13.5101158"><ele>295.8333333333333</ele><time>2026-04-12T07:45:26.016Z</time></trkpt><trkpt lat="43.0819758" lon="13.5100053"><ele>296.66666666666663</ele><time>2026-04-12T07:45:27.036Z</time></trkpt><trkpt lat="43.0819698" lon="13.5099098"><ele>297.5</ele><time>2026-04-12T07:45:28.044Z</time></trkpt><trkpt lat="43.0820319" lon="13.5098033"><ele>298.3333333333333</ele><time>2026-04-12T07:45:30.077Z</time></trkpt><trkpt lat="43.0820944" lon="13.5097621"><ele>299.1666666666667</ele><time>2026-04-12T07:45:31.052Z</time></trkpt><trkpt lat="43.0821772" lon="13.509723"><ele>300.0</ele><time>2026-04-12T07:45:32.01Z</time></trkpt><trkpt lat="43.0822612" lon="13.5096861"><ele>299.99999999999994</ele><time>2026-04-12T07:45:33.021Z</time></trkpt><trkpt lat="43.0823377" lon="13.5096549"><ele>300.0</ele><time>2026-04-12T07:45:34.065Z</time></trkpt><trkpt lat="43.0824042" lon="13.5096199"><ele>300.0</ele><time>2026-04-12T07:45:35.064Z</time></trkpt><trkpt lat="43.0824602" lon="13.5095705"><ele>300.0</ele><time>2026-04-12T07:45:36.075Z</time></trkpt><trkpt lat="43.0825075" lon="13.5095018"><ele>300.0</ele><time>2026-04-12T07:45:37.052Z</time></trkpt><trkpt lat="43.0825573" lon="13.5094119"><ele>299.99999999999994</ele><time>2026-04-12T07:45:38.046Z</time></trkpt><trkpt lat="43.0825956" lon="13.5093218"><ele>300.0</ele><time>2026-04-12T07:45:39.038Z</time></trkpt><trkpt lat="43.0826521" lon="13.5092432"><ele>298.0</ele><time>2026-04-12T07:45:40.041Z</time></trkpt><trkpt lat="43.0827092" lon="13.5091604"><ele>296.0</ele><time>2026-04-12T07:45:41.054Z</time></trkpt><trkpt lat="43.0827624" lon="13.5090718"><ele>294.0</ele><time>2026-04-12T07:45:42.065Z</time></trkpt><trkpt lat="43.0828158" lon="13.5089843"><ele>292.0</ele><time>2026-04-12T07:45:43.051Z</time></trkpt><trkpt lat="43.0828727" lon="13.5088901"><ele>290.0</ele><time>2026-04-12T07:45:44.07Z</time></trkpt><trkpt lat="43.0829267" lon="13.5087947"><ele>288.0</ele><time>2026-04-12T07:45:45.045Z</time></trkpt><trkpt lat="43.0829763" lon="13.5087118"><ele>287.5</ele><time>2026-04-12T07:45:46.044Z</time></trkpt><trkpt lat="43.0830243" lon="13.5086321"><ele>287.0</ele><time>2026-04-12T07:45:47.047Z</time></trkpt><trkpt lat="43.0830727" lon="13.5085465"><ele>286.5</ele><time>2026-04-12T07:45:48.055Z</time></trkpt><trkpt lat="43.0831279" lon="13.5084606"><ele>286.0</ele><time>2026-04-12T07:45:49.05Z</time></trkpt><trkpt lat="43.0831805" lon="13.5083678"><ele>285.5</ele><time>2026-04-12T07:45:50.047Z</time></trkpt><trkpt lat="43.0832338" lon="13.5082595"><ele>285.0</ele><time>2026-04-12T07:45:51.039Z</time></trkpt><trkpt lat="43.0832901" lon="13.508162"><ele>282.4</ele><time>2026-04-12T07:45:52.035Z</time></trkpt><trkpt lat="43.0833481" lon="13.5080568"><ele>279.8</ele><time>2026-04-12T07:45:53.036Z</time></trkpt><trkpt lat="43.0834037" lon="13.5079545"><ele>277.2</ele><time>2026-04-12T07:45:54.036Z</time></trkpt><trkpt lat="43.083457" lon="13.5078468"><ele>274.6</ele><time>2026-04-12T07:45:55.046Z</time></trkpt><trkpt lat="43.0835096" lon="13.5077452"><ele>272.0</ele><time>2026-04-12T07:45:56.013Z</time></trkpt><trkpt lat="43.0835605" lon="13.5076491"><ele>269.8</ele><time>2026-04-12T07:45:57.031Z</time></trkpt><trkpt lat="43.083617" lon="13.5075459"><ele>267.6</ele><time>2026-04-12T07:45:58.055Z</time></trkpt><trkpt lat="43.0836745" lon="13.507445"><ele>265.40000000000003</ele><time>2026-04-12T07:45:59.027Z</time></trkpt><trkpt lat="43.0837223" lon="13.5073424"><ele>263.2</ele><time>2026-04-12T07:46:00.037Z</time></trkpt><trkpt lat="43.083773" lon="13.5072229"><ele>261.0</ele><time>2026-04-12T07:46:01.035Z</time></trkpt><trkpt lat="43.0838236" lon="13.5071049"><ele>259.2</ele><time>2026-04-12T07:46:02.029Z</time></trkpt><trkpt lat="43.0838729" lon="13.5069865"><ele>257.40000000000003</ele><time>2026-04-12T07:46:03.032Z</time></trkpt><trkpt lat="43.0839248" lon="13.5068674"><ele>255.6</ele><time>2026-04-12T07:46:04.051Z</time></trkpt><trkpt lat="43.0839753" lon="13.5067504"><ele>253.8</ele><time>2026-04-12T07:46:05.049Z</time></trkpt><trkpt lat="43.0840364" lon="13.5066228"><ele>252.0</ele><time>2026-04-12T07:46:06.044Z</time></trkpt><trkpt lat="43.0841092" lon="13.5064984"><ele>249.5</ele><time>2026-04-12T07:46:07.025Z</time></trkpt><trkpt lat="43.0841819" lon="13.5063685"><ele>247.0</ele><time>2026-04-12T07:46:08.054Z</time></trkpt><trkpt lat="43.0842533" lon="13.5062461"><ele>244.5</ele><time>2026-04-12T07:46:09.028Z</time></trkpt><trkpt lat="43.084315" lon="13.5061187"><ele>242.0</ele><time>2026-04-12T07:46:10.056Z</time></trkpt><trkpt lat="43.084375" lon="13.5059944"><ele>238.8</ele><time>2026-04-12T07:46:11.04Z</time></trkpt><trkpt lat="43.0844294" lon="13.505869"><ele>235.6</ele><time>2026-04-12T07:46:12.014Z</time></trkpt><trkpt lat="43.0844741" lon="13.5057496"><ele>232.40000000000003</ele><time>2026-04-12T07:46:13.064Z</time></trkpt><trkpt lat="43.0845019" lon="13.505612"><ele>229.20000000000002</ele><time>2026-04-12T07:46:14.027Z</time></trkpt><trkpt lat="43.0845146" lon="13.505465"><ele>226.0</ele><time>2026-04-12T07:46:15.041Z</time></trkpt><trkpt lat="43.0845202" lon="13.5053138"><ele>224.83333333333331</ele><time>2026-04-12T07:46:16.058Z</time></trkpt><trkpt lat="43.0845213" lon="13.5051621"><ele>223.66666666666666</ele><time>2026-04-12T07:46:17.037Z</time></trkpt><trkpt lat="43.0845334" lon="13.5050309"><ele>222.5</ele><time>2026-04-12T07:46:18.05Z</time></trkpt><trkpt lat="43.0845526" lon="13.5049161"><ele>221.33333333333331</ele><time>2026-04-12T07:46:19.039Z</time></trkpt><trkpt lat="43.0845772" lon="13.5048141"><ele>220.16666666666666</ele><time>2026-04-12T07:46:20.035Z</time></trkpt><trkpt lat="43.0846146" lon="13.5047376"><ele>219.0</ele><time>2026-04-12T07:46:21.031Z</time></trkpt><trkpt lat="43.0846903" lon="13.50465"><ele>219.0</ele><time>2026-04-12T07:46:23.043Z</time></trkpt><trkpt lat="43.084795" lon="13.5046208"><ele>219.0</ele><time>2026-04-12T07:46:25.009Z</time></trkpt><trkpt lat="43.0848748" lon="13.5046293"><ele>219.0</ele><time>2026-04-12T07:46:26.041Z</time></trkpt><trkpt lat="43.0849498" lon="13.5046231"><ele>219.0</ele><time>2026-04-12T07:46:27.033Z</time></trkpt><trkpt lat="43.0850199" lon="13.5046065"><ele>219.0</ele><time>2026-04-12T07:46:28.04Z</time></trkpt><trkpt lat="43.0850916" lon="13.50458"><ele>219.0</ele><time>2026-04-12T07:46:29.032Z</time></trkpt><trkpt lat="43.0851753" lon="13.5045496"><ele>216.0</ele><time>2026-04-12T07:46:30.052Z</time></trkpt><trkpt lat="43.0852658" lon="13.5045175"><ele>212.99999999999997</ele><time>2026-04-12T07:46:31.044Z</time></trkpt><trkpt lat="43.0853539" lon="13.5044955"><ele>210.0</ele><time>2026-04-12T07:46:32.034Z</time></trkpt><trkpt lat="43.0854578" lon="13.50448"><ele>207.0</ele><time>2026-04-12T07:46:33.037Z</time></trkpt><trkpt lat="43.0855677" lon="13.5044864"><ele>204.0</ele><time>2026-04-12T07:46:34.034Z</time></trkpt><trkpt lat="43.0856718" lon="13.504477"><ele>201.0</ele><time>2026-04-12T07:46:35.046Z</time></trkpt><trkpt lat="43.0857624" lon="13.5044691"><ele>198.0</ele><time>2026-04-12T07:46:36.028Z</time></trkpt><trkpt lat="43.0858574" lon="13.5044451"><ele>195.0</ele><time>2026-04-12T07:46:37.032Z</time></trkpt><trkpt lat="43.0859466" lon="13.5044198"><ele>192.0</ele><time>2026-04-12T07:46:38.029Z</time></trkpt><trkpt lat="43.0860414" lon="13.5044078"><ele>189.0</ele><time>2026-04-12T07:46:39.03Z</time></trkpt><trkpt lat="43.0861394" lon="13.5043752"><ele>189.0</ele><time>2026-04-12T07:46:40.053Z</time></trkpt><trkpt lat="43.0862267" lon="13.5043377"><ele>189.0</ele><time>2026-04-12T07:46:41.042Z</time></trkpt><trkpt lat="43.0862975" lon="13.5043028"><ele>189.0</ele><time>2026-04-12T07:46:42.042Z</time></trkpt><trkpt lat="43.0863691" lon="13.5042709"><ele>189.0</ele><time>2026-04-12T07:46:44.033Z</time></trkpt><trkpt lat="43.08641" lon="13.504172"><ele>189.0</ele><time>2026-04-12T07:46:47.008Z</time></trkpt><trkpt lat="43.0863953" lon="13.5040877"><ele>189.0</ele><time>2026-04-12T07:46:48.019Z</time></trkpt><trkpt lat="43.0863685" lon="13.5039571"><ele>189.0</ele><time>2026-04-12T07:46:49.042Z</time></trkpt><trkpt lat="43.0863271" lon="13.5038501"><ele>189.0</ele><time>2026-04-12T07:46:50.041Z</time></trkpt><trkpt lat="43.0862887" lon="13.5037193"><ele>189.0</ele><time>2026-04-12T07:46:51.034Z</time></trkpt><trkpt lat="43.0862476" lon="13.5035698"><ele>189.0</ele><time>2026-04-12T07:46:52.038Z</time></trkpt><trkpt lat="43.0862095" lon="13.5034117"><ele>189.0</ele><time>2026-04-12T07:46:53.023Z</time></trkpt><trkpt lat="43.0861689" lon="13.5032457"><ele>187.75</ele><time>2026-04-12T07:46:54.043Z</time></trkpt><trkpt lat="43.0861284" lon="13.5030713"><ele>186.5</ele><time>2026-04-12T07:46:55.06Z</time></trkpt><trkpt lat="43.086087" lon="13.5029044"><ele>185.25</ele><time>2026-04-12T07:46:56.052Z</time></trkpt><trkpt lat="43.0860469" lon="13.5027366"><ele>184.0</ele><time>2026-04-12T07:46:57.056Z</time></trkpt><trkpt lat="43.0860039" lon="13.5025687"><ele>183.5</ele><time>2026-04-12T07:46:58.072Z</time></trkpt><trkpt lat="43.0859478" lon="13.5023954"><ele>183.0</ele><time>2026-04-12T07:46:59.047Z</time></trkpt><trkpt lat="43.0859005" lon="13.5022135"><ele>182.5</ele><time>2026-04-12T07:47:00.038Z</time></trkpt><trkpt lat="43.0858539" lon="13.5020202"><ele>182.0</ele><time>2026-04-12T07:47:01.043Z</time></trkpt><trkpt lat="43.0858052" lon="13.5018252"><ele>183.33333333333331</ele><time>2026-04-12T07:47:02.038Z</time></trkpt><trkpt lat="43.0857511" lon="13.501628"><ele>184.66666666666666</ele><time>2026-04-12T07:47:03.049Z</time></trkpt><trkpt lat="43.0856967" lon="13.5014297"><ele>186.0</ele><time>2026-04-12T07:47:04.011Z</time></trkpt><trkpt lat="43.0856411" lon="13.5012301"><ele>186.0</ele><time>2026-04-12T07:47:05.054Z</time></trkpt><trkpt lat="43.0855891" lon="13.5010185"><ele>186.0</ele><time>2026-04-12T07:47:06.047Z</time></trkpt><trkpt lat="43.0855351" lon="13.5008128"><ele>186.0</ele><time>2026-04-12T07:47:07.05Z</time></trkpt><trkpt lat="43.0854919" lon="13.5006068"><ele>185.33333333333334</ele><time>2026-04-12T07:47:08.034Z</time></trkpt><trkpt lat="43.0854413" lon="13.500394"><ele>184.66666666666669</ele><time>2026-04-12T07:47:09.022Z</time></trkpt><trkpt lat="43.0854014" lon="13.5001762"><ele>184.0</ele><time>2026-04-12T07:47:10.043Z</time></trkpt><trkpt lat="43.0853556" lon="13.4999682"><ele>184.0</ele><time>2026-04-12T07:47:11.033Z</time></trkpt><trkpt lat="43.0853191" lon="13.499765"><ele>184.0</ele><time>2026-04-12T07:47:12.057Z</time></trkpt><trkpt lat="43.0852817" lon="13.4995645"><ele>184.0</ele><time>2026-04-12T07:47:13.042Z</time></trkpt><trkpt lat="43.0852481" lon="13.4993606"><ele>184.0</ele><time>2026-04-12T07:47:14.055Z</time></trkpt><trkpt lat="43.08522" lon="13.4991524"><ele>184.0</ele><time>2026-04-12T07:47:15.032Z</time></trkpt><trkpt lat="43.0852064" lon="13.4989344"><ele>184.0</ele><time>2026-04-12T07:47:16.031Z</time></trkpt><trkpt lat="43.0851958" lon="13.4987289"><ele>184.75</ele><time>2026-04-12T07:47:17.039Z</time></trkpt><trkpt lat="43.0852016" lon="13.4985452"><ele>185.5</ele><time>2026-04-12T07:47:18.063Z</time></trkpt><trkpt lat="43.0852286" lon="13.4983689"><ele>186.25</ele><time>2026-04-12T07:47:19.051Z</time></trkpt><trkpt lat="43.0852599" lon="13.4981899"><ele>187.0</ele><time>2026-04-12T07:47:20.065Z</time></trkpt><trkpt lat="43.0852974" lon="13.4980249"><ele>186.5</ele><time>2026-04-12T07:47:21.044Z</time></trkpt><trkpt lat="43.0853309" lon="13.497864"><ele>186.0</ele><time>2026-04-12T07:47:22.04Z</time></trkpt><trkpt lat="43.085349" lon="13.4977028"><ele>185.5</ele><time>2026-04-12T07:47:23.035Z</time></trkpt><trkpt lat="43.0853613" lon="13.4975368"><ele>185.0</ele><time>2026-04-12T07:47:24.04Z</time></trkpt><trkpt lat="43.0853754" lon="13.4973659"><ele>185.0</ele><time>2026-04-12T07:47:25.053Z</time></trkpt><trkpt lat="43.0853778" lon="13.497185"><ele>185.0</ele><time>2026-04-12T07:47:26.046Z</time></trkpt><trkpt lat="43.0853833" lon="13.4969945"><ele>185.0</ele><time>2026-04-12T07:47:27.061Z</time></trkpt><trkpt lat="43.0853824" lon="13.4968056"><ele>185.0</ele><time>2026-04-12T07:47:28.05Z</time></trkpt><trkpt lat="43.0853759" lon="13.4966407"><ele>185.0</ele><time>2026-04-12T07:47:29.046Z</time></trkpt><trkpt lat="43.0853636" lon="13.4964883"><ele>185.0</ele><time>2026-04-12T07:47:30.051Z</time></trkpt><trkpt lat="43.0853328" lon="13.4963277"><ele>185.0</ele><time>2026-04-12T07:47:31.044Z</time></trkpt><trkpt lat="43.085298" lon="13.4961657"><ele>185.0</ele><time>2026-04-12T07:47:32.037Z</time></trkpt><trkpt lat="43.085258" lon="13.4959957"><ele>185.0</ele><time>2026-04-12T07:47:33.017Z</time></trkpt><trkpt lat="43.0852067" lon="13.4958259"><ele>185.0</ele><time>2026-04-12T07:47:34.025Z</time></trkpt><trkpt lat="43.0851658" lon="13.4956541"><ele>185.0</ele><time>2026-04-12T07:47:35.021Z</time></trkpt><trkpt lat="43.0851174" lon="13.4954828"><ele>185.0</ele><time>2026-04-12T07:47:36.047Z</time></trkpt><trkpt lat="43.0850728" lon="13.4953306"><ele>184.6</ele><time>2026-04-12T07:47:37.048Z</time></trkpt><trkpt lat="43.0850357" lon="13.4951882"><ele>184.2</ele><time>2026-04-12T07:47:38.036Z</time></trkpt><trkpt lat="43.0850028" lon="13.4950545"><ele>183.8</ele><time>2026-04-12T07:47:39.024Z</time></trkpt><trkpt lat="43.0849595" lon="13.4949066"><ele>183.4</ele><time>2026-04-12T07:47:40.035Z</time></trkpt><trkpt lat="43.0849168" lon="13.4947556"><ele>183.0</ele><time>2026-04-12T07:47:41.045Z</time></trkpt><trkpt lat="43.0848722" lon="13.4945981"><ele>184.25</ele><time>2026-04-12T07:47:42.054Z</time></trkpt><trkpt lat="43.0848299" lon="13.4944364"><ele>185.5</ele><time>2026-04-12T07:47:43.04Z</time></trkpt><trkpt lat="43.0847831" lon="13.4942701"><ele>186.75</ele><time>2026-04-12T07:47:44.032Z</time></trkpt><trkpt lat="43.0847472" lon="13.4941077"><ele>188.0</ele><time>2026-04-12T07:47:45.029Z</time></trkpt><trkpt lat="43.0847112" lon="13.4939581"><ele>188.0</ele><time>2026-04-12T07:47:46.046Z</time></trkpt><trkpt lat="43.0846722" lon="13.493814"><ele>188.0</ele><time>2026-04-12T07:47:47.044Z</time></trkpt><trkpt lat="43.0846337" lon="13.4936775"><ele>188.0</ele><time>2026-04-12T07:47:48.015Z</time></trkpt><trkpt lat="43.0845983" lon="13.4935503"><ele>188.0</ele><time>2026-04-12T07:47:48.995Z</time></trkpt><trkpt lat="43.0845656" lon="13.4934281"><ele>188.0</ele><time>2026-04-12T07:47:49.989Z</time></trkpt><trkpt lat="43.08453" lon="13.4933032"><ele>187.83333333333331</ele><time>2026-04-12T07:47:51.037Z</time></trkpt><trkpt lat="43.0844958" lon="13.4931828"><ele>187.66666666666666</ele><time>2026-04-12T07:47:52.055Z</time></trkpt><trkpt lat="43.0844703" lon="13.4930651"><ele>187.5</ele><time>2026-04-12T07:47:53.009Z</time></trkpt><trkpt lat="43.0844349" lon="13.4929536"><ele>187.33333333333334</ele><time>2026-04-12T07:47:54.052Z</time></trkpt><trkpt lat="43.0843776" lon="13.4928768"><ele>187.16666666666669</ele><time>2026-04-12T07:47:55.044Z</time></trkpt><trkpt lat="43.0843039" lon="13.4928346"><ele>187.0</ele><time>2026-04-12T07:47:56.05Z</time></trkpt><trkpt lat="43.084211" lon="13.4928256"><ele>187.0</ele><time>2026-04-12T07:47:57.044Z</time></trkpt><trkpt lat="43.0840991" lon="13.4928365"><ele>187.0</ele><time>2026-04-12T07:47:58.026Z</time></trkpt><trkpt lat="43.0839737" lon="13.492849"><ele>187.0</ele><time>2026-04-12T07:47:59.043Z</time></trkpt><trkpt lat="43.0838479" lon="13.4928695"><ele>187.0</ele><time>2026-04-12T07:48:00.063Z</time></trkpt><trkpt lat="43.0837256" lon="13.4928937"><ele>188.39999999999998</ele><time>2026-04-12T07:48:01.048Z</time></trkpt><trkpt lat="43.0836164" lon="13.4929115"><ele>189.79999999999998</ele><time>2026-04-12T07:48:02.058Z</time></trkpt><trkpt lat="43.0835277" lon="13.4929088"><ele>191.2</ele><time>2026-04-12T07:48:03.036Z</time></trkpt><trkpt lat="43.0834433" lon="13.4928563"><ele>192.6</ele><time>2026-04-12T07:48:04.033Z</time></trkpt><trkpt lat="43.083363" lon="13.4927733"><ele>194.0</ele><time>2026-04-12T07:48:05.027Z</time></trkpt><trkpt lat="43.0833036" lon="13.492653"><ele>196.6</ele><time>2026-04-12T07:48:06.043Z</time></trkpt><trkpt lat="43.0832563" lon="13.4925192"><ele>199.2</ele><time>2026-04-12T07:48:07.038Z</time></trkpt><trkpt lat="43.083205" lon="13.4923868"><ele>201.79999999999998</ele><time>2026-04-12T07:48:08.057Z</time></trkpt><trkpt lat="43.0831526" lon="13.4922888"><ele>204.39999999999998</ele><time>2026-04-12T07:48:09.058Z</time></trkpt><trkpt lat="43.0830653" lon="13.4922478"><ele>207.0</ele><time>2026-04-12T07:48:10.025Z</time></trkpt><trkpt lat="43.0829821" lon="13.49222"><ele>207.0</ele><time>2026-04-12T07:48:11.051Z</time></trkpt><trkpt lat="43.0828836" lon="13.4922153"><ele>207.0</ele><time>2026-04-12T07:48:12.04Z</time></trkpt><trkpt lat="43.0827908" lon="13.4922455"><ele>207.0</ele><time>2026-04-12T07:48:13.044Z</time></trkpt><trkpt lat="43.0826973" lon="13.492298"><ele>207.0</ele><time>2026-04-12T07:48:14.061Z</time></trkpt><trkpt lat="43.0826187" lon="13.4923472"><ele>207.0</ele><time>2026-04-12T07:48:15.024Z</time></trkpt><trkpt lat="43.0825422" lon="13.492392"><ele>207.00000000000003</ele><time>2026-04-12T07:48:16.053Z</time></trkpt><trkpt lat="43.0824706" lon="13.4924313"><ele>207.0</ele><time>2026-04-12T07:48:17.052Z</time></trkpt><trkpt lat="43.0824128" lon="13.4924672"><ele>207.0</ele><time>2026-04-12T07:48:18.049Z</time></trkpt><trkpt lat="43.0823529" lon="13.4925095"><ele>207.0</ele><time>2026-04-12T07:48:20.041Z</time></trkpt><trkpt lat="43.0822959" lon="13.4925479"><ele>207.0</ele><time>2026-04-12T07:48:25.047Z</time></trkpt><trkpt lat="43.0822369" lon="13.4925897"><ele>207.00000000000003</ele><time>2026-04-12T07:48:28.036Z</time></trkpt><trkpt lat="43.082228" lon="13.4926792"><ele>207.0</ele><time>2026-04-12T07:48:30.06Z</time></trkpt><trkpt lat="43.0822488" lon="13.4927644"><ele>207.8</ele><time>2026-04-12T07:48:31.034Z</time></trkpt><trkpt lat="43.0822806" lon="13.4928825"><ele>208.6</ele><time>2026-04-12T07:48:32.033Z</time></trkpt><trkpt lat="43.0823101" lon="13.4930057"><ele>209.4</ele><time>2026-04-12T07:48:33.052Z</time></trkpt><trkpt lat="43.0823644" lon="13.4931326"><ele>210.20000000000002</ele><time>2026-04-12T07:48:34.049Z</time></trkpt><trkpt lat="43.082415" lon="13.4932801"><ele>211.0</ele><time>2026-04-12T07:48:35.04Z</time></trkpt><trkpt lat="43.0824618" lon="13.4934364"><ele>211.0</ele><time>2026-04-12T07:48:36.037Z</time></trkpt><trkpt lat="43.0825191" lon="13.4935943"><ele>211.0</ele><time>2026-04-12T07:48:37.043Z</time></trkpt><trkpt lat="43.0825728" lon="13.4937585"><ele>211.0</ele><time>2026-04-12T07:48:38.045Z</time></trkpt><trkpt lat="43.0826378" lon="13.4939196"><ele>211.0</ele><time>2026-04-12T07:48:39.038Z</time></trkpt><trkpt lat="43.082702" lon="13.4940914"><ele>211.25</ele><time>2026-04-12T07:48:40.067Z</time></trkpt><trkpt lat="43.0827653" lon="13.4942623"><ele>211.5</ele><time>2026-04-12T07:48:41.029Z</time></trkpt><trkpt lat="43.0828316" lon="13.494446"><ele>211.75</ele><time>2026-04-12T07:48:42.066Z</time></trkpt><trkpt lat="43.0828973" lon="13.4946297"><ele>212.0</ele><time>2026-04-12T07:48:43.058Z</time></trkpt><trkpt lat="43.0829541" lon="13.4947922"><ele>212.0</ele><time>2026-04-12T07:48:44.032Z</time></trkpt><trkpt lat="43.0830049" lon="13.4949386"><ele>212.0</ele><time>2026-04-12T07:48:45.051Z</time></trkpt><trkpt lat="43.0830553" lon="13.4950805"><ele>212.0</ele><time>2026-04-12T07:48:46.045Z</time></trkpt><trkpt lat="43.0831024" lon="13.4952265"><ele>212.0</ele><time>2026-04-12T07:48:47.049Z</time></trkpt><trkpt lat="43.0831553" lon="13.495367"><ele>212.0</ele><time>2026-04-12T07:48:48.041Z</time></trkpt><trkpt lat="43.0832106" lon="13.4955098"><ele>212.0</ele><time>2026-04-12T07:48:49.049Z</time></trkpt><trkpt lat="43.0832582" lon="13.495654"><ele>212.0</ele><time>2026-04-12T07:48:50.05Z</time></trkpt><trkpt lat="43.0833094" lon="13.4957886"><ele>212.0</ele><time>2026-04-12T07:48:51.036Z</time></trkpt><trkpt lat="43.0833529" lon="13.4959059"><ele>212.0</ele><time>2026-04-12T07:48:52.052Z</time></trkpt><trkpt lat="43.0834018" lon="13.4960317"><ele>210.75</ele><time>2026-04-12T07:48:53.04Z</time></trkpt><trkpt lat="43.0834441" lon="13.4961656"><ele>209.5</ele><time>2026-04-12T07:48:54.042Z</time></trkpt><trkpt lat="43.0834926" lon="13.4963152"><ele>208.25</ele><time>2026-04-12T07:48:55.053Z</time></trkpt><trkpt lat="43.0835423" lon="13.4964656"><ele>207.0</ele><time>2026-04-12T07:48:56.021Z</time></trkpt><trkpt lat="43.083597" lon="13.4966198"><ele>207.0</ele><time>2026-04-12T07:48:57.067Z</time></trkpt><trkpt lat="43.0836506" lon="13.496781"><ele>207.0</ele><time>2026-04-12T07:48:58.056Z</time></trkpt><trkpt lat="43.0837086" lon="13.49695"><ele>207.0</ele><time>2026-04-12T07:48:59.045Z</time></trkpt><trkpt lat="43.0837725" lon="13.4971123"><ele>207.0</ele><time>2026-04-12T07:49:00.042Z</time></trkpt><trkpt lat="43.0838422" lon="13.4972496"><ele>207.5</ele><time>2026-04-12T07:49:01.045Z</time></trkpt><trkpt lat="43.0839191" lon="13.4973847"><ele>208.0</ele><time>2026-04-12T07:49:02.044Z</time></trkpt><trkpt lat="43.0840101" lon="13.4975062"><ele>208.5</ele><time>2026-04-12T07:49:03.032Z</time></trkpt><trkpt lat="43.0841105" lon="13.4976087"><ele>209.0</ele><time>2026-04-12T07:49:04.034Z</time></trkpt><trkpt lat="43.084225" lon="13.4977084"><ele>206.25</ele><time>2026-04-12T07:49:05.027Z</time></trkpt><trkpt lat="43.0843541" lon="13.4978009"><ele>203.5</ele><time>2026-04-12T07:49:06.059Z</time></trkpt><trkpt lat="43.0844831" lon="13.4978733"><ele>200.75</ele><time>2026-04-12T07:49:07.036Z</time></trkpt><trkpt lat="43.0846114" lon="13.4979409"><ele>198.0</ele><time>2026-04-12T07:49:08.059Z</time></trkpt><trkpt lat="43.0847431" lon="13.4979916"><ele>197.75</ele><time>2026-04-12T07:49:09.072Z</time></trkpt><trkpt lat="43.0848851" lon="13.4980228"><ele>197.5</ele><time>2026-04-12T07:49:10.054Z</time></trkpt><trkpt lat="43.0850274" lon="13.4980281"><ele>197.25</ele><time>2026-04-12T07:49:11.068Z</time></trkpt><trkpt lat="43.0851679" lon="13.4980251"><ele>197.0</ele><time>2026-04-12T07:49:12.044Z</time></trkpt><trkpt lat="43.0853214" lon="13.4980204"><ele>194.5</ele><time>2026-04-12T07:49:13.055Z</time></trkpt><trkpt lat="43.0854711" lon="13.4980141"><ele>192.0</ele><time>2026-04-12T07:49:14.057Z</time></trkpt><trkpt lat="43.0856201" lon="13.4980051"><ele>189.5</ele><time>2026-04-12T07:49:15.051Z</time></trkpt><trkpt lat="43.0857694" lon="13.4980026"><ele>187.0</ele><time>2026-04-12T07:49:16.053Z</time></trkpt><trkpt lat="43.0859127" lon="13.4979952"><ele>185.0</ele><time>2026-04-12T07:49:17.064Z</time></trkpt><trkpt lat="43.0860546" lon="13.4979945"><ele>183.0</ele><time>2026-04-12T07:49:18.038Z</time></trkpt><trkpt lat="43.0861963" lon="13.4979984"><ele>181.0</ele><time>2026-04-12T07:49:19.052Z</time></trkpt><trkpt lat="43.0863426" lon="13.4980015"><ele>179.0</ele><time>2026-04-12T07:49:20.046Z</time></trkpt><trkpt lat="43.0864878" lon="13.4980008"><ele>180.33333333333331</ele><time>2026-04-12T07:49:21.05Z</time></trkpt><trkpt lat="43.0866339" lon="13.4980023"><ele>181.66666666666666</ele><time>2026-04-12T07:49:22.028Z</time></trkpt><trkpt lat="43.0867867" lon="13.4980022"><ele>183.0</ele><time>2026-04-12T07:49:23.034Z</time></trkpt><trkpt lat="43.0869405" lon="13.4980092"><ele>183.0</ele><time>2026-04-12T07:49:24.039Z</time></trkpt><trkpt lat="43.087087" lon="13.4980105"><ele>183.0</ele><time>2026-04-12T07:49:25.048Z</time></trkpt><trkpt lat="43.0872178" lon="13.4980087"><ele>183.0</ele><time>2026-04-12T07:49:26.083Z</time></trkpt><trkpt lat="43.087338" lon="13.4980156"><ele>183.0</ele><time>2026-04-12T07:49:27.069Z</time></trkpt><trkpt lat="43.0874603" lon="13.4980116"><ele>184.5</ele><time>2026-04-12T07:49:28.064Z</time></trkpt><trkpt lat="43.0875837" lon="13.4980111"><ele>186.0</ele><time>2026-04-12T07:49:29.041Z</time></trkpt><trkpt lat="43.0877104" lon="13.4980016"><ele>187.5</ele><time>2026-04-12T07:49:30.073Z</time></trkpt><trkpt lat="43.0878334" lon="13.4979847"><ele>189.0</ele><time>2026-04-12T07:49:31.036Z</time></trkpt><trkpt lat="43.0879531" lon="13.49796"><ele>189.0</ele><time>2026-04-12T07:49:32.056Z</time></trkpt><trkpt lat="43.0880655" lon="13.4979401"><ele>189.0</ele><time>2026-04-12T07:49:33.055Z</time></trkpt><trkpt lat="43.0881603" lon="13.4979131"><ele>189.0</ele><time>2026-04-12T07:49:34.058Z</time></trkpt><trkpt lat="43.0882414" lon="13.4978805"><ele>189.0</ele><time>2026-04-12T07:49:35.059Z</time></trkpt><trkpt lat="43.0883139" lon="13.4978382"><ele>189.0</ele><time>2026-04-12T07:49:36.064Z</time></trkpt><trkpt lat="43.0883727" lon="13.4978017"><ele>189.0</ele><time>2026-04-12T07:49:37.063Z</time></trkpt><trkpt lat="43.0884624" lon="13.4977539"><ele>189.0</ele><time>2026-04-12T07:49:39.067Z</time></trkpt><trkpt lat="43.0885346" lon="13.4978062"><ele>189.0</ele><time>2026-04-12T07:49:41.041Z</time></trkpt><trkpt lat="43.0885069" lon="13.4979098"><ele>189.0</ele><time>2026-04-12T07:49:43.071Z</time></trkpt><trkpt lat="43.0884381" lon="13.4979415"><ele>189.0</ele><time>2026-04-12T07:49:44.063Z</time></trkpt><trkpt lat="43.0883583" lon="13.4980035"><ele>189.0</ele><time>2026-04-12T07:49:45.043Z</time></trkpt><trkpt lat="43.0882955" lon="13.4980848"><ele>189.0</ele><time>2026-04-12T07:49:46.05Z</time></trkpt><trkpt lat="43.0882424" lon="13.4981834"><ele>189.0</ele><time>2026-04-12T07:49:47.053Z</time></trkpt><trkpt lat="43.0881839" lon="13.4983022"><ele>189.0</ele><time>2026-04-12T07:49:48.051Z</time></trkpt><trkpt lat="43.0881173" lon="13.4984142"><ele>189.0</ele><time>2026-04-12T07:49:49.068Z</time></trkpt><trkpt lat="43.0880509" lon="13.4985079"><ele>189.0</ele><time>2026-04-12T07:49:50.056Z</time></trkpt><trkpt lat="43.0879839" lon="13.4985759"><ele>189.0</ele><time>2026-04-12T07:49:50.989Z</time></trkpt><trkpt lat="43.0879249" lon="13.4986463"><ele>189.0</ele><time>2026-04-12T07:49:52.006Z</time></trkpt><trkpt lat="43.0878721" lon="13.4987117"><ele>189.0</ele><time>2026-04-12T07:49:53.037Z</time></trkpt><trkpt lat="43.0877913" lon="13.498804"><ele>189.0</ele><time>2026-04-12T07:49:55.052Z</time></trkpt><trkpt lat="43.087695" lon="13.4988253"><ele>189.0</ele><time>2026-04-12T07:49:57.023Z</time></trkpt><trkpt lat="43.0875983" lon="13.4987288"><ele>189.0</ele><time>2026-04-12T07:49:59.023Z</time></trkpt><trkpt lat="43.0875064" lon="13.4986502"><ele>188.0</ele><time>2026-04-12T07:50:01.031Z</time></trkpt><trkpt lat="43.0873989" lon="13.4985962"><ele>187.0</ele><time>2026-04-12T07:50:03.007Z</time></trkpt><trkpt lat="43.0873491" lon="13.498537"><ele>186.0</ele><time>2026-04-12T07:50:04.039Z</time></trkpt><trkpt lat="43.0873087" lon="13.4984671"><ele>185.0</ele><time>2026-04-12T07:50:05.046Z</time></trkpt><trkpt lat="43.0872185" lon="13.4983764"><ele>184.0</ele><time>2026-04-12T07:50:07.056Z</time></trkpt><trkpt lat="43.0871432" lon="13.4983533"><ele>183.0</ele><time>2026-04-12T07:50:08.051Z</time></trkpt><trkpt lat="43.0870545" lon="13.4983643"><ele>183.0</ele><time>2026-04-12T07:50:09.05Z</time></trkpt><trkpt lat="43.0869519" lon="13.4983827"><ele>183.0</ele><time>2026-04-12T07:50:10.055Z</time></trkpt><trkpt lat="43.0868394" lon="13.4984057"><ele>183.0</ele><time>2026-04-12T07:50:11.04Z</time></trkpt><trkpt lat="43.086728" lon="13.4984328"><ele>183.0</ele><time>2026-04-12T07:50:12.055Z</time></trkpt><trkpt lat="43.0866379" lon="13.49845"><ele>183.0</ele><time>2026-04-12T07:50:13.057Z</time></trkpt><trkpt lat="43.0865537" lon="13.4984511"><ele>182.33333333333334</ele><time>2026-04-12T07:50:14.061Z</time></trkpt><trkpt lat="43.0864722" lon="13.4984299"><ele>181.66666666666666</ele><time>2026-04-12T07:50:15.041Z</time></trkpt><trkpt lat="43.086396" lon="13.4984028"><ele>181.0</ele><time>2026-04-12T07:50:16.059Z</time></trkpt><trkpt lat="43.0863369" lon="13.4983325"><ele>180.33333333333331</ele><time>2026-04-12T07:50:17.041Z</time></trkpt><trkpt lat="43.0862983" lon="13.4982535"><ele>179.66666666666666</ele><time>2026-04-12T07:50:18.059Z</time></trkpt><trkpt lat="43.0862883" lon="13.4981508"><ele>179.0</ele><time>2026-04-12T07:50:19.066Z</time></trkpt><trkpt lat="43.0862925" lon="13.4980607"><ele>179.0</ele><time>2026-04-12T07:50:20.049Z</time></trkpt><trkpt lat="43.086297" lon="13.4979662"><ele>179.0</ele><time>2026-04-12T07:50:21.053Z</time></trkpt><trkpt lat="43.0863095" lon="13.4978668"><ele>179.0</ele><time>2026-04-12T07:50:22.045Z</time></trkpt><trkpt lat="43.0863365" lon="13.4977337"><ele>179.0</ele><time>2026-04-12T07:50:23.053Z</time></trkpt><trkpt lat="43.0863436" lon="13.4975949"><ele>179.0</ele><time>2026-04-12T07:50:24.054Z</time></trkpt><trkpt lat="43.0863479" lon="13.4974508"><ele>179.2</ele><time>2026-04-12T07:50:25.061Z</time></trkpt><trkpt lat="43.0863592" lon="13.497313"><ele>179.39999999999998</ele><time>2026-04-12T07:50:26.004Z</time></trkpt><trkpt lat="43.0863833" lon="13.4971836"><ele>179.6</ele><time>2026-04-12T07:50:27.047Z</time></trkpt><trkpt lat="43.0864103" lon="13.497054"><ele>179.8</ele><time>2026-04-12T07:50:28.062Z</time></trkpt><trkpt lat="43.086431" lon="13.4969302"><ele>180.0</ele><time>2026-04-12T07:50:29.066Z</time></trkpt><trkpt lat="43.0864444" lon="13.4968186"><ele>180.0</ele><time>2026-04-12T07:50:30.066Z</time></trkpt><trkpt lat="43.0864434" lon="13.4967303"><ele>180.0</ele><time>2026-04-12T07:50:31.062Z</time></trkpt><trkpt lat="43.086428" lon="13.4966458"><ele>180.0</ele><time>2026-04-12T07:50:32.056Z</time></trkpt><trkpt lat="43.0863921" lon="13.4965626"><ele>180.0</ele><time>2026-04-12T07:50:33.045Z</time></trkpt><trkpt lat="43.0863527" lon="13.496493"><ele>180.0</ele><time>2026-04-12T07:50:34.067Z</time></trkpt><trkpt lat="43.0863263" lon="13.4964091"><ele>180.0</ele><time>2026-04-12T07:50:35.049Z</time></trkpt><trkpt lat="43.0863175" lon="13.4963015"><ele>180.0</ele><time>2026-04-12T07:50:36.048Z</time></trkpt><trkpt lat="43.0863077" lon="13.4961765"><ele>180.25</ele><time>2026-04-12T07:50:37.058Z</time></trkpt><trkpt lat="43.0863058" lon="13.4960365"><ele>180.5</ele><time>2026-04-12T07:50:38.042Z</time></trkpt><trkpt lat="43.086296" lon="13.4958817"><ele>180.75</ele><time>2026-04-12T07:50:39.052Z</time></trkpt><trkpt lat="43.0862891" lon="13.4957108"><ele>181.0</ele><time>2026-04-12T07:50:40.04Z</time></trkpt><trkpt lat="43.0862735" lon="13.4955398"><ele>180.75</ele><time>2026-04-12T07:50:41.051Z</time></trkpt><trkpt lat="43.0862505" lon="13.4953662"><ele>180.5</ele><time>2026-04-12T07:50:42.061Z</time></trkpt><trkpt lat="43.0862423" lon="13.4951902"><ele>180.25</ele><time>2026-04-12T07:50:43.059Z</time></trkpt><trkpt lat="43.0862351" lon="13.4949993"><ele>180.0</ele><time>2026-04-12T07:50:44.043Z</time></trkpt><trkpt lat="43.0862142" lon="13.4948167"><ele>180.0</ele><time>2026-04-12T07:50:45.03Z</time></trkpt><trkpt lat="43.0861823" lon="13.4946353"><ele>180.0</ele><time>2026-04-12T07:50:46.038Z</time></trkpt><trkpt lat="43.0861471" lon="13.4944674"><ele>180.0</ele><time>2026-04-12T07:50:47.05Z</time></trkpt><trkpt lat="43.0861158" lon="13.4943058"><ele>180.0</ele><time>2026-04-12T07:50:48.053Z</time></trkpt><trkpt lat="43.0860898" lon="13.4941402"><ele>180.0</ele><time>2026-04-12T07:50:49.041Z</time></trkpt><trkpt lat="43.0860721" lon="13.4939972"><ele>180.0</ele><time>2026-04-12T07:50:50.047Z</time></trkpt><trkpt lat="43.0860625" lon="13.4938638"><ele>180.0</ele><time>2026-04-12T07:50:51.046Z</time></trkpt><trkpt lat="43.0860525" lon="13.4937417"><ele>180.0</ele><time>2026-04-12T07:50:52.027Z</time></trkpt><trkpt lat="43.0860628" lon="13.4936275"><ele>180.0</ele><time>2026-04-12T07:50:53.031Z</time></trkpt><trkpt lat="43.0860879" lon="13.4935272"><ele>180.8</ele><time>2026-04-12T07:50:54.038Z</time></trkpt><trkpt lat="43.0861074" lon="13.4933787"><ele>181.6</ele><time>2026-04-12T07:50:56.064Z</time></trkpt><trkpt lat="43.0860769" lon="13.4932899"><ele>182.39999999999998</ele><time>2026-04-12T07:50:57.041Z</time></trkpt><trkpt lat="43.086031" lon="13.4931797"><ele>183.2</ele><time>2026-04-12T07:50:58.066Z</time></trkpt><trkpt lat="43.0859899" lon="13.4930587"><ele>184.0</ele><time>2026-04-12T07:50:59.043Z</time></trkpt><trkpt lat="43.0859333" lon="13.4929233"><ele>184.2</ele><time>2026-04-12T07:51:00.054Z</time></trkpt><trkpt lat="43.0858886" lon="13.4927797"><ele>184.39999999999998</ele><time>2026-04-12T07:51:01.053Z</time></trkpt><trkpt lat="43.0858578" lon="13.4926399"><ele>184.6</ele><time>2026-04-12T07:51:02.036Z</time></trkpt><trkpt lat="43.0858412" lon="13.4925033"><ele>184.8</ele><time>2026-04-12T07:51:03.051Z</time></trkpt><trkpt lat="43.0858239" lon="13.4923603"><ele>185.0</ele><time>2026-04-12T07:51:04.055Z</time></trkpt><trkpt lat="43.0858027" lon="13.4922158"><ele>185.0</ele><time>2026-04-12T07:51:05.062Z</time></trkpt><trkpt lat="43.0857705" lon="13.492054"><ele>185.0</ele><time>2026-04-12T07:51:06.052Z</time></trkpt><trkpt lat="43.0857343" lon="13.4919071"><ele>185.0</ele><time>2026-04-12T07:51:07.026Z</time></trkpt><trkpt lat="43.0857001" lon="13.4917657"><ele>185.0</ele><time>2026-04-12T07:51:08.052Z</time></trkpt><trkpt lat="43.0856835" lon="13.4916129"><ele>184.75</ele><time>2026-04-12T07:51:09.048Z</time></trkpt><trkpt lat="43.0856779" lon="13.4914624"><ele>184.5</ele><time>2026-04-12T07:51:10.052Z</time></trkpt><trkpt lat="43.0856765" lon="13.4913011"><ele>184.25</ele><time>2026-04-12T07:51:11.057Z</time></trkpt><trkpt lat="43.0856743" lon="13.4911342"><ele>184.0</ele><time>2026-04-12T07:51:12.057Z</time></trkpt><trkpt lat="43.0856556" lon="13.4909666"><ele>184.0</ele><time>2026-04-12T07:51:13.047Z</time></trkpt><trkpt lat="43.0856197" lon="13.4908221"><ele>184.0</ele><time>2026-04-12T07:51:14.047Z</time></trkpt><trkpt lat="43.0855708" lon="13.4906822"><ele>184.0</ele><time>2026-04-12T07:51:15.032Z</time></trkpt><trkpt lat="43.0855256" lon="13.4905303"><ele>184.0</ele><time>2026-04-12T07:51:16.035Z</time></trkpt><trkpt lat="43.0854695" lon="13.4903747"><ele>183.66666666666669</ele><time>2026-04-12T07:51:17.027Z</time></trkpt><trkpt lat="43.0853999" lon="13.4902003"><ele>183.33333333333334</ele><time>2026-04-12T07:51:18.045Z</time></trkpt><trkpt lat="43.0853128" lon="13.4900378"><ele>183.0</ele><time>2026-04-12T07:51:19.047Z</time></trkpt><trkpt lat="43.0852202" lon="13.4898581"><ele>183.0</ele><time>2026-04-12T07:51:20.033Z</time></trkpt><trkpt lat="43.0851154" lon="13.4896902"><ele>183.0</ele><time>2026-04-12T07:51:21.039Z</time></trkpt><trkpt lat="43.0850093" lon="13.4895426"><ele>183.0</ele><time>2026-04-12T07:51:22.062Z</time></trkpt><trkpt lat="43.0848978" lon="13.4893913"><ele>183.5</ele><time>2026-04-12T07:51:23.046Z</time></trkpt><trkpt lat="43.0847881" lon="13.4892458"><ele>184.0</ele><time>2026-04-12T07:51:24.038Z</time></trkpt><trkpt lat="43.0846835" lon="13.4891248"><ele>184.5</ele><time>2026-04-12T07:51:25.051Z</time></trkpt><trkpt lat="43.0845856" lon="13.4890021"><ele>185.0</ele><time>2026-04-12T07:51:26.044Z</time></trkpt><trkpt lat="43.0844979" lon="13.4888698"><ele>185.5</ele><time>2026-04-12T07:51:27.048Z</time></trkpt><trkpt lat="43.0844273" lon="13.4887317"><ele>186.0</ele><time>2026-04-12T07:51:28.045Z</time></trkpt><trkpt lat="43.0843521" lon="13.4885961"><ele>186.5</ele><time>2026-04-12T07:51:28.998Z</time></trkpt><trkpt lat="43.0842711" lon="13.4884565"><ele>187.0</ele><time>2026-04-12T07:51:30.029Z</time></trkpt><trkpt lat="43.0841797" lon="13.4883224"><ele>186.75</ele><time>2026-04-12T07:51:31.04Z</time></trkpt><trkpt lat="43.0840844" lon="13.4881886"><ele>186.5</ele><time>2026-04-12T07:51:32.035Z</time></trkpt><trkpt lat="43.0839895" lon="13.4880536"><ele>186.25</ele><time>2026-04-12T07:51:32.998Z</time></trkpt><trkpt lat="43.0838942" lon="13.4879319"><ele>186.0</ele><time>2026-04-12T07:51:34.036Z</time></trkpt><trkpt lat="43.0837922" lon="13.4878174"><ele>186.5</ele><time>2026-04-12T07:51:35.044Z</time></trkpt><trkpt lat="43.083691" lon="13.4877018"><ele>187.0</ele><time>2026-04-12T07:51:36.023Z</time></trkpt><trkpt lat="43.0835993" lon="13.487579"><ele>187.5</ele><time>2026-04-12T07:51:36.98Z</time></trkpt><trkpt lat="43.0835102" lon="13.4874349"><ele>188.0</ele><time>2026-04-12T07:51:37.977Z</time></trkpt><trkpt lat="43.0834331" lon="13.4872812"><ele>188.0</ele><time>2026-04-12T07:51:38.978Z</time></trkpt><trkpt lat="43.0833526" lon="13.4871267"><ele>188.0</ele><time>2026-04-12T07:51:39.991Z</time></trkpt><trkpt lat="43.0832623" lon="13.4869852"><ele>188.0</ele><time>2026-04-12T07:51:40.994Z</time></trkpt><trkpt lat="43.0831682" lon="13.4868422"><ele>188.0</ele><time>2026-04-12T07:51:41.988Z</time></trkpt><trkpt lat="43.0830691" lon="13.4866935"><ele>188.25</ele><time>2026-04-12T07:51:43Z</time></trkpt><trkpt lat="43.0829725" lon="13.4865474"><ele>188.5</ele><time>2026-04-12T07:51:43.983Z</time></trkpt><trkpt lat="43.0828754" lon="13.4863863"><ele>188.75</ele><time>2026-04-12T07:51:44.998Z</time></trkpt><trkpt lat="43.0827794" lon="13.4862301"><ele>189.0</ele><time>2026-04-12T07:51:46.01Z</time></trkpt><trkpt lat="43.0826971" lon="13.4860701"><ele>189.25</ele><time>2026-04-12T07:51:47.032Z</time></trkpt><trkpt lat="43.0826279" lon="13.4859156"><ele>189.5</ele><time>2026-04-12T07:51:47.996Z</time></trkpt><trkpt lat="43.0825754" lon="13.4857639"><ele>189.75</ele><time>2026-04-12T07:51:49.05Z</time></trkpt><trkpt lat="43.0825164" lon="13.4856198"><ele>190.0</ele><time>2026-04-12T07:51:50.026Z</time></trkpt><trkpt lat="43.0824555" lon="13.4854774"><ele>190.0</ele><time>2026-04-12T07:51:51.015Z</time></trkpt><trkpt lat="43.0823753" lon="13.4853523"><ele>190.0</ele><time>2026-04-12T07:51:52.017Z</time></trkpt><trkpt lat="43.082276" lon="13.4852416"><ele>190.0</ele><time>2026-04-12T07:51:53.04Z</time></trkpt><trkpt lat="43.0821615" lon="13.4851298"><ele>190.0</ele><time>2026-04-12T07:51:54.04Z</time></trkpt><trkpt lat="43.0820441" lon="13.4850269"><ele>190.0</ele><time>2026-04-12T07:51:55.053Z</time></trkpt><trkpt lat="43.0819249" lon="13.4849249"><ele>190.0</ele><time>2026-04-12T07:51:56.038Z</time></trkpt><trkpt lat="43.0818079" lon="13.4848064"><ele>190.0</ele><time>2026-04-12T07:51:57.032Z</time></trkpt><trkpt lat="43.081695" lon="13.484696"><ele>190.0</ele><time>2026-04-12T07:51:58.048Z</time></trkpt><trkpt lat="43.0815941" lon="13.4845928"><ele>190.25</ele><time>2026-04-12T07:51:59.045Z</time></trkpt><trkpt lat="43.0815" lon="13.484499"><ele>190.5</ele><time>2026-04-12T07:52:00.043Z</time></trkpt><trkpt lat="43.0814039" lon="13.4844042"><ele>190.75</ele><time>2026-04-12T07:52:01.044Z</time></trkpt><trkpt lat="43.0813082" lon="13.4843225"><ele>191.0</ele><time>2026-04-12T07:52:02.032Z</time></trkpt><trkpt lat="43.0812066" lon="13.4842677"><ele>191.0</ele><time>2026-04-12T07:52:03.005Z</time></trkpt><trkpt lat="43.0811063" lon="13.4842289"><ele>191.0</ele><time>2026-04-12T07:52:04.029Z</time></trkpt><trkpt lat="43.0810254" lon="13.4841805"><ele>191.0</ele><time>2026-04-12T07:52:05.04Z</time></trkpt><trkpt lat="43.0809535" lon="13.4841073"><ele>191.0</ele><time>2026-04-12T07:52:06.038Z</time></trkpt><trkpt lat="43.0808893" lon="13.4840178"><ele>191.0</ele><time>2026-04-12T07:52:07.002Z</time></trkpt><trkpt lat="43.0808395" lon="13.4839289"><ele>191.0</ele><time>2026-04-12T07:52:08.043Z</time></trkpt><trkpt lat="43.080792" lon="13.4838096"><ele>191.0</ele><time>2026-04-12T07:52:09.021Z</time></trkpt><trkpt lat="43.0807447" lon="13.4836725"><ele>191.0</ele><time>2026-04-12T07:52:10.077Z</time></trkpt><trkpt lat="43.0807036" lon="13.4835204"><ele>191.0</ele><time>2026-04-12T07:52:11.03Z</time></trkpt><trkpt lat="43.080684" lon="13.4833605"><ele>191.0</ele><time>2026-04-12T07:52:12.058Z</time></trkpt><trkpt lat="43.0806541" lon="13.4831931"><ele>191.20000000000002</ele><time>2026-04-12T07:52:13.042Z</time></trkpt><trkpt lat="43.0806226" lon="13.4830362"><ele>191.4</ele><time>2026-04-12T07:52:14.005Z</time></trkpt><trkpt lat="43.0806081" lon="13.4829119"><ele>191.6</ele><time>2026-04-12T07:52:15.038Z</time></trkpt><trkpt lat="43.0805616" lon="13.4828142"><ele>191.8</ele><time>2026-04-12T07:52:16.053Z</time></trkpt><trkpt lat="43.0804969" lon="13.4827297"><ele>192.0</ele><time>2026-04-12T07:52:17.044Z</time></trkpt><trkpt lat="43.0804029" lon="13.4826459"><ele>192.0</ele><time>2026-04-12T07:52:18.043Z</time></trkpt><trkpt lat="43.0803237" lon="13.482597"><ele>192.0</ele><time>2026-04-12T07:52:19.033Z</time></trkpt><trkpt lat="43.0802591" lon="13.4825398"><ele>192.0</ele><time>2026-04-12T07:52:20.053Z</time></trkpt><trkpt lat="43.080198" lon="13.4824727"><ele>192.0</ele><time>2026-04-12T07:52:21.053Z</time></trkpt><trkpt lat="43.0801469" lon="13.4824213"><ele>192.0</ele><time>2026-04-12T07:52:22.011Z</time></trkpt><trkpt lat="43.0800725" lon="13.4823615"><ele>192.0</ele><time>2026-04-12T07:52:23.055Z</time></trkpt><trkpt lat="43.0799975" lon="13.4823096"><ele>192.0</ele><time>2026-04-12T07:52:24.066Z</time></trkpt><trkpt lat="43.0799255" lon="13.4822682"><ele>192.0</ele><time>2026-04-12T07:52:25.052Z</time></trkpt><trkpt lat="43.0798609" lon="13.4822313"><ele>192.0</ele><time>2026-04-12T07:52:26.049Z</time></trkpt><trkpt lat="43.0797888" lon="13.4821353"><ele>192.0</ele><time>2026-04-12T07:52:28.035Z</time></trkpt><trkpt lat="43.0798194" lon="13.4819763"><ele>192.0</ele><time>2026-04-12T07:52:30.029Z</time></trkpt><trkpt lat="43.0798445" lon="13.481824"><ele>192.5</ele><time>2026-04-12T07:52:32.058Z</time></trkpt><trkpt lat="43.0798491" lon="13.4817369"><ele>193.0</ele><time>2026-04-12T07:52:33.03Z</time></trkpt><trkpt lat="43.0798442" lon="13.4816479"><ele>193.5</ele><time>2026-04-12T07:52:34.039Z</time></trkpt><trkpt lat="43.0798487" lon="13.4815546"><ele>194.0</ele><time>2026-04-12T07:52:35.045Z</time></trkpt><trkpt lat="43.0798621" lon="13.4814465"><ele>194.5</ele><time>2026-04-12T07:52:36.037Z</time></trkpt><trkpt lat="43.0798683" lon="13.4812834"><ele>195.0</ele><time>2026-04-12T07:52:37.028Z</time></trkpt><trkpt lat="43.0798776" lon="13.4811255"><ele>195.2</ele><time>2026-04-12T07:52:38.021Z</time></trkpt><trkpt lat="43.079889" lon="13.4809728"><ele>195.4</ele><time>2026-04-12T07:52:39.032Z</time></trkpt><trkpt lat="43.0798935" lon="13.4808491"><ele>195.60000000000002</ele><time>2026-04-12T07:52:40.044Z</time></trkpt><trkpt lat="43.0798849" lon="13.480731"><ele>195.8</ele><time>2026-04-12T07:52:41.049Z</time></trkpt><trkpt lat="43.0798878" lon="13.4806171"><ele>196.0</ele><time>2026-04-12T07:52:42.044Z</time></trkpt><trkpt lat="43.0798823" lon="13.480481"><ele>195.60000000000002</ele><time>2026-04-12T07:52:43.026Z</time></trkpt><trkpt lat="43.0798809" lon="13.4803405"><ele>195.2</ele><time>2026-04-12T07:52:44.035Z</time></trkpt><trkpt lat="43.0798788" lon="13.4802052"><ele>194.8</ele><time>2026-04-12T07:52:45.014Z</time></trkpt><trkpt lat="43.0798995" lon="13.4800628"><ele>194.39999999999998</ele><time>2026-04-12T07:52:46.013Z</time></trkpt><trkpt lat="43.0799465" lon="13.4799219"><ele>194.0</ele><time>2026-04-12T07:52:47.028Z</time></trkpt><trkpt lat="43.0800044" lon="13.4797984"><ele>193.0</ele><time>2026-04-12T07:52:48.02Z</time></trkpt><trkpt lat="43.0800644" lon="13.4796711"><ele>192.0</ele><time>2026-04-12T07:52:49.029Z</time></trkpt><trkpt lat="43.0801157" lon="13.479528"><ele>191.0</ele><time>2026-04-12T07:52:50.024Z</time></trkpt><trkpt lat="43.0801645" lon="13.479375"><ele>190.0</ele><time>2026-04-12T07:52:51.029Z</time></trkpt><trkpt lat="43.0802059" lon="13.4792116"><ele>190.0</ele><time>2026-04-12T07:52:52.018Z</time></trkpt><trkpt lat="43.0802493" lon="13.4790506"><ele>190.0</ele><time>2026-04-12T07:52:53.032Z</time></trkpt><trkpt lat="43.0802869" lon="13.478875"><ele>190.0</ele><time>2026-04-12T07:52:54.04Z</time></trkpt><trkpt lat="43.0803269" lon="13.4787059"><ele>190.0</ele><time>2026-04-12T07:52:55.018Z</time></trkpt><trkpt lat="43.0803667" lon="13.4785391"><ele>190.4</ele><time>2026-04-12T07:52:56.042Z</time></trkpt><trkpt lat="43.0804074" lon="13.4783671"><ele>190.8</ele><time>2026-04-12T07:52:57.051Z</time></trkpt><trkpt lat="43.0804313" lon="13.4782246"><ele>191.2</ele><time>2026-04-12T07:52:58.043Z</time></trkpt><trkpt lat="43.0804389" lon="13.4781035"><ele>191.6</ele><time>2026-04-12T07:52:59.041Z</time></trkpt><trkpt lat="43.080414" lon="13.4779928"><ele>192.0</ele><time>2026-04-12T07:53:00.035Z</time></trkpt><trkpt lat="43.080363" lon="13.4778798"><ele>193.2</ele><time>2026-04-12T07:53:01.035Z</time></trkpt><trkpt lat="43.0802795" lon="13.4777827"><ele>194.39999999999998</ele><time>2026-04-12T07:53:02.047Z</time></trkpt><trkpt lat="43.0801984" lon="13.4776929"><ele>195.60000000000002</ele><time>2026-04-12T07:53:03.043Z</time></trkpt><trkpt lat="43.0801284" lon="13.4776045"><ele>196.8</ele><time>2026-04-12T07:53:04.037Z</time></trkpt><trkpt lat="43.0800717" lon="13.4775338"><ele>198.0</ele><time>2026-04-12T07:53:05.051Z</time></trkpt><trkpt lat="43.0800315" lon="13.477458"><ele>198.0</ele><time>2026-04-12T07:53:05.994Z</time></trkpt><trkpt lat="43.0800475" lon="13.4773209"><ele>198.0</ele><time>2026-04-12T07:53:08.031Z</time></trkpt><trkpt lat="43.0800455" lon="13.4771943"><ele>198.0</ele><time>2026-04-12T07:53:10.037Z</time></trkpt><trkpt lat="43.079935" lon="13.4770944"><ele>198.0</ele><time>2026-04-12T07:53:12.045Z</time></trkpt><trkpt lat="43.079832" lon="13.4770319"><ele>198.0</ele><time>2026-04-12T07:53:13.028Z</time></trkpt><trkpt lat="43.0797245" lon="13.4769714"><ele>198.0</ele><time>2026-04-12T07:53:14.041Z</time></trkpt><trkpt lat="43.0796151" lon="13.476903"><ele>198.0</ele><time>2026-04-12T07:53:15.047Z</time></trkpt><trkpt lat="43.0795055" lon="13.4768296"><ele>198.0</ele><time>2026-04-12T07:53:16.04Z</time></trkpt><trkpt lat="43.0793904" lon="13.4767527"><ele>198.0</ele><time>2026-04-12T07:53:17.04Z</time></trkpt><trkpt lat="43.0792748" lon="13.4766734"><ele>198.0</ele><time>2026-04-12T07:53:18.051Z</time></trkpt><trkpt lat="43.0791635" lon="13.4765969"><ele>198.0</ele><time>2026-04-12T07:53:19.047Z</time></trkpt><trkpt lat="43.0790599" lon="13.4765241"><ele>198.0</ele><time>2026-04-12T07:53:20.043Z</time></trkpt><trkpt lat="43.0789592" lon="13.4764509"><ele>198.0</ele><time>2026-04-12T07:53:21.039Z</time></trkpt><trkpt lat="43.0788555" lon="13.4763802"><ele>198.5</ele><time>2026-04-12T07:53:22.062Z</time></trkpt><trkpt lat="43.0787536" lon="13.4762885"><ele>199.0</ele><time>2026-04-12T07:53:23.06Z</time></trkpt><trkpt lat="43.0786473" lon="13.4762134"><ele>199.5</ele><time>2026-04-12T07:53:24.056Z</time></trkpt><trkpt lat="43.078539" lon="13.4761309"><ele>200.0</ele><time>2026-04-12T07:53:25.046Z</time></trkpt><trkpt lat="43.0784286" lon="13.476053"><ele>200.0</ele><time>2026-04-12T07:53:26.062Z</time></trkpt><trkpt lat="43.0783193" lon="13.4759695"><ele>200.0</ele><time>2026-04-12T07:53:27.045Z</time></trkpt><trkpt lat="43.0782106" lon="13.4758894"><ele>200.0</ele><time>2026-04-12T07:53:28.021Z</time></trkpt><trkpt lat="43.0781008" lon="13.4758095"><ele>200.0</ele><time>2026-04-12T07:53:29.043Z</time></trkpt><trkpt lat="43.0779888" lon="13.4757222"><ele>199.25</ele><time>2026-04-12T07:53:30.067Z</time></trkpt><trkpt lat="43.0778848" lon="13.4756365"><ele>198.5</ele><time>2026-04-12T07:53:31.048Z</time></trkpt><trkpt lat="43.0777743" lon="13.4755549"><ele>197.75</ele><time>2026-04-12T07:53:32.054Z</time></trkpt><trkpt lat="43.0776666" lon="13.4754608"><ele>197.0</ele><time>2026-04-12T07:53:33.061Z</time></trkpt><trkpt lat="43.0775661" lon="13.475368"><ele>198.0</ele><time>2026-04-12T07:53:34.055Z</time></trkpt><trkpt lat="43.0774795" lon="13.4752759"><ele>199.0</ele><time>2026-04-12T07:53:35.05Z</time></trkpt><trkpt lat="43.0773904" lon="13.4751893"><ele>200.0</ele><time>2026-04-12T07:53:36.048Z</time></trkpt><trkpt lat="43.0773065" lon="13.4751091"><ele>201.0</ele><time>2026-04-12T07:53:37.06Z</time></trkpt><trkpt lat="43.0772311" lon="13.4750341"><ele>202.0</ele><time>2026-04-12T07:53:38.057Z</time></trkpt><trkpt lat="43.0771545" lon="13.4749672"><ele>201.99999999999997</ele><time>2026-04-12T07:53:39.037Z</time></trkpt><trkpt lat="43.0770907" lon="13.4749064"><ele>202.0</ele><time>2026-04-12T07:53:40.045Z</time></trkpt><trkpt lat="43.0770488" lon="13.4748292"><ele>202.0</ele><time>2026-04-12T07:53:41.024Z</time></trkpt><trkpt lat="43.0770022" lon="13.4747452"><ele>202.0</ele><time>2026-04-12T07:53:42.024Z</time></trkpt><trkpt lat="43.0769367" lon="13.4746542"><ele>201.99999999999997</ele><time>2026-04-12T07:53:43.046Z</time></trkpt><trkpt lat="43.0768576" lon="13.4745737"><ele>202.0</ele><time>2026-04-12T07:53:44.039Z</time></trkpt><trkpt lat="43.0767679" lon="13.4744879"><ele>202.75</ele><time>2026-04-12T07:53:45.054Z</time></trkpt><trkpt lat="43.0766707" lon="13.4743941"><ele>203.5</ele><time>2026-04-12T07:53:46.046Z</time></trkpt><trkpt lat="43.0765674" lon="13.4743038"><ele>204.25</ele><time>2026-04-12T07:53:47.031Z</time></trkpt><trkpt lat="43.0764572" lon="13.4742141"><ele>205.0</ele><time>2026-04-12T07:53:48.044Z</time></trkpt><trkpt lat="43.0763546" lon="13.4741228"><ele>204.0</ele><time>2026-04-12T07:53:49.046Z</time></trkpt><trkpt lat="43.0762511" lon="13.4740223"><ele>203.0</ele><time>2026-04-12T07:53:50.076Z</time></trkpt><trkpt lat="43.0761598" lon="13.4739247"><ele>202.0</ele><time>2026-04-12T07:53:51.005Z</time></trkpt><trkpt lat="43.0760752" lon="13.4738394"><ele>201.0</ele><time>2026-04-12T07:53:52.02Z</time></trkpt><trkpt lat="43.0759862" lon="13.4737647"><ele>201.0</ele><time>2026-04-12T07:53:53Z</time></trkpt><trkpt lat="43.0758882" lon="13.4736925"><ele>201.0</ele><time>2026-04-12T07:53:54.029Z</time></trkpt><trkpt lat="43.0757892" lon="13.473623"><ele>201.0</ele><time>2026-04-12T07:53:55.037Z</time></trkpt><trkpt lat="43.0756957" lon="13.4735383"><ele>201.0</ele><time>2026-04-12T07:53:56.039Z</time></trkpt><trkpt lat="43.0756196" lon="13.4734472"><ele>201.0</ele><time>2026-04-12T07:53:57.034Z</time></trkpt><trkpt lat="43.0755361" lon="13.4733574"><ele>200.5</ele><time>2026-04-12T07:53:58.028Z</time></trkpt><trkpt lat="43.075454" lon="13.4732612"><ele>200.0</ele><time>2026-04-12T07:53:59.016Z</time></trkpt><trkpt lat="43.0753674" lon="13.4731681"><ele>199.5</ele><time>2026-04-12T07:54:00.047Z</time></trkpt><trkpt lat="43.0752759" lon="13.4730771"><ele>199.0</ele><time>2026-04-12T07:54:01.047Z</time></trkpt><trkpt lat="43.0751805" lon="13.4729794"><ele>199.75</ele><time>2026-04-12T07:54:02.036Z</time></trkpt><trkpt lat="43.0750894" lon="13.4728763"><ele>200.5</ele><time>2026-04-12T07:54:03.036Z</time></trkpt><trkpt lat="43.0749973" lon="13.4727713"><ele>201.25</ele><time>2026-04-12T07:54:04.04Z</time></trkpt><trkpt lat="43.0749046" lon="13.4726539"><ele>202.0</ele><time>2026-04-12T07:54:05.032Z</time></trkpt><trkpt lat="43.0748079" lon="13.4725418"><ele>202.5</ele><time>2026-04-12T07:54:06.052Z</time></trkpt><trkpt lat="43.0747101" lon="13.4724319"><ele>203.0</ele><time>2026-04-12T07:54:06.994Z</time></trkpt><trkpt lat="43.0746152" lon="13.4723242"><ele>203.5</ele><time>2026-04-12T07:54:08.05Z</time></trkpt><trkpt lat="43.0745164" lon="13.4722182"><ele>204.0</ele><time>2026-04-12T07:54:09.033Z</time></trkpt><trkpt lat="43.0744253" lon="13.4721041"><ele>204.0</ele><time>2026-04-12T07:54:10.052Z</time></trkpt><trkpt lat="43.0743285" lon="13.4719963"><ele>204.0</ele><time>2026-04-12T07:54:11.047Z</time></trkpt><trkpt lat="43.0742337" lon="13.4718859"><ele>204.0</ele><time>2026-04-12T07:54:12.043Z</time></trkpt><trkpt lat="43.0741381" lon="13.471786"><ele>204.0</ele><time>2026-04-12T07:54:13.048Z</time></trkpt><trkpt lat="43.0740448" lon="13.4716609"><ele>204.0</ele><time>2026-04-12T07:54:14.043Z</time></trkpt><trkpt lat="43.0739428" lon="13.4715548"><ele>204.0</ele><time>2026-04-12T07:54:15.041Z</time></trkpt><trkpt lat="43.07384" lon="13.4714521"><ele>204.0</ele><time>2026-04-12T07:54:16.053Z</time></trkpt><trkpt lat="43.0737364" lon="13.4713538"><ele>204.0</ele><time>2026-04-12T07:54:17.048Z</time></trkpt><trkpt lat="43.0736306" lon="13.471261"><ele>203.75</ele><time>2026-04-12T07:54:18.05Z</time></trkpt><trkpt lat="43.0735237" lon="13.4711662"><ele>203.5</ele><time>2026-04-12T07:54:19.053Z</time></trkpt><trkpt lat="43.0734284" lon="13.4710649"><ele>203.25</ele><time>2026-04-12T07:54:20.045Z</time></trkpt><trkpt lat="43.0733213" lon="13.470964"><ele>203.0</ele><time>2026-04-12T07:54:21.051Z</time></trkpt><trkpt lat="43.0732143" lon="13.4708681"><ele>203.75</ele><time>2026-04-12T07:54:22.051Z</time></trkpt><trkpt lat="43.073112" lon="13.4707702"><ele>204.5</ele><time>2026-04-12T07:54:23.047Z</time></trkpt><trkpt lat="43.0730054" lon="13.4706723"><ele>205.25</ele><time>2026-04-12T07:54:24.063Z</time></trkpt><trkpt lat="43.0729" lon="13.4705848"><ele>206.0</ele><time>2026-04-12T07:54:25.052Z</time></trkpt><trkpt lat="43.0728018" lon="13.470485"><ele>206.25</ele><time>2026-04-12T07:54:26.033Z</time></trkpt><trkpt lat="43.0727028" lon="13.4703852"><ele>206.5</ele><time>2026-04-12T07:54:27.039Z</time></trkpt><trkpt lat="43.0726078" lon="13.4702842"><ele>206.75</ele><time>2026-04-12T07:54:28.019Z</time></trkpt><trkpt lat="43.0725124" lon="13.4701923"><ele>207.0</ele><time>2026-04-12T07:54:29.046Z</time></trkpt><trkpt lat="43.0724134" lon="13.470101"><ele>206.5</ele><time>2026-04-12T07:54:30.054Z</time></trkpt><trkpt lat="43.0723164" lon="13.4700113"><ele>206.0</ele><time>2026-04-12T07:54:31.055Z</time></trkpt><trkpt lat="43.072218" lon="13.4699142"><ele>205.5</ele><time>2026-04-12T07:54:32.053Z</time></trkpt><trkpt lat="43.0721222" lon="13.4698255"><ele>205.0</ele><time>2026-04-12T07:54:33.049Z</time></trkpt><trkpt lat="43.0720347" lon="13.4697435"><ele>205.0</ele><time>2026-04-12T07:54:34.059Z</time></trkpt><trkpt lat="43.0719667" lon="13.469676"><ele>205.0</ele><time>2026-04-12T07:54:35.048Z</time></trkpt><trkpt lat="43.0718711" lon="13.4695868"><ele>205.0</ele><time>2026-04-12T07:54:37.058Z</time></trkpt><trkpt lat="43.0718533" lon="13.4694436"><ele>205.0</ele><time>2026-04-12T07:54:39.053Z</time></trkpt><trkpt lat="43.0718564" lon="13.4693262"><ele>205.0</ele><time>2026-04-12T07:54:41.044Z</time></trkpt><trkpt lat="43.0718313" lon="13.4692435"><ele>204.8</ele><time>2026-04-12T07:54:44.039Z</time></trkpt><trkpt lat="43.071793" lon="13.4691328"><ele>204.6</ele><time>2026-04-12T07:54:48.047Z</time></trkpt><trkpt lat="43.0717392" lon="13.469004"><ele>204.39999999999998</ele><time>2026-04-12T07:54:51.06Z</time></trkpt><trkpt lat="43.0716947" lon="13.4689288"><ele>204.2</ele><time>2026-04-12T07:54:52.059Z</time></trkpt><trkpt lat="43.0716229" lon="13.4687969"><ele>204.0</ele><time>2026-04-12T07:54:54.036Z</time></trkpt><trkpt lat="43.07159" lon="13.4687015"><ele>204.42857142857144</ele><time>2026-04-12T07:54:55.031Z</time></trkpt><trkpt lat="43.0715565" lon="13.4686108"><ele>204.85714285714286</ele><time>2026-04-12T07:54:56.048Z</time></trkpt><trkpt lat="43.0715287" lon="13.4685153"><ele>205.28571428571428</ele><time>2026-04-12T07:54:57.034Z</time></trkpt><trkpt lat="43.071496" lon="13.4684233"><ele>205.71428571428572</ele><time>2026-04-12T07:54:58.019Z</time></trkpt><trkpt lat="43.071469" lon="13.4683233"><ele>206.14285714285714</ele><time>2026-04-12T07:54:59.052Z</time></trkpt><trkpt lat="43.0714458" lon="13.4682335"><ele>206.57142857142858</ele><time>2026-04-12T07:55:00.036Z</time></trkpt><trkpt lat="43.0714318" lon="13.4681331"><ele>207.0</ele><time>2026-04-12T07:55:01.033Z</time></trkpt><trkpt lat="43.0714223" lon="13.4680422"><ele>207.0</ele><time>2026-04-12T07:55:02.04Z</time></trkpt><trkpt lat="43.0714392" lon="13.4679465"><ele>207.0</ele><time>2026-04-12T07:55:03.037Z</time></trkpt><trkpt lat="43.0714672" lon="13.4678354"><ele>207.0</ele><time>2026-04-12T07:55:04.045Z</time></trkpt><trkpt lat="43.071476" lon="13.4677098"><ele>207.0</ele><time>2026-04-12T07:55:05.049Z</time></trkpt><trkpt lat="43.0714804" lon="13.4675713"><ele>207.0</ele><time>2026-04-12T07:55:06.057Z</time></trkpt><trkpt lat="43.0714811" lon="13.4674246"><ele>207.0</ele><time>2026-04-12T07:55:07.058Z</time></trkpt><trkpt lat="43.0714805" lon="13.4672731"><ele>207.0</ele><time>2026-04-12T07:55:08.057Z</time></trkpt><trkpt lat="43.0714773" lon="13.4671308"><ele>207.0</ele><time>2026-04-12T07:55:09.049Z</time></trkpt><trkpt lat="43.0714731" lon="13.4669844"><ele>207.0</ele><time>2026-04-12T07:55:10.038Z</time></trkpt><trkpt lat="43.0714741" lon="13.4668318"><ele>207.0</ele><time>2026-04-12T07:55:11.034Z</time></trkpt><trkpt lat="43.071481" lon="13.4666806"><ele>207.25</ele><time>2026-04-12T07:55:12.056Z</time></trkpt><trkpt lat="43.0714846" lon="13.4665189"><ele>207.5</ele><time>2026-04-12T07:55:13.039Z</time></trkpt><trkpt lat="43.0714869" lon="13.4663504"><ele>207.75</ele><time>2026-04-12T07:55:14.058Z</time></trkpt><trkpt lat="43.0714856" lon="13.4661954"><ele>208.0</ele><time>2026-04-12T07:55:15.032Z</time></trkpt><trkpt lat="43.0714848" lon="13.466048"><ele>208.0</ele><time>2026-04-12T07:55:16.043Z</time></trkpt><trkpt lat="43.0714784" lon="13.465916"><ele>208.0</ele><time>2026-04-12T07:55:17.048Z</time></trkpt><trkpt lat="43.0714566" lon="13.4658306"><ele>208.0</ele><time>2026-04-12T07:55:18.058Z</time></trkpt><trkpt lat="43.0714025" lon="13.4657484"><ele>208.0</ele><time>2026-04-12T07:55:19.035Z</time></trkpt><trkpt lat="43.0713159" lon="13.4656785"><ele>208.0</ele><time>2026-04-12T07:55:20.048Z</time></trkpt><trkpt lat="43.0712113" lon="13.4656144"><ele>208.0</ele><time>2026-04-12T07:55:21.05Z</time></trkpt><trkpt lat="43.0711023" lon="13.4655473"><ele>208.0</ele><time>2026-04-12T07:55:22.033Z</time></trkpt><trkpt lat="43.070991" lon="13.4654663"><ele>208.0</ele><time>2026-04-12T07:55:23.04Z</time></trkpt><trkpt lat="43.0708778" lon="13.4653863"><ele>208.0</ele><time>2026-04-12T07:55:24.042Z</time></trkpt><trkpt lat="43.0707529" lon="13.4653034"><ele>208.75</ele><time>2026-04-12T07:55:25.04Z</time></trkpt><trkpt lat="43.0706258" lon="13.4652242"><ele>209.5</ele><time>2026-04-12T07:55:26.013Z</time></trkpt><trkpt lat="43.0704932" lon="13.4651381"><ele>210.25</ele><time>2026-04-12T07:55:27.058Z</time></trkpt><trkpt lat="43.0703579" lon="13.4650413"><ele>211.0</ele><time>2026-04-12T07:55:28.061Z</time></trkpt><trkpt lat="43.0702316" lon="13.464958"><ele>211.0</ele><time>2026-04-12T07:55:29.052Z</time></trkpt><trkpt lat="43.0701211" lon="13.4648876"><ele>211.0</ele><time>2026-04-12T07:55:30.042Z</time></trkpt><trkpt lat="43.0700282" lon="13.464818"><ele>211.0</ele><time>2026-04-12T07:55:31.025Z</time></trkpt><trkpt lat="43.0699586" lon="13.4647291"><ele>211.0</ele><time>2026-04-12T07:55:32.03Z</time></trkpt><trkpt lat="43.0699098" lon="13.4646349"><ele>211.0</ele><time>2026-04-12T07:55:33.045Z</time></trkpt><trkpt lat="43.0698695" lon="13.46454"><ele>211.4</ele><time>2026-04-12T07:55:34.039Z</time></trkpt><trkpt lat="43.0698168" lon="13.4644577"><ele>211.8</ele><time>2026-04-12T07:55:35.038Z</time></trkpt><trkpt lat="43.0697361" lon="13.4643982"><ele>212.20000000000002</ele><time>2026-04-12T07:55:36.044Z</time></trkpt><trkpt lat="43.0696503" lon="13.4643506"><ele>212.60000000000002</ele><time>2026-04-12T07:55:37.039Z</time></trkpt><trkpt lat="43.069555" lon="13.4642904"><ele>213.0</ele><time>2026-04-12T07:55:38.046Z</time></trkpt><trkpt lat="43.0694522" lon="13.4642326"><ele>213.0</ele><time>2026-04-12T07:55:39.031Z</time></trkpt><trkpt lat="43.0693474" lon="13.4641675"><ele>213.0</ele><time>2026-04-12T07:55:40.035Z</time></trkpt><trkpt lat="43.069247" lon="13.4641086"><ele>213.0</ele><time>2026-04-12T07:55:41.03Z</time></trkpt><trkpt lat="43.0691626" lon="13.4640422"><ele>213.0</ele><time>2026-04-12T07:55:42.029Z</time></trkpt><trkpt lat="43.0690913" lon="13.4639838"><ele>213.0</ele><time>2026-04-12T07:55:43.03Z</time></trkpt><trkpt lat="43.0690182" lon="13.4639278"><ele>212.8</ele><time>2026-04-12T07:55:44.052Z</time></trkpt><trkpt lat="43.0689445" lon="13.4638792"><ele>212.60000000000002</ele><time>2026-04-12T07:55:45.027Z</time></trkpt><trkpt lat="43.0688776" lon="13.4638352"><ele>212.39999999999998</ele><time>2026-04-12T07:55:46.034Z</time></trkpt><trkpt lat="43.0687656" lon="13.463756"><ele>212.2</ele><time>2026-04-12T07:55:48.03Z</time></trkpt><trkpt lat="43.0686996" lon="13.4637196"><ele>212.0</ele><time>2026-04-12T07:55:49.034Z</time></trkpt><trkpt lat="43.0685876" lon="13.4636915"><ele>212.00000000000003</ele><time>2026-04-12T07:55:51.03Z</time></trkpt><trkpt lat="43.0685044" lon="13.4637727"><ele>212.0</ele><time>2026-04-12T07:55:53.031Z</time></trkpt><trkpt lat="43.0684817" lon="13.4638579"><ele>212.0</ele><time>2026-04-12T07:55:54.045Z</time></trkpt><trkpt lat="43.0684461" lon="13.4639658"><ele>212.0</ele><time>2026-04-12T07:55:55.027Z</time></trkpt><trkpt lat="43.0684244" lon="13.4640571"><ele>212.00000000000003</ele><time>2026-04-12T07:55:56.047Z</time></trkpt><trkpt lat="43.0684021" lon="13.4641637"><ele>212.0</ele><time>2026-04-12T07:55:56.993Z</time></trkpt><trkpt lat="43.0683843" lon="13.4642773"><ele>212.00000000000003</ele><time>2026-04-12T07:55:58.036Z</time></trkpt><trkpt lat="43.0683682" lon="13.4643816"><ele>212.0</ele><time>2026-04-12T07:55:59.033Z</time></trkpt><trkpt lat="43.0683584" lon="13.4644865"><ele>212.0</ele><time>2026-04-12T07:56:00Z</time></trkpt><trkpt lat="43.0683516" lon="13.4645925"><ele>212.0</ele><time>2026-04-12T07:56:01.025Z</time></trkpt><trkpt lat="43.0683606" lon="13.4646879"><ele>212.00000000000003</ele><time>2026-04-12T07:56:02.038Z</time></trkpt><trkpt lat="43.0683814" lon="13.4648136"><ele>212.0</ele><time>2026-04-12T07:56:04.028Z</time></trkpt><trkpt lat="43.0683902" lon="13.4649125"><ele>211.39999999999998</ele><time>2026-04-12T07:56:06.008Z</time></trkpt><trkpt lat="43.0683799" lon="13.4650063"><ele>210.79999999999998</ele><time>2026-04-12T07:56:15.044Z</time></trkpt><trkpt lat="43.0682873" lon="13.4650146"><ele>210.2</ele><time>2026-04-12T07:56:17.048Z</time></trkpt><trkpt lat="43.0681861" lon="13.4649736"><ele>209.6</ele><time>2026-04-12T07:56:19.03Z</time></trkpt><trkpt lat="43.0680794" lon="13.4648883"><ele>209.0</ele><time>2026-04-12T07:56:21.044Z</time></trkpt><trkpt lat="43.0679842" lon="13.4648054"><ele>208.83333333333334</ele><time>2026-04-12T07:56:23.055Z</time></trkpt><trkpt lat="43.0679155" lon="13.4647642"><ele>208.66666666666669</ele><time>2026-04-12T07:56:25.043Z</time></trkpt><trkpt lat="43.0678495" lon="13.4647187"><ele>208.5</ele><time>2026-04-12T07:56:27.05Z</time></trkpt><trkpt lat="43.0677724" lon="13.4646093"><ele>208.33333333333331</ele><time>2026-04-12T07:56:29.054Z</time></trkpt><trkpt lat="43.0677127" lon="13.4645619"><ele>208.16666666666666</ele><time>2026-04-12T07:56:30.05Z</time></trkpt><trkpt lat="43.0676431" lon="13.4644952"><ele>208.0</ele><time>2026-04-12T07:56:31.051Z</time></trkpt><trkpt lat="43.0675407" lon="13.46443"><ele>208.66666666666666</ele><time>2026-04-12T07:56:33.05Z</time></trkpt><trkpt lat="43.0674846" lon="13.4643888"><ele>209.33333333333331</ele><time>2026-04-12T07:56:34.048Z</time></trkpt><trkpt lat="43.0674349" lon="13.4643335"><ele>210.0</ele><time>2026-04-12T07:56:35.041Z</time></trkpt><trkpt lat="43.0673734" lon="13.4642618"><ele>210.66666666666669</ele><time>2026-04-12T07:56:36.056Z</time></trkpt><trkpt lat="43.0673051" lon="13.4641737"><ele>211.33333333333334</ele><time>2026-04-12T07:56:37.048Z</time></trkpt><trkpt lat="43.0672505" lon="13.464081"><ele>212.0</ele><time>2026-04-12T07:56:38.013Z</time></trkpt><trkpt lat="43.0671951" lon="13.4640163"><ele>212.00000000000003</ele><time>2026-04-12T07:56:39.004Z</time></trkpt><trkpt lat="43.0671193" lon="13.4639568"><ele>212.0</ele><time>2026-04-12T07:56:40.021Z</time></trkpt><trkpt lat="43.0670393" lon="13.4639035"><ele>212.0</ele><time>2026-04-12T07:56:41.055Z</time></trkpt><trkpt lat="43.06697" lon="13.4638444"><ele>212.0</ele><time>2026-04-12T07:56:42.04Z</time></trkpt><trkpt lat="43.0669007" lon="13.4637787"><ele>212.00000000000003</ele><time>2026-04-12T07:56:43.042Z</time></trkpt><trkpt lat="43.0668232" lon="13.4637253"><ele>212.0</ele><time>2026-04-12T07:56:44.035Z</time></trkpt><trkpt lat="43.0667519" lon="13.4636689"><ele>212.33333333333334</ele><time>2026-04-12T07:56:45.045Z</time></trkpt><trkpt lat="43.0666819" lon="13.4636167"><ele>212.66666666666669</ele><time>2026-04-12T07:56:46.043Z</time></trkpt><trkpt lat="43.0665902" lon="13.4635836"><ele>213.0</ele><time>2026-04-12T07:56:48.046Z</time></trkpt><trkpt lat="43.0665192" lon="13.4635751"><ele>213.33333333333331</ele><time>2026-04-12T07:56:50.037Z</time></trkpt><trkpt lat="43.0664379" lon="13.4635401"><ele>213.66666666666666</ele><time>2026-04-12T07:56:52.047Z</time></trkpt><trkpt lat="43.0663289" lon="13.463502"><ele>214.0</ele><time>2026-04-12T07:56:54.03Z</time></trkpt><trkpt lat="43.0662635" lon="13.4634606"><ele>213.99999999999997</ele><time>2026-04-12T07:56:55.035Z</time></trkpt><trkpt lat="43.0662065" lon="13.4634001"><ele>214.0</ele><time>2026-04-12T07:56:56.043Z</time></trkpt><trkpt lat="43.0661467" lon="13.4633506"><ele>214.0</ele><time>2026-04-12T07:56:57.038Z</time></trkpt><trkpt lat="43.0660755" lon="13.4633049"><ele>214.0</ele><time>2026-04-12T07:56:58.035Z</time></trkpt><trkpt lat="43.0660027" lon="13.4632842"><ele>213.99999999999997</ele><time>2026-04-12T07:56:59.042Z</time></trkpt><trkpt lat="43.0658855" lon="13.4632695"><ele>214.0</ele><time>2026-04-12T07:57:01.035Z</time></trkpt><trkpt lat="43.0658126" lon="13.4632575"><ele>213.99999999999997</ele><time>2026-04-12T07:57:02.038Z</time></trkpt><trkpt lat="43.0657366" lon="13.4632559"><ele>214.0</ele><time>2026-04-12T07:57:03.032Z</time></trkpt><trkpt lat="43.0656562" lon="13.4632479"><ele>214.0</ele><time>2026-04-12T07:57:04.051Z</time></trkpt><trkpt lat="43.0655721" lon="13.4632451"><ele>214.0</ele><time>2026-04-12T07:57:05.034Z</time></trkpt><trkpt lat="43.0655018" lon="13.4632406"><ele>213.99999999999997</ele><time>2026-04-12T07:57:06.044Z</time></trkpt><trkpt lat="43.0654287" lon="13.4632307"><ele>214.0</ele><time>2026-04-12T07:57:07.048Z</time></trkpt><trkpt lat="43.0653247" lon="13.4632237"><ele>214.0</ele><time>2026-04-12T07:57:09.048Z</time></trkpt><trkpt lat="43.0652435" lon="13.4632035"><ele>213.99999999999997</ele><time>2026-04-12T07:57:11.055Z</time></trkpt><trkpt lat="43.0651767" lon="13.4631855"><ele>213.99999999999997</ele><time>2026-04-12T07:57:12.014Z</time></trkpt><trkpt lat="43.065056" lon="13.4631364"><ele>214.0</ele><time>2026-04-12T07:57:14.056Z</time></trkpt><trkpt lat="43.0649489" lon="13.463112"><ele>214.0</ele><time>2026-04-12T07:57:16.051Z</time></trkpt><trkpt lat="43.064868" lon="13.4630804"><ele>213.83333333333331</ele><time>2026-04-12T07:57:17.052Z</time></trkpt><trkpt lat="43.0647753" lon="13.4630353"><ele>213.66666666666666</ele><time>2026-04-12T07:57:18.047Z</time></trkpt><trkpt lat="43.0646912" lon="13.4630035"><ele>213.5</ele><time>2026-04-12T07:57:19.06Z</time></trkpt><trkpt lat="43.0646173" lon="13.4629732"><ele>213.33333333333331</ele><time>2026-04-12T07:57:20.045Z</time></trkpt><trkpt lat="43.0645301" lon="13.4629427"><ele>213.16666666666666</ele><time>2026-04-12T07:57:21.035Z</time></trkpt><trkpt lat="43.0644461" lon="13.4629104"><ele>213.0</ele><time>2026-04-12T07:57:22.052Z</time></trkpt><trkpt lat="43.0643659" lon="13.4628741"><ele>213.5</ele><time>2026-04-12T07:57:23.041Z</time></trkpt><trkpt lat="43.0642987" lon="13.4628393"><ele>214.0</ele><time>2026-04-12T07:57:24.046Z</time></trkpt><trkpt lat="43.0642256" lon="13.4628108"><ele>214.5</ele><time>2026-04-12T07:57:25.042Z</time></trkpt><trkpt lat="43.0641555" lon="13.4627855"><ele>215.0</ele><time>2026-04-12T07:57:26.04Z</time></trkpt><trkpt lat="43.0640618" lon="13.4627724"><ele>215.5</ele><time>2026-04-12T07:57:28.058Z</time></trkpt><trkpt lat="43.0639548" lon="13.462785"><ele>216.0</ele><time>2026-04-12T07:57:30.042Z</time></trkpt><trkpt lat="43.0638906" lon="13.4628099"><ele>216.0</ele><time>2026-04-12T07:57:31.047Z</time></trkpt><trkpt lat="43.0638179" lon="13.4628365"><ele>216.0</ele><time>2026-04-12T07:57:32.074Z</time></trkpt><trkpt lat="43.0636907" lon="13.4628269"><ele>216.0</ele><time>2026-04-12T07:57:34.044Z</time></trkpt><trkpt lat="43.0636225" lon="13.4627784"><ele>216.0</ele><time>2026-04-12T07:57:35.041Z</time></trkpt><trkpt lat="43.0635442" lon="13.4627486"><ele>216.0</ele><time>2026-04-12T07:57:36.075Z</time></trkpt><trkpt lat="43.0634803" lon="13.462722"><ele>216.0</ele><time>2026-04-12T07:57:37.064Z</time></trkpt><trkpt lat="43.0633784" lon="13.4626783"><ele>216.0</ele><time>2026-04-12T07:57:39.044Z</time></trkpt><trkpt lat="43.0632811" lon="13.4626082"><ele>216.0</ele><time>2026-04-12T07:57:41.062Z</time></trkpt><trkpt lat="43.0631908" lon="13.4624903"><ele>216.0</ele><time>2026-04-12T07:57:43.061Z</time></trkpt><trkpt lat="43.0631296" lon="13.4624333"><ele>216.0</ele><time>2026-04-12T07:57:44.038Z</time></trkpt><trkpt lat="43.0630786" lon="13.4623794"><ele>216.0</ele><time>2026-04-12T07:57:45.048Z</time></trkpt><trkpt lat="43.0630178" lon="13.462343"><ele>216.0</ele><time>2026-04-12T07:57:46.052Z</time></trkpt><trkpt lat="43.0629383" lon="13.4623398"><ele>215.60000000000002</ele><time>2026-04-12T07:57:47.045Z</time></trkpt><trkpt lat="43.0628636" lon="13.462336"><ele>215.20000000000002</ele><time>2026-04-12T07:57:48.042Z</time></trkpt><trkpt lat="43.0627698" lon="13.4623442"><ele>214.79999999999998</ele><time>2026-04-12T07:57:49.054Z</time></trkpt><trkpt lat="43.0626721" lon="13.4623549"><ele>214.39999999999998</ele><time>2026-04-12T07:57:50.051Z</time></trkpt><trkpt lat="43.0625751" lon="13.462369"><ele>214.0</ele><time>2026-04-12T07:57:51.064Z</time></trkpt><trkpt lat="43.0624892" lon="13.4623871"><ele>214.16666666666666</ele><time>2026-04-12T07:57:52.041Z</time></trkpt><trkpt lat="43.0623922" lon="13.4623368"><ele>214.33333333333331</ele><time>2026-04-12T07:57:53.981Z</time></trkpt><trkpt lat="43.0623397" lon="13.4622687"><ele>214.5</ele><time>2026-04-12T07:57:55.052Z</time></trkpt><trkpt lat="43.0622924" lon="13.4622085"><ele>214.66666666666669</ele><time>2026-04-12T07:57:56.036Z</time></trkpt><trkpt lat="43.0621826" lon="13.4621194"><ele>214.83333333333334</ele><time>2026-04-12T07:57:58.045Z</time></trkpt><trkpt lat="43.0621235" lon="13.4620745"><ele>215.0</ele><time>2026-04-12T07:57:59.041Z</time></trkpt><trkpt lat="43.062047" lon="13.4620316"><ele>215.4</ele><time>2026-04-12T07:58:00.036Z</time></trkpt><trkpt lat="43.0619568" lon="13.4620081"><ele>215.8</ele><time>2026-04-12T07:58:01.036Z</time></trkpt><trkpt lat="43.0618449" lon="13.4619979"><ele>216.2</ele><time>2026-04-12T07:58:02.039Z</time></trkpt><trkpt lat="43.0617412" lon="13.4620132"><ele>216.6</ele><time>2026-04-12T07:58:03.044Z</time></trkpt><trkpt lat="43.0616527" lon="13.4620641"><ele>217.0</ele><time>2026-04-12T07:58:04.05Z</time></trkpt><trkpt lat="43.0615849" lon="13.4621236"><ele>216.99999999999997</ele><time>2026-04-12T07:58:05.035Z</time></trkpt><trkpt lat="43.0615183" lon="13.4621515"><ele>217.0</ele><time>2026-04-12T07:58:06.041Z</time></trkpt><trkpt lat="43.0614449" lon="13.4621256"><ele>217.0</ele><time>2026-04-12T07:58:07.045Z</time></trkpt><trkpt lat="43.0613834" lon="13.4620011"><ele>217.0</ele><time>2026-04-12T07:58:09.045Z</time></trkpt><trkpt lat="43.0613435" lon="13.4619056"><ele>216.99999999999997</ele><time>2026-04-12T07:58:10.027Z</time></trkpt><trkpt lat="43.0613043" lon="13.4617977"><ele>217.0</ele><time>2026-04-12T07:58:11.055Z</time></trkpt><trkpt lat="43.061281" lon="13.4616802"><ele>216.99999999999997</ele><time>2026-04-12T07:58:12.043Z</time></trkpt><trkpt lat="43.0612528" lon="13.4615875"><ele>217.0</ele><time>2026-04-12T07:58:13.044Z</time></trkpt><trkpt lat="43.0611968" lon="13.4615264"><ele>217.0</ele><time>2026-04-12T07:58:14.042Z</time></trkpt><trkpt lat="43.0611281" lon="13.4614837"><ele>217.0</ele><time>2026-04-12T07:58:15.062Z</time></trkpt><trkpt lat="43.0610479" lon="13.461446"><ele>216.99999999999997</ele><time>2026-04-12T07:58:16.067Z</time></trkpt><trkpt lat="43.0609596" lon="13.4614194"><ele>217.0</ele><time>2026-04-12T07:58:17.049Z</time></trkpt><trkpt lat="43.0608572" lon="13.4613979"><ele>217.16666666666666</ele><time>2026-04-12T07:58:18.054Z</time></trkpt><trkpt lat="43.0607608" lon="13.4613877"><ele>217.33333333333331</ele><time>2026-04-12T07:58:19.026Z</time></trkpt><trkpt lat="43.060671" lon="13.4613657"><ele>217.5</ele><time>2026-04-12T07:58:20.04Z</time></trkpt><trkpt lat="43.060573" lon="13.4613385"><ele>217.66666666666669</ele><time>2026-04-12T07:58:21.036Z</time></trkpt><trkpt lat="43.0604942" lon="13.461324"><ele>217.83333333333334</ele><time>2026-04-12T07:58:22.044Z</time></trkpt><trkpt lat="43.0604228" lon="13.4613067"><ele>218.0</ele><time>2026-04-12T07:58:23.038Z</time></trkpt><trkpt lat="43.0603171" lon="13.4612901"><ele>218.00000000000003</ele><time>2026-04-12T07:58:25.042Z</time></trkpt><trkpt lat="43.0602514" lon="13.4613813"><ele>218.0</ele><time>2026-04-12T07:58:27.059Z</time></trkpt><trkpt lat="43.0601413" lon="13.461441"><ele>218.0</ele><time>2026-04-12T07:58:29.037Z</time></trkpt><trkpt lat="43.0600762" lon="13.461468"><ele>218.0</ele><time>2026-04-12T07:58:30.046Z</time></trkpt><trkpt lat="43.0600175" lon="13.4614993"><ele>218.00000000000003</ele><time>2026-04-12T07:58:31.042Z</time></trkpt><trkpt lat="43.0599425" lon="13.4615224"><ele>218.0</ele><time>2026-04-12T07:58:33.061Z</time></trkpt><trkpt lat="43.059869" lon="13.4615026"><ele>218.16666666666669</ele><time>2026-04-12T07:58:36.056Z</time></trkpt><trkpt lat="43.0598203" lon="13.4614434"><ele>218.33333333333334</ele><time>2026-04-12T07:58:38.054Z</time></trkpt><trkpt lat="43.0597865" lon="13.4613584"><ele>218.5</ele><time>2026-04-12T07:58:40.009Z</time></trkpt><trkpt lat="43.0597527" lon="13.461274"><ele>218.66666666666669</ele><time>2026-04-12T07:58:42.052Z</time></trkpt><trkpt lat="43.0596575" lon="13.4612045"><ele>218.83333333333334</ele><time>2026-04-12T07:58:44.032Z</time></trkpt><trkpt lat="43.0595926" lon="13.4611642"><ele>219.0</ele><time>2026-04-12T07:58:45.06Z</time></trkpt><trkpt lat="43.0595306" lon="13.4611232"><ele>219.2</ele><time>2026-04-12T07:58:46.05Z</time></trkpt><trkpt lat="43.0594012" lon="13.4610622"><ele>219.39999999999998</ele><time>2026-04-12T07:58:48.04Z</time></trkpt><trkpt lat="43.059331" lon="13.4610306"><ele>219.6</ele><time>2026-04-12T07:58:49.028Z</time></trkpt><trkpt lat="43.0592218" lon="13.4609813"><ele>219.8</ele><time>2026-04-12T07:58:51.058Z</time></trkpt><trkpt lat="43.0591256" lon="13.4609472"><ele>220.0</ele><time>2026-04-12T07:58:52.027Z</time></trkpt><trkpt lat="43.0590369" lon="13.4609066"><ele>219.99999999999997</ele><time>2026-04-12T07:58:53.04Z</time></trkpt><trkpt lat="43.058953" lon="13.4608819"><ele>220.0</ele><time>2026-04-12T07:58:54.029Z</time></trkpt><trkpt lat="43.0588709" lon="13.4608522"><ele>220.0</ele><time>2026-04-12T07:58:55.057Z</time></trkpt><trkpt lat="43.0587887" lon="13.4608339"><ele>220.0</ele><time>2026-04-12T07:58:56.031Z</time></trkpt><trkpt lat="43.0587015" lon="13.4608276"><ele>219.99999999999997</ele><time>2026-04-12T07:58:57.057Z</time></trkpt><trkpt lat="43.058607" lon="13.4608529"><ele>220.0</ele><time>2026-04-12T07:58:58.057Z</time></trkpt><trkpt lat="43.0585133" lon="13.4608658"><ele>220.0</ele><time>2026-04-12T07:58:59.046Z</time></trkpt><trkpt lat="43.0584171" lon="13.46086"><ele>220.0</ele><time>2026-04-12T07:59:00.042Z</time></trkpt><trkpt lat="43.0583093" lon="13.4608325"><ele>220.0</ele><time>2026-04-12T07:59:01.053Z</time></trkpt><trkpt lat="43.0582005" lon="13.4608125"><ele>220.0</ele><time>2026-04-12T07:59:02.025Z</time></trkpt><trkpt lat="43.0580891" lon="13.4608075"><ele>220.0</ele><time>2026-04-12T07:59:03.033Z</time></trkpt><trkpt lat="43.0579709" lon="13.4607995"><ele>219.5</ele><time>2026-04-12T07:59:04.064Z</time></trkpt><trkpt lat="43.0578487" lon="13.4607983"><ele>219.0</ele><time>2026-04-12T07:59:05.064Z</time></trkpt><trkpt lat="43.0577237" lon="13.4608148"><ele>218.5</ele><time>2026-04-12T07:59:06.052Z</time></trkpt><trkpt lat="43.0575968" lon="13.4608472"><ele>218.0</ele><time>2026-04-12T07:59:07.042Z</time></trkpt><trkpt lat="43.0574816" lon="13.4608945"><ele>218.4</ele><time>2026-04-12T07:59:08.06Z</time></trkpt><trkpt lat="43.0573765" lon="13.4609257"><ele>218.8</ele><time>2026-04-12T07:59:09.047Z</time></trkpt><trkpt lat="43.0572818" lon="13.4609622"><ele>219.2</ele><time>2026-04-12T07:59:10.011Z</time></trkpt><trkpt lat="43.0571903" lon="13.4609994"><ele>219.6</ele><time>2026-04-12T07:59:11.044Z</time></trkpt><trkpt lat="43.0571155" lon="13.4610233"><ele>220.0</ele><time>2026-04-12T07:59:12.046Z</time></trkpt><trkpt lat="43.0570139" lon="13.4610198"><ele>219.99999999999997</ele><time>2026-04-12T07:59:14.047Z</time></trkpt><trkpt lat="43.0569675" lon="13.4611495"><ele>220.0</ele><time>2026-04-12T07:59:16.061Z</time></trkpt><trkpt lat="43.0569191" lon="13.4612902"><ele>220.0</ele><time>2026-04-12T07:59:18.051Z</time></trkpt><trkpt lat="43.0568596" lon="13.4613289"><ele>220.0</ele><time>2026-04-12T07:59:19.06Z</time></trkpt><trkpt lat="43.0567852" lon="13.4613464"><ele>219.99999999999997</ele><time>2026-04-12T07:59:19.997Z</time></trkpt><trkpt lat="43.0567164" lon="13.461335"><ele>220.0</ele><time>2026-04-12T07:59:21.05Z</time></trkpt><trkpt lat="43.0566339" lon="13.4612969"><ele>220.2</ele><time>2026-04-12T07:59:22.051Z</time></trkpt><trkpt lat="43.0565409" lon="13.4612696"><ele>220.4</ele><time>2026-04-12T07:59:23.047Z</time></trkpt><trkpt lat="43.0564405" lon="13.461247"><ele>220.60000000000002</ele><time>2026-04-12T07:59:24.061Z</time></trkpt><trkpt lat="43.0563387" lon="13.4612159"><ele>220.8</ele><time>2026-04-12T07:59:25.042Z</time></trkpt><trkpt lat="43.0562144" lon="13.4611735"><ele>221.0</ele><time>2026-04-12T07:59:26.04Z</time></trkpt><trkpt lat="43.0560943" lon="13.4611275"><ele>221.0</ele><time>2026-04-12T07:59:27.046Z</time></trkpt><trkpt lat="43.0559846" lon="13.461081"><ele>221.00000000000003</ele><time>2026-04-12T07:59:28.061Z</time></trkpt><trkpt lat="43.0558904" lon="13.4610352"><ele>221.00000000000003</ele><time>2026-04-12T07:59:29.047Z</time></trkpt><trkpt lat="43.0558017" lon="13.4609977"><ele>221.0</ele><time>2026-04-12T07:59:30.049Z</time></trkpt><trkpt lat="43.0557298" lon="13.4609643"><ele>221.0</ele><time>2026-04-12T07:59:31.04Z</time></trkpt><trkpt lat="43.0556531" lon="13.4609626"><ele>221.00000000000003</ele><time>2026-04-12T07:59:33.045Z</time></trkpt><trkpt lat="43.0555866" lon="13.4610145"><ele>221.0</ele><time>2026-04-12T07:59:35.031Z</time></trkpt><trkpt lat="43.0555335" lon="13.4610778"><ele>221.0</ele><time>2026-04-12T07:59:36.058Z</time></trkpt><trkpt lat="43.0554778" lon="13.4611347"><ele>221.0</ele><time>2026-04-12T07:59:37.046Z</time></trkpt><trkpt lat="43.0554076" lon="13.461163"><ele>221.00000000000003</ele><time>2026-04-12T07:59:38.049Z</time></trkpt><trkpt lat="43.0552813" lon="13.4611738"><ele>221.0</ele><time>2026-04-12T07:59:40.044Z</time></trkpt><trkpt lat="43.0552155" lon="13.4611569"><ele>221.0</ele><time>2026-04-12T07:59:41.031Z</time></trkpt><trkpt lat="43.0551173" lon="13.4611427"><ele>221.00000000000003</ele><time>2026-04-12T07:59:43.035Z</time></trkpt><trkpt lat="43.0550178" lon="13.4610777"><ele>221.00000000000003</ele><time>2026-04-12T07:59:45.036Z</time></trkpt><trkpt lat="43.0549445" lon="13.4610023"><ele>221.0</ele><time>2026-04-12T07:59:46.045Z</time></trkpt><trkpt lat="43.0548689" lon="13.4609183"><ele>221.0</ele><time>2026-04-12T07:59:47.022Z</time></trkpt><trkpt lat="43.0548007" lon="13.4608176"><ele>221.4</ele><time>2026-04-12T07:59:48.048Z</time></trkpt><trkpt lat="43.0547205" lon="13.4607314"><ele>221.8</ele><time>2026-04-12T07:59:49.061Z</time></trkpt><trkpt lat="43.0546446" lon="13.4606372"><ele>222.20000000000002</ele><time>2026-04-12T07:59:50.047Z</time></trkpt><trkpt lat="43.0545727" lon="13.4605506"><ele>222.60000000000002</ele><time>2026-04-12T07:59:51.035Z</time></trkpt><trkpt lat="43.0545019" lon="13.4604601"><ele>223.0</ele><time>2026-04-12T07:59:52.029Z</time></trkpt><trkpt lat="43.0544286" lon="13.460396"><ele>222.8</ele><time>2026-04-12T07:59:53.056Z</time></trkpt><trkpt lat="43.0543439" lon="13.4603276"><ele>222.60000000000002</ele><time>2026-04-12T07:59:54.047Z</time></trkpt><trkpt lat="43.0542478" lon="13.4602693"><ele>222.39999999999998</ele><time>2026-04-12T07:59:55.028Z</time></trkpt><trkpt lat="43.0541467" lon="13.4602121"><ele>222.2</ele><time>2026-04-12T07:59:56.025Z</time></trkpt><trkpt lat="43.0540341" lon="13.4601698"><ele>222.0</ele><time>2026-04-12T07:59:57.044Z</time></trkpt><trkpt lat="43.0539267" lon="13.4601384"><ele>222.0</ele><time>2026-04-12T07:59:58.043Z</time></trkpt><trkpt lat="43.0538325" lon="13.4601123"><ele>222.0</ele><time>2026-04-12T07:59:59.031Z</time></trkpt><trkpt lat="43.0537453" lon="13.4600816"><ele>222.0</ele><time>2026-04-12T08:00:00.058Z</time></trkpt><trkpt lat="43.0536514" lon="13.4600381"><ele>222.0</ele><time>2026-04-12T08:00:01.04Z</time></trkpt><trkpt lat="43.0535602" lon="13.4599868"><ele>222.0</ele><time>2026-04-12T08:00:02.054Z</time></trkpt><trkpt lat="43.0534829" lon="13.4599151"><ele>222.0</ele><time>2026-04-12T08:00:03.039Z</time></trkpt><trkpt lat="43.0534077" lon="13.4598379"><ele>222.0</ele><time>2026-04-12T08:00:04.044Z</time></trkpt><trkpt lat="43.0533312" lon="13.459743"><ele>222.0</ele><time>2026-04-12T08:00:05.062Z</time></trkpt><trkpt lat="43.0532483" lon="13.4596653"><ele>222.0</ele><time>2026-04-12T08:00:06.058Z</time></trkpt><trkpt lat="43.0531758" lon="13.4595761"><ele>222.0</ele><time>2026-04-12T08:00:06.992Z</time></trkpt><trkpt lat="43.0531021" lon="13.4594915"><ele>222.2</ele><time>2026-04-12T08:00:08.065Z</time></trkpt><trkpt lat="43.0530406" lon="13.4594088"><ele>222.39999999999998</ele><time>2026-04-12T08:00:09.052Z</time></trkpt><trkpt lat="43.05296" lon="13.4593434"><ele>222.60000000000002</ele><time>2026-04-12T08:00:10.05Z</time></trkpt><trkpt lat="43.0528768" lon="13.4592929"><ele>222.8</ele><time>2026-04-12T08:00:11.039Z</time></trkpt><trkpt lat="43.0527862" lon="13.459247"><ele>223.0</ele><time>2026-04-12T08:00:12.037Z</time></trkpt><trkpt lat="43.0526838" lon="13.4591914"><ele>223.0</ele><time>2026-04-12T08:00:13.047Z</time></trkpt><trkpt lat="43.0525871" lon="13.4591363"><ele>223.0</ele><time>2026-04-12T08:00:14.047Z</time></trkpt><trkpt lat="43.0524927" lon="13.4590593"><ele>223.0</ele><time>2026-04-12T08:00:15.045Z</time></trkpt><trkpt lat="43.0524006" lon="13.4589736"><ele>223.0</ele><time>2026-04-12T08:00:16.064Z</time></trkpt><trkpt lat="43.0523049" lon="13.4588993"><ele>223.0</ele><time>2026-04-12T08:00:17.041Z</time></trkpt><trkpt lat="43.0522292" lon="13.4588264"><ele>223.16666666666666</ele><time>2026-04-12T08:00:18.051Z</time></trkpt><trkpt lat="43.0521814" lon="13.4587672"><ele>223.33333333333331</ele><time>2026-04-12T08:00:19.031Z</time></trkpt><trkpt lat="43.052096" lon="13.458644"><ele>223.5</ele><time>2026-04-12T08:00:21.043Z</time></trkpt><trkpt lat="43.0520817" lon="13.4585572"><ele>223.66666666666669</ele><time>2026-04-12T08:00:22.054Z</time></trkpt><trkpt lat="43.0520882" lon="13.4584421"><ele>223.83333333333334</ele><time>2026-04-12T08:00:23.039Z</time></trkpt><trkpt lat="43.0521076" lon="13.4583357"><ele>224.0</ele><time>2026-04-12T08:00:24.015Z</time></trkpt><trkpt lat="43.0521408" lon="13.4582116"><ele>224.0</ele><time>2026-04-12T08:00:25.044Z</time></trkpt><trkpt lat="43.0521778" lon="13.4580906"><ele>223.99999999999997</ele><time>2026-04-12T08:00:26.048Z</time></trkpt><trkpt lat="43.0522013" lon="13.4579742"><ele>223.99999999999997</ele><time>2026-04-12T08:00:27.059Z</time></trkpt><trkpt lat="43.0522302" lon="13.4578444"><ele>224.0</ele><time>2026-04-12T08:00:28.043Z</time></trkpt><trkpt lat="43.0522498" lon="13.45771"><ele>224.0</ele><time>2026-04-12T08:00:29.054Z</time></trkpt><trkpt lat="43.0522657" lon="13.4575609"><ele>224.6</ele><time>2026-04-12T08:00:30.047Z</time></trkpt><trkpt lat="43.0522729" lon="13.4574069"><ele>225.2</ele><time>2026-04-12T08:00:31.046Z</time></trkpt><trkpt lat="43.0522839" lon="13.4572663"><ele>225.79999999999998</ele><time>2026-04-12T08:00:32.05Z</time></trkpt><trkpt lat="43.0522882" lon="13.457132"><ele>226.39999999999998</ele><time>2026-04-12T08:00:33.019Z</time></trkpt><trkpt lat="43.0523066" lon="13.4570101"><ele>227.0</ele><time>2026-04-12T08:00:35.052Z</time></trkpt><trkpt lat="43.052287" lon="13.4569145"><ele>227.6</ele><time>2026-04-12T08:00:38.041Z</time></trkpt><trkpt lat="43.0522439" lon="13.456819"><ele>228.2</ele><time>2026-04-12T08:00:39.028Z</time></trkpt><trkpt lat="43.052176" lon="13.4567342"><ele>228.8</ele><time>2026-04-12T08:00:40.044Z</time></trkpt><trkpt lat="43.0520785" lon="13.456643"><ele>229.4</ele><time>2026-04-12T08:00:41.046Z</time></trkpt><trkpt lat="43.0519808" lon="13.4565426"><ele>230.0</ele><time>2026-04-12T08:00:42.056Z</time></trkpt><trkpt lat="43.051895" lon="13.4564585"><ele>230.00000000000003</ele><time>2026-04-12T08:00:43.045Z</time></trkpt><trkpt lat="43.0518283" lon="13.4563894"><ele>230.0</ele><time>2026-04-12T08:00:44.055Z</time></trkpt><trkpt lat="43.05176" lon="13.4563568"><ele>230.0</ele><time>2026-04-12T08:00:44.992Z</time></trkpt><trkpt lat="43.0516736" lon="13.4563511"><ele>230.0</ele><time>2026-04-12T08:00:46.054Z</time></trkpt><trkpt lat="43.0515727" lon="13.4563291"><ele>230.00000000000003</ele><time>2026-04-12T08:00:47.041Z</time></trkpt><trkpt lat="43.0514744" lon="13.4562949"><ele>230.0</ele><time>2026-04-12T08:00:48.057Z</time></trkpt><trkpt lat="43.0513712" lon="13.4562478"><ele>230.0</ele><time>2026-04-12T08:00:49.056Z</time></trkpt><trkpt lat="43.051277" lon="13.4561626"><ele>230.0</ele><time>2026-04-12T08:00:50.035Z</time></trkpt><trkpt lat="43.0511745" lon="13.4560437"><ele>230.0</ele><time>2026-04-12T08:00:51.039Z</time></trkpt><trkpt lat="43.051069" lon="13.4559054"><ele>230.0</ele><time>2026-04-12T08:00:52.078Z</time></trkpt><trkpt lat="43.0509763" lon="13.4557761"><ele>230.0</ele><time>2026-04-12T08:00:53.033Z</time></trkpt><trkpt lat="43.0508895" lon="13.4556666"><ele>230.0</ele><time>2026-04-12T08:00:54.035Z</time></trkpt><trkpt lat="43.0508191" lon="13.455566"><ele>230.0</ele><time>2026-04-12T08:00:55.078Z</time></trkpt><trkpt lat="43.0507602" lon="13.455482"><ele>230.0</ele><time>2026-04-12T08:00:56.038Z</time></trkpt><trkpt lat="43.0506955" lon="13.4554413"><ele>230.0</ele><time>2026-04-12T08:00:57.044Z</time></trkpt><trkpt lat="43.0505967" lon="13.4554343"><ele>230.00000000000003</ele><time>2026-04-12T08:00:58.999Z</time></trkpt><trkpt lat="43.0504737" lon="13.4555004"><ele>230.0</ele><time>2026-04-12T08:01:01.041Z</time></trkpt><trkpt lat="43.0504097" lon="13.4555163"><ele>230.0</ele><time>2026-04-12T08:01:02.062Z</time></trkpt><trkpt lat="43.0503477" lon="13.4554941"><ele>230.0</ele><time>2026-04-12T08:01:03.059Z</time></trkpt><trkpt lat="43.0502762" lon="13.4554439"><ele>230.00000000000003</ele><time>2026-04-12T08:01:04.049Z</time></trkpt><trkpt lat="43.050213" lon="13.4553555"><ele>230.0</ele><time>2026-04-12T08:01:05.056Z</time></trkpt><trkpt lat="43.0501468" lon="13.4552632"><ele>230.0</ele><time>2026-04-12T08:01:06.075Z</time></trkpt><trkpt lat="43.0500701" lon="13.4551649"><ele>230.0</ele><time>2026-04-12T08:01:07.043Z</time></trkpt><trkpt lat="43.0499922" lon="13.4550731"><ele>230.0</ele><time>2026-04-12T08:01:08.06Z</time></trkpt><trkpt lat="43.0499159" lon="13.454978"><ele>230.0</ele><time>2026-04-12T08:01:09.033Z</time></trkpt><trkpt lat="43.0498329" lon="13.4548834"><ele>230.0</ele><time>2026-04-12T08:01:10.034Z</time></trkpt><trkpt lat="43.0497271" lon="13.4548042"><ele>230.0</ele><time>2026-04-12T08:01:11.052Z</time></trkpt><trkpt lat="43.0496163" lon="13.4547343"><ele>230.0</ele><time>2026-04-12T08:01:12.06Z</time></trkpt><trkpt lat="43.0495111" lon="13.4546582"><ele>230.0</ele><time>2026-04-12T08:01:13.058Z</time></trkpt><trkpt lat="43.0493922" lon="13.4545836"><ele>230.0</ele><time>2026-04-12T08:01:14.02Z</time></trkpt><trkpt lat="43.0492659" lon="13.4545179"><ele>230.0</ele><time>2026-04-12T08:01:15.036Z</time></trkpt><trkpt lat="43.0491424" lon="13.4544442"><ele>230.0</ele><time>2026-04-12T08:01:16.052Z</time></trkpt><trkpt lat="43.0490218" lon="13.4543692"><ele>230.0</ele><time>2026-04-12T08:01:17.045Z</time></trkpt><trkpt lat="43.0488984" lon="13.4542902"><ele>230.0</ele><time>2026-04-12T08:01:18.064Z</time></trkpt><trkpt lat="43.0487695" lon="13.454211"><ele>230.25</ele><time>2026-04-12T08:01:19.041Z</time></trkpt><trkpt lat="43.0486486" lon="13.4541439"><ele>230.5</ele><time>2026-04-12T08:01:20.056Z</time></trkpt><trkpt lat="43.0485393" lon="13.4540664"><ele>230.75</ele><time>2026-04-12T08:01:21.05Z</time></trkpt><trkpt lat="43.0484259" lon="13.4539862"><ele>231.0</ele><time>2026-04-12T08:01:22.05Z</time></trkpt><trkpt lat="43.0483085" lon="13.4539074"><ele>231.0</ele><time>2026-04-12T08:01:23.041Z</time></trkpt><trkpt lat="43.0481935" lon="13.4538263"><ele>231.0</ele><time>2026-04-12T08:01:24.055Z</time></trkpt><trkpt lat="43.0480715" lon="13.4537509"><ele>231.0</ele><time>2026-04-12T08:01:24.999Z</time></trkpt><trkpt lat="43.0479438" lon="13.4536904"><ele>231.0</ele><time>2026-04-12T08:01:26.061Z</time></trkpt><trkpt lat="43.0478139" lon="13.4536222"><ele>232.0</ele><time>2026-04-12T08:01:27.043Z</time></trkpt><trkpt lat="43.0476887" lon="13.4535687"><ele>233.0</ele><time>2026-04-12T08:01:28.053Z</time></trkpt><trkpt lat="43.0475617" lon="13.4535244"><ele>234.0</ele><time>2026-04-12T08:01:29.037Z</time></trkpt><trkpt lat="43.0474383" lon="13.4534786"><ele>235.0</ele><time>2026-04-12T08:01:30.048Z</time></trkpt><trkpt lat="43.0473098" lon="13.4534286"><ele>235.2</ele><time>2026-04-12T08:01:31.041Z</time></trkpt><trkpt lat="43.047185" lon="13.4533827"><ele>235.4</ele><time>2026-04-12T08:01:32.035Z</time></trkpt><trkpt lat="43.0470831" lon="13.4533386"><ele>235.60000000000002</ele><time>2026-04-12T08:01:33.055Z</time></trkpt><trkpt lat="43.046996" lon="13.4533058"><ele>235.8</ele><time>2026-04-12T08:01:34.048Z</time></trkpt><trkpt lat="43.0469284" lon="13.4532549"><ele>236.0</ele><time>2026-04-12T08:01:35.067Z</time></trkpt><trkpt lat="43.0468653" lon="13.4531946"><ele>236.0</ele><time>2026-04-12T08:01:36.06Z</time></trkpt><trkpt lat="43.0467983" lon="13.4530865"><ele>236.00000000000003</ele><time>2026-04-12T08:01:37.032Z</time></trkpt><trkpt lat="43.0467434" lon="13.4529307"><ele>236.00000000000003</ele><time>2026-04-12T08:01:38.056Z</time></trkpt><trkpt lat="43.0467028" lon="13.4527988"><ele>236.0</ele><time>2026-04-12T08:01:39.034Z</time></trkpt><trkpt lat="43.0466689" lon="13.4526705"><ele>236.0</ele><time>2026-04-12T08:01:40.05Z</time></trkpt><trkpt lat="43.0466541" lon="13.4525511"><ele>235.8</ele><time>2026-04-12T08:01:41.03Z</time></trkpt><trkpt lat="43.0466496" lon="13.4524508"><ele>235.60000000000002</ele><time>2026-04-12T08:01:42.036Z</time></trkpt><trkpt lat="43.0466754" lon="13.4523012"><ele>235.4</ele><time>2026-04-12T08:01:44.052Z</time></trkpt><trkpt lat="43.046655" lon="13.4521471"><ele>235.2</ele><time>2026-04-12T08:01:46.04Z</time></trkpt><trkpt lat="43.0466596" lon="13.4520283"><ele>235.0</ele><time>2026-04-12T08:01:49.045Z</time></trkpt><trkpt lat="43.04665" lon="13.4519229"><ele>235.42857142857142</ele><time>2026-04-12T08:03:47.042Z</time></trkpt><trkpt lat="43.0466533" lon="13.4518302"><ele>235.85714285714283</ele><time>2026-04-12T08:04:33.01Z</time></trkpt><trkpt lat="43.0466556" lon="13.4517409"><ele>236.28571428571428</ele><time>2026-04-12T08:04:36.031Z</time></trkpt><trkpt lat="43.0466758" lon="13.4516437"><ele>236.71428571428572</ele><time>2026-04-12T08:04:39.039Z</time></trkpt><trkpt lat="43.0467105" lon="13.4515505"><ele>237.14285714285714</ele><time>2026-04-12T08:04:41.036Z</time></trkpt><trkpt lat="43.0467649" lon="13.4514369"><ele>237.57142857142856</ele><time>2026-04-12T08:04:43.057Z</time></trkpt><trkpt lat="43.046779" lon="13.4513491"><ele>238.0</ele><time>2026-04-12T08:04:45.045Z</time></trkpt><trkpt lat="43.0467668" lon="13.451235"><ele>238.8</ele><time>2026-04-12T08:04:47.026Z</time></trkpt><trkpt lat="43.0467329" lon="13.4510833"><ele>239.60000000000002</ele><time>2026-04-12T08:04:49.045Z</time></trkpt><trkpt lat="43.0466773" lon="13.4510101"><ele>240.39999999999998</ele><time>2026-04-12T08:04:51.034Z</time></trkpt><trkpt lat="43.0465796" lon="13.4509314"><ele>241.2</ele><time>2026-04-12T08:04:53.04Z</time></trkpt><trkpt lat="43.0464776" lon="13.4509979"><ele>242.0</ele><time>2026-04-12T08:04:55.056Z</time></trkpt><trkpt lat="43.0463682" lon="13.4510512"><ele>241.33333333333334</ele><time>2026-04-12T08:04:57.055Z</time></trkpt><trkpt lat="43.0463816" lon="13.4511449"><ele>240.66666666666669</ele><time>2026-04-12T08:05:00.046Z</time></trkpt><trkpt lat="43.0464351" lon="13.4512013"><ele>240.0</ele><time>2026-04-12T08:05:01.042Z</time></trkpt><trkpt lat="43.0465001" lon="13.4512378"><ele>239.33333333333331</ele><time>2026-04-12T08:05:02.043Z</time></trkpt><trkpt lat="43.0465752" lon="13.4512986"><ele>238.66666666666666</ele><time>2026-04-12T08:05:03.038Z</time></trkpt><trkpt lat="43.0466348" lon="13.4513648"><ele>238.0</ele><time>2026-04-12T08:05:04.035Z</time></trkpt><trkpt lat="43.0467111" lon="13.4514289"><ele>238.0</ele><time>2026-04-12T08:05:05.058Z</time></trkpt><trkpt lat="43.0467857" lon="13.4515071"><ele>238.0</ele><time>2026-04-12T08:05:06.03Z</time></trkpt><trkpt lat="43.0468696" lon="13.4515816"><ele>238.0</ele><time>2026-04-12T08:05:07.054Z</time></trkpt><trkpt lat="43.0469412" lon="13.4516565"><ele>238.0</ele><time>2026-04-12T08:05:08.033Z</time></trkpt><trkpt lat="43.0470191" lon="13.4517333"><ele>238.0</ele><time>2026-04-12T08:05:09.046Z</time></trkpt><trkpt lat="43.047106" lon="13.4518069"><ele>238.0</ele><time>2026-04-12T08:05:10.053Z</time></trkpt><trkpt lat="43.0471951" lon="13.4518809"><ele>238.0</ele><time>2026-04-12T08:05:11.033Z</time></trkpt><trkpt lat="43.047281" lon="13.4519531"><ele>238.0</ele><time>2026-04-12T08:05:12.042Z</time></trkpt><trkpt lat="43.0473745" lon="13.4520307"><ele>238.0</ele><time>2026-04-12T08:05:13.044Z</time></trkpt><trkpt lat="43.0474665" lon="13.4521076"><ele>238.0</ele><time>2026-04-12T08:05:14.039Z</time></trkpt><trkpt lat="43.0475608" lon="13.4521808"><ele>238.2</ele><time>2026-04-12T08:05:15.029Z</time></trkpt><trkpt lat="43.047652" lon="13.4522521"><ele>238.4</ele><time>2026-04-12T08:05:16.048Z</time></trkpt><trkpt lat="43.0477445" lon="13.4523399"><ele>238.59999999999997</ele><time>2026-04-12T08:05:17.073Z</time></trkpt><trkpt lat="43.0478441" lon="13.4524072"><ele>238.79999999999998</ele><time>2026-04-12T08:05:18.055Z</time></trkpt><trkpt lat="43.0479413" lon="13.4524777"><ele>239.0</ele><time>2026-04-12T08:05:19.057Z</time></trkpt><trkpt lat="43.0480306" lon="13.4525339"><ele>239.0</ele><time>2026-04-12T08:05:20.05Z</time></trkpt><trkpt lat="43.0481209" lon="13.4525714"><ele>238.99999999999997</ele><time>2026-04-12T08:05:21.039Z</time></trkpt><trkpt lat="43.0482202" lon="13.4525614"><ele>238.99999999999997</ele><time>2026-04-12T08:05:22.036Z</time></trkpt><trkpt lat="43.0483151" lon="13.4525645"><ele>239.0</ele><time>2026-04-12T08:05:23.04Z</time></trkpt><trkpt lat="43.0484206" lon="13.452536"><ele>239.0</ele><time>2026-04-12T08:05:24.056Z</time></trkpt><trkpt lat="43.0485613" lon="13.4524756"><ele>242.0</ele><time>2026-04-12T08:05:25.06Z</time></trkpt><trkpt lat="43.0487173" lon="13.4524082"><ele>245.0</ele><time>2026-04-12T08:05:26.059Z</time></trkpt><trkpt lat="43.0488686" lon="13.4523216"><ele>248.0</ele><time>2026-04-12T08:05:27.024Z</time></trkpt><trkpt lat="43.0490172" lon="13.4522469"><ele>248.33333333333334</ele><time>2026-04-12T08:05:28.041Z</time></trkpt><trkpt lat="43.0491611" lon="13.4521857"><ele>248.66666666666669</ele><time>2026-04-12T08:05:29.036Z</time></trkpt><trkpt lat="43.0493112" lon="13.4521278"><ele>249.0</ele><time>2026-04-12T08:05:30.037Z</time></trkpt><trkpt lat="43.0494514" lon="13.4520679"><ele>249.0</ele><time>2026-04-12T08:05:31.032Z</time></trkpt><trkpt lat="43.0495855" lon="13.4520273"><ele>249.0</ele><time>2026-04-12T08:05:32.023Z</time></trkpt><trkpt lat="43.0497105" lon="13.4520288"><ele>249.0</ele><time>2026-04-12T08:05:33.033Z</time></trkpt><trkpt lat="43.0498238" lon="13.4520646"><ele>249.0</ele><time>2026-04-12T08:05:34.037Z</time></trkpt><trkpt lat="43.0499484" lon="13.4521241"><ele>251.5</ele><time>2026-04-12T08:05:35.042Z</time></trkpt><trkpt lat="43.0500679" lon="13.4522053"><ele>254.0</ele><time>2026-04-12T08:05:36.029Z</time></trkpt><trkpt lat="43.050191" lon="13.4522945"><ele>256.5</ele><time>2026-04-12T08:05:37.026Z</time></trkpt><trkpt lat="43.0503112" lon="13.4523893"><ele>259.0</ele><time>2026-04-12T08:05:38.039Z</time></trkpt><trkpt lat="43.0504375" lon="13.4524796"><ele>259.0</ele><time>2026-04-12T08:05:39.05Z</time></trkpt><trkpt lat="43.0505574" lon="13.4525787"><ele>259.0</ele><time>2026-04-12T08:05:40.08Z</time></trkpt><trkpt lat="43.0506793" lon="13.4526756"><ele>259.0</ele><time>2026-04-12T08:05:41.048Z</time></trkpt><trkpt lat="43.0508009" lon="13.4527709"><ele>259.0</ele><time>2026-04-12T08:05:42.043Z</time></trkpt><trkpt lat="43.0509247" lon="13.4528574"><ele>259.4</ele><time>2026-04-12T08:05:43.031Z</time></trkpt><trkpt lat="43.051039" lon="13.4529333"><ele>259.79999999999995</ele><time>2026-04-12T08:05:44.057Z</time></trkpt><trkpt lat="43.051126" lon="13.4529999"><ele>260.20000000000005</ele><time>2026-04-12T08:05:45.051Z</time></trkpt><trkpt lat="43.051204" lon="13.4530595"><ele>260.6</ele><time>2026-04-12T08:05:46.045Z</time></trkpt><trkpt lat="43.0512661" lon="13.4530963"><ele>261.0</ele><time>2026-04-12T08:05:47.051Z</time></trkpt><trkpt lat="43.051336" lon="13.4530935"><ele>261.0</ele><time>2026-04-12T08:05:48.049Z</time></trkpt><trkpt lat="43.0514132" lon="13.4530398"><ele>261.0</ele><time>2026-04-12T08:05:49.066Z</time></trkpt><trkpt lat="43.0514584" lon="13.4529492"><ele>261.0</ele><time>2026-04-12T08:05:50.061Z</time></trkpt><trkpt lat="43.0514753" lon="13.4528292"><ele>261.0</ele><time>2026-04-12T08:05:51.047Z</time></trkpt><trkpt lat="43.0514631" lon="13.4526868"><ele>261.0</ele><time>2026-04-12T08:05:52.048Z</time></trkpt><trkpt lat="43.0514079" lon="13.4525341"><ele>264.5</ele><time>2026-04-12T08:05:53.055Z</time></trkpt><trkpt lat="43.0513368" lon="13.4524077"><ele>268.0</ele><time>2026-04-12T08:05:54.06Z</time></trkpt><trkpt lat="43.0512606" lon="13.4522891"><ele>271.5</ele><time>2026-04-12T08:05:55.049Z</time></trkpt><trkpt lat="43.0511831" lon="13.4521754"><ele>275.0</ele><time>2026-04-12T08:05:56.05Z</time></trkpt><trkpt lat="43.0511063" lon="13.4520555"><ele>278.0</ele><time>2026-04-12T08:05:57.03Z</time></trkpt><trkpt lat="43.051015" lon="13.4519253"><ele>281.0</ele><time>2026-04-12T08:05:58.051Z</time></trkpt><trkpt lat="43.0509281" lon="13.4517938"><ele>284.0</ele><time>2026-04-12T08:05:59.056Z</time></trkpt><trkpt lat="43.0508442" lon="13.4516637"><ele>287.0</ele><time>2026-04-12T08:06:00.063Z</time></trkpt><trkpt lat="43.0507925" lon="13.4515288"><ele>284.25</ele><time>2026-04-12T08:06:01.066Z</time></trkpt><trkpt lat="43.0507541" lon="13.4513879"><ele>281.5</ele><time>2026-04-12T08:06:02.051Z</time></trkpt><trkpt lat="43.0507276" lon="13.4512314"><ele>278.75</ele><time>2026-04-12T08:06:03.056Z</time></trkpt><trkpt lat="43.0507139" lon="13.4510747"><ele>276.0</ele><time>2026-04-12T08:06:04.056Z</time></trkpt><trkpt lat="43.0507155" lon="13.4509279"><ele>276.0</ele><time>2026-04-12T08:06:05.047Z</time></trkpt><trkpt lat="43.0507383" lon="13.450807"><ele>276.0</ele><time>2026-04-12T08:06:06.056Z</time></trkpt><trkpt lat="43.0507895" lon="13.4507388"><ele>276.0</ele><time>2026-04-12T08:06:07.054Z</time></trkpt><trkpt lat="43.050851" lon="13.4507069"><ele>276.0</ele><time>2026-04-12T08:06:08.043Z</time></trkpt><trkpt lat="43.0509403" lon="13.4507232"><ele>276.0</ele><time>2026-04-12T08:06:09.058Z</time></trkpt><trkpt lat="43.0510103" lon="13.450765"><ele>276.0</ele><time>2026-04-12T08:06:10.046Z</time></trkpt><trkpt lat="43.0510735" lon="13.4508335"><ele>279.8</ele><time>2026-04-12T08:06:11.055Z</time></trkpt><trkpt lat="43.0511475" lon="13.4509202"><ele>283.6</ele><time>2026-04-12T08:06:12.039Z</time></trkpt><trkpt lat="43.0512352" lon="13.4510056"><ele>287.4</ele><time>2026-04-12T08:06:13.009Z</time></trkpt><trkpt lat="43.051332" lon="13.4510775"><ele>291.2</ele><time>2026-04-12T08:06:14.052Z</time></trkpt><trkpt lat="43.0514275" lon="13.4511456"><ele>295.0</ele><time>2026-04-12T08:06:14.998Z</time></trkpt><trkpt lat="43.0515195" lon="13.451189"><ele>295.0</ele><time>2026-04-12T08:06:16.033Z</time></trkpt><trkpt lat="43.0516123" lon="13.4512227"><ele>295.0</ele><time>2026-04-12T08:06:17.065Z</time></trkpt><trkpt lat="43.0516948" lon="13.4512196"><ele>295.0</ele><time>2026-04-12T08:06:18.067Z</time></trkpt><trkpt lat="43.0517696" lon="13.4511544"><ele>295.0</ele><time>2026-04-12T08:06:19.054Z</time></trkpt><trkpt lat="43.0518357" lon="13.4509949"><ele>295.0</ele><time>2026-04-12T08:06:20.046Z</time></trkpt><trkpt lat="43.0519101" lon="13.4508288"><ele>297.5</ele><time>2026-04-12T08:06:21.053Z</time></trkpt><trkpt lat="43.0519851" lon="13.4506545"><ele>300.0</ele><time>2026-04-12T08:06:22.05Z</time></trkpt><trkpt lat="43.05205" lon="13.4504844"><ele>302.5</ele><time>2026-04-12T08:06:23.069Z</time></trkpt><trkpt lat="43.0521149" lon="13.4503047"><ele>305.0</ele><time>2026-04-12T08:06:24.064Z</time></trkpt><trkpt lat="43.0521672" lon="13.4501307"><ele>308.0</ele><time>2026-04-12T08:06:25.025Z</time></trkpt><trkpt lat="43.0521968" lon="13.449963"><ele>311.0</ele><time>2026-04-12T08:06:25.998Z</time></trkpt><trkpt lat="43.0522085" lon="13.4498004"><ele>314.0</ele><time>2026-04-12T08:06:27.016Z</time></trkpt><trkpt lat="43.0521941" lon="13.4496453"><ele>317.0</ele><time>2026-04-12T08:06:28.046Z</time></trkpt><trkpt lat="43.0521515" lon="13.4494734"><ele>318.5</ele><time>2026-04-12T08:06:29.038Z</time></trkpt><trkpt lat="43.0520869" lon="13.449301"><ele>320.0</ele><time>2026-04-12T08:06:30.036Z</time></trkpt><trkpt lat="43.0520228" lon="13.4491317"><ele>321.5</ele><time>2026-04-12T08:06:31.039Z</time></trkpt><trkpt lat="43.051965" lon="13.4489508"><ele>323.0</ele><time>2026-04-12T08:06:32.044Z</time></trkpt><trkpt lat="43.0519034" lon="13.4487817"><ele>323.0</ele><time>2026-04-12T08:06:33.037Z</time></trkpt><trkpt lat="43.0518446" lon="13.4486078"><ele>323.0</ele><time>2026-04-12T08:06:34.049Z</time></trkpt><trkpt lat="43.0517956" lon="13.4484307"><ele>323.0</ele><time>2026-04-12T08:06:34.99Z</time></trkpt><trkpt lat="43.0517718" lon="13.4482433"><ele>323.0</ele><time>2026-04-12T08:06:36.044Z</time></trkpt><trkpt lat="43.0517723" lon="13.4480483"><ele>323.5</ele><time>2026-04-12T08:06:37.036Z</time></trkpt><trkpt lat="43.0517906" lon="13.4478758"><ele>324.0</ele><time>2026-04-12T08:06:38.041Z</time></trkpt><trkpt lat="43.0518181" lon="13.4477091"><ele>324.5</ele><time>2026-04-12T08:06:39.054Z</time></trkpt><trkpt lat="43.0518529" lon="13.4475375"><ele>325.0</ele><time>2026-04-12T08:06:40.036Z</time></trkpt><trkpt lat="43.0519006" lon="13.4473531"><ele>325.0</ele><time>2026-04-12T08:06:41.051Z</time></trkpt><trkpt lat="43.0519455" lon="13.4471888"><ele>325.0</ele><time>2026-04-12T08:06:42.066Z</time></trkpt><trkpt lat="43.0519932" lon="13.447014"><ele>325.0</ele><time>2026-04-12T08:06:43.053Z</time></trkpt><trkpt lat="43.0520334" lon="13.4468277"><ele>325.0</ele><time>2026-04-12T08:06:44.052Z</time></trkpt><trkpt lat="43.0520816" lon="13.4466356"><ele>326.25</ele><time>2026-04-12T08:06:45.043Z</time></trkpt><trkpt lat="43.0521424" lon="13.4464424"><ele>327.5</ele><time>2026-04-12T08:06:46.054Z</time></trkpt><trkpt lat="43.052188" lon="13.4462518"><ele>328.75</ele><time>2026-04-12T08:06:47.049Z</time></trkpt><trkpt lat="43.0522242" lon="13.4460575"><ele>330.0</ele><time>2026-04-12T08:06:48.05Z</time></trkpt><trkpt lat="43.0522656" lon="13.4458657"><ele>332.3333333333333</ele><time>2026-04-12T08:06:49.067Z</time></trkpt><trkpt lat="43.0523014" lon="13.4456674"><ele>334.66666666666663</ele><time>2026-04-12T08:06:50.067Z</time></trkpt><trkpt lat="43.0523405" lon="13.4454645"><ele>337.0</ele><time>2026-04-12T08:06:51.057Z</time></trkpt><trkpt lat="43.052377" lon="13.4452655"><ele>339.75</ele><time>2026-04-12T08:06:52.052Z</time></trkpt><trkpt lat="43.0523957" lon="13.4450724"><ele>342.5</ele><time>2026-04-12T08:06:53.063Z</time></trkpt><trkpt lat="43.0523862" lon="13.4448908"><ele>345.25</ele><time>2026-04-12T08:06:54.064Z</time></trkpt><trkpt lat="43.0523603" lon="13.4446972"><ele>348.0</ele><time>2026-04-12T08:06:55.056Z</time></trkpt><trkpt lat="43.0523122" lon="13.4444909"><ele>349.0</ele><time>2026-04-12T08:06:56.058Z</time></trkpt><trkpt lat="43.0522663" lon="13.4443057"><ele>350.0</ele><time>2026-04-12T08:06:57.057Z</time></trkpt><trkpt lat="43.0522224" lon="13.4441159"><ele>351.0</ele><time>2026-04-12T08:06:58.061Z</time></trkpt><trkpt lat="43.0521731" lon="13.4439186"><ele>352.0</ele><time>2026-04-12T08:06:59.049Z</time></trkpt><trkpt lat="43.0521171" lon="13.4437394"><ele>353.75</ele><time>2026-04-12T08:07:00.052Z</time></trkpt><trkpt lat="43.0520482" lon="13.4435652"><ele>355.5</ele><time>2026-04-12T08:07:01.044Z</time></trkpt><trkpt lat="43.0519796" lon="13.4434049"><ele>357.25</ele><time>2026-04-12T08:07:02.069Z</time></trkpt><trkpt lat="43.0518993" lon="13.4432542"><ele>359.0</ele><time>2026-04-12T08:07:03.055Z</time></trkpt><trkpt lat="43.0518062" lon="13.4431169"><ele>359.0</ele><time>2026-04-12T08:07:04.052Z</time></trkpt><trkpt lat="43.0516855" lon="13.4430435"><ele>359.0</ele><time>2026-04-12T08:07:05.008Z</time></trkpt><trkpt lat="43.0515333" lon="13.4429931"><ele>359.0</ele><time>2026-04-12T08:07:06.028Z</time></trkpt><trkpt lat="43.051377" lon="13.4429533"><ele>359.0</ele><time>2026-04-12T08:07:07.027Z</time></trkpt><trkpt lat="43.0512297" lon="13.4429331"><ele>365.33333333333337</ele><time>2026-04-12T08:07:07.983Z</time></trkpt><trkpt lat="43.0510777" lon="13.4429064"><ele>371.6666666666667</ele><time>2026-04-12T08:07:08.996Z</time></trkpt><trkpt lat="43.050925" lon="13.4428766"><ele>378.0</ele><time>2026-04-12T08:07:09.979Z</time></trkpt><trkpt lat="43.0507736" lon="13.4428465"><ele>378.0</ele><time>2026-04-12T08:07:10.979Z</time></trkpt><trkpt lat="43.0506233" lon="13.4428121"><ele>378.0</ele><time>2026-04-12T08:07:11.99Z</time></trkpt><trkpt lat="43.0504779" lon="13.4427758"><ele>378.0</ele><time>2026-04-12T08:07:12.988Z</time></trkpt><trkpt lat="43.0503377" lon="13.4427237"><ele>378.0</ele><time>2026-04-12T08:07:13.998Z</time></trkpt><trkpt lat="43.0502135" lon="13.4426673"><ele>378.0</ele><time>2026-04-12T08:07:14.995Z</time></trkpt><trkpt lat="43.0501071" lon="13.4426077"><ele>378.0</ele><time>2026-04-12T08:07:16.028Z</time></trkpt><trkpt lat="43.0500418" lon="13.4425415"><ele>378.0</ele><time>2026-04-12T08:07:17.026Z</time></trkpt><trkpt lat="43.0499931" lon="13.442463"><ele>378.0</ele><time>2026-04-12T08:07:18.061Z</time></trkpt><trkpt lat="43.0499578" lon="13.4423562"><ele>378.0</ele><time>2026-04-12T08:07:19Z</time></trkpt><trkpt lat="43.0499478" lon="13.4422219"><ele>378.75</ele><time>2026-04-12T08:07:20.031Z</time></trkpt><trkpt lat="43.0499574" lon="13.4420753"><ele>379.5</ele><time>2026-04-12T08:07:21.005Z</time></trkpt><trkpt lat="43.0499748" lon="13.4419303"><ele>380.25</ele><time>2026-04-12T08:07:22.044Z</time></trkpt><trkpt lat="43.049994" lon="13.4417671"><ele>381.0</ele><time>2026-04-12T08:07:23.064Z</time></trkpt><trkpt lat="43.0500089" lon="13.4416015"><ele>381.0</ele><time>2026-04-12T08:07:24.031Z</time></trkpt><trkpt lat="43.0500295" lon="13.4414346"><ele>381.0</ele><time>2026-04-12T08:07:25.043Z</time></trkpt><trkpt lat="43.0500623" lon="13.4412802"><ele>381.0</ele><time>2026-04-12T08:07:26.047Z</time></trkpt><trkpt lat="43.0501018" lon="13.4411535"><ele>381.0</ele><time>2026-04-12T08:07:27.039Z</time></trkpt><trkpt lat="43.0501512" lon="13.4410513"><ele>381.0</ele><time>2026-04-12T08:07:28.028Z</time></trkpt><trkpt lat="43.0502283" lon="13.4409617"><ele>381.75</ele><time>2026-04-12T08:07:29.04Z</time></trkpt><trkpt lat="43.0503083" lon="13.4408833"><ele>382.5</ele><time>2026-04-12T08:07:30.045Z</time></trkpt><trkpt lat="43.0504101" lon="13.4408084"><ele>383.25</ele><time>2026-04-12T08:07:31.052Z</time></trkpt><trkpt lat="43.050525" lon="13.4407313"><ele>384.0</ele><time>2026-04-12T08:07:32.055Z</time></trkpt><trkpt lat="43.0506414" lon="13.4406403"><ele>384.0</ele><time>2026-04-12T08:07:33.05Z</time></trkpt><trkpt lat="43.0507453" lon="13.4405371"><ele>384.0</ele><time>2026-04-12T08:07:34.037Z</time></trkpt><trkpt lat="43.0508347" lon="13.440425"><ele>384.0</ele><time>2026-04-12T08:07:35.048Z</time></trkpt><trkpt lat="43.0509035" lon="13.4402765"><ele>384.0</ele><time>2026-04-12T08:07:36.047Z</time></trkpt><trkpt lat="43.0509531" lon="13.4401182"><ele>385.75</ele><time>2026-04-12T08:07:37.04Z</time></trkpt><trkpt lat="43.0509807" lon="13.4399468"><ele>387.5</ele><time>2026-04-12T08:07:38.053Z</time></trkpt><trkpt lat="43.0509905" lon="13.4397682"><ele>389.25</ele><time>2026-04-12T08:07:39.033Z</time></trkpt><trkpt lat="43.0509804" lon="13.43959"><ele>391.0</ele><time>2026-04-12T08:07:40.052Z</time></trkpt><trkpt lat="43.0509718" lon="13.4394209"><ele>391.0</ele><time>2026-04-12T08:07:41Z</time></trkpt><trkpt lat="43.0509736" lon="13.4392759"><ele>391.0</ele><time>2026-04-12T08:07:42.003Z</time></trkpt><trkpt lat="43.0510021" lon="13.4391459"><ele>391.0</ele><time>2026-04-12T08:07:43.047Z</time></trkpt><trkpt lat="43.0510535" lon="13.4390402"><ele>391.0</ele><time>2026-04-12T08:07:44.028Z</time></trkpt><trkpt lat="43.051134" lon="13.4389722"><ele>391.0</ele><time>2026-04-12T08:07:45.051Z</time></trkpt><trkpt lat="43.051235" lon="13.4389354"><ele>391.00000000000006</ele><time>2026-04-12T08:07:46.03Z</time></trkpt><trkpt lat="43.0513294" lon="13.4389089"><ele>391.0</ele><time>2026-04-12T08:07:47.039Z</time></trkpt><trkpt lat="43.0514175" lon="13.4388811"><ele>391.0</ele><time>2026-04-12T08:07:48.051Z</time></trkpt><trkpt lat="43.0514968" lon="13.4388572"><ele>391.0</ele><time>2026-04-12T08:07:49.05Z</time></trkpt><trkpt lat="43.0515751" lon="13.4388359"><ele>391.00000000000006</ele><time>2026-04-12T08:07:50.042Z</time></trkpt><trkpt lat="43.0516404" lon="13.4387928"><ele>391.0</ele><time>2026-04-12T08:07:51.044Z</time></trkpt><trkpt lat="43.0517061" lon="13.4387441"><ele>392.20000000000005</ele><time>2026-04-12T08:07:52.047Z</time></trkpt><trkpt lat="43.0517811" lon="13.4386788"><ele>393.40000000000003</ele><time>2026-04-12T08:07:53.041Z</time></trkpt><trkpt lat="43.0518599" lon="13.4385983"><ele>394.6</ele><time>2026-04-12T08:07:54.039Z</time></trkpt><trkpt lat="43.0519367" lon="13.4385081"><ele>395.8</ele><time>2026-04-12T08:07:55.063Z</time></trkpt><trkpt lat="43.0519947" lon="13.4384062"><ele>397.0</ele><time>2026-04-12T08:07:56.038Z</time></trkpt><trkpt lat="43.0520259" lon="13.4382917"><ele>397.0</ele><time>2026-04-12T08:07:57.048Z</time></trkpt><trkpt lat="43.0520401" lon="13.4381734"><ele>397.0</ele><time>2026-04-12T08:07:58.026Z</time></trkpt><trkpt lat="43.0520452" lon="13.4380526"><ele>397.0</ele><time>2026-04-12T08:07:59.01Z</time></trkpt><trkpt lat="43.0520397" lon="13.4379367"><ele>397.0</ele><time>2026-04-12T08:08:00.049Z</time></trkpt><trkpt lat="43.0520231" lon="13.4378203"><ele>397.0</ele><time>2026-04-12T08:08:01.056Z</time></trkpt><trkpt lat="43.0519707" lon="13.4376885"><ele>397.0</ele><time>2026-04-12T08:08:02.061Z</time></trkpt><trkpt lat="43.0519076" lon="13.4375594"><ele>397.0</ele><time>2026-04-12T08:08:03.044Z</time></trkpt><trkpt lat="43.0518564" lon="13.4374425"><ele>397.0</ele><time>2026-04-12T08:08:04.042Z</time></trkpt><trkpt lat="43.0518078" lon="13.4373149"><ele>397.0</ele><time>2026-04-12T08:08:05.044Z</time></trkpt><trkpt lat="43.0517811" lon="13.4371804"><ele>397.0</ele><time>2026-04-12T08:08:06.057Z</time></trkpt><trkpt lat="43.051757" lon="13.4370421"><ele>397.0</ele><time>2026-04-12T08:08:07.053Z</time></trkpt><trkpt lat="43.0517408" lon="13.4368996"><ele>397.0</ele><time>2026-04-12T08:08:08.051Z</time></trkpt><trkpt lat="43.0517141" lon="13.4367811"><ele>397.0</ele><time>2026-04-12T08:08:09.051Z</time></trkpt><trkpt lat="43.0516734" lon="13.4366658"><ele>397.0</ele><time>2026-04-12T08:08:10.044Z</time></trkpt><trkpt lat="43.0516257" lon="13.4365411"><ele>397.0</ele><time>2026-04-12T08:08:11.045Z</time></trkpt><trkpt lat="43.0515599" lon="13.4364129"><ele>397.00000000000006</ele><time>2026-04-12T08:08:12.064Z</time></trkpt><trkpt lat="43.0514939" lon="13.4363135"><ele>397.0</ele><time>2026-04-12T08:08:13.028Z</time></trkpt><trkpt lat="43.051425" lon="13.4362215"><ele>397.0</ele><time>2026-04-12T08:08:14.029Z</time></trkpt><trkpt lat="43.0513631" lon="13.4361511"><ele>397.0</ele><time>2026-04-12T08:08:15.031Z</time></trkpt><trkpt lat="43.0512914" lon="13.43614"><ele>397.00000000000006</ele><time>2026-04-12T08:08:16.003Z</time></trkpt><trkpt lat="43.0512199" lon="13.4361564"><ele>397.0</ele><time>2026-04-12T08:08:17.041Z</time></trkpt><trkpt lat="43.0511461" lon="13.4361796"><ele>397.00000000000006</ele><time>2026-04-12T08:08:18.035Z</time></trkpt><trkpt lat="43.0510716" lon="13.4362077"><ele>397.0</ele><time>2026-04-12T08:08:19.045Z</time></trkpt><trkpt lat="43.0509879" lon="13.4362357"><ele>397.0</ele><time>2026-04-12T08:08:20.037Z</time></trkpt><trkpt lat="43.0509155" lon="13.4362227"><ele>397.0</ele><time>2026-04-12T08:08:20.999Z</time></trkpt><trkpt lat="43.0508236" lon="13.4361825"><ele>397.00000000000006</ele><time>2026-04-12T08:08:22.045Z</time></trkpt><trkpt lat="43.0507221" lon="13.4361242"><ele>397.0</ele><time>2026-04-12T08:08:23.03Z</time></trkpt><trkpt lat="43.0506132" lon="13.4360493"><ele>394.5</ele><time>2026-04-12T08:08:24.045Z</time></trkpt><trkpt lat="43.0505028" lon="13.4359573"><ele>392.0</ele><time>2026-04-12T08:08:25.046Z</time></trkpt><trkpt lat="43.0503947" lon="13.4358755"><ele>389.5</ele><time>2026-04-12T08:08:26.048Z</time></trkpt><trkpt lat="43.0503059" lon="13.4358056"><ele>387.0</ele><time>2026-04-12T08:08:27.04Z</time></trkpt><trkpt lat="43.050224" lon="13.4357273"><ele>387.0</ele><time>2026-04-12T08:08:28.041Z</time></trkpt><trkpt lat="43.0501571" lon="13.4356362"><ele>387.0</ele><time>2026-04-12T08:08:29.063Z</time></trkpt><trkpt lat="43.0500796" lon="13.4355709"><ele>387.0</ele><time>2026-04-12T08:08:30.039Z</time></trkpt><trkpt lat="43.0500027" lon="13.4355165"><ele>387.0</ele><time>2026-04-12T08:08:31.043Z</time></trkpt><trkpt lat="43.0499434" lon="13.4354653"><ele>387.0</ele><time>2026-04-12T08:08:32.068Z</time></trkpt><trkpt lat="43.0499133" lon="13.4353883"><ele>387.0</ele><time>2026-04-12T08:08:33.05Z</time></trkpt><trkpt lat="43.0498903" lon="13.4352799"><ele>385.6</ele><time>2026-04-12T08:08:34.038Z</time></trkpt><trkpt lat="43.0498619" lon="13.4351459"><ele>384.20000000000005</ele><time>2026-04-12T08:08:35.033Z</time></trkpt><trkpt lat="43.0498229" lon="13.4350114"><ele>382.8</ele><time>2026-04-12T08:08:36.057Z</time></trkpt><trkpt lat="43.0497786" lon="13.4348659"><ele>381.4</ele><time>2026-04-12T08:08:37.043Z</time></trkpt><trkpt lat="43.0497391" lon="13.4347203"><ele>380.0</ele><time>2026-04-12T08:08:38.034Z</time></trkpt><trkpt lat="43.0496965" lon="13.4345701"><ele>382.8</ele><time>2026-04-12T08:08:39.018Z</time></trkpt><trkpt lat="43.049653" lon="13.4344064"><ele>385.6</ele><time>2026-04-12T08:08:40.055Z</time></trkpt><trkpt lat="43.0496151" lon="13.4342593"><ele>388.4</ele><time>2026-04-12T08:08:40.984Z</time></trkpt><trkpt lat="43.0495827" lon="13.4341294"><ele>391.2</ele><time>2026-04-12T08:08:42.056Z</time></trkpt><trkpt lat="43.0495587" lon="13.4340248"><ele>394.0</ele><time>2026-04-12T08:08:43.06Z</time></trkpt><trkpt lat="43.0495328" lon="13.433929"><ele>394.0</ele><time>2026-04-12T08:08:44.004Z</time></trkpt><trkpt lat="43.049486" lon="13.4337997"><ele>394.0</ele><time>2026-04-12T08:08:46.069Z</time></trkpt><trkpt lat="43.0494047" lon="13.4337597"><ele>394.0</ele><time>2026-04-12T08:08:48.046Z</time></trkpt><trkpt lat="43.049287" lon="13.4337641"><ele>394.0</ele><time>2026-04-12T08:08:50.063Z</time></trkpt><trkpt lat="43.0492128" lon="13.4337806"><ele>394.0</ele><time>2026-04-12T08:08:51.024Z</time></trkpt><trkpt lat="43.0491361" lon="13.4337978"><ele>390.6666666666667</ele><time>2026-04-12T08:08:52.021Z</time></trkpt><trkpt lat="43.0490625" lon="13.4338179"><ele>387.33333333333337</ele><time>2026-04-12T08:08:53.057Z</time></trkpt><trkpt lat="43.0489881" lon="13.4338389"><ele>384.0</ele><time>2026-04-12T08:08:54.057Z</time></trkpt><trkpt lat="43.0489047" lon="13.4338581"><ele>380.6666666666667</ele><time>2026-04-12T08:08:55.08Z</time></trkpt><trkpt lat="43.0488263" lon="13.4338793"><ele>377.33333333333337</ele><time>2026-04-12T08:08:56.069Z</time></trkpt><trkpt lat="43.0487426" lon="13.4338993"><ele>374.0</ele><time>2026-04-12T08:08:57.049Z</time></trkpt><trkpt lat="43.0486464" lon="13.433906"><ele>374.0</ele><time>2026-04-12T08:08:58.054Z</time></trkpt><trkpt lat="43.0485544" lon="13.4339156"><ele>374.0</ele><time>2026-04-12T08:08:59.042Z</time></trkpt><trkpt lat="43.0484604" lon="13.433927"><ele>374.0</ele><time>2026-04-12T08:09:00.061Z</time></trkpt><trkpt lat="43.0483839" lon="13.4339366"><ele>374.0</ele><time>2026-04-12T08:09:01.057Z</time></trkpt><trkpt lat="43.0483036" lon="13.4339542"><ele>374.0</ele><time>2026-04-12T08:09:02.055Z</time></trkpt><trkpt lat="43.0482294" lon="13.4339599"><ele>374.0</ele><time>2026-04-12T08:09:03.052Z</time></trkpt><trkpt lat="43.0481545" lon="13.4339749"><ele>369.6</ele><time>2026-04-12T08:09:04.05Z</time></trkpt><trkpt lat="43.0480903" lon="13.4339669"><ele>365.2</ele><time>2026-04-12T08:09:05.048Z</time></trkpt><trkpt lat="43.0479975" lon="13.4338873"><ele>360.8</ele><time>2026-04-12T08:09:07.053Z</time></trkpt><trkpt lat="43.0479193" lon="13.4337708"><ele>356.40000000000003</ele><time>2026-04-12T08:09:09.058Z</time></trkpt><trkpt lat="43.0478263" lon="13.4336574"><ele>352.0</ele><time>2026-04-12T08:09:11.039Z</time></trkpt><trkpt lat="43.0477682" lon="13.4336229"><ele>352.0</ele><time>2026-04-12T08:09:12.065Z</time></trkpt><trkpt lat="43.0476888" lon="13.4336073"><ele>352.0</ele><time>2026-04-12T08:09:14.062Z</time></trkpt><trkpt lat="43.0476196" lon="13.4336704"><ele>352.0</ele><time>2026-04-12T08:09:15.999Z</time></trkpt><trkpt lat="43.0475689" lon="13.4337264"><ele>352.0</ele><time>2026-04-12T08:09:17.051Z</time></trkpt><trkpt lat="43.04751" lon="13.4337776"><ele>352.0</ele><time>2026-04-12T08:09:18.055Z</time></trkpt><trkpt lat="43.0474089" lon="13.4338782"><ele>352.0</ele><time>2026-04-12T08:09:20.045Z</time></trkpt><trkpt lat="43.0473498" lon="13.4339237"><ele>347.0</ele><time>2026-04-12T08:09:21.024Z</time></trkpt><trkpt lat="43.0472249" lon="13.4339425"><ele>342.0</ele><time>2026-04-12T08:09:23.052Z</time></trkpt><trkpt lat="43.0471606" lon="13.4339364"><ele>337.0</ele><time>2026-04-12T08:09:24.04Z</time></trkpt><trkpt lat="43.0470556" lon="13.4338349"><ele>332.0</ele><time>2026-04-12T08:09:26.028Z</time></trkpt><trkpt lat="43.0469896" lon="13.4337784"><ele>327.0</ele><time>2026-04-12T08:09:27.041Z</time></trkpt><trkpt lat="43.0469238" lon="13.4337314"><ele>327.0</ele><time>2026-04-12T08:09:28.051Z</time></trkpt><trkpt lat="43.0468445" lon="13.4337052"><ele>327.0</ele><time>2026-04-12T08:09:29.029Z</time></trkpt><trkpt lat="43.0467726" lon="13.4336902"><ele>327.0</ele><time>2026-04-12T08:09:30.055Z</time></trkpt><trkpt lat="43.0467005" lon="13.4336704"><ele>327.0</ele><time>2026-04-12T08:09:31.065Z</time></trkpt><trkpt lat="43.0466317" lon="13.4336495"><ele>327.0</ele><time>2026-04-12T08:09:32.041Z</time></trkpt><trkpt lat="43.046551" lon="13.4336299"><ele>327.0</ele><time>2026-04-12T08:09:33.048Z</time></trkpt><trkpt lat="43.0464683" lon="13.4336107"><ele>324.1666666666667</ele><time>2026-04-12T08:09:34.036Z</time></trkpt><trkpt lat="43.0463844" lon="13.4335832"><ele>321.3333333333333</ele><time>2026-04-12T08:09:35.032Z</time></trkpt><trkpt lat="43.0463079" lon="13.4335626"><ele>318.5</ele><time>2026-04-12T08:09:36.046Z</time></trkpt><trkpt lat="43.0462384" lon="13.4335461"><ele>315.66666666666663</ele><time>2026-04-12T08:09:37.034Z</time></trkpt><trkpt lat="43.0461238" lon="13.4335643"><ele>312.8333333333333</ele><time>2026-04-12T08:09:39.056Z</time></trkpt><trkpt lat="43.0460731" lon="13.4336176"><ele>310.0</ele><time>2026-04-12T08:09:40.038Z</time></trkpt><trkpt lat="43.0460308" lon="13.4336871"><ele>310.0</ele><time>2026-04-12T08:09:41.024Z</time></trkpt><trkpt lat="43.0459804" lon="13.4337596"><ele>310.0</ele><time>2026-04-12T08:09:42.03Z</time></trkpt><trkpt lat="43.0459231" lon="13.4338113"><ele>310.0</ele><time>2026-04-12T08:09:43.052Z</time></trkpt><trkpt lat="43.0458659" lon="13.433861"><ele>310.0</ele><time>2026-04-12T08:09:44.065Z</time></trkpt><trkpt lat="43.045813" lon="13.433919"><ele>310.0</ele><time>2026-04-12T08:09:45.053Z</time></trkpt><trkpt lat="43.0457594" lon="13.4339745"><ele>310.0</ele><time>2026-04-12T08:09:46.061Z</time></trkpt><trkpt lat="43.0456647" lon="13.4340899"><ele>306.66666666666663</ele><time>2026-04-12T08:09:48.055Z</time></trkpt><trkpt lat="43.0456135" lon="13.4341585"><ele>303.3333333333333</ele><time>2026-04-12T08:09:49.04Z</time></trkpt><trkpt lat="43.0455599" lon="13.4342136"><ele>300.0</ele><time>2026-04-12T08:09:50.057Z</time></trkpt><trkpt lat="43.0454967" lon="13.4342749"><ele>296.6666666666667</ele><time>2026-04-12T08:09:51.048Z</time></trkpt><trkpt lat="43.0454311" lon="13.4343267"><ele>293.33333333333337</ele><time>2026-04-12T08:09:52.064Z</time></trkpt><trkpt lat="43.0453636" lon="13.4343848"><ele>290.0</ele><time>2026-04-12T08:09:53.055Z</time></trkpt><trkpt lat="43.0452927" lon="13.4344424"><ele>290.0</ele><time>2026-04-12T08:09:54.067Z</time></trkpt><trkpt lat="43.0452238" lon="13.4345001"><ele>290.0</ele><time>2026-04-12T08:09:55.052Z</time></trkpt><trkpt lat="43.0451544" lon="13.4345487"><ele>290.0</ele><time>2026-04-12T08:09:56.055Z</time></trkpt><trkpt lat="43.0450871" lon="13.4345885"><ele>290.0</ele><time>2026-04-12T08:09:57.07Z</time></trkpt><trkpt lat="43.0449916" lon="13.434638"><ele>290.0</ele><time>2026-04-12T08:09:59.074Z</time></trkpt><trkpt lat="43.0449411" lon="13.4345696"><ele>290.0</ele><time>2026-04-12T08:10:02.057Z</time></trkpt><trkpt lat="43.0449526" lon="13.4344629"><ele>284.75</ele><time>2026-04-12T08:10:04.036Z</time></trkpt><trkpt lat="43.0449308" lon="13.4343132"><ele>279.5</ele><time>2026-04-12T08:10:06.047Z</time></trkpt><trkpt lat="43.0449064" lon="13.4341557"><ele>274.25</ele><time>2026-04-12T08:10:08.031Z</time></trkpt><trkpt lat="43.0448761" lon="13.4339594"><ele>269.0</ele><time>2026-04-12T08:10:10.036Z</time></trkpt><trkpt lat="43.0448458" lon="13.4338503"><ele>269.0</ele><time>2026-04-12T08:10:11.026Z</time></trkpt><trkpt lat="43.0448236" lon="13.4337633"><ele>269.0</ele><time>2026-04-12T08:10:12.044Z</time></trkpt><trkpt lat="43.0447884" lon="13.4336828"><ele>269.0</ele><time>2026-04-12T08:10:13.041Z</time></trkpt><trkpt lat="43.0447633" lon="13.4336009"><ele>269.0</ele><time>2026-04-12T08:10:14.056Z</time></trkpt><trkpt lat="43.0446822" lon="13.4334951"><ele>269.0</ele><time>2026-04-12T08:10:16.034Z</time></trkpt><trkpt lat="43.0446041" lon="13.4334986"><ele>269.0</ele><time>2026-04-12T08:10:17.037Z</time></trkpt><trkpt lat="43.0445282" lon="13.433497"><ele>269.0</ele><time>2026-04-12T08:10:18.028Z</time></trkpt><trkpt lat="43.0444468" lon="13.4335"><ele>269.0</ele><time>2026-04-12T08:10:19.033Z</time></trkpt><trkpt lat="43.0443783" lon="13.4334945"><ele>269.0</ele><time>2026-04-12T08:10:20.051Z</time></trkpt><trkpt lat="43.0443093" lon="13.4334901"><ele>269.0</ele><time>2026-04-12T08:10:21.019Z</time></trkpt><trkpt lat="43.0441971" lon="13.4334871"><ele>269.0</ele><time>2026-04-12T08:10:23.042Z</time></trkpt><trkpt lat="43.0441355" lon="13.4335162"><ele>269.0</ele><time>2026-04-12T08:10:24.026Z</time></trkpt><trkpt lat="43.0440753" lon="13.4335459"><ele>267.33333333333337</ele><time>2026-04-12T08:10:25.052Z</time></trkpt><trkpt lat="43.0440088" lon="13.4335752"><ele>265.6666666666667</ele><time>2026-04-12T08:10:26.05Z</time></trkpt><trkpt lat="43.0439397" lon="13.433607"><ele>264.0</ele><time>2026-04-12T08:10:27.029Z</time></trkpt><trkpt lat="43.0438446" lon="13.4336286"><ele>262.3333333333333</ele><time>2026-04-12T08:10:29.022Z</time></trkpt><trkpt lat="43.0437886" lon="13.4335866"><ele>260.66666666666663</ele><time>2026-04-12T08:10:30.033Z</time></trkpt><trkpt lat="43.0437159" lon="13.4334709"><ele>259.0</ele><time>2026-04-12T08:10:32.029Z</time></trkpt><trkpt lat="43.0436538" lon="13.4333614"><ele>259.0</ele><time>2026-04-12T08:10:34.05Z</time></trkpt><trkpt lat="43.043616" lon="13.4332414"><ele>259.0</ele><time>2026-04-12T08:10:36.049Z</time></trkpt><trkpt lat="43.0436258" lon="13.4331243"><ele>259.0</ele><time>2026-04-12T08:10:38.039Z</time></trkpt><trkpt lat="43.0436537" lon="13.4330238"><ele>259.0</ele><time>2026-04-12T08:10:40.054Z</time></trkpt><trkpt lat="43.0436876" lon="13.4329268"><ele>259.0</ele><time>2026-04-12T08:10:42.051Z</time></trkpt><trkpt lat="43.0437892" lon="13.4328433"><ele>258.8</ele><time>2026-04-12T08:10:44.042Z</time></trkpt><trkpt lat="43.0438697" lon="13.4327905"><ele>258.59999999999997</ele><time>2026-04-12T08:10:45.048Z</time></trkpt><trkpt lat="43.0439749" lon="13.4327431"><ele>258.4</ele><time>2026-04-12T08:10:46.04Z</time></trkpt><trkpt lat="43.0440867" lon="13.4326962"><ele>258.2</ele><time>2026-04-12T08:10:47.041Z</time></trkpt><trkpt lat="43.0441936" lon="13.432647"><ele>258.0</ele><time>2026-04-12T08:10:48.043Z</time></trkpt><trkpt lat="43.0442864" lon="13.432596"><ele>261.4</ele><time>2026-04-12T08:10:49.035Z</time></trkpt><trkpt lat="43.0443512" lon="13.4325464"><ele>264.8</ele><time>2026-04-12T08:10:50.041Z</time></trkpt><trkpt lat="43.0444226" lon="13.4324214"><ele>268.2</ele><time>2026-04-12T08:10:52.038Z</time></trkpt><trkpt lat="43.0444313" lon="13.4322557"><ele>271.6</ele><time>2026-04-12T08:10:53.978Z</time></trkpt><trkpt lat="43.0444114" lon="13.4321531"><ele>275.0</ele><time>2026-04-12T08:10:55.037Z</time></trkpt><trkpt lat="43.0443969" lon="13.4320406"><ele>277.6666666666667</ele><time>2026-04-12T08:10:56.051Z</time></trkpt><trkpt lat="43.0443783" lon="13.4319442"><ele>280.33333333333337</ele><time>2026-04-12T08:10:57.047Z</time></trkpt><trkpt lat="43.0443404" lon="13.4318221"><ele>283.0</ele><time>2026-04-12T08:10:58.045Z</time></trkpt><trkpt lat="43.044305" lon="13.4317014"><ele>285.6666666666667</ele><time>2026-04-12T08:10:59.052Z</time></trkpt><trkpt lat="43.0443091" lon="13.4316021"><ele>288.3333333333333</ele><time>2026-04-12T08:11:00.044Z</time></trkpt><trkpt lat="43.04435" lon="13.431461"><ele>291.0</ele><time>2026-04-12T08:11:02.036Z</time></trkpt><trkpt lat="43.044381" lon="13.4313676"><ele>293.2</ele><time>2026-04-12T08:11:03.057Z</time></trkpt><trkpt lat="43.0444322" lon="13.4312947"><ele>295.40000000000003</ele><time>2026-04-12T08:11:04.045Z</time></trkpt><trkpt lat="43.04452" lon="13.4311973"><ele>297.6</ele><time>2026-04-12T08:11:06.066Z</time></trkpt><trkpt lat="43.0445434" lon="13.4311135"><ele>299.8</ele><time>2026-04-12T08:11:07.067Z</time></trkpt><trkpt lat="43.0445618" lon="13.4309482"><ele>302.0</ele><time>2026-04-12T08:11:09.04Z</time></trkpt><trkpt lat="43.0445376" lon="13.430809"><ele>302.0</ele><time>2026-04-12T08:11:10.052Z</time></trkpt><trkpt lat="43.0445522" lon="13.4306447"><ele>302.0</ele><time>2026-04-12T08:11:12.049Z</time></trkpt><trkpt lat="43.0445973" lon="13.4305518"><ele>302.0</ele><time>2026-04-12T08:11:13.062Z</time></trkpt><trkpt lat="43.0446761" lon="13.4304555"><ele>302.0</ele><time>2026-04-12T08:11:14.048Z</time></trkpt><trkpt lat="43.0447821" lon="13.4303525"><ele>302.0</ele><time>2026-04-12T08:11:15.045Z</time></trkpt><trkpt lat="43.0449012" lon="13.4302447"><ele>306.0</ele><time>2026-04-12T08:11:16.07Z</time></trkpt><trkpt lat="43.0450115" lon="13.4301458"><ele>310.0</ele><time>2026-04-12T08:11:17.044Z</time></trkpt><trkpt lat="43.0451141" lon="13.4300598"><ele>314.0</ele><time>2026-04-12T08:11:18.045Z</time></trkpt><trkpt lat="43.0451914" lon="13.429946"><ele>318.0</ele><time>2026-04-12T08:11:19.045Z</time></trkpt><trkpt lat="43.0452695" lon="13.4298148"><ele>318.0</ele><time>2026-04-12T08:11:20.04Z</time></trkpt><trkpt lat="43.045342" lon="13.4296748"><ele>318.0</ele><time>2026-04-12T08:11:21.048Z</time></trkpt><trkpt lat="43.0454164" lon="13.4295327"><ele>318.0</ele><time>2026-04-12T08:11:22.018Z</time></trkpt><trkpt lat="43.0454939" lon="13.4293898"><ele>318.0</ele><time>2026-04-12T08:11:23.061Z</time></trkpt><trkpt lat="43.0455743" lon="13.4292608"><ele>319.6</ele><time>2026-04-12T08:11:24.052Z</time></trkpt><trkpt lat="43.0456569" lon="13.4291526"><ele>321.20000000000005</ele><time>2026-04-12T08:11:25.041Z</time></trkpt><trkpt lat="43.0457218" lon="13.4290629"><ele>322.8</ele><time>2026-04-12T08:11:26.049Z</time></trkpt><trkpt lat="43.0457697" lon="13.4289966"><ele>324.40000000000003</ele><time>2026-04-12T08:11:27.05Z</time></trkpt><trkpt lat="43.0457946" lon="13.4288879"><ele>326.0</ele><time>2026-04-12T08:11:29.029Z</time></trkpt><trkpt lat="43.0457956" lon="13.4287616"><ele>326.8</ele><time>2026-04-12T08:11:31.058Z</time></trkpt><trkpt lat="43.0457685" lon="13.428612"><ele>327.6</ele><time>2026-04-12T08:11:33.049Z</time></trkpt><trkpt lat="43.0456968" lon="13.4284698"><ele>328.4</ele><time>2026-04-12T08:11:35.04Z</time></trkpt><trkpt lat="43.0456413" lon="13.4284099"><ele>329.2</ele><time>2026-04-12T08:11:36.048Z</time></trkpt><trkpt lat="43.0455843" lon="13.428352"><ele>330.0</ele><time>2026-04-12T08:11:37.044Z</time></trkpt><trkpt lat="43.0454656" lon="13.4283045"><ele>330.0</ele><time>2026-04-12T08:11:39.041Z</time></trkpt><trkpt lat="43.0453946" lon="13.4283151"><ele>330.0</ele><time>2026-04-12T08:11:40.045Z</time></trkpt><trkpt lat="43.0453217" lon="13.4283186"><ele>330.0</ele><time>2026-04-12T08:11:41.043Z</time></trkpt><trkpt lat="43.045207" lon="13.4283583"><ele>330.0</ele><time>2026-04-12T08:11:43.041Z</time></trkpt><trkpt lat="43.045113" lon="13.4283773"><ele>330.0</ele><time>2026-04-12T08:11:45.041Z</time></trkpt><trkpt lat="43.0450469" lon="13.4283022"><ele>330.0</ele><time>2026-04-12T08:11:48.044Z</time></trkpt><trkpt lat="43.0450339" lon="13.4282055"><ele>326.2</ele><time>2026-04-12T08:11:50.038Z</time></trkpt><trkpt lat="43.0449474" lon="13.42811"><ele>322.4</ele><time>2026-04-12T08:11:52.031Z</time></trkpt><trkpt lat="43.0448822" lon="13.4281002"><ele>318.6</ele><time>2026-04-12T08:11:53.043Z</time></trkpt><trkpt lat="43.0447494" lon="13.4280963"><ele>314.8</ele><time>2026-04-12T08:11:55.067Z</time></trkpt><trkpt lat="43.0446758" lon="13.4280976"><ele>311.0</ele><time>2026-04-12T08:11:56.057Z</time></trkpt><trkpt lat="43.0445991" lon="13.4280934"><ele>311.0</ele><time>2026-04-12T08:11:57.054Z</time></trkpt><trkpt lat="43.0445246" lon="13.4280868"><ele>311.0</ele><time>2026-04-12T08:11:58.04Z</time></trkpt><trkpt lat="43.0444534" lon="13.428081"><ele>311.0</ele><time>2026-04-12T08:11:59.052Z</time></trkpt><trkpt lat="43.0443895" lon="13.4280747"><ele>311.0</ele><time>2026-04-12T08:12:00.068Z</time></trkpt><trkpt lat="43.0443285" lon="13.428052"><ele>311.0</ele><time>2026-04-12T08:12:01.072Z</time></trkpt><trkpt lat="43.0442763" lon="13.4280036"><ele>311.0</ele><time>2026-04-12T08:12:02.05Z</time></trkpt><trkpt lat="43.0442186" lon="13.4279509"><ele>311.0</ele><time>2026-04-12T08:12:03.042Z</time></trkpt><trkpt lat="43.0441645" lon="13.4279023"><ele>307.83333333333337</ele><time>2026-04-12T08:12:04.037Z</time></trkpt><trkpt lat="43.0440742" lon="13.4278227"><ele>304.6666666666667</ele><time>2026-04-12T08:12:06.06Z</time></trkpt><trkpt lat="43.0440067" lon="13.4277541"><ele>301.5</ele><time>2026-04-12T08:12:08.024Z</time></trkpt><trkpt lat="43.0439728" lon="13.4276714"><ele>298.3333333333333</ele><time>2026-04-12T08:12:11.046Z</time></trkpt><trkpt lat="43.0439898" lon="13.4275708"><ele>295.16666666666663</ele><time>2026-04-12T08:12:18.03Z</time></trkpt><trkpt lat="43.0439688" lon="13.4274408"><ele>292.0</ele><time>2026-04-12T08:12:20.051Z</time></trkpt><trkpt lat="43.0439606" lon="13.4273423"><ele>292.0</ele><time>2026-04-12T08:12:22.038Z</time></trkpt><trkpt lat="43.0439674" lon="13.4272413"><ele>292.0</ele><time>2026-04-12T08:12:25.046Z</time></trkpt><trkpt lat="43.043921" lon="13.4271578"><ele>292.0</ele><time>2026-04-12T08:12:28.038Z</time></trkpt><trkpt lat="43.0438557" lon="13.4271089"><ele>292.0</ele><time>2026-04-12T08:12:30.032Z</time></trkpt><trkpt lat="43.0438011" lon="13.4270659"><ele>292.0</ele><time>2026-04-12T08:12:32.008Z</time></trkpt><trkpt lat="43.0437234" lon="13.4270098"><ele>292.0</ele><time>2026-04-12T08:12:36.041Z</time></trkpt><trkpt lat="43.0436904" lon="13.4269354"><ele>292.0</ele><time>2026-04-12T08:12:38.046Z</time></trkpt><trkpt lat="43.0436982" lon="13.4268293"><ele>293.3333333333333</ele><time>2026-04-12T08:12:39.027Z</time></trkpt><trkpt lat="43.0436978" lon="13.4267313"><ele>294.66666666666663</ele><time>2026-04-12T08:12:40.031Z</time></trkpt><trkpt lat="43.0436967" lon="13.4266202"><ele>296.0</ele><time>2026-04-12T08:12:41.031Z</time></trkpt><trkpt lat="43.0436922" lon="13.4265035"><ele>297.3333333333333</ele><time>2026-04-12T08:12:42.048Z</time></trkpt><trkpt lat="43.0436836" lon="13.4263773"><ele>298.6666666666667</ele><time>2026-04-12T08:12:43.048Z</time></trkpt><trkpt lat="43.0436705" lon="13.4262415"><ele>300.0</ele><time>2026-04-12T08:12:44.045Z</time></trkpt><trkpt lat="43.0436558" lon="13.4261108"><ele>302.1666666666667</ele><time>2026-04-12T08:12:45.042Z</time></trkpt><trkpt lat="43.0436357" lon="13.4259984"><ele>304.3333333333333</ele><time>2026-04-12T08:12:46.042Z</time></trkpt><trkpt lat="43.0436202" lon="13.425909"><ele>306.5</ele><time>2026-04-12T08:12:47.023Z</time></trkpt><trkpt lat="43.0436081" lon="13.4257555"><ele>308.66666666666663</ele><time>2026-04-12T08:12:49.05Z</time></trkpt><trkpt lat="43.0436461" lon="13.4256725"><ele>310.8333333333333</ele><time>2026-04-12T08:12:52.046Z</time></trkpt><trkpt lat="43.043735" lon="13.425637"><ele>313.0</ele><time>2026-04-12T08:12:54.038Z</time></trkpt><trkpt lat="43.0437944" lon="13.4255985"><ele>313.0</ele><time>2026-04-12T08:12:55.027Z</time></trkpt><trkpt lat="43.0438955" lon="13.4255016"><ele>313.0</ele><time>2026-04-12T08:12:57.04Z</time></trkpt><trkpt lat="43.0439888" lon="13.4254232"><ele>313.0</ele><time>2026-04-12T08:12:59.035Z</time></trkpt><trkpt lat="43.0440789" lon="13.4253307"><ele>313.0</ele><time>2026-04-12T08:13:01.012Z</time></trkpt><trkpt lat="43.0441888" lon="13.4252922"><ele>317.5</ele><time>2026-04-12T08:13:03.034Z</time></trkpt><trkpt lat="43.0442574" lon="13.4252765"><ele>322.0</ele><time>2026-04-12T08:13:04.043Z</time></trkpt><trkpt lat="43.0443279" lon="13.4252501"><ele>326.5</ele><time>2026-04-12T08:13:05.054Z</time></trkpt><trkpt lat="43.0443994" lon="13.4252174"><ele>331.0</ele><time>2026-04-12T08:13:06.015Z</time></trkpt><trkpt lat="43.0444613" lon="13.4251952"><ele>335.5</ele><time>2026-04-12T08:13:07.048Z</time></trkpt><trkpt lat="43.0445758" lon="13.4251577"><ele>340.0</ele><time>2026-04-12T08:13:09.05Z</time></trkpt><trkpt lat="43.0446866" lon="13.4251092"><ele>340.0</ele><time>2026-04-12T08:13:11.06Z</time></trkpt><trkpt lat="43.0447586" lon="13.4250771"><ele>340.0</ele><time>2026-04-12T08:13:12.066Z</time></trkpt><trkpt lat="43.0448661" lon="13.4249724"><ele>340.0</ele><time>2026-04-12T08:13:14.046Z</time></trkpt><trkpt lat="43.0449133" lon="13.4248982"><ele>340.0</ele><time>2026-04-12T08:13:15.043Z</time></trkpt><trkpt lat="43.0449542" lon="13.4247258"><ele>340.0</ele><time>2026-04-12T08:13:17.056Z</time></trkpt><trkpt lat="43.0449741" lon="13.4245671"><ele>344.6</ele><time>2026-04-12T08:13:19.053Z</time></trkpt><trkpt lat="43.0449896" lon="13.4244254"><ele>349.2</ele><time>2026-04-12T08:13:21.044Z</time></trkpt><trkpt lat="43.0450145" lon="13.4242365"><ele>353.79999999999995</ele><time>2026-04-12T08:13:23.04Z</time></trkpt><trkpt lat="43.0450336" lon="13.4241073"><ele>358.4</ele><time>2026-04-12T08:13:24.042Z</time></trkpt><trkpt lat="43.0450491" lon="13.4239841"><ele>363.0</ele><time>2026-04-12T08:13:25.044Z</time></trkpt><trkpt lat="43.0450546" lon="13.4238674"><ele>363.3333333333333</ele><time>2026-04-12T08:13:26.045Z</time></trkpt><trkpt lat="43.0450474" lon="13.4237386"><ele>363.6666666666667</ele><time>2026-04-12T08:13:27.055Z</time></trkpt><trkpt lat="43.0450506" lon="13.4236453"><ele>364.0</ele><time>2026-04-12T08:13:28.045Z</time></trkpt><trkpt lat="43.0450652" lon="13.4235612"><ele>364.33333333333337</ele><time>2026-04-12T08:13:29.08Z</time></trkpt><trkpt lat="43.0450685" lon="13.4234718"><ele>364.6666666666667</ele><time>2026-04-12T08:13:30.053Z</time></trkpt><trkpt lat="43.0450711" lon="13.423311"><ele>365.0</ele><time>2026-04-12T08:13:32.044Z</time></trkpt><trkpt lat="43.0450662" lon="13.4232133"><ele>365.0</ele><time>2026-04-12T08:13:33.025Z</time></trkpt><trkpt lat="43.045056" lon="13.4230522"><ele>365.0</ele><time>2026-04-12T08:13:35.039Z</time></trkpt><trkpt lat="43.0451094" lon="13.4229543"><ele>365.0</ele><time>2026-04-12T08:13:37.037Z</time></trkpt><trkpt lat="43.0452077" lon="13.4229277"><ele>365.0</ele><time>2026-04-12T08:13:39.039Z</time></trkpt><trkpt lat="43.0452719" lon="13.4228805"><ele>365.0</ele><time>2026-04-12T08:13:41.042Z</time></trkpt><trkpt lat="43.0451796" lon="13.422799"><ele>364.83333333333337</ele><time>2026-04-12T08:13:44.038Z</time></trkpt><trkpt lat="43.0451515" lon="13.4227179"><ele>364.6666666666667</ele><time>2026-04-12T08:13:45.027Z</time></trkpt><trkpt lat="43.0451171" lon="13.4226271"><ele>364.5</ele><time>2026-04-12T08:13:46.024Z</time></trkpt><trkpt lat="43.0450865" lon="13.4225245"><ele>364.3333333333333</ele><time>2026-04-12T08:13:47.039Z</time></trkpt><trkpt lat="43.0450518" lon="13.4224091"><ele>364.16666666666663</ele><time>2026-04-12T08:13:48.044Z</time></trkpt><trkpt lat="43.045013" lon="13.4223037"><ele>364.0</ele><time>2026-04-12T08:13:49.046Z</time></trkpt><trkpt lat="43.0449634" lon="13.4222113"><ele>361.3333333333333</ele><time>2026-04-12T08:13:50.051Z</time></trkpt><trkpt lat="43.0449008" lon="13.4221559"><ele>358.66666666666663</ele><time>2026-04-12T08:13:51.05Z</time></trkpt><trkpt lat="43.0448397" lon="13.4221262"><ele>356.0</ele><time>2026-04-12T08:13:52.041Z</time></trkpt><trkpt lat="43.0447495" lon="13.4221964"><ele>353.3333333333333</ele><time>2026-04-12T08:13:54.044Z</time></trkpt><trkpt lat="43.0447081" lon="13.422262"><ele>350.6666666666667</ele><time>2026-04-12T08:13:55.057Z</time></trkpt><trkpt lat="43.0446788" lon="13.4223958"><ele>348.0</ele><time>2026-04-12T08:13:57.032Z</time></trkpt><trkpt lat="43.0446302" lon="13.4225274"><ele>348.0</ele><time>2026-04-12T08:13:59.046Z</time></trkpt><trkpt lat="43.0445155" lon="13.4225481"><ele>348.0</ele><time>2026-04-12T08:14:01.052Z</time></trkpt><trkpt lat="43.0444581" lon="13.4223868"><ele>348.0</ele><time>2026-04-12T08:14:03.057Z</time></trkpt><trkpt lat="43.0444372" lon="13.422285"><ele>348.0</ele><time>2026-04-12T08:14:04.045Z</time></trkpt><trkpt lat="43.0444165" lon="13.4222005"><ele>348.0</ele><time>2026-04-12T08:14:05.036Z</time></trkpt><trkpt lat="43.0443359" lon="13.4221315"><ele>347.8333333333333</ele><time>2026-04-12T08:14:06.997Z</time></trkpt><trkpt lat="43.0442667" lon="13.4221568"><ele>347.6666666666667</ele><time>2026-04-12T08:14:08.045Z</time></trkpt><trkpt lat="43.044197" lon="13.4221938"><ele>347.5</ele><time>2026-04-12T08:14:09.023Z</time></trkpt><trkpt lat="43.0441225" lon="13.4222134"><ele>347.33333333333337</ele><time>2026-04-12T08:14:10.066Z</time></trkpt><trkpt lat="43.0440456" lon="13.4221957"><ele>347.1666666666667</ele><time>2026-04-12T08:14:11.038Z</time></trkpt><trkpt lat="43.0439652" lon="13.422135"><ele>347.0</ele><time>2026-04-12T08:14:12.052Z</time></trkpt><trkpt lat="43.0438915" lon="13.4220762"><ele>344.20000000000005</ele><time>2026-04-12T08:14:13.065Z</time></trkpt><trkpt lat="43.0438273" lon="13.422001"><ele>341.4</ele><time>2026-04-12T08:14:14.056Z</time></trkpt><trkpt lat="43.0437548" lon="13.4219336"><ele>338.6</ele><time>2026-04-12T08:14:15.061Z</time></trkpt><trkpt lat="43.0436762" lon="13.4218733"><ele>335.79999999999995</ele><time>2026-04-12T08:14:16.051Z</time></trkpt><trkpt lat="43.0435962" lon="13.4218157"><ele>333.0</ele><time>2026-04-12T08:14:16.983Z</time></trkpt><trkpt lat="43.0435054" lon="13.4217559"><ele>333.0</ele><time>2026-04-12T08:14:18.028Z</time></trkpt><trkpt lat="43.0434149" lon="13.4217003"><ele>333.0</ele><time>2026-04-12T08:14:19.043Z</time></trkpt><trkpt lat="43.0433398" lon="13.4216503"><ele>333.0</ele><time>2026-04-12T08:14:20.024Z</time></trkpt><trkpt lat="43.0432243" lon="13.4216228"><ele>333.0</ele><time>2026-04-12T08:14:22.081Z</time></trkpt><trkpt lat="43.0431611" lon="13.4217514"><ele>333.0</ele><time>2026-04-12T08:14:24.044Z</time></trkpt><trkpt lat="43.0431596" lon="13.4218517"><ele>330.79999999999995</ele><time>2026-04-12T08:14:25.043Z</time></trkpt><trkpt lat="43.0431642" lon="13.4219623"><ele>328.6</ele><time>2026-04-12T08:14:26.048Z</time></trkpt><trkpt lat="43.0431718" lon="13.422082"><ele>326.4</ele><time>2026-04-12T08:14:27.035Z</time></trkpt><trkpt lat="43.0431677" lon="13.4222153"><ele>324.20000000000005</ele><time>2026-04-12T08:14:28.062Z</time></trkpt><trkpt lat="43.0431626" lon="13.4223474"><ele>322.0</ele><time>2026-04-12T08:14:29.048Z</time></trkpt><trkpt lat="43.0431545" lon="13.4224823"><ele>321.40000000000003</ele><time>2026-04-12T08:14:30.053Z</time></trkpt><trkpt lat="43.0431297" lon="13.4225997"><ele>320.8</ele><time>2026-04-12T08:14:31.065Z</time></trkpt><trkpt lat="43.04309" lon="13.4227113"><ele>320.2</ele><time>2026-04-12T08:14:32.014Z</time></trkpt><trkpt lat="43.0430417" lon="13.4228007"><ele>319.6</ele><time>2026-04-12T08:14:33.061Z</time></trkpt><trkpt lat="43.0429277" lon="13.4228488"><ele>319.0</ele><time>2026-04-12T08:14:35.047Z</time></trkpt><trkpt lat="43.042865" lon="13.4228033"><ele>319.0</ele><time>2026-04-12T08:14:36.032Z</time></trkpt><trkpt lat="43.0428126" lon="13.4226523"><ele>319.0</ele><time>2026-04-12T08:14:38.046Z</time></trkpt><trkpt lat="43.042793" lon="13.4225549"><ele>319.0</ele><time>2026-04-12T08:14:39.048Z</time></trkpt><trkpt lat="43.0427643" lon="13.422455"><ele>319.0</ele><time>2026-04-12T08:14:40.05Z</time></trkpt><trkpt lat="43.0427199" lon="13.4223559"><ele>319.0</ele><time>2026-04-12T08:14:41.033Z</time></trkpt><trkpt lat="43.0426706" lon="13.4222705"><ele>319.0</ele><time>2026-04-12T08:14:42.036Z</time></trkpt><trkpt lat="43.0425998" lon="13.4221832"><ele>319.75</ele><time>2026-04-12T08:14:43.039Z</time></trkpt><trkpt lat="43.0425053" lon="13.4221135"><ele>320.5</ele><time>2026-04-12T08:14:44.042Z</time></trkpt><trkpt lat="43.0423979" lon="13.4220452"><ele>321.25</ele><time>2026-04-12T08:14:45.043Z</time></trkpt><trkpt lat="43.04229" lon="13.4219633"><ele>322.0</ele><time>2026-04-12T08:14:46Z</time></trkpt><trkpt lat="43.04217" lon="13.4218656"><ele>320.0</ele><time>2026-04-12T08:14:47.046Z</time></trkpt><trkpt lat="43.0420574" lon="13.4217689"><ele>318.0</ele><time>2026-04-12T08:14:48.059Z</time></trkpt><trkpt lat="43.0419464" lon="13.4216893"><ele>316.0</ele><time>2026-04-12T08:14:49.029Z</time></trkpt><trkpt lat="43.0418395" lon="13.4216222"><ele>314.0</ele><time>2026-04-12T08:14:50.049Z</time></trkpt><trkpt lat="43.0417303" lon="13.4215915"><ele>311.59999999999997</ele><time>2026-04-12T08:14:51.055Z</time></trkpt><trkpt lat="43.0416234" lon="13.4215654"><ele>309.2</ele><time>2026-04-12T08:14:52.033Z</time></trkpt><trkpt lat="43.041519" lon="13.4215479"><ele>306.79999999999995</ele><time>2026-04-12T08:14:53.05Z</time></trkpt><trkpt lat="43.0414129" lon="13.4215369"><ele>304.4</ele><time>2026-04-12T08:14:54.057Z</time></trkpt><trkpt lat="43.0413138" lon="13.4215141"><ele>302.0</ele><time>2026-04-12T08:14:55.037Z</time></trkpt><trkpt lat="43.0412149" lon="13.4214807"><ele>302.0</ele><time>2026-04-12T08:14:56.058Z</time></trkpt><trkpt lat="43.0411202" lon="13.4214306"><ele>302.0</ele><time>2026-04-12T08:14:57.055Z</time></trkpt><trkpt lat="43.0410335" lon="13.4213691"><ele>302.0</ele><time>2026-04-12T08:14:58.029Z</time></trkpt><trkpt lat="43.0409456" lon="13.4212981"><ele>302.0</ele><time>2026-04-12T08:14:59.039Z</time></trkpt><trkpt lat="43.0408761" lon="13.4212305"><ele>302.0</ele><time>2026-04-12T08:15:00.048Z</time></trkpt><trkpt lat="43.0408236" lon="13.4210539"><ele>299.4</ele><time>2026-04-12T08:15:02.033Z</time></trkpt><trkpt lat="43.0407935" lon="13.4209437"><ele>296.79999999999995</ele><time>2026-04-12T08:15:03.064Z</time></trkpt><trkpt lat="43.0407435" lon="13.4208168"><ele>294.2</ele><time>2026-04-12T08:15:04.059Z</time></trkpt><trkpt lat="43.0406772" lon="13.4206833"><ele>291.59999999999997</ele><time>2026-04-12T08:15:05.043Z</time></trkpt><trkpt lat="43.0406226" lon="13.4205553"><ele>289.0</ele><time>2026-04-12T08:15:06.041Z</time></trkpt><trkpt lat="43.0405695" lon="13.4204445"><ele>289.59999999999997</ele><time>2026-04-12T08:15:07.012Z</time></trkpt><trkpt lat="43.0405365" lon="13.4203494"><ele>290.2</ele><time>2026-04-12T08:15:08.077Z</time></trkpt><trkpt lat="43.040586" lon="13.4202062"><ele>290.79999999999995</ele><time>2026-04-12T08:15:10.053Z</time></trkpt><trkpt lat="43.0406575" lon="13.4202002"><ele>291.4</ele><time>2026-04-12T08:15:11.057Z</time></trkpt><trkpt lat="43.040788" lon="13.4202476"><ele>292.0</ele><time>2026-04-12T08:15:13.042Z</time></trkpt><trkpt lat="43.0409059" lon="13.4202833"><ele>292.0</ele><time>2026-04-12T08:15:15.052Z</time></trkpt><trkpt lat="43.0409785" lon="13.4202841"><ele>292.0</ele><time>2026-04-12T08:15:16.048Z</time></trkpt><trkpt lat="43.0410511" lon="13.4202976"><ele>292.0</ele><time>2026-04-12T08:15:17.012Z</time></trkpt><trkpt lat="43.0411248" lon="13.4203111"><ele>292.0</ele><time>2026-04-12T08:15:18.043Z</time></trkpt><trkpt lat="43.0411914" lon="13.4203288"><ele>292.0</ele><time>2026-04-12T08:15:19.048Z</time></trkpt><trkpt lat="43.0413156" lon="13.4203254"><ele>292.0</ele><time>2026-04-12T08:15:21.016Z</time></trkpt><trkpt lat="43.0413897" lon="13.4203195"><ele>292.0</ele><time>2026-04-12T08:15:22.043Z</time></trkpt><trkpt lat="43.0415038" lon="13.420348"><ele>292.0</ele><time>2026-04-12T08:15:24.026Z</time></trkpt><trkpt lat="43.0416078" lon="13.4204126"><ele>292.0</ele><time>2026-04-12T08:15:26.041Z</time></trkpt><trkpt lat="43.0417339" lon="13.4204563"><ele>292.0</ele><time>2026-04-12T08:15:28.033Z</time></trkpt><trkpt lat="43.0418481" lon="13.4204115"><ele>292.0</ele><time>2026-04-12T08:15:30.028Z</time></trkpt><trkpt lat="43.0418907" lon="13.4202954"><ele>292.0</ele><time>2026-04-12T08:15:32.007Z</time></trkpt><trkpt lat="43.0418606" lon="13.4202004"><ele>292.0</ele><time>2026-04-12T08:15:33.031Z</time></trkpt><trkpt lat="43.0418111" lon="13.4201133"><ele>292.0</ele><time>2026-04-12T08:15:34.021Z</time></trkpt><trkpt lat="43.0417485" lon="13.4200442"><ele>292.0</ele><time>2026-04-12T08:15:35.024Z</time></trkpt><trkpt lat="43.0416717" lon="13.4199689"><ele>292.0</ele><time>2026-04-12T08:15:36.031Z</time></trkpt><trkpt lat="43.0415967" lon="13.4199016"><ele>292.0</ele><time>2026-04-12T08:15:37.032Z</time></trkpt><trkpt lat="43.041523" lon="13.4198427"><ele>292.0</ele><time>2026-04-12T08:15:38.029Z</time></trkpt><trkpt lat="43.0414405" lon="13.4197675"><ele>292.0</ele><time>2026-04-12T08:15:40.038Z</time></trkpt><trkpt lat="43.0413722" lon="13.4197084"><ele>292.0</ele><time>2026-04-12T08:15:42.012Z</time></trkpt><trkpt lat="43.0413102" lon="13.4196537"><ele>292.0</ele><time>2026-04-12T08:15:43.989Z</time></trkpt><trkpt lat="43.041226" lon="13.4196234"><ele>292.0</ele><time>2026-04-12T08:15:46.03Z</time></trkpt><trkpt lat="43.0411268" lon="13.4195899"><ele>290.3333333333333</ele><time>2026-04-12T08:15:48.012Z</time></trkpt><trkpt lat="43.0410528" lon="13.4195411"><ele>288.66666666666663</ele><time>2026-04-12T08:15:51.039Z</time></trkpt><trkpt lat="43.0409723" lon="13.4194858"><ele>287.0</ele><time>2026-04-12T08:15:53.037Z</time></trkpt><trkpt lat="43.0408674" lon="13.4193909"><ele>285.3333333333333</ele><time>2026-04-12T08:15:55.057Z</time></trkpt><trkpt lat="43.0408188" lon="13.4193261"><ele>283.6666666666667</ele><time>2026-04-12T08:15:56.025Z</time></trkpt><trkpt lat="43.040757" lon="13.4192668"><ele>282.0</ele><time>2026-04-12T08:15:57.037Z</time></trkpt><trkpt lat="43.0406894" lon="13.4191695"><ele>280.0</ele><time>2026-04-12T08:15:58.045Z</time></trkpt><trkpt lat="43.0406225" lon="13.4190808"><ele>278.0</ele><time>2026-04-12T08:15:59.053Z</time></trkpt><trkpt lat="43.0405634" lon="13.418991"><ele>276.0</ele><time>2026-04-12T08:16:00.038Z</time></trkpt><trkpt lat="43.0405193" lon="13.4188883"><ele>274.0</ele><time>2026-04-12T08:16:01.03Z</time></trkpt><trkpt lat="43.0404685" lon="13.4187817"><ele>272.0</ele><time>2026-04-12T08:16:02.055Z</time></trkpt><trkpt lat="43.0404058" lon="13.4186719"><ele>271.6</ele><time>2026-04-12T08:16:03.015Z</time></trkpt><trkpt lat="43.0403555" lon="13.4185513"><ele>271.2</ele><time>2026-04-12T08:16:04.026Z</time></trkpt><trkpt lat="43.0403027" lon="13.4184374"><ele>270.8</ele><time>2026-04-12T08:16:05.053Z</time></trkpt><trkpt lat="43.0402581" lon="13.4183199"><ele>270.4</ele><time>2026-04-12T08:16:06.046Z</time></trkpt><trkpt lat="43.0402125" lon="13.4181945"><ele>270.0</ele><time>2026-04-12T08:16:07.021Z</time></trkpt><trkpt lat="43.0401764" lon="13.4180715"><ele>270.1666666666667</ele><time>2026-04-12T08:16:08.04Z</time></trkpt><trkpt lat="43.0401378" lon="13.4179487"><ele>270.3333333333333</ele><time>2026-04-12T08:16:09.053Z</time></trkpt><trkpt lat="43.0401001" lon="13.4178326"><ele>270.5</ele><time>2026-04-12T08:16:10.013Z</time></trkpt><trkpt lat="43.040072" lon="13.417726"><ele>270.66666666666663</ele><time>2026-04-12T08:16:11.033Z</time></trkpt><trkpt lat="43.0400471" lon="13.4176348"><ele>270.8333333333333</ele><time>2026-04-12T08:16:12.064Z</time></trkpt><trkpt lat="43.0400318" lon="13.4175431"><ele>271.0</ele><time>2026-04-12T08:16:13.061Z</time></trkpt><trkpt lat="43.0400318" lon="13.4174091"><ele>271.0</ele><time>2026-04-12T08:16:15.035Z</time></trkpt><trkpt lat="43.0400382" lon="13.4172948"><ele>271.0</ele><time>2026-04-12T08:16:17.045Z</time></trkpt><trkpt lat="43.0400392" lon="13.4174026"><ele>271.0</ele><time>2026-04-12T08:17:53.038Z</time></trkpt><trkpt lat="43.0399743" lon="13.4173579"><ele>271.0</ele><time>2026-04-12T08:22:10.039Z</time></trkpt><trkpt lat="43.0399315" lon="13.417242"><ele>271.0</ele><time>2026-04-12T08:22:18.05Z</time></trkpt><trkpt lat="43.0399011" lon="13.4171655"><ele>271.0</ele><time>2026-04-12T08:22:19.043Z</time></trkpt><trkpt lat="43.0398437" lon="13.4170284"><ele>272.0</ele><time>2026-04-12T08:22:21.039Z</time></trkpt><trkpt lat="43.0398112" lon="13.4169387"><ele>273.0</ele><time>2026-04-12T08:22:22.035Z</time></trkpt><trkpt lat="43.0397779" lon="13.4168365"><ele>274.0</ele><time>2026-04-12T08:22:23.03Z</time></trkpt><trkpt lat="43.0397451" lon="13.4167301"><ele>275.0</ele><time>2026-04-12T08:22:24.028Z</time></trkpt><trkpt lat="43.0397091" lon="13.4166413"><ele>276.0</ele><time>2026-04-12T08:22:25.029Z</time></trkpt><trkpt lat="43.039676" lon="13.4165548"><ele>277.0</ele><time>2026-04-12T08:22:26.041Z</time></trkpt><trkpt lat="43.0396497" lon="13.416468"><ele>277.0</ele><time>2026-04-12T08:22:27.024Z</time></trkpt><trkpt lat="43.0396232" lon="13.4163221"><ele>277.0</ele><time>2026-04-12T08:22:29.046Z</time></trkpt><trkpt lat="43.0395915" lon="13.4161508"><ele>277.0</ele><time>2026-04-12T08:22:31.048Z</time></trkpt><trkpt lat="43.0395774" lon="13.4160528"><ele>277.0</ele><time>2026-04-12T08:22:32.014Z</time></trkpt><trkpt lat="43.0395517" lon="13.415948"><ele>277.0</ele><time>2026-04-12T08:22:33.042Z</time></trkpt><trkpt lat="43.0395114" lon="13.4158139"><ele>277.0</ele><time>2026-04-12T08:22:34.032Z</time></trkpt><trkpt lat="43.0394623" lon="13.4156644"><ele>277.0</ele><time>2026-04-12T08:22:35.035Z</time></trkpt><trkpt lat="43.0394115" lon="13.4155312"><ele>277.0</ele><time>2026-04-12T08:22:36.039Z</time></trkpt><trkpt lat="43.0393637" lon="13.4154043"><ele>277.0</ele><time>2026-04-12T08:22:37.024Z</time></trkpt><trkpt lat="43.0393325" lon="13.4153126"><ele>277.0</ele><time>2026-04-12T08:22:38.05Z</time></trkpt><trkpt lat="43.0392872" lon="13.4151633"><ele>277.0</ele><time>2026-04-12T08:22:40.032Z</time></trkpt><trkpt lat="43.0392742" lon="13.4150779"><ele>277.0</ele><time>2026-04-12T08:22:41.05Z</time></trkpt><trkpt lat="43.0392536" lon="13.4149516"><ele>277.0</ele><time>2026-04-12T08:22:42.045Z</time></trkpt><trkpt lat="43.0392277" lon="13.4148157"><ele>277.0</ele><time>2026-04-12T08:22:43.033Z</time></trkpt><trkpt lat="43.0391984" lon="13.4146627"><ele>277.0</ele><time>2026-04-12T08:22:44.046Z</time></trkpt><trkpt lat="43.0391666" lon="13.414528"><ele>277.16666666666663</ele><time>2026-04-12T08:22:45.033Z</time></trkpt><trkpt lat="43.039148" lon="13.4144137"><ele>277.3333333333333</ele><time>2026-04-12T08:22:46.038Z</time></trkpt><trkpt lat="43.0391324" lon="13.4143067"><ele>277.5</ele><time>2026-04-12T08:22:47.033Z</time></trkpt><trkpt lat="43.0391165" lon="13.4142066"><ele>277.6666666666667</ele><time>2026-04-12T08:22:48.037Z</time></trkpt><trkpt lat="43.0391119" lon="13.4141105"><ele>277.83333333333337</ele><time>2026-04-12T08:22:49.027Z</time></trkpt><trkpt lat="43.039145" lon="13.413941"><ele>278.0</ele><time>2026-04-12T08:22:51.036Z</time></trkpt><trkpt lat="43.0391748" lon="13.4138642"><ele>278.0</ele><time>2026-04-12T08:22:52.036Z</time></trkpt><trkpt lat="43.0392417" lon="13.4137117"><ele>278.0</ele><time>2026-04-12T08:22:54.039Z</time></trkpt><trkpt lat="43.0392766" lon="13.4136353"><ele>278.0</ele><time>2026-04-12T08:22:55.031Z</time></trkpt><trkpt lat="43.0393681" lon="13.4135165"><ele>278.0</ele><time>2026-04-12T08:22:57.038Z</time></trkpt><trkpt lat="43.0394222" lon="13.4134591"><ele>278.0</ele><time>2026-04-12T08:22:58.04Z</time></trkpt><trkpt lat="43.0394962" lon="13.4133092"><ele>278.0</ele><time>2026-04-12T08:23:00.02Z</time></trkpt><trkpt lat="43.0395261" lon="13.4132021"><ele>278.0</ele><time>2026-04-12T08:23:00.975Z</time></trkpt><trkpt lat="43.0395579" lon="13.4131081"><ele>278.0</ele><time>2026-04-12T08:23:02.032Z</time></trkpt><trkpt lat="43.0395973" lon="13.4129659"><ele>278.0</ele><time>2026-04-12T08:23:03.992Z</time></trkpt><trkpt lat="43.0396572" lon="13.4128263"><ele>278.0</ele><time>2026-04-12T08:23:05.98Z</time></trkpt><trkpt lat="43.0396919" lon="13.4127488"><ele>278.33333333333337</ele><time>2026-04-12T08:23:07.035Z</time></trkpt><trkpt lat="43.0397368" lon="13.4126289"><ele>278.6666666666667</ele><time>2026-04-12T08:23:09.038Z</time></trkpt><trkpt lat="43.0397431" lon="13.4125134"><ele>279.0</ele><time>2026-04-12T08:23:12.031Z</time></trkpt><trkpt lat="43.0397673" lon="13.4124054"><ele>279.3333333333333</ele><time>2026-04-12T08:23:14.026Z</time></trkpt><trkpt lat="43.0397962" lon="13.4123075"><ele>279.66666666666663</ele><time>2026-04-12T08:23:16.039Z</time></trkpt><trkpt lat="43.0397818" lon="13.4122035"><ele>280.0</ele><time>2026-04-12T08:23:19.036Z</time></trkpt><trkpt lat="43.0397692" lon="13.4121102"><ele>280.2857142857143</ele><time>2026-04-12T08:23:23.045Z</time></trkpt><trkpt lat="43.0397883" lon="13.412025"><ele>280.57142857142856</ele><time>2026-04-12T08:23:31.041Z</time></trkpt><trkpt lat="43.0397544" lon="13.4119476"><ele>280.8571428571429</ele><time>2026-04-12T08:23:37.057Z</time></trkpt><trkpt lat="43.0397737" lon="13.4118527"><ele>281.1428571428571</ele><time>2026-04-12T08:23:42.045Z</time></trkpt><trkpt lat="43.0397914" lon="13.4117595"><ele>281.42857142857144</ele><time>2026-04-12T08:23:47.039Z</time></trkpt><trkpt lat="43.0397941" lon="13.4116476"><ele>281.7142857142857</ele><time>2026-04-12T08:23:53.007Z</time></trkpt><trkpt lat="43.0397508" lon="13.4115638"><ele>282.0</ele><time>2026-04-12T08:23:56.061Z</time></trkpt><trkpt lat="43.0396886" lon="13.4114711"><ele>282.0</ele><time>2026-04-12T08:24:00.049Z</time></trkpt><trkpt lat="43.0397131" lon="13.4113769"><ele>282.0</ele><time>2026-04-12T08:24:03.04Z</time></trkpt><trkpt lat="43.0397563" lon="13.4112948"><ele>282.0</ele><time>2026-04-12T08:24:05.045Z</time></trkpt><trkpt lat="43.0398021" lon="13.4112203"><ele>282.0</ele><time>2026-04-12T08:24:07.009Z</time></trkpt><trkpt lat="43.0398888" lon="13.4112016"><ele>282.0</ele><time>2026-04-12T08:24:10.04Z</time></trkpt><trkpt lat="43.0399569" lon="13.4111906"><ele>282.0</ele><time>2026-04-12T08:24:12.042Z</time></trkpt><trkpt lat="43.0400324" lon="13.4111731"><ele>281.8333333333333</ele><time>2026-04-12T08:24:14.043Z</time></trkpt><trkpt lat="43.0401033" lon="13.4111031"><ele>281.6666666666667</ele><time>2026-04-12T08:24:17.029Z</time></trkpt><trkpt lat="43.0401091" lon="13.4110067"><ele>281.5</ele><time>2026-04-12T08:24:20.037Z</time></trkpt><trkpt lat="43.0401344" lon="13.4109108"><ele>281.33333333333337</ele><time>2026-04-12T08:24:23.042Z</time></trkpt><trkpt lat="43.0401602" lon="13.4108286"><ele>281.1666666666667</ele><time>2026-04-12T08:24:25.046Z</time></trkpt><trkpt lat="43.0402444" lon="13.4107949"><ele>281.0</ele><time>2026-04-12T08:24:28.022Z</time></trkpt><trkpt lat="43.0403236" lon="13.410839"><ele>281.0</ele><time>2026-04-12T08:24:30.029Z</time></trkpt><trkpt lat="43.0403869" lon="13.4107896"><ele>281.0</ele><time>2026-04-12T08:24:33.037Z</time></trkpt><trkpt lat="43.0404334" lon="13.4107212"><ele>281.0</ele><time>2026-04-12T08:24:34.98Z</time></trkpt><trkpt lat="43.0405142" lon="13.4106886"><ele>281.0</ele><time>2026-04-12T08:24:38.057Z</time></trkpt><trkpt lat="43.0405831" lon="13.4106958"><ele>281.0</ele><time>2026-04-12T08:24:40.027Z</time></trkpt><trkpt lat="43.0406537" lon="13.4106736"><ele>281.0</ele><time>2026-04-12T08:24:42.034Z</time></trkpt><trkpt lat="43.0407229" lon="13.410608"><ele>281.0</ele><time>2026-04-12T08:24:45.019Z</time></trkpt><trkpt lat="43.0407935" lon="13.4105289"><ele>281.0</ele><time>2026-04-12T08:24:47.021Z</time></trkpt><trkpt lat="43.0408378" lon="13.4104346"><ele>281.0</ele><time>2026-04-12T08:24:49.047Z</time></trkpt><trkpt lat="43.0408696" lon="13.4103577"><ele>281.0</ele><time>2026-04-12T08:24:51.048Z</time></trkpt><trkpt lat="43.0409155" lon="13.4102798"><ele>281.0</ele><time>2026-04-12T08:24:53.044Z</time></trkpt><trkpt lat="43.0409326" lon="13.41016"><ele>281.0</ele><time>2026-04-12T08:24:56.032Z</time></trkpt><trkpt lat="43.0409251" lon="13.4100657"><ele>280.6666666666667</ele><time>2026-04-12T08:24:58.032Z</time></trkpt><trkpt lat="43.0409585" lon="13.4099733"><ele>280.33333333333337</ele><time>2026-04-12T08:25:00.044Z</time></trkpt><trkpt lat="43.0410285" lon="13.409853"><ele>280.0</ele><time>2026-04-12T08:25:02.035Z</time></trkpt><trkpt lat="43.0410784" lon="13.4097903"><ele>279.6666666666667</ele><time>2026-04-12T08:25:03.047Z</time></trkpt><trkpt lat="43.0411097" lon="13.4097092"><ele>279.3333333333333</ele><time>2026-04-12T08:25:04.043Z</time></trkpt><trkpt lat="43.041124" lon="13.4096169"><ele>279.0</ele><time>2026-04-12T08:25:05.037Z</time></trkpt><trkpt lat="43.0411305" lon="13.4094979"><ele>279.0</ele><time>2026-04-12T08:25:06.04Z</time></trkpt><trkpt lat="43.0411351" lon="13.4093964"><ele>279.0</ele><time>2026-04-12T08:25:07.029Z</time></trkpt><trkpt lat="43.041138" lon="13.4093099"><ele>279.0</ele><time>2026-04-12T08:25:08.039Z</time></trkpt><trkpt lat="43.0411386" lon="13.4092085"><ele>279.0</ele><time>2026-04-12T08:25:09.046Z</time></trkpt><trkpt lat="43.0411397" lon="13.4090895"><ele>279.0</ele><time>2026-04-12T08:25:10.047Z</time></trkpt><trkpt lat="43.0411337" lon="13.4089804"><ele>279.0</ele><time>2026-04-12T08:25:11.045Z</time></trkpt><trkpt lat="43.0411114" lon="13.4088731"><ele>279.1666666666667</ele><time>2026-04-12T08:25:12.044Z</time></trkpt><trkpt lat="43.0410755" lon="13.4087756"><ele>279.3333333333333</ele><time>2026-04-12T08:25:13.042Z</time></trkpt><trkpt lat="43.0410287" lon="13.4086653"><ele>279.5</ele><time>2026-04-12T08:25:14.041Z</time></trkpt><trkpt lat="43.0409875" lon="13.4085464"><ele>279.66666666666663</ele><time>2026-04-12T08:25:15.052Z</time></trkpt><trkpt lat="43.0409561" lon="13.4084344"><ele>279.8333333333333</ele><time>2026-04-12T08:25:16.035Z</time></trkpt><trkpt lat="43.0409388" lon="13.408314"><ele>280.0</ele><time>2026-04-12T08:25:17.042Z</time></trkpt><trkpt lat="43.0409319" lon="13.4081873"><ele>280.0</ele><time>2026-04-12T08:25:18.062Z</time></trkpt><trkpt lat="43.0409267" lon="13.4080648"><ele>280.0</ele><time>2026-04-12T08:25:19.04Z</time></trkpt><trkpt lat="43.0409171" lon="13.4079307"><ele>280.0</ele><time>2026-04-12T08:25:20.048Z</time></trkpt><trkpt lat="43.0409059" lon="13.4077978"><ele>280.0</ele><time>2026-04-12T08:25:21.015Z</time></trkpt><trkpt lat="43.0408924" lon="13.4076799"><ele>280.0</ele><time>2026-04-12T08:25:22.042Z</time></trkpt><trkpt lat="43.0408708" lon="13.4075742"><ele>280.2857142857143</ele><time>2026-04-12T08:25:23.039Z</time></trkpt><trkpt lat="43.0408401" lon="13.407487"><ele>280.57142857142856</ele><time>2026-04-12T08:25:24.042Z</time></trkpt><trkpt lat="43.0408122" lon="13.4073958"><ele>280.8571428571429</ele><time>2026-04-12T08:25:25.054Z</time></trkpt><trkpt lat="43.0407982" lon="13.4073078"><ele>281.1428571428571</ele><time>2026-04-12T08:25:26.028Z</time></trkpt><trkpt lat="43.0408097" lon="13.4072127"><ele>281.42857142857144</ele><time>2026-04-12T08:25:27.039Z</time></trkpt><trkpt lat="43.0408426" lon="13.4071316"><ele>281.7142857142857</ele><time>2026-04-12T08:25:28.052Z</time></trkpt><trkpt lat="43.0408916" lon="13.4070607"><ele>282.0</ele><time>2026-04-12T08:25:29.037Z</time></trkpt><trkpt lat="43.0409498" lon="13.406997"><ele>282.8333333333333</ele><time>2026-04-12T08:25:30.042Z</time></trkpt><trkpt lat="43.0410155" lon="13.4069619"><ele>283.6666666666667</ele><time>2026-04-12T08:25:31.043Z</time></trkpt><trkpt lat="43.0410777" lon="13.406935"><ele>284.5</ele><time>2026-04-12T08:25:32.046Z</time></trkpt><trkpt lat="43.0411582" lon="13.4069297"><ele>285.33333333333337</ele><time>2026-04-12T08:25:33.018Z</time></trkpt><trkpt lat="43.0412478" lon="13.4069238"><ele>286.1666666666667</ele><time>2026-04-12T08:25:34.038Z</time></trkpt><trkpt lat="43.0413163" lon="13.4069049"><ele>287.0</ele><time>2026-04-12T08:25:35.052Z</time></trkpt><trkpt lat="43.0414462" lon="13.4068566"><ele>287.0</ele><time>2026-04-12T08:25:37.043Z</time></trkpt><trkpt lat="43.0415199" lon="13.406822"><ele>287.0</ele><time>2026-04-12T08:25:38.045Z</time></trkpt><trkpt lat="43.0415931" lon="13.4067721"><ele>287.0</ele><time>2026-04-12T08:25:39.02Z</time></trkpt><trkpt lat="43.0416715" lon="13.4067096"><ele>287.0</ele><time>2026-04-12T08:25:40.054Z</time></trkpt><trkpt lat="43.0417409" lon="13.4066512"><ele>287.0</ele><time>2026-04-12T08:25:41.049Z</time></trkpt><trkpt lat="43.0417994" lon="13.4066004"><ele>287.0</ele><time>2026-04-12T08:25:42.051Z</time></trkpt><trkpt lat="43.0418486" lon="13.4065361"><ele>286.0</ele><time>2026-04-12T08:25:43.039Z</time></trkpt><trkpt lat="43.0418757" lon="13.406428"><ele>285.0</ele><time>2026-04-12T08:25:44.04Z</time></trkpt><trkpt lat="43.0418826" lon="13.4063259"><ele>284.0</ele><time>2026-04-12T08:25:45.041Z</time></trkpt><trkpt lat="43.041923" lon="13.4062104"><ele>283.0</ele><time>2026-04-12T08:25:47.046Z</time></trkpt><trkpt lat="43.0419871" lon="13.4062189"><ele>282.0</ele><time>2026-04-12T08:25:49.061Z</time></trkpt><trkpt lat="43.0420331" lon="13.4062789"><ele>281.0</ele><time>2026-04-12T08:25:51.001Z</time></trkpt><trkpt lat="43.0420469" lon="13.4063927"><ele>281.0</ele><time>2026-04-12T08:25:54.994Z</time></trkpt><trkpt lat="43.0420641" lon="13.4065572"><ele>281.0</ele><time>2026-04-12T08:25:57.035Z</time></trkpt><trkpt lat="43.0420932" lon="13.4066741"><ele>281.0</ele><time>2026-04-12T08:25:58.04Z</time></trkpt><trkpt lat="43.0421291" lon="13.4067921"><ele>281.0</ele><time>2026-04-12T08:25:59.046Z</time></trkpt><trkpt lat="43.0421674" lon="13.4069307"><ele>281.0</ele><time>2026-04-12T08:26:00.044Z</time></trkpt><trkpt lat="43.0421998" lon="13.4070675"><ele>280.25</ele><time>2026-04-12T08:26:01.031Z</time></trkpt><trkpt lat="43.0422315" lon="13.4072112"><ele>279.5</ele><time>2026-04-12T08:26:02.043Z</time></trkpt><trkpt lat="43.0422676" lon="13.4073592"><ele>278.75</ele><time>2026-04-12T08:26:03.044Z</time></trkpt><trkpt lat="43.0422969" lon="13.407516"><ele>278.0</ele><time>2026-04-12T08:26:04.04Z</time></trkpt><trkpt lat="43.0423033" lon="13.4076738"><ele>278.0</ele><time>2026-04-12T08:26:05.04Z</time></trkpt><trkpt lat="43.0422999" lon="13.4078424"><ele>278.0</ele><time>2026-04-12T08:26:06.035Z</time></trkpt><trkpt lat="43.0422969" lon="13.4080041"><ele>278.0</ele><time>2026-04-12T08:26:07.062Z</time></trkpt><trkpt lat="43.0422977" lon="13.4081742"><ele>278.0</ele><time>2026-04-12T08:26:08.038Z</time></trkpt><trkpt lat="43.0422976" lon="13.4083402"><ele>278.0</ele><time>2026-04-12T08:26:09.048Z</time></trkpt><trkpt lat="43.0422955" lon="13.4085064"><ele>278.0</ele><time>2026-04-12T08:26:10.047Z</time></trkpt><trkpt lat="43.0422907" lon="13.4086723"><ele>278.0</ele><time>2026-04-12T08:26:11.033Z</time></trkpt><trkpt lat="43.0422848" lon="13.4088343"><ele>278.0</ele><time>2026-04-12T08:26:12.04Z</time></trkpt><trkpt lat="43.0422615" lon="13.4089856"><ele>278.0</ele><time>2026-04-12T08:26:13.037Z</time></trkpt><trkpt lat="43.0422385" lon="13.4091173"><ele>278.0</ele><time>2026-04-12T08:26:14.067Z</time></trkpt><trkpt lat="43.0422245" lon="13.409221"><ele>278.0</ele><time>2026-04-12T08:26:15.057Z</time></trkpt><trkpt lat="43.042262" lon="13.4093522"><ele>278.0</ele><time>2026-04-12T08:26:17.054Z</time></trkpt><trkpt lat="43.0423301" lon="13.4094072"><ele>278.0</ele><time>2026-04-12T08:26:18.04Z</time></trkpt><trkpt lat="43.0424138" lon="13.4094621"><ele>282.2</ele><time>2026-04-12T08:26:19.042Z</time></trkpt><trkpt lat="43.0425068" lon="13.4095145"><ele>286.4</ele><time>2026-04-12T08:26:20.043Z</time></trkpt><trkpt lat="43.0425986" lon="13.4095652"><ele>290.59999999999997</ele><time>2026-04-12T08:26:21.059Z</time></trkpt><trkpt lat="43.0426918" lon="13.4096159"><ele>294.8</ele><time>2026-04-12T08:26:22.037Z</time></trkpt><trkpt lat="43.0427767" lon="13.4096298"><ele>299.0</ele><time>2026-04-12T08:26:23.047Z</time></trkpt><trkpt lat="43.0428622" lon="13.4096253"><ele>299.0</ele><time>2026-04-12T08:26:24.037Z</time></trkpt><trkpt lat="43.0429218" lon="13.4095777"><ele>299.0</ele><time>2026-04-12T08:26:25.041Z</time></trkpt><trkpt lat="43.0429795" lon="13.409526"><ele>299.0</ele><time>2026-04-12T08:26:26.048Z</time></trkpt><trkpt lat="43.0430103" lon="13.4094419"><ele>299.0</ele><time>2026-04-12T08:26:27.029Z</time></trkpt><trkpt lat="43.0430159" lon="13.4093283"><ele>299.0</ele><time>2026-04-12T08:26:28.052Z</time></trkpt><trkpt lat="43.0430013" lon="13.4091908"><ele>299.0</ele><time>2026-04-12T08:26:29.026Z</time></trkpt><trkpt lat="43.0430067" lon="13.4090512"><ele>299.0</ele><time>2026-04-12T08:26:30.043Z</time></trkpt><trkpt lat="43.0430013" lon="13.4088977"><ele>299.0</ele><time>2026-04-12T08:26:31.043Z</time></trkpt><trkpt lat="43.0430025" lon="13.4087586"><ele>299.0</ele><time>2026-04-12T08:26:32.035Z</time></trkpt><trkpt lat="43.0430027" lon="13.4086437"><ele>299.0</ele><time>2026-04-12T08:26:33.049Z</time></trkpt><trkpt lat="43.0430247" lon="13.4085433"><ele>299.0</ele><time>2026-04-12T08:26:34.036Z</time></trkpt><trkpt lat="43.0430722" lon="13.408472"><ele>299.0</ele><time>2026-04-12T08:26:35.042Z</time></trkpt><trkpt lat="43.0431788" lon="13.4084706"><ele>298.6666666666667</ele><time>2026-04-12T08:26:37.041Z</time></trkpt><trkpt lat="43.0432333" lon="13.4085148"><ele>298.33333333333337</ele><time>2026-04-12T08:26:38.048Z</time></trkpt><trkpt lat="43.0432804" lon="13.4085794"><ele>298.0</ele><time>2026-04-12T08:26:39.034Z</time></trkpt><trkpt lat="43.0433432" lon="13.4086227"><ele>297.6666666666667</ele><time>2026-04-12T08:26:40.039Z</time></trkpt><trkpt lat="43.0434667" lon="13.4086941"><ele>297.3333333333333</ele><time>2026-04-12T08:26:42.049Z</time></trkpt><trkpt lat="43.0435687" lon="13.4086934"><ele>297.0</ele><time>2026-04-12T08:26:43.005Z</time></trkpt><trkpt lat="43.0436799" lon="13.4086981"><ele>302.5</ele><time>2026-04-12T08:26:44.045Z</time></trkpt><trkpt lat="43.0438095" lon="13.4086824"><ele>308.0</ele><time>2026-04-12T08:26:45.058Z</time></trkpt><trkpt lat="43.0439466" lon="13.4086624"><ele>313.5</ele><time>2026-04-12T08:26:46.035Z</time></trkpt><trkpt lat="43.0440808" lon="13.4086423"><ele>319.0</ele><time>2026-04-12T08:26:47.039Z</time></trkpt><trkpt lat="43.0442192" lon="13.4086194"><ele>321.5</ele><time>2026-04-12T08:26:48.017Z</time></trkpt><trkpt lat="43.0443667" lon="13.4086033"><ele>324.0</ele><time>2026-04-12T08:26:49.06Z</time></trkpt><trkpt lat="43.0445125" lon="13.4085673"><ele>326.5</ele><time>2026-04-12T08:26:50.046Z</time></trkpt><trkpt lat="43.0446519" lon="13.4085104"><ele>329.0</ele><time>2026-04-12T08:26:51.02Z</time></trkpt><trkpt lat="43.0447927" lon="13.4084439"><ele>329.0</ele><time>2026-04-12T08:26:52.048Z</time></trkpt><trkpt lat="43.0449327" lon="13.4084224"><ele>329.0</ele><time>2026-04-12T08:26:53.042Z</time></trkpt><trkpt lat="43.0450777" lon="13.4084281"><ele>329.0</ele><time>2026-04-12T08:26:54.055Z</time></trkpt><trkpt lat="43.0452078" lon="13.4084329"><ele>329.0</ele><time>2026-04-12T08:26:55.048Z</time></trkpt><trkpt lat="43.045331" lon="13.4084398"><ele>329.75</ele><time>2026-04-12T08:26:56.052Z</time></trkpt><trkpt lat="43.045466" lon="13.4084493"><ele>330.5</ele><time>2026-04-12T08:26:57.049Z</time></trkpt><trkpt lat="43.0455987" lon="13.4084526"><ele>331.25</ele><time>2026-04-12T08:26:58.047Z</time></trkpt><trkpt lat="43.0457159" lon="13.4084862"><ele>332.0</ele><time>2026-04-12T08:26:59.022Z</time></trkpt><trkpt lat="43.045822" lon="13.4085437"><ele>333.8</ele><time>2026-04-12T08:27:00.041Z</time></trkpt><trkpt lat="43.0459166" lon="13.4086046"><ele>335.6</ele><time>2026-04-12T08:27:01.032Z</time></trkpt><trkpt lat="43.0460213" lon="13.4086695"><ele>337.40000000000003</ele><time>2026-04-12T08:27:02.046Z</time></trkpt><trkpt lat="43.0461253" lon="13.4087344"><ele>339.20000000000005</ele><time>2026-04-12T08:27:03.04Z</time></trkpt><trkpt lat="43.0462271" lon="13.4087995"><ele>341.0</ele><time>2026-04-12T08:27:04.013Z</time></trkpt><trkpt lat="43.0463336" lon="13.4088582"><ele>342.6666666666667</ele><time>2026-04-12T08:27:05.011Z</time></trkpt><trkpt lat="43.0464283" lon="13.4089113"><ele>344.33333333333337</ele><time>2026-04-12T08:27:06.055Z</time></trkpt><trkpt lat="43.0464916" lon="13.4089961"><ele>346.0</ele><time>2026-04-12T08:27:07.057Z</time></trkpt><trkpt lat="43.0465169" lon="13.4090827"><ele>347.6666666666667</ele><time>2026-04-12T08:27:08.038Z</time></trkpt><trkpt lat="43.0465243" lon="13.4092089"><ele>349.3333333333333</ele><time>2026-04-12T08:27:09.045Z</time></trkpt><trkpt lat="43.0465228" lon="13.4093284"><ele>351.0</ele><time>2026-04-12T08:27:10.046Z</time></trkpt><trkpt lat="43.046525" lon="13.4094334"><ele>351.0</ele><time>2026-04-12T08:27:11.01Z</time></trkpt><trkpt lat="43.0465591" lon="13.4095335"><ele>351.0</ele><time>2026-04-12T08:27:12.079Z</time></trkpt><trkpt lat="43.0466211" lon="13.4096033"><ele>351.0</ele><time>2026-04-12T08:27:13.055Z</time></trkpt><trkpt lat="43.0467047" lon="13.4096722"><ele>351.0</ele><time>2026-04-12T08:27:14.041Z</time></trkpt><trkpt lat="43.0467993" lon="13.409722"><ele>351.0</ele><time>2026-04-12T08:27:15.043Z</time></trkpt><trkpt lat="43.0468926" lon="13.4097704"><ele>355.0</ele><time>2026-04-12T08:27:16.045Z</time></trkpt><trkpt lat="43.0469748" lon="13.4098532"><ele>359.0</ele><time>2026-04-12T08:27:17.048Z</time></trkpt><trkpt lat="43.0470146" lon="13.4099501"><ele>363.0</ele><time>2026-04-12T08:27:18.033Z</time></trkpt><trkpt lat="43.0470431" lon="13.4100739"><ele>367.0</ele><time>2026-04-12T08:27:19.01Z</time></trkpt><trkpt lat="43.0470674" lon="13.4102088"><ele>371.0</ele><time>2026-04-12T08:27:20.039Z</time></trkpt><trkpt lat="43.0470898" lon="13.4103647"><ele>373.0</ele><time>2026-04-12T08:27:21.041Z</time></trkpt><trkpt lat="43.0471115" lon="13.41052"><ele>375.0</ele><time>2026-04-12T08:27:22.047Z</time></trkpt><trkpt lat="43.0471336" lon="13.4106814"><ele>377.0</ele><time>2026-04-12T08:27:23.032Z</time></trkpt><trkpt lat="43.0471598" lon="13.4108543"><ele>379.0</ele><time>2026-04-12T08:27:24.017Z</time></trkpt><trkpt lat="43.0471829" lon="13.4110126"><ele>379.0</ele><time>2026-04-12T08:27:25.05Z</time></trkpt><trkpt lat="43.0472215" lon="13.4111472"><ele>379.0</ele><time>2026-04-12T08:27:26.048Z</time></trkpt><trkpt lat="43.0472866" lon="13.4112592"><ele>379.0</ele><time>2026-04-12T08:27:27.018Z</time></trkpt><trkpt lat="43.0473685" lon="13.4113618"><ele>379.0</ele><time>2026-04-12T08:27:28.049Z</time></trkpt><trkpt lat="43.0474551" lon="13.4114915"><ele>384.5</ele><time>2026-04-12T08:27:29.041Z</time></trkpt><trkpt lat="43.0475579" lon="13.4116114"><ele>390.0</ele><time>2026-04-12T08:27:30.024Z</time></trkpt><trkpt lat="43.0476612" lon="13.4117283"><ele>395.5</ele><time>2026-04-12T08:27:31.053Z</time></trkpt><trkpt lat="43.0477656" lon="13.4118564"><ele>401.0</ele><time>2026-04-12T08:27:32.012Z</time></trkpt><trkpt lat="43.0478655" lon="13.4119888"><ele>400.99999999999994</ele><time>2026-04-12T08:27:33.034Z</time></trkpt><trkpt lat="43.0479391" lon="13.4120913"><ele>401.0</ele><time>2026-04-12T08:27:33.986Z</time></trkpt><trkpt lat="43.0479977" lon="13.4121646"><ele>401.0</ele><time>2026-04-12T08:27:35.004Z</time></trkpt><trkpt lat="43.0480253" lon="13.4122568"><ele>401.0</ele><time>2026-04-12T08:27:35.988Z</time></trkpt><trkpt lat="43.0480196" lon="13.4123574"><ele>400.99999999999994</ele><time>2026-04-12T08:27:37.029Z</time></trkpt><trkpt lat="43.0479903" lon="13.4124637"><ele>401.0</ele><time>2026-04-12T08:27:38.054Z</time></trkpt><trkpt lat="43.0479556" lon="13.4125811"><ele>401.49999999999994</ele><time>2026-04-12T08:27:39.05Z</time></trkpt><trkpt lat="43.0479431" lon="13.4127131"><ele>402.0</ele><time>2026-04-12T08:27:40.063Z</time></trkpt><trkpt lat="43.0479336" lon="13.4128247"><ele>402.5</ele><time>2026-04-12T08:27:41.051Z</time></trkpt><trkpt lat="43.0479342" lon="13.4129295"><ele>403.0</ele><time>2026-04-12T08:27:42.059Z</time></trkpt><trkpt lat="43.0479588" lon="13.4130279"><ele>403.49999999999994</ele><time>2026-04-12T08:27:43.037Z</time></trkpt><trkpt lat="43.0479993" lon="13.4130992"><ele>404.0</ele><time>2026-04-12T08:27:44.01Z</time></trkpt><trkpt lat="43.0481192" lon="13.4131841"><ele>404.0</ele><time>2026-04-12T08:27:45.993Z</time></trkpt><trkpt lat="43.0482094" lon="13.4131995"><ele>404.0</ele><time>2026-04-12T08:27:47.042Z</time></trkpt><trkpt lat="43.0483142" lon="13.413204"><ele>404.0</ele><time>2026-04-12T08:27:48.054Z</time></trkpt><trkpt lat="43.048422" lon="13.4132099"><ele>404.0</ele><time>2026-04-12T08:27:49.028Z</time></trkpt><trkpt lat="43.0485366" lon="13.41321"><ele>404.0</ele><time>2026-04-12T08:27:50.044Z</time></trkpt><trkpt lat="43.0486633" lon="13.413211"><ele>406.5</ele><time>2026-04-12T08:27:51.049Z</time></trkpt><trkpt lat="43.0487986" lon="13.4132094"><ele>409.0</ele><time>2026-04-12T08:27:52.034Z</time></trkpt><trkpt lat="43.0489349" lon="13.4131987"><ele>411.5</ele><time>2026-04-12T08:27:53.048Z</time></trkpt><trkpt lat="43.0490691" lon="13.4131804"><ele>414.0</ele><time>2026-04-12T08:27:54.06Z</time></trkpt><trkpt lat="43.0491857" lon="13.4131467"><ele>417.5</ele><time>2026-04-12T08:27:55.063Z</time></trkpt><trkpt lat="43.0493034" lon="13.4130942"><ele>421.0</ele><time>2026-04-12T08:27:56.044Z</time></trkpt><trkpt lat="43.0494218" lon="13.4130298"><ele>424.5</ele><time>2026-04-12T08:27:57.055Z</time></trkpt><trkpt lat="43.0495404" lon="13.41294"><ele>428.0</ele><time>2026-04-12T08:27:58.044Z</time></trkpt><trkpt lat="43.0496571" lon="13.4128367"><ele>428.2</ele><time>2026-04-12T08:27:59.049Z</time></trkpt><trkpt lat="43.0497758" lon="13.4127484"><ele>428.4</ele><time>2026-04-12T08:28:00.061Z</time></trkpt><trkpt lat="43.049878" lon="13.4126624"><ele>428.59999999999997</ele><time>2026-04-12T08:28:01.032Z</time></trkpt><trkpt lat="43.0499726" lon="13.4125992"><ele>428.79999999999995</ele><time>2026-04-12T08:28:02.067Z</time></trkpt><trkpt lat="43.0500583" lon="13.4125857"><ele>429.0</ele><time>2026-04-12T08:28:03.02Z</time></trkpt><trkpt lat="43.050128" lon="13.4126048"><ele>431.2</ele><time>2026-04-12T08:28:04.03Z</time></trkpt><trkpt lat="43.0502103" lon="13.4126684"><ele>433.4</ele><time>2026-04-12T08:28:05.064Z</time></trkpt><trkpt lat="43.0502905" lon="13.4127137"><ele>435.6</ele><time>2026-04-12T08:28:06.063Z</time></trkpt><trkpt lat="43.0503789" lon="13.4127502"><ele>437.8</ele><time>2026-04-12T08:28:07.055Z</time></trkpt><trkpt lat="43.0504694" lon="13.4127622"><ele>440.0</ele><time>2026-04-12T08:28:08.057Z</time></trkpt><trkpt lat="43.050561" lon="13.41276"><ele>440.0</ele><time>2026-04-12T08:28:09.072Z</time></trkpt><trkpt lat="43.0506621" lon="13.4127461"><ele>440.0</ele><time>2026-04-12T08:28:10.053Z</time></trkpt><trkpt lat="43.0507753" lon="13.4127122"><ele>440.0</ele><time>2026-04-12T08:28:11.055Z</time></trkpt><trkpt lat="43.0508929" lon="13.4126768"><ele>440.0</ele><time>2026-04-12T08:28:12.061Z</time></trkpt><trkpt lat="43.0510127" lon="13.4126463"><ele>444.0</ele><time>2026-04-12T08:28:13.004Z</time></trkpt><trkpt lat="43.0511401" lon="13.4126111"><ele>448.0</ele><time>2026-04-12T08:28:14.052Z</time></trkpt><trkpt lat="43.0512658" lon="13.4125779"><ele>452.0</ele><time>2026-04-12T08:28:15.056Z</time></trkpt><trkpt lat="43.0513815" lon="13.4125377"><ele>456.0</ele><time>2026-04-12T08:28:16.054Z</time></trkpt><trkpt lat="43.0514982" lon="13.4125114"><ele>456.0</ele><time>2026-04-12T08:28:17.047Z</time></trkpt><trkpt lat="43.0516126" lon="13.4125185"><ele>456.0</ele><time>2026-04-12T08:28:18.055Z</time></trkpt><trkpt lat="43.0517404" lon="13.4125463"><ele>456.0</ele><time>2026-04-12T08:28:19.045Z</time></trkpt><trkpt lat="43.0518621" lon="13.4125876"><ele>456.0</ele><time>2026-04-12T08:28:20.017Z</time></trkpt><trkpt lat="43.0519815" lon="13.4126422"><ele>458.0</ele><time>2026-04-12T08:28:21.065Z</time></trkpt><trkpt lat="43.0521004" lon="13.4127075"><ele>460.0</ele><time>2026-04-12T08:28:22.063Z</time></trkpt><trkpt lat="43.0522132" lon="13.4127745"><ele>462.0</ele><time>2026-04-12T08:28:23.041Z</time></trkpt><trkpt lat="43.0523" lon="13.4128631"><ele>464.0</ele><time>2026-04-12T08:28:24.054Z</time></trkpt><trkpt lat="43.0523793" lon="13.412972"><ele>463.79999999999995</ele><time>2026-04-12T08:28:25.066Z</time></trkpt><trkpt lat="43.0524333" lon="13.4130943"><ele>463.59999999999997</ele><time>2026-04-12T08:28:26.053Z</time></trkpt><trkpt lat="43.0524757" lon="13.413225"><ele>463.4</ele><time>2026-04-12T08:28:27.019Z</time></trkpt><trkpt lat="43.0525229" lon="13.4133406"><ele>463.2</ele><time>2026-04-12T08:28:28.04Z</time></trkpt><trkpt lat="43.0525962" lon="13.4134262"><ele>463.0</ele><time>2026-04-12T08:28:29.05Z</time></trkpt><trkpt lat="43.052675" lon="13.4134939"><ele>466.0</ele><time>2026-04-12T08:28:29.999Z</time></trkpt><trkpt lat="43.0527709" lon="13.4135638"><ele>469.0</ele><time>2026-04-12T08:28:31.045Z</time></trkpt><trkpt lat="43.052871" lon="13.4136358"><ele>472.0</ele><time>2026-04-12T08:28:32.038Z</time></trkpt><trkpt lat="43.0529761" lon="13.4137128"><ele>475.0</ele><time>2026-04-12T08:28:33.035Z</time></trkpt><trkpt lat="43.053087" lon="13.4137988"><ele>475.75</ele><time>2026-04-12T08:28:34.043Z</time></trkpt><trkpt lat="43.0531921" lon="13.4138854"><ele>476.5</ele><time>2026-04-12T08:28:35.042Z</time></trkpt><trkpt lat="43.0532996" lon="13.4139713"><ele>477.25</ele><time>2026-04-12T08:28:36.032Z</time></trkpt><trkpt lat="43.0534129" lon="13.4140615"><ele>478.0</ele><time>2026-04-12T08:28:37.048Z</time></trkpt><trkpt lat="43.0535184" lon="13.4141573"><ele>482.5</ele><time>2026-04-12T08:28:38.047Z</time></trkpt><trkpt lat="43.0536223" lon="13.4142398"><ele>487.0</ele><time>2026-04-12T08:28:39.044Z</time></trkpt><trkpt lat="43.0537215" lon="13.4143335"><ele>491.5</ele><time>2026-04-12T08:28:40.021Z</time></trkpt><trkpt lat="43.053806" lon="13.4144314"><ele>496.0</ele><time>2026-04-12T08:28:41.027Z</time></trkpt><trkpt lat="43.0538791" lon="13.4145432"><ele>496.6</ele><time>2026-04-12T08:28:42.065Z</time></trkpt><trkpt lat="43.0539414" lon="13.4146619"><ele>497.20000000000005</ele><time>2026-04-12T08:28:43.045Z</time></trkpt><trkpt lat="43.0539719" lon="13.4147733"><ele>497.79999999999995</ele><time>2026-04-12T08:28:44.033Z</time></trkpt><trkpt lat="43.0539767" lon="13.4148899"><ele>498.4</ele><time>2026-04-12T08:28:45.033Z</time></trkpt><trkpt lat="43.053969" lon="13.4150117"><ele>499.0</ele><time>2026-04-12T08:28:46.052Z</time></trkpt><trkpt lat="43.053959" lon="13.4151273"><ele>499.0</ele><time>2026-04-12T08:28:47.066Z</time></trkpt><trkpt lat="43.0539489" lon="13.4152346"><ele>499.0</ele><time>2026-04-12T08:28:48.064Z</time></trkpt><trkpt lat="43.0539567" lon="13.4153297"><ele>499.0</ele><time>2026-04-12T08:28:49.015Z</time></trkpt><trkpt lat="43.0540388" lon="13.4154405"><ele>499.0</ele><time>2026-04-12T08:28:51.047Z</time></trkpt><trkpt lat="43.0541561" lon="13.4154203"><ele>499.0</ele><time>2026-04-12T08:28:53.019Z</time></trkpt><trkpt lat="43.0542215" lon="13.4153368"><ele>504.2</ele><time>2026-04-12T08:28:54.04Z</time></trkpt><trkpt lat="43.0542954" lon="13.4152487"><ele>509.4</ele><time>2026-04-12T08:28:55.015Z</time></trkpt><trkpt lat="43.0543691" lon="13.4151862"><ele>514.6</ele><time>2026-04-12T08:28:56.051Z</time></trkpt><trkpt lat="43.0544553" lon="13.4151706"><ele>519.8</ele><time>2026-04-12T08:28:57.046Z</time></trkpt><trkpt lat="43.0545499" lon="13.4152014"><ele>525.0</ele><time>2026-04-12T08:28:58.058Z</time></trkpt><trkpt lat="43.0546412" lon="13.415267"><ele>525.0</ele><time>2026-04-12T08:28:59.042Z</time></trkpt><trkpt lat="43.0547619" lon="13.4153575"><ele>525.0</ele><time>2026-04-12T08:29:00.029Z</time></trkpt><trkpt lat="43.0549038" lon="13.4154507"><ele>525.0</ele><time>2026-04-12T08:29:01.054Z</time></trkpt><trkpt lat="43.0550587" lon="13.4155488"><ele>530.0</ele><time>2026-04-12T08:29:02.054Z</time></trkpt><trkpt lat="43.0551802" lon="13.4156336"><ele>535.0</ele><time>2026-04-12T08:29:03.045Z</time></trkpt><trkpt lat="43.0552531" lon="13.4156841"><ele>540.0</ele><time>2026-04-12T08:29:04.042Z</time></trkpt><trkpt lat="43.0553416" lon="13.4157295"><ele>545.0</ele><time>2026-04-12T08:29:06.042Z</time></trkpt><trkpt lat="43.055411" lon="13.415684"><ele>550.0</ele><time>2026-04-12T08:29:09.048Z</time></trkpt><trkpt lat="43.0554546" lon="13.4155913"><ele>548.4</ele><time>2026-04-12T08:29:10.028Z</time></trkpt><trkpt lat="43.0554671" lon="13.4154727"><ele>546.8</ele><time>2026-04-12T08:29:11.031Z</time></trkpt><trkpt lat="43.0554665" lon="13.4153141"><ele>545.2</ele><time>2026-04-12T08:29:12.032Z</time></trkpt><trkpt lat="43.0554755" lon="13.4151432"><ele>543.6</ele><time>2026-04-12T08:29:13.042Z</time></trkpt><trkpt lat="43.0554794" lon="13.4149818"><ele>542.0</ele><time>2026-04-12T08:29:14.041Z</time></trkpt><trkpt lat="43.0554844" lon="13.4148365"><ele>542.0</ele><time>2026-04-12T08:29:15.038Z</time></trkpt><trkpt lat="43.0555031" lon="13.4147074"><ele>542.0</ele><time>2026-04-12T08:29:16.026Z</time></trkpt><trkpt lat="43.0555439" lon="13.4145805"><ele>542.0</ele><time>2026-04-12T08:29:17.057Z</time></trkpt><trkpt lat="43.0556072" lon="13.4144772"><ele>542.0</ele><time>2026-04-12T08:29:18.065Z</time></trkpt><trkpt lat="43.0557233" lon="13.4143923"><ele>542.0</ele><time>2026-04-12T08:29:19.064Z</time></trkpt><trkpt lat="43.0558508" lon="13.4143121"><ele>542.25</ele><time>2026-04-12T08:29:19.996Z</time></trkpt><trkpt lat="43.0559657" lon="13.4142281"><ele>542.5</ele><time>2026-04-12T08:29:21.046Z</time></trkpt><trkpt lat="43.056082" lon="13.414153"><ele>542.75</ele><time>2026-04-12T08:29:22.05Z</time></trkpt><trkpt lat="43.0561877" lon="13.4140631"><ele>543.0</ele><time>2026-04-12T08:29:23.042Z</time></trkpt><trkpt lat="43.0562768" lon="13.4139466"><ele>538.25</ele><time>2026-04-12T08:29:24.064Z</time></trkpt><trkpt lat="43.0563478" lon="13.4138083"><ele>533.5</ele><time>2026-04-12T08:29:25.041Z</time></trkpt><trkpt lat="43.056402" lon="13.4136393"><ele>528.75</ele><time>2026-04-12T08:29:26.049Z</time></trkpt><trkpt lat="43.056438" lon="13.4134415"><ele>524.0</ele><time>2026-04-12T08:29:27.036Z</time></trkpt><trkpt lat="43.0564706" lon="13.4132585"><ele>524.0</ele><time>2026-04-12T08:29:28.062Z</time></trkpt><trkpt lat="43.056494" lon="13.4130864"><ele>524.0</ele><time>2026-04-12T08:29:29.023Z</time></trkpt><trkpt lat="43.056525" lon="13.412906"><ele>524.0</ele><time>2026-04-12T08:29:30.034Z</time></trkpt><trkpt lat="43.0565636" lon="13.4127134"><ele>524.0</ele><time>2026-04-12T08:29:31.059Z</time></trkpt><trkpt lat="43.0565964" lon="13.4125263"><ele>525.75</ele><time>2026-04-12T08:29:32.042Z</time></trkpt><trkpt lat="43.0566277" lon="13.4123473"><ele>527.5</ele><time>2026-04-12T08:29:33.045Z</time></trkpt><trkpt lat="43.0566507" lon="13.4121693"><ele>529.25</ele><time>2026-04-12T08:29:34.041Z</time></trkpt><trkpt lat="43.0566651" lon="13.4119916"><ele>531.0</ele><time>2026-04-12T08:29:35.042Z</time></trkpt><trkpt lat="43.0566553" lon="13.411805"><ele>531.0</ele><time>2026-04-12T08:29:36.058Z</time></trkpt><trkpt lat="43.0566368" lon="13.411613"><ele>531.0</ele><time>2026-04-12T08:29:37.059Z</time></trkpt><trkpt lat="43.0566017" lon="13.411428"><ele>531.0</ele><time>2026-04-12T08:29:38.05Z</time></trkpt><trkpt lat="43.0565664" lon="13.4112473"><ele>531.0</ele><time>2026-04-12T08:29:39.041Z</time></trkpt><trkpt lat="43.0565189" lon="13.4110827"><ele>529.5</ele><time>2026-04-12T08:29:40.047Z</time></trkpt><trkpt lat="43.0564477" lon="13.4109159"><ele>528.0</ele><time>2026-04-12T08:29:41.039Z</time></trkpt><trkpt lat="43.0563621" lon="13.4107602"><ele>526.5</ele><time>2026-04-12T08:29:41.986Z</time></trkpt><trkpt lat="43.0562816" lon="13.4105908"><ele>525.0</ele><time>2026-04-12T08:29:42.98Z</time></trkpt><trkpt lat="43.0562059" lon="13.4104295"><ele>525.0</ele><time>2026-04-12T08:29:43.996Z</time></trkpt><trkpt lat="43.0561574" lon="13.4102675"><ele>525.0</ele><time>2026-04-12T08:29:45.041Z</time></trkpt><trkpt lat="43.0561331" lon="13.4100992"><ele>525.0</ele><time>2026-04-12T08:29:46.05Z</time></trkpt><trkpt lat="43.0561225" lon="13.4099315"><ele>525.0</ele><time>2026-04-12T08:29:47.052Z</time></trkpt><trkpt lat="43.056126" lon="13.4097464"><ele>526.25</ele><time>2026-04-12T08:29:48.043Z</time></trkpt><trkpt lat="43.0561404" lon="13.4095689"><ele>527.5</ele><time>2026-04-12T08:29:49.06Z</time></trkpt><trkpt lat="43.0561529" lon="13.4093686"><ele>528.75</ele><time>2026-04-12T08:29:50.047Z</time></trkpt><trkpt lat="43.0561665" lon="13.4091689"><ele>530.0</ele><time>2026-04-12T08:29:51.067Z</time></trkpt><trkpt lat="43.0561737" lon="13.4089589"><ele>526.6666666666666</ele><time>2026-04-12T08:29:52.056Z</time></trkpt><trkpt lat="43.0561851" lon="13.4087527"><ele>523.3333333333334</ele><time>2026-04-12T08:29:53.045Z</time></trkpt><trkpt lat="43.0561983" lon="13.4085321"><ele>520.0</ele><time>2026-04-12T08:29:54.044Z</time></trkpt><trkpt lat="43.0562126" lon="13.4083039"><ele>520.0</ele><time>2026-04-12T08:29:55.047Z</time></trkpt><trkpt lat="43.0562255" lon="13.4080729"><ele>520.0</ele><time>2026-04-12T08:29:56.049Z</time></trkpt><trkpt lat="43.0562342" lon="13.407869"><ele>520.0</ele><time>2026-04-12T08:29:57.043Z</time></trkpt><trkpt lat="43.0562363" lon="13.4076697"><ele>517.75</ele><time>2026-04-12T08:29:58.046Z</time></trkpt><trkpt lat="43.0562345" lon="13.407472"><ele>515.5</ele><time>2026-04-12T08:29:59.038Z</time></trkpt><trkpt lat="43.0562131" lon="13.4072867"><ele>513.25</ele><time>2026-04-12T08:30:00.037Z</time></trkpt><trkpt lat="43.0561665" lon="13.4071023"><ele>511.0</ele><time>2026-04-12T08:30:01.023Z</time></trkpt><trkpt lat="43.056103" lon="13.4069142"><ele>511.0</ele><time>2026-04-12T08:30:02.048Z</time></trkpt><trkpt lat="43.0560314" lon="13.4067363"><ele>511.0</ele><time>2026-04-12T08:30:03.007Z</time></trkpt><trkpt lat="43.0559649" lon="13.4065437"><ele>511.0</ele><time>2026-04-12T08:30:04.042Z</time></trkpt><trkpt lat="43.0559007" lon="13.4063479"><ele>510.33333333333337</ele><time>2026-04-12T08:30:05.044Z</time></trkpt><trkpt lat="43.0558466" lon="13.4061428"><ele>509.66666666666663</ele><time>2026-04-12T08:30:06.024Z</time></trkpt><trkpt lat="43.0557945" lon="13.4059343"><ele>509.0</ele><time>2026-04-12T08:30:07.039Z</time></trkpt><trkpt lat="43.0557492" lon="13.405732"><ele>503.75</ele><time>2026-04-12T08:30:08.038Z</time></trkpt><trkpt lat="43.0557067" lon="13.4055267"><ele>498.5</ele><time>2026-04-12T08:30:09.056Z</time></trkpt><trkpt lat="43.0556649" lon="13.4053332"><ele>493.25</ele><time>2026-04-12T08:30:10.056Z</time></trkpt><trkpt lat="43.0556215" lon="13.4051534"><ele>488.0</ele><time>2026-04-12T08:30:11.047Z</time></trkpt><trkpt lat="43.055593" lon="13.4049845"><ele>488.0</ele><time>2026-04-12T08:30:12.053Z</time></trkpt><trkpt lat="43.0555857" lon="13.4048282"><ele>488.0</ele><time>2026-04-12T08:30:13.057Z</time></trkpt><trkpt lat="43.0556047" lon="13.4046783"><ele>488.0</ele><time>2026-04-12T08:30:14.055Z</time></trkpt><trkpt lat="43.0556391" lon="13.4045255"><ele>488.0</ele><time>2026-04-12T08:30:15.054Z</time></trkpt><trkpt lat="43.0557137" lon="13.404387"><ele>489.0</ele><time>2026-04-12T08:30:16.056Z</time></trkpt><trkpt lat="43.055789" lon="13.4042354"><ele>490.0</ele><time>2026-04-12T08:30:16.999Z</time></trkpt><trkpt lat="43.0558674" lon="13.4040863"><ele>491.0</ele><time>2026-04-12T08:30:18.049Z</time></trkpt><trkpt lat="43.0559416" lon="13.4039157"><ele>492.0</ele><time>2026-04-12T08:30:19.046Z</time></trkpt><trkpt lat="43.0560266" lon="13.4037521"><ele>492.0</ele><time>2026-04-12T08:30:20.063Z</time></trkpt><trkpt lat="43.0561067" lon="13.4035887"><ele>492.0</ele><time>2026-04-12T08:30:21.057Z</time></trkpt><trkpt lat="43.0561936" lon="13.4034232"><ele>492.0</ele><time>2026-04-12T08:30:22.051Z</time></trkpt><trkpt lat="43.0562779" lon="13.4032543"><ele>492.0</ele><time>2026-04-12T08:30:23.021Z</time></trkpt><trkpt lat="43.0563634" lon="13.4030769"><ele>489.66666666666663</ele><time>2026-04-12T08:30:24.06Z</time></trkpt><trkpt lat="43.0564447" lon="13.4028985"><ele>487.3333333333333</ele><time>2026-04-12T08:30:25.001Z</time></trkpt><trkpt lat="43.0565208" lon="13.4027105"><ele>485.0</ele><time>2026-04-12T08:30:26.053Z</time></trkpt><trkpt lat="43.0565864" lon="13.4025194"><ele>486.3333333333333</ele><time>2026-04-12T08:30:27.057Z</time></trkpt><trkpt lat="43.0566481" lon="13.4023182"><ele>487.66666666666663</ele><time>2026-04-12T08:30:28.06Z</time></trkpt><trkpt lat="43.0567054" lon="13.4021199"><ele>489.0</ele><time>2026-04-12T08:30:29.054Z</time></trkpt><trkpt lat="43.0567635" lon="13.4019147"><ele>488.75</ele><time>2026-04-12T08:30:30.048Z</time></trkpt><trkpt lat="43.0568231" lon="13.401715"><ele>488.5</ele><time>2026-04-12T08:30:31.059Z</time></trkpt><trkpt lat="43.0568706" lon="13.4015246"><ele>488.25</ele><time>2026-04-12T08:30:32.067Z</time></trkpt><trkpt lat="43.0569173" lon="13.4013378"><ele>488.0</ele><time>2026-04-12T08:30:33.065Z</time></trkpt><trkpt lat="43.056965" lon="13.4011569"><ele>488.0</ele><time>2026-04-12T08:30:34.079Z</time></trkpt><trkpt lat="43.057019" lon="13.4009833"><ele>488.0</ele><time>2026-04-12T08:30:35.06Z</time></trkpt><trkpt lat="43.0570793" lon="13.4008267"><ele>488.0</ele><time>2026-04-12T08:30:36.05Z</time></trkpt><trkpt lat="43.0571485" lon="13.4007016"><ele>488.0</ele><time>2026-04-12T08:30:37.046Z</time></trkpt><trkpt lat="43.0572278" lon="13.4005984"><ele>486.79999999999995</ele><time>2026-04-12T08:30:38.043Z</time></trkpt><trkpt lat="43.0573074" lon="13.4004975"><ele>485.59999999999997</ele><time>2026-04-12T08:30:39.05Z</time></trkpt><trkpt lat="43.057377" lon="13.4004041"><ele>484.40000000000003</ele><time>2026-04-12T08:30:40.033Z</time></trkpt><trkpt lat="43.0574472" lon="13.4003153"><ele>483.20000000000005</ele><time>2026-04-12T08:30:41.051Z</time></trkpt><trkpt lat="43.0575188" lon="13.4002209"><ele>482.0</ele><time>2026-04-12T08:30:42.053Z</time></trkpt><trkpt lat="43.057597" lon="13.4001112"><ele>484.5</ele><time>2026-04-12T08:30:43.04Z</time></trkpt><trkpt lat="43.0576718" lon="13.399993"><ele>487.0</ele><time>2026-04-12T08:30:44.043Z</time></trkpt><trkpt lat="43.0577456" lon="13.3998601"><ele>489.5</ele><time>2026-04-12T08:30:45.06Z</time></trkpt><trkpt lat="43.0578101" lon="13.3997125"><ele>492.0</ele><time>2026-04-12T08:30:46.048Z</time></trkpt><trkpt lat="43.0578689" lon="13.3995507"><ele>492.0</ele><time>2026-04-12T08:30:47.033Z</time></trkpt><trkpt lat="43.0579142" lon="13.3993864"><ele>492.0</ele><time>2026-04-12T08:30:48.062Z</time></trkpt><trkpt lat="43.0579535" lon="13.3992165"><ele>492.0</ele><time>2026-04-12T08:30:49.059Z</time></trkpt><trkpt lat="43.0579885" lon="13.3990366"><ele>492.0</ele><time>2026-04-12T08:30:50.053Z</time></trkpt><trkpt lat="43.0580159" lon="13.3988513"><ele>492.0</ele><time>2026-04-12T08:30:51.041Z</time></trkpt><trkpt lat="43.0580346" lon="13.3986669"><ele>492.0</ele><time>2026-04-12T08:30:52.054Z</time></trkpt><trkpt lat="43.0580466" lon="13.3984681"><ele>492.0</ele><time>2026-04-12T08:30:53.028Z</time></trkpt><trkpt lat="43.0580601" lon="13.3982699"><ele>492.0</ele><time>2026-04-12T08:30:54.03Z</time></trkpt><trkpt lat="43.0580685" lon="13.398062"><ele>492.5</ele><time>2026-04-12T08:30:55.038Z</time></trkpt><trkpt lat="43.0580766" lon="13.397865"><ele>493.0</ele><time>2026-04-12T08:30:56.046Z</time></trkpt><trkpt lat="43.0580896" lon="13.3976752"><ele>493.5</ele><time>2026-04-12T08:30:57.019Z</time></trkpt><trkpt lat="43.0581013" lon="13.3974914"><ele>494.0</ele><time>2026-04-12T08:30:58.037Z</time></trkpt><trkpt lat="43.058115" lon="13.3973128"><ele>494.79999999999995</ele><time>2026-04-12T08:30:59.033Z</time></trkpt><trkpt lat="43.0581194" lon="13.3971491"><ele>495.59999999999997</ele><time>2026-04-12T08:31:00.05Z</time></trkpt><trkpt lat="43.0581238" lon="13.397012"><ele>496.4</ele><time>2026-04-12T08:31:01.048Z</time></trkpt><trkpt lat="43.0581213" lon="13.396889"><ele>497.2</ele><time>2026-04-12T08:31:02.042Z</time></trkpt><trkpt lat="43.0581261" lon="13.3967844"><ele>498.0</ele><time>2026-04-12T08:31:03.046Z</time></trkpt><trkpt lat="43.0581112" lon="13.3966529"><ele>498.0</ele><time>2026-04-12T08:31:05.045Z</time></trkpt><trkpt lat="43.0580285" lon="13.3965803"><ele>498.0</ele><time>2026-04-12T08:31:07.053Z</time></trkpt><trkpt lat="43.0579191" lon="13.3964405"><ele>498.0</ele><time>2026-04-12T08:31:09.05Z</time></trkpt><trkpt lat="43.0578443" lon="13.3963483"><ele>498.0</ele><time>2026-04-12T08:31:10.059Z</time></trkpt><trkpt lat="43.0577576" lon="13.3962391"><ele>496.75</ele><time>2026-04-12T08:31:11.068Z</time></trkpt><trkpt lat="43.0576575" lon="13.3961346"><ele>495.5</ele><time>2026-04-12T08:31:12.06Z</time></trkpt><trkpt lat="43.0575537" lon="13.3960164"><ele>494.25</ele><time>2026-04-12T08:31:13.05Z</time></trkpt><trkpt lat="43.0574518" lon="13.3958938"><ele>493.0</ele><time>2026-04-12T08:31:14.052Z</time></trkpt><trkpt lat="43.0573322" lon="13.3957565"><ele>493.0</ele><time>2026-04-12T08:31:15.044Z</time></trkpt><trkpt lat="43.0572062" lon="13.3955968"><ele>493.0</ele><time>2026-04-12T08:31:16.055Z</time></trkpt><trkpt lat="43.0570805" lon="13.3954422"><ele>493.0</ele><time>2026-04-12T08:31:17.046Z</time></trkpt><trkpt lat="43.0569581" lon="13.3952781"><ele>494.33333333333337</ele><time>2026-04-12T08:31:18.071Z</time></trkpt><trkpt lat="43.0568346" lon="13.395121"><ele>495.66666666666663</ele><time>2026-04-12T08:31:19.043Z</time></trkpt><trkpt lat="43.0567057" lon="13.3949694"><ele>497.0</ele><time>2026-04-12T08:31:20.067Z</time></trkpt><trkpt lat="43.0565833" lon="13.3948117"><ele>495.66666666666663</ele><time>2026-04-12T08:31:20.986Z</time></trkpt><trkpt lat="43.0564791" lon="13.3946617"><ele>494.33333333333337</ele><time>2026-04-12T08:31:22.076Z</time></trkpt><trkpt lat="43.0563708" lon="13.3945155"><ele>493.0</ele><time>2026-04-12T08:31:23.047Z</time></trkpt><trkpt lat="43.0562571" lon="13.3943649"><ele>493.0</ele><time>2026-04-12T08:31:24.031Z</time></trkpt><trkpt lat="43.0561441" lon="13.3942308"><ele>493.0</ele><time>2026-04-12T08:31:25.06Z</time></trkpt><trkpt lat="43.0560287" lon="13.394106"><ele>493.0</ele><time>2026-04-12T08:31:26.05Z</time></trkpt><trkpt lat="43.0559184" lon="13.3939813"><ele>493.0</ele><time>2026-04-12T08:31:27.064Z</time></trkpt><trkpt lat="43.0558093" lon="13.3938418"><ele>493.25</ele><time>2026-04-12T08:31:28.063Z</time></trkpt><trkpt lat="43.0557105" lon="13.3937089"><ele>493.5</ele><time>2026-04-12T08:31:29.054Z</time></trkpt><trkpt lat="43.0556234" lon="13.393568"><ele>493.75</ele><time>2026-04-12T08:31:30.066Z</time></trkpt><trkpt lat="43.05553" lon="13.3934269"><ele>494.0</ele><time>2026-04-12T08:31:31.068Z</time></trkpt><trkpt lat="43.0554275" lon="13.3932799"><ele>494.0</ele><time>2026-04-12T08:31:32.091Z</time></trkpt><trkpt lat="43.0553193" lon="13.3931453"><ele>494.0</ele><time>2026-04-12T08:31:33.06Z</time></trkpt><trkpt lat="43.0552159" lon="13.3930057"><ele>494.0</ele><time>2026-04-12T08:31:34.071Z</time></trkpt><trkpt lat="43.055125" lon="13.3928761"><ele>494.0</ele><time>2026-04-12T08:31:35.059Z</time></trkpt><trkpt lat="43.055041" lon="13.3927662"><ele>494.2</ele><time>2026-04-12T08:31:36.04Z</time></trkpt><trkpt lat="43.0549616" lon="13.3926502"><ele>494.4</ele><time>2026-04-12T08:31:37.068Z</time></trkpt><trkpt lat="43.0548919" lon="13.3925504"><ele>494.6</ele><time>2026-04-12T08:31:38.074Z</time></trkpt><trkpt lat="43.0548295" lon="13.3924357"><ele>494.8</ele><time>2026-04-12T08:31:39.009Z</time></trkpt><trkpt lat="43.0547661" lon="13.3923226"><ele>495.0</ele><time>2026-04-12T08:31:40.031Z</time></trkpt><trkpt lat="43.0546998" lon="13.392228"><ele>495.8</ele><time>2026-04-12T08:31:41.027Z</time></trkpt><trkpt lat="43.0546224" lon="13.3921486"><ele>496.6</ele><time>2026-04-12T08:31:42.04Z</time></trkpt><trkpt lat="43.0545347" lon="13.3920787"><ele>497.4</ele><time>2026-04-12T08:31:43.019Z</time></trkpt><trkpt lat="43.0544436" lon="13.3919999"><ele>498.2</ele><time>2026-04-12T08:31:44.04Z</time></trkpt><trkpt lat="43.0543568" lon="13.3919382"><ele>499.0</ele><time>2026-04-12T08:31:45.036Z</time></trkpt><trkpt lat="43.05427" lon="13.3918699"><ele>499.0</ele><time>2026-04-12T08:31:46.042Z</time></trkpt><trkpt lat="43.0541882" lon="13.3917932"><ele>499.0</ele><time>2026-04-12T08:31:47.043Z</time></trkpt><trkpt lat="43.0540963" lon="13.3917196"><ele>499.0</ele><time>2026-04-12T08:31:48.05Z</time></trkpt><trkpt lat="43.0540069" lon="13.3916577"><ele>499.0</ele><time>2026-04-12T08:31:49.054Z</time></trkpt><trkpt lat="43.0539085" lon="13.3916165"><ele>499.0</ele><time>2026-04-12T08:31:50Z</time></trkpt><trkpt lat="43.0538032" lon="13.39158"><ele>500.25</ele><time>2026-04-12T08:31:51.053Z</time></trkpt><trkpt lat="43.0536922" lon="13.3915452"><ele>501.5</ele><time>2026-04-12T08:31:52.065Z</time></trkpt><trkpt lat="43.0535795" lon="13.3914811"><ele>502.75</ele><time>2026-04-12T08:31:53.055Z</time></trkpt><trkpt lat="43.053474" lon="13.3914059"><ele>504.0</ele><time>2026-04-12T08:31:54.033Z</time></trkpt><trkpt lat="43.0533648" lon="13.3913392"><ele>504.75</ele><time>2026-04-12T08:31:55.042Z</time></trkpt><trkpt lat="43.0532447" lon="13.39127"><ele>505.5</ele><time>2026-04-12T08:31:56.051Z</time></trkpt><trkpt lat="43.0531281" lon="13.3912173"><ele>506.25</ele><time>2026-04-12T08:31:57.063Z</time></trkpt><trkpt lat="43.0530135" lon="13.3911666"><ele>507.0</ele><time>2026-04-12T08:31:58.043Z</time></trkpt><trkpt lat="43.0528988" lon="13.391133"><ele>507.0</ele><time>2026-04-12T08:31:59.052Z</time></trkpt><trkpt lat="43.0527871" lon="13.391106"><ele>507.0</ele><time>2026-04-12T08:32:00.032Z</time></trkpt><trkpt lat="43.0526736" lon="13.3910866"><ele>507.0</ele><time>2026-04-12T08:32:01.058Z</time></trkpt><trkpt lat="43.0525504" lon="13.3910723"><ele>507.0</ele><time>2026-04-12T08:32:02.046Z</time></trkpt><trkpt lat="43.0524251" lon="13.3910488"><ele>505.75</ele><time>2026-04-12T08:32:03.054Z</time></trkpt><trkpt lat="43.0522853" lon="13.3910298"><ele>504.5</ele><time>2026-04-12T08:32:04.025Z</time></trkpt><trkpt lat="43.0521493" lon="13.3910188"><ele>503.25</ele><time>2026-04-12T08:32:05.038Z</time></trkpt><trkpt lat="43.0520243" lon="13.3910127"><ele>502.0</ele><time>2026-04-12T08:32:06.054Z</time></trkpt><trkpt lat="43.0519128" lon="13.3910084"><ele>502.0</ele><time>2026-04-12T08:32:07.058Z</time></trkpt><trkpt lat="43.0518026" lon="13.3910081"><ele>502.00000000000006</ele><time>2026-04-12T08:32:08.062Z</time></trkpt><trkpt lat="43.0516924" lon="13.39101"><ele>502.00000000000006</ele><time>2026-04-12T08:32:09.051Z</time></trkpt><trkpt lat="43.0515982" lon="13.3910201"><ele>502.0</ele><time>2026-04-12T08:32:10.04Z</time></trkpt><trkpt lat="43.051515" lon="13.3910411"><ele>502.0</ele><time>2026-04-12T08:32:11.049Z</time></trkpt><trkpt lat="43.0514346" lon="13.3910583"><ele>501.1666666666667</ele><time>2026-04-12T08:32:12.057Z</time></trkpt><trkpt lat="43.0513577" lon="13.3910878"><ele>500.33333333333337</ele><time>2026-04-12T08:32:13.025Z</time></trkpt><trkpt lat="43.051278" lon="13.3910948"><ele>499.5</ele><time>2026-04-12T08:32:14.022Z</time></trkpt><trkpt lat="43.0511951" lon="13.3910854"><ele>498.66666666666663</ele><time>2026-04-12T08:32:15.047Z</time></trkpt><trkpt lat="43.0511149" lon="13.3910749"><ele>497.8333333333333</ele><time>2026-04-12T08:32:16.033Z</time></trkpt><trkpt lat="43.0510213" lon="13.3910703"><ele>497.0</ele><time>2026-04-12T08:32:17.047Z</time></trkpt><trkpt lat="43.0509333" lon="13.3910978"><ele>497.0</ele><time>2026-04-12T08:32:18.06Z</time></trkpt><trkpt lat="43.0508493" lon="13.3911453"><ele>497.00000000000006</ele><time>2026-04-12T08:32:19.053Z</time></trkpt><trkpt lat="43.0507769" lon="13.3912404"><ele>497.00000000000006</ele><time>2026-04-12T08:32:20.057Z</time></trkpt><trkpt lat="43.0507048" lon="13.3913554"><ele>497.0</ele><time>2026-04-12T08:32:21.023Z</time></trkpt><trkpt lat="43.0506404" lon="13.3914773"><ele>497.0</ele><time>2026-04-12T08:32:21.978Z</time></trkpt><trkpt lat="43.0505715" lon="13.3916038"><ele>492.5</ele><time>2026-04-12T08:32:23.048Z</time></trkpt><trkpt lat="43.0505138" lon="13.3917315"><ele>488.0</ele><time>2026-04-12T08:32:24.054Z</time></trkpt><trkpt lat="43.0504658" lon="13.3918733"><ele>483.5</ele><time>2026-04-12T08:32:25.055Z</time></trkpt><trkpt lat="43.0504156" lon="13.3920174"><ele>479.0</ele><time>2026-04-12T08:32:26.052Z</time></trkpt><trkpt lat="43.0503537" lon="13.3921614"><ele>476.2</ele><time>2026-04-12T08:32:27.036Z</time></trkpt><trkpt lat="43.0502956" lon="13.3923003"><ele>473.4</ele><time>2026-04-12T08:32:28.033Z</time></trkpt><trkpt lat="43.0502352" lon="13.3924331"><ele>470.6</ele><time>2026-04-12T08:32:29.015Z</time></trkpt><trkpt lat="43.0501868" lon="13.3925623"><ele>467.8</ele><time>2026-04-12T08:32:30.031Z</time></trkpt><trkpt lat="43.0501541" lon="13.3926934"><ele>465.0</ele><time>2026-04-12T08:32:31.038Z</time></trkpt><trkpt lat="43.0501283" lon="13.3928132"><ele>465.0</ele><time>2026-04-12T08:32:32.044Z</time></trkpt><trkpt lat="43.0501085" lon="13.3929186"><ele>465.0</ele><time>2026-04-12T08:32:33.032Z</time></trkpt><trkpt lat="43.0500762" lon="13.3930184"><ele>465.0</ele><time>2026-04-12T08:32:34.039Z</time></trkpt><trkpt lat="43.0500155" lon="13.3930908"><ele>465.0</ele><time>2026-04-12T08:32:35.056Z</time></trkpt><trkpt lat="43.0499284" lon="13.3931306"><ele>465.0</ele><time>2026-04-12T08:32:36.047Z</time></trkpt><trkpt lat="43.0498309" lon="13.3931595"><ele>465.0</ele><time>2026-04-12T08:32:37.038Z</time></trkpt><trkpt lat="43.0497127" lon="13.3931917"><ele>462.0</ele><time>2026-04-12T08:32:38.034Z</time></trkpt><trkpt lat="43.0495929" lon="13.3932351"><ele>459.0</ele><time>2026-04-12T08:32:39.028Z</time></trkpt><trkpt lat="43.0494844" lon="13.3932806"><ele>456.0</ele><time>2026-04-12T08:32:40.057Z</time></trkpt><trkpt lat="43.0493774" lon="13.3933204"><ele>453.0</ele><time>2026-04-12T08:32:41.03Z</time></trkpt><trkpt lat="43.0492798" lon="13.3933253"><ele>450.0</ele><time>2026-04-12T08:32:42.054Z</time></trkpt><trkpt lat="43.0491817" lon="13.3933018"><ele>449.6</ele><time>2026-04-12T08:32:43.031Z</time></trkpt><trkpt lat="43.0490925" lon="13.3932861"><ele>449.2</ele><time>2026-04-12T08:32:44.041Z</time></trkpt><trkpt lat="43.0490055" lon="13.3932565"><ele>448.79999999999995</ele><time>2026-04-12T08:32:45.026Z</time></trkpt><trkpt lat="43.0488984" lon="13.3932337"><ele>448.4</ele><time>2026-04-12T08:32:46.041Z</time></trkpt><trkpt lat="43.0487999" lon="13.3931957"><ele>448.0</ele><time>2026-04-12T08:32:47.059Z</time></trkpt><trkpt lat="43.0487018" lon="13.3931647"><ele>448.0</ele><time>2026-04-12T08:32:48.049Z</time></trkpt><trkpt lat="43.0486089" lon="13.393135"><ele>447.99999999999994</ele><time>2026-04-12T08:32:49.057Z</time></trkpt><trkpt lat="43.048523" lon="13.3930955"><ele>447.99999999999994</ele><time>2026-04-12T08:32:50.052Z</time></trkpt><trkpt lat="43.0484399" lon="13.3930425"><ele>448.0</ele><time>2026-04-12T08:32:51.048Z</time></trkpt><trkpt lat="43.048357" lon="13.3929739"><ele>448.0</ele><time>2026-04-12T08:32:52.036Z</time></trkpt><trkpt lat="43.0482857" lon="13.392891"><ele>448.0</ele><time>2026-04-12T08:32:53.042Z</time></trkpt><trkpt lat="43.0482157" lon="13.3928035"><ele>447.99999999999994</ele><time>2026-04-12T08:32:54.045Z</time></trkpt><trkpt lat="43.048159" lon="13.3927165"><ele>447.99999999999994</ele><time>2026-04-12T08:32:55.042Z</time></trkpt><trkpt lat="43.0481188" lon="13.3926068"><ele>448.0</ele><time>2026-04-12T08:32:56.053Z</time></trkpt><trkpt lat="43.0480865" lon="13.3924839"><ele>448.0</ele><time>2026-04-12T08:32:57.04Z</time></trkpt><trkpt lat="43.0480541" lon="13.3923611"><ele>448.0</ele><time>2026-04-12T08:32:58.048Z</time></trkpt><trkpt lat="43.0480249" lon="13.392221"><ele>447.99999999999994</ele><time>2026-04-12T08:32:59.036Z</time></trkpt><trkpt lat="43.0479949" lon="13.3920846"><ele>447.99999999999994</ele><time>2026-04-12T08:33:00.057Z</time></trkpt><trkpt lat="43.0479618" lon="13.3919508"><ele>448.0</ele><time>2026-04-12T08:33:01.055Z</time></trkpt><trkpt lat="43.0479102" lon="13.3918281"><ele>448.0</ele><time>2026-04-12T08:33:02.037Z</time></trkpt><trkpt lat="43.04785" lon="13.3917155"><ele>449.59999999999997</ele><time>2026-04-12T08:33:03.042Z</time></trkpt><trkpt lat="43.0477783" lon="13.3916136"><ele>451.19999999999993</ele><time>2026-04-12T08:33:04.042Z</time></trkpt><trkpt lat="43.0476843" lon="13.3915252"><ele>452.8</ele><time>2026-04-12T08:33:05.004Z</time></trkpt><trkpt lat="43.0475896" lon="13.3914428"><ele>454.4</ele><time>2026-04-12T08:33:06.042Z</time></trkpt><trkpt lat="43.0474947" lon="13.3913535"><ele>456.0</ele><time>2026-04-12T08:33:07.056Z</time></trkpt><trkpt lat="43.0474025" lon="13.3912707"><ele>456.5</ele><time>2026-04-12T08:33:08.047Z</time></trkpt><trkpt lat="43.0473114" lon="13.391189"><ele>457.0</ele><time>2026-04-12T08:33:09.049Z</time></trkpt><trkpt lat="43.0472261" lon="13.3911031"><ele>457.5</ele><time>2026-04-12T08:33:10.043Z</time></trkpt><trkpt lat="43.0471379" lon="13.390993"><ele>458.0</ele><time>2026-04-12T08:33:11.012Z</time></trkpt><trkpt lat="43.047048" lon="13.3908651"><ele>458.0</ele><time>2026-04-12T08:33:12.044Z</time></trkpt><trkpt lat="43.0469642" lon="13.3907259"><ele>458.0</ele><time>2026-04-12T08:33:13.026Z</time></trkpt><trkpt lat="43.0468737" lon="13.3905955"><ele>458.0</ele><time>2026-04-12T08:33:14.013Z</time></trkpt><trkpt lat="43.0467954" lon="13.3904707"><ele>458.0</ele><time>2026-04-12T08:33:15.017Z</time></trkpt><trkpt lat="43.0467277" lon="13.3903626"><ele>458.4</ele><time>2026-04-12T08:33:16.052Z</time></trkpt><trkpt lat="43.0466539" lon="13.3902782"><ele>458.79999999999995</ele><time>2026-04-12T08:33:17.059Z</time></trkpt><trkpt lat="43.0465737" lon="13.3902114"><ele>459.2</ele><time>2026-04-12T08:33:18.061Z</time></trkpt><trkpt lat="43.0464931" lon="13.3901548"><ele>459.6</ele><time>2026-04-12T08:33:19.053Z</time></trkpt><trkpt lat="43.046416" lon="13.3900964"><ele>460.0</ele><time>2026-04-12T08:33:20.069Z</time></trkpt><trkpt lat="43.0463485" lon="13.3900252"><ele>460.00000000000006</ele><time>2026-04-12T08:33:21.047Z</time></trkpt><trkpt lat="43.046304" lon="13.3899545"><ele>460.0</ele><time>2026-04-12T08:33:22.038Z</time></trkpt><trkpt lat="43.0462572" lon="13.3898612"><ele>460.0</ele><time>2026-04-12T08:33:23.052Z</time></trkpt><trkpt lat="43.0462197" lon="13.3897628"><ele>460.0</ele><time>2026-04-12T08:33:24.058Z</time></trkpt><trkpt lat="43.0461825" lon="13.389688"><ele>460.00000000000006</ele><time>2026-04-12T08:33:25.021Z</time></trkpt><trkpt lat="43.0460803" lon="13.3895914"><ele>460.0</ele><time>2026-04-12T08:33:27.053Z</time></trkpt><trkpt lat="43.0460192" lon="13.3895578"><ele>460.4</ele><time>2026-04-12T08:33:28.054Z</time></trkpt><trkpt lat="43.0459459" lon="13.3895242"><ele>460.8</ele><time>2026-04-12T08:33:29.051Z</time></trkpt><trkpt lat="43.045843" lon="13.3894898"><ele>461.20000000000005</ele><time>2026-04-12T08:33:30.067Z</time></trkpt><trkpt lat="43.045734" lon="13.3894639"><ele>461.6</ele><time>2026-04-12T08:33:31.04Z</time></trkpt><trkpt lat="43.0456101" lon="13.3894842"><ele>462.0</ele><time>2026-04-12T08:33:32.048Z</time></trkpt><trkpt lat="43.0454821" lon="13.389501"><ele>462.0</ele><time>2026-04-12T08:33:33.058Z</time></trkpt><trkpt lat="43.0453682" lon="13.389519"><ele>462.00000000000006</ele><time>2026-04-12T08:33:34.043Z</time></trkpt><trkpt lat="43.0452545" lon="13.3895318"><ele>462.00000000000006</ele><time>2026-04-12T08:33:35.015Z</time></trkpt><trkpt lat="43.0451517" lon="13.3895494"><ele>462.0</ele><time>2026-04-12T08:33:36.044Z</time></trkpt><trkpt lat="43.0450743" lon="13.3895695"><ele>462.0</ele><time>2026-04-12T08:33:37.071Z</time></trkpt><trkpt lat="43.0450014" lon="13.3895623"><ele>458.5</ele><time>2026-04-12T08:33:38.02Z</time></trkpt><trkpt lat="43.0449292" lon="13.3895459"><ele>455.0</ele><time>2026-04-12T08:33:39.038Z</time></trkpt><trkpt lat="43.0448614" lon="13.3895209"><ele>451.5</ele><time>2026-04-12T08:33:40.035Z</time></trkpt><trkpt lat="43.0447947" lon="13.3894561"><ele>448.0</ele><time>2026-04-12T08:33:41.045Z</time></trkpt><trkpt lat="43.0447371" lon="13.3893827"><ele>444.5</ele><time>2026-04-12T08:33:42.044Z</time></trkpt><trkpt lat="43.0446672" lon="13.3892857"><ele>441.0</ele><time>2026-04-12T08:33:43.038Z</time></trkpt><trkpt lat="43.0445996" lon="13.3891944"><ele>441.0</ele><time>2026-04-12T08:33:44.069Z</time></trkpt><trkpt lat="43.0445318" lon="13.3891078"><ele>441.0</ele><time>2026-04-12T08:33:45.019Z</time></trkpt><trkpt lat="43.0444626" lon="13.389032"><ele>441.0</ele><time>2026-04-12T08:33:46.036Z</time></trkpt><trkpt lat="43.0443999" lon="13.3889534"><ele>441.0</ele><time>2026-04-12T08:33:47.041Z</time></trkpt><trkpt lat="43.0443287" lon="13.3888674"><ele>441.0</ele><time>2026-04-12T08:33:48.049Z</time></trkpt><trkpt lat="43.0442688" lon="13.3887802"><ele>441.0</ele><time>2026-04-12T08:33:49.055Z</time></trkpt><trkpt lat="43.0442209" lon="13.3886594"><ele>440.4</ele><time>2026-04-12T08:33:50.043Z</time></trkpt><trkpt lat="43.0441854" lon="13.3885389"><ele>439.8</ele><time>2026-04-12T08:33:51.06Z</time></trkpt><trkpt lat="43.0441451" lon="13.3884115"><ele>439.19999999999993</ele><time>2026-04-12T08:33:52.061Z</time></trkpt><trkpt lat="43.044106" lon="13.3882995"><ele>438.59999999999997</ele><time>2026-04-12T08:33:53.062Z</time></trkpt><trkpt lat="43.0440634" lon="13.3881709"><ele>438.0</ele><time>2026-04-12T08:33:54.019Z</time></trkpt><trkpt lat="43.0440266" lon="13.3880417"><ele>432.79999999999995</ele><time>2026-04-12T08:33:55.048Z</time></trkpt><trkpt lat="43.0439851" lon="13.387906"><ele>427.59999999999997</ele><time>2026-04-12T08:33:56.037Z</time></trkpt><trkpt lat="43.0439432" lon="13.3877703"><ele>422.4</ele><time>2026-04-12T08:33:57.051Z</time></trkpt><trkpt lat="43.043907" lon="13.387642"><ele>417.20000000000005</ele><time>2026-04-12T08:33:58.037Z</time></trkpt><trkpt lat="43.0438614" lon="13.3875049"><ele>412.0</ele><time>2026-04-12T08:33:59.043Z</time></trkpt><trkpt lat="43.043815" lon="13.3873806"><ele>412.00000000000006</ele><time>2026-04-12T08:34:00.047Z</time></trkpt><trkpt lat="43.0437719" lon="13.3872622"><ele>412.0</ele><time>2026-04-12T08:34:01.053Z</time></trkpt><trkpt lat="43.0437416" lon="13.387152"><ele>412.0</ele><time>2026-04-12T08:34:02.05Z</time></trkpt><trkpt lat="43.0437184" lon="13.3870361"><ele>412.0</ele><time>2026-04-12T08:34:03.055Z</time></trkpt><trkpt lat="43.0437041" lon="13.3869186"><ele>412.00000000000006</ele><time>2026-04-12T08:34:04.04Z</time></trkpt><trkpt lat="43.0436981" lon="13.3868162"><ele>412.0</ele><time>2026-04-12T08:34:05.039Z</time></trkpt><trkpt lat="43.0436773" lon="13.3867057"><ele>411.1666666666667</ele><time>2026-04-12T08:34:06.016Z</time></trkpt><trkpt lat="43.0436502" lon="13.3865955"><ele>410.33333333333337</ele><time>2026-04-12T08:34:07.002Z</time></trkpt><trkpt lat="43.0436174" lon="13.3864972"><ele>409.5</ele><time>2026-04-12T08:34:08.071Z</time></trkpt><trkpt lat="43.0435822" lon="13.3864156"><ele>408.66666666666663</ele><time>2026-04-12T08:34:09.05Z</time></trkpt><trkpt lat="43.0435452" lon="13.3863451"><ele>407.8333333333333</ele><time>2026-04-12T08:34:10.063Z</time></trkpt><trkpt lat="43.0434898" lon="13.3862719"><ele>407.0</ele><time>2026-04-12T08:34:11.056Z</time></trkpt><trkpt lat="43.0434229" lon="13.3862035"><ele>407.0</ele><time>2026-04-12T08:34:12.038Z</time></trkpt><trkpt lat="43.0433485" lon="13.3861323"><ele>407.0</ele><time>2026-04-12T08:34:13.053Z</time></trkpt><trkpt lat="43.0432746" lon="13.3860595"><ele>407.0</ele><time>2026-04-12T08:34:14.068Z</time></trkpt><trkpt lat="43.043198" lon="13.3859882"><ele>407.0</ele><time>2026-04-12T08:34:15.057Z</time></trkpt><trkpt lat="43.0431295" lon="13.3859046"><ele>407.0</ele><time>2026-04-12T08:34:16.067Z</time></trkpt><trkpt lat="43.0430518" lon="13.3858145"><ele>402.3333333333333</ele><time>2026-04-12T08:34:17.047Z</time></trkpt><trkpt lat="43.0429742" lon="13.3857295"><ele>397.66666666666663</ele><time>2026-04-12T08:34:18.064Z</time></trkpt><trkpt lat="43.0429027" lon="13.3856467"><ele>393.0</ele><time>2026-04-12T08:34:19.058Z</time></trkpt><trkpt lat="43.0428371" lon="13.3855756"><ele>388.3333333333333</ele><time>2026-04-12T08:34:20.061Z</time></trkpt><trkpt lat="43.0427769" lon="13.3855317"><ele>383.66666666666663</ele><time>2026-04-12T08:34:21.049Z</time></trkpt><trkpt lat="43.0427083" lon="13.3854761"><ele>379.0</ele><time>2026-04-12T08:34:22.055Z</time></trkpt><trkpt lat="43.0426481" lon="13.3854326"><ele>379.0</ele><time>2026-04-12T08:34:23.052Z</time></trkpt><trkpt lat="43.0425861" lon="13.3853702"><ele>379.0</ele><time>2026-04-12T08:34:24.09Z</time></trkpt><trkpt lat="43.0425358" lon="13.385299"><ele>379.0</ele><time>2026-04-12T08:34:25.071Z</time></trkpt><trkpt lat="43.0425283" lon="13.385186"><ele>379.0</ele><time>2026-04-12T08:34:26.071Z</time></trkpt><trkpt lat="43.0425262" lon="13.3850526"><ele>379.0</ele><time>2026-04-12T08:34:27.047Z</time></trkpt><trkpt lat="43.0425184" lon="13.384937"><ele>379.0</ele><time>2026-04-12T08:34:28.062Z</time></trkpt><trkpt lat="43.0425011" lon="13.3848114"><ele>379.0</ele><time>2026-04-12T08:34:29.066Z</time></trkpt><trkpt lat="43.0424818" lon="13.3847119"><ele>379.0</ele><time>2026-04-12T08:34:30.069Z</time></trkpt><trkpt lat="43.0424785" lon="13.3846254"><ele>379.0</ele><time>2026-04-12T08:34:31.03Z</time></trkpt><trkpt lat="43.0424504" lon="13.3844749"><ele>379.0</ele><time>2026-04-12T08:34:33.066Z</time></trkpt><trkpt lat="43.0424239" lon="13.3843276"><ele>379.0</ele><time>2026-04-12T08:34:35.052Z</time></trkpt><trkpt lat="43.0423989" lon="13.3842475"><ele>379.0</ele><time>2026-04-12T08:34:36.055Z</time></trkpt><trkpt lat="43.0423582" lon="13.3841803"><ele>376.8333333333333</ele><time>2026-04-12T08:34:37.068Z</time></trkpt><trkpt lat="43.0422879" lon="13.3841108"><ele>374.66666666666663</ele><time>2026-04-12T08:34:39.047Z</time></trkpt><trkpt lat="43.0422648" lon="13.384017"><ele>372.5</ele><time>2026-04-12T08:34:42.048Z</time></trkpt><trkpt lat="43.0423488" lon="13.3839327"><ele>370.3333333333333</ele><time>2026-04-12T08:34:44.046Z</time></trkpt><trkpt lat="43.0424178" lon="13.3839042"><ele>368.1666666666667</ele><time>2026-04-12T08:34:45.034Z</time></trkpt><trkpt lat="43.0424847" lon="13.3838296"><ele>366.0</ele><time>2026-04-12T08:34:46.065Z</time></trkpt><trkpt lat="43.0425289" lon="13.3837285"><ele>366.0</ele><time>2026-04-12T08:34:47.06Z</time></trkpt><trkpt lat="43.0425381" lon="13.3836123"><ele>366.0</ele><time>2026-04-12T08:34:48.042Z</time></trkpt><trkpt lat="43.0425527" lon="13.3835021"><ele>366.0</ele><time>2026-04-12T08:34:49.067Z</time></trkpt><trkpt lat="43.0425706" lon="13.3834109"><ele>366.0</ele><time>2026-04-12T08:34:50.044Z</time></trkpt><trkpt lat="43.0426132" lon="13.3833379"><ele>366.0</ele><time>2026-04-12T08:34:51.041Z</time></trkpt><trkpt lat="43.0426629" lon="13.3832701"><ele>366.0</ele><time>2026-04-12T08:34:52.051Z</time></trkpt><trkpt lat="43.0426897" lon="13.3831818"><ele>366.0</ele><time>2026-04-12T08:34:53.044Z</time></trkpt><trkpt lat="43.0427062" lon="13.3830696"><ele>364.6666666666667</ele><time>2026-04-12T08:34:54.05Z</time></trkpt><trkpt lat="43.0427188" lon="13.3829426"><ele>363.3333333333333</ele><time>2026-04-12T08:34:55.036Z</time></trkpt><trkpt lat="43.0427316" lon="13.3828358"><ele>362.0</ele><time>2026-04-12T08:34:56.051Z</time></trkpt><trkpt lat="43.0427516" lon="13.3827292"><ele>360.66666666666663</ele><time>2026-04-12T08:34:57.047Z</time></trkpt><trkpt lat="43.042762" lon="13.3826038"><ele>359.3333333333333</ele><time>2026-04-12T08:34:58.052Z</time></trkpt><trkpt lat="43.0427648" lon="13.382475"><ele>358.0</ele><time>2026-04-12T08:34:59.012Z</time></trkpt><trkpt lat="43.0427756" lon="13.3823464"><ele>358.0</ele><time>2026-04-12T08:35:00.067Z</time></trkpt><trkpt lat="43.0427764" lon="13.3822243"><ele>358.0</ele><time>2026-04-12T08:35:01.056Z</time></trkpt><trkpt lat="43.0427633" lon="13.3821203"><ele>358.0</ele><time>2026-04-12T08:35:02.044Z</time></trkpt><trkpt lat="43.0427175" lon="13.3820099"><ele>358.0</ele><time>2026-04-12T08:35:03.031Z</time></trkpt><trkpt lat="43.0426633" lon="13.3819082"><ele>358.0</ele><time>2026-04-12T08:35:04.019Z</time></trkpt><trkpt lat="43.0426158" lon="13.3818124"><ele>358.0</ele><time>2026-04-12T08:35:05.014Z</time></trkpt><trkpt lat="43.0425731" lon="13.3817244"><ele>356.4</ele><time>2026-04-12T08:35:06.045Z</time></trkpt><trkpt lat="43.0425546" lon="13.3816273"><ele>354.79999999999995</ele><time>2026-04-12T08:35:07.052Z</time></trkpt><trkpt lat="43.0425479" lon="13.3815098"><ele>353.2</ele><time>2026-04-12T08:35:08.04Z</time></trkpt><trkpt lat="43.0425533" lon="13.3813663"><ele>351.6</ele><time>2026-04-12T08:35:09.062Z</time></trkpt><trkpt lat="43.0425628" lon="13.3812181"><ele>350.0</ele><time>2026-04-12T08:35:10.05Z</time></trkpt><trkpt lat="43.0425882" lon="13.3810696"><ele>348.4</ele><time>2026-04-12T08:35:11.067Z</time></trkpt><trkpt lat="43.0426066" lon="13.3809137"><ele>346.8</ele><time>2026-04-12T08:35:12.055Z</time></trkpt><trkpt lat="43.0426259" lon="13.3807577"><ele>345.20000000000005</ele><time>2026-04-12T08:35:13.068Z</time></trkpt><trkpt lat="43.0426465" lon="13.3806142"><ele>343.6</ele><time>2026-04-12T08:35:14.065Z</time></trkpt><trkpt lat="43.0426616" lon="13.3804815"><ele>342.0</ele><time>2026-04-12T08:35:15.053Z</time></trkpt><trkpt lat="43.0426627" lon="13.3803594"><ele>340.6</ele><time>2026-04-12T08:35:16.048Z</time></trkpt><trkpt lat="43.0427072" lon="13.3802155"><ele>339.20000000000005</ele><time>2026-04-12T08:35:18.066Z</time></trkpt><trkpt lat="43.0427574" lon="13.3800775"><ele>337.8</ele><time>2026-04-12T08:35:20.043Z</time></trkpt><trkpt lat="43.0427228" lon="13.3798954"><ele>336.4</ele><time>2026-04-12T08:35:22.053Z</time></trkpt><trkpt lat="43.0426898" lon="13.3797994"><ele>335.0</ele><time>2026-04-12T08:35:23.049Z</time></trkpt><trkpt lat="43.0426504" lon="13.3797205"><ele>333.33333333333337</ele><time>2026-04-12T08:35:24.053Z</time></trkpt><trkpt lat="43.0426045" lon="13.3796603"><ele>331.6666666666667</ele><time>2026-04-12T08:35:25.073Z</time></trkpt><trkpt lat="43.0425351" lon="13.3795583"><ele>330.0</ele><time>2026-04-12T08:35:27.054Z</time></trkpt><trkpt lat="43.042531" lon="13.3794673"><ele>328.3333333333333</ele><time>2026-04-12T08:35:29.049Z</time></trkpt><trkpt lat="43.0425648" lon="13.37938"><ele>326.66666666666663</ele><time>2026-04-12T08:35:31.037Z</time></trkpt><trkpt lat="43.0426158" lon="13.3792679"><ele>325.0</ele><time>2026-04-12T08:35:33.052Z</time></trkpt><trkpt lat="43.0427065" lon="13.3791656"><ele>325.0</ele><time>2026-04-12T08:35:35.051Z</time></trkpt><trkpt lat="43.0427741" lon="13.3790488"><ele>325.0</ele><time>2026-04-12T08:35:37.056Z</time></trkpt><trkpt lat="43.0428005" lon="13.3789618"><ele>325.0</ele><time>2026-04-12T08:35:38.055Z</time></trkpt><trkpt lat="43.042799" lon="13.3788633"><ele>325.0</ele><time>2026-04-12T08:35:39.047Z</time></trkpt><trkpt lat="43.042795" lon="13.378693"><ele>325.0</ele><time>2026-04-12T08:35:41.056Z</time></trkpt><trkpt lat="43.0427958" lon="13.3785998"><ele>325.0</ele><time>2026-04-12T08:35:42.047Z</time></trkpt><trkpt lat="43.0427688" lon="13.3784897"><ele>323.57142857142856</ele><time>2026-04-12T08:35:44.045Z</time></trkpt><trkpt lat="43.0427456" lon="13.3783859"><ele>322.14285714285717</ele><time>2026-04-12T08:35:46.034Z</time></trkpt><trkpt lat="43.0427267" lon="13.378298"><ele>320.7142857142857</ele><time>2026-04-12T08:35:47.027Z</time></trkpt><trkpt lat="43.0427105" lon="13.378207"><ele>319.2857142857143</ele><time>2026-04-12T08:35:48.052Z</time></trkpt><trkpt lat="43.0426985" lon="13.3781045"><ele>317.8571428571429</ele><time>2026-04-12T08:35:49.061Z</time></trkpt><trkpt lat="43.0426882" lon="13.3780062"><ele>316.42857142857144</ele><time>2026-04-12T08:35:50.066Z</time></trkpt><trkpt lat="43.0426737" lon="13.3779034"><ele>315.0</ele><time>2026-04-12T08:35:51.084Z</time></trkpt><trkpt lat="43.0426489" lon="13.3777716"><ele>314.5</ele><time>2026-04-12T08:35:52.065Z</time></trkpt><trkpt lat="43.0426193" lon="13.3776096"><ele>314.0</ele><time>2026-04-12T08:35:53.035Z</time></trkpt><trkpt lat="43.0425903" lon="13.3774528"><ele>313.5</ele><time>2026-04-12T08:35:54.037Z</time></trkpt><trkpt lat="43.0425663" lon="13.3773047"><ele>313.0</ele><time>2026-04-12T08:35:55.043Z</time></trkpt><trkpt lat="43.0425397" lon="13.3771616"><ele>313.25</ele><time>2026-04-12T08:35:56.029Z</time></trkpt><trkpt lat="43.0425176" lon="13.3770145"><ele>313.5</ele><time>2026-04-12T08:35:57.038Z</time></trkpt><trkpt lat="43.0424814" lon="13.3768808"><ele>313.75</ele><time>2026-04-12T08:35:58.047Z</time></trkpt><trkpt lat="43.0424465" lon="13.3767244"><ele>314.0</ele><time>2026-04-12T08:35:59.041Z</time></trkpt><trkpt lat="43.0424064" lon="13.3765702"><ele>314.0</ele><time>2026-04-12T08:36:00.05Z</time></trkpt><trkpt lat="43.0423629" lon="13.3764128"><ele>314.0</ele><time>2026-04-12T08:36:01.058Z</time></trkpt><trkpt lat="43.0423203" lon="13.3762627"><ele>314.0</ele><time>2026-04-12T08:36:02.04Z</time></trkpt><trkpt lat="43.0422794" lon="13.3761202"><ele>314.0</ele><time>2026-04-12T08:36:03.057Z</time></trkpt><trkpt lat="43.0422375" lon="13.3759796"><ele>314.59999999999997</ele><time>2026-04-12T08:36:04.06Z</time></trkpt><trkpt lat="43.0421918" lon="13.3758578"><ele>315.2</ele><time>2026-04-12T08:36:05.061Z</time></trkpt><trkpt lat="43.0421456" lon="13.3757551"><ele>315.79999999999995</ele><time>2026-04-12T08:36:06.04Z</time></trkpt><trkpt lat="43.0420988" lon="13.3756529"><ele>316.4</ele><time>2026-04-12T08:36:07.031Z</time></trkpt><trkpt lat="43.0420633" lon="13.3755445"><ele>317.0</ele><time>2026-04-12T08:36:08.053Z</time></trkpt><trkpt lat="43.0420193" lon="13.375407"><ele>317.5</ele><time>2026-04-12T08:36:09.048Z</time></trkpt><trkpt lat="43.0419829" lon="13.3752713"><ele>318.0</ele><time>2026-04-12T08:36:10.046Z</time></trkpt><trkpt lat="43.0419469" lon="13.3751243"><ele>318.5</ele><time>2026-04-12T08:36:11.042Z</time></trkpt><trkpt lat="43.0419217" lon="13.3749586"><ele>319.0</ele><time>2026-04-12T08:36:12.05Z</time></trkpt><trkpt lat="43.0418908" lon="13.3748069"><ele>318.66666666666663</ele><time>2026-04-12T08:36:13.049Z</time></trkpt><trkpt lat="43.0418697" lon="13.3746856"><ele>318.3333333333333</ele><time>2026-04-12T08:36:14.042Z</time></trkpt><trkpt lat="43.0418655" lon="13.3745866"><ele>318.0</ele><time>2026-04-12T08:36:15.024Z</time></trkpt><trkpt lat="43.0418829" lon="13.3744903"><ele>317.6666666666667</ele><time>2026-04-12T08:36:16.024Z</time></trkpt><trkpt lat="43.041921" lon="13.3743884"><ele>317.33333333333337</ele><time>2026-04-12T08:36:17.047Z</time></trkpt><trkpt lat="43.0419618" lon="13.3743094"><ele>317.0</ele><time>2026-04-12T08:36:18.041Z</time></trkpt><trkpt lat="43.0420229" lon="13.3742566"><ele>317.0</ele><time>2026-04-12T08:36:18.994Z</time></trkpt><trkpt lat="43.0421038" lon="13.3742046"><ele>317.0</ele><time>2026-04-12T08:36:20.037Z</time></trkpt><trkpt lat="43.0421818" lon="13.3741619"><ele>317.0</ele><time>2026-04-12T08:36:21.049Z</time></trkpt><trkpt lat="43.0422582" lon="13.3741098"><ele>317.0</ele><time>2026-04-12T08:36:22.034Z</time></trkpt><trkpt lat="43.0423411" lon="13.3740965"><ele>317.0</ele><time>2026-04-12T08:36:23.044Z</time></trkpt><trkpt lat="43.0424197" lon="13.3740905"><ele>317.0</ele><time>2026-04-12T08:36:24.037Z</time></trkpt><trkpt lat="43.0425171" lon="13.3740272"><ele>317.0</ele><time>2026-04-12T08:36:26.052Z</time></trkpt><trkpt lat="43.0424899" lon="13.373948"><ele>317.0</ele><time>2026-04-12T08:36:28.021Z</time></trkpt><trkpt lat="43.0425192" lon="13.3738599"><ele>317.0</ele><time>2026-04-12T08:36:33.051Z</time></trkpt><trkpt lat="43.0424951" lon="13.3737606"><ele>317.0</ele><time>2026-04-12T08:37:10.039Z</time></trkpt><trkpt lat="43.0425707" lon="13.3736956"><ele>317.0</ele><time>2026-04-12T08:37:14.055Z</time></trkpt><trkpt lat="43.0426224" lon="13.373635"><ele>317.0</ele><time>2026-04-12T08:37:17.035Z</time></trkpt><trkpt lat="43.042674" lon="13.3735697"><ele>317.0</ele><time>2026-04-12T08:37:19.04Z</time></trkpt><trkpt lat="43.042744" lon="13.3734416"><ele>317.0</ele><time>2026-04-12T08:37:21.029Z</time></trkpt><trkpt lat="43.0427213" lon="13.3733515"><ele>317.0</ele><time>2026-04-12T08:37:23.012Z</time></trkpt><trkpt lat="43.0426534" lon="13.3733019"><ele>317.0</ele><time>2026-04-12T08:37:25.045Z</time></trkpt><trkpt lat="43.0424887" lon="13.3732656"><ele>317.0</ele><time>2026-04-12T08:37:27.038Z</time></trkpt><trkpt lat="43.0423671" lon="13.3732207"><ele>317.0</ele><time>2026-04-12T08:37:28.032Z</time></trkpt><trkpt lat="43.0422596" lon="13.3731615"><ele>318.0</ele><time>2026-04-12T08:37:29.039Z</time></trkpt><trkpt lat="43.0421629" lon="13.3730942"><ele>319.0</ele><time>2026-04-12T08:37:30.056Z</time></trkpt><trkpt lat="43.0420779" lon="13.3730429"><ele>320.0</ele><time>2026-04-12T08:37:31.039Z</time></trkpt><trkpt lat="43.0420163" lon="13.372994"><ele>321.0</ele><time>2026-04-12T08:37:32.038Z</time></trkpt><trkpt lat="43.0419598" lon="13.3729365"><ele>322.0</ele><time>2026-04-12T08:37:33.037Z</time></trkpt><trkpt lat="43.0419216" lon="13.3728533"><ele>323.0</ele><time>2026-04-12T08:37:34.045Z</time></trkpt><trkpt lat="43.0418862" lon="13.3727667"><ele>323.4</ele><time>2026-04-12T08:37:35.039Z</time></trkpt><trkpt lat="43.0418585" lon="13.3726496"><ele>323.79999999999995</ele><time>2026-04-12T08:37:36.053Z</time></trkpt><trkpt lat="43.0418044" lon="13.372511"><ele>324.2</ele><time>2026-04-12T08:37:37.051Z</time></trkpt><trkpt lat="43.04176" lon="13.3723752"><ele>324.6</ele><time>2026-04-12T08:37:38.038Z</time></trkpt><trkpt lat="43.0417088" lon="13.3722613"><ele>325.0</ele><time>2026-04-12T08:37:39.053Z</time></trkpt><trkpt lat="43.0416661" lon="13.3721742"><ele>327.16666666666663</ele><time>2026-04-12T08:37:40.035Z</time></trkpt><trkpt lat="43.0416252" lon="13.3720761"><ele>329.3333333333333</ele><time>2026-04-12T08:37:41.07Z</time></trkpt><trkpt lat="43.0415844" lon="13.3719842"><ele>331.5</ele><time>2026-04-12T08:37:42.044Z</time></trkpt><trkpt lat="43.0415418" lon="13.3718849"><ele>333.6666666666667</ele><time>2026-04-12T08:37:43.039Z</time></trkpt><trkpt lat="43.0414783" lon="13.3717785"><ele>335.83333333333337</ele><time>2026-04-12T08:37:44.028Z</time></trkpt><trkpt lat="43.0413915" lon="13.3717122"><ele>338.0</ele><time>2026-04-12T08:37:45.039Z</time></trkpt><trkpt lat="43.0413085" lon="13.3716459"><ele>338.0</ele><time>2026-04-12T08:37:46.033Z</time></trkpt><trkpt lat="43.0412392" lon="13.3715825"><ele>338.0</ele><time>2026-04-12T08:37:47.057Z</time></trkpt><trkpt lat="43.0411903" lon="13.3715247"><ele>338.0</ele><time>2026-04-12T08:37:48.049Z</time></trkpt><trkpt lat="43.0411502" lon="13.3714495"><ele>338.0</ele><time>2026-04-12T08:37:49.042Z</time></trkpt><trkpt lat="43.0411071" lon="13.3713655"><ele>338.0</ele><time>2026-04-12T08:37:50.03Z</time></trkpt><trkpt lat="43.041084" lon="13.3712739"><ele>338.0</ele><time>2026-04-12T08:37:51.038Z</time></trkpt><trkpt lat="43.0410617" lon="13.371161"><ele>338.0</ele><time>2026-04-12T08:37:52.045Z</time></trkpt><trkpt lat="43.0410253" lon="13.3710569"><ele>338.0</ele><time>2026-04-12T08:37:53.043Z</time></trkpt><trkpt lat="43.0409691" lon="13.3709446"><ele>338.0</ele><time>2026-04-12T08:37:54.06Z</time></trkpt><trkpt lat="43.0409119" lon="13.3708384"><ele>338.0</ele><time>2026-04-12T08:37:55.035Z</time></trkpt><trkpt lat="43.0408615" lon="13.3707162"><ele>338.0</ele><time>2026-04-12T08:37:56.033Z</time></trkpt><trkpt lat="43.0408149" lon="13.3705838"><ele>338.0</ele><time>2026-04-12T08:37:57.02Z</time></trkpt><trkpt lat="43.0407755" lon="13.3704611"><ele>341.4</ele><time>2026-04-12T08:37:58.035Z</time></trkpt><trkpt lat="43.0407461" lon="13.3703244"><ele>344.79999999999995</ele><time>2026-04-12T08:37:59.051Z</time></trkpt><trkpt lat="43.0407155" lon="13.3702026"><ele>348.2</ele><time>2026-04-12T08:38:00.005Z</time></trkpt><trkpt lat="43.040665" lon="13.3701157"><ele>351.6</ele><time>2026-04-12T08:38:01.036Z</time></trkpt><trkpt lat="43.0405894" lon="13.3700718"><ele>355.0</ele><time>2026-04-12T08:38:02.031Z</time></trkpt><trkpt lat="43.0405176" lon="13.3699655"><ele>355.0</ele><time>2026-04-12T08:38:03.045Z</time></trkpt><trkpt lat="43.0404586" lon="13.3698562"><ele>355.0</ele><time>2026-04-12T08:38:04.038Z</time></trkpt><trkpt lat="43.0404024" lon="13.3697185"><ele>355.0</ele><time>2026-04-12T08:38:05.032Z</time></trkpt><trkpt lat="43.0403452" lon="13.3696096"><ele>355.0</ele><time>2026-04-12T08:38:06.039Z</time></trkpt><trkpt lat="43.0402925" lon="13.3695194"><ele>355.0</ele><time>2026-04-12T08:38:07.042Z</time></trkpt><trkpt lat="43.0402405" lon="13.3694273"><ele>356.5</ele><time>2026-04-12T08:38:08.035Z</time></trkpt><trkpt lat="43.0401986" lon="13.3692806"><ele>358.0</ele><time>2026-04-12T08:38:09.035Z</time></trkpt><trkpt lat="43.0401623" lon="13.3691155"><ele>359.5</ele><time>2026-04-12T08:38:10.033Z</time></trkpt><trkpt lat="43.0401037" lon="13.3689523"><ele>361.0</ele><time>2026-04-12T08:38:11.024Z</time></trkpt><trkpt lat="43.0400423" lon="13.3688098"><ele>363.20000000000005</ele><time>2026-04-12T08:38:12.037Z</time></trkpt><trkpt lat="43.0399944" lon="13.368677"><ele>365.40000000000003</ele><time>2026-04-12T08:38:13.052Z</time></trkpt><trkpt lat="43.0399548" lon="13.3685827"><ele>367.6</ele><time>2026-04-12T08:38:14.026Z</time></trkpt><trkpt lat="43.0399273" lon="13.3684752"><ele>369.8</ele><time>2026-04-12T08:38:15.028Z</time></trkpt><trkpt lat="43.0398925" lon="13.3683508"><ele>372.0</ele><time>2026-04-12T08:38:16.048Z</time></trkpt><trkpt lat="43.0398428" lon="13.3682254"><ele>372.75</ele><time>2026-04-12T08:38:17.033Z</time></trkpt><trkpt lat="43.0397823" lon="13.3680902"><ele>373.5</ele><time>2026-04-12T08:38:18.032Z</time></trkpt><trkpt lat="43.0397074" lon="13.3679517"><ele>374.25</ele><time>2026-04-12T08:38:19.042Z</time></trkpt><trkpt lat="43.0396188" lon="13.3678229"><ele>375.0</ele><time>2026-04-12T08:38:20.045Z</time></trkpt><trkpt lat="43.0395043" lon="13.3677069"><ele>377.25</ele><time>2026-04-12T08:38:21.042Z</time></trkpt><trkpt lat="43.0393785" lon="13.3676354"><ele>379.5</ele><time>2026-04-12T08:38:22.039Z</time></trkpt><trkpt lat="43.0392323" lon="13.3675749"><ele>381.75</ele><time>2026-04-12T08:38:23.022Z</time></trkpt><trkpt lat="43.0390809" lon="13.3675229"><ele>384.0</ele><time>2026-04-12T08:38:24.06Z</time></trkpt><trkpt lat="43.0389221" lon="13.3674762"><ele>386.25</ele><time>2026-04-12T08:38:25.047Z</time></trkpt><trkpt lat="43.0387692" lon="13.3674329"><ele>388.5</ele><time>2026-04-12T08:38:26.04Z</time></trkpt><trkpt lat="43.038628" lon="13.367399"><ele>390.75</ele><time>2026-04-12T08:38:27.041Z</time></trkpt><trkpt lat="43.0384869" lon="13.3673687"><ele>393.0</ele><time>2026-04-12T08:38:28.047Z</time></trkpt><trkpt lat="43.0383515" lon="13.3673533"><ele>394.79999999999995</ele><time>2026-04-12T08:38:29.044Z</time></trkpt><trkpt lat="43.0382417" lon="13.3673532"><ele>396.6</ele><time>2026-04-12T08:38:30.062Z</time></trkpt><trkpt lat="43.0381455" lon="13.3673841"><ele>398.4</ele><time>2026-04-12T08:38:31.045Z</time></trkpt><trkpt lat="43.0380543" lon="13.3674341"><ele>400.20000000000005</ele><time>2026-04-12T08:38:32.043Z</time></trkpt><trkpt lat="43.0379618" lon="13.3674975"><ele>402.0</ele><time>2026-04-12T08:38:33.041Z</time></trkpt><trkpt lat="43.0378744" lon="13.3675523"><ele>402.0</ele><time>2026-04-12T08:38:34.05Z</time></trkpt><trkpt lat="43.0377818" lon="13.3676054"><ele>402.0</ele><time>2026-04-12T08:38:35.043Z</time></trkpt><trkpt lat="43.037686" lon="13.3676611"><ele>402.0</ele><time>2026-04-12T08:38:36.048Z</time></trkpt><trkpt lat="43.0375941" lon="13.3677225"><ele>402.0</ele><time>2026-04-12T08:38:37.062Z</time></trkpt><trkpt lat="43.0375127" lon="13.3677676"><ele>402.0</ele><time>2026-04-12T08:38:38.05Z</time></trkpt><trkpt lat="43.037433" lon="13.367794"><ele>403.3333333333333</ele><time>2026-04-12T08:38:39.058Z</time></trkpt><trkpt lat="43.0373622" lon="13.3677915"><ele>404.66666666666663</ele><time>2026-04-12T08:38:40.051Z</time></trkpt><trkpt lat="43.0372788" lon="13.3677779"><ele>406.0</ele><time>2026-04-12T08:38:41.046Z</time></trkpt><trkpt lat="43.0371839" lon="13.3677535"><ele>407.3333333333333</ele><time>2026-04-12T08:38:42.06Z</time></trkpt><trkpt lat="43.0370901" lon="13.3677111"><ele>408.66666666666663</ele><time>2026-04-12T08:38:43.059Z</time></trkpt><trkpt lat="43.0370037" lon="13.3676695"><ele>410.0</ele><time>2026-04-12T08:38:44.029Z</time></trkpt><trkpt lat="43.0369224" lon="13.3676092"><ele>410.0</ele><time>2026-04-12T08:38:45.049Z</time></trkpt><trkpt lat="43.03684" lon="13.3675422"><ele>410.0</ele><time>2026-04-12T08:38:46.059Z</time></trkpt><trkpt lat="43.0367396" lon="13.3674657"><ele>410.0</ele><time>2026-04-12T08:38:47.046Z</time></trkpt><trkpt lat="43.0366366" lon="13.3673826"><ele>410.0</ele><time>2026-04-12T08:38:48.061Z</time></trkpt><trkpt lat="43.0365434" lon="13.3673119"><ele>410.0</ele><time>2026-04-12T08:38:49.036Z</time></trkpt><trkpt lat="43.0364632" lon="13.3672461"><ele>412.4</ele><time>2026-04-12T08:38:50.036Z</time></trkpt><trkpt lat="43.0363742" lon="13.3671898"><ele>414.8</ele><time>2026-04-12T08:38:51.031Z</time></trkpt><trkpt lat="43.0362906" lon="13.3671366"><ele>417.20000000000005</ele><time>2026-04-12T08:38:52.041Z</time></trkpt><trkpt lat="43.0362187" lon="13.3670884"><ele>419.6</ele><time>2026-04-12T08:38:53.06Z</time></trkpt><trkpt lat="43.03614" lon="13.3670173"><ele>422.0</ele><time>2026-04-12T08:38:55.055Z</time></trkpt><trkpt lat="43.0362107" lon="13.366922"><ele>422.0</ele><time>2026-04-12T08:38:59.035Z</time></trkpt><trkpt lat="43.0362793" lon="13.3668836"><ele>422.0</ele><time>2026-04-12T08:39:00.033Z</time></trkpt><trkpt lat="43.0363705" lon="13.3667936"><ele>422.0</ele><time>2026-04-12T08:39:01.03Z</time></trkpt><trkpt lat="43.036467" lon="13.3666756"><ele>422.0</ele><time>2026-04-12T08:39:02.016Z</time></trkpt><trkpt lat="43.0365646" lon="13.3665471"><ele>422.0</ele><time>2026-04-12T08:39:03.032Z</time></trkpt><trkpt lat="43.0366402" lon="13.3664374"><ele>422.0</ele><time>2026-04-12T08:39:04.043Z</time></trkpt><trkpt lat="43.0366984" lon="13.3663292"><ele>422.0</ele><time>2026-04-12T08:39:05.043Z</time></trkpt><trkpt lat="43.036778" lon="13.3662448"><ele>422.0</ele><time>2026-04-12T08:39:06.012Z</time></trkpt><trkpt lat="43.0368696" lon="13.3661646"><ele>422.0</ele><time>2026-04-12T08:39:07.039Z</time></trkpt><trkpt lat="43.036977" lon="13.3660944"><ele>422.0</ele><time>2026-04-12T08:39:08.035Z</time></trkpt><trkpt lat="43.0370801" lon="13.3660222"><ele>422.0</ele><time>2026-04-12T08:39:09.039Z</time></trkpt><trkpt lat="43.0371735" lon="13.3659327"><ele>422.0</ele><time>2026-04-12T08:39:10.047Z</time></trkpt><trkpt lat="43.0372454" lon="13.365839"><ele>422.0</ele><time>2026-04-12T08:39:11.04Z</time></trkpt><trkpt lat="43.0373106" lon="13.3657473"><ele>422.0</ele><time>2026-04-12T08:39:12.048Z</time></trkpt><trkpt lat="43.0373626" lon="13.365638"><ele>422.0</ele><time>2026-04-12T08:39:13.071Z</time></trkpt><trkpt lat="43.0373829" lon="13.3655306"><ele>422.0</ele><time>2026-04-12T08:39:14.03Z</time></trkpt><trkpt lat="43.0373971" lon="13.3654398"><ele>422.0</ele><time>2026-04-12T08:39:15.036Z</time></trkpt><trkpt lat="43.0374526" lon="13.3652736"><ele>422.0</ele><time>2026-04-12T08:39:17.043Z</time></trkpt><trkpt lat="43.0374969" lon="13.3651428"><ele>422.0</ele><time>2026-04-12T08:39:18.049Z</time></trkpt><trkpt lat="43.0375391" lon="13.3649962"><ele>421.66666666666663</ele><time>2026-04-12T08:39:19.039Z</time></trkpt><trkpt lat="43.0375964" lon="13.3648741"><ele>421.3333333333333</ele><time>2026-04-12T08:39:20.059Z</time></trkpt><trkpt lat="43.0376466" lon="13.3647761"><ele>421.0</ele><time>2026-04-12T08:39:21.036Z</time></trkpt><trkpt lat="43.037706" lon="13.3646897"><ele>420.66666666666663</ele><time>2026-04-12T08:39:22.06Z</time></trkpt><trkpt lat="43.037767" lon="13.3646263"><ele>420.3333333333333</ele><time>2026-04-12T08:39:23.052Z</time></trkpt><trkpt lat="43.0378354" lon="13.3645451"><ele>420.0</ele><time>2026-04-12T08:39:24.045Z</time></trkpt><trkpt lat="43.0379083" lon="13.3644607"><ele>420.2</ele><time>2026-04-12T08:39:25.053Z</time></trkpt><trkpt lat="43.0379841" lon="13.3643766"><ele>420.4</ele><time>2026-04-12T08:39:26.056Z</time></trkpt><trkpt lat="43.038058" lon="13.3642721"><ele>420.6</ele><time>2026-04-12T08:39:27.065Z</time></trkpt><trkpt lat="43.0381531" lon="13.3641776"><ele>420.8</ele><time>2026-04-12T08:39:28.046Z</time></trkpt><trkpt lat="43.0382592" lon="13.3640905"><ele>421.0</ele><time>2026-04-12T08:39:29.056Z</time></trkpt><trkpt lat="43.038342" lon="13.3640175"><ele>421.0</ele><time>2026-04-12T08:39:30.05Z</time></trkpt><trkpt lat="43.0384096" lon="13.3639357"><ele>421.0</ele><time>2026-04-12T08:39:31.036Z</time></trkpt><trkpt lat="43.0384861" lon="13.3638617"><ele>421.0</ele><time>2026-04-12T08:39:32.061Z</time></trkpt><trkpt lat="43.0385672" lon="13.3637664"><ele>421.0</ele><time>2026-04-12T08:39:33.04Z</time></trkpt><trkpt lat="43.0386619" lon="13.36365"><ele>421.0</ele><time>2026-04-12T08:39:34.041Z</time></trkpt><trkpt lat="43.03875" lon="13.3635485"><ele>422.33333333333337</ele><time>2026-04-12T08:39:34.997Z</time></trkpt><trkpt lat="43.0388313" lon="13.3634556"><ele>423.6666666666667</ele><time>2026-04-12T08:39:36.038Z</time></trkpt><trkpt lat="43.0388986" lon="13.3633596"><ele>425.0</ele><time>2026-04-12T08:39:37.058Z</time></trkpt><trkpt lat="43.0389442" lon="13.3632703"><ele>426.33333333333337</ele><time>2026-04-12T08:39:38.051Z</time></trkpt><trkpt lat="43.0389744" lon="13.3631896"><ele>427.6666666666667</ele><time>2026-04-12T08:39:39.007Z</time></trkpt><trkpt lat="43.0389893" lon="13.3631026"><ele>429.0</ele><time>2026-04-12T08:39:40.031Z</time></trkpt><trkpt lat="43.0389473" lon="13.3629329"><ele>429.6</ele><time>2026-04-12T08:39:42.057Z</time></trkpt><trkpt lat="43.0388924" lon="13.3628454"><ele>430.2</ele><time>2026-04-12T08:39:43.039Z</time></trkpt><trkpt lat="43.0388218" lon="13.3627561"><ele>430.80000000000007</ele><time>2026-04-12T08:39:44.045Z</time></trkpt><trkpt lat="43.0387572" lon="13.3626608"><ele>431.40000000000003</ele><time>2026-04-12T08:39:45.053Z</time></trkpt><trkpt lat="43.0386769" lon="13.3625707"><ele>432.0</ele><time>2026-04-12T08:39:46.049Z</time></trkpt><trkpt lat="43.0385966" lon="13.3624759"><ele>432.0</ele><time>2026-04-12T08:39:47.057Z</time></trkpt><trkpt lat="43.0385213" lon="13.3623761"><ele>432.00000000000006</ele><time>2026-04-12T08:39:48.047Z</time></trkpt><trkpt lat="43.0384407" lon="13.3622785"><ele>432.00000000000006</ele><time>2026-04-12T08:39:49.047Z</time></trkpt><trkpt lat="43.0383731" lon="13.3621803"><ele>432.0</ele><time>2026-04-12T08:39:50.032Z</time></trkpt><trkpt lat="43.0383151" lon="13.36208"><ele>432.0</ele><time>2026-04-12T08:39:51.039Z</time></trkpt><trkpt lat="43.0382764" lon="13.3619936"><ele>434.0</ele><time>2026-04-12T08:39:52.052Z</time></trkpt><trkpt lat="43.0382466" lon="13.3619075"><ele>436.0</ele><time>2026-04-12T08:39:53.035Z</time></trkpt><trkpt lat="43.0382359" lon="13.3618105"><ele>438.0</ele><time>2026-04-12T08:39:54.056Z</time></trkpt><trkpt lat="43.0382421" lon="13.3617072"><ele>440.0</ele><time>2026-04-12T08:39:55.053Z</time></trkpt><trkpt lat="43.0382371" lon="13.3616058"><ele>442.0</ele><time>2026-04-12T08:39:55.996Z</time></trkpt><trkpt lat="43.0382172" lon="13.3614887"><ele>444.0</ele><time>2026-04-12T08:39:57.028Z</time></trkpt><trkpt lat="43.0381693" lon="13.3613791"><ele>444.5</ele><time>2026-04-12T08:39:58.046Z</time></trkpt><trkpt lat="43.0381009" lon="13.3612682"><ele>445.0</ele><time>2026-04-12T08:39:59.034Z</time></trkpt><trkpt lat="43.0380167" lon="13.361173"><ele>445.5</ele><time>2026-04-12T08:40:00.045Z</time></trkpt><trkpt lat="43.0379089" lon="13.3610764"><ele>446.0</ele><time>2026-04-12T08:40:01.048Z</time></trkpt><trkpt lat="43.0377981" lon="13.3609908"><ele>446.0</ele><time>2026-04-12T08:40:02.06Z</time></trkpt><trkpt lat="43.0377059" lon="13.3608935"><ele>446.0</ele><time>2026-04-12T08:40:03.041Z</time></trkpt><trkpt lat="43.0376337" lon="13.3607727"><ele>446.0</ele><time>2026-04-12T08:40:04.02Z</time></trkpt><trkpt lat="43.0375689" lon="13.3606483"><ele>446.0</ele><time>2026-04-12T08:40:05.03Z</time></trkpt><trkpt lat="43.0375167" lon="13.3605413"><ele>446.0</ele><time>2026-04-12T08:40:06.044Z</time></trkpt><trkpt lat="43.0374878" lon="13.3604132"><ele>444.6</ele><time>2026-04-12T08:40:07.039Z</time></trkpt><trkpt lat="43.0374632" lon="13.3602741"><ele>443.20000000000005</ele><time>2026-04-12T08:40:08.048Z</time></trkpt><trkpt lat="43.0374756" lon="13.3601206"><ele>441.79999999999995</ele><time>2026-04-12T08:40:09.028Z</time></trkpt><trkpt lat="43.0374997" lon="13.3599746"><ele>440.4</ele><time>2026-04-12T08:40:10.047Z</time></trkpt><trkpt lat="43.03754" lon="13.3598298"><ele>439.0</ele><time>2026-04-12T08:40:11.05Z</time></trkpt><trkpt lat="43.0375843" lon="13.3596798"><ele>439.0</ele><time>2026-04-12T08:40:12.047Z</time></trkpt><trkpt lat="43.0376278" lon="13.3595439"><ele>439.0</ele><time>2026-04-12T08:40:13.041Z</time></trkpt><trkpt lat="43.0376519" lon="13.3594151"><ele>439.0</ele><time>2026-04-12T08:40:14.029Z</time></trkpt><trkpt lat="43.0376616" lon="13.3592722"><ele>439.0</ele><time>2026-04-12T08:40:15.049Z</time></trkpt><trkpt lat="43.0376554" lon="13.3591207"><ele>439.0</ele><time>2026-04-12T08:40:16.066Z</time></trkpt><trkpt lat="43.0376496" lon="13.3589755"><ele>440.25</ele><time>2026-04-12T08:40:17.069Z</time></trkpt><trkpt lat="43.0376721" lon="13.3588371"><ele>441.5</ele><time>2026-04-12T08:40:18.056Z</time></trkpt><trkpt lat="43.0377269" lon="13.3587064"><ele>442.75</ele><time>2026-04-12T08:40:19.043Z</time></trkpt><trkpt lat="43.0377848" lon="13.3585687"><ele>444.0</ele><time>2026-04-12T08:40:20.038Z</time></trkpt><trkpt lat="43.0378531" lon="13.3584301"><ele>444.0</ele><time>2026-04-12T08:40:21.034Z</time></trkpt><trkpt lat="43.0379178" lon="13.3582795"><ele>444.0</ele><time>2026-04-12T08:40:22.014Z</time></trkpt><trkpt lat="43.0379769" lon="13.3581339"><ele>444.0</ele><time>2026-04-12T08:40:23.058Z</time></trkpt><trkpt lat="43.0380279" lon="13.3580062"><ele>444.0</ele><time>2026-04-12T08:40:24.041Z</time></trkpt><trkpt lat="43.0380742" lon="13.3578881"><ele>445.1666666666667</ele><time>2026-04-12T08:40:25.06Z</time></trkpt><trkpt lat="43.0381234" lon="13.3577705"><ele>446.33333333333337</ele><time>2026-04-12T08:40:26.063Z</time></trkpt><trkpt lat="43.0381786" lon="13.3576658"><ele>447.5</ele><time>2026-04-12T08:40:27.054Z</time></trkpt><trkpt lat="43.0382292" lon="13.3575622"><ele>448.6666666666667</ele><time>2026-04-12T08:40:28.058Z</time></trkpt><trkpt lat="43.0382568" lon="13.3574759"><ele>449.83333333333337</ele><time>2026-04-12T08:40:29.048Z</time></trkpt><trkpt lat="43.0382467" lon="13.3573881"><ele>451.0</ele><time>2026-04-12T08:40:30.075Z</time></trkpt><trkpt lat="43.0381975" lon="13.3572602"><ele>449.8</ele><time>2026-04-12T08:40:31.015Z</time></trkpt><trkpt lat="43.0381357" lon="13.3571747"><ele>448.6</ele><time>2026-04-12T08:40:32.034Z</time></trkpt><trkpt lat="43.038059" lon="13.3570955"><ele>447.4</ele><time>2026-04-12T08:40:33.042Z</time></trkpt><trkpt lat="43.0379686" lon="13.3570093"><ele>446.2</ele><time>2026-04-12T08:40:34.039Z</time></trkpt><trkpt lat="43.0378763" lon="13.3569177"><ele>445.0</ele><time>2026-04-12T08:40:35.04Z</time></trkpt><trkpt lat="43.0378007" lon="13.3568278"><ele>445.0</ele><time>2026-04-12T08:40:36.049Z</time></trkpt><trkpt lat="43.0377287" lon="13.3567302"><ele>445.0</ele><time>2026-04-12T08:40:37.044Z</time></trkpt><trkpt lat="43.0376571" lon="13.3565964"><ele>445.0</ele><time>2026-04-12T08:40:38.059Z</time></trkpt><trkpt lat="43.0376055" lon="13.3564283"><ele>445.0</ele><time>2026-04-12T08:40:39.042Z</time></trkpt><trkpt lat="43.0375497" lon="13.3562677"><ele>444.6</ele><time>2026-04-12T08:40:40.058Z</time></trkpt><trkpt lat="43.0374941" lon="13.3561408"><ele>444.2</ele><time>2026-04-12T08:40:41.035Z</time></trkpt><trkpt lat="43.0374395" lon="13.3560222"><ele>443.79999999999995</ele><time>2026-04-12T08:40:42.047Z</time></trkpt><trkpt lat="43.0373884" lon="13.3559196"><ele>443.4</ele><time>2026-04-12T08:40:43.054Z</time></trkpt><trkpt lat="43.0373345" lon="13.3558189"><ele>443.0</ele><time>2026-04-12T08:40:44.048Z</time></trkpt><trkpt lat="43.0372751" lon="13.355745"><ele>442.99999999999994</ele><time>2026-04-12T08:40:45.056Z</time></trkpt><trkpt lat="43.0371934" lon="13.3556829"><ele>443.0</ele><time>2026-04-12T08:40:46.022Z</time></trkpt><trkpt lat="43.0371162" lon="13.3556397"><ele>443.0</ele><time>2026-04-12T08:40:47.04Z</time></trkpt><trkpt lat="43.037045" lon="13.3555901"><ele>443.0</ele><time>2026-04-12T08:40:48.056Z</time></trkpt><trkpt lat="43.0369834" lon="13.3555688"><ele>442.99999999999994</ele><time>2026-04-12T08:40:49.044Z</time></trkpt><trkpt lat="43.0368749" lon="13.3555441"><ele>443.0</ele><time>2026-04-12T08:40:51.021Z</time></trkpt><trkpt lat="43.0368671" lon="13.3554544"><ele>439.2</ele><time>2026-04-12T08:40:55.048Z</time></trkpt><trkpt lat="43.0369367" lon="13.3554098"><ele>435.4</ele><time>2026-04-12T08:41:00.046Z</time></trkpt><trkpt lat="43.0370254" lon="13.3553872"><ele>431.59999999999997</ele><time>2026-04-12T08:41:10.038Z</time></trkpt><trkpt lat="43.0371254" lon="13.3553537"><ele>427.79999999999995</ele><time>2026-04-12T08:41:12.057Z</time></trkpt><trkpt lat="43.0371962" lon="13.3552747"><ele>424.0</ele><time>2026-04-12T08:41:14.006Z</time></trkpt><trkpt lat="43.0371488" lon="13.3551317"><ele>424.00000000000006</ele><time>2026-04-12T08:41:16.043Z</time></trkpt><trkpt lat="43.0371024" lon="13.3550523"><ele>424.0</ele><time>2026-04-12T08:41:17.029Z</time></trkpt><trkpt lat="43.0370416" lon="13.3549651"><ele>424.0</ele><time>2026-04-12T08:41:18.039Z</time></trkpt><trkpt lat="43.036972" lon="13.3548812"><ele>424.0</ele><time>2026-04-12T08:41:19.034Z</time></trkpt><trkpt lat="43.0369016" lon="13.3547899"><ele>424.00000000000006</ele><time>2026-04-12T08:41:20.032Z</time></trkpt><trkpt lat="43.0368509" lon="13.3546985"><ele>424.0</ele><time>2026-04-12T08:41:21.032Z</time></trkpt><trkpt lat="43.0368529" lon="13.35458"><ele>422.2</ele><time>2026-04-12T08:41:22.042Z</time></trkpt><trkpt lat="43.0368687" lon="13.3544609"><ele>420.4</ele><time>2026-04-12T08:41:23.02Z</time></trkpt><trkpt lat="43.036907" lon="13.3543469"><ele>418.6</ele><time>2026-04-12T08:41:24.04Z</time></trkpt><trkpt lat="43.0369642" lon="13.3542625"><ele>416.8</ele><time>2026-04-12T08:41:25.028Z</time></trkpt><trkpt lat="43.0370519" lon="13.3542175"><ele>415.0</ele><time>2026-04-12T08:41:26.036Z</time></trkpt><trkpt lat="43.0371489" lon="13.3542091"><ele>415.0</ele><time>2026-04-12T08:41:27.032Z</time></trkpt><trkpt lat="43.0372591" lon="13.3542386"><ele>415.0</ele><time>2026-04-12T08:41:28.034Z</time></trkpt><trkpt lat="43.0373648" lon="13.354301"><ele>415.0</ele><time>2026-04-12T08:41:29.041Z</time></trkpt><trkpt lat="43.0374609" lon="13.3543747"><ele>415.0</ele><time>2026-04-12T08:41:30.045Z</time></trkpt><trkpt lat="43.0375662" lon="13.3544677"><ele>415.75</ele><time>2026-04-12T08:41:31.028Z</time></trkpt><trkpt lat="43.0376697" lon="13.3545547"><ele>416.5</ele><time>2026-04-12T08:41:32.04Z</time></trkpt><trkpt lat="43.0377703" lon="13.3546604"><ele>417.25</ele><time>2026-04-12T08:41:33.041Z</time></trkpt><trkpt lat="43.037868" lon="13.3547746"><ele>418.0</ele><time>2026-04-12T08:41:34.035Z</time></trkpt><trkpt lat="43.0379651" lon="13.3548846"><ele>418.0</ele><time>2026-04-12T08:41:35.037Z</time></trkpt><trkpt lat="43.0380596" lon="13.3549955"><ele>418.0</ele><time>2026-04-12T08:41:36.056Z</time></trkpt><trkpt lat="43.0381558" lon="13.3551055"><ele>418.0</ele><time>2026-04-12T08:41:37.04Z</time></trkpt><trkpt lat="43.0382518" lon="13.3552149"><ele>418.0</ele><time>2026-04-12T08:41:38.049Z</time></trkpt><trkpt lat="43.0383374" lon="13.3553217"><ele>415.25</ele><time>2026-04-12T08:41:39.064Z</time></trkpt><trkpt lat="43.0384183" lon="13.3554394"><ele>412.5</ele><time>2026-04-12T08:41:40.04Z</time></trkpt><trkpt lat="43.0384907" lon="13.35557"><ele>409.75</ele><time>2026-04-12T08:41:41.048Z</time></trkpt><trkpt lat="43.0385586" lon="13.3557017"><ele>407.0</ele><time>2026-04-12T08:41:42.059Z</time></trkpt><trkpt lat="43.038619" lon="13.3558248"><ele>407.0</ele><time>2026-04-12T08:41:43.063Z</time></trkpt><trkpt lat="43.0386895" lon="13.3559355"><ele>407.0</ele><time>2026-04-12T08:41:44.051Z</time></trkpt><trkpt lat="43.0387652" lon="13.3560341"><ele>407.0</ele><time>2026-04-12T08:41:45.049Z</time></trkpt><trkpt lat="43.0388525" lon="13.3561284"><ele>407.0</ele><time>2026-04-12T08:41:46.04Z</time></trkpt><trkpt lat="43.0389342" lon="13.3562113"><ele>407.0</ele><time>2026-04-12T08:41:47.048Z</time></trkpt><trkpt lat="43.0390149" lon="13.3562884"><ele>406.99999999999994</ele><time>2026-04-12T08:41:48.039Z</time></trkpt><trkpt lat="43.0390912" lon="13.3563527"><ele>407.0</ele><time>2026-04-12T08:41:49.025Z</time></trkpt><trkpt lat="43.0391581" lon="13.3564108"><ele>407.0</ele><time>2026-04-12T08:41:50.053Z</time></trkpt><trkpt lat="43.0392142" lon="13.3564537"><ele>407.0</ele><time>2026-04-12T08:41:51.026Z</time></trkpt><trkpt lat="43.0393122" lon="13.356463"><ele>406.99999999999994</ele><time>2026-04-12T08:41:53.043Z</time></trkpt><trkpt lat="43.0393668" lon="13.3564115"><ele>407.0</ele><time>2026-04-12T08:41:54.008Z</time></trkpt><trkpt lat="43.0394092" lon="13.3563177"><ele>403.49999999999994</ele><time>2026-04-12T08:41:55.038Z</time></trkpt><trkpt lat="43.0394442" lon="13.3562172"><ele>400.0</ele><time>2026-04-12T08:41:56.04Z</time></trkpt><trkpt lat="43.0394708" lon="13.3561321"><ele>396.5</ele><time>2026-04-12T08:41:57.044Z</time></trkpt><trkpt lat="43.0394789" lon="13.3560376"><ele>393.0</ele><time>2026-04-12T08:41:58.048Z</time></trkpt><trkpt lat="43.0394587" lon="13.3559123"><ele>389.49999999999994</ele><time>2026-04-12T08:41:59.027Z</time></trkpt><trkpt lat="43.0394138" lon="13.3557752"><ele>386.0</ele><time>2026-04-12T08:42:00.037Z</time></trkpt><trkpt lat="43.0393506" lon="13.3556533"><ele>385.0</ele><time>2026-04-12T08:42:01.053Z</time></trkpt><trkpt lat="43.0392991" lon="13.3555363"><ele>384.0</ele><time>2026-04-12T08:42:02.003Z</time></trkpt><trkpt lat="43.0392594" lon="13.3554213"><ele>383.0</ele><time>2026-04-12T08:42:02.974Z</time></trkpt><trkpt lat="43.0392248" lon="13.355318"><ele>382.0</ele><time>2026-04-12T08:42:04.012Z</time></trkpt><trkpt lat="43.0392123" lon="13.3551722"><ele>381.0</ele><time>2026-04-12T08:42:05.996Z</time></trkpt><trkpt lat="43.0393032" lon="13.35509"><ele>381.0</ele><time>2026-04-12T08:42:07.979Z</time></trkpt><trkpt lat="43.0393796" lon="13.3550723"><ele>381.0</ele><time>2026-04-12T08:42:09.016Z</time></trkpt><trkpt lat="43.039467" lon="13.3551012"><ele>381.0</ele><time>2026-04-12T08:42:10.004Z</time></trkpt><trkpt lat="43.0395407" lon="13.355153"><ele>381.0</ele><time>2026-04-12T08:42:10.978Z</time></trkpt><trkpt lat="43.0396125" lon="13.3551995"><ele>381.0</ele><time>2026-04-12T08:42:11.993Z</time></trkpt><trkpt lat="43.0397172" lon="13.3551992"><ele>381.0</ele><time>2026-04-12T08:42:14.016Z</time></trkpt><trkpt lat="43.0397676" lon="13.3550918"><ele>381.0</ele><time>2026-04-12T08:42:16.004Z</time></trkpt><trkpt lat="43.0397474" lon="13.3550087"><ele>381.0</ele><time>2026-04-12T08:42:17.027Z</time></trkpt><trkpt lat="43.0396985" lon="13.3549147"><ele>381.0</ele><time>2026-04-12T08:42:18.015Z</time></trkpt><trkpt lat="43.0396285" lon="13.3548142"><ele>381.0</ele><time>2026-04-12T08:42:19.022Z</time></trkpt><trkpt lat="43.0395451" lon="13.3547352"><ele>381.0</ele><time>2026-04-12T08:42:20.029Z</time></trkpt><trkpt lat="43.0394637" lon="13.3546699"><ele>381.0</ele><time>2026-04-12T08:42:21.027Z</time></trkpt><trkpt lat="43.0393931" lon="13.3545698"><ele>378.6</ele><time>2026-04-12T08:42:23.039Z</time></trkpt><trkpt lat="43.0393622" lon="13.3544843"><ele>376.20000000000005</ele><time>2026-04-12T08:42:25.043Z</time></trkpt><trkpt lat="43.039415" lon="13.3544371"><ele>373.79999999999995</ele><time>2026-04-12T08:42:27.036Z</time></trkpt><trkpt lat="43.0395337" lon="13.3544997"><ele>371.4</ele><time>2026-04-12T08:42:29.039Z</time></trkpt><trkpt lat="43.0396044" lon="13.354527"><ele>369.0</ele><time>2026-04-12T08:42:30.035Z</time></trkpt><trkpt lat="43.0397285" lon="13.3545296"><ele>369.0</ele><time>2026-04-12T08:42:32.021Z</time></trkpt><trkpt lat="43.0397736" lon="13.3544195"><ele>369.0</ele><time>2026-04-12T08:42:34.047Z</time></trkpt><trkpt lat="43.0397092" lon="13.3542391"><ele>369.0</ele><time>2026-04-12T08:42:35.989Z</time></trkpt><trkpt lat="43.0396415" lon="13.3541544"><ele>369.0</ele><time>2026-04-12T08:42:37.031Z</time></trkpt><trkpt lat="43.0395666" lon="13.3540772"><ele>369.0</ele><time>2026-04-12T08:42:38.043Z</time></trkpt><trkpt lat="43.0394924" lon="13.3540246"><ele>369.0</ele><time>2026-04-12T08:42:39.025Z</time></trkpt><trkpt lat="43.0394208" lon="13.3539599"><ele>369.0</ele><time>2026-04-12T08:42:40.006Z</time></trkpt><trkpt lat="43.0393479" lon="13.353899"><ele>369.0</ele><time>2026-04-12T08:42:41.045Z</time></trkpt><trkpt lat="43.0392688" lon="13.3538318"><ele>369.0</ele><time>2026-04-12T08:42:42.044Z</time></trkpt><trkpt lat="43.0391903" lon="13.353773"><ele>369.0</ele><time>2026-04-12T08:42:43.035Z</time></trkpt><trkpt lat="43.0391268" lon="13.3537258"><ele>369.0</ele><time>2026-04-12T08:42:44.036Z</time></trkpt><trkpt lat="43.0390905" lon="13.3536435"><ele>368.3333333333333</ele><time>2026-04-12T08:42:45.047Z</time></trkpt><trkpt lat="43.0390776" lon="13.3535393"><ele>367.6666666666667</ele><time>2026-04-12T08:42:46.042Z</time></trkpt><trkpt lat="43.0390667" lon="13.3534166"><ele>367.0</ele><time>2026-04-12T08:42:47.032Z</time></trkpt><trkpt lat="43.0390584" lon="13.3532961"><ele>366.33333333333337</ele><time>2026-04-12T08:42:48.034Z</time></trkpt><trkpt lat="43.0390382" lon="13.3531907"><ele>365.6666666666667</ele><time>2026-04-12T08:42:49.045Z</time></trkpt><trkpt lat="43.038992" lon="13.3530814"><ele>365.0</ele><time>2026-04-12T08:42:50.036Z</time></trkpt><trkpt lat="43.038931" lon="13.3529814"><ele>362.6</ele><time>2026-04-12T08:42:51.048Z</time></trkpt><trkpt lat="43.0388621" lon="13.3528869"><ele>360.2</ele><time>2026-04-12T08:42:52.051Z</time></trkpt><trkpt lat="43.0387926" lon="13.3528116"><ele>357.79999999999995</ele><time>2026-04-12T08:42:53.061Z</time></trkpt><trkpt lat="43.03871" lon="13.352719"><ele>355.4</ele><time>2026-04-12T08:42:54.04Z</time></trkpt><trkpt lat="43.0386294" lon="13.3526144"><ele>353.0</ele><time>2026-04-12T08:42:55.038Z</time></trkpt><trkpt lat="43.0385683" lon="13.3524925"><ele>353.0</ele><time>2026-04-12T08:42:55.99Z</time></trkpt><trkpt lat="43.038535" lon="13.3523568"><ele>353.0</ele><time>2026-04-12T08:42:57.025Z</time></trkpt><trkpt lat="43.0385197" lon="13.3521997"><ele>353.0</ele><time>2026-04-12T08:42:58.023Z</time></trkpt><trkpt lat="43.0385145" lon="13.3520435"><ele>353.0</ele><time>2026-04-12T08:42:59.021Z</time></trkpt><trkpt lat="43.0385215" lon="13.3518669"><ele>352.2</ele><time>2026-04-12T08:43:00.028Z</time></trkpt><trkpt lat="43.0385456" lon="13.3517055"><ele>351.4</ele><time>2026-04-12T08:43:01.044Z</time></trkpt><trkpt lat="43.0385539" lon="13.3515652"><ele>350.59999999999997</ele><time>2026-04-12T08:43:02.004Z</time></trkpt><trkpt lat="43.038549" lon="13.3514428"><ele>349.79999999999995</ele><time>2026-04-12T08:43:03.02Z</time></trkpt><trkpt lat="43.0385225" lon="13.3513275"><ele>349.0</ele><time>2026-04-12T08:43:04.031Z</time></trkpt><trkpt lat="43.038456" lon="13.3512241"><ele>349.0</ele><time>2026-04-12T08:43:05.058Z</time></trkpt><trkpt lat="43.0383789" lon="13.3511205"><ele>349.0</ele><time>2026-04-12T08:43:06.031Z</time></trkpt><trkpt lat="43.0382987" lon="13.3509979"><ele>349.0</ele><time>2026-04-12T08:43:07.04Z</time></trkpt><trkpt lat="43.0382343" lon="13.3508568"><ele>349.0</ele><time>2026-04-12T08:43:08.02Z</time></trkpt><trkpt lat="43.0381941" lon="13.3507053"><ele>349.16666666666663</ele><time>2026-04-12T08:43:09.023Z</time></trkpt><trkpt lat="43.0381551" lon="13.3505783"><ele>349.3333333333333</ele><time>2026-04-12T08:43:10.047Z</time></trkpt><trkpt lat="43.0381265" lon="13.3504922"><ele>349.5</ele><time>2026-04-12T08:43:11.03Z</time></trkpt><trkpt lat="43.0380898" lon="13.3504183"><ele>349.6666666666667</ele><time>2026-04-12T08:43:12.024Z</time></trkpt><trkpt lat="43.0380367" lon="13.3503497"><ele>349.83333333333337</ele><time>2026-04-12T08:43:13.036Z</time></trkpt><trkpt lat="43.0379865" lon="13.3502547"><ele>350.0</ele><time>2026-04-12T08:43:14.011Z</time></trkpt><trkpt lat="43.037924" lon="13.3501683"><ele>350.0</ele><time>2026-04-12T08:43:15.037Z</time></trkpt><trkpt lat="43.0378366" lon="13.3500987"><ele>350.0</ele><time>2026-04-12T08:43:16.031Z</time></trkpt><trkpt lat="43.0377429" lon="13.3500402"><ele>350.0</ele><time>2026-04-12T08:43:17.037Z</time></trkpt><trkpt lat="43.0376619" lon="13.3499798"><ele>350.0</ele><time>2026-04-12T08:43:18.026Z</time></trkpt><trkpt lat="43.0375667" lon="13.3499212"><ele>350.0</ele><time>2026-04-12T08:43:19.04Z</time></trkpt><trkpt lat="43.0374827" lon="13.3498625"><ele>350.0</ele><time>2026-04-12T08:43:20.017Z</time></trkpt><trkpt lat="43.0373815" lon="13.3497688"><ele>350.0</ele><time>2026-04-12T08:43:21.007Z</time></trkpt><trkpt lat="43.0372903" lon="13.3496715"><ele>350.0</ele><time>2026-04-12T08:43:22.032Z</time></trkpt><trkpt lat="43.0371967" lon="13.3495368"><ele>350.0</ele><time>2026-04-12T08:43:23.041Z</time></trkpt><trkpt lat="43.0370868" lon="13.3493795"><ele>350.0</ele><time>2026-04-12T08:43:24.001Z</time></trkpt><trkpt lat="43.0369812" lon="13.349229"><ele>350.0</ele><time>2026-04-12T08:43:25.021Z</time></trkpt><trkpt lat="43.0368691" lon="13.3490786"><ele>350.0</ele><time>2026-04-12T08:43:26.042Z</time></trkpt><trkpt lat="43.0367484" lon="13.3489511"><ele>350.75</ele><time>2026-04-12T08:43:27.043Z</time></trkpt><trkpt lat="43.0366258" lon="13.3488423"><ele>351.5</ele><time>2026-04-12T08:43:28.023Z</time></trkpt><trkpt lat="43.0364907" lon="13.3487442"><ele>352.25</ele><time>2026-04-12T08:43:29.034Z</time></trkpt><trkpt lat="43.0363702" lon="13.3486723"><ele>353.0</ele><time>2026-04-12T08:43:30.028Z</time></trkpt><trkpt lat="43.0362803" lon="13.3486017"><ele>353.0</ele><time>2026-04-12T08:43:31.028Z</time></trkpt><trkpt lat="43.0362" lon="13.3485716"><ele>353.0</ele><time>2026-04-12T08:43:32.039Z</time></trkpt><trkpt lat="43.0360783" lon="13.3485795"><ele>353.0</ele><time>2026-04-12T08:43:34.05Z</time></trkpt><trkpt lat="43.0359865" lon="13.3486395"><ele>353.0</ele><time>2026-04-12T08:43:36.046Z</time></trkpt><trkpt lat="43.0359608" lon="13.3487716"><ele>353.0</ele><time>2026-04-12T08:43:38.046Z</time></trkpt><trkpt lat="43.0359295" lon="13.3488687"><ele>353.1428571428571</ele><time>2026-04-12T08:43:40.053Z</time></trkpt><trkpt lat="43.0358781" lon="13.3489308"><ele>353.28571428571433</ele><time>2026-04-12T08:43:42.041Z</time></trkpt><trkpt lat="43.0358209" lon="13.3489871"><ele>353.42857142857144</ele><time>2026-04-12T08:43:45.04Z</time></trkpt><trkpt lat="43.0357465" lon="13.3490182"><ele>353.57142857142856</ele><time>2026-04-12T08:43:48.056Z</time></trkpt><trkpt lat="43.0356721" lon="13.3490057"><ele>353.71428571428567</ele><time>2026-04-12T08:43:50.051Z</time></trkpt><trkpt lat="43.0356114" lon="13.3489332"><ele>353.8571428571429</ele><time>2026-04-12T08:43:52.031Z</time></trkpt><trkpt lat="43.0355576" lon="13.3488754"><ele>354.0</ele><time>2026-04-12T08:43:54.004Z</time></trkpt><trkpt lat="43.0354538" lon="13.348842"><ele>354.0</ele><time>2026-04-12T08:43:56.012Z</time></trkpt><trkpt lat="43.0353725" lon="13.3488485"><ele>354.0</ele><time>2026-04-12T08:43:58.036Z</time></trkpt><trkpt lat="43.0352824" lon="13.3488309"><ele>354.0</ele><time>2026-04-12T08:44:00.053Z</time></trkpt><trkpt lat="43.0351989" lon="13.3488751"><ele>354.0</ele><time>2026-04-12T08:44:03.043Z</time></trkpt><trkpt lat="43.0350938" lon="13.3489022"><ele>354.0</ele><time>2026-04-12T08:44:05.035Z</time></trkpt><trkpt lat="43.0350164" lon="13.3489168"><ele>354.0</ele><time>2026-04-12T08:44:06.025Z</time></trkpt><trkpt lat="43.0349238" lon="13.348936"><ele>353.5</ele><time>2026-04-12T08:44:07.031Z</time></trkpt><trkpt lat="43.0348347" lon="13.3489539"><ele>353.0</ele><time>2026-04-12T08:44:08.022Z</time></trkpt><trkpt lat="43.0347377" lon="13.3489847"><ele>352.5</ele><time>2026-04-12T08:44:09.036Z</time></trkpt><trkpt lat="43.0346495" lon="13.3490352"><ele>352.0</ele><time>2026-04-12T08:44:09.995Z</time></trkpt><trkpt lat="43.0345666" lon="13.3490819"><ele>351.5</ele><time>2026-04-12T08:44:11.023Z</time></trkpt><trkpt lat="43.0344988" lon="13.349114"><ele>351.0</ele><time>2026-04-12T08:44:12.035Z</time></trkpt><trkpt lat="43.0344437" lon="13.3491623"><ele>351.00000000000006</ele><time>2026-04-12T08:44:13.056Z</time></trkpt><trkpt lat="43.0343891" lon="13.3492188"><ele>351.0</ele><time>2026-04-12T08:44:14.017Z</time></trkpt><trkpt lat="43.0343227" lon="13.3492807"><ele>351.0</ele><time>2026-04-12T08:44:16.049Z</time></trkpt><trkpt lat="43.034245" lon="13.3493055"><ele>351.0</ele><time>2026-04-12T08:44:19.035Z</time></trkpt><trkpt lat="43.0341696" lon="13.3493551"><ele>351.0</ele><time>2026-04-12T08:44:21.053Z</time></trkpt><trkpt lat="43.0341054" lon="13.3493528"><ele>351.00000000000006</ele><time>2026-04-12T08:44:23.02Z</time></trkpt><trkpt lat="43.0340695" lon="13.3492763"><ele>351.0</ele><time>2026-04-12T08:44:25.01Z</time></trkpt><trkpt lat="43.0339667" lon="13.3492616"><ele>351.3333333333333</ele><time>2026-04-12T08:44:28.043Z</time></trkpt><trkpt lat="43.0338953" lon="13.3492842"><ele>351.6666666666667</ele><time>2026-04-12T08:44:28.996Z</time></trkpt><trkpt lat="43.0338196" lon="13.3493339"><ele>352.0</ele><time>2026-04-12T08:44:30.027Z</time></trkpt><trkpt lat="43.0337496" lon="13.3493799"><ele>352.33333333333337</ele><time>2026-04-12T08:44:31.026Z</time></trkpt><trkpt lat="43.0336709" lon="13.3494152"><ele>352.6666666666667</ele><time>2026-04-12T08:44:32.041Z</time></trkpt><trkpt lat="43.03359" lon="13.3494349"><ele>353.0</ele><time>2026-04-12T08:44:33.038Z</time></trkpt><trkpt lat="43.0335069" lon="13.3494333"><ele>353.0</ele><time>2026-04-12T08:44:34.042Z</time></trkpt><trkpt lat="43.0334125" lon="13.349417"><ele>353.0</ele><time>2026-04-12T08:44:35.016Z</time></trkpt><trkpt lat="43.0333315" lon="13.3493936"><ele>353.0</ele><time>2026-04-12T08:44:36.05Z</time></trkpt><trkpt lat="43.033251" lon="13.3493575"><ele>353.0</ele><time>2026-04-12T08:44:37.031Z</time></trkpt><trkpt lat="43.0331793" lon="13.3493032"><ele>353.0</ele><time>2026-04-12T08:44:38.031Z</time></trkpt><trkpt lat="43.0331121" lon="13.3492532"><ele>353.0</ele><time>2026-04-12T08:44:39.042Z</time></trkpt><trkpt lat="43.0330378" lon="13.349216"><ele>353.33333333333337</ele><time>2026-04-12T08:44:40.05Z</time></trkpt><trkpt lat="43.0329602" lon="13.3491896"><ele>353.6666666666667</ele><time>2026-04-12T08:44:41.053Z</time></trkpt><trkpt lat="43.0328852" lon="13.3491746"><ele>354.0</ele><time>2026-04-12T08:44:42.036Z</time></trkpt><trkpt lat="43.0328082" lon="13.3491642"><ele>354.3333333333333</ele><time>2026-04-12T08:44:43.029Z</time></trkpt><trkpt lat="43.0327318" lon="13.34915"><ele>354.66666666666663</ele><time>2026-04-12T08:44:44.025Z</time></trkpt><trkpt lat="43.0326684" lon="13.3491237"><ele>355.0</ele><time>2026-04-12T08:44:45.032Z</time></trkpt><trkpt lat="43.0325921" lon="13.3491162"><ele>355.4</ele><time>2026-04-12T08:44:47.039Z</time></trkpt><trkpt lat="43.0324589" lon="13.3491306"><ele>355.8</ele><time>2026-04-12T08:44:49.048Z</time></trkpt><trkpt lat="43.0323432" lon="13.3491419"><ele>356.20000000000005</ele><time>2026-04-12T08:44:51.053Z</time></trkpt><trkpt lat="43.0322718" lon="13.3492143"><ele>356.6</ele><time>2026-04-12T08:44:53.04Z</time></trkpt><trkpt lat="43.0322054" lon="13.3492862"><ele>357.0</ele><time>2026-04-12T08:44:55.041Z</time></trkpt><trkpt lat="43.0321108" lon="13.3492671"><ele>357.0</ele><time>2026-04-12T08:44:57.034Z</time></trkpt><trkpt lat="43.0320482" lon="13.3492492"><ele>357.0</ele><time>2026-04-12T08:44:58.033Z</time></trkpt><trkpt lat="43.0319516" lon="13.3491994"><ele>357.0</ele><time>2026-04-12T08:45:00.021Z</time></trkpt><trkpt lat="43.0318665" lon="13.3491936"><ele>357.0</ele><time>2026-04-12T08:45:02.025Z</time></trkpt><trkpt lat="43.0318142" lon="13.349258"><ele>357.0</ele><time>2026-04-12T08:45:05.041Z</time></trkpt><trkpt lat="43.0317929" lon="13.3493857"><ele>357.0</ele><time>2026-04-12T08:45:08.039Z</time></trkpt><trkpt lat="43.0318038" lon="13.3495444"><ele>357.0</ele><time>2026-04-12T08:45:10.027Z</time></trkpt><trkpt lat="43.0317674" lon="13.3496627"><ele>357.0</ele><time>2026-04-12T08:45:12.059Z</time></trkpt><trkpt lat="43.0317258" lon="13.3497421"><ele>357.0</ele><time>2026-04-12T08:45:14.016Z</time></trkpt><trkpt lat="43.0316833" lon="13.3498612"><ele>357.0</ele><time>2026-04-12T08:45:17.06Z</time></trkpt><trkpt lat="43.0316873" lon="13.3500009"><ele>357.0</ele><time>2026-04-12T08:45:19.044Z</time></trkpt><trkpt lat="43.0316716" lon="13.3501231"><ele>358.6</ele><time>2026-04-12T08:45:21.042Z</time></trkpt><trkpt lat="43.0315804" lon="13.3502039"><ele>360.20000000000005</ele><time>2026-04-12T08:45:23.031Z</time></trkpt><trkpt lat="43.0314633" lon="13.3502817"><ele>361.8</ele><time>2026-04-12T08:45:25.046Z</time></trkpt><trkpt lat="43.0313895" lon="13.3503569"><ele>363.4</ele><time>2026-04-12T08:45:26.04Z</time></trkpt><trkpt lat="43.031318" lon="13.3504365"><ele>365.0</ele><time>2026-04-12T08:45:27.041Z</time></trkpt><trkpt lat="43.0312452" lon="13.3505262"><ele>364.1666666666667</ele><time>2026-04-12T08:45:28.009Z</time></trkpt><trkpt lat="43.0311776" lon="13.3506218"><ele>363.33333333333337</ele><time>2026-04-12T08:45:29.042Z</time></trkpt><trkpt lat="43.0311064" lon="13.3507017"><ele>362.5</ele><time>2026-04-12T08:45:30.05Z</time></trkpt><trkpt lat="43.0310482" lon="13.3507654"><ele>361.6666666666667</ele><time>2026-04-12T08:45:31.048Z</time></trkpt><trkpt lat="43.0309767" lon="13.3508286"><ele>360.8333333333333</ele><time>2026-04-12T08:45:32.035Z</time></trkpt><trkpt lat="43.0309072" lon="13.3508989"><ele>360.0</ele><time>2026-04-12T08:45:33.032Z</time></trkpt><trkpt lat="43.0308738" lon="13.3509784"><ele>360.0</ele><time>2026-04-12T08:45:34.035Z</time></trkpt><trkpt lat="43.0308691" lon="13.3511405"><ele>360.0</ele><time>2026-04-12T08:45:36.052Z</time></trkpt><trkpt lat="43.0308362" lon="13.351299"><ele>360.0</ele><time>2026-04-12T08:45:38.04Z</time></trkpt><trkpt lat="43.0307497" lon="13.351416"><ele>360.0</ele><time>2026-04-12T08:45:40.032Z</time></trkpt><trkpt lat="43.0306805" lon="13.3514743"><ele>360.0</ele><time>2026-04-12T08:45:41.032Z</time></trkpt><trkpt lat="43.0306162" lon="13.3515471"><ele>360.8333333333333</ele><time>2026-04-12T08:45:42.046Z</time></trkpt><trkpt lat="43.0305673" lon="13.351618"><ele>361.6666666666667</ele><time>2026-04-12T08:45:43.047Z</time></trkpt><trkpt lat="43.0305131" lon="13.3516925"><ele>362.5</ele><time>2026-04-12T08:45:44.049Z</time></trkpt><trkpt lat="43.0304828" lon="13.3517836"><ele>363.33333333333337</ele><time>2026-04-12T08:45:45.072Z</time></trkpt><trkpt lat="43.0304428" lon="13.3518684"><ele>364.1666666666667</ele><time>2026-04-12T08:45:45.986Z</time></trkpt><trkpt lat="43.0304044" lon="13.3519382"><ele>365.0</ele><time>2026-04-12T08:45:47.034Z</time></trkpt><trkpt lat="43.0303149" lon="13.3520397"><ele>365.0</ele><time>2026-04-12T08:45:49.046Z</time></trkpt><trkpt lat="43.0302025" lon="13.3520879"><ele>365.0</ele><time>2026-04-12T08:45:51.038Z</time></trkpt><trkpt lat="43.0300869" lon="13.3520783"><ele>365.0</ele><time>2026-04-12T08:45:53.051Z</time></trkpt><trkpt lat="43.0299848" lon="13.3521122"><ele>365.0</ele><time>2026-04-12T08:45:55.048Z</time></trkpt><trkpt lat="43.0299114" lon="13.3522186"><ele>365.0</ele><time>2026-04-12T08:45:57.052Z</time></trkpt><trkpt lat="43.0298705" lon="13.3522875"><ele>366.0</ele><time>2026-04-12T08:45:58.038Z</time></trkpt><trkpt lat="43.0297833" lon="13.3523872"><ele>367.0</ele><time>2026-04-12T08:46:00.044Z</time></trkpt><trkpt lat="43.0296843" lon="13.3524438"><ele>368.0</ele><time>2026-04-12T08:46:02.039Z</time></trkpt><trkpt lat="43.0296323" lon="13.3524942"><ele>369.0</ele><time>2026-04-12T08:46:03.054Z</time></trkpt><trkpt lat="43.0295724" lon="13.3525396"><ele>370.0</ele><time>2026-04-12T08:46:04.048Z</time></trkpt><trkpt lat="43.0294947" lon="13.3525911"><ele>371.0</ele><time>2026-04-12T08:46:06.05Z</time></trkpt><trkpt lat="43.0294138" lon="13.3525379"><ele>371.0</ele><time>2026-04-12T08:46:09.039Z</time></trkpt><trkpt lat="43.029361" lon="13.3524813"><ele>371.0</ele><time>2026-04-12T08:46:10.047Z</time></trkpt><trkpt lat="43.0292988" lon="13.3524059"><ele>371.0</ele><time>2026-04-12T08:46:11.05Z</time></trkpt><trkpt lat="43.0292352" lon="13.3523246"><ele>371.0</ele><time>2026-04-12T08:46:12.042Z</time></trkpt><trkpt lat="43.029188" lon="13.3522372"><ele>371.0</ele><time>2026-04-12T08:46:13.051Z</time></trkpt><trkpt lat="43.0291401" lon="13.3521448"><ele>371.0</ele><time>2026-04-12T08:46:14.016Z</time></trkpt><trkpt lat="43.0290886" lon="13.352061"><ele>373.1666666666667</ele><time>2026-04-12T08:46:15.037Z</time></trkpt><trkpt lat="43.0290344" lon="13.3519739"><ele>375.33333333333337</ele><time>2026-04-12T08:46:16.062Z</time></trkpt><trkpt lat="43.0289846" lon="13.3518971"><ele>377.5</ele><time>2026-04-12T08:46:17.049Z</time></trkpt><trkpt lat="43.0289409" lon="13.3518129"><ele>379.6666666666667</ele><time>2026-04-12T08:46:18.035Z</time></trkpt><trkpt lat="43.0289125" lon="13.3517271"><ele>381.8333333333333</ele><time>2026-04-12T08:46:19.043Z</time></trkpt><trkpt lat="43.0288834" lon="13.3516341"><ele>384.0</ele><time>2026-04-12T08:46:20.045Z</time></trkpt><trkpt lat="43.0288531" lon="13.3515254"><ele>384.0</ele><time>2026-04-12T08:46:21.037Z</time></trkpt><trkpt lat="43.02882" lon="13.3514213"><ele>384.0</ele><time>2026-04-12T08:46:22.042Z</time></trkpt><trkpt lat="43.0287821" lon="13.3513088"><ele>384.0</ele><time>2026-04-12T08:46:23.034Z</time></trkpt><trkpt lat="43.0287436" lon="13.3511955"><ele>384.0</ele><time>2026-04-12T08:46:24.029Z</time></trkpt><trkpt lat="43.0287052" lon="13.3510815"><ele>384.0</ele><time>2026-04-12T08:46:25.062Z</time></trkpt><trkpt lat="43.0286736" lon="13.3509892"><ele>384.0</ele><time>2026-04-12T08:46:26.076Z</time></trkpt><trkpt lat="43.0285715" lon="13.3509376"><ele>385.2</ele><time>2026-04-12T08:46:28.049Z</time></trkpt><trkpt lat="43.0284793" lon="13.3509781"><ele>386.4</ele><time>2026-04-12T08:46:29.984Z</time></trkpt><trkpt lat="43.028378" lon="13.3510481"><ele>387.6</ele><time>2026-04-12T08:46:32.03Z</time></trkpt><trkpt lat="43.0282892" lon="13.3511108"><ele>388.8</ele><time>2026-04-12T08:46:34.048Z</time></trkpt><trkpt lat="43.0282133" lon="13.3511585"><ele>390.0</ele><time>2026-04-12T08:46:36.041Z</time></trkpt><trkpt lat="43.0281475" lon="13.3512151"><ele>390.1666666666667</ele><time>2026-04-12T08:46:38.032Z</time></trkpt><trkpt lat="43.0280542" lon="13.3512658"><ele>390.33333333333337</ele><time>2026-04-12T08:46:40.039Z</time></trkpt><trkpt lat="43.0279933" lon="13.3512905"><ele>390.5</ele><time>2026-04-12T08:46:41.034Z</time></trkpt><trkpt lat="43.0279298" lon="13.3513275"><ele>390.6666666666667</ele><time>2026-04-12T08:46:42.031Z</time></trkpt><trkpt lat="43.0278557" lon="13.351362"><ele>390.83333333333337</ele><time>2026-04-12T08:46:43.05Z</time></trkpt><trkpt lat="43.0277873" lon="13.3513959"><ele>391.0</ele><time>2026-04-12T08:46:44.029Z</time></trkpt><trkpt lat="43.0277104" lon="13.3514318"><ele>391.0</ele><time>2026-04-12T08:46:45.032Z</time></trkpt><trkpt lat="43.0276013" lon="13.3514869"><ele>391.0</ele><time>2026-04-12T08:46:47.027Z</time></trkpt><trkpt lat="43.0275215" lon="13.3515413"><ele>391.0</ele><time>2026-04-12T08:46:49.038Z</time></trkpt><trkpt lat="43.0275292" lon="13.3516334"><ele>391.0</ele><time>2026-04-12T08:46:51.044Z</time></trkpt><trkpt lat="43.027559" lon="13.3517533"><ele>391.0</ele><time>2026-04-12T08:46:53.012Z</time></trkpt><trkpt lat="43.0275628" lon="13.3518794"><ele>391.00000000000006</ele><time>2026-04-12T08:46:55.044Z</time></trkpt><trkpt lat="43.027542" lon="13.3520218"><ele>391.0</ele><time>2026-04-12T08:46:57.034Z</time></trkpt><trkpt lat="43.0275369" lon="13.3521124"><ele>391.0</ele><time>2026-04-12T08:46:58.042Z</time></trkpt><trkpt lat="43.0275343" lon="13.3522008"><ele>391.0</ele><time>2026-04-12T08:46:59.034Z</time></trkpt><trkpt lat="43.0275319" lon="13.3522971"><ele>391.00000000000006</ele><time>2026-04-12T08:47:00.031Z</time></trkpt><trkpt lat="43.0275418" lon="13.3524028"><ele>391.0</ele><time>2026-04-12T08:47:01.045Z</time></trkpt><trkpt lat="43.0275579" lon="13.3524905"><ele>389.83333333333337</ele><time>2026-04-12T08:47:02.006Z</time></trkpt><trkpt lat="43.027605" lon="13.3526561"><ele>388.6666666666667</ele><time>2026-04-12T08:47:04.047Z</time></trkpt><trkpt lat="43.0276397" lon="13.3527334"><ele>387.5</ele><time>2026-04-12T08:47:05.034Z</time></trkpt><trkpt lat="43.0276688" lon="13.3528128"><ele>386.33333333333337</ele><time>2026-04-12T08:47:06.032Z</time></trkpt><trkpt lat="43.0277011" lon="13.352912"><ele>385.1666666666667</ele><time>2026-04-12T08:47:07.054Z</time></trkpt><trkpt lat="43.0277404" lon="13.3530093"><ele>384.0</ele><time>2026-04-12T08:47:08.054Z</time></trkpt><trkpt lat="43.0277769" lon="13.3530961"><ele>383.0</ele><time>2026-04-12T08:47:09.038Z</time></trkpt><trkpt lat="43.027816" lon="13.3531855"><ele>382.0</ele><time>2026-04-12T08:47:10.036Z</time></trkpt><trkpt lat="43.0278504" lon="13.3532669"><ele>381.0</ele><time>2026-04-12T08:47:11.032Z</time></trkpt><trkpt lat="43.0278849" lon="13.3533443"><ele>380.0</ele><time>2026-04-12T08:47:12.06Z</time></trkpt><trkpt lat="43.0279207" lon="13.3534274"><ele>379.0</ele><time>2026-04-12T08:47:13.058Z</time></trkpt><trkpt lat="43.0279512" lon="13.3535137"><ele>378.0</ele><time>2026-04-12T08:47:14.044Z</time></trkpt><trkpt lat="43.0279808" lon="13.3536495"><ele>378.0</ele><time>2026-04-12T08:47:15.995Z</time></trkpt><trkpt lat="43.0279714" lon="13.3537715"><ele>378.0</ele><time>2026-04-12T08:47:18.037Z</time></trkpt><trkpt lat="43.0279445" lon="13.3538932"><ele>378.0</ele><time>2026-04-12T08:47:20.012Z</time></trkpt><trkpt lat="43.0278724" lon="13.3539979"><ele>378.0</ele><time>2026-04-12T08:47:22.054Z</time></trkpt><trkpt lat="43.0277587" lon="13.3540778"><ele>378.0</ele><time>2026-04-12T08:47:24.022Z</time></trkpt><trkpt lat="43.0276878" lon="13.3541129"><ele>377.3333333333333</ele><time>2026-04-12T08:47:25.043Z</time></trkpt><trkpt lat="43.0276264" lon="13.3541484"><ele>376.6666666666667</ele><time>2026-04-12T08:47:26.038Z</time></trkpt><trkpt lat="43.0275547" lon="13.3541852"><ele>376.0</ele><time>2026-04-12T08:47:27.033Z</time></trkpt><trkpt lat="43.0274717" lon="13.3542194"><ele>375.33333333333337</ele><time>2026-04-12T08:47:28.049Z</time></trkpt><trkpt lat="43.0273956" lon="13.3542494"><ele>374.6666666666667</ele><time>2026-04-12T08:47:29.051Z</time></trkpt><trkpt lat="43.0273249" lon="13.3542625"><ele>374.0</ele><time>2026-04-12T08:47:30.041Z</time></trkpt><trkpt lat="43.0272046" lon="13.3542376"><ele>374.0</ele><time>2026-04-12T08:47:32.066Z</time></trkpt><trkpt lat="43.0271416" lon="13.3542129"><ele>374.0</ele><time>2026-04-12T08:47:33.044Z</time></trkpt><trkpt lat="43.0270413" lon="13.3541417"><ele>374.0</ele><time>2026-04-12T08:47:35.067Z</time></trkpt><trkpt lat="43.0269919" lon="13.3540765"><ele>374.0</ele><time>2026-04-12T08:47:36.034Z</time></trkpt><trkpt lat="43.0269542" lon="13.3539956"><ele>374.0</ele><time>2026-04-12T08:47:37.037Z</time></trkpt><trkpt lat="43.0269059" lon="13.3538899"><ele>374.0</ele><time>2026-04-12T08:47:38.042Z</time></trkpt><trkpt lat="43.0268587" lon="13.3537672"><ele>376.0</ele><time>2026-04-12T08:47:39.058Z</time></trkpt><trkpt lat="43.026804" lon="13.3536378"><ele>378.0</ele><time>2026-04-12T08:47:40.06Z</time></trkpt><trkpt lat="43.0267538" lon="13.3535135"><ele>380.0</ele><time>2026-04-12T08:47:41.041Z</time></trkpt><trkpt lat="43.0266985" lon="13.3533862"><ele>382.0</ele><time>2026-04-12T08:47:42.047Z</time></trkpt><trkpt lat="43.0266412" lon="13.3532478"><ele>384.0</ele><time>2026-04-12T08:47:43.04Z</time></trkpt><trkpt lat="43.0265895" lon="13.3531144"><ele>387.75</ele><time>2026-04-12T08:47:44.048Z</time></trkpt><trkpt lat="43.0265402" lon="13.3529815"><ele>391.5</ele><time>2026-04-12T08:47:45.037Z</time></trkpt><trkpt lat="43.0264786" lon="13.3528468"><ele>395.25</ele><time>2026-04-12T08:47:46.053Z</time></trkpt><trkpt lat="43.0264235" lon="13.3527115"><ele>399.0</ele><time>2026-04-12T08:47:47.054Z</time></trkpt><trkpt lat="43.0263704" lon="13.3525759"><ele>399.0</ele><time>2026-04-12T08:47:48.051Z</time></trkpt><trkpt lat="43.0263173" lon="13.3524455"><ele>399.0</ele><time>2026-04-12T08:47:49.043Z</time></trkpt><trkpt lat="43.0262657" lon="13.3523117"><ele>399.0</ele><time>2026-04-12T08:47:50.037Z</time></trkpt><trkpt lat="43.0262149" lon="13.3521921"><ele>399.0</ele><time>2026-04-12T08:47:51.04Z</time></trkpt><trkpt lat="43.026161" lon="13.3520744"><ele>399.0</ele><time>2026-04-12T08:47:52.04Z</time></trkpt><trkpt lat="43.0261101" lon="13.3519645"><ele>400.6</ele><time>2026-04-12T08:47:53.062Z</time></trkpt><trkpt lat="43.0260596" lon="13.351858"><ele>402.2</ele><time>2026-04-12T08:47:54.048Z</time></trkpt><trkpt lat="43.0259994" lon="13.3517581"><ele>403.8</ele><time>2026-04-12T08:47:55.059Z</time></trkpt><trkpt lat="43.025936" lon="13.3516512"><ele>405.40000000000003</ele><time>2026-04-12T08:47:56.078Z</time></trkpt><trkpt lat="43.0258734" lon="13.3515502"><ele>407.0</ele><time>2026-04-12T08:47:57.05Z</time></trkpt><trkpt lat="43.025819" lon="13.3514475"><ele>409.8333333333333</ele><time>2026-04-12T08:47:58.022Z</time></trkpt><trkpt lat="43.0257711" lon="13.3513539"><ele>412.66666666666663</ele><time>2026-04-12T08:47:59.02Z</time></trkpt><trkpt lat="43.0257342" lon="13.3512643"><ele>415.5</ele><time>2026-04-12T08:48:00.039Z</time></trkpt><trkpt lat="43.0256726" lon="13.3511296"><ele>418.33333333333337</ele><time>2026-04-12T08:48:02.045Z</time></trkpt><trkpt lat="43.0256005" lon="13.3510734"><ele>421.1666666666667</ele><time>2026-04-12T08:48:04.047Z</time></trkpt><trkpt lat="43.0256758" lon="13.3510778"><ele>424.0</ele><time>2026-04-12T08:48:16.03Z</time></trkpt><trkpt lat="43.0257948" lon="13.3511385"><ele>422.4</ele><time>2026-04-12T08:48:18.038Z</time></trkpt><trkpt lat="43.0258809" lon="13.3511569"><ele>420.79999999999995</ele><time>2026-04-12T08:48:19.034Z</time></trkpt><trkpt lat="43.025952" lon="13.3511663"><ele>419.20000000000005</ele><time>2026-04-12T08:48:20.067Z</time></trkpt><trkpt lat="43.026055" lon="13.3511643"><ele>417.6</ele><time>2026-04-12T08:48:22.071Z</time></trkpt><trkpt lat="43.0261009" lon="13.3511032"><ele>416.0</ele><time>2026-04-12T08:48:24.051Z</time></trkpt><trkpt lat="43.0259778" lon="13.3510671"><ele>416.0</ele><time>2026-04-12T08:48:27.042Z</time></trkpt><trkpt lat="43.0258922" lon="13.3510489"><ele>416.0</ele><time>2026-04-12T08:48:28.034Z</time></trkpt><trkpt lat="43.025798" lon="13.3510219"><ele>416.0</ele><time>2026-04-12T08:48:29.042Z</time></trkpt><trkpt lat="43.0257036" lon="13.3509832"><ele>416.0</ele><time>2026-04-12T08:48:30.022Z</time></trkpt><trkpt lat="43.0256059" lon="13.3509538"><ele>416.0</ele><time>2026-04-12T08:48:31.054Z</time></trkpt><trkpt lat="43.0255428" lon="13.3509076"><ele>417.1428571428571</ele><time>2026-04-12T08:48:32.061Z</time></trkpt><trkpt lat="43.02549" lon="13.3508573"><ele>418.28571428571433</ele><time>2026-04-12T08:48:33.063Z</time></trkpt><trkpt lat="43.0254451" lon="13.3507892"><ele>419.42857142857144</ele><time>2026-04-12T08:48:34.059Z</time></trkpt><trkpt lat="43.0254032" lon="13.3507186"><ele>420.57142857142856</ele><time>2026-04-12T08:48:34.99Z</time></trkpt><trkpt lat="43.0253667" lon="13.35063"><ele>421.71428571428567</ele><time>2026-04-12T08:48:36.035Z</time></trkpt><trkpt lat="43.0253376" lon="13.3505315"><ele>422.8571428571429</ele><time>2026-04-12T08:48:37.053Z</time></trkpt><trkpt lat="43.0253102" lon="13.3504319"><ele>424.0</ele><time>2026-04-12T08:48:38.055Z</time></trkpt><trkpt lat="43.0252801" lon="13.3503391"><ele>425.4</ele><time>2026-04-12T08:48:39.042Z</time></trkpt><trkpt lat="43.0252012" lon="13.3501909"><ele>426.79999999999995</ele><time>2026-04-12T08:48:41.023Z</time></trkpt><trkpt lat="43.0251623" lon="13.3500837"><ele>428.20000000000005</ele><time>2026-04-12T08:48:42.049Z</time></trkpt><trkpt lat="43.0251187" lon="13.3499669"><ele>429.6</ele><time>2026-04-12T08:48:43.051Z</time></trkpt><trkpt lat="43.0250732" lon="13.3498598"><ele>431.0</ele><time>2026-04-12T08:48:44.029Z</time></trkpt><trkpt lat="43.0250262" lon="13.3497442"><ele>431.49999999999994</ele><time>2026-04-12T08:48:45.025Z</time></trkpt><trkpt lat="43.0249806" lon="13.349646"><ele>432.0</ele><time>2026-04-12T08:48:46.037Z</time></trkpt><trkpt lat="43.0249401" lon="13.3495517"><ele>432.5</ele><time>2026-04-12T08:48:47.042Z</time></trkpt><trkpt lat="43.0248928" lon="13.3494646"><ele>433.0</ele><time>2026-04-12T08:48:48.045Z</time></trkpt><trkpt lat="43.0248297" lon="13.3493637"><ele>433.49999999999994</ele><time>2026-04-12T08:48:49.039Z</time></trkpt><trkpt lat="43.0247664" lon="13.3492532"><ele>434.0</ele><time>2026-04-12T08:48:49.991Z</time></trkpt><trkpt lat="43.0247105" lon="13.3491603"><ele>435.8333333333333</ele><time>2026-04-12T08:48:51.035Z</time></trkpt><trkpt lat="43.024643" lon="13.3491106"><ele>437.66666666666663</ele><time>2026-04-12T08:48:53.018Z</time></trkpt><trkpt lat="43.0246106" lon="13.3492372"><ele>439.5</ele><time>2026-04-12T08:48:55.041Z</time></trkpt><trkpt lat="43.0245821" lon="13.3493176"><ele>441.33333333333337</ele><time>2026-04-12T08:48:56.035Z</time></trkpt><trkpt lat="43.0245227" lon="13.3493925"><ele>443.1666666666667</ele><time>2026-04-12T08:48:57.029Z</time></trkpt><trkpt lat="43.0244607" lon="13.349453"><ele>445.0</ele><time>2026-04-12T08:48:58.045Z</time></trkpt><trkpt lat="43.0243982" lon="13.3495073"><ele>445.0</ele><time>2026-04-12T08:48:59.039Z</time></trkpt><trkpt lat="43.0243446" lon="13.3495616"><ele>445.0</ele><time>2026-04-12T08:49:00.039Z</time></trkpt><trkpt lat="43.0242883" lon="13.3496095"><ele>445.0</ele><time>2026-04-12T08:49:01.036Z</time></trkpt><trkpt lat="43.0242314" lon="13.3496629"><ele>445.0</ele><time>2026-04-12T08:49:02.041Z</time></trkpt><trkpt lat="43.024169" lon="13.3497258"><ele>445.0</ele><time>2026-04-12T08:49:03.054Z</time></trkpt><trkpt lat="43.0241029" lon="13.3497859"><ele>445.0</ele><time>2026-04-12T08:49:04.035Z</time></trkpt><trkpt lat="43.0240348" lon="13.3498447"><ele>445.0</ele><time>2026-04-12T08:49:05.053Z</time></trkpt><trkpt lat="43.0239586" lon="13.3499039"><ele>443.4</ele><time>2026-04-12T08:49:06.053Z</time></trkpt><trkpt lat="43.023896" lon="13.3499548"><ele>441.8</ele><time>2026-04-12T08:49:07.037Z</time></trkpt><trkpt lat="43.0237999" lon="13.3500513"><ele>440.20000000000005</ele><time>2026-04-12T08:49:09.043Z</time></trkpt><trkpt lat="43.0237417" lon="13.3501081"><ele>438.6</ele><time>2026-04-12T08:49:11.046Z</time></trkpt><trkpt lat="43.0237411" lon="13.3502481"><ele>437.0</ele><time>2026-04-12T08:49:14.005Z</time></trkpt><trkpt lat="43.0237868" lon="13.3503624"><ele>437.0</ele><time>2026-04-12T08:49:15.999Z</time></trkpt><trkpt lat="43.02384" lon="13.3504099"><ele>437.0</ele><time>2026-04-12T08:49:17.013Z</time></trkpt><trkpt lat="43.0239033" lon="13.3504586"><ele>437.0</ele><time>2026-04-12T08:49:18.022Z</time></trkpt><trkpt lat="43.0239568" lon="13.3505228"><ele>437.0</ele><time>2026-04-12T08:49:19.036Z</time></trkpt><trkpt lat="43.0240079" lon="13.3506021"><ele>437.0</ele><time>2026-04-12T08:49:19.988Z</time></trkpt><trkpt lat="43.0240582" lon="13.3506821"><ele>437.0</ele><time>2026-04-12T08:49:21.03Z</time></trkpt><trkpt lat="43.0241122" lon="13.3507699"><ele>437.0</ele><time>2026-04-12T08:49:22.049Z</time></trkpt><trkpt lat="43.0241599" lon="13.3508623"><ele>435.66666666666663</ele><time>2026-04-12T08:49:23.048Z</time></trkpt><trkpt lat="43.0242022" lon="13.350965"><ele>434.3333333333333</ele><time>2026-04-12T08:49:24.038Z</time></trkpt><trkpt lat="43.0242494" lon="13.3510622"><ele>433.0</ele><time>2026-04-12T08:49:24.981Z</time></trkpt><trkpt lat="43.0242907" lon="13.3511664"><ele>431.66666666666663</ele><time>2026-04-12T08:49:26.049Z</time></trkpt><trkpt lat="43.0243323" lon="13.3512756"><ele>430.3333333333333</ele><time>2026-04-12T08:49:27.054Z</time></trkpt><trkpt lat="43.0243714" lon="13.3513865"><ele>429.0</ele><time>2026-04-12T08:49:28.04Z</time></trkpt><trkpt lat="43.0244076" lon="13.3514955"><ele>427.6666666666667</ele><time>2026-04-12T08:49:29.052Z</time></trkpt><trkpt lat="43.0244446" lon="13.3516009"><ele>426.33333333333337</ele><time>2026-04-12T08:49:30.043Z</time></trkpt><trkpt lat="43.0244786" lon="13.3516983"><ele>425.0</ele><time>2026-04-12T08:49:31.062Z</time></trkpt><trkpt lat="43.0245178" lon="13.3517898"><ele>423.6666666666667</ele><time>2026-04-12T08:49:32.059Z</time></trkpt><trkpt lat="43.0245669" lon="13.3518795"><ele>422.33333333333337</ele><time>2026-04-12T08:49:33.04Z</time></trkpt><trkpt lat="43.0246145" lon="13.3519729"><ele>421.0</ele><time>2026-04-12T08:49:34.052Z</time></trkpt><trkpt lat="43.0246643" lon="13.3520703"><ele>421.00000000000006</ele><time>2026-04-12T08:49:35.044Z</time></trkpt><trkpt lat="43.0247006" lon="13.3521668"><ele>421.0</ele><time>2026-04-12T08:49:36.034Z</time></trkpt><trkpt lat="43.0247316" lon="13.3522643"><ele>421.0</ele><time>2026-04-12T08:49:37.047Z</time></trkpt><trkpt lat="43.0247578" lon="13.3523655"><ele>421.0</ele><time>2026-04-12T08:49:38.052Z</time></trkpt><trkpt lat="43.0247953" lon="13.3524637"><ele>421.00000000000006</ele><time>2026-04-12T08:49:39.046Z</time></trkpt><trkpt lat="43.0248313" lon="13.3525485"><ele>421.0</ele><time>2026-04-12T08:49:40.052Z</time></trkpt><trkpt lat="43.0248734" lon="13.3526342"><ele>419.1666666666667</ele><time>2026-04-12T08:49:41.034Z</time></trkpt><trkpt lat="43.0249168" lon="13.352714"><ele>417.33333333333337</ele><time>2026-04-12T08:49:42.053Z</time></trkpt><trkpt lat="43.0249566" lon="13.3527975"><ele>415.5</ele><time>2026-04-12T08:49:43.031Z</time></trkpt><trkpt lat="43.0249942" lon="13.3528951"><ele>413.66666666666663</ele><time>2026-04-12T08:49:44.061Z</time></trkpt><trkpt lat="43.0250284" lon="13.3529914"><ele>411.8333333333333</ele><time>2026-04-12T08:49:45.045Z</time></trkpt><trkpt lat="43.0250695" lon="13.3530883"><ele>410.0</ele><time>2026-04-12T08:49:46.044Z</time></trkpt><trkpt lat="43.025118" lon="13.3531898"><ele>407.2</ele><time>2026-04-12T08:49:47.035Z</time></trkpt><trkpt lat="43.0251659" lon="13.3532959"><ele>404.4</ele><time>2026-04-12T08:49:48.027Z</time></trkpt><trkpt lat="43.0252185" lon="13.353406"><ele>401.6</ele><time>2026-04-12T08:49:49.043Z</time></trkpt><trkpt lat="43.0252657" lon="13.3535221"><ele>398.8</ele><time>2026-04-12T08:49:50.046Z</time></trkpt><trkpt lat="43.0253208" lon="13.3536281"><ele>396.0</ele><time>2026-04-12T08:49:51.048Z</time></trkpt><trkpt lat="43.0253729" lon="13.3537291"><ele>396.0</ele><time>2026-04-12T08:49:52.045Z</time></trkpt><trkpt lat="43.0254216" lon="13.3538285"><ele>396.0</ele><time>2026-04-12T08:49:53.046Z</time></trkpt><trkpt lat="43.0254651" lon="13.3539336"><ele>396.0</ele><time>2026-04-12T08:49:54.064Z</time></trkpt><trkpt lat="43.0255096" lon="13.354048"><ele>396.0</ele><time>2026-04-12T08:49:55.06Z</time></trkpt><trkpt lat="43.0255548" lon="13.3541692"><ele>396.0</ele><time>2026-04-12T08:49:56.056Z</time></trkpt><trkpt lat="43.0255979" lon="13.3542965"><ele>394.5</ele><time>2026-04-12T08:49:57.037Z</time></trkpt><trkpt lat="43.0256281" lon="13.3544209"><ele>393.0</ele><time>2026-04-12T08:49:58.049Z</time></trkpt><trkpt lat="43.0256512" lon="13.3545428"><ele>391.5</ele><time>2026-04-12T08:49:59.015Z</time></trkpt><trkpt lat="43.0256768" lon="13.3546572"><ele>390.0</ele><time>2026-04-12T08:50:00.031Z</time></trkpt><trkpt lat="43.0257047" lon="13.3547579"><ele>388.5</ele><time>2026-04-12T08:50:01.032Z</time></trkpt><trkpt lat="43.0257337" lon="13.3548572"><ele>387.0</ele><time>2026-04-12T08:50:02.003Z</time></trkpt><trkpt lat="43.0257571" lon="13.3549374"><ele>386.6666666666667</ele><time>2026-04-12T08:50:03.045Z</time></trkpt><trkpt lat="43.0257766" lon="13.3550562"><ele>386.33333333333337</ele><time>2026-04-12T08:50:05.038Z</time></trkpt><trkpt lat="43.0257886" lon="13.3551482"><ele>386.0</ele><time>2026-04-12T08:50:08.044Z</time></trkpt><trkpt lat="43.0257667" lon="13.3552755"><ele>385.6666666666667</ele><time>2026-04-12T08:50:11.044Z</time></trkpt><trkpt lat="43.0256991" lon="13.3553383"><ele>385.33333333333337</ele><time>2026-04-12T08:50:13.03Z</time></trkpt><trkpt lat="43.0256271" lon="13.3554581"><ele>385.0</ele><time>2026-04-12T08:50:15.033Z</time></trkpt><trkpt lat="43.0255707" lon="13.3555415"><ele>385.0</ele><time>2026-04-12T08:50:16.041Z</time></trkpt><trkpt lat="43.0255016" lon="13.3556368"><ele>385.0</ele><time>2026-04-12T08:50:17.033Z</time></trkpt><trkpt lat="43.0254461" lon="13.3557466"><ele>385.0</ele><time>2026-04-12T08:50:18.044Z</time></trkpt><trkpt lat="43.0253867" lon="13.3558642"><ele>385.0</ele><time>2026-04-12T08:50:19.056Z</time></trkpt><trkpt lat="43.0253347" lon="13.3559469"><ele>385.0</ele><time>2026-04-12T08:50:20.036Z</time></trkpt><trkpt lat="43.0252736" lon="13.3560257"><ele>385.00000000000006</ele><time>2026-04-12T08:50:21.038Z</time></trkpt><trkpt lat="43.0252091" lon="13.3560873"><ele>385.0</ele><time>2026-04-12T08:50:22.04Z</time></trkpt><trkpt lat="43.0251393" lon="13.3561459"><ele>385.0</ele><time>2026-04-12T08:50:23.046Z</time></trkpt><trkpt lat="43.0250759" lon="13.3561936"><ele>385.0</ele><time>2026-04-12T08:50:24.035Z</time></trkpt><trkpt lat="43.0250062" lon="13.3562569"><ele>385.00000000000006</ele><time>2026-04-12T08:50:25.002Z</time></trkpt><trkpt lat="43.0249305" lon="13.3563357"><ele>385.0</ele><time>2026-04-12T08:50:26.042Z</time></trkpt><trkpt lat="43.0248687" lon="13.3564011"><ele>386.4</ele><time>2026-04-12T08:50:27.041Z</time></trkpt><trkpt lat="43.0247791" lon="13.3564858"><ele>387.8</ele><time>2026-04-12T08:50:29.04Z</time></trkpt><trkpt lat="43.0246709" lon="13.3564439"><ele>389.20000000000005</ele><time>2026-04-12T08:50:32.05Z</time></trkpt><trkpt lat="43.0246023" lon="13.3563561"><ele>390.6</ele><time>2026-04-12T08:50:33.04Z</time></trkpt><trkpt lat="43.0245379" lon="13.3562797"><ele>392.0</ele><time>2026-04-12T08:50:34.032Z</time></trkpt><trkpt lat="43.0244337" lon="13.3562281"><ele>391.99999999999994</ele><time>2026-04-12T08:50:36.04Z</time></trkpt><trkpt lat="43.0243407" lon="13.3561694"><ele>392.0</ele><time>2026-04-12T08:50:38.028Z</time></trkpt><trkpt lat="43.0242825" lon="13.3562549"><ele>392.0</ele><time>2026-04-12T08:50:44.038Z</time></trkpt><trkpt lat="43.0242174" lon="13.3562846"><ele>392.0</ele><time>2026-04-12T08:50:52.032Z</time></trkpt><trkpt lat="43.0241422" lon="13.3562816"><ele>391.99999999999994</ele><time>2026-04-12T08:50:55.028Z</time></trkpt><trkpt lat="43.0240579" lon="13.3563097"><ele>392.0</ele><time>2026-04-12T08:50:57.036Z</time></trkpt><trkpt lat="43.0240297" lon="13.3563973"><ele>395.66666666666663</ele><time>2026-04-12T08:51:02.031Z</time></trkpt><trkpt lat="43.0240171" lon="13.3565164"><ele>399.3333333333333</ele><time>2026-04-12T08:51:05.036Z</time></trkpt><trkpt lat="43.024015" lon="13.3566127"><ele>403.0</ele><time>2026-04-12T08:51:07.036Z</time></trkpt><trkpt lat="43.0239706" lon="13.3567324"><ele>406.66666666666663</ele><time>2026-04-12T08:51:09.034Z</time></trkpt><trkpt lat="43.0239066" lon="13.3567875"><ele>410.3333333333333</ele><time>2026-04-12T08:51:10.032Z</time></trkpt><trkpt lat="43.0238733" lon="13.3568671"><ele>414.0</ele><time>2026-04-12T08:51:12.044Z</time></trkpt><trkpt lat="43.0239336" lon="13.3569998"><ele>414.0</ele><time>2026-04-12T08:51:14.049Z</time></trkpt><trkpt lat="43.023995" lon="13.3570582"><ele>414.0</ele><time>2026-04-12T08:51:16.023Z</time></trkpt><trkpt lat="43.0240471" lon="13.3571116"><ele>414.0</ele><time>2026-04-12T08:51:18.024Z</time></trkpt><trkpt lat="43.0241024" lon="13.3571782"><ele>414.0</ele><time>2026-04-12T08:51:20.059Z</time></trkpt><trkpt lat="43.0241517" lon="13.3572523"><ele>414.0</ele><time>2026-04-12T08:51:22.064Z</time></trkpt><trkpt lat="43.024222" lon="13.3573457"><ele>414.0</ele><time>2026-04-12T08:52:33.03Z</time></trkpt><trkpt lat="43.0243086" lon="13.3574606"><ele>411.8333333333333</ele><time>2026-04-12T08:52:35.047Z</time></trkpt><trkpt lat="43.0243525" lon="13.3575314"><ele>409.66666666666663</ele><time>2026-04-12T08:52:36.034Z</time></trkpt><trkpt lat="43.0244034" lon="13.3576042"><ele>407.5</ele><time>2026-04-12T08:52:37.049Z</time></trkpt><trkpt lat="43.0244707" lon="13.3576799"><ele>405.3333333333333</ele><time>2026-04-12T08:52:38.047Z</time></trkpt><trkpt lat="43.0245368" lon="13.3577502"><ele>403.16666666666663</ele><time>2026-04-12T08:52:39.042Z</time></trkpt><trkpt lat="43.0246151" lon="13.3578182"><ele>401.0</ele><time>2026-04-12T08:52:40.041Z</time></trkpt><trkpt lat="43.0246903" lon="13.3578939"><ele>400.99999999999994</ele><time>2026-04-12T08:52:41.048Z</time></trkpt><trkpt lat="43.0247609" lon="13.3579606"><ele>401.0</ele><time>2026-04-12T08:52:42.031Z</time></trkpt><trkpt lat="43.0248247" lon="13.3580236"><ele>401.0</ele><time>2026-04-12T08:52:43.063Z</time></trkpt><trkpt lat="43.0248815" lon="13.358086"><ele>401.0</ele><time>2026-04-12T08:52:44.041Z</time></trkpt><trkpt lat="43.0249408" lon="13.3581467"><ele>400.99999999999994</ele><time>2026-04-12T08:52:45.05Z</time></trkpt><trkpt lat="43.0249949" lon="13.3582091"><ele>401.0</ele><time>2026-04-12T08:52:46.022Z</time></trkpt><trkpt lat="43.0250875" lon="13.3583462"><ele>400.20000000000005</ele><time>2026-04-12T08:52:48.038Z</time></trkpt><trkpt lat="43.0251373" lon="13.358421"><ele>399.40000000000003</ele><time>2026-04-12T08:52:49.048Z</time></trkpt><trkpt lat="43.0252141" lon="13.3585299"><ele>398.6</ele><time>2026-04-12T08:52:51.031Z</time></trkpt><trkpt lat="43.0252568" lon="13.3586427"><ele>397.8</ele><time>2026-04-12T08:52:53.053Z</time></trkpt><trkpt lat="43.0252754" lon="13.3588082"><ele>397.0</ele><time>2026-04-12T08:52:55.042Z</time></trkpt><trkpt lat="43.0252995" lon="13.358929"><ele>397.00000000000006</ele><time>2026-04-12T08:52:57.034Z</time></trkpt><trkpt lat="43.0253436" lon="13.3590334"><ele>397.0</ele><time>2026-04-12T08:53:00.037Z</time></trkpt><trkpt lat="43.0253549" lon="13.3591328"><ele>397.0</ele><time>2026-04-12T08:53:02.038Z</time></trkpt><trkpt lat="43.0253591" lon="13.3593149"><ele>397.0</ele><time>2026-04-12T08:53:04.031Z</time></trkpt><trkpt lat="43.0253521" lon="13.359402"><ele>397.00000000000006</ele><time>2026-04-12T08:53:05.039Z</time></trkpt><trkpt lat="43.0253417" lon="13.3594882"><ele>397.0</ele><time>2026-04-12T08:53:06.05Z</time></trkpt><trkpt lat="43.0253282" lon="13.3595937"><ele>397.8</ele><time>2026-04-12T08:53:08.053Z</time></trkpt><trkpt lat="43.0253221" lon="13.3597085"><ele>398.6</ele><time>2026-04-12T08:53:10.069Z</time></trkpt><trkpt lat="43.0253922" lon="13.3598503"><ele>399.40000000000003</ele><time>2026-04-12T08:53:12.029Z</time></trkpt><trkpt lat="43.0254656" lon="13.359977"><ele>400.20000000000005</ele><time>2026-04-12T08:53:14.038Z</time></trkpt><trkpt lat="43.025516" lon="13.3601262"><ele>401.0</ele><time>2026-04-12T08:53:16.029Z</time></trkpt><trkpt lat="43.0255806" lon="13.3602002"><ele>401.0</ele><time>2026-04-12T08:53:18.055Z</time></trkpt><trkpt lat="43.0256447" lon="13.3601311"><ele>401.0</ele><time>2026-04-12T08:53:21.012Z</time></trkpt><trkpt lat="43.0256884" lon="13.3599881"><ele>401.0</ele><time>2026-04-12T08:53:23.049Z</time></trkpt><trkpt lat="43.0257081" lon="13.3598363"><ele>401.0</ele><time>2026-04-12T08:53:25.032Z</time></trkpt><trkpt lat="43.0257007" lon="13.3597208"><ele>401.0</ele><time>2026-04-12T08:53:27.037Z</time></trkpt><trkpt lat="43.0256946" lon="13.3596053"><ele>400.20000000000005</ele><time>2026-04-12T08:53:29.041Z</time></trkpt><trkpt lat="43.0256917" lon="13.359517"><ele>399.40000000000003</ele><time>2026-04-12T08:53:30.042Z</time></trkpt><trkpt lat="43.0257197" lon="13.3593591"><ele>398.6</ele><time>2026-04-12T08:53:32.051Z</time></trkpt><trkpt lat="43.0257861" lon="13.3592846"><ele>397.8</ele><time>2026-04-12T08:53:34.063Z</time></trkpt><trkpt lat="43.025862" lon="13.359371"><ele>397.0</ele><time>2026-04-12T08:53:35.987Z</time></trkpt><trkpt lat="43.0259804" lon="13.3594052"><ele>398.33333333333337</ele><time>2026-04-12T08:53:38.04Z</time></trkpt><trkpt lat="43.0260554" lon="13.3594058"><ele>399.6666666666667</ele><time>2026-04-12T08:53:39.002Z</time></trkpt><trkpt lat="43.0261388" lon="13.359438"><ele>401.0</ele><time>2026-04-12T08:53:40.035Z</time></trkpt><trkpt lat="43.0262389" lon="13.3595018"><ele>402.33333333333337</ele><time>2026-04-12T08:53:41.034Z</time></trkpt><trkpt lat="43.0263295" lon="13.3595782"><ele>403.6666666666667</ele><time>2026-04-12T08:53:42.038Z</time></trkpt><trkpt lat="43.0263911" lon="13.3596204"><ele>405.0</ele><time>2026-04-12T08:53:43.041Z</time></trkpt><trkpt lat="43.0264473" lon="13.3596861"><ele>405.6666666666667</ele><time>2026-04-12T08:53:45.039Z</time></trkpt><trkpt lat="43.026454" lon="13.3597939"><ele>406.33333333333337</ele><time>2026-04-12T08:53:47.049Z</time></trkpt><trkpt lat="43.0264716" lon="13.3598892"><ele>407.0</ele><time>2026-04-12T08:53:48.013Z</time></trkpt><trkpt lat="43.0264792" lon="13.3600067"><ele>407.6666666666667</ele><time>2026-04-12T08:53:49.026Z</time></trkpt><trkpt lat="43.0264858" lon="13.360093"><ele>408.33333333333337</ele><time>2026-04-12T08:53:50.019Z</time></trkpt><trkpt lat="43.0265086" lon="13.3602365"><ele>409.0</ele><time>2026-04-12T08:53:52.047Z</time></trkpt><trkpt lat="43.0265441" lon="13.3603695"><ele>409.00000000000006</ele><time>2026-04-12T08:53:54.037Z</time></trkpt><trkpt lat="43.0266078" lon="13.3605015"><ele>409.0</ele><time>2026-04-12T08:53:56.04Z</time></trkpt><trkpt lat="43.0266187" lon="13.3606059"><ele>409.0</ele><time>2026-04-12T08:53:58.042Z</time></trkpt><trkpt lat="43.0266018" lon="13.3607617"><ele>409.0</ele><time>2026-04-12T08:54:00.039Z</time></trkpt><trkpt lat="43.0265904" lon="13.3608473"><ele>409.00000000000006</ele><time>2026-04-12T08:54:01.017Z</time></trkpt><trkpt lat="43.0265797" lon="13.3609349"><ele>409.0</ele><time>2026-04-12T08:54:02.037Z</time></trkpt><trkpt lat="43.0265598" lon="13.3610953"><ele>409.79999999999995</ele><time>2026-04-12T08:54:04.034Z</time></trkpt><trkpt lat="43.0265396" lon="13.3611771"><ele>410.59999999999997</ele><time>2026-04-12T08:54:05.037Z</time></trkpt><trkpt lat="43.0264941" lon="13.3613385"><ele>411.4</ele><time>2026-04-12T08:54:07.045Z</time></trkpt><trkpt lat="43.026463" lon="13.3614935"><ele>412.2</ele><time>2026-04-12T08:54:09.029Z</time></trkpt><trkpt lat="43.026469" lon="13.3615891"><ele>413.0</ele><time>2026-04-12T08:54:10.03Z</time></trkpt><trkpt lat="43.026538" lon="13.3617346"><ele>414.0</ele><time>2026-04-12T08:54:12.036Z</time></trkpt><trkpt lat="43.0265727" lon="13.3618942"><ele>415.0</ele><time>2026-04-12T08:54:14.069Z</time></trkpt><trkpt lat="43.0265794" lon="13.362055"><ele>416.0</ele><time>2026-04-12T08:54:16.032Z</time></trkpt><trkpt lat="43.0265397" lon="13.3622233"><ele>417.0</ele><time>2026-04-12T08:54:18.037Z</time></trkpt><trkpt lat="43.0265167" lon="13.362329"><ele>418.0</ele><time>2026-04-12T08:54:19.03Z</time></trkpt><trkpt lat="43.0264982" lon="13.3624146"><ele>419.00000000000006</ele><time>2026-04-12T08:54:20.024Z</time></trkpt><trkpt lat="43.0264674" lon="13.3625084"><ele>420.0</ele><time>2026-04-12T08:54:21.04Z</time></trkpt><trkpt lat="43.0264391" lon="13.3625931"><ele>421.0</ele><time>2026-04-12T08:54:22.015Z</time></trkpt><trkpt lat="43.0263953" lon="13.3627488"><ele>422.0</ele><time>2026-04-12T08:54:24.031Z</time></trkpt><trkpt lat="43.0263693" lon="13.3628429"><ele>423.00000000000006</ele><time>2026-04-12T08:54:25.037Z</time></trkpt><trkpt lat="43.0263354" lon="13.3629534"><ele>424.0</ele><time>2026-04-12T08:54:26.033Z</time></trkpt><trkpt lat="43.0263102" lon="13.3630551"><ele>425.6</ele><time>2026-04-12T08:54:27.029Z</time></trkpt><trkpt lat="43.0262798" lon="13.3631681"><ele>427.2</ele><time>2026-04-12T08:54:28.031Z</time></trkpt><trkpt lat="43.0262527" lon="13.3632639"><ele>428.80000000000007</ele><time>2026-04-12T08:54:29.042Z</time></trkpt><trkpt lat="43.0262202" lon="13.363355"><ele>430.40000000000003</ele><time>2026-04-12T08:54:30.06Z</time></trkpt><trkpt lat="43.0261694" lon="13.3634888"><ele>432.0</ele><time>2026-04-12T08:54:32.035Z</time></trkpt><trkpt lat="43.0262038" lon="13.3636293"><ele>432.0</ele><time>2026-04-12T08:54:34.045Z</time></trkpt><trkpt lat="43.0261832" lon="13.3637976"><ele>432.00000000000006</ele><time>2026-04-12T08:54:36.086Z</time></trkpt><trkpt lat="43.026168" lon="13.3638932"><ele>432.00000000000006</ele><time>2026-04-12T08:54:37.036Z</time></trkpt><trkpt lat="43.0261432" lon="13.3640393"><ele>432.0</ele><time>2026-04-12T08:54:39.041Z</time></trkpt><trkpt lat="43.0261833" lon="13.3641889"><ele>432.0</ele><time>2026-04-12T08:54:41.073Z</time></trkpt><trkpt lat="43.0262042" lon="13.3643119"><ele>433.3333333333333</ele><time>2026-04-12T08:54:43.029Z</time></trkpt><trkpt lat="43.026252" lon="13.3643933"><ele>434.66666666666663</ele><time>2026-04-12T08:54:45.019Z</time></trkpt><trkpt lat="43.0263491" lon="13.3644206"><ele>436.0</ele><time>2026-04-12T08:54:46.987Z</time></trkpt><trkpt lat="43.0264346" lon="13.3643963"><ele>437.3333333333333</ele><time>2026-04-12T08:54:48.037Z</time></trkpt><trkpt lat="43.0264966" lon="13.3643539"><ele>438.66666666666663</ele><time>2026-04-12T08:54:49.048Z</time></trkpt><trkpt lat="43.0265581" lon="13.3642776"><ele>440.0</ele><time>2026-04-12T08:54:51.038Z</time></trkpt><trkpt lat="43.0266267" lon="13.3641989"><ele>443.57142857142856</ele><time>2026-04-12T08:54:53.045Z</time></trkpt><trkpt lat="43.0266909" lon="13.36417"><ele>447.1428571428571</ele><time>2026-04-12T08:54:54.035Z</time></trkpt><trkpt lat="43.0267638" lon="13.3641601"><ele>450.71428571428567</ele><time>2026-04-12T08:54:55.046Z</time></trkpt><trkpt lat="43.0268316" lon="13.3641517"><ele>454.2857142857143</ele><time>2026-04-12T08:54:56.036Z</time></trkpt><trkpt lat="43.0269031" lon="13.3641204"><ele>457.8571428571429</ele><time>2026-04-12T08:54:57.044Z</time></trkpt><trkpt lat="43.0269773" lon="13.3640883"><ele>461.4285714285714</ele><time>2026-04-12T08:54:58.041Z</time></trkpt><trkpt lat="43.0270434" lon="13.3640721"><ele>465.0</ele><time>2026-04-12T08:54:59.039Z</time></trkpt><trkpt lat="43.0271753" lon="13.3640649"><ele>465.0</ele><time>2026-04-12T08:55:01.063Z</time></trkpt><trkpt lat="43.0272709" lon="13.364061"><ele>465.0</ele><time>2026-04-12T08:55:02.037Z</time></trkpt><trkpt lat="43.0273697" lon="13.3640569"><ele>465.0</ele><time>2026-04-12T08:55:03.043Z</time></trkpt><trkpt lat="43.0274662" lon="13.3640363"><ele>465.0</ele><time>2026-04-12T08:55:04.027Z</time></trkpt><trkpt lat="43.0275675" lon="13.3640196"><ele>465.0</ele><time>2026-04-12T08:55:05.05Z</time></trkpt><trkpt lat="43.0276485" lon="13.3639944"><ele>469.5</ele><time>2026-04-12T08:55:06.042Z</time></trkpt><trkpt lat="43.0277133" lon="13.3639337"><ele>474.0</ele><time>2026-04-12T08:55:07.051Z</time></trkpt><trkpt lat="43.0277656" lon="13.3638543"><ele>478.5</ele><time>2026-04-12T08:55:08.035Z</time></trkpt><trkpt lat="43.0277997" lon="13.363759"><ele>483.0</ele><time>2026-04-12T08:55:08.992Z</time></trkpt><trkpt lat="43.0278206" lon="13.363641"><ele>487.5</ele><time>2026-04-12T08:55:10.044Z</time></trkpt><trkpt lat="43.0278304" lon="13.3635095"><ele>492.0</ele><time>2026-04-12T08:55:11.051Z</time></trkpt><trkpt lat="43.0278232" lon="13.3633834"><ele>492.20000000000005</ele><time>2026-04-12T08:55:12.048Z</time></trkpt><trkpt lat="43.0278108" lon="13.3632487"><ele>492.40000000000003</ele><time>2026-04-12T08:55:13.035Z</time></trkpt><trkpt lat="43.0278137" lon="13.3631245"><ele>492.59999999999997</ele><time>2026-04-12T08:55:14.042Z</time></trkpt><trkpt lat="43.027827" lon="13.3630085"><ele>492.79999999999995</ele><time>2026-04-12T08:55:15.031Z</time></trkpt><trkpt lat="43.0278593" lon="13.362892"><ele>493.0</ele><time>2026-04-12T08:55:16.051Z</time></trkpt><trkpt lat="43.0278829" lon="13.3627745"><ele>492.2</ele><time>2026-04-12T08:55:17.053Z</time></trkpt><trkpt lat="43.027915" lon="13.3626504"><ele>491.4</ele><time>2026-04-12T08:55:18.051Z</time></trkpt><trkpt lat="43.0279608" lon="13.3625416"><ele>490.59999999999997</ele><time>2026-04-12T08:55:19.063Z</time></trkpt><trkpt lat="43.0280156" lon="13.3624407"><ele>489.79999999999995</ele><time>2026-04-12T08:55:20.054Z</time></trkpt><trkpt lat="43.0280928" lon="13.362359"><ele>489.0</ele><time>2026-04-12T08:55:21.042Z</time></trkpt><trkpt lat="43.0281838" lon="13.36228"><ele>489.0</ele><time>2026-04-12T08:55:22.047Z</time></trkpt><trkpt lat="43.0282712" lon="13.3622179"><ele>489.0</ele><time>2026-04-12T08:55:23.045Z</time></trkpt><trkpt lat="43.0283429" lon="13.3621837"><ele>489.0</ele><time>2026-04-12T08:55:24.053Z</time></trkpt><trkpt lat="43.0283912" lon="13.3620731"><ele>489.0</ele><time>2026-04-12T08:55:26.051Z</time></trkpt><trkpt lat="43.0283482" lon="13.3618716"><ele>489.0</ele><time>2026-04-12T08:55:28.047Z</time></trkpt><trkpt lat="43.0283219" lon="13.3617236"><ele>487.0</ele><time>2026-04-12T08:55:29.054Z</time></trkpt><trkpt lat="43.0283009" lon="13.3615885"><ele>485.0</ele><time>2026-04-12T08:55:30.044Z</time></trkpt><trkpt lat="43.0283044" lon="13.3614671"><ele>483.0</ele><time>2026-04-12T08:55:31.036Z</time></trkpt><trkpt lat="43.0283033" lon="13.3613692"><ele>481.0</ele><time>2026-04-12T08:55:32.051Z</time></trkpt><trkpt lat="43.0283269" lon="13.3612862"><ele>479.0</ele><time>2026-04-12T08:55:33.05Z</time></trkpt><trkpt lat="43.028446" lon="13.3611824"><ele>479.0</ele><time>2026-04-12T08:55:35.044Z</time></trkpt><trkpt lat="43.0285679" lon="13.3611294"><ele>479.0</ele><time>2026-04-12T08:55:37.023Z</time></trkpt><trkpt lat="43.0286908" lon="13.3611036"><ele>479.0</ele><time>2026-04-12T08:55:39.04Z</time></trkpt><trkpt lat="43.0287615" lon="13.3610603"><ele>479.0</ele><time>2026-04-12T08:55:40.039Z</time></trkpt><trkpt lat="43.0288516" lon="13.3610124"><ele>479.0</ele><time>2026-04-12T08:55:41.047Z</time></trkpt><trkpt lat="43.0289275" lon="13.3609568"><ele>479.0</ele><time>2026-04-12T08:55:42.05Z</time></trkpt><trkpt lat="43.0290074" lon="13.3608829"><ele>479.0</ele><time>2026-04-12T08:55:43.043Z</time></trkpt><trkpt lat="43.0290736" lon="13.3607928"><ele>479.0</ele><time>2026-04-12T08:55:44.053Z</time></trkpt><trkpt lat="43.0291253" lon="13.3606896"><ele>479.0</ele><time>2026-04-12T08:55:45.016Z</time></trkpt><trkpt lat="43.0291656" lon="13.3606122"><ele>479.0</ele><time>2026-04-12T08:55:46.034Z</time></trkpt><trkpt lat="43.0292571" lon="13.360561"><ele>481.16666666666663</ele><time>2026-04-12T08:55:48.03Z</time></trkpt><trkpt lat="43.0293505" lon="13.3605364"><ele>483.3333333333333</ele><time>2026-04-12T08:55:50.045Z</time></trkpt><trkpt lat="43.029416" lon="13.3605076"><ele>485.5</ele><time>2026-04-12T08:55:51.063Z</time></trkpt><trkpt lat="43.0294918" lon="13.3604762"><ele>487.66666666666663</ele><time>2026-04-12T08:55:52.025Z</time></trkpt><trkpt lat="43.0295701" lon="13.3604387"><ele>489.8333333333333</ele><time>2026-04-12T08:55:52.98Z</time></trkpt><trkpt lat="43.0296517" lon="13.3603919"><ele>492.0</ele><time>2026-04-12T08:55:54.059Z</time></trkpt><trkpt lat="43.0297532" lon="13.3603522"><ele>492.0</ele><time>2026-04-12T08:55:55.037Z</time></trkpt><trkpt lat="43.0298598" lon="13.360329"><ele>492.0</ele><time>2026-04-12T08:55:56.048Z</time></trkpt><trkpt lat="43.0299661" lon="13.3603071"><ele>492.0</ele><time>2026-04-12T08:55:57.037Z</time></trkpt><trkpt lat="43.030081" lon="13.3602782"><ele>492.0</ele><time>2026-04-12T08:55:58.048Z</time></trkpt><trkpt lat="43.0301981" lon="13.3602502"><ele>489.0</ele><time>2026-04-12T08:55:59.052Z</time></trkpt><trkpt lat="43.0303242" lon="13.3602249"><ele>486.0</ele><time>2026-04-12T08:56:00.069Z</time></trkpt><trkpt lat="43.0304484" lon="13.3601934"><ele>483.0</ele><time>2026-04-12T08:56:01.041Z</time></trkpt><trkpt lat="43.0305679" lon="13.3601659"><ele>480.0</ele><time>2026-04-12T08:56:02.052Z</time></trkpt><trkpt lat="43.0306755" lon="13.3601254"><ele>480.0</ele><time>2026-04-12T08:56:03.024Z</time></trkpt><trkpt lat="43.0307812" lon="13.360087"><ele>480.0</ele><time>2026-04-12T08:56:04.056Z</time></trkpt><trkpt lat="43.0308636" lon="13.3600598"><ele>480.0</ele><time>2026-04-12T08:56:05.051Z</time></trkpt><trkpt lat="43.0309411" lon="13.3600395"><ele>480.0</ele><time>2026-04-12T08:56:05.993Z</time></trkpt><trkpt lat="43.0310192" lon="13.3600385"><ele>480.0</ele><time>2026-04-12T08:56:07.036Z</time></trkpt><trkpt lat="43.0310994" lon="13.3600441"><ele>480.0</ele><time>2026-04-12T08:56:08.054Z</time></trkpt><trkpt lat="43.0311659" lon="13.3600684"><ele>479.0</ele><time>2026-04-12T08:56:09.067Z</time></trkpt><trkpt lat="43.0312418" lon="13.3601208"><ele>478.0</ele><time>2026-04-12T08:56:11.048Z</time></trkpt><trkpt lat="43.0313093" lon="13.3602204"><ele>477.0</ele><time>2026-04-12T08:56:13.058Z</time></trkpt><trkpt lat="43.0314113" lon="13.3602753"><ele>476.0</ele><time>2026-04-12T08:56:15.027Z</time></trkpt><trkpt lat="43.0315402" lon="13.3602436"><ele>475.0</ele><time>2026-04-12T08:56:17.045Z</time></trkpt><trkpt lat="43.0316181" lon="13.3602036"><ele>474.6</ele><time>2026-04-12T08:56:18.056Z</time></trkpt><trkpt lat="43.0317096" lon="13.3601886"><ele>474.2</ele><time>2026-04-12T08:56:19.054Z</time></trkpt><trkpt lat="43.03179" lon="13.3601908"><ele>473.79999999999995</ele><time>2026-04-12T08:56:20.042Z</time></trkpt><trkpt lat="43.031869" lon="13.3603051"><ele>473.4</ele><time>2026-04-12T08:56:22.056Z</time></trkpt><trkpt lat="43.0318806" lon="13.360417"><ele>473.0</ele><time>2026-04-12T08:56:22.993Z</time></trkpt><trkpt lat="43.0318747" lon="13.3605558"><ele>475.25</ele><time>2026-04-12T08:56:24.053Z</time></trkpt><trkpt lat="43.0318647" lon="13.3607185"><ele>477.5</ele><time>2026-04-12T08:56:25.048Z</time></trkpt><trkpt lat="43.0318547" lon="13.3608782"><ele>479.75</ele><time>2026-04-12T08:56:26.041Z</time></trkpt><trkpt lat="43.0318453" lon="13.3610434"><ele>482.0</ele><time>2026-04-12T08:56:27.051Z</time></trkpt><trkpt lat="43.0318371" lon="13.3612184"><ele>484.5</ele><time>2026-04-12T08:56:28.024Z</time></trkpt><trkpt lat="43.0318353" lon="13.3614005"><ele>487.0</ele><time>2026-04-12T08:56:29.053Z</time></trkpt><trkpt lat="43.0318291" lon="13.3615799"><ele>489.5</ele><time>2026-04-12T08:56:30.065Z</time></trkpt><trkpt lat="43.0318228" lon="13.361762"><ele>492.0</ele><time>2026-04-12T08:56:31.047Z</time></trkpt><trkpt lat="43.031808" lon="13.3619501"><ele>492.0</ele><time>2026-04-12T08:56:32.058Z</time></trkpt><trkpt lat="43.0317985" lon="13.36213"><ele>492.0</ele><time>2026-04-12T08:56:33.054Z</time></trkpt><trkpt lat="43.0317926" lon="13.3623126"><ele>492.0</ele><time>2026-04-12T08:56:34.027Z</time></trkpt><trkpt lat="43.0317958" lon="13.3624994"><ele>492.0</ele><time>2026-04-12T08:56:35.042Z</time></trkpt><trkpt lat="43.0318" lon="13.362669"><ele>493.0</ele><time>2026-04-12T08:56:36.029Z</time></trkpt><trkpt lat="43.0317972" lon="13.3628051"><ele>494.00000000000006</ele><time>2026-04-12T08:56:36.999Z</time></trkpt><trkpt lat="43.0317883" lon="13.3629148"><ele>495.00000000000006</ele><time>2026-04-12T08:56:38.012Z</time></trkpt><trkpt lat="43.0318053" lon="13.3630557"><ele>496.0</ele><time>2026-04-12T08:56:40.001Z</time></trkpt><trkpt lat="43.0318657" lon="13.3632083"><ele>497.0</ele><time>2026-04-12T08:56:42.039Z</time></trkpt><trkpt lat="43.0318591" lon="13.3633011"><ele>496.99999999999994</ele><time>2026-04-12T08:56:43.046Z</time></trkpt><trkpt lat="43.0318483" lon="13.3633914"><ele>497.0</ele><time>2026-04-12T08:56:44.039Z</time></trkpt><trkpt lat="43.0318149" lon="13.3634761"><ele>497.0</ele><time>2026-04-12T08:56:45.036Z</time></trkpt><trkpt lat="43.031776" lon="13.3635515"><ele>497.0</ele><time>2026-04-12T08:56:46.045Z</time></trkpt><trkpt lat="43.0317155" lon="13.3636188"><ele>496.99999999999994</ele><time>2026-04-12T08:56:47.036Z</time></trkpt><trkpt lat="43.0316306" lon="13.3636768"><ele>497.0</ele><time>2026-04-12T08:56:48.046Z</time></trkpt><trkpt lat="43.0315418" lon="13.3637359"><ele>496.75</ele><time>2026-04-12T08:56:49.028Z</time></trkpt><trkpt lat="43.0314406" lon="13.3637957"><ele>496.5</ele><time>2026-04-12T08:56:50.033Z</time></trkpt><trkpt lat="43.0313381" lon="13.3638726"><ele>496.25</ele><time>2026-04-12T08:56:51.039Z</time></trkpt><trkpt lat="43.0312302" lon="13.3639581"><ele>496.0</ele><time>2026-04-12T08:56:52.014Z</time></trkpt><trkpt lat="43.0311157" lon="13.3640406"><ele>496.0</ele><time>2026-04-12T08:56:53.049Z</time></trkpt><trkpt lat="43.0309976" lon="13.3641345"><ele>496.0</ele><time>2026-04-12T08:56:54.032Z</time></trkpt><trkpt lat="43.0308705" lon="13.3642321"><ele>496.0</ele><time>2026-04-12T08:56:55.053Z</time></trkpt><trkpt lat="43.0307328" lon="13.3643364"><ele>496.0</ele><time>2026-04-12T08:56:56.031Z</time></trkpt><trkpt lat="43.0305972" lon="13.3644424"><ele>496.33333333333337</ele><time>2026-04-12T08:56:57.032Z</time></trkpt><trkpt lat="43.0304569" lon="13.3645603"><ele>496.66666666666663</ele><time>2026-04-12T08:56:58.036Z</time></trkpt><trkpt lat="43.0303143" lon="13.3646685"><ele>497.0</ele><time>2026-04-12T08:56:59.058Z</time></trkpt><trkpt lat="43.0301679" lon="13.3647717"><ele>497.0</ele><time>2026-04-12T08:57:00.039Z</time></trkpt><trkpt lat="43.0300163" lon="13.3648656"><ele>497.0</ele><time>2026-04-12T08:57:01.043Z</time></trkpt><trkpt lat="43.0298661" lon="13.3649651"><ele>497.0</ele><time>2026-04-12T08:57:02.054Z</time></trkpt><trkpt lat="43.0297181" lon="13.3650675"><ele>500.0</ele><time>2026-04-12T08:57:03.038Z</time></trkpt><trkpt lat="43.0295794" lon="13.3651796"><ele>503.0</ele><time>2026-04-12T08:57:04.028Z</time></trkpt><trkpt lat="43.0294422" lon="13.3652976"><ele>506.0</ele><time>2026-04-12T08:57:05.012Z</time></trkpt><trkpt lat="43.0293118" lon="13.3654277"><ele>505.66666666666663</ele><time>2026-04-12T08:57:06.046Z</time></trkpt><trkpt lat="43.0291838" lon="13.3655562"><ele>505.33333333333337</ele><time>2026-04-12T08:57:07.052Z</time></trkpt><trkpt lat="43.029063" lon="13.3657038"><ele>505.0</ele><time>2026-04-12T08:57:08.03Z</time></trkpt><trkpt lat="43.0289594" lon="13.3658625"><ele>505.0</ele><time>2026-04-12T08:57:09.042Z</time></trkpt><trkpt lat="43.0288632" lon="13.3660329"><ele>505.0</ele><time>2026-04-12T08:57:10.016Z</time></trkpt><trkpt lat="43.02879" lon="13.3662137"><ele>505.0</ele><time>2026-04-12T08:57:11.011Z</time></trkpt><trkpt lat="43.0287214" lon="13.3664085"><ele>505.0</ele><time>2026-04-12T08:57:12.033Z</time></trkpt><trkpt lat="43.0286529" lon="13.3666003"><ele>505.0</ele><time>2026-04-12T08:57:13.014Z</time></trkpt><trkpt lat="43.0285954" lon="13.3667963"><ele>505.0</ele><time>2026-04-12T08:57:14.028Z</time></trkpt><trkpt lat="43.0285325" lon="13.3669843"><ele>505.0</ele><time>2026-04-12T08:57:15.007Z</time></trkpt><trkpt lat="43.0284711" lon="13.3671798"><ele>505.0</ele><time>2026-04-12T08:57:16.002Z</time></trkpt><trkpt lat="43.028413" lon="13.3673624"><ele>505.0</ele><time>2026-04-12T08:57:16.988Z</time></trkpt><trkpt lat="43.0283627" lon="13.3675051"><ele>505.0</ele><time>2026-04-12T08:57:17.995Z</time></trkpt><trkpt lat="43.0283156" lon="13.3676252"><ele>504.4</ele><time>2026-04-12T08:57:19.012Z</time></trkpt><trkpt lat="43.0282709" lon="13.367743"><ele>503.8</ele><time>2026-04-12T08:57:19.993Z</time></trkpt><trkpt lat="43.0282425" lon="13.367872"><ele>503.20000000000005</ele><time>2026-04-12T08:57:20.982Z</time></trkpt><trkpt lat="43.0282286" lon="13.3680186"><ele>502.6</ele><time>2026-04-12T08:57:21.999Z</time></trkpt><trkpt lat="43.0282303" lon="13.3681832"><ele>502.0</ele><time>2026-04-12T08:57:22.982Z</time></trkpt><trkpt lat="43.0282416" lon="13.3683581"><ele>502.0</ele><time>2026-04-12T08:57:24.001Z</time></trkpt><trkpt lat="43.0282493" lon="13.3685333"><ele>502.0</ele><time>2026-04-12T08:57:24.993Z</time></trkpt><trkpt lat="43.0282397" lon="13.368701"><ele>502.0</ele><time>2026-04-12T08:57:26.008Z</time></trkpt><trkpt lat="43.028216" lon="13.3688554"><ele>502.0</ele><time>2026-04-12T08:57:27.005Z</time></trkpt><trkpt lat="43.0281732" lon="13.3689949"><ele>503.8</ele><time>2026-04-12T08:57:28.053Z</time></trkpt><trkpt lat="43.0281139" lon="13.3691188"><ele>505.6</ele><time>2026-04-12T08:57:29.051Z</time></trkpt><trkpt lat="43.0280557" lon="13.369215"><ele>507.40000000000003</ele><time>2026-04-12T08:57:30.014Z</time></trkpt><trkpt lat="43.0280055" lon="13.3693116"><ele>509.20000000000005</ele><time>2026-04-12T08:57:31.038Z</time></trkpt><trkpt lat="43.0279453" lon="13.3693988"><ele>511.0</ele><time>2026-04-12T08:57:32.024Z</time></trkpt><trkpt lat="43.027885" lon="13.3694889"><ele>511.0</ele><time>2026-04-12T08:57:33.04Z</time></trkpt><trkpt lat="43.0278176" lon="13.3695783"><ele>511.0</ele><time>2026-04-12T08:57:34.025Z</time></trkpt><trkpt lat="43.0277538" lon="13.369673"><ele>511.0</ele><time>2026-04-12T08:57:35.048Z</time></trkpt><trkpt lat="43.0276956" lon="13.3697876"><ele>511.0</ele><time>2026-04-12T08:57:36.045Z</time></trkpt><trkpt lat="43.0276365" lon="13.3699094"><ele>511.0</ele><time>2026-04-12T08:57:37.049Z</time></trkpt><trkpt lat="43.0275707" lon="13.3700385"><ele>511.25</ele><time>2026-04-12T08:57:38.037Z</time></trkpt><trkpt lat="43.0274981" lon="13.3701737"><ele>511.5</ele><time>2026-04-12T08:57:38.998Z</time></trkpt><trkpt lat="43.0274279" lon="13.3703103"><ele>511.75</ele><time>2026-04-12T08:57:40.041Z</time></trkpt><trkpt lat="43.027371" lon="13.370444"><ele>512.0</ele><time>2026-04-12T08:57:41.058Z</time></trkpt><trkpt lat="43.0273186" lon="13.3705561"><ele>513.3333333333333</ele><time>2026-04-12T08:57:42.037Z</time></trkpt><trkpt lat="43.0272795" lon="13.3706528"><ele>514.6666666666666</ele><time>2026-04-12T08:57:43.017Z</time></trkpt><trkpt lat="43.0272513" lon="13.3707302"><ele>516.0</ele><time>2026-04-12T08:57:44.018Z</time></trkpt><trkpt lat="43.0271499" lon="13.370807"><ele>517.3333333333334</ele><time>2026-04-12T08:57:46.01Z</time></trkpt><trkpt lat="43.0270697" lon="13.3708106"><ele>518.6666666666667</ele><time>2026-04-12T08:57:47.044Z</time></trkpt><trkpt lat="43.0269803" lon="13.3708436"><ele>520.0</ele><time>2026-04-12T08:57:48.035Z</time></trkpt><trkpt lat="43.0269104" lon="13.3708828"><ele>520.0</ele><time>2026-04-12T08:57:49.035Z</time></trkpt><trkpt lat="43.0268702" lon="13.3709553"><ele>520.0</ele><time>2026-04-12T08:57:50.033Z</time></trkpt><trkpt lat="43.026848" lon="13.3710468"><ele>520.0</ele><time>2026-04-12T08:57:51.035Z</time></trkpt><trkpt lat="43.0268161" lon="13.3711473"><ele>520.0</ele><time>2026-04-12T08:57:52.021Z</time></trkpt><trkpt lat="43.0267781" lon="13.3712522"><ele>520.0</ele><time>2026-04-12T08:57:53.043Z</time></trkpt><trkpt lat="43.0267497" lon="13.3713651"><ele>520.0</ele><time>2026-04-12T08:57:54.049Z</time></trkpt><trkpt lat="43.0267623" lon="13.3714679"><ele>519.8333333333334</ele><time>2026-04-12T08:57:55.03Z</time></trkpt><trkpt lat="43.0267969" lon="13.3715833"><ele>519.6666666666667</ele><time>2026-04-12T08:57:55.974Z</time></trkpt><trkpt lat="43.0268406" lon="13.3716868"><ele>519.5</ele><time>2026-04-12T08:57:57.047Z</time></trkpt><trkpt lat="43.0268843" lon="13.3717494"><ele>519.3333333333334</ele><time>2026-04-12T08:57:58.041Z</time></trkpt><trkpt lat="43.0269419" lon="13.3717881"><ele>519.1666666666666</ele><time>2026-04-12T08:57:59.035Z</time></trkpt><trkpt lat="43.0270258" lon="13.3718251"><ele>519.0</ele><time>2026-04-12T08:58:00.052Z</time></trkpt><trkpt lat="43.0271007" lon="13.3718614"><ele>519.0</ele><time>2026-04-12T08:58:01.03Z</time></trkpt><trkpt lat="43.0271818" lon="13.3719112"><ele>519.0</ele><time>2026-04-12T08:58:02.04Z</time></trkpt><trkpt lat="43.0272802" lon="13.3719686"><ele>519.0</ele><time>2026-04-12T08:58:02.995Z</time></trkpt><trkpt lat="43.0273798" lon="13.3720251"><ele>519.0</ele><time>2026-04-12T08:58:04.03Z</time></trkpt><trkpt lat="43.0274791" lon="13.3720857"><ele>519.0</ele><time>2026-04-12T08:58:05.037Z</time></trkpt><trkpt lat="43.0275687" lon="13.3721328"><ele>517.5</ele><time>2026-04-12T08:58:06.049Z</time></trkpt><trkpt lat="43.0276477" lon="13.3721801"><ele>516.0</ele><time>2026-04-12T08:58:07.048Z</time></trkpt><trkpt lat="43.0277081" lon="13.3722156"><ele>514.5</ele><time>2026-04-12T08:58:08.007Z</time></trkpt><trkpt lat="43.0277975" lon="13.3722546"><ele>513.0</ele><time>2026-04-12T08:58:10.016Z</time></trkpt><trkpt lat="43.0278684" lon="13.3722565"><ele>511.5</ele><time>2026-04-12T08:58:25.005Z</time></trkpt><trkpt lat="43.0278188" lon="13.3721778"><ele>510.0</ele><time>2026-04-12T08:58:28.041Z</time></trkpt><trkpt lat="43.0277452" lon="13.3721632"><ele>509.5</ele><time>2026-04-12T08:58:30.028Z</time></trkpt><trkpt lat="43.0277529" lon="13.372276"><ele>509.0</ele><time>2026-04-12T08:58:36.034Z</time></trkpt><trkpt lat="43.0278239" lon="13.3723314"><ele>508.5</ele><time>2026-04-12T08:58:38.039Z</time></trkpt><trkpt lat="43.027883" lon="13.3724496"><ele>508.0</ele><time>2026-04-12T08:58:40.033Z</time></trkpt><trkpt lat="43.0279155" lon="13.3725303"><ele>507.5</ele><time>2026-04-12T08:58:41.035Z</time></trkpt><trkpt lat="43.0279339" lon="13.3726143"><ele>507.0</ele><time>2026-04-12T08:58:42.036Z</time></trkpt><trkpt lat="43.0279553" lon="13.3727113"><ele>507.0</ele><time>2026-04-12T08:58:43.033Z</time></trkpt><trkpt lat="43.027968" lon="13.3728088"><ele>507.0</ele><time>2026-04-12T08:58:44.037Z</time></trkpt><trkpt lat="43.0279829" lon="13.3728956"><ele>507.0</ele><time>2026-04-12T08:58:45.052Z</time></trkpt><trkpt lat="43.0279729" lon="13.3730592"><ele>507.0</ele><time>2026-04-12T08:58:47.031Z</time></trkpt><trkpt lat="43.0279517" lon="13.3731459"><ele>507.0</ele><time>2026-04-12T08:58:48.02Z</time></trkpt><trkpt lat="43.0278992" lon="13.3732848"><ele>507.0</ele><time>2026-04-12T08:58:50.056Z</time></trkpt><trkpt lat="43.0277947" lon="13.3733678"><ele>505.5</ele><time>2026-04-12T08:58:52.045Z</time></trkpt><trkpt lat="43.0277234" lon="13.3734017"><ele>504.0</ele><time>2026-04-12T08:58:53.056Z</time></trkpt><trkpt lat="43.0276571" lon="13.3734377"><ele>502.5</ele><time>2026-04-12T08:58:54.047Z</time></trkpt><trkpt lat="43.0275949" lon="13.3735367"><ele>501.0</ele><time>2026-04-12T08:58:56.043Z</time></trkpt><trkpt lat="43.0275793" lon="13.3736633"><ele>499.5</ele><time>2026-04-12T08:58:58.057Z</time></trkpt><trkpt lat="43.0275326" lon="13.3737451"><ele>498.0</ele><time>2026-04-12T08:59:00.044Z</time></trkpt><trkpt lat="43.0274316" lon="13.3738165"><ele>500.0</ele><time>2026-04-12T08:59:02.053Z</time></trkpt><trkpt lat="43.0273628" lon="13.3738335"><ele>502.0</ele><time>2026-04-12T08:59:03.039Z</time></trkpt><trkpt lat="43.0272819" lon="13.3738525"><ele>504.0</ele><time>2026-04-12T08:59:04.04Z</time></trkpt><trkpt lat="43.0271969" lon="13.3738734"><ele>506.0</ele><time>2026-04-12T08:59:05.038Z</time></trkpt><trkpt lat="43.0271113" lon="13.3738988"><ele>508.0</ele><time>2026-04-12T08:59:06.057Z</time></trkpt><trkpt lat="43.0270288" lon="13.3739252"><ele>510.0</ele><time>2026-04-12T08:59:07.054Z</time></trkpt><trkpt lat="43.0269544" lon="13.3739577"><ele>510.0</ele><time>2026-04-12T08:59:08.043Z</time></trkpt><trkpt lat="43.0268858" lon="13.3739792"><ele>510.00000000000006</ele><time>2026-04-12T08:59:09.061Z</time></trkpt><trkpt lat="43.0268209" lon="13.3739921"><ele>510.0</ele><time>2026-04-12T08:59:10.051Z</time></trkpt><trkpt lat="43.0267519" lon="13.3740067"><ele>510.0</ele><time>2026-04-12T08:59:11.048Z</time></trkpt><trkpt lat="43.0266773" lon="13.3740161"><ele>510.00000000000006</ele><time>2026-04-12T08:59:12.059Z</time></trkpt><trkpt lat="43.0266044" lon="13.3740422"><ele>510.0</ele><time>2026-04-12T08:59:13.065Z</time></trkpt><trkpt lat="43.0265212" lon="13.3740655"><ele>510.0</ele><time>2026-04-12T08:59:14.053Z</time></trkpt><trkpt lat="43.0264366" lon="13.3740919"><ele>512.8333333333334</ele><time>2026-04-12T08:59:15.037Z</time></trkpt><trkpt lat="43.0263576" lon="13.3741105"><ele>515.6666666666666</ele><time>2026-04-12T08:59:16.056Z</time></trkpt><trkpt lat="43.0262782" lon="13.3741324"><ele>518.5</ele><time>2026-04-12T08:59:17.028Z</time></trkpt><trkpt lat="43.0261967" lon="13.3741573"><ele>521.3333333333333</ele><time>2026-04-12T08:59:18.05Z</time></trkpt><trkpt lat="43.0261218" lon="13.3741779"><ele>524.1666666666666</ele><time>2026-04-12T08:59:19.012Z</time></trkpt><trkpt lat="43.0260484" lon="13.3741939"><ele>527.0</ele><time>2026-04-12T08:59:20.048Z</time></trkpt><trkpt lat="43.0259331" lon="13.3742121"><ele>527.0</ele><time>2026-04-12T08:59:22.061Z</time></trkpt><trkpt lat="43.0258618" lon="13.3742763"><ele>527.0</ele><time>2026-04-12T08:59:24.057Z</time></trkpt><trkpt lat="43.025856" lon="13.3743751"><ele>527.0</ele><time>2026-04-12T08:59:26.027Z</time></trkpt><trkpt lat="43.0259612" lon="13.3745276"><ele>527.0</ele><time>2026-04-12T08:59:27.999Z</time></trkpt><trkpt lat="43.0260196" lon="13.3746188"><ele>527.0</ele><time>2026-04-12T08:59:29.052Z</time></trkpt><trkpt lat="43.0260749" lon="13.374708"><ele>526.1428571428572</ele><time>2026-04-12T08:59:30.051Z</time></trkpt><trkpt lat="43.026125" lon="13.3748011"><ele>525.2857142857143</ele><time>2026-04-12T08:59:31.047Z</time></trkpt><trkpt lat="43.0261719" lon="13.3748867"><ele>524.4285714285714</ele><time>2026-04-12T08:59:31.996Z</time></trkpt><trkpt lat="43.0262122" lon="13.3749603"><ele>523.5714285714287</ele><time>2026-04-12T08:59:33.041Z</time></trkpt><trkpt lat="43.0262535" lon="13.3750348"><ele>522.7142857142858</ele><time>2026-04-12T08:59:34.022Z</time></trkpt><trkpt lat="43.0262988" lon="13.3751117"><ele>521.8571428571429</ele><time>2026-04-12T08:59:35.06Z</time></trkpt><trkpt lat="43.026337" lon="13.3751847"><ele>521.0</ele><time>2026-04-12T08:59:36.072Z</time></trkpt><trkpt lat="43.0263476" lon="13.3753128"><ele>521.0</ele><time>2026-04-12T08:59:38.057Z</time></trkpt><trkpt lat="43.026344" lon="13.3753992"><ele>521.0</ele><time>2026-04-12T08:59:40.058Z</time></trkpt><trkpt lat="43.0263653" lon="13.3755168"><ele>521.0</ele><time>2026-04-12T08:59:43.029Z</time></trkpt><trkpt lat="43.0264193" lon="13.3756201"><ele>521.0</ele><time>2026-04-12T08:59:45.029Z</time></trkpt><trkpt lat="43.026471" lon="13.3757143"><ele>521.0</ele><time>2026-04-12T08:59:47.047Z</time></trkpt><trkpt lat="43.026532" lon="13.3758021"><ele>521.0</ele><time>2026-04-12T08:59:49.015Z</time></trkpt><trkpt lat="43.0265914" lon="13.375906"><ele>521.8</ele><time>2026-04-12T08:59:51.035Z</time></trkpt><trkpt lat="43.0265165" lon="13.3760029"><ele>522.6</ele><time>2026-04-12T08:59:54.046Z</time></trkpt><trkpt lat="43.0264457" lon="13.3760595"><ele>523.4</ele><time>2026-04-12T08:59:55.044Z</time></trkpt><trkpt lat="43.0263689" lon="13.3761269"><ele>524.2</ele><time>2026-04-12T08:59:56.048Z</time></trkpt><trkpt lat="43.0262992" lon="13.3762025"><ele>525.0</ele><time>2026-04-12T08:59:57.057Z</time></trkpt><trkpt lat="43.0262276" lon="13.3762992"><ele>528.0</ele><time>2026-04-12T08:59:58.049Z</time></trkpt><trkpt lat="43.0261634" lon="13.3764079"><ele>531.0</ele><time>2026-04-12T08:59:59.032Z</time></trkpt><trkpt lat="43.0261172" lon="13.3765105"><ele>534.0</ele><time>2026-04-12T09:00:00.038Z</time></trkpt><trkpt lat="43.026052" lon="13.3765942"><ele>537.0</ele><time>2026-04-12T09:00:01.045Z</time></trkpt><trkpt lat="43.0259724" lon="13.3766622"><ele>540.0</ele><time>2026-04-12T09:00:02.042Z</time></trkpt><trkpt lat="43.0259072" lon="13.3767179"><ele>540.0</ele><time>2026-04-12T09:00:03.041Z</time></trkpt><trkpt lat="43.0258554" lon="13.3767836"><ele>540.0</ele><time>2026-04-12T09:00:04.045Z</time></trkpt><trkpt lat="43.0257655" lon="13.3768811"><ele>540.0</ele><time>2026-04-12T09:00:06.035Z</time></trkpt><trkpt lat="43.025672" lon="13.3770002"><ele>540.0</ele><time>2026-04-12T09:00:08.045Z</time></trkpt><trkpt lat="43.025629" lon="13.3770669"><ele>540.0</ele><time>2026-04-12T09:00:09.035Z</time></trkpt><trkpt lat="43.0255607" lon="13.3771264"><ele>544.6</ele><time>2026-04-12T09:00:10.042Z</time></trkpt><trkpt lat="43.0254984" lon="13.3772008"><ele>549.2</ele><time>2026-04-12T09:00:11.039Z</time></trkpt><trkpt lat="43.0254374" lon="13.3772657"><ele>553.8</ele><time>2026-04-12T09:00:12.057Z</time></trkpt><trkpt lat="43.0253404" lon="13.3773328"><ele>558.4</ele><time>2026-04-12T09:00:13.037Z</time></trkpt><trkpt lat="43.0252399" lon="13.3773919"><ele>563.0</ele><time>2026-04-12T09:00:14.047Z</time></trkpt><trkpt lat="43.0251438" lon="13.3774248"><ele>563.0</ele><time>2026-04-12T09:00:15.045Z</time></trkpt><trkpt lat="43.0250601" lon="13.377455"><ele>563.0</ele><time>2026-04-12T09:00:15.994Z</time></trkpt><trkpt lat="43.0249788" lon="13.3774772"><ele>563.0</ele><time>2026-04-12T09:00:17.036Z</time></trkpt><trkpt lat="43.0249029" lon="13.3774916"><ele>563.0</ele><time>2026-04-12T09:00:18.041Z</time></trkpt><trkpt lat="43.0248379" lon="13.3775046"><ele>563.0</ele><time>2026-04-12T09:00:19.049Z</time></trkpt><trkpt lat="43.0247671" lon="13.3775508"><ele>563.0</ele><time>2026-04-12T09:00:20.057Z</time></trkpt><trkpt lat="43.024705" lon="13.3775978"><ele>566.1666666666666</ele><time>2026-04-12T09:00:21.042Z</time></trkpt><trkpt lat="43.0246325" lon="13.3776263"><ele>569.3333333333333</ele><time>2026-04-12T09:00:22.031Z</time></trkpt><trkpt lat="43.024542" lon="13.3776622"><ele>572.5</ele><time>2026-04-12T09:00:23.046Z</time></trkpt><trkpt lat="43.0244487" lon="13.3776779"><ele>575.6666666666666</ele><time>2026-04-12T09:00:24.05Z</time></trkpt><trkpt lat="43.0243659" lon="13.3777092"><ele>578.8333333333334</ele><time>2026-04-12T09:00:25.01Z</time></trkpt><trkpt lat="43.0242923" lon="13.3777559"><ele>582.0</ele><time>2026-04-12T09:00:26.039Z</time></trkpt><trkpt lat="43.024211" lon="13.377832"><ele>582.2</ele><time>2026-04-12T09:00:27.013Z</time></trkpt><trkpt lat="43.0241272" lon="13.3778869"><ele>582.4000000000001</ele><time>2026-04-12T09:00:28.049Z</time></trkpt><trkpt lat="43.0240462" lon="13.3779256"><ele>582.5999999999999</ele><time>2026-04-12T09:00:29.048Z</time></trkpt><trkpt lat="43.0239497" lon="13.3779905"><ele>582.8</ele><time>2026-04-12T09:00:30.026Z</time></trkpt><trkpt lat="43.0238625" lon="13.3780309"><ele>583.0</ele><time>2026-04-12T09:00:31.04Z</time></trkpt><trkpt lat="43.0237812" lon="13.3780473"><ele>583.1999999999999</ele><time>2026-04-12T09:00:32.02Z</time></trkpt><trkpt lat="43.0236977" lon="13.3780809"><ele>583.4</ele><time>2026-04-12T09:00:33.055Z</time></trkpt><trkpt lat="43.0236245" lon="13.3781163"><ele>583.5999999999999</ele><time>2026-04-12T09:00:34.058Z</time></trkpt><trkpt lat="43.02356" lon="13.3781383"><ele>583.8</ele><time>2026-04-12T09:00:35.042Z</time></trkpt><trkpt lat="43.0234643" lon="13.378264"><ele>584.0</ele><time>2026-04-12T09:00:36.996Z</time></trkpt><trkpt lat="43.0233946" lon="13.3783476"><ele>584.0</ele><time>2026-04-12T09:00:38.04Z</time></trkpt><trkpt lat="43.0233235" lon="13.3784493"><ele>584.0</ele><time>2026-04-12T09:00:39.052Z</time></trkpt><trkpt lat="43.0232597" lon="13.3785543"><ele>584.0</ele><time>2026-04-12T09:00:40.039Z</time></trkpt><trkpt lat="43.0232014" lon="13.3786602"><ele>584.0</ele><time>2026-04-12T09:00:41.068Z</time></trkpt><trkpt lat="43.0231522" lon="13.3787627"><ele>584.0</ele><time>2026-04-12T09:00:42.045Z</time></trkpt><trkpt lat="43.0231095" lon="13.3788659"><ele>583.2</ele><time>2026-04-12T09:00:43.038Z</time></trkpt><trkpt lat="43.0230961" lon="13.3789664"><ele>582.4</ele><time>2026-04-12T09:00:44.027Z</time></trkpt><trkpt lat="43.0230788" lon="13.3790549"><ele>581.6</ele><time>2026-04-12T09:00:45.049Z</time></trkpt><trkpt lat="43.023075" lon="13.3791799"><ele>580.8</ele><time>2026-04-12T09:00:46.048Z</time></trkpt><trkpt lat="43.0230624" lon="13.3793371"><ele>580.0</ele><time>2026-04-12T09:00:47.037Z</time></trkpt><trkpt lat="43.0230474" lon="13.3794847"><ele>580.0</ele><time>2026-04-12T09:00:48.046Z</time></trkpt><trkpt lat="43.0230368" lon="13.3796363"><ele>580.0</ele><time>2026-04-12T09:00:49.015Z</time></trkpt><trkpt lat="43.0230204" lon="13.3797679"><ele>580.0</ele><time>2026-04-12T09:00:50.052Z</time></trkpt><trkpt lat="43.0230054" lon="13.3798865"><ele>580.0</ele><time>2026-04-12T09:00:51.041Z</time></trkpt><trkpt lat="43.0229939" lon="13.3800174"><ele>580.0</ele><time>2026-04-12T09:00:52.046Z</time></trkpt><trkpt lat="43.022982" lon="13.3801367"><ele>579.8333333333334</ele><time>2026-04-12T09:00:53.033Z</time></trkpt><trkpt lat="43.0229773" lon="13.3802541"><ele>579.6666666666667</ele><time>2026-04-12T09:00:54.035Z</time></trkpt><trkpt lat="43.0229773" lon="13.3803467"><ele>579.5</ele><time>2026-04-12T09:00:55.042Z</time></trkpt><trkpt lat="43.0230095" lon="13.3804599"><ele>579.3333333333334</ele><time>2026-04-12T09:00:57.037Z</time></trkpt><trkpt lat="43.0230532" lon="13.3805278"><ele>579.1666666666666</ele><time>2026-04-12T09:00:57.999Z</time></trkpt><trkpt lat="43.0231203" lon="13.3806465"><ele>579.0</ele><time>2026-04-12T09:00:59.03Z</time></trkpt><trkpt lat="43.02319" lon="13.3806983"><ele>579.0</ele><time>2026-04-12T09:01:00.043Z</time></trkpt><trkpt lat="43.0232593" lon="13.3807484"><ele>579.0</ele><time>2026-04-12T09:01:01.024Z</time></trkpt><trkpt lat="43.0233324" lon="13.3807917"><ele>579.0</ele><time>2026-04-12T09:01:02.01Z</time></trkpt><trkpt lat="43.023408" lon="13.3808644"><ele>579.0</ele><time>2026-04-12T09:01:03.04Z</time></trkpt><trkpt lat="43.023494" lon="13.3809337"><ele>579.0</ele><time>2026-04-12T09:01:04.053Z</time></trkpt><trkpt lat="43.0235724" lon="13.3810152"><ele>579.0</ele><time>2026-04-12T09:01:05.013Z</time></trkpt><trkpt lat="43.0236413" lon="13.3810955"><ele>582.75</ele><time>2026-04-12T09:01:06.045Z</time></trkpt><trkpt lat="43.0236969" lon="13.3812001"><ele>586.5</ele><time>2026-04-12T09:01:07.026Z</time></trkpt><trkpt lat="43.023742" lon="13.3813395"><ele>590.25</ele><time>2026-04-12T09:01:08.037Z</time></trkpt><trkpt lat="43.0237582" lon="13.3815254"><ele>594.0</ele><time>2026-04-12T09:01:09.043Z</time></trkpt><trkpt lat="43.0237544" lon="13.381687"><ele>596.0</ele><time>2026-04-12T09:01:10.048Z</time></trkpt><trkpt lat="43.0237524" lon="13.3818614"><ele>598.0</ele><time>2026-04-12T09:01:11.049Z</time></trkpt><trkpt lat="43.0237612" lon="13.3820264"><ele>600.0</ele><time>2026-04-12T09:01:12.029Z</time></trkpt><trkpt lat="43.0237693" lon="13.3821618"><ele>602.0</ele><time>2026-04-12T09:01:13.045Z</time></trkpt><trkpt lat="43.0238009" lon="13.3822894"><ele>604.0</ele><time>2026-04-12T09:01:14.038Z</time></trkpt><trkpt lat="43.0238623" lon="13.3823966"><ele>605.2</ele><time>2026-04-12T09:01:15.035Z</time></trkpt><trkpt lat="43.0239491" lon="13.3825486"><ele>606.4</ele><time>2026-04-12T09:01:16.039Z</time></trkpt><trkpt lat="43.0240229" lon="13.3826622"><ele>607.6</ele><time>2026-04-12T09:01:17.05Z</time></trkpt><trkpt lat="43.024092" lon="13.3827439"><ele>608.8</ele><time>2026-04-12T09:01:17.984Z</time></trkpt><trkpt lat="43.0241465" lon="13.3828286"><ele>610.0</ele><time>2026-04-12T09:01:19.039Z</time></trkpt><trkpt lat="43.0241811" lon="13.3829154"><ele>610.1428571428572</ele><time>2026-04-12T09:01:20.045Z</time></trkpt><trkpt lat="43.0242124" lon="13.3830025"><ele>610.2857142857142</ele><time>2026-04-12T09:01:21.042Z</time></trkpt><trkpt lat="43.0242373" lon="13.3830996"><ele>610.4285714285714</ele><time>2026-04-12T09:01:22.031Z</time></trkpt><trkpt lat="43.0242338" lon="13.3831928"><ele>610.5714285714287</ele><time>2026-04-12T09:01:23.034Z</time></trkpt><trkpt lat="43.0242066" lon="13.3832798"><ele>610.7142857142858</ele><time>2026-04-12T09:01:24.035Z</time></trkpt><trkpt lat="43.0241722" lon="13.3833597"><ele>610.8571428571429</ele><time>2026-04-12T09:01:25.037Z</time></trkpt><trkpt lat="43.0241226" lon="13.3834425"><ele>611.0</ele><time>2026-04-12T09:01:26.039Z</time></trkpt><trkpt lat="43.0240826" lon="13.3835219"><ele>612.5</ele><time>2026-04-12T09:01:27.038Z</time></trkpt><trkpt lat="43.0240379" lon="13.3836093"><ele>614.0</ele><time>2026-04-12T09:01:28.034Z</time></trkpt><trkpt lat="43.0239851" lon="13.3836777"><ele>615.5</ele><time>2026-04-12T09:01:29.046Z</time></trkpt><trkpt lat="43.0239172" lon="13.3837356"><ele>617.0</ele><time>2026-04-12T09:01:30.048Z</time></trkpt><trkpt lat="43.0238548" lon="13.3837965"><ele>618.5</ele><time>2026-04-12T09:01:31.057Z</time></trkpt><trkpt lat="43.0237952" lon="13.3838627"><ele>620.0</ele><time>2026-04-12T09:01:32.041Z</time></trkpt><trkpt lat="43.0237177" lon="13.3839763"><ele>621.4</ele><time>2026-04-12T09:01:34.031Z</time></trkpt><trkpt lat="43.0236977" lon="13.3840683"><ele>622.8</ele><time>2026-04-12T09:01:36.039Z</time></trkpt><trkpt lat="43.0236793" lon="13.3841816"><ele>624.2</ele><time>2026-04-12T09:03:03.056Z</time></trkpt><trkpt lat="43.0236625" lon="13.384304"><ele>625.6</ele><time>2026-04-12T09:03:05.031Z</time></trkpt><trkpt lat="43.0236345" lon="13.3844494"><ele>627.0</ele><time>2026-04-12T09:03:07.036Z</time></trkpt><trkpt lat="43.0236198" lon="13.3845975"><ele>626.6666666666666</ele><time>2026-04-12T09:03:09.046Z</time></trkpt><trkpt lat="43.0235569" lon="13.384709"><ele>626.3333333333334</ele><time>2026-04-12T09:03:11.011Z</time></trkpt><trkpt lat="43.0235175" lon="13.3847833"><ele>626.0</ele><time>2026-04-12T09:03:13.04Z</time></trkpt><trkpt lat="43.0234972" lon="13.3848884"><ele>625.6666666666667</ele><time>2026-04-12T09:03:15.035Z</time></trkpt><trkpt lat="43.023506" lon="13.3850175"><ele>625.3333333333334</ele><time>2026-04-12T09:03:17.064Z</time></trkpt><trkpt lat="43.0235195" lon="13.3851375"><ele>625.0</ele><time>2026-04-12T09:03:19.049Z</time></trkpt><trkpt lat="43.0235402" lon="13.3852468"><ele>625.0</ele><time>2026-04-12T09:03:21.044Z</time></trkpt><trkpt lat="43.0235458" lon="13.385374"><ele>625.0</ele><time>2026-04-12T09:03:24.061Z</time></trkpt><trkpt lat="43.0235768" lon="13.3854874"><ele>625.0</ele><time>2026-04-12T09:03:27.04Z</time></trkpt><trkpt lat="43.0236267" lon="13.3855473"><ele>625.0</ele><time>2026-04-12T09:03:29.041Z</time></trkpt><trkpt lat="43.0236595" lon="13.3856689"><ele>625.0</ele><time>2026-04-12T09:03:32.055Z</time></trkpt><trkpt lat="43.0236682" lon="13.3857663"><ele>625.0</ele><time>2026-04-12T09:03:34.024Z</time></trkpt><trkpt lat="43.0236866" lon="13.3858534"><ele>621.3333333333334</ele><time>2026-04-12T09:03:36.032Z</time></trkpt><trkpt lat="43.0237348" lon="13.3859289"><ele>617.6666666666667</ele><time>2026-04-12T09:03:38.031Z</time></trkpt><trkpt lat="43.0237821" lon="13.3860246"><ele>614.0</ele><time>2026-04-12T09:03:40.011Z</time></trkpt><trkpt lat="43.0238205" lon="13.3861257"><ele>610.3333333333334</ele><time>2026-04-12T09:03:42.025Z</time></trkpt><trkpt lat="43.0238635" lon="13.3862351"><ele>606.6666666666666</ele><time>2026-04-12T09:03:43.988Z</time></trkpt><trkpt lat="43.0238836" lon="13.3863389"><ele>603.0</ele><time>2026-04-12T09:03:46.024Z</time></trkpt><trkpt lat="43.0239019" lon="13.3864391"><ele>598.5</ele><time>2026-04-12T09:03:48.043Z</time></trkpt><trkpt lat="43.0239234" lon="13.3865234"><ele>594.0</ele><time>2026-04-12T09:03:49.979Z</time></trkpt><trkpt lat="43.0238951" lon="13.3866252"><ele>589.5</ele><time>2026-04-12T09:03:53.036Z</time></trkpt><trkpt lat="43.0238557" lon="13.3867399"><ele>585.0</ele><time>2026-04-12T09:03:55.007Z</time></trkpt><trkpt lat="43.0238344" lon="13.3868431"><ele>580.5</ele><time>2026-04-12T09:03:57.031Z</time></trkpt><trkpt lat="43.0237936" lon="13.3869922"><ele>576.0</ele><time>2026-04-12T09:03:59.022Z</time></trkpt><trkpt lat="43.0237054" lon="13.3871024"><ele>573.0</ele><time>2026-04-12T09:04:01.03Z</time></trkpt><trkpt lat="43.0236039" lon="13.387207"><ele>570.0</ele><time>2026-04-12T09:04:03.031Z</time></trkpt><trkpt lat="43.0235458" lon="13.3872739"><ele>567.0</ele><time>2026-04-12T09:04:04.009Z</time></trkpt><trkpt lat="43.0234923" lon="13.3873488"><ele>564.0</ele><time>2026-04-12T09:04:05.058Z</time></trkpt><trkpt lat="43.023435" lon="13.3874241"><ele>561.0</ele><time>2026-04-12T09:04:06.037Z</time></trkpt><trkpt lat="43.0233823" lon="13.3874921"><ele>558.0</ele><time>2026-04-12T09:04:07.063Z</time></trkpt><trkpt lat="43.023325" lon="13.3875587"><ele>555.3333333333334</ele><time>2026-04-12T09:04:08.042Z</time></trkpt><trkpt lat="43.0232708" lon="13.3876263"><ele>552.6666666666666</ele><time>2026-04-12T09:04:09.04Z</time></trkpt><trkpt lat="43.0232219" lon="13.3876869"><ele>550.0</ele><time>2026-04-12T09:04:10.038Z</time></trkpt><trkpt lat="43.0231394" lon="13.3877762"><ele>547.3333333333333</ele><time>2026-04-12T09:04:12.06Z</time></trkpt><trkpt lat="43.0230888" lon="13.3878275"><ele>544.6666666666666</ele><time>2026-04-12T09:04:14.033Z</time></trkpt><trkpt lat="43.0230187" lon="13.3878479"><ele>542.0</ele><time>2026-04-12T09:04:18.045Z</time></trkpt><trkpt lat="43.0229833" lon="13.3877003"><ele>542.0</ele><time>2026-04-12T09:04:20.036Z</time></trkpt><trkpt lat="43.0229538" lon="13.3875959"><ele>542.0</ele><time>2026-04-12T09:04:21.032Z</time></trkpt><trkpt lat="43.0229182" lon="13.3874864"><ele>542.0</ele><time>2026-04-12T09:04:22.046Z</time></trkpt><trkpt lat="43.0228701" lon="13.3873732"><ele>542.0</ele><time>2026-04-12T09:04:23.034Z</time></trkpt><trkpt lat="43.0228132" lon="13.3872578"><ele>542.0</ele><time>2026-04-12T09:04:24.036Z</time></trkpt><trkpt lat="43.0227498" lon="13.3871359"><ele>541.25</ele><time>2026-04-12T09:04:25.008Z</time></trkpt><trkpt lat="43.0226831" lon="13.3870211"><ele>540.5</ele><time>2026-04-12T09:04:26.048Z</time></trkpt><trkpt lat="43.0225985" lon="13.3869039"><ele>539.75</ele><time>2026-04-12T09:04:27.051Z</time></trkpt><trkpt lat="43.0225123" lon="13.3867899"><ele>539.0</ele><time>2026-04-12T09:04:28.032Z</time></trkpt><trkpt lat="43.0224204" lon="13.3866697"><ele>539.0</ele><time>2026-04-12T09:04:29.052Z</time></trkpt><trkpt lat="43.0223354" lon="13.3865318"><ele>539.0</ele><time>2026-04-12T09:04:30.049Z</time></trkpt><trkpt lat="43.0222479" lon="13.3863878"><ele>539.0</ele><time>2026-04-12T09:04:31.044Z</time></trkpt><trkpt lat="43.0221632" lon="13.3862451"><ele>539.0</ele><time>2026-04-12T09:04:32.054Z</time></trkpt><trkpt lat="43.0220788" lon="13.3861004"><ele>542.75</ele><time>2026-04-12T09:04:33.054Z</time></trkpt><trkpt lat="43.0219929" lon="13.3859533"><ele>546.5</ele><time>2026-04-12T09:04:34.048Z</time></trkpt><trkpt lat="43.0219035" lon="13.385807"><ele>550.25</ele><time>2026-04-12T09:04:35.041Z</time></trkpt><trkpt lat="43.0218212" lon="13.3856606"><ele>554.0</ele><time>2026-04-12T09:04:36.04Z</time></trkpt><trkpt lat="43.0217398" lon="13.3855203"><ele>552.5</ele><time>2026-04-12T09:04:37.043Z</time></trkpt><trkpt lat="43.0216579" lon="13.385382"><ele>551.0</ele><time>2026-04-12T09:04:38.027Z</time></trkpt><trkpt lat="43.021571" lon="13.385237"><ele>549.5</ele><time>2026-04-12T09:04:39.026Z</time></trkpt><trkpt lat="43.0214845" lon="13.3851014"><ele>548.0</ele><time>2026-04-12T09:04:40.03Z</time></trkpt><trkpt lat="43.0213896" lon="13.3849791"><ele>548.0</ele><time>2026-04-12T09:04:41.035Z</time></trkpt><trkpt lat="43.0212889" lon="13.3848566"><ele>548.0</ele><time>2026-04-12T09:04:42.054Z</time></trkpt><trkpt lat="43.0211875" lon="13.38473"><ele>548.0</ele><time>2026-04-12T09:04:43.022Z</time></trkpt><trkpt lat="43.0210949" lon="13.3846062"><ele>548.0</ele><time>2026-04-12T09:04:44.036Z</time></trkpt><trkpt lat="43.0210024" lon="13.3844837"><ele>547.1999999999999</ele><time>2026-04-12T09:04:45.031Z</time></trkpt><trkpt lat="43.0209132" lon="13.3843762"><ele>546.4</ele><time>2026-04-12T09:04:46.048Z</time></trkpt><trkpt lat="43.0208343" lon="13.3842636"><ele>545.5999999999999</ele><time>2026-04-12T09:04:47.031Z</time></trkpt><trkpt lat="43.020766" lon="13.3841609"><ele>544.8</ele><time>2026-04-12T09:04:48.029Z</time></trkpt><trkpt lat="43.0207037" lon="13.384064"><ele>544.0</ele><time>2026-04-12T09:04:49.049Z</time></trkpt><trkpt lat="43.0206536" lon="13.3839837"><ele>544.0</ele><time>2026-04-12T09:04:50.022Z</time></trkpt><trkpt lat="43.0205585" lon="13.3838766"><ele>544.0</ele><time>2026-04-12T09:04:52.043Z</time></trkpt><trkpt lat="43.0204716" lon="13.3837899"><ele>544.0</ele><time>2026-04-12T09:04:54.063Z</time></trkpt><trkpt lat="43.0203816" lon="13.383714"><ele>544.0</ele><time>2026-04-12T09:04:56.03Z</time></trkpt><trkpt lat="43.0202928" lon="13.3836521"><ele>544.0</ele><time>2026-04-12T09:04:58.034Z</time></trkpt><trkpt lat="43.0202355" lon="13.3835889"><ele>543.8333333333334</ele><time>2026-04-12T09:05:00.043Z</time></trkpt><trkpt lat="43.0201607" lon="13.3835298"><ele>543.6666666666667</ele><time>2026-04-12T09:05:02.042Z</time></trkpt><trkpt lat="43.0200959" lon="13.3835055"><ele>543.5</ele><time>2026-04-12T09:05:03.038Z</time></trkpt><trkpt lat="43.0200275" lon="13.3834927"><ele>543.3333333333334</ele><time>2026-04-12T09:05:04.049Z</time></trkpt><trkpt lat="43.0199594" lon="13.3834717"><ele>543.1666666666666</ele><time>2026-04-12T09:05:05.041Z</time></trkpt><trkpt lat="43.0198713" lon="13.3833873"><ele>543.0</ele><time>2026-04-12T09:05:07.052Z</time></trkpt><trkpt lat="43.0197834" lon="13.383459"><ele>543.0</ele><time>2026-04-12T09:06:54.021Z</time></trkpt><trkpt lat="43.0196814" lon="13.3834837"><ele>543.0</ele><time>2026-04-12T09:08:23.03Z</time></trkpt><trkpt lat="43.0195557" lon="13.383424"><ele>543.0</ele><time>2026-04-12T09:08:25.047Z</time></trkpt><trkpt lat="43.0194901" lon="13.3833854"><ele>543.0</ele><time>2026-04-12T09:08:26.057Z</time></trkpt><trkpt lat="43.0194239" lon="13.3833453"><ele>543.0</ele><time>2026-04-12T09:08:27.044Z</time></trkpt><trkpt lat="43.0193065" lon="13.3833137"><ele>543.0</ele><time>2026-04-12T09:08:29.058Z</time></trkpt><trkpt lat="43.0191899" lon="13.3833028"><ele>543.0</ele><time>2026-04-12T09:08:31.05Z</time></trkpt><trkpt lat="43.0191255" lon="13.3833283"><ele>543.0</ele><time>2026-04-12T09:08:32.046Z</time></trkpt><trkpt lat="43.0190473" lon="13.3833725"><ele>543.0</ele><time>2026-04-12T09:08:33.046Z</time></trkpt><trkpt lat="43.0189647" lon="13.3834266"><ele>543.0</ele><time>2026-04-12T09:08:34.064Z</time></trkpt><trkpt lat="43.0188833" lon="13.3834915"><ele>539.6</ele><time>2026-04-12T09:08:35.051Z</time></trkpt><trkpt lat="43.018793" lon="13.3835788"><ele>536.1999999999999</ele><time>2026-04-12T09:08:36.048Z</time></trkpt><trkpt lat="43.0187058" lon="13.3836822"><ele>532.8</ele><time>2026-04-12T09:08:37.046Z</time></trkpt><trkpt lat="43.0186362" lon="13.3837737"><ele>529.4</ele><time>2026-04-12T09:08:38.035Z</time></trkpt><trkpt lat="43.0185724" lon="13.3838716"><ele>526.0</ele><time>2026-04-12T09:08:39.04Z</time></trkpt><trkpt lat="43.0185129" lon="13.3839705"><ele>526.0</ele><time>2026-04-12T09:08:39.988Z</time></trkpt><trkpt lat="43.0184472" lon="13.384067"><ele>526.0</ele><time>2026-04-12T09:08:41.036Z</time></trkpt><trkpt lat="43.0183907" lon="13.3841392"><ele>526.0</ele><time>2026-04-12T09:08:42.015Z</time></trkpt><trkpt lat="43.0182935" lon="13.3842371"><ele>526.0</ele><time>2026-04-12T09:08:44.03Z</time></trkpt><trkpt lat="43.0182042" lon="13.384337"><ele>526.0</ele><time>2026-04-12T09:08:46.033Z</time></trkpt><trkpt lat="43.0181575" lon="13.3844299"><ele>523.6666666666667</ele><time>2026-04-12T09:08:48.043Z</time></trkpt><trkpt lat="43.0181652" lon="13.384527"><ele>521.3333333333334</ele><time>2026-04-12T09:08:50.025Z</time></trkpt><trkpt lat="43.0181923" lon="13.3846509"><ele>519.0</ele><time>2026-04-12T09:08:52.013Z</time></trkpt><trkpt lat="43.0182056" lon="13.384784"><ele>516.6666666666666</ele><time>2026-04-12T09:08:54.054Z</time></trkpt><trkpt lat="43.0182253" lon="13.3849428"><ele>514.3333333333333</ele><time>2026-04-12T09:08:56.038Z</time></trkpt><trkpt lat="43.0182458" lon="13.3850283"><ele>512.0</ele><time>2026-04-12T09:08:57.043Z</time></trkpt><trkpt lat="43.0182625" lon="13.3851164"><ele>512.0</ele><time>2026-04-12T09:08:58.049Z</time></trkpt><trkpt lat="43.0182788" lon="13.3852713"><ele>512.0</ele><time>2026-04-12T09:09:00.032Z</time></trkpt><trkpt lat="43.0183105" lon="13.3854322"><ele>512.0</ele><time>2026-04-12T09:09:02.058Z</time></trkpt><trkpt lat="43.0183242" lon="13.3855171"><ele>512.0</ele><time>2026-04-12T09:09:03.033Z</time></trkpt><trkpt lat="43.0183528" lon="13.3856825"><ele>512.0</ele><time>2026-04-12T09:09:05.034Z</time></trkpt><trkpt lat="43.0183723" lon="13.3857741"><ele>509.71428571428567</ele><time>2026-04-12T09:09:06.036Z</time></trkpt><trkpt lat="43.018392" lon="13.3858682"><ele>507.4285714285714</ele><time>2026-04-12T09:09:07.04Z</time></trkpt><trkpt lat="43.0184126" lon="13.3859618"><ele>505.1428571428571</ele><time>2026-04-12T09:09:08.016Z</time></trkpt><trkpt lat="43.0184361" lon="13.3860554"><ele>502.8571428571429</ele><time>2026-04-12T09:09:09.052Z</time></trkpt><trkpt lat="43.0184486" lon="13.3861512"><ele>500.5714285714286</ele><time>2026-04-12T09:09:10.047Z</time></trkpt><trkpt lat="43.0184416" lon="13.3862455"><ele>498.28571428571433</ele><time>2026-04-12T09:09:11.051Z</time></trkpt><trkpt lat="43.0184182" lon="13.3863409"><ele>496.0</ele><time>2026-04-12T09:09:12.036Z</time></trkpt><trkpt lat="43.0183984" lon="13.3864382"><ele>492.33333333333337</ele><time>2026-04-12T09:09:13.036Z</time></trkpt><trkpt lat="43.0183764" lon="13.3865292"><ele>488.6666666666667</ele><time>2026-04-12T09:09:14.045Z</time></trkpt><trkpt lat="43.018347" lon="13.386613"><ele>485.0</ele><time>2026-04-12T09:09:15.04Z</time></trkpt><trkpt lat="43.0183215" lon="13.3867379"><ele>481.33333333333337</ele><time>2026-04-12T09:09:17.039Z</time></trkpt><trkpt lat="43.0183469" lon="13.3868787"><ele>477.6666666666667</ele><time>2026-04-12T09:09:19.049Z</time></trkpt><trkpt lat="43.018355" lon="13.3869877"><ele>474.0</ele><time>2026-04-12T09:09:20.06Z</time></trkpt><trkpt lat="43.0183434" lon="13.387101"><ele>471.3333333333333</ele><time>2026-04-12T09:09:21.065Z</time></trkpt><trkpt lat="43.0183173" lon="13.3872161"><ele>468.66666666666663</ele><time>2026-04-12T09:09:22.044Z</time></trkpt><trkpt lat="43.0182867" lon="13.3873251"><ele>466.0</ele><time>2026-04-12T09:09:23.056Z</time></trkpt><trkpt lat="43.0182586" lon="13.3874238"><ele>463.3333333333333</ele><time>2026-04-12T09:09:24.037Z</time></trkpt><trkpt lat="43.0182233" lon="13.3875036"><ele>460.66666666666663</ele><time>2026-04-12T09:09:25.042Z</time></trkpt><trkpt lat="43.0181814" lon="13.3875689"><ele>458.0</ele><time>2026-04-12T09:09:26.047Z</time></trkpt><trkpt lat="43.018138" lon="13.3876612"><ele>457.99999999999994</ele><time>2026-04-12T09:09:27.049Z</time></trkpt><trkpt lat="43.018113" lon="13.3877744"><ele>458.0</ele><time>2026-04-12T09:09:28.058Z</time></trkpt><trkpt lat="43.0180978" lon="13.3878667"><ele>458.0</ele><time>2026-04-12T09:09:29.042Z</time></trkpt><trkpt lat="43.0180737" lon="13.3879792"><ele>458.0</ele><time>2026-04-12T09:09:31.042Z</time></trkpt><trkpt lat="43.0180115" lon="13.3880194"><ele>457.99999999999994</ele><time>2026-04-12T09:09:33.041Z</time></trkpt><trkpt lat="43.0179282" lon="13.3880058"><ele>458.0</ele><time>2026-04-12T09:09:34.043Z</time></trkpt><trkpt lat="43.0178255" lon="13.3879919"><ele>458.0</ele><time>2026-04-12T09:09:35.047Z</time></trkpt><trkpt lat="43.0177097" lon="13.3879797"><ele>458.0</ele><time>2026-04-12T09:09:36.055Z</time></trkpt><trkpt lat="43.0175855" lon="13.387965"><ele>458.0</ele><time>2026-04-12T09:09:37.04Z</time></trkpt><trkpt lat="43.0174636" lon="13.3879433"><ele>458.0</ele><time>2026-04-12T09:09:38.041Z</time></trkpt><trkpt lat="43.017348" lon="13.387921"><ele>456.2</ele><time>2026-04-12T09:09:39.021Z</time></trkpt><trkpt lat="43.0172369" lon="13.3878961"><ele>454.4</ele><time>2026-04-12T09:09:40.041Z</time></trkpt><trkpt lat="43.0171292" lon="13.3878792"><ele>452.59999999999997</ele><time>2026-04-12T09:09:41.062Z</time></trkpt><trkpt lat="43.0170201" lon="13.3878591"><ele>450.79999999999995</ele><time>2026-04-12T09:09:42.051Z</time></trkpt><trkpt lat="43.0169037" lon="13.3878482"><ele>449.0</ele><time>2026-04-12T09:09:43.032Z</time></trkpt><trkpt lat="43.0167891" lon="13.3878391"><ele>449.0</ele><time>2026-04-12T09:09:44.03Z</time></trkpt><trkpt lat="43.016685" lon="13.3878249"><ele>449.0</ele><time>2026-04-12T09:09:45.028Z</time></trkpt><trkpt lat="43.0165899" lon="13.387798"><ele>449.0</ele><time>2026-04-12T09:09:46.029Z</time></trkpt><trkpt lat="43.016498" lon="13.3877564"><ele>449.0</ele><time>2026-04-12T09:09:47.036Z</time></trkpt><trkpt lat="43.0164101" lon="13.3877283"><ele>449.0</ele><time>2026-04-12T09:09:48.03Z</time></trkpt><trkpt lat="43.0163247" lon="13.3877164"><ele>446.0</ele><time>2026-04-12T09:09:49.007Z</time></trkpt><trkpt lat="43.0162433" lon="13.3877068"><ele>443.0</ele><time>2026-04-12T09:09:50.033Z</time></trkpt><trkpt lat="43.0161693" lon="13.3876792"><ele>440.0</ele><time>2026-04-12T09:09:51.037Z</time></trkpt><trkpt lat="43.0160799" lon="13.3876256"><ele>437.0</ele><time>2026-04-12T09:09:52.031Z</time></trkpt><trkpt lat="43.0159807" lon="13.3875622"><ele>434.0</ele><time>2026-04-12T09:09:53.025Z</time></trkpt><trkpt lat="43.0158828" lon="13.3875079"><ele>430.49999999999994</ele><time>2026-04-12T09:09:54.029Z</time></trkpt><trkpt lat="43.015794" lon="13.3874692"><ele>427.0</ele><time>2026-04-12T09:09:55.042Z</time></trkpt><trkpt lat="43.0157123" lon="13.3874215"><ele>423.5</ele><time>2026-04-12T09:09:56.046Z</time></trkpt><trkpt lat="43.0156364" lon="13.3873911"><ele>420.0</ele><time>2026-04-12T09:09:57.041Z</time></trkpt><trkpt lat="43.0155625" lon="13.3873795"><ele>416.49999999999994</ele><time>2026-04-12T09:09:58.047Z</time></trkpt><trkpt lat="43.0154823" lon="13.3874085"><ele>413.0</ele><time>2026-04-12T09:09:59.056Z</time></trkpt><trkpt lat="43.0153987" lon="13.3874908"><ele>413.0</ele><time>2026-04-12T09:10:00.064Z</time></trkpt><trkpt lat="43.0152973" lon="13.3875918"><ele>413.0</ele><time>2026-04-12T09:10:01.047Z</time></trkpt><trkpt lat="43.0151857" lon="13.3876878"><ele>413.0</ele><time>2026-04-12T09:10:02.042Z</time></trkpt><trkpt lat="43.0150693" lon="13.3877678"><ele>413.0</ele><time>2026-04-12T09:10:03.052Z</time></trkpt><trkpt lat="43.0149544" lon="13.3878409"><ele>410.59999999999997</ele><time>2026-04-12T09:10:04.056Z</time></trkpt><trkpt lat="43.0148445" lon="13.3879088"><ele>408.2</ele><time>2026-04-12T09:10:05.041Z</time></trkpt><trkpt lat="43.0147365" lon="13.3879715"><ele>405.8</ele><time>2026-04-12T09:10:06.048Z</time></trkpt><trkpt lat="43.0146421" lon="13.3880318"><ele>403.4</ele><time>2026-04-12T09:10:07.042Z</time></trkpt><trkpt lat="43.0145689" lon="13.3880743"><ele>401.0</ele><time>2026-04-12T09:10:08.034Z</time></trkpt><trkpt lat="43.0144682" lon="13.3881067"><ele>400.0</ele><time>2026-04-12T09:10:10.04Z</time></trkpt><trkpt lat="43.0144217" lon="13.3882243"><ele>399.0</ele><time>2026-04-12T09:10:13.028Z</time></trkpt><trkpt lat="43.0143861" lon="13.3884107"><ele>398.0</ele><time>2026-04-12T09:10:15.032Z</time></trkpt><trkpt lat="43.0143565" lon="13.3885294"><ele>397.0</ele><time>2026-04-12T09:10:16.036Z</time></trkpt><trkpt lat="43.0143285" lon="13.3886537"><ele>396.0</ele><time>2026-04-12T09:10:17.044Z</time></trkpt><trkpt lat="43.0143107" lon="13.3887639"><ele>394.8333333333333</ele><time>2026-04-12T09:10:17.99Z</time></trkpt><trkpt lat="43.0143017" lon="13.3888713"><ele>393.66666666666663</ele><time>2026-04-12T09:10:19.031Z</time></trkpt><trkpt lat="43.0143134" lon="13.3889753"><ele>392.5</ele><time>2026-04-12T09:10:20.045Z</time></trkpt><trkpt lat="43.0143444" lon="13.3890786"><ele>391.3333333333333</ele><time>2026-04-12T09:10:21.034Z</time></trkpt><trkpt lat="43.0144002" lon="13.3891788"><ele>390.16666666666663</ele><time>2026-04-12T09:10:22.04Z</time></trkpt><trkpt lat="43.0144787" lon="13.3892733"><ele>389.0</ele><time>2026-04-12T09:10:23.045Z</time></trkpt><trkpt lat="43.0145725" lon="13.3893633"><ele>389.0</ele><time>2026-04-12T09:10:24.009Z</time></trkpt><trkpt lat="43.014673" lon="13.3894525"><ele>389.0</ele><time>2026-04-12T09:10:25.003Z</time></trkpt><trkpt lat="43.0147758" lon="13.3895499"><ele>389.0</ele><time>2026-04-12T09:10:26.036Z</time></trkpt><trkpt lat="43.0148685" lon="13.389643"><ele>389.0</ele><time>2026-04-12T09:10:27.047Z</time></trkpt><trkpt lat="43.0149464" lon="13.3897451"><ele>388.0</ele><time>2026-04-12T09:10:28.037Z</time></trkpt><trkpt lat="43.0150021" lon="13.389873"><ele>387.0</ele><time>2026-04-12T09:10:29.032Z</time></trkpt><trkpt lat="43.0150521" lon="13.3899981"><ele>386.0</ele><time>2026-04-12T09:10:30.008Z</time></trkpt><trkpt lat="43.0151059" lon="13.3901206"><ele>385.0</ele><time>2026-04-12T09:10:31.029Z</time></trkpt><trkpt lat="43.0151677" lon="13.3902447"><ele>384.0</ele><time>2026-04-12T09:10:32.028Z</time></trkpt><trkpt lat="43.0152357" lon="13.390371"><ele>384.0</ele><time>2026-04-12T09:10:33.046Z</time></trkpt><trkpt lat="43.0152944" lon="13.3904887"><ele>384.0</ele><time>2026-04-12T09:10:34.031Z</time></trkpt><trkpt lat="43.0153476" lon="13.3906008"><ele>384.0</ele><time>2026-04-12T09:10:35.041Z</time></trkpt><trkpt lat="43.0154012" lon="13.3907095"><ele>384.0</ele><time>2026-04-12T09:10:36.047Z</time></trkpt><trkpt lat="43.0154567" lon="13.3908213"><ele>384.0</ele><time>2026-04-12T09:10:37.024Z</time></trkpt><trkpt lat="43.0155013" lon="13.3909461"><ele>382.8333333333333</ele><time>2026-04-12T09:10:38.038Z</time></trkpt><trkpt lat="43.015522" lon="13.3910758"><ele>381.6666666666667</ele><time>2026-04-12T09:10:39.041Z</time></trkpt><trkpt lat="43.01553" lon="13.3912024"><ele>380.5</ele><time>2026-04-12T09:10:40.024Z</time></trkpt><trkpt lat="43.0155258" lon="13.391322"><ele>379.33333333333337</ele><time>2026-04-12T09:10:41.036Z</time></trkpt><trkpt lat="43.0155011" lon="13.3914277"><ele>378.1666666666667</ele><time>2026-04-12T09:10:42.029Z</time></trkpt><trkpt lat="43.0154638" lon="13.3915069"><ele>377.0</ele><time>2026-04-12T09:10:43.028Z</time></trkpt><trkpt lat="43.0154064" lon="13.3915708"><ele>376.0</ele><time>2026-04-12T09:10:44.057Z</time></trkpt><trkpt lat="43.0153321" lon="13.39161"><ele>375.0</ele><time>2026-04-12T09:10:45.046Z</time></trkpt><trkpt lat="43.0152424" lon="13.3916246"><ele>374.0</ele><time>2026-04-12T09:10:46.039Z</time></trkpt><trkpt lat="43.015147" lon="13.3916375"><ele>373.0</ele><time>2026-04-12T09:10:47.037Z</time></trkpt><trkpt lat="43.0150426" lon="13.3916203"><ele>372.0</ele><time>2026-04-12T09:10:48.05Z</time></trkpt><trkpt lat="43.0149342" lon="13.3915789"><ele>370.6</ele><time>2026-04-12T09:10:49.032Z</time></trkpt><trkpt lat="43.0148311" lon="13.3915338"><ele>369.20000000000005</ele><time>2026-04-12T09:10:50.031Z</time></trkpt><trkpt lat="43.0147302" lon="13.3914844"><ele>367.8</ele><time>2026-04-12T09:10:51.039Z</time></trkpt><trkpt lat="43.0146412" lon="13.3914424"><ele>366.4</ele><time>2026-04-12T09:10:52.041Z</time></trkpt><trkpt lat="43.0145582" lon="13.391409"><ele>365.0</ele><time>2026-04-12T09:10:53.036Z</time></trkpt><trkpt lat="43.0144842" lon="13.3913764"><ele>365.0</ele><time>2026-04-12T09:10:54.037Z</time></trkpt><trkpt lat="43.0144069" lon="13.3913663"><ele>365.0</ele><time>2026-04-12T09:10:55.031Z</time></trkpt><trkpt lat="43.0143437" lon="13.3913882"><ele>365.0</ele><time>2026-04-12T09:10:56.043Z</time></trkpt><trkpt lat="43.0142588" lon="13.3915033"><ele>365.0</ele><time>2026-04-12T09:10:58.041Z</time></trkpt><trkpt lat="43.0142595" lon="13.3916304"><ele>365.0</ele><time>2026-04-12T09:11:00.04Z</time></trkpt><trkpt lat="43.0143328" lon="13.3917321"><ele>365.0</ele><time>2026-04-12T09:11:02.048Z</time></trkpt><trkpt lat="43.0143999" lon="13.3917665"><ele>365.0</ele><time>2026-04-12T09:11:03.035Z</time></trkpt><trkpt lat="43.0144625" lon="13.3918094"><ele>365.0</ele><time>2026-04-12T09:11:04.047Z</time></trkpt><trkpt lat="43.0145646" lon="13.3919101"><ele>365.0</ele><time>2026-04-12T09:11:06.043Z</time></trkpt><trkpt lat="43.014639" lon="13.3920077"><ele>365.0</ele><time>2026-04-12T09:11:08.07Z</time></trkpt><trkpt lat="43.0146711" lon="13.39213"><ele>366.33333333333337</ele><time>2026-04-12T09:11:10.052Z</time></trkpt><trkpt lat="43.0146926" lon="13.392226"><ele>367.6666666666667</ele><time>2026-04-12T09:11:11.057Z</time></trkpt><trkpt lat="43.014717" lon="13.3923237"><ele>369.0</ele><time>2026-04-12T09:11:12.057Z</time></trkpt><trkpt lat="43.0147364" lon="13.3924334"><ele>370.3333333333333</ele><time>2026-04-12T09:11:13.062Z</time></trkpt><trkpt lat="43.014752" lon="13.3925294"><ele>371.66666666666663</ele><time>2026-04-12T09:11:14.031Z</time></trkpt><trkpt lat="43.0147769" lon="13.3926268"><ele>373.0</ele><time>2026-04-12T09:11:15.039Z</time></trkpt><trkpt lat="43.0147989" lon="13.3927208"><ele>373.0</ele><time>2026-04-12T09:11:16.032Z</time></trkpt><trkpt lat="43.014832" lon="13.3928066"><ele>373.0</ele><time>2026-04-12T09:11:17.048Z</time></trkpt><trkpt lat="43.0148661" lon="13.3928944"><ele>373.0</ele><time>2026-04-12T09:11:18.022Z</time></trkpt><trkpt lat="43.0148845" lon="13.3929881"><ele>373.0</ele><time>2026-04-12T09:11:19.038Z</time></trkpt><trkpt lat="43.0148876" lon="13.3930946"><ele>373.0</ele><time>2026-04-12T09:11:20.033Z</time></trkpt><trkpt lat="43.0149039" lon="13.3931857"><ele>373.0</ele><time>2026-04-12T09:11:20.999Z</time></trkpt><trkpt lat="43.0149207" lon="13.3932854"><ele>373.0</ele><time>2026-04-12T09:11:22.05Z</time></trkpt><trkpt lat="43.0149381" lon="13.3933909"><ele>375.0</ele><time>2026-04-12T09:11:23.036Z</time></trkpt><trkpt lat="43.0149586" lon="13.393503"><ele>377.0</ele><time>2026-04-12T09:11:24.024Z</time></trkpt><trkpt lat="43.0149724" lon="13.3936106"><ele>379.0</ele><time>2026-04-12T09:11:25.033Z</time></trkpt><trkpt lat="43.0149877" lon="13.3937072"><ele>381.0</ele><time>2026-04-12T09:11:26.041Z</time></trkpt><trkpt lat="43.0150063" lon="13.3938042"><ele>383.00000000000006</ele><time>2026-04-12T09:11:27.062Z</time></trkpt><trkpt lat="43.0150303" lon="13.3939108"><ele>385.0</ele><time>2026-04-12T09:11:28.061Z</time></trkpt><trkpt lat="43.0150526" lon="13.3940108"><ele>390.83333333333337</ele><time>2026-04-12T09:11:29.028Z</time></trkpt><trkpt lat="43.0150623" lon="13.3941083"><ele>396.6666666666667</ele><time>2026-04-12T09:11:30.043Z</time></trkpt><trkpt lat="43.0150837" lon="13.3942068"><ele>402.5</ele><time>2026-04-12T09:11:30.993Z</time></trkpt><trkpt lat="43.0151121" lon="13.3943231"><ele>408.33333333333337</ele><time>2026-04-12T09:11:32.044Z</time></trkpt><trkpt lat="43.0151337" lon="13.3944399"><ele>414.1666666666667</ele><time>2026-04-12T09:11:33.06Z</time></trkpt><trkpt lat="43.0151525" lon="13.3945565"><ele>420.0</ele><time>2026-04-12T09:11:34.046Z</time></trkpt><trkpt lat="43.015167" lon="13.3946776"><ele>420.6666666666667</ele><time>2026-04-12T09:11:35.047Z</time></trkpt><trkpt lat="43.0151703" lon="13.3947889"><ele>421.33333333333337</ele><time>2026-04-12T09:11:36.06Z</time></trkpt><trkpt lat="43.0151649" lon="13.3948932"><ele>422.0</ele><time>2026-04-12T09:11:37.044Z</time></trkpt><trkpt lat="43.0151462" lon="13.3949771"><ele>422.6666666666667</ele><time>2026-04-12T09:11:38.056Z</time></trkpt><trkpt lat="43.0151003" lon="13.3950368"><ele>423.33333333333337</ele><time>2026-04-12T09:11:39.036Z</time></trkpt><trkpt lat="43.0150325" lon="13.3950781"><ele>424.0</ele><time>2026-04-12T09:11:40.046Z</time></trkpt><trkpt lat="43.0149351" lon="13.3951159"><ele>424.0</ele><time>2026-04-12T09:11:41.032Z</time></trkpt><trkpt lat="43.0148176" lon="13.395169"><ele>424.0</ele><time>2026-04-12T09:11:42.028Z</time></trkpt><trkpt lat="43.0147089" lon="13.3952354"><ele>424.0</ele><time>2026-04-12T09:11:43.042Z</time></trkpt><trkpt lat="43.0146315" lon="13.3952998"><ele>424.0</ele><time>2026-04-12T09:11:44.035Z</time></trkpt><trkpt lat="43.0145647" lon="13.3953697"><ele>424.0</ele><time>2026-04-12T09:11:45.031Z</time></trkpt><trkpt lat="43.014517" lon="13.39546"><ele>428.4</ele><time>2026-04-12T09:11:46.042Z</time></trkpt><trkpt lat="43.0144927" lon="13.3955762"><ele>432.79999999999995</ele><time>2026-04-12T09:11:47.03Z</time></trkpt><trkpt lat="43.0144798" lon="13.3957025"><ele>437.20000000000005</ele><time>2026-04-12T09:11:48.053Z</time></trkpt><trkpt lat="43.0144557" lon="13.3958803"><ele>441.6</ele><time>2026-04-12T09:11:49.029Z</time></trkpt><trkpt lat="43.0144373" lon="13.3960546"><ele>446.0</ele><time>2026-04-12T09:11:50.017Z</time></trkpt><trkpt lat="43.014419" lon="13.3962064"><ele>445.99999999999994</ele><time>2026-04-12T09:11:51.044Z</time></trkpt><trkpt lat="43.0144329" lon="13.3963289"><ele>446.0</ele><time>2026-04-12T09:11:52.047Z</time></trkpt><trkpt lat="43.0144718" lon="13.3964267"><ele>446.0</ele><time>2026-04-12T09:11:53.037Z</time></trkpt><trkpt lat="43.0145191" lon="13.3965182"><ele>446.0</ele><time>2026-04-12T09:11:54.047Z</time></trkpt><trkpt lat="43.0145743" lon="13.3965978"><ele>445.99999999999994</ele><time>2026-04-12T09:11:55.044Z</time></trkpt><trkpt lat="43.0146685" lon="13.3966871"><ele>446.0</ele><time>2026-04-12T09:11:57.047Z</time></trkpt><trkpt lat="43.0147563" lon="13.3968287"><ele>447.20000000000005</ele><time>2026-04-12T09:11:59.054Z</time></trkpt><trkpt lat="43.014807" lon="13.3969089"><ele>448.40000000000003</ele><time>2026-04-12T09:12:00.073Z</time></trkpt><trkpt lat="43.0148874" lon="13.3969861"><ele>449.6</ele><time>2026-04-12T09:12:01.058Z</time></trkpt><trkpt lat="43.0149769" lon="13.3970816"><ele>450.8</ele><time>2026-04-12T09:12:02.033Z</time></trkpt><trkpt lat="43.0150729" lon="13.3971687"><ele>452.0</ele><time>2026-04-12T09:12:03.059Z</time></trkpt><trkpt lat="43.0151744" lon="13.3972537"><ele>456.40000000000003</ele><time>2026-04-12T09:12:04.044Z</time></trkpt><trkpt lat="43.0152559" lon="13.3973337"><ele>460.80000000000007</ele><time>2026-04-12T09:12:05.054Z</time></trkpt><trkpt lat="43.0153611" lon="13.3974295"><ele>465.2</ele><time>2026-04-12T09:12:06.041Z</time></trkpt><trkpt lat="43.0154481" lon="13.3975278"><ele>469.6</ele><time>2026-04-12T09:12:07.046Z</time></trkpt><trkpt lat="43.0155175" lon="13.3976103"><ele>474.0</ele><time>2026-04-12T09:12:08.041Z</time></trkpt><trkpt lat="43.0155835" lon="13.3976973"><ele>474.0</ele><time>2026-04-12T09:12:09.045Z</time></trkpt><trkpt lat="43.0156426" lon="13.3977465"><ele>474.0</ele><time>2026-04-12T09:12:10.056Z</time></trkpt><trkpt lat="43.0157133" lon="13.3978165"><ele>474.0</ele><time>2026-04-12T09:12:11.046Z</time></trkpt><trkpt lat="43.015786" lon="13.3978956"><ele>474.0</ele><time>2026-04-12T09:12:12.03Z</time></trkpt><trkpt lat="43.0158549" lon="13.3979724"><ele>474.0</ele><time>2026-04-12T09:12:13.042Z</time></trkpt><trkpt lat="43.0159319" lon="13.3980347"><ele>474.0</ele><time>2026-04-12T09:12:14.053Z</time></trkpt><trkpt lat="43.016036" lon="13.3980929"><ele>479.0</ele><time>2026-04-12T09:12:15.031Z</time></trkpt><trkpt lat="43.0161437" lon="13.3981596"><ele>484.0</ele><time>2026-04-12T09:12:16.048Z</time></trkpt><trkpt lat="43.0162542" lon="13.3982246"><ele>489.0</ele><time>2026-04-12T09:12:17.05Z</time></trkpt><trkpt lat="43.0163685" lon="13.398296"><ele>494.0</ele><time>2026-04-12T09:12:18.03Z</time></trkpt><trkpt lat="43.016505" lon="13.3983681"><ele>494.0</ele><time>2026-04-12T09:12:19.041Z</time></trkpt><trkpt lat="43.0166199" lon="13.3984213"><ele>494.0</ele><time>2026-04-12T09:12:20.053Z</time></trkpt><trkpt lat="43.0167174" lon="13.3984667"><ele>494.0</ele><time>2026-04-12T09:12:21.052Z</time></trkpt><trkpt lat="43.0168142" lon="13.3985111"><ele>494.0</ele><time>2026-04-12T09:12:22.039Z</time></trkpt><trkpt lat="43.0169017" lon="13.3985603"><ele>494.0</ele><time>2026-04-12T09:12:23.023Z</time></trkpt><trkpt lat="43.0169655" lon="13.3986263"><ele>495.3333333333333</ele><time>2026-04-12T09:12:23.999Z</time></trkpt><trkpt lat="43.0170142" lon="13.3987078"><ele>496.66666666666663</ele><time>2026-04-12T09:12:25.041Z</time></trkpt><trkpt lat="43.0170871" lon="13.3987706"><ele>498.0</ele><time>2026-04-12T09:12:26.043Z</time></trkpt><trkpt lat="43.0171392" lon="13.398826"><ele>499.33333333333337</ele><time>2026-04-12T09:12:27.049Z</time></trkpt><trkpt lat="43.0171936" lon="13.3988877"><ele>500.6666666666667</ele><time>2026-04-12T09:12:28.032Z</time></trkpt><trkpt lat="43.0172845" lon="13.398961"><ele>502.0</ele><time>2026-04-12T09:12:30.045Z</time></trkpt><trkpt lat="43.0173934" lon="13.3989746"><ele>506.00000000000006</ele><time>2026-04-12T09:12:31.053Z</time></trkpt><trkpt lat="43.017518" lon="13.3989599"><ele>510.0</ele><time>2026-04-12T09:12:33.042Z</time></trkpt><trkpt lat="43.0175883" lon="13.3989662"><ele>514.0</ele><time>2026-04-12T09:12:34.042Z</time></trkpt><trkpt lat="43.0176819" lon="13.3989688"><ele>518.0</ele><time>2026-04-12T09:12:35.037Z</time></trkpt><trkpt lat="43.017753" lon="13.3989768"><ele>522.0</ele><time>2026-04-12T09:12:36.028Z</time></trkpt><trkpt lat="43.0178394" lon="13.3989927"><ele>526.0</ele><time>2026-04-12T09:12:37.056Z</time></trkpt><trkpt lat="43.0179413" lon="13.399054"><ele>526.0</ele><time>2026-04-12T09:12:38.05Z</time></trkpt><trkpt lat="43.0179112" lon="13.3991491"><ele>526.0</ele><time>2026-04-12T09:12:41.049Z</time></trkpt><trkpt lat="43.0179353" lon="13.3992489"><ele>526.0</ele><time>2026-04-12T09:12:43.037Z</time></trkpt><trkpt lat="43.0179985" lon="13.3994076"><ele>526.0</ele><time>2026-04-12T09:12:44.996Z</time></trkpt><trkpt lat="43.0180669" lon="13.3994972"><ele>526.0</ele><time>2026-04-12T09:12:46.979Z</time></trkpt><trkpt lat="43.0181732" lon="13.3995486"><ele>526.0</ele><time>2026-04-12T09:12:49.002Z</time></trkpt><trkpt lat="43.0182662" lon="13.3995762"><ele>526.0</ele><time>2026-04-12T09:12:50.002Z</time></trkpt><trkpt lat="43.0184013" lon="13.3996037"><ele>526.0</ele><time>2026-04-12T09:12:51.041Z</time></trkpt><trkpt lat="43.018534" lon="13.3996345"><ele>526.0</ele><time>2026-04-12T09:12:52.028Z</time></trkpt><trkpt lat="43.0186631" lon="13.3996596"><ele>531.0</ele><time>2026-04-12T09:12:53.037Z</time></trkpt><trkpt lat="43.0187915" lon="13.3996569"><ele>536.0</ele><time>2026-04-12T09:12:54.039Z</time></trkpt><trkpt lat="43.0189119" lon="13.3996314"><ele>541.0</ele><time>2026-04-12T09:12:55.019Z</time></trkpt><trkpt lat="43.0190412" lon="13.3995871"><ele>546.0</ele><time>2026-04-12T09:12:56.032Z</time></trkpt><trkpt lat="43.0191984" lon="13.3995029"><ele>548.6666666666666</ele><time>2026-04-12T09:12:57.063Z</time></trkpt><trkpt lat="43.0193349" lon="13.3994059"><ele>551.3333333333333</ele><time>2026-04-12T09:12:58.025Z</time></trkpt><trkpt lat="43.0194683" lon="13.399307"><ele>554.0</ele><time>2026-04-12T09:12:59.04Z</time></trkpt><trkpt lat="43.0195979" lon="13.3991986"><ele>554.0</ele><time>2026-04-12T09:13:00.033Z</time></trkpt><trkpt lat="43.0197172" lon="13.3991079"><ele>554.0</ele><time>2026-04-12T09:13:01.041Z</time></trkpt><trkpt lat="43.0198207" lon="13.3990297"><ele>554.0</ele><time>2026-04-12T09:13:02.013Z</time></trkpt><trkpt lat="43.0199112" lon="13.3989699"><ele>554.0</ele><time>2026-04-12T09:13:03.034Z</time></trkpt><trkpt lat="43.019982" lon="13.3989493"><ele>554.0</ele><time>2026-04-12T09:13:04.047Z</time></trkpt><trkpt lat="43.0200748" lon="13.3989637"><ele>554.0</ele><time>2026-04-12T09:13:05.028Z</time></trkpt><trkpt lat="43.0201547" lon="13.3989779"><ele>554.0</ele><time>2026-04-12T09:13:06.02Z</time></trkpt><trkpt lat="43.0202365" lon="13.3989725"><ele>554.0</ele><time>2026-04-12T09:13:07.037Z</time></trkpt><trkpt lat="43.0203147" lon="13.3989502"><ele>554.0</ele><time>2026-04-12T09:13:08.035Z</time></trkpt><trkpt lat="43.0203862" lon="13.3989059"><ele>554.0</ele><time>2026-04-12T09:13:09.045Z</time></trkpt><trkpt lat="43.0204556" lon="13.3988435"><ele>554.0</ele><time>2026-04-12T09:13:10.039Z</time></trkpt><trkpt lat="43.0205348" lon="13.3987632"><ele>554.0</ele><time>2026-04-12T09:13:11.048Z</time></trkpt><trkpt lat="43.0206205" lon="13.3986926"><ele>554.0</ele><time>2026-04-12T09:13:12.017Z</time></trkpt><trkpt lat="43.0207275" lon="13.3986242"><ele>554.0</ele><time>2026-04-12T09:13:13.071Z</time></trkpt><trkpt lat="43.0208527" lon="13.3985409"><ele>554.0</ele><time>2026-04-12T09:13:14.063Z</time></trkpt><trkpt lat="43.0209839" lon="13.3984567"><ele>555.6</ele><time>2026-04-12T09:13:15.042Z</time></trkpt><trkpt lat="43.0210908" lon="13.3983767"><ele>557.2</ele><time>2026-04-12T09:13:16.048Z</time></trkpt><trkpt lat="43.0211669" lon="13.3983259"><ele>558.8000000000001</ele><time>2026-04-12T09:13:16.998Z</time></trkpt><trkpt lat="43.0212442" lon="13.398273"><ele>560.4</ele><time>2026-04-12T09:13:18.053Z</time></trkpt><trkpt lat="43.0213418" lon="13.3982424"><ele>562.0</ele><time>2026-04-12T09:13:20.049Z</time></trkpt><trkpt lat="43.0213958" lon="13.3983609"><ele>562.0</ele><time>2026-04-12T09:13:23.048Z</time></trkpt><trkpt lat="43.0214455" lon="13.3984342"><ele>562.0</ele><time>2026-04-12T09:13:24.057Z</time></trkpt><trkpt lat="43.021516" lon="13.3985149"><ele>562.0</ele><time>2026-04-12T09:13:25.055Z</time></trkpt><trkpt lat="43.0216296" lon="13.3985645"><ele>562.0</ele><time>2026-04-12T09:13:26.047Z</time></trkpt><trkpt lat="43.021759" lon="13.3986013"><ele>562.0</ele><time>2026-04-12T09:13:27.047Z</time></trkpt><trkpt lat="43.0219123" lon="13.3986373"><ele>565.0</ele><time>2026-04-12T09:13:28.051Z</time></trkpt><trkpt lat="43.0220805" lon="13.3986622"><ele>568.0</ele><time>2026-04-12T09:13:29.051Z</time></trkpt><trkpt lat="43.022246" lon="13.3986878"><ele>571.0</ele><time>2026-04-12T09:13:30.007Z</time></trkpt><trkpt lat="43.022404" lon="13.3987015"><ele>573.0</ele><time>2026-04-12T09:13:31.033Z</time></trkpt><trkpt lat="43.0225416" lon="13.3987223"><ele>575.0</ele><time>2026-04-12T09:13:32.038Z</time></trkpt><trkpt lat="43.0226779" lon="13.3987589"><ele>577.0</ele><time>2026-04-12T09:13:33.027Z</time></trkpt><trkpt lat="43.0227989" lon="13.3987825"><ele>579.0</ele><time>2026-04-12T09:13:34.019Z</time></trkpt><trkpt lat="43.0229274" lon="13.3988236"><ele>577.6666666666666</ele><time>2026-04-12T09:13:35.044Z</time></trkpt><trkpt lat="43.0230164" lon="13.3989097"><ele>576.3333333333334</ele><time>2026-04-12T09:13:36.029Z</time></trkpt><trkpt lat="43.0230781" lon="13.3990283"><ele>575.0</ele><time>2026-04-12T09:13:37.04Z</time></trkpt><trkpt lat="43.0231209" lon="13.3991258"><ele>573.6666666666667</ele><time>2026-04-12T09:13:38.031Z</time></trkpt><trkpt lat="43.0231325" lon="13.3992281"><ele>572.3333333333334</ele><time>2026-04-12T09:13:39.033Z</time></trkpt><trkpt lat="43.0231427" lon="13.3993194"><ele>571.0</ele><time>2026-04-12T09:13:40.045Z</time></trkpt><trkpt lat="43.0231873" lon="13.399452"><ele>571.0</ele><time>2026-04-12T09:13:42Z</time></trkpt><trkpt lat="43.0232127" lon="13.399548"><ele>571.0</ele><time>2026-04-12T09:13:43.033Z</time></trkpt><trkpt lat="43.0232353" lon="13.3996564"><ele>571.0</ele><time>2026-04-12T09:13:44.059Z</time></trkpt><trkpt lat="43.0232574" lon="13.3997661"><ele>571.0</ele><time>2026-04-12T09:13:45.049Z</time></trkpt><trkpt lat="43.023279" lon="13.3998831"><ele>571.0</ele><time>2026-04-12T09:13:46.024Z</time></trkpt><trkpt lat="43.0232886" lon="13.4000069"><ele>571.0</ele><time>2026-04-12T09:13:47.041Z</time></trkpt><trkpt lat="43.0232579" lon="13.4001344"><ele>570.75</ele><time>2026-04-12T09:13:48.038Z</time></trkpt><trkpt lat="43.0231915" lon="13.4002589"><ele>570.5</ele><time>2026-04-12T09:13:49.041Z</time></trkpt><trkpt lat="43.023113" lon="13.4003809"><ele>570.25</ele><time>2026-04-12T09:13:50.011Z</time></trkpt><trkpt lat="43.0230218" lon="13.4005167"><ele>570.0</ele><time>2026-04-12T09:13:50.983Z</time></trkpt><trkpt lat="43.0229138" lon="13.4006462"><ele>570.0</ele><time>2026-04-12T09:13:52.033Z</time></trkpt><trkpt lat="43.0227989" lon="13.4007754"><ele>570.0</ele><time>2026-04-12T09:13:53.044Z</time></trkpt><trkpt lat="43.0226718" lon="13.400897"><ele>570.0</ele><time>2026-04-12T09:13:54.041Z</time></trkpt><trkpt lat="43.0225363" lon="13.4009809"><ele>563.8</ele><time>2026-04-12T09:13:55.06Z</time></trkpt><trkpt lat="43.0224208" lon="13.4010398"><ele>557.6</ele><time>2026-04-12T09:13:56.026Z</time></trkpt><trkpt lat="43.0223178" lon="13.4011093"><ele>551.4</ele><time>2026-04-12T09:13:57.04Z</time></trkpt><trkpt lat="43.0222303" lon="13.4011854"><ele>545.2</ele><time>2026-04-12T09:13:58.072Z</time></trkpt><trkpt lat="43.0221586" lon="13.4012595"><ele>539.0</ele><time>2026-04-12T09:13:59.036Z</time></trkpt><trkpt lat="43.0221063" lon="13.4013739"><ele>539.0</ele><time>2026-04-12T09:14:00.045Z</time></trkpt><trkpt lat="43.0220862" lon="13.4015439"><ele>539.0</ele><time>2026-04-12T09:14:01.04Z</time></trkpt><trkpt lat="43.0220757" lon="13.4017127"><ele>539.0</ele><time>2026-04-12T09:14:02.045Z</time></trkpt><trkpt lat="43.0220862" lon="13.4018901"><ele>539.0</ele><time>2026-04-12T09:14:03.035Z</time></trkpt><trkpt lat="43.0221148" lon="13.4020509"><ele>538.75</ele><time>2026-04-12T09:14:04.046Z</time></trkpt><trkpt lat="43.0221983" lon="13.4022012"><ele>538.5</ele><time>2026-04-12T09:14:05.042Z</time></trkpt><trkpt lat="43.0222926" lon="13.4023557"><ele>538.25</ele><time>2026-04-12T09:14:06.047Z</time></trkpt><trkpt lat="43.0223907" lon="13.4025167"><ele>538.0</ele><time>2026-04-12T09:14:07.037Z</time></trkpt><trkpt lat="43.022495" lon="13.4026485"><ele>541.5</ele><time>2026-04-12T09:14:08.023Z</time></trkpt><trkpt lat="43.0226071" lon="13.4027683"><ele>545.0</ele><time>2026-04-12T09:14:09.045Z</time></trkpt><trkpt lat="43.0227294" lon="13.4028814"><ele>548.5</ele><time>2026-04-12T09:14:10.043Z</time></trkpt><trkpt lat="43.0228402" lon="13.4030107"><ele>552.0</ele><time>2026-04-12T09:14:11.058Z</time></trkpt><trkpt lat="43.0229297" lon="13.4031783"><ele>552.0</ele><time>2026-04-12T09:14:12.042Z</time></trkpt><trkpt lat="43.0230115" lon="13.4033493"><ele>552.0</ele><time>2026-04-12T09:14:13.038Z</time></trkpt><trkpt lat="43.0230842" lon="13.4035234"><ele>552.0</ele><time>2026-04-12T09:14:14.054Z</time></trkpt><trkpt lat="43.023156" lon="13.4037105"><ele>552.6666666666666</ele><time>2026-04-12T09:14:15.031Z</time></trkpt><trkpt lat="43.0232341" lon="13.4039059"><ele>553.3333333333333</ele><time>2026-04-12T09:14:16.048Z</time></trkpt><trkpt lat="43.0233138" lon="13.4041168"><ele>554.0</ele><time>2026-04-12T09:14:17.01Z</time></trkpt><trkpt lat="43.0233939" lon="13.4043305"><ele>554.0</ele><time>2026-04-12T09:14:18.017Z</time></trkpt><trkpt lat="43.0234664" lon="13.4045255"><ele>554.0</ele><time>2026-04-12T09:14:19.061Z</time></trkpt><trkpt lat="43.0235329" lon="13.4047004"><ele>554.0</ele><time>2026-04-12T09:14:20.027Z</time></trkpt><trkpt lat="43.0235958" lon="13.4048783"><ele>554.0</ele><time>2026-04-12T09:14:21.04Z</time></trkpt><trkpt lat="43.0236619" lon="13.4050508"><ele>550.75</ele><time>2026-04-12T09:14:22.045Z</time></trkpt><trkpt lat="43.023722" lon="13.4052142"><ele>547.5</ele><time>2026-04-12T09:14:23.04Z</time></trkpt><trkpt lat="43.023781" lon="13.4053841"><ele>544.25</ele><time>2026-04-12T09:14:24.053Z</time></trkpt><trkpt lat="43.0238241" lon="13.4055341"><ele>541.0</ele><time>2026-04-12T09:14:25.054Z</time></trkpt><trkpt lat="43.0238592" lon="13.4056633"><ele>539.6666666666667</ele><time>2026-04-12T09:14:26.041Z</time></trkpt><trkpt lat="43.0238709" lon="13.405774"><ele>538.3333333333334</ele><time>2026-04-12T09:14:27.041Z</time></trkpt><trkpt lat="43.0238644" lon="13.4058665"><ele>537.0</ele><time>2026-04-12T09:14:28.06Z</time></trkpt><trkpt lat="43.0238638" lon="13.405985"><ele>535.6666666666666</ele><time>2026-04-12T09:14:30.028Z</time></trkpt><trkpt lat="43.0239199" lon="13.4060518"><ele>534.3333333333333</ele><time>2026-04-12T09:14:33.056Z</time></trkpt><trkpt lat="43.0239701" lon="13.4061736"><ele>533.0</ele><time>2026-04-12T09:14:35.054Z</time></trkpt><trkpt lat="43.0240091" lon="13.4062584"><ele>534.5</ele><time>2026-04-12T09:14:36.032Z</time></trkpt><trkpt lat="43.0240473" lon="13.4063614"><ele>536.0</ele><time>2026-04-12T09:14:37.038Z</time></trkpt><trkpt lat="43.0240878" lon="13.4064587"><ele>537.5</ele><time>2026-04-12T09:14:38.048Z</time></trkpt><trkpt lat="43.024118" lon="13.4065636"><ele>539.0</ele><time>2026-04-12T09:14:39.042Z</time></trkpt><trkpt lat="43.024138" lon="13.4066569"><ele>540.5</ele><time>2026-04-12T09:14:40.048Z</time></trkpt><trkpt lat="43.0241569" lon="13.406756"><ele>542.0</ele><time>2026-04-12T09:14:41.032Z</time></trkpt><trkpt lat="43.0241729" lon="13.406856"><ele>543.8333333333333</ele><time>2026-04-12T09:14:42.016Z</time></trkpt><trkpt lat="43.0242056" lon="13.4069431"><ele>545.6666666666666</ele><time>2026-04-12T09:14:42.997Z</time></trkpt><trkpt lat="43.0242392" lon="13.4070381"><ele>547.5</ele><time>2026-04-12T09:14:44.006Z</time></trkpt><trkpt lat="43.0242602" lon="13.4071348"><ele>549.3333333333334</ele><time>2026-04-12T09:14:45.039Z</time></trkpt><trkpt lat="43.0242913" lon="13.4072312"><ele>551.1666666666667</ele><time>2026-04-12T09:14:46.038Z</time></trkpt><trkpt lat="43.0243465" lon="13.4073076"><ele>553.0</ele><time>2026-04-12T09:14:47.033Z</time></trkpt><trkpt lat="43.0244253" lon="13.4073493"><ele>553.6</ele><time>2026-04-12T09:14:48.044Z</time></trkpt><trkpt lat="43.024524" lon="13.4073946"><ele>554.1999999999999</ele><time>2026-04-12T09:14:49.037Z</time></trkpt><trkpt lat="43.0246258" lon="13.4074216"><ele>554.8</ele><time>2026-04-12T09:14:50.037Z</time></trkpt><trkpt lat="43.0247192" lon="13.4074462"><ele>555.4</ele><time>2026-04-12T09:14:51.027Z</time></trkpt><trkpt lat="43.0248194" lon="13.4074707"><ele>556.0</ele><time>2026-04-12T09:14:52.035Z</time></trkpt><trkpt lat="43.0248938" lon="13.407515"><ele>556.0</ele><time>2026-04-12T09:14:53.04Z</time></trkpt><trkpt lat="43.0249539" lon="13.4075571"><ele>556.0</ele><time>2026-04-12T09:14:54.048Z</time></trkpt><trkpt lat="43.0249973" lon="13.4076196"><ele>556.0</ele><time>2026-04-12T09:14:55.051Z</time></trkpt><trkpt lat="43.0250476" lon="13.4077183"><ele>556.0</ele><time>2026-04-12T09:14:56.052Z</time></trkpt><trkpt lat="43.0251054" lon="13.4078221"><ele>556.0</ele><time>2026-04-12T09:14:57.036Z</time></trkpt><trkpt lat="43.0251626" lon="13.4079397"><ele>556.0</ele><time>2026-04-12T09:14:58.059Z</time></trkpt><trkpt lat="43.0252211" lon="13.4080555"><ele>554.6666666666667</ele><time>2026-04-12T09:14:59.048Z</time></trkpt><trkpt lat="43.0252922" lon="13.408146"><ele>553.3333333333334</ele><time>2026-04-12T09:15:00.009Z</time></trkpt><trkpt lat="43.025358" lon="13.4082298"><ele>552.0</ele><time>2026-04-12T09:15:01.049Z</time></trkpt><trkpt lat="43.025426" lon="13.4083125"><ele>550.6666666666666</ele><time>2026-04-12T09:15:02.05Z</time></trkpt><trkpt lat="43.025493" lon="13.4083759"><ele>549.3333333333333</ele><time>2026-04-12T09:15:03.016Z</time></trkpt><trkpt lat="43.0255472" lon="13.4084284"><ele>548.0</ele><time>2026-04-12T09:15:04.044Z</time></trkpt><trkpt lat="43.0256105" lon="13.4084714"><ele>548.0</ele><time>2026-04-12T09:15:05.062Z</time></trkpt><trkpt lat="43.0256988" lon="13.4085168"><ele>548.0</ele><time>2026-04-12T09:15:07.04Z</time></trkpt><trkpt lat="43.025763" lon="13.4085773"><ele>548.0</ele><time>2026-04-12T09:15:10.036Z</time></trkpt><trkpt lat="43.0258313" lon="13.4086803"><ele>548.0</ele><time>2026-04-12T09:15:12.057Z</time></trkpt><trkpt lat="43.0259095" lon="13.4087286"><ele>548.0</ele><time>2026-04-12T09:15:13.041Z</time></trkpt><trkpt lat="43.0260155" lon="13.4087893"><ele>545.75</ele><time>2026-04-12T09:15:14.031Z</time></trkpt><trkpt lat="43.0261397" lon="13.4088706"><ele>543.5</ele><time>2026-04-12T09:15:15.038Z</time></trkpt><trkpt lat="43.026262" lon="13.4089866"><ele>541.25</ele><time>2026-04-12T09:15:16.036Z</time></trkpt><trkpt lat="43.0263652" lon="13.409113"><ele>539.0</ele><time>2026-04-12T09:15:17.009Z</time></trkpt><trkpt lat="43.0264483" lon="13.4092485"><ele>539.0</ele><time>2026-04-12T09:15:18.028Z</time></trkpt><trkpt lat="43.0265389" lon="13.4093925"><ele>539.0</ele><time>2026-04-12T09:15:19.048Z</time></trkpt><trkpt lat="43.0266091" lon="13.4095322"><ele>539.0</ele><time>2026-04-12T09:15:20.037Z</time></trkpt><trkpt lat="43.0266788" lon="13.4096682"><ele>539.0</ele><time>2026-04-12T09:15:21.053Z</time></trkpt><trkpt lat="43.0267471" lon="13.4097895"><ele>538.0</ele><time>2026-04-12T09:15:22.061Z</time></trkpt><trkpt lat="43.0267843" lon="13.4099377"><ele>537.0</ele><time>2026-04-12T09:15:23.042Z</time></trkpt><trkpt lat="43.0268069" lon="13.4100884"><ele>536.0</ele><time>2026-04-12T09:15:24.054Z</time></trkpt><trkpt lat="43.0267993" lon="13.4102423"><ele>535.0</ele><time>2026-04-12T09:15:25.07Z</time></trkpt><trkpt lat="43.0267623" lon="13.4104026"><ele>532.5</ele><time>2026-04-12T09:15:26.041Z</time></trkpt><trkpt lat="43.0267091" lon="13.4105785"><ele>530.0</ele><time>2026-04-12T09:15:27.038Z</time></trkpt><trkpt lat="43.0266593" lon="13.4107524"><ele>527.5</ele><time>2026-04-12T09:15:28.049Z</time></trkpt><trkpt lat="43.0266014" lon="13.4109208"><ele>525.0</ele><time>2026-04-12T09:15:29.052Z</time></trkpt><trkpt lat="43.0265667" lon="13.4110855"><ele>524.75</ele><time>2026-04-12T09:15:30.032Z</time></trkpt><trkpt lat="43.0265563" lon="13.4112389"><ele>524.5</ele><time>2026-04-12T09:15:31.04Z</time></trkpt><trkpt lat="43.0265735" lon="13.4114008"><ele>524.25</ele><time>2026-04-12T09:15:31.995Z</time></trkpt><trkpt lat="43.0266119" lon="13.4115627"><ele>524.0</ele><time>2026-04-12T09:15:33.042Z</time></trkpt><trkpt lat="43.0266773" lon="13.4117262"><ele>524.0</ele><time>2026-04-12T09:15:34.038Z</time></trkpt><trkpt lat="43.0267535" lon="13.4118836"><ele>524.0</ele><time>2026-04-12T09:15:35.045Z</time></trkpt><trkpt lat="43.0268408" lon="13.4120503"><ele>524.0</ele><time>2026-04-12T09:15:36.056Z</time></trkpt><trkpt lat="43.0269254" lon="13.4122168"><ele>524.0</ele><time>2026-04-12T09:15:37.042Z</time></trkpt><trkpt lat="43.027004" lon="13.4123651"><ele>523.0</ele><time>2026-04-12T09:15:38.045Z</time></trkpt><trkpt lat="43.027047" lon="13.4125308"><ele>522.0</ele><time>2026-04-12T09:15:39.047Z</time></trkpt><trkpt lat="43.027064" lon="13.4127067"><ele>521.0</ele><time>2026-04-12T09:15:40.033Z</time></trkpt><trkpt lat="43.0270718" lon="13.4129046"><ele>520.0</ele><time>2026-04-12T09:15:41.051Z</time></trkpt><trkpt lat="43.0270745" lon="13.4130821"><ele>518.25</ele><time>2026-04-12T09:15:42.031Z</time></trkpt><trkpt lat="43.0270965" lon="13.4132493"><ele>516.5</ele><time>2026-04-12T09:15:43.029Z</time></trkpt><trkpt lat="43.0271261" lon="13.4134156"><ele>514.75</ele><time>2026-04-12T09:15:44.032Z</time></trkpt><trkpt lat="43.027159" lon="13.41357"><ele>513.0</ele><time>2026-04-12T09:15:45.044Z</time></trkpt><trkpt lat="43.0272073" lon="13.4137243"><ele>511.75</ele><time>2026-04-12T09:15:46.024Z</time></trkpt><trkpt lat="43.0272365" lon="13.4138726"><ele>510.5</ele><time>2026-04-12T09:15:47.033Z</time></trkpt><trkpt lat="43.0272367" lon="13.4140331"><ele>509.25</ele><time>2026-04-12T09:15:48.022Z</time></trkpt><trkpt lat="43.0272058" lon="13.4142013"><ele>508.0</ele><time>2026-04-12T09:15:49.028Z</time></trkpt><trkpt lat="43.027156" lon="13.4143813"><ele>508.0</ele><time>2026-04-12T09:15:50.032Z</time></trkpt><trkpt lat="43.0270901" lon="13.4145526"><ele>508.0</ele><time>2026-04-12T09:15:51.032Z</time></trkpt><trkpt lat="43.0270052" lon="13.4146874"><ele>508.0</ele><time>2026-04-12T09:15:52.029Z</time></trkpt><trkpt lat="43.0269316" lon="13.4148118"><ele>508.0</ele><time>2026-04-12T09:15:53.033Z</time></trkpt><trkpt lat="43.0268791" lon="13.4149465"><ele>508.0</ele><time>2026-04-12T09:15:54.048Z</time></trkpt><trkpt lat="43.0268387" lon="13.4150696"><ele>507.99999999999994</ele><time>2026-04-12T09:15:55.019Z</time></trkpt><trkpt lat="43.0268159" lon="13.4151792"><ele>507.99999999999994</ele><time>2026-04-12T09:15:56.036Z</time></trkpt><trkpt lat="43.0268046" lon="13.4152758"><ele>508.0</ele><time>2026-04-12T09:15:57.048Z</time></trkpt><trkpt lat="43.0267589" lon="13.4154134"><ele>508.0</ele><time>2026-04-12T09:15:59.055Z</time></trkpt><trkpt lat="43.0266862" lon="13.4155051"><ele>503.28571428571433</ele><time>2026-04-12T09:16:01.024Z</time></trkpt><trkpt lat="43.0266187" lon="13.4155521"><ele>498.57142857142856</ele><time>2026-04-12T09:16:02.028Z</time></trkpt><trkpt lat="43.0265511" lon="13.415602"><ele>493.8571428571429</ele><time>2026-04-12T09:16:03.032Z</time></trkpt><trkpt lat="43.0264896" lon="13.4156491"><ele>489.14285714285717</ele><time>2026-04-12T09:16:04.001Z</time></trkpt><trkpt lat="43.0264266" lon="13.4157021"><ele>484.42857142857144</ele><time>2026-04-12T09:16:05.036Z</time></trkpt><trkpt lat="43.0263612" lon="13.4157254"><ele>479.7142857142857</ele><time>2026-04-12T09:16:06.021Z</time></trkpt><trkpt lat="43.0262957" lon="13.415729"><ele>475.0</ele><time>2026-04-12T09:16:07.047Z</time></trkpt><trkpt lat="43.02623" lon="13.4157388"><ele>475.00000000000006</ele><time>2026-04-12T09:16:08.045Z</time></trkpt><trkpt lat="43.0261651" lon="13.4157707"><ele>475.0</ele><time>2026-04-12T09:16:09.034Z</time></trkpt><trkpt lat="43.0260885" lon="13.4158026"><ele>475.0</ele><time>2026-04-12T09:16:10.048Z</time></trkpt><trkpt lat="43.0260068" lon="13.4158306"><ele>475.0</ele><time>2026-04-12T09:16:11.046Z</time></trkpt><trkpt lat="43.0259198" lon="13.4158591"><ele>475.00000000000006</ele><time>2026-04-12T09:16:12.039Z</time></trkpt><trkpt lat="43.0258248" lon="13.4158721"><ele>475.0</ele><time>2026-04-12T09:16:13.01Z</time></trkpt><trkpt lat="43.0257237" lon="13.4158837"><ele>470.2</ele><time>2026-04-12T09:16:14.048Z</time></trkpt><trkpt lat="43.0256409" lon="13.415921"><ele>465.4</ele><time>2026-04-12T09:16:15.045Z</time></trkpt><trkpt lat="43.0255632" lon="13.4159629"><ele>460.6</ele><time>2026-04-12T09:16:16.048Z</time></trkpt><trkpt lat="43.025494" lon="13.4160125"><ele>455.8</ele><time>2026-04-12T09:16:17.052Z</time></trkpt><trkpt lat="43.0254131" lon="13.4160779"><ele>451.0</ele><time>2026-04-12T09:16:18.043Z</time></trkpt><trkpt lat="43.0253214" lon="13.4161583"><ele>451.0</ele><time>2026-04-12T09:16:19.057Z</time></trkpt><trkpt lat="43.0252349" lon="13.4162369"><ele>451.0</ele><time>2026-04-12T09:16:20.053Z</time></trkpt><trkpt lat="43.0251437" lon="13.4163205"><ele>451.0</ele><time>2026-04-12T09:16:21.05Z</time></trkpt><trkpt lat="43.0250602" lon="13.4164013"><ele>451.0</ele><time>2026-04-12T09:16:22.04Z</time></trkpt><trkpt lat="43.0249791" lon="13.416456"><ele>451.0</ele><time>2026-04-12T09:16:23.042Z</time></trkpt><trkpt lat="43.0248954" lon="13.416503"><ele>446.0</ele><time>2026-04-12T09:16:24.054Z</time></trkpt><trkpt lat="43.0248168" lon="13.4165335"><ele>441.0</ele><time>2026-04-12T09:16:25.051Z</time></trkpt><trkpt lat="43.0247316" lon="13.416561"><ele>436.0</ele><time>2026-04-12T09:16:26.044Z</time></trkpt><trkpt lat="43.0246691" lon="13.4165811"><ele>431.0</ele><time>2026-04-12T09:16:27.032Z</time></trkpt><trkpt lat="43.0245654" lon="13.4166209"><ele>426.0</ele><time>2026-04-12T09:16:29.023Z</time></trkpt><trkpt lat="43.0244452" lon="13.4166542"><ele>426.0</ele><time>2026-04-12T09:16:31.038Z</time></trkpt><trkpt lat="43.0243754" lon="13.4166665"><ele>426.0</ele><time>2026-04-12T09:16:32.056Z</time></trkpt><trkpt lat="43.0243017" lon="13.416682"><ele>426.0</ele><time>2026-04-12T09:16:33.049Z</time></trkpt><trkpt lat="43.0242308" lon="13.4166936"><ele>426.0</ele><time>2026-04-12T09:16:34.031Z</time></trkpt><trkpt lat="43.0241195" lon="13.4167193"><ele>426.0</ele><time>2026-04-12T09:16:36.036Z</time></trkpt><trkpt lat="43.0240391" lon="13.4167745"><ele>426.0</ele><time>2026-04-12T09:16:38.071Z</time></trkpt><trkpt lat="43.0240779" lon="13.4168932"><ele>426.0</ele><time>2026-04-12T09:16:42.006Z</time></trkpt><trkpt lat="43.0241377" lon="13.4169303"><ele>426.0</ele><time>2026-04-12T09:16:42.984Z</time></trkpt><trkpt lat="43.0241921" lon="13.4170104"><ele>426.0</ele><time>2026-04-12T09:16:44.029Z</time></trkpt><trkpt lat="43.0242397" lon="13.4171152"><ele>426.0</ele><time>2026-04-12T09:16:45.039Z</time></trkpt><trkpt lat="43.0242949" lon="13.4172129"><ele>426.0</ele><time>2026-04-12T09:16:46.038Z</time></trkpt><trkpt lat="43.024346" lon="13.4172906"><ele>426.0</ele><time>2026-04-12T09:16:47.041Z</time></trkpt><trkpt lat="43.0243954" lon="13.4173482"><ele>425.5</ele><time>2026-04-12T09:16:48.032Z</time></trkpt><trkpt lat="43.0244671" lon="13.4173727"><ele>425.0</ele><time>2026-04-12T09:16:49.038Z</time></trkpt><trkpt lat="43.024583" lon="13.4174172"><ele>424.5</ele><time>2026-04-12T09:16:51.025Z</time></trkpt><trkpt lat="43.0246478" lon="13.4174519"><ele>424.0</ele><time>2026-04-12T09:16:52.029Z</time></trkpt><trkpt lat="43.0247025" lon="13.4174958"><ele>423.5</ele><time>2026-04-12T09:16:53.03Z</time></trkpt><trkpt lat="43.0247746" lon="13.4176156"><ele>423.0</ele><time>2026-04-12T09:16:55.01Z</time></trkpt><trkpt lat="43.0248673" lon="13.4177405"><ele>423.0</ele><time>2026-04-12T09:16:57.042Z</time></trkpt><trkpt lat="43.024961" lon="13.417835"><ele>423.0</ele><time>2026-04-12T09:16:59.022Z</time></trkpt><trkpt lat="43.0250146" lon="13.4179116"><ele>423.0</ele><time>2026-04-12T09:17:01.031Z</time></trkpt><trkpt lat="43.0250127" lon="13.4180036"><ele>423.0</ele><time>2026-04-12T09:17:03.037Z</time></trkpt><trkpt lat="43.0249593" lon="13.4181234"><ele>423.0</ele><time>2026-04-12T09:17:05.037Z</time></trkpt><trkpt lat="43.0249181" lon="13.4182007"><ele>423.0</ele><time>2026-04-12T09:17:07.043Z</time></trkpt><trkpt lat="43.0249017" lon="13.4182931"><ele>422.0</ele><time>2026-04-12T09:17:09.028Z</time></trkpt><trkpt lat="43.0248538" lon="13.4183591"><ele>421.0</ele><time>2026-04-12T09:17:11.03Z</time></trkpt><trkpt lat="43.0247371" lon="13.4184137"><ele>420.0</ele><time>2026-04-12T09:17:13.032Z</time></trkpt><trkpt lat="43.0246717" lon="13.4184352"><ele>419.0</ele><time>2026-04-12T09:17:14.041Z</time></trkpt><trkpt lat="43.0245715" lon="13.4184856"><ele>418.0</ele><time>2026-04-12T09:17:16.035Z</time></trkpt><trkpt lat="43.0245145" lon="13.4185273"><ele>417.0</ele><time>2026-04-12T09:17:18.044Z</time></trkpt><trkpt lat="43.0244477" lon="13.4186136"><ele>417.0</ele><time>2026-04-12T09:17:20.006Z</time></trkpt><trkpt lat="43.0243378" lon="13.418703"><ele>417.0</ele><time>2026-04-12T09:17:22.028Z</time></trkpt><trkpt lat="43.0242573" lon="13.4187615"><ele>417.0</ele><time>2026-04-12T09:17:23.031Z</time></trkpt><trkpt lat="43.0241941" lon="13.4188082"><ele>417.0</ele><time>2026-04-12T09:17:24.037Z</time></trkpt><trkpt lat="43.0241026" lon="13.4188404"><ele>417.0</ele><time>2026-04-12T09:17:26.028Z</time></trkpt><trkpt lat="43.0240162" lon="13.4188775"><ele>412.1666666666667</ele><time>2026-04-12T09:17:28.027Z</time></trkpt><trkpt lat="43.0239173" lon="13.4189283"><ele>407.33333333333337</ele><time>2026-04-12T09:17:30.031Z</time></trkpt><trkpt lat="43.0238517" lon="13.4189918"><ele>402.5</ele><time>2026-04-12T09:17:31.023Z</time></trkpt><trkpt lat="43.0237896" lon="13.4190339"><ele>397.6666666666667</ele><time>2026-04-12T09:17:32.035Z</time></trkpt><trkpt lat="43.0237341" lon="13.4190754"><ele>392.83333333333337</ele><time>2026-04-12T09:17:33.019Z</time></trkpt><trkpt lat="43.0236781" lon="13.4191281"><ele>388.0</ele><time>2026-04-12T09:17:34.041Z</time></trkpt><trkpt lat="43.0235538" lon="13.419186"><ele>388.00000000000006</ele><time>2026-04-12T09:17:36.032Z</time></trkpt><trkpt lat="43.0234968" lon="13.4192233"><ele>388.0</ele><time>2026-04-12T09:17:37.035Z</time></trkpt><trkpt lat="43.0234388" lon="13.4192679"><ele>388.0</ele><time>2026-04-12T09:17:38.056Z</time></trkpt><trkpt lat="43.0233847" lon="13.4193136"><ele>388.0</ele><time>2026-04-12T09:17:39.037Z</time></trkpt><trkpt lat="43.0232867" lon="13.4193637"><ele>388.00000000000006</ele><time>2026-04-12T09:17:41.056Z</time></trkpt><trkpt lat="43.0232624" lon="13.4194622"><ele>388.0</ele><time>2026-04-12T09:17:44.011Z</time></trkpt><trkpt lat="43.0232684" lon="13.4196165"><ele>384.85714285714283</ele><time>2026-04-12T09:17:46.035Z</time></trkpt><trkpt lat="43.023267" lon="13.4197093"><ele>381.7142857142857</ele><time>2026-04-12T09:17:47.038Z</time></trkpt><trkpt lat="43.0232714" lon="13.4198039"><ele>378.57142857142856</ele><time>2026-04-12T09:17:48.057Z</time></trkpt><trkpt lat="43.0232832" lon="13.419912"><ele>375.42857142857144</ele><time>2026-04-12T09:17:49.029Z</time></trkpt><trkpt lat="43.0232859" lon="13.4200128"><ele>372.28571428571433</ele><time>2026-04-12T09:17:50.028Z</time></trkpt><trkpt lat="43.0232628" lon="13.4200977"><ele>369.14285714285717</ele><time>2026-04-12T09:17:51.045Z</time></trkpt><trkpt lat="43.023218" lon="13.4201589"><ele>366.0</ele><time>2026-04-12T09:17:52.032Z</time></trkpt><trkpt lat="43.0231654" lon="13.4202205"><ele>366.0</ele><time>2026-04-12T09:17:53.036Z</time></trkpt><trkpt lat="43.023109" lon="13.4202911"><ele>366.0</ele><time>2026-04-12T09:17:54.044Z</time></trkpt><trkpt lat="43.0230536" lon="13.4203609"><ele>366.0</ele><time>2026-04-12T09:17:55.035Z</time></trkpt><trkpt lat="43.0229955" lon="13.4204348"><ele>366.0</ele><time>2026-04-12T09:17:56.018Z</time></trkpt><trkpt lat="43.0229328" lon="13.4205055"><ele>366.0</ele><time>2026-04-12T09:17:57.033Z</time></trkpt><trkpt lat="43.0228633" lon="13.4205726"><ele>366.0</ele><time>2026-04-12T09:17:58.046Z</time></trkpt><trkpt lat="43.0227943" lon="13.4206259"><ele>365.8333333333333</ele><time>2026-04-12T09:17:59.047Z</time></trkpt><trkpt lat="43.0227254" lon="13.4206859"><ele>365.6666666666667</ele><time>2026-04-12T09:18:00.048Z</time></trkpt><trkpt lat="43.0226471" lon="13.4207316"><ele>365.5</ele><time>2026-04-12T09:18:01.04Z</time></trkpt><trkpt lat="43.0225597" lon="13.4207858"><ele>365.33333333333337</ele><time>2026-04-12T09:18:02.048Z</time></trkpt><trkpt lat="43.0224782" lon="13.4208511"><ele>365.1666666666667</ele><time>2026-04-12T09:18:03.054Z</time></trkpt><trkpt lat="43.0224065" lon="13.4209086"><ele>365.0</ele><time>2026-04-12T09:18:04.024Z</time></trkpt><trkpt lat="43.0223461" lon="13.420949"><ele>362.6666666666667</ele><time>2026-04-12T09:18:05.054Z</time></trkpt><trkpt lat="43.0222882" lon="13.420992"><ele>360.33333333333337</ele><time>2026-04-12T09:18:06.023Z</time></trkpt><trkpt lat="43.0222087" lon="13.4211036"><ele>358.0</ele><time>2026-04-12T09:18:08.055Z</time></trkpt><trkpt lat="43.0221679" lon="13.4211917"><ele>355.6666666666667</ele><time>2026-04-12T09:18:09.058Z</time></trkpt><trkpt lat="43.0221216" lon="13.4212956"><ele>353.3333333333333</ele><time>2026-04-12T09:18:10.038Z</time></trkpt><trkpt lat="43.0220821" lon="13.4213817"><ele>351.0</ele><time>2026-04-12T09:18:11.054Z</time></trkpt><trkpt lat="43.0220469" lon="13.4214722"><ele>350.6666666666667</ele><time>2026-04-12T09:18:12.045Z</time></trkpt><trkpt lat="43.022011" lon="13.4215555"><ele>350.3333333333333</ele><time>2026-04-12T09:18:13.057Z</time></trkpt><trkpt lat="43.0219862" lon="13.4216442"><ele>350.0</ele><time>2026-04-12T09:18:14.058Z</time></trkpt><trkpt lat="43.0219616" lon="13.421831"><ele>349.66666666666663</ele><time>2026-04-12T09:18:16.047Z</time></trkpt><trkpt lat="43.0219567" lon="13.421947"><ele>349.3333333333333</ele><time>2026-04-12T09:18:17.046Z</time></trkpt><trkpt lat="43.0219463" lon="13.4220471"><ele>349.0</ele><time>2026-04-12T09:18:18.047Z</time></trkpt><trkpt lat="43.0219236" lon="13.422165"><ele>348.3333333333333</ele><time>2026-04-12T09:18:19.067Z</time></trkpt><trkpt lat="43.0219026" lon="13.422285"><ele>347.66666666666663</ele><time>2026-04-12T09:18:20.033Z</time></trkpt><trkpt lat="43.0218734" lon="13.4223803"><ele>347.0</ele><time>2026-04-12T09:18:21.041Z</time></trkpt><trkpt lat="43.0218058" lon="13.4225055"><ele>346.3333333333333</ele><time>2026-04-12T09:18:23.049Z</time></trkpt><trkpt lat="43.0217468" lon="13.4225415"><ele>345.6666666666667</ele><time>2026-04-12T09:18:24.042Z</time></trkpt><trkpt lat="43.0216686" lon="13.4225759"><ele>345.0</ele><time>2026-04-12T09:18:25.012Z</time></trkpt><trkpt lat="43.0216005" lon="13.4226056"><ele>342.1666666666667</ele><time>2026-04-12T09:18:26.036Z</time></trkpt><trkpt lat="43.0215228" lon="13.4226384"><ele>339.3333333333333</ele><time>2026-04-12T09:18:27.028Z</time></trkpt><trkpt lat="43.0214419" lon="13.4226761"><ele>336.5</ele><time>2026-04-12T09:18:28.045Z</time></trkpt><trkpt lat="43.0213656" lon="13.4227172"><ele>333.66666666666663</ele><time>2026-04-12T09:18:29.024Z</time></trkpt><trkpt lat="43.0212891" lon="13.4227559"><ele>330.8333333333333</ele><time>2026-04-12T09:18:30.041Z</time></trkpt><trkpt lat="43.0212177" lon="13.4228028"><ele>328.0</ele><time>2026-04-12T09:18:30.984Z</time></trkpt><trkpt lat="43.0211506" lon="13.4228392"><ele>328.0</ele><time>2026-04-12T09:18:32.032Z</time></trkpt><trkpt lat="43.0210314" lon="13.4228708"><ele>328.0</ele><time>2026-04-12T09:18:34.036Z</time></trkpt><trkpt lat="43.0209236" lon="13.4228159"><ele>328.0</ele><time>2026-04-12T09:18:36.059Z</time></trkpt><trkpt lat="43.0208734" lon="13.4227517"><ele>328.0</ele><time>2026-04-12T09:18:37.06Z</time></trkpt><trkpt lat="43.0208278" lon="13.422689"><ele>328.0</ele><time>2026-04-12T09:18:38.042Z</time></trkpt><trkpt lat="43.0207552" lon="13.4225716"><ele>325.79999999999995</ele><time>2026-04-12T09:18:40.053Z</time></trkpt><trkpt lat="43.0207527" lon="13.4224354"><ele>323.59999999999997</ele><time>2026-04-12T09:18:42.043Z</time></trkpt><trkpt lat="43.0207395" lon="13.4223316"><ele>321.4</ele><time>2026-04-12T09:18:44.022Z</time></trkpt><trkpt lat="43.020654" lon="13.4223345"><ele>319.2</ele><time>2026-04-12T09:18:45.983Z</time></trkpt><trkpt lat="43.0205628" lon="13.4224161"><ele>317.0</ele><time>2026-04-12T09:18:47.996Z</time></trkpt><trkpt lat="43.0204896" lon="13.4225431"><ele>317.0</ele><time>2026-04-12T09:18:49.984Z</time></trkpt><trkpt lat="43.020448" lon="13.4226173"><ele>317.0</ele><time>2026-04-12T09:18:51.02Z</time></trkpt><trkpt lat="43.0204074" lon="13.4227076"><ele>317.0</ele><time>2026-04-12T09:18:52.02Z</time></trkpt><trkpt lat="43.020351" lon="13.4228012"><ele>317.0</ele><time>2026-04-12T09:18:53.035Z</time></trkpt><trkpt lat="43.0202918" lon="13.4229021"><ele>317.0</ele><time>2026-04-12T09:18:54.033Z</time></trkpt><trkpt lat="43.020244" lon="13.4230081"><ele>317.0</ele><time>2026-04-12T09:18:55.032Z</time></trkpt><trkpt lat="43.0202016" lon="13.4231004"><ele>316.5</ele><time>2026-04-12T09:18:56.022Z</time></trkpt><trkpt lat="43.0201584" lon="13.423201"><ele>316.0</ele><time>2026-04-12T09:18:57.042Z</time></trkpt><trkpt lat="43.0200932" lon="13.4232857"><ele>315.5</ele><time>2026-04-12T09:18:58.043Z</time></trkpt><trkpt lat="43.020027" lon="13.4233712"><ele>315.0</ele><time>2026-04-12T09:18:59.064Z</time></trkpt><trkpt lat="43.0199625" lon="13.4234584"><ele>314.5</ele><time>2026-04-12T09:19:00.048Z</time></trkpt><trkpt lat="43.0198977" lon="13.4235433"><ele>314.0</ele><time>2026-04-12T09:19:01.005Z</time></trkpt><trkpt lat="43.0198295" lon="13.4236235"><ele>312.83333333333337</ele><time>2026-04-12T09:19:02.034Z</time></trkpt><trkpt lat="43.0197648" lon="13.4237089"><ele>311.6666666666667</ele><time>2026-04-12T09:19:03.043Z</time></trkpt><trkpt lat="43.0196957" lon="13.4237922"><ele>310.5</ele><time>2026-04-12T09:19:04.04Z</time></trkpt><trkpt lat="43.0196352" lon="13.4238781"><ele>309.3333333333333</ele><time>2026-04-12T09:19:05.049Z</time></trkpt><trkpt lat="43.019573" lon="13.4239595"><ele>308.16666666666663</ele><time>2026-04-12T09:19:05.995Z</time></trkpt><trkpt lat="43.0195131" lon="13.4240432"><ele>307.0</ele><time>2026-04-12T09:19:07.048Z</time></trkpt><trkpt lat="43.0194516" lon="13.4241414"><ele>306.66666666666663</ele><time>2026-04-12T09:19:08.055Z</time></trkpt><trkpt lat="43.0193916" lon="13.4242424"><ele>306.3333333333333</ele><time>2026-04-12T09:19:09.05Z</time></trkpt><trkpt lat="43.0193377" lon="13.4243417"><ele>306.0</ele><time>2026-04-12T09:19:10.003Z</time></trkpt><trkpt lat="43.019282" lon="13.424435"><ele>305.6666666666667</ele><time>2026-04-12T09:19:10.983Z</time></trkpt><trkpt lat="43.0192342" lon="13.4245248"><ele>305.33333333333337</ele><time>2026-04-12T09:19:12.056Z</time></trkpt><trkpt lat="43.0192002" lon="13.4246006"><ele>305.0</ele><time>2026-04-12T09:19:13.059Z</time></trkpt><trkpt lat="43.0191755" lon="13.4246803"><ele>305.0</ele><time>2026-04-12T09:19:14.042Z</time></trkpt><trkpt lat="43.0191509" lon="13.4247633"><ele>305.0</ele><time>2026-04-12T09:19:16.049Z</time></trkpt><trkpt lat="43.0191028" lon="13.424695"><ele>305.0</ele><time>2026-04-12T09:19:21.052Z</time></trkpt><trkpt lat="43.019086" lon="13.424533"><ele>305.0</ele><time>2026-04-12T09:19:23.045Z</time></trkpt><trkpt lat="43.0190611" lon="13.4244399"><ele>305.0</ele><time>2026-04-12T09:19:24.041Z</time></trkpt><trkpt lat="43.0190328" lon="13.4242959"><ele>305.0</ele><time>2026-04-12T09:19:25.053Z</time></trkpt><trkpt lat="43.019" lon="13.4241519"><ele>305.75</ele><time>2026-04-12T09:19:26.053Z</time></trkpt><trkpt lat="43.0189709" lon="13.4239864"><ele>306.5</ele><time>2026-04-12T09:19:27.043Z</time></trkpt><trkpt lat="43.0189151" lon="13.4238308"><ele>307.25</ele><time>2026-04-12T09:19:28.047Z</time></trkpt><trkpt lat="43.0188681" lon="13.4236779"><ele>308.0</ele><time>2026-04-12T09:19:29.036Z</time></trkpt><trkpt lat="43.0188209" lon="13.4235471"><ele>308.0</ele><time>2026-04-12T09:19:30.06Z</time></trkpt><trkpt lat="43.0187824" lon="13.4234347"><ele>308.0</ele><time>2026-04-12T09:19:31.037Z</time></trkpt><trkpt lat="43.0187341" lon="13.423361"><ele>308.0</ele><time>2026-04-12T09:19:32.04Z</time></trkpt><trkpt lat="43.018672" lon="13.4233268"><ele>308.0</ele><time>2026-04-12T09:19:33.04Z</time></trkpt><trkpt lat="43.0185932" lon="13.4233523"><ele>308.0</ele><time>2026-04-12T09:19:35.018Z</time></trkpt><trkpt lat="43.0184779" lon="13.4233939"><ele>308.0</ele><time>2026-04-12T09:19:37.036Z</time></trkpt><trkpt lat="43.0183795" lon="13.4233277"><ele>308.0</ele><time>2026-04-12T09:19:39.024Z</time></trkpt><trkpt lat="43.018309" lon="13.4231806"><ele>308.0</ele><time>2026-04-12T09:19:41.037Z</time></trkpt><trkpt lat="43.0182735" lon="13.4230469"><ele>308.0</ele><time>2026-04-12T09:19:42.999Z</time></trkpt><trkpt lat="43.0182075" lon="13.4229689"><ele>308.0</ele><time>2026-04-12T09:19:45.038Z</time></trkpt><trkpt lat="43.0181458" lon="13.4228293"><ele>308.0</ele><time>2026-04-12T09:19:47.011Z</time></trkpt><trkpt lat="43.0180894" lon="13.4227139"><ele>308.0</ele><time>2026-04-12T09:19:49.034Z</time></trkpt><trkpt lat="43.018064" lon="13.4225911"><ele>308.0</ele><time>2026-04-12T09:19:51.031Z</time></trkpt><trkpt lat="43.0180163" lon="13.4224786"><ele>308.0</ele><time>2026-04-12T09:19:53.031Z</time></trkpt><trkpt lat="43.0179809" lon="13.422376"><ele>308.0</ele><time>2026-04-12T09:19:56.041Z</time></trkpt><trkpt lat="43.017984" lon="13.4222782"><ele>308.0</ele><time>2026-04-12T09:19:58.03Z</time></trkpt><trkpt lat="43.0180153" lon="13.4222022"><ele>308.0</ele><time>2026-04-12T09:19:59.027Z</time></trkpt><trkpt lat="43.0180222" lon="13.422056"><ele>307.8</ele><time>2026-04-12T09:20:01.036Z</time></trkpt><trkpt lat="43.0179952" lon="13.4219482"><ele>307.6</ele><time>2026-04-12T09:20:02.032Z</time></trkpt><trkpt lat="43.0179366" lon="13.4218238"><ele>307.4</ele><time>2026-04-12T09:20:03.013Z</time></trkpt><trkpt lat="43.0178721" lon="13.4216941"><ele>307.2</ele><time>2026-04-12T09:20:04.032Z</time></trkpt><trkpt lat="43.0178091" lon="13.4215719"><ele>307.0</ele><time>2026-04-12T09:20:05.052Z</time></trkpt><trkpt lat="43.0177478" lon="13.4214411"><ele>307.75</ele><time>2026-04-12T09:20:06.036Z</time></trkpt><trkpt lat="43.0176879" lon="13.421307"><ele>308.5</ele><time>2026-04-12T09:20:07.033Z</time></trkpt><trkpt lat="43.0176297" lon="13.42117"><ele>309.25</ele><time>2026-04-12T09:20:08.025Z</time></trkpt><trkpt lat="43.0175743" lon="13.4210392"><ele>310.0</ele><time>2026-04-12T09:20:08.984Z</time></trkpt><trkpt lat="43.0175248" lon="13.4209022"><ele>310.0</ele><time>2026-04-12T09:20:09.994Z</time></trkpt><trkpt lat="43.0174705" lon="13.420777"><ele>310.0</ele><time>2026-04-12T09:20:10.973Z</time></trkpt><trkpt lat="43.0174178" lon="13.4206514"><ele>310.0</ele><time>2026-04-12T09:20:12.004Z</time></trkpt><trkpt lat="43.0173669" lon="13.4205382"><ele>310.0</ele><time>2026-04-12T09:20:13.016Z</time></trkpt><trkpt lat="43.017319" lon="13.4204627"><ele>310.0</ele><time>2026-04-12T09:20:14.042Z</time></trkpt><trkpt lat="43.0172686" lon="13.4203052"><ele>310.0</ele><time>2026-04-12T09:20:15.984Z</time></trkpt><trkpt lat="43.0172746" lon="13.4202153"><ele>310.0</ele><time>2026-04-12T09:20:16.983Z</time></trkpt><trkpt lat="43.0172862" lon="13.4201244"><ele>310.0</ele><time>2026-04-12T09:20:18.046Z</time></trkpt><trkpt lat="43.0173209" lon="13.4200072"><ele>310.0</ele><time>2026-04-12T09:20:20.025Z</time></trkpt><trkpt lat="43.0173709" lon="13.4198932"><ele>310.0</ele><time>2026-04-12T09:20:22.048Z</time></trkpt><trkpt lat="43.0174232" lon="13.4198001"><ele>310.0</ele><time>2026-04-12T09:20:24.029Z</time></trkpt><trkpt lat="43.017346" lon="13.4197252"><ele>311.3333333333333</ele><time>2026-04-12T09:20:27.039Z</time></trkpt><trkpt lat="43.0173502" lon="13.4195555"><ele>312.66666666666663</ele><time>2026-04-12T09:20:29.045Z</time></trkpt><trkpt lat="43.0173625" lon="13.4194683"><ele>314.0</ele><time>2026-04-12T09:20:29.997Z</time></trkpt><trkpt lat="43.0173541" lon="13.4193672"><ele>315.3333333333333</ele><time>2026-04-12T09:20:31.031Z</time></trkpt><trkpt lat="43.0173524" lon="13.419278"><ele>316.6666666666667</ele><time>2026-04-12T09:20:32.029Z</time></trkpt><trkpt lat="43.0173489" lon="13.4191857"><ele>318.0</ele><time>2026-04-12T09:20:33.041Z</time></trkpt><trkpt lat="43.0173527" lon="13.419036"><ele>318.0</ele><time>2026-04-12T09:20:35.032Z</time></trkpt><trkpt lat="43.0173404" lon="13.4188554"><ele>318.0</ele><time>2026-04-12T09:20:37.049Z</time></trkpt><trkpt lat="43.0173193" lon="13.4187557"><ele>318.0</ele><time>2026-04-12T09:20:38.045Z</time></trkpt><trkpt lat="43.0172741" lon="13.4186481"><ele>318.0</ele><time>2026-04-12T09:20:39.055Z</time></trkpt><trkpt lat="43.0172488" lon="13.4185493"><ele>318.0</ele><time>2026-04-12T09:20:40.073Z</time></trkpt><trkpt lat="43.0172356" lon="13.4184387"><ele>320.3333333333333</ele><time>2026-04-12T09:20:41.033Z</time></trkpt><trkpt lat="43.0172108" lon="13.418323"><ele>322.6666666666667</ele><time>2026-04-12T09:20:42.046Z</time></trkpt><trkpt lat="43.0171795" lon="13.4182207"><ele>325.0</ele><time>2026-04-12T09:20:43.039Z</time></trkpt><trkpt lat="43.0171525" lon="13.4181226"><ele>327.33333333333337</ele><time>2026-04-12T09:20:44.042Z</time></trkpt><trkpt lat="43.0171218" lon="13.4180303"><ele>329.6666666666667</ele><time>2026-04-12T09:20:45.028Z</time></trkpt><trkpt lat="43.0170383" lon="13.4179268"><ele>332.0</ele><time>2026-04-12T09:20:47.029Z</time></trkpt><trkpt lat="43.0169777" lon="13.4178786"><ele>333.33333333333337</ele><time>2026-04-12T09:20:49.033Z</time></trkpt><trkpt lat="43.0169216" lon="13.4178048"><ele>334.6666666666667</ele><time>2026-04-12T09:20:51.04Z</time></trkpt><trkpt lat="43.0168586" lon="13.4176337"><ele>336.0</ele><time>2026-04-12T09:20:53.035Z</time></trkpt><trkpt lat="43.0168114" lon="13.4175275"><ele>337.3333333333333</ele><time>2026-04-12T09:20:54.016Z</time></trkpt><trkpt lat="43.0167861" lon="13.4174396"><ele>338.66666666666663</ele><time>2026-04-12T09:20:55.044Z</time></trkpt><trkpt lat="43.016745" lon="13.4173603"><ele>340.0</ele><time>2026-04-12T09:20:56.037Z</time></trkpt><trkpt lat="43.0167098" lon="13.4172413"><ele>340.0</ele><time>2026-04-12T09:20:58.036Z</time></trkpt><trkpt lat="43.0166572" lon="13.4171595"><ele>340.0</ele><time>2026-04-12T09:21:00.055Z</time></trkpt><trkpt lat="43.0166006" lon="13.417051"><ele>340.0</ele><time>2026-04-12T09:21:02.065Z</time></trkpt><trkpt lat="43.0165393" lon="13.4169906"><ele>340.0</ele><time>2026-04-12T09:21:03.041Z</time></trkpt><trkpt lat="43.0164564" lon="13.4169109"><ele>340.0</ele><time>2026-04-12T09:21:05.061Z</time></trkpt><trkpt lat="43.0164025" lon="13.4168654"><ele>340.0</ele><time>2026-04-12T09:21:06.033Z</time></trkpt><trkpt lat="43.0163261" lon="13.4167411"><ele>341.4</ele><time>2026-04-12T09:21:08.041Z</time></trkpt><trkpt lat="43.0162699" lon="13.4165962"><ele>342.8</ele><time>2026-04-12T09:21:10.062Z</time></trkpt><trkpt lat="43.0162276" lon="13.4165245"><ele>344.20000000000005</ele><time>2026-04-12T09:21:10.99Z</time></trkpt><trkpt lat="43.0161348" lon="13.4164822"><ele>345.6</ele><time>2026-04-12T09:21:13.043Z</time></trkpt><trkpt lat="43.0160389" lon="13.4164863"><ele>347.0</ele><time>2026-04-12T09:21:15.008Z</time></trkpt><trkpt lat="43.0159603" lon="13.4164547"><ele>347.0</ele><time>2026-04-12T09:21:17.048Z</time></trkpt><trkpt lat="43.0159038" lon="13.416406"><ele>347.0</ele><time>2026-04-12T09:21:19.022Z</time></trkpt><trkpt lat="43.0158009" lon="13.416339"><ele>347.0</ele><time>2026-04-12T09:21:21.049Z</time></trkpt><trkpt lat="43.015726" lon="13.4162461"><ele>347.0</ele><time>2026-04-12T09:21:23.036Z</time></trkpt><trkpt lat="43.0156824" lon="13.4161764"><ele>347.0</ele><time>2026-04-12T09:21:25.044Z</time></trkpt><trkpt lat="43.015622" lon="13.4162107"><ele>347.0</ele><time>2026-04-12T09:21:27.015Z</time></trkpt><trkpt lat="43.0155717" lon="13.4162856"><ele>346.1666666666667</ele><time>2026-04-12T09:21:29.023Z</time></trkpt><trkpt lat="43.0155887" lon="13.416403"><ele>345.33333333333337</ele><time>2026-04-12T09:21:31.038Z</time></trkpt><trkpt lat="43.0155651" lon="13.4165249"><ele>344.5</ele><time>2026-04-12T09:21:34.057Z</time></trkpt><trkpt lat="43.0154835" lon="13.4165169"><ele>343.6666666666667</ele><time>2026-04-12T09:21:36.026Z</time></trkpt><trkpt lat="43.0153968" lon="13.416446"><ele>342.8333333333333</ele><time>2026-04-12T09:21:38.039Z</time></trkpt><trkpt lat="43.015329" lon="13.4163877"><ele>342.0</ele><time>2026-04-12T09:21:40.025Z</time></trkpt><trkpt lat="43.0152499" lon="13.4163592"><ele>342.0</ele><time>2026-04-12T09:21:42.043Z</time></trkpt><trkpt lat="43.0151511" lon="13.4163467"><ele>342.0</ele><time>2026-04-12T09:21:44.005Z</time></trkpt><trkpt lat="43.0150799" lon="13.4162798"><ele>342.0</ele><time>2026-04-12T09:21:46.029Z</time></trkpt><trkpt lat="43.0150365" lon="13.4162172"><ele>342.0</ele><time>2026-04-12T09:21:47.028Z</time></trkpt><trkpt lat="43.014983" lon="13.4161578"><ele>342.0</ele><time>2026-04-12T09:21:48.02Z</time></trkpt><trkpt lat="43.0149032" lon="13.4161435"><ele>342.0</ele><time>2026-04-12T09:21:49.029Z</time></trkpt><trkpt lat="43.0148318" lon="13.4161238"><ele>342.71428571428567</ele><time>2026-04-12T09:21:50.018Z</time></trkpt><trkpt lat="43.014758" lon="13.4161092"><ele>343.42857142857144</ele><time>2026-04-12T09:21:51.025Z</time></trkpt><trkpt lat="43.0146873" lon="13.4161018"><ele>344.1428571428571</ele><time>2026-04-12T09:21:52Z</time></trkpt><trkpt lat="43.0146208" lon="13.4161097"><ele>344.85714285714283</ele><time>2026-04-12T09:21:53.033Z</time></trkpt><trkpt lat="43.0145502" lon="13.4161173"><ele>345.57142857142856</ele><time>2026-04-12T09:21:54.042Z</time></trkpt><trkpt lat="43.0144863" lon="13.4161414"><ele>346.2857142857143</ele><time>2026-04-12T09:21:55.032Z</time></trkpt><trkpt lat="43.0144065" lon="13.416157"><ele>347.0</ele><time>2026-04-12T09:21:56.024Z</time></trkpt><trkpt lat="43.0143409" lon="13.4161475"><ele>347.0</ele><time>2026-04-12T09:21:57.042Z</time></trkpt><trkpt lat="43.0142671" lon="13.416058"><ele>347.0</ele><time>2026-04-12T09:21:59.042Z</time></trkpt><trkpt lat="43.0142766" lon="13.4159169"><ele>347.0</ele><time>2026-04-12T09:22:01.042Z</time></trkpt><trkpt lat="43.0142296" lon="13.4158305"><ele>347.0</ele><time>2026-04-12T09:22:03.044Z</time></trkpt><trkpt lat="43.014149" lon="13.4158086"><ele>347.0</ele><time>2026-04-12T09:22:04.056Z</time></trkpt><trkpt lat="43.014055" lon="13.4157935"><ele>346.5</ele><time>2026-04-12T09:22:05.052Z</time></trkpt><trkpt lat="43.0139808" lon="13.4157679"><ele>346.0</ele><time>2026-04-12T09:22:06.019Z</time></trkpt><trkpt lat="43.0138787" lon="13.4158375"><ele>345.5</ele><time>2026-04-12T09:22:08.035Z</time></trkpt><trkpt lat="43.0137779" lon="13.4159005"><ele>345.0</ele><time>2026-04-12T09:22:10.035Z</time></trkpt><trkpt lat="43.01371" lon="13.4158992"><ele>344.5</ele><time>2026-04-12T09:22:11.041Z</time></trkpt><trkpt lat="43.013635" lon="13.4159065"><ele>344.0</ele><time>2026-04-12T09:22:12.036Z</time></trkpt><trkpt lat="43.0135405" lon="13.4159704"><ele>344.0</ele><time>2026-04-12T09:22:14.006Z</time></trkpt><trkpt lat="43.0135065" lon="13.4160901"><ele>344.0</ele><time>2026-04-12T09:22:16.031Z</time></trkpt><trkpt lat="43.0135125" lon="13.4162357"><ele>344.0</ele><time>2026-04-12T09:22:18.029Z</time></trkpt><trkpt lat="43.0134543" lon="13.4162932"><ele>344.0</ele><time>2026-04-12T09:22:20.028Z</time></trkpt><trkpt lat="43.0133872" lon="13.4163098"><ele>344.0</ele><time>2026-04-12T09:22:21.043Z</time></trkpt><trkpt lat="43.0133233" lon="13.4163355"><ele>344.0</ele><time>2026-04-12T09:22:22.047Z</time></trkpt><trkpt lat="43.0132607" lon="13.4163551"><ele>341.0</ele><time>2026-04-12T09:22:23.034Z</time></trkpt><trkpt lat="43.013161" lon="13.416375"><ele>338.0</ele><time>2026-04-12T09:22:25.045Z</time></trkpt><trkpt lat="43.0131775" lon="13.4165505"><ele>335.0</ele><time>2026-04-12T09:22:27.026Z</time></trkpt><trkpt lat="43.0132109" lon="13.4166618"><ele>332.0</ele><time>2026-04-12T09:22:28.03Z</time></trkpt><trkpt lat="43.0132386" lon="13.416783"><ele>329.0</ele><time>2026-04-12T09:22:29.041Z</time></trkpt><trkpt lat="43.0132789" lon="13.4169164"><ele>328.79999999999995</ele><time>2026-04-12T09:22:30.033Z</time></trkpt><trkpt lat="43.0133223" lon="13.4170554"><ele>328.59999999999997</ele><time>2026-04-12T09:22:31.033Z</time></trkpt><trkpt lat="43.0133622" lon="13.417184"><ele>328.4</ele><time>2026-04-12T09:22:32.023Z</time></trkpt><trkpt lat="43.0133828" lon="13.4173212"><ele>328.2</ele><time>2026-04-12T09:22:33.036Z</time></trkpt><trkpt lat="43.0133998" lon="13.4174388"><ele>328.0</ele><time>2026-04-12T09:22:34.042Z</time></trkpt><trkpt lat="43.0134068" lon="13.4175471"><ele>328.0</ele><time>2026-04-12T09:22:35.045Z</time></trkpt><trkpt lat="43.0134154" lon="13.4176505"><ele>328.0</ele><time>2026-04-12T09:22:36.026Z</time></trkpt><trkpt lat="43.0134244" lon="13.4177403"><ele>328.0</ele><time>2026-04-12T09:22:37.012Z</time></trkpt><trkpt lat="43.0134254" lon="13.4178291"><ele>328.0</ele><time>2026-04-12T09:22:38.037Z</time></trkpt><trkpt lat="43.013405" lon="13.4179249"><ele>328.0</ele><time>2026-04-12T09:22:39.057Z</time></trkpt><trkpt lat="43.0133688" lon="13.4180252"><ele>328.0</ele><time>2026-04-12T09:22:40.051Z</time></trkpt><trkpt lat="43.0133136" lon="13.4181223"><ele>327.3333333333333</ele><time>2026-04-12T09:22:41.044Z</time></trkpt><trkpt lat="43.0132483" lon="13.418218"><ele>326.66666666666663</ele><time>2026-04-12T09:22:42.018Z</time></trkpt><trkpt lat="43.0131773" lon="13.4183186"><ele>326.0</ele><time>2026-04-12T09:22:43.042Z</time></trkpt><trkpt lat="43.0131044" lon="13.4183961"><ele>325.3333333333333</ele><time>2026-04-12T09:22:44.045Z</time></trkpt><trkpt lat="43.0130388" lon="13.4184403"><ele>324.6666666666667</ele><time>2026-04-12T09:22:45.086Z</time></trkpt><trkpt lat="43.0129746" lon="13.4184727"><ele>324.0</ele><time>2026-04-12T09:22:46.042Z</time></trkpt><trkpt lat="43.0129066" lon="13.4184765"><ele>324.0</ele><time>2026-04-12T09:22:47.048Z</time></trkpt><trkpt lat="43.0128357" lon="13.4184493"><ele>324.0</ele><time>2026-04-12T09:22:48.03Z</time></trkpt><trkpt lat="43.0127472" lon="13.4184317"><ele>324.0</ele><time>2026-04-12T09:22:49.029Z</time></trkpt><trkpt lat="43.0126505" lon="13.4184428"><ele>324.0</ele><time>2026-04-12T09:22:50.046Z</time></trkpt><trkpt lat="43.0125558" lon="13.4184638"><ele>324.0</ele><time>2026-04-12T09:22:51.029Z</time></trkpt><trkpt lat="43.0124684" lon="13.4185049"><ele>324.0</ele><time>2026-04-12T09:22:52.029Z</time></trkpt><trkpt lat="43.0123855" lon="13.4185662"><ele>322.8</ele><time>2026-04-12T09:22:53.046Z</time></trkpt><trkpt lat="43.0122947" lon="13.4186023"><ele>321.59999999999997</ele><time>2026-04-12T09:22:54.03Z</time></trkpt><trkpt lat="43.0122078" lon="13.418608"><ele>320.4</ele><time>2026-04-12T09:22:55.058Z</time></trkpt><trkpt lat="43.0121144" lon="13.4185765"><ele>319.2</ele><time>2026-04-12T09:22:56.038Z</time></trkpt><trkpt lat="43.0120152" lon="13.4185279"><ele>318.0</ele><time>2026-04-12T09:22:57.029Z</time></trkpt><trkpt lat="43.011929" lon="13.4184918"><ele>318.0</ele><time>2026-04-12T09:22:58.036Z</time></trkpt><trkpt lat="43.011859" lon="13.4184719"><ele>318.0</ele><time>2026-04-12T09:22:59.006Z</time></trkpt><trkpt lat="43.0117412" lon="13.418505"><ele>318.0</ele><time>2026-04-12T09:23:01.039Z</time></trkpt><trkpt lat="43.0116876" lon="13.4185548"><ele>318.0</ele><time>2026-04-12T09:23:02.056Z</time></trkpt><trkpt lat="43.0116397" lon="13.4186135"><ele>318.0</ele><time>2026-04-12T09:23:03.051Z</time></trkpt><trkpt lat="43.0115946" lon="13.4186955"><ele>318.0</ele><time>2026-04-12T09:23:04.026Z</time></trkpt><trkpt lat="43.0115537" lon="13.4187874"><ele>319.1666666666667</ele><time>2026-04-12T09:23:05.031Z</time></trkpt><trkpt lat="43.0115087" lon="13.4188883"><ele>320.3333333333333</ele><time>2026-04-12T09:23:06.026Z</time></trkpt><trkpt lat="43.0114709" lon="13.4189853"><ele>321.5</ele><time>2026-04-12T09:23:07.025Z</time></trkpt><trkpt lat="43.0114343" lon="13.4190794"><ele>322.66666666666663</ele><time>2026-04-12T09:23:08.03Z</time></trkpt><trkpt lat="43.011394" lon="13.4191762"><ele>323.8333333333333</ele><time>2026-04-12T09:23:09.04Z</time></trkpt><trkpt lat="43.0113546" lon="13.4192768"><ele>325.0</ele><time>2026-04-12T09:23:10.023Z</time></trkpt><trkpt lat="43.0112856" lon="13.4193608"><ele>325.0</ele><time>2026-04-12T09:23:12.043Z</time></trkpt><trkpt lat="43.0112182" lon="13.419361"><ele>325.0</ele><time>2026-04-12T09:23:14.039Z</time></trkpt><trkpt lat="43.0111534" lon="13.4192805"><ele>325.0</ele><time>2026-04-12T09:23:17.061Z</time></trkpt><trkpt lat="43.0111475" lon="13.4191821"><ele>325.0</ele><time>2026-04-12T09:23:19.04Z</time></trkpt><trkpt lat="43.0111507" lon="13.4190852"><ele>325.0</ele><time>2026-04-12T09:23:21.047Z</time></trkpt><trkpt lat="43.0111766" lon="13.418969"><ele>325.0</ele><time>2026-04-12T09:23:23.014Z</time></trkpt><trkpt lat="43.011213" lon="13.4188443"><ele>324.3333333333333</ele><time>2026-04-12T09:23:25.029Z</time></trkpt><trkpt lat="43.0112425" lon="13.4187243"><ele>323.66666666666663</ele><time>2026-04-12T09:23:27.048Z</time></trkpt><trkpt lat="43.0112589" lon="13.418616"><ele>323.0</ele><time>2026-04-12T09:23:28.983Z</time></trkpt><trkpt lat="43.0112654" lon="13.4184957"><ele>322.3333333333333</ele><time>2026-04-12T09:23:31.013Z</time></trkpt><trkpt lat="43.0112879" lon="13.4183745"><ele>321.6666666666667</ele><time>2026-04-12T09:23:32.975Z</time></trkpt><trkpt lat="43.0112704" lon="13.4182787"><ele>321.0</ele><time>2026-04-12T09:23:34.988Z</time></trkpt><trkpt lat="43.011245" lon="13.4181749"><ele>321.0</ele><time>2026-04-12T09:23:37.008Z</time></trkpt><trkpt lat="43.0111698" lon="13.4181429"><ele>321.0</ele><time>2026-04-12T09:23:42.018Z</time></trkpt><trkpt lat="43.0111677" lon="13.4180219"><ele>321.0</ele><time>2026-04-12T09:23:44.982Z</time></trkpt><trkpt lat="43.0111847" lon="13.4179362"><ele>321.0</ele><time>2026-04-12T09:23:45.999Z</time></trkpt><trkpt lat="43.0112095" lon="13.4178489"><ele>321.0</ele><time>2026-04-12T09:23:46.979Z</time></trkpt><trkpt lat="43.0112161" lon="13.417688"><ele>321.0</ele><time>2026-04-12T09:23:49.028Z</time></trkpt><trkpt lat="43.0112056" lon="13.4176027"><ele>320.6666666666667</ele><time>2026-04-12T09:23:50.047Z</time></trkpt><trkpt lat="43.0111701" lon="13.4174686"><ele>320.3333333333333</ele><time>2026-04-12T09:23:52.029Z</time></trkpt><trkpt lat="43.0111282" lon="13.417348"><ele>320.0</ele><time>2026-04-12T09:23:54.035Z</time></trkpt><trkpt lat="43.0111416" lon="13.4172437"><ele>319.66666666666663</ele><time>2026-04-12T09:23:57.033Z</time></trkpt><trkpt lat="43.011103" lon="13.4171488"><ele>319.3333333333333</ele><time>2026-04-12T09:23:59.022Z</time></trkpt><trkpt lat="43.0110565" lon="13.4170563"><ele>319.0</ele><time>2026-04-12T09:24:01.027Z</time></trkpt><trkpt lat="43.010997" lon="13.4169982"><ele>318.5</ele><time>2026-04-12T09:24:03.008Z</time></trkpt><trkpt lat="43.0109588" lon="13.4169049"><ele>318.0</ele><time>2026-04-12T09:24:05.005Z</time></trkpt><trkpt lat="43.0109642" lon="13.416796"><ele>317.5</ele><time>2026-04-12T09:24:07.044Z</time></trkpt><trkpt lat="43.0109457" lon="13.4166932"><ele>317.0</ele><time>2026-04-12T09:24:09.025Z</time></trkpt><trkpt lat="43.0109074" lon="13.4166102"><ele>316.5</ele><time>2026-04-12T09:24:11.043Z</time></trkpt><trkpt lat="43.0108484" lon="13.4165784"><ele>316.0</ele><time>2026-04-12T09:24:12.984Z</time></trkpt><trkpt lat="43.0107617" lon="13.4165825"><ele>317.20000000000005</ele><time>2026-04-12T09:24:14.988Z</time></trkpt><trkpt lat="43.0106594" lon="13.4165898"><ele>318.40000000000003</ele><time>2026-04-12T09:24:17.055Z</time></trkpt><trkpt lat="43.010573" lon="13.4165387"><ele>319.6</ele><time>2026-04-12T09:24:19.041Z</time></trkpt><trkpt lat="43.0104462" lon="13.4164678"><ele>320.8</ele><time>2026-04-12T09:24:21.041Z</time></trkpt><trkpt lat="43.010376" lon="13.4164445"><ele>322.0</ele><time>2026-04-12T09:24:22.032Z</time></trkpt><trkpt lat="43.0102987" lon="13.4164413"><ele>322.0</ele><time>2026-04-12T09:24:23.053Z</time></trkpt><trkpt lat="43.0102112" lon="13.4164758"><ele>322.0</ele><time>2026-04-12T09:24:24.03Z</time></trkpt><trkpt lat="43.0101048" lon="13.4165305"><ele>322.0</ele><time>2026-04-12T09:24:25.028Z</time></trkpt><trkpt lat="43.0099893" lon="13.416575"><ele>322.0</ele><time>2026-04-12T09:24:26.032Z</time></trkpt><trkpt lat="43.0098671" lon="13.4166057"><ele>322.0</ele><time>2026-04-12T09:24:27.058Z</time></trkpt><trkpt lat="43.00974" lon="13.4166525"><ele>322.40000000000003</ele><time>2026-04-12T09:24:28.027Z</time></trkpt><trkpt lat="43.0096274" lon="13.4167056"><ele>322.8</ele><time>2026-04-12T09:24:29.036Z</time></trkpt><trkpt lat="43.0095464" lon="13.4167578"><ele>323.2</ele><time>2026-04-12T09:24:30.034Z</time></trkpt><trkpt lat="43.0094706" lon="13.4168056"><ele>323.6</ele><time>2026-04-12T09:24:31.032Z</time></trkpt><trkpt lat="43.0093951" lon="13.4168526"><ele>324.0</ele><time>2026-04-12T09:24:32.034Z</time></trkpt><trkpt lat="43.0093121" lon="13.4168997"><ele>324.0</ele><time>2026-04-12T09:24:33.038Z</time></trkpt><trkpt lat="43.0092243" lon="13.4169311"><ele>324.0</ele><time>2026-04-12T09:24:34.017Z</time></trkpt><trkpt lat="43.0091489" lon="13.4169409"><ele>324.0</ele><time>2026-04-12T09:24:35.043Z</time></trkpt><trkpt lat="43.0090829" lon="13.4169313"><ele>324.0</ele><time>2026-04-12T09:24:36.036Z</time></trkpt><trkpt lat="43.009012" lon="13.4169787"><ele>324.0</ele><time>2026-04-12T09:24:38.008Z</time></trkpt><trkpt lat="43.0090244" lon="13.4170878"><ele>324.0</ele><time>2026-04-12T09:24:40.03Z</time></trkpt><trkpt lat="43.0090787" lon="13.4172383"><ele>325.8571428571429</ele><time>2026-04-12T09:24:41.993Z</time></trkpt><trkpt lat="43.0091202" lon="13.4173222"><ele>327.7142857142857</ele><time>2026-04-12T09:24:43.022Z</time></trkpt><trkpt lat="43.0091553" lon="13.4174059"><ele>329.57142857142856</ele><time>2026-04-12T09:24:44.033Z</time></trkpt><trkpt lat="43.0091925" lon="13.4174882"><ele>331.42857142857144</ele><time>2026-04-12T09:24:45.005Z</time></trkpt><trkpt lat="43.009236" lon="13.4175748"><ele>333.2857142857143</ele><time>2026-04-12T09:24:46.01Z</time></trkpt><trkpt lat="43.0092739" lon="13.4176537"><ele>335.14285714285717</ele><time>2026-04-12T09:24:47.041Z</time></trkpt><trkpt lat="43.0093141" lon="13.4177271"><ele>337.0</ele><time>2026-04-12T09:24:48.015Z</time></trkpt><trkpt lat="43.0093656" lon="13.417814"><ele>337.0</ele><time>2026-04-12T09:24:49.022Z</time></trkpt><trkpt lat="43.0094067" lon="13.4178918"><ele>337.0</ele><time>2026-04-12T09:24:49.985Z</time></trkpt><trkpt lat="43.0094339" lon="13.4179747"><ele>337.0</ele><time>2026-04-12T09:24:51.048Z</time></trkpt><trkpt lat="43.0094614" lon="13.4181005"><ele>337.0</ele><time>2026-04-12T09:24:52.999Z</time></trkpt><trkpt lat="43.0093885" lon="13.4181494"><ele>337.0</ele><time>2026-04-12T09:24:55.024Z</time></trkpt><trkpt lat="43.0092928" lon="13.4180723"><ele>337.0</ele><time>2026-04-12T09:24:57.012Z</time></trkpt><trkpt lat="43.0092438" lon="13.4179993"><ele>337.0</ele><time>2026-04-12T09:24:58.04Z</time></trkpt><trkpt lat="43.0092056" lon="13.4179273"><ele>337.0</ele><time>2026-04-12T09:24:59.036Z</time></trkpt><trkpt lat="43.0091327" lon="13.4177969"><ele>337.0</ele><time>2026-04-12T09:25:01.047Z</time></trkpt><trkpt lat="43.0090954" lon="13.4177236"><ele>337.0</ele><time>2026-04-12T09:25:02.032Z</time></trkpt><trkpt lat="43.0090535" lon="13.4176105"><ele>337.0</ele><time>2026-04-12T09:25:04.027Z</time></trkpt><trkpt lat="43.0090051" lon="13.4175416"><ele>337.0</ele><time>2026-04-12T09:25:44.033Z</time></trkpt><trkpt lat="43.0090636" lon="13.4175034"><ele>340.5</ele><time>2026-04-12T09:27:13.021Z</time></trkpt><trkpt lat="43.0090867" lon="13.4175866"><ele>344.0</ele><time>2026-04-12T09:28:26.032Z</time></trkpt><trkpt lat="43.0090305" lon="13.4176346"><ele>347.5</ele><time>2026-04-12T09:30:03.018Z</time></trkpt><trkpt lat="43.0089759" lon="13.417565"><ele>351.0</ele><time>2026-04-12T09:31:49.032Z</time></trkpt><trkpt lat="43.0089015" lon="13.4174778"><ele>354.5</ele><time>2026-04-12T09:31:51.029Z</time></trkpt><trkpt lat="43.0088507" lon="13.4174154"><ele>358.0</ele><time>2026-04-12T09:31:52.033Z</time></trkpt><trkpt lat="43.0087595" lon="13.4173389"><ele>358.0</ele><time>2026-04-12T09:31:54.02Z</time></trkpt><trkpt lat="43.008698" lon="13.4172903"><ele>358.0</ele><time>2026-04-12T09:31:55.044Z</time></trkpt><trkpt lat="43.0086248" lon="13.4172059"><ele>358.0</ele><time>2026-04-12T09:31:56.035Z</time></trkpt><trkpt lat="43.0085465" lon="13.4170842"><ele>358.0</ele><time>2026-04-12T09:31:57.034Z</time></trkpt><trkpt lat="43.0084597" lon="13.4169531"><ele>358.0</ele><time>2026-04-12T09:31:58.05Z</time></trkpt><trkpt lat="43.0083625" lon="13.4168096"><ele>359.0</ele><time>2026-04-12T09:31:59.045Z</time></trkpt><trkpt lat="43.0082609" lon="13.4166602"><ele>360.0</ele><time>2026-04-12T09:32:00.04Z</time></trkpt><trkpt lat="43.0081767" lon="13.416527"><ele>361.0</ele><time>2026-04-12T09:32:01.037Z</time></trkpt><trkpt lat="43.0080826" lon="13.4163832"><ele>362.0</ele><time>2026-04-12T09:32:02.039Z</time></trkpt><trkpt lat="43.0079776" lon="13.4162581"><ele>362.0</ele><time>2026-04-12T09:32:03.051Z</time></trkpt><trkpt lat="43.0078592" lon="13.4161751"><ele>362.0</ele><time>2026-04-12T09:32:04.036Z</time></trkpt><trkpt lat="43.0077396" lon="13.4160449"><ele>362.0</ele><time>2026-04-12T09:32:05.023Z</time></trkpt><trkpt lat="43.0076436" lon="13.4159198"><ele>362.0</ele><time>2026-04-12T09:32:06.012Z</time></trkpt><trkpt lat="43.0075617" lon="13.4157886"><ele>362.0</ele><time>2026-04-12T09:32:07.051Z</time></trkpt><trkpt lat="43.0075103" lon="13.4156381"><ele>362.0</ele><time>2026-04-12T09:32:08.037Z</time></trkpt><trkpt lat="43.0075066" lon="13.4154706"><ele>362.0</ele><time>2026-04-12T09:32:09.031Z</time></trkpt><trkpt lat="43.0075216" lon="13.4153172"><ele>362.0</ele><time>2026-04-12T09:32:10.005Z</time></trkpt><trkpt lat="43.0075621" lon="13.4151599"><ele>359.40000000000003</ele><time>2026-04-12T09:32:11.032Z</time></trkpt><trkpt lat="43.0076467" lon="13.4150271"><ele>356.8</ele><time>2026-04-12T09:32:12.036Z</time></trkpt><trkpt lat="43.0077237" lon="13.4149218"><ele>354.2</ele><time>2026-04-12T09:32:13.035Z</time></trkpt><trkpt lat="43.0077934" lon="13.4148271"><ele>351.6</ele><time>2026-04-12T09:32:14.045Z</time></trkpt><trkpt lat="43.007861" lon="13.4147392"><ele>349.0</ele><time>2026-04-12T09:32:15.008Z</time></trkpt><trkpt lat="43.0079063" lon="13.4146437"><ele>347.8333333333333</ele><time>2026-04-12T09:32:16.003Z</time></trkpt><trkpt lat="43.0079463" lon="13.4145573"><ele>346.66666666666663</ele><time>2026-04-12T09:32:17.026Z</time></trkpt><trkpt lat="43.0079948" lon="13.41448"><ele>345.5</ele><time>2026-04-12T09:32:18.048Z</time></trkpt><trkpt lat="43.0080597" lon="13.4144131"><ele>344.3333333333333</ele><time>2026-04-12T09:32:19.047Z</time></trkpt><trkpt lat="43.0081231" lon="13.41436"><ele>343.1666666666667</ele><time>2026-04-12T09:32:20.038Z</time></trkpt><trkpt lat="43.008201" lon="13.4143172"><ele>342.0</ele><time>2026-04-12T09:32:21.036Z</time></trkpt><trkpt lat="43.0082684" lon="13.4142601"><ele>342.0</ele><time>2026-04-12T09:32:22.001Z</time></trkpt><trkpt lat="43.008326" lon="13.4142077"><ele>342.0</ele><time>2026-04-12T09:32:23.023Z</time></trkpt><trkpt lat="43.0083832" lon="13.4141012"><ele>342.0</ele><time>2026-04-12T09:32:24.06Z</time></trkpt><trkpt lat="43.0084561" lon="13.4140058"><ele>342.0</ele><time>2026-04-12T09:32:25.031Z</time></trkpt><trkpt lat="43.0085334" lon="13.4138707"><ele>342.0</ele><time>2026-04-12T09:32:26.059Z</time></trkpt><trkpt lat="43.0086" lon="13.4137488"><ele>340.6</ele><time>2026-04-12T09:32:27.045Z</time></trkpt><trkpt lat="43.0086742" lon="13.41364"><ele>339.20000000000005</ele><time>2026-04-12T09:32:28.037Z</time></trkpt><trkpt lat="43.0087554" lon="13.4135656"><ele>337.8</ele><time>2026-04-12T09:32:29.056Z</time></trkpt><trkpt lat="43.0088499" lon="13.4134836"><ele>336.4</ele><time>2026-04-12T09:32:30.046Z</time></trkpt><trkpt lat="43.0089428" lon="13.4134266"><ele>335.0</ele><time>2026-04-12T09:32:31.049Z</time></trkpt><trkpt lat="43.0090392" lon="13.4133561"><ele>335.0</ele><time>2026-04-12T09:32:32.052Z</time></trkpt><trkpt lat="43.0091295" lon="13.4132706"><ele>335.0</ele><time>2026-04-12T09:32:33.052Z</time></trkpt><trkpt lat="43.009217" lon="13.4132017"><ele>335.0</ele><time>2026-04-12T09:32:34.054Z</time></trkpt><trkpt lat="43.0092918" lon="13.4131293"><ele>335.0</ele><time>2026-04-12T09:32:35.034Z</time></trkpt><trkpt lat="43.0093615" lon="13.4131014"><ele>335.0</ele><time>2026-04-12T09:32:36.056Z</time></trkpt><trkpt lat="43.0094676" lon="13.4131816"><ele>332.75</ele><time>2026-04-12T09:32:38.006Z</time></trkpt><trkpt lat="43.0095378" lon="13.4132926"><ele>330.5</ele><time>2026-04-12T09:32:39.055Z</time></trkpt><trkpt lat="43.0096143" lon="13.4134139"><ele>328.25</ele><time>2026-04-12T09:32:40.05Z</time></trkpt><trkpt lat="43.0096839" lon="13.4135444"><ele>326.0</ele><time>2026-04-12T09:32:41.044Z</time></trkpt><trkpt lat="43.0097715" lon="13.4136819"><ele>326.0</ele><time>2026-04-12T09:32:42.058Z</time></trkpt><trkpt lat="43.0098376" lon="13.4138106"><ele>326.0</ele><time>2026-04-12T09:32:43.033Z</time></trkpt><trkpt lat="43.0098865" lon="13.4139127"><ele>326.0</ele><time>2026-04-12T09:32:44.029Z</time></trkpt><trkpt lat="43.0099331" lon="13.4139799"><ele>326.0</ele><time>2026-04-12T09:32:45.04Z</time></trkpt><trkpt lat="43.010033" lon="13.4139739"><ele>326.0</ele><time>2026-04-12T09:32:47.031Z</time></trkpt><trkpt lat="43.0101307" lon="13.4139535"><ele>324.75</ele><time>2026-04-12T09:32:48.042Z</time></trkpt><trkpt lat="43.0102514" lon="13.4139284"><ele>323.5</ele><time>2026-04-12T09:32:49.057Z</time></trkpt><trkpt lat="43.0103709" lon="13.4138922"><ele>322.25</ele><time>2026-04-12T09:32:50.05Z</time></trkpt><trkpt lat="43.0105086" lon="13.4138554"><ele>321.0</ele><time>2026-04-12T09:32:51.032Z</time></trkpt><trkpt lat="43.0106385" lon="13.413809"><ele>320.75</ele><time>2026-04-12T09:32:52.045Z</time></trkpt><trkpt lat="43.0107401" lon="13.4137513"><ele>320.5</ele><time>2026-04-12T09:32:53.03Z</time></trkpt><trkpt lat="43.0108472" lon="13.4136712"><ele>320.25</ele><time>2026-04-12T09:32:54.029Z</time></trkpt><trkpt lat="43.0109471" lon="13.4135995"><ele>320.0</ele><time>2026-04-12T09:32:55.058Z</time></trkpt><trkpt lat="43.0110311" lon="13.4134681"><ele>320.5</ele><time>2026-04-12T09:32:56.025Z</time></trkpt><trkpt lat="43.0111076" lon="13.4133141"><ele>321.0</ele><time>2026-04-12T09:32:57.037Z</time></trkpt><trkpt lat="43.0111731" lon="13.4131582"><ele>321.5</ele><time>2026-04-12T09:32:58.039Z</time></trkpt><trkpt lat="43.0112407" lon="13.4130504"><ele>322.0</ele><time>2026-04-12T09:32:59.044Z</time></trkpt><trkpt lat="43.0113167" lon="13.4129462"><ele>321.8333333333333</ele><time>2026-04-12T09:33:00.037Z</time></trkpt><trkpt lat="43.0113942" lon="13.4128745"><ele>321.66666666666663</ele><time>2026-04-12T09:33:01.023Z</time></trkpt><trkpt lat="43.0114567" lon="13.4128204"><ele>321.5</ele><time>2026-04-12T09:33:02.048Z</time></trkpt><trkpt lat="43.0115359" lon="13.4127512"><ele>321.3333333333333</ele><time>2026-04-12T09:33:04.029Z</time></trkpt><trkpt lat="43.0116221" lon="13.4128013"><ele>321.1666666666667</ele><time>2026-04-12T09:33:06.002Z</time></trkpt><trkpt lat="43.0116767" lon="13.4128637"><ele>321.0</ele><time>2026-04-12T09:33:07.044Z</time></trkpt><trkpt lat="43.0117492" lon="13.4129258"><ele>321.0</ele><time>2026-04-12T09:33:08.041Z</time></trkpt><trkpt lat="43.0118423" lon="13.41295"><ele>321.0</ele><time>2026-04-12T09:33:09.041Z</time></trkpt><trkpt lat="43.0119299" lon="13.4129542"><ele>321.0</ele><time>2026-04-12T09:33:10.039Z</time></trkpt><trkpt lat="43.0119991" lon="13.412938"><ele>321.0</ele><time>2026-04-12T09:33:11.017Z</time></trkpt><trkpt lat="43.0120563" lon="13.4128883"><ele>321.0</ele><time>2026-04-12T09:33:13.037Z</time></trkpt><trkpt lat="43.0120353" lon="13.4127742"><ele>321.0</ele><time>2026-04-12T09:33:15.057Z</time></trkpt><trkpt lat="43.0119697" lon="13.4126243"><ele>321.0</ele><time>2026-04-12T09:33:16.04Z</time></trkpt><trkpt lat="43.0119003" lon="13.4124336"><ele>321.0</ele><time>2026-04-12T09:33:17.06Z</time></trkpt><trkpt lat="43.0118265" lon="13.4121788"><ele>321.0</ele><time>2026-04-12T09:33:18.031Z</time></trkpt><trkpt lat="43.0117461" lon="13.41193"><ele>322.0</ele><time>2026-04-12T09:33:19.051Z</time></trkpt><trkpt lat="43.0116627" lon="13.4116822"><ele>323.0</ele><time>2026-04-12T09:33:20.049Z</time></trkpt><trkpt lat="43.0115803" lon="13.4114495"><ele>324.0</ele><time>2026-04-12T09:33:21.039Z</time></trkpt><trkpt lat="43.0114723" lon="13.4112309"><ele>327.0</ele><time>2026-04-12T09:33:22.033Z</time></trkpt><trkpt lat="43.0113417" lon="13.411022"><ele>330.0</ele><time>2026-04-12T09:33:22.991Z</time></trkpt><trkpt lat="43.011212" lon="13.410834"><ele>333.0</ele><time>2026-04-12T09:33:24.04Z</time></trkpt><trkpt lat="43.0110851" lon="13.4106897"><ele>333.0</ele><time>2026-04-12T09:33:25.039Z</time></trkpt><trkpt lat="43.0109838" lon="13.4105666"><ele>333.0</ele><time>2026-04-12T09:33:26.052Z</time></trkpt><trkpt lat="43.0109257" lon="13.4104385"><ele>333.0</ele><time>2026-04-12T09:33:27.043Z</time></trkpt><trkpt lat="43.0108914" lon="13.4102744"><ele>333.0</ele><time>2026-04-12T09:33:28.06Z</time></trkpt><trkpt lat="43.0108624" lon="13.410104"><ele>333.5</ele><time>2026-04-12T09:33:29.037Z</time></trkpt><trkpt lat="43.0108396" lon="13.4099169"><ele>334.0</ele><time>2026-04-12T09:33:30.048Z</time></trkpt><trkpt lat="43.0108181" lon="13.4097208"><ele>334.5</ele><time>2026-04-12T09:33:31.042Z</time></trkpt><trkpt lat="43.0107994" lon="13.4095045"><ele>335.0</ele><time>2026-04-12T09:33:32.043Z</time></trkpt><trkpt lat="43.01078" lon="13.4092658"><ele>335.0</ele><time>2026-04-12T09:33:33.033Z</time></trkpt><trkpt lat="43.0107603" lon="13.4090125"><ele>335.0</ele><time>2026-04-12T09:33:34.045Z</time></trkpt><trkpt lat="43.0107368" lon="13.4087665"><ele>335.0</ele><time>2026-04-12T09:33:35.06Z</time></trkpt><trkpt lat="43.0107185" lon="13.4085202"><ele>335.0</ele><time>2026-04-12T09:33:36.044Z</time></trkpt><trkpt lat="43.0106983" lon="13.4083023"><ele>335.0</ele><time>2026-04-12T09:33:37.048Z</time></trkpt><trkpt lat="43.010678" lon="13.4081215"><ele>335.0</ele><time>2026-04-12T09:33:38.052Z</time></trkpt><trkpt lat="43.010665" lon="13.407975"><ele>335.0</ele><time>2026-04-12T09:33:39.047Z</time></trkpt><trkpt lat="43.0106519" lon="13.4078771"><ele>334.2</ele><time>2026-04-12T09:33:40.06Z</time></trkpt><trkpt lat="43.0106112" lon="13.4077408"><ele>333.4</ele><time>2026-04-12T09:33:42.047Z</time></trkpt><trkpt lat="43.0105188" lon="13.4077154"><ele>332.6</ele><time>2026-04-12T09:33:44.044Z</time></trkpt><trkpt lat="43.0104337" lon="13.4077248"><ele>331.8</ele><time>2026-04-12T09:33:45.052Z</time></trkpt><trkpt lat="43.0103344" lon="13.4077686"><ele>331.0</ele><time>2026-04-12T09:33:46.043Z</time></trkpt><trkpt lat="43.0102364" lon="13.4078444"><ele>331.0</ele><time>2026-04-12T09:33:47.018Z</time></trkpt><trkpt lat="43.010138" lon="13.4079158"><ele>331.0</ele><time>2026-04-12T09:33:48.041Z</time></trkpt><trkpt lat="43.0100393" lon="13.4080262"><ele>331.0</ele><time>2026-04-12T09:33:49.023Z</time></trkpt><trkpt lat="43.0099566" lon="13.4081438"><ele>331.0</ele><time>2026-04-12T09:33:50.033Z</time></trkpt><trkpt lat="43.0098883" lon="13.4082806"><ele>330.4</ele><time>2026-04-12T09:33:51.039Z</time></trkpt><trkpt lat="43.0098381" lon="13.4084268"><ele>329.8</ele><time>2026-04-12T09:33:52.022Z</time></trkpt><trkpt lat="43.0097965" lon="13.4085431"><ele>329.2</ele><time>2026-04-12T09:33:53.02Z</time></trkpt><trkpt lat="43.0097582" lon="13.4086458"><ele>328.59999999999997</ele><time>2026-04-12T09:33:54.037Z</time></trkpt><trkpt lat="43.0097168" lon="13.4087449"><ele>328.0</ele><time>2026-04-12T09:33:55.034Z</time></trkpt><trkpt lat="43.0096647" lon="13.408812"><ele>327.8333333333333</ele><time>2026-04-12T09:33:56.045Z</time></trkpt><trkpt lat="43.009586" lon="13.4088654"><ele>327.66666666666663</ele><time>2026-04-12T09:33:57.039Z</time></trkpt><trkpt lat="43.0094998" lon="13.4089121"><ele>327.5</ele><time>2026-04-12T09:33:58.033Z</time></trkpt><trkpt lat="43.0094265" lon="13.4089599"><ele>327.3333333333333</ele><time>2026-04-12T09:33:59.025Z</time></trkpt><trkpt lat="43.0093588" lon="13.4089939"><ele>327.1666666666667</ele><time>2026-04-12T09:34:00.043Z</time></trkpt><trkpt lat="43.009298" lon="13.4090198"><ele>327.0</ele><time>2026-04-12T09:34:01.009Z</time></trkpt><trkpt lat="43.0091725" lon="13.4089293"><ele>327.1666666666667</ele><time>2026-04-12T09:34:02.988Z</time></trkpt><trkpt lat="43.009105" lon="13.4088527"><ele>327.3333333333333</ele><time>2026-04-12T09:34:04.039Z</time></trkpt><trkpt lat="43.0090496" lon="13.4087856"><ele>327.5</ele><time>2026-04-12T09:34:05.055Z</time></trkpt><trkpt lat="43.008997" lon="13.4087228"><ele>327.66666666666663</ele><time>2026-04-12T09:34:06.023Z</time></trkpt><trkpt lat="43.0089389" lon="13.4086516"><ele>327.8333333333333</ele><time>2026-04-12T09:34:07.043Z</time></trkpt><trkpt lat="43.0088867" lon="13.4085775"><ele>328.0</ele><time>2026-04-12T09:34:08.051Z</time></trkpt><trkpt lat="43.0088191" lon="13.4084728"><ele>329.0</ele><time>2026-04-12T09:34:10.036Z</time></trkpt><trkpt lat="43.0087666" lon="13.408402"><ele>330.0</ele><time>2026-04-12T09:34:12.047Z</time></trkpt><trkpt lat="43.008687" lon="13.4083063"><ele>331.0</ele><time>2026-04-12T09:34:13.992Z</time></trkpt><trkpt lat="43.0086367" lon="13.4082242"><ele>332.0</ele><time>2026-04-12T09:34:15.033Z</time></trkpt><trkpt lat="43.0085745" lon="13.4081587"><ele>333.0</ele><time>2026-04-12T09:34:16.053Z</time></trkpt><trkpt lat="43.0084732" lon="13.4080833"><ele>333.0</ele><time>2026-04-12T09:34:18.022Z</time></trkpt><trkpt lat="43.0083743" lon="13.4079941"><ele>333.0</ele><time>2026-04-12T09:34:20.045Z</time></trkpt><trkpt lat="43.0082741" lon="13.4078923"><ele>333.0</ele><time>2026-04-12T09:34:22.036Z</time></trkpt><trkpt lat="43.0082278" lon="13.4078221"><ele>333.0</ele><time>2026-04-12T09:34:23.029Z</time></trkpt><trkpt lat="43.0081841" lon="13.4077592"><ele>333.0</ele><time>2026-04-12T09:34:24.028Z</time></trkpt><trkpt lat="43.0081403" lon="13.4076753"><ele>335.4</ele><time>2026-04-12T09:34:25.032Z</time></trkpt><trkpt lat="43.0080525" lon="13.4075694"><ele>337.79999999999995</ele><time>2026-04-12T09:34:27.035Z</time></trkpt><trkpt lat="43.007999" lon="13.4075224"><ele>340.2</ele><time>2026-04-12T09:34:28.032Z</time></trkpt><trkpt lat="43.0078898" lon="13.4074345"><ele>342.6</ele><time>2026-04-12T09:34:30.034Z</time></trkpt><trkpt lat="43.0077798" lon="13.4074125"><ele>345.0</ele><time>2026-04-12T09:34:32.064Z</time></trkpt><trkpt lat="43.0076593" lon="13.4074654"><ele>345.0</ele><time>2026-04-12T09:34:34.037Z</time></trkpt><trkpt lat="43.007618" lon="13.4075318"><ele>345.0</ele><time>2026-04-12T09:34:35.044Z</time></trkpt><trkpt lat="43.0076233" lon="13.4076412"><ele>345.0</ele><time>2026-04-12T09:34:36.031Z</time></trkpt><trkpt lat="43.0076431" lon="13.4077587"><ele>345.0</ele><time>2026-04-12T09:34:37.047Z</time></trkpt><trkpt lat="43.007666" lon="13.4078797"><ele>345.0</ele><time>2026-04-12T09:34:38.027Z</time></trkpt><trkpt lat="43.0076896" lon="13.4080265"><ele>345.0</ele><time>2026-04-12T09:34:39.044Z</time></trkpt><trkpt lat="43.0077004" lon="13.4081999"><ele>345.25</ele><time>2026-04-12T09:34:40.037Z</time></trkpt><trkpt lat="43.0076893" lon="13.4083729"><ele>345.5</ele><time>2026-04-12T09:34:41.039Z</time></trkpt><trkpt lat="43.0076613" lon="13.4085329"><ele>345.75</ele><time>2026-04-12T09:34:42.045Z</time></trkpt><trkpt lat="43.0076065" lon="13.4087032"><ele>346.0</ele><time>2026-04-12T09:34:43.029Z</time></trkpt><trkpt lat="43.0075492" lon="13.4088695"><ele>346.0</ele><time>2026-04-12T09:34:44.018Z</time></trkpt><trkpt lat="43.0074976" lon="13.4090457"><ele>346.0</ele><time>2026-04-12T09:34:45.042Z</time></trkpt><trkpt lat="43.0074466" lon="13.4092452"><ele>346.0</ele><time>2026-04-12T09:34:46.031Z</time></trkpt><trkpt lat="43.0073923" lon="13.4094531"><ele>345.66666666666663</ele><time>2026-04-12T09:34:47.052Z</time></trkpt><trkpt lat="43.0073422" lon="13.409658"><ele>345.3333333333333</ele><time>2026-04-12T09:34:48.039Z</time></trkpt><trkpt lat="43.0072882" lon="13.4098694"><ele>345.0</ele><time>2026-04-12T09:34:49.046Z</time></trkpt><trkpt lat="43.0072368" lon="13.410084"><ele>345.0</ele><time>2026-04-12T09:34:50.054Z</time></trkpt><trkpt lat="43.0071865" lon="13.4102824"><ele>345.0</ele><time>2026-04-12T09:34:51.041Z</time></trkpt><trkpt lat="43.00713" lon="13.4104728"><ele>345.0</ele><time>2026-04-12T09:34:52.038Z</time></trkpt><trkpt lat="43.0070716" lon="13.4106621"><ele>343.25</ele><time>2026-04-12T09:34:53.052Z</time></trkpt><trkpt lat="43.0070299" lon="13.4108399"><ele>341.5</ele><time>2026-04-12T09:34:54.034Z</time></trkpt><trkpt lat="43.0070103" lon="13.411032"><ele>339.75</ele><time>2026-04-12T09:34:55.049Z</time></trkpt><trkpt lat="43.0070033" lon="13.4112213"><ele>338.0</ele><time>2026-04-12T09:34:56.036Z</time></trkpt><trkpt lat="43.007002" lon="13.4114203"><ele>337.6666666666667</ele><time>2026-04-12T09:34:57.052Z</time></trkpt><trkpt lat="43.0070036" lon="13.4116342"><ele>337.3333333333333</ele><time>2026-04-12T09:34:58.039Z</time></trkpt><trkpt lat="43.0069955" lon="13.4118442"><ele>337.0</ele><time>2026-04-12T09:34:59.046Z</time></trkpt><trkpt lat="43.0069991" lon="13.4120432"><ele>339.20000000000005</ele><time>2026-04-12T09:35:00.038Z</time></trkpt><trkpt lat="43.0069981" lon="13.4122143"><ele>341.4</ele><time>2026-04-12T09:35:01.038Z</time></trkpt><trkpt lat="43.0070047" lon="13.4123726"><ele>343.6</ele><time>2026-04-12T09:35:02.055Z</time></trkpt><trkpt lat="43.0070143" lon="13.4124939"><ele>345.79999999999995</ele><time>2026-04-12T09:35:03.05Z</time></trkpt><trkpt lat="43.0070286" lon="13.4125863"><ele>348.0</ele><time>2026-04-12T09:35:04.043Z</time></trkpt><trkpt lat="43.0069788" lon="13.4126885"><ele>348.0</ele><time>2026-04-12T09:35:06.052Z</time></trkpt><trkpt lat="43.0068502" lon="13.4126958"><ele>348.0</ele><time>2026-04-12T09:35:08.039Z</time></trkpt><trkpt lat="43.0067762" lon="13.4126141"><ele>348.0</ele><time>2026-04-12T09:35:09.043Z</time></trkpt><trkpt lat="43.0066815" lon="13.4125087"><ele>348.0</ele><time>2026-04-12T09:35:10.034Z</time></trkpt><trkpt lat="43.0065763" lon="13.4123837"><ele>349.6666666666667</ele><time>2026-04-12T09:35:11.045Z</time></trkpt><trkpt lat="43.006465" lon="13.4122436"><ele>351.33333333333337</ele><time>2026-04-12T09:35:12.049Z</time></trkpt><trkpt lat="43.0063458" lon="13.4120798"><ele>353.0</ele><time>2026-04-12T09:35:13.057Z</time></trkpt><trkpt lat="43.0062192" lon="13.4119129"><ele>353.0</ele><time>2026-04-12T09:35:14.066Z</time></trkpt><trkpt lat="43.0060931" lon="13.4117388"><ele>353.0</ele><time>2026-04-12T09:35:15.068Z</time></trkpt><trkpt lat="43.0059709" lon="13.4115746"><ele>353.0</ele><time>2026-04-12T09:35:16.052Z</time></trkpt><trkpt lat="43.0058522" lon="13.4114279"><ele>353.5</ele><time>2026-04-12T09:35:17.042Z</time></trkpt><trkpt lat="43.0057486" lon="13.4112999"><ele>354.0</ele><time>2026-04-12T09:35:18.046Z</time></trkpt><trkpt lat="43.0056369" lon="13.4112155"><ele>354.5</ele><time>2026-04-12T09:35:19.043Z</time></trkpt><trkpt lat="43.0055334" lon="13.4111483"><ele>355.0</ele><time>2026-04-12T09:35:20.044Z</time></trkpt><trkpt lat="43.005437" lon="13.4111096"><ele>355.0</ele><time>2026-04-12T09:35:21.003Z</time></trkpt><trkpt lat="43.0053358" lon="13.41113"><ele>355.0</ele><time>2026-04-12T09:35:22.036Z</time></trkpt><trkpt lat="43.0052421" lon="13.4111952"><ele>355.0</ele><time>2026-04-12T09:35:23.041Z</time></trkpt><trkpt lat="43.0051681" lon="13.4112883"><ele>355.0</ele><time>2026-04-12T09:35:24.036Z</time></trkpt><trkpt lat="43.0050896" lon="13.4114083"><ele>355.0</ele><time>2026-04-12T09:35:25.03Z</time></trkpt><trkpt lat="43.0050234" lon="13.4115589"><ele>357.25</ele><time>2026-04-12T09:35:26.038Z</time></trkpt><trkpt lat="43.0050002" lon="13.4117155"><ele>359.5</ele><time>2026-04-12T09:35:27.025Z</time></trkpt><trkpt lat="43.0050072" lon="13.4118767"><ele>361.75</ele><time>2026-04-12T09:35:28.04Z</time></trkpt><trkpt lat="43.0050508" lon="13.412041"><ele>364.0</ele><time>2026-04-12T09:35:29.016Z</time></trkpt><trkpt lat="43.0051281" lon="13.4122152"><ele>364.66666666666663</ele><time>2026-04-12T09:35:30.045Z</time></trkpt><trkpt lat="43.0052113" lon="13.4124045"><ele>365.3333333333333</ele><time>2026-04-12T09:35:31.045Z</time></trkpt><trkpt lat="43.0052862" lon="13.4125775"><ele>366.0</ele><time>2026-04-12T09:35:32.043Z</time></trkpt><trkpt lat="43.0053607" lon="13.412769"><ele>366.0</ele><time>2026-04-12T09:35:33.057Z</time></trkpt><trkpt lat="43.005436" lon="13.412948"><ele>366.0</ele><time>2026-04-12T09:35:34.043Z</time></trkpt><trkpt lat="43.0054994" lon="13.4131235"><ele>366.0</ele><time>2026-04-12T09:35:35.035Z</time></trkpt><trkpt lat="43.0055201" lon="13.4132952"><ele>366.0</ele><time>2026-04-12T09:35:36.056Z</time></trkpt><trkpt lat="43.0054865" lon="13.4134597"><ele>366.75</ele><time>2026-04-12T09:35:37.044Z</time></trkpt><trkpt lat="43.0054392" lon="13.4136015"><ele>367.5</ele><time>2026-04-12T09:35:38.052Z</time></trkpt><trkpt lat="43.0053652" lon="13.4137387"><ele>368.25</ele><time>2026-04-12T09:35:39.052Z</time></trkpt><trkpt lat="43.0052812" lon="13.4138384"><ele>369.0</ele><time>2026-04-12T09:35:40.021Z</time></trkpt><trkpt lat="43.0051791" lon="13.4138988"><ele>370.25</ele><time>2026-04-12T09:35:41.057Z</time></trkpt><trkpt lat="43.0050577" lon="13.4139245"><ele>371.5</ele><time>2026-04-12T09:35:42.029Z</time></trkpt><trkpt lat="43.0049411" lon="13.4139202"><ele>372.75</ele><time>2026-04-12T09:35:43.061Z</time></trkpt><trkpt lat="43.0048136" lon="13.4138639"><ele>374.0</ele><time>2026-04-12T09:35:44.046Z</time></trkpt><trkpt lat="43.0046924" lon="13.4137557"><ele>376.0</ele><time>2026-04-12T09:35:45.047Z</time></trkpt><trkpt lat="43.0045718" lon="13.4136529"><ele>378.0</ele><time>2026-04-12T09:35:46.04Z</time></trkpt><trkpt lat="43.0044561" lon="13.4135423"><ele>380.0</ele><time>2026-04-12T09:35:47.027Z</time></trkpt><trkpt lat="43.0043228" lon="13.4134417"><ele>382.0</ele><time>2026-04-12T09:35:48.036Z</time></trkpt><trkpt lat="43.0041855" lon="13.4133476"><ele>383.25</ele><time>2026-04-12T09:35:49.041Z</time></trkpt><trkpt lat="43.0040437" lon="13.4132553"><ele>384.5</ele><time>2026-04-12T09:35:50.044Z</time></trkpt><trkpt lat="43.0039148" lon="13.4131742"><ele>385.75</ele><time>2026-04-12T09:35:51.045Z</time></trkpt><trkpt lat="43.003797" lon="13.4131076"><ele>387.0</ele><time>2026-04-12T09:35:52.024Z</time></trkpt><trkpt lat="43.0036912" lon="13.4130702"><ele>387.0</ele><time>2026-04-12T09:35:53.044Z</time></trkpt><trkpt lat="43.0036035" lon="13.4130577"><ele>387.0</ele><time>2026-04-12T09:35:54.057Z</time></trkpt><trkpt lat="43.0035279" lon="13.4130997"><ele>387.0</ele><time>2026-04-12T09:35:55.039Z</time></trkpt><trkpt lat="43.0034557" lon="13.4131727"><ele>387.0</ele><time>2026-04-12T09:35:56.036Z</time></trkpt><trkpt lat="43.0034111" lon="13.4132752"><ele>387.0</ele><time>2026-04-12T09:35:57.033Z</time></trkpt><trkpt lat="43.0034004" lon="13.4133964"><ele>387.0</ele><time>2026-04-12T09:35:58.053Z</time></trkpt><trkpt lat="43.0034128" lon="13.4135435"><ele>387.0</ele><time>2026-04-12T09:35:59.036Z</time></trkpt><trkpt lat="43.0034379" lon="13.4136875"><ele>387.0</ele><time>2026-04-12T09:36:00.012Z</time></trkpt><trkpt lat="43.0034804" lon="13.4138363"><ele>387.0</ele><time>2026-04-12T09:36:01.04Z</time></trkpt><trkpt lat="43.0035305" lon="13.4139772"><ele>387.0</ele><time>2026-04-12T09:36:02.043Z</time></trkpt><trkpt lat="43.0035808" lon="13.4141103"><ele>387.0</ele><time>2026-04-12T09:36:03.058Z</time></trkpt><trkpt lat="43.0036315" lon="13.4142393"><ele>389.20000000000005</ele><time>2026-04-12T09:36:04.065Z</time></trkpt><trkpt lat="43.0036719" lon="13.4143663"><ele>391.4</ele><time>2026-04-12T09:36:05.057Z</time></trkpt><trkpt lat="43.0036796" lon="13.4144811"><ele>393.6</ele><time>2026-04-12T09:36:05.986Z</time></trkpt><trkpt lat="43.0036411" lon="13.4146139"><ele>395.79999999999995</ele><time>2026-04-12T09:36:07.021Z</time></trkpt><trkpt lat="43.0035709" lon="13.4147249"><ele>398.0</ele><time>2026-04-12T09:36:08.051Z</time></trkpt><trkpt lat="43.0034825" lon="13.4148148"><ele>398.0</ele><time>2026-04-12T09:36:09.049Z</time></trkpt><trkpt lat="43.0033781" lon="13.4149256"><ele>398.0</ele><time>2026-04-12T09:36:10.049Z</time></trkpt><trkpt lat="43.0032728" lon="13.4150441"><ele>398.0</ele><time>2026-04-12T09:36:11.041Z</time></trkpt><trkpt lat="43.0031558" lon="13.4151649"><ele>398.0</ele><time>2026-04-12T09:36:12.054Z</time></trkpt><trkpt lat="43.0030368" lon="13.415297"><ele>402.3333333333333</ele><time>2026-04-12T09:36:13.041Z</time></trkpt><trkpt lat="43.0029181" lon="13.4154305"><ele>406.66666666666663</ele><time>2026-04-12T09:36:14.05Z</time></trkpt><trkpt lat="43.0028027" lon="13.4155627"><ele>411.0</ele><time>2026-04-12T09:36:15.051Z</time></trkpt><trkpt lat="43.0026852" lon="13.4156845"><ele>411.0</ele><time>2026-04-12T09:36:16.03Z</time></trkpt><trkpt lat="43.002568" lon="13.4158104"><ele>411.0</ele><time>2026-04-12T09:36:17.047Z</time></trkpt><trkpt lat="43.0024449" lon="13.4159216"><ele>411.0</ele><time>2026-04-12T09:36:18.044Z</time></trkpt><trkpt lat="43.0023142" lon="13.4160387"><ele>413.0</ele><time>2026-04-12T09:36:19.044Z</time></trkpt><trkpt lat="43.0021855" lon="13.4161541"><ele>415.0</ele><time>2026-04-12T09:36:20.065Z</time></trkpt><trkpt lat="43.0020548" lon="13.4162635"><ele>417.0</ele><time>2026-04-12T09:36:21.027Z</time></trkpt><trkpt lat="43.001923" lon="13.4163689"><ele>417.0</ele><time>2026-04-12T09:36:22.048Z</time></trkpt><trkpt lat="43.0017932" lon="13.4164828"><ele>417.0</ele><time>2026-04-12T09:36:23.043Z</time></trkpt><trkpt lat="43.0016655" lon="13.4165934"><ele>417.0</ele><time>2026-04-12T09:36:24.06Z</time></trkpt><trkpt lat="43.0015413" lon="13.4167109"><ele>421.75</ele><time>2026-04-12T09:36:25.001Z</time></trkpt><trkpt lat="43.0014271" lon="13.4168282"><ele>426.5</ele><time>2026-04-12T09:36:26.032Z</time></trkpt><trkpt lat="43.0013363" lon="13.4169391"><ele>431.25</ele><time>2026-04-12T09:36:27.043Z</time></trkpt><trkpt lat="43.0012562" lon="13.417039"><ele>436.0</ele><time>2026-04-12T09:36:28.034Z</time></trkpt><trkpt lat="43.0011928" lon="13.4171164"><ele>434.33333333333337</ele><time>2026-04-12T09:36:29.045Z</time></trkpt><trkpt lat="43.0011332" lon="13.4171647"><ele>432.6666666666667</ele><time>2026-04-12T09:36:30.028Z</time></trkpt><trkpt lat="43.001061" lon="13.4172696"><ele>431.0</ele><time>2026-04-12T09:36:32.021Z</time></trkpt><trkpt lat="43.0009874" lon="13.4173711"><ele>429.33333333333337</ele><time>2026-04-12T09:36:34.054Z</time></trkpt><trkpt lat="43.0009291" lon="13.4174104"><ele>427.6666666666667</ele><time>2026-04-12T09:36:35.032Z</time></trkpt><trkpt lat="43.0008618" lon="13.4174214"><ele>426.0</ele><time>2026-04-12T09:36:36.026Z</time></trkpt><trkpt lat="43.0007925" lon="13.4174574"><ele>430.20000000000005</ele><time>2026-04-12T09:36:37.042Z</time></trkpt><trkpt lat="43.0007256" lon="13.4174649"><ele>434.40000000000003</ele><time>2026-04-12T09:36:38.043Z</time></trkpt><trkpt lat="43.0006111" lon="13.4175381"><ele>438.6</ele><time>2026-04-12T09:36:40.043Z</time></trkpt><trkpt lat="43.0005515" lon="13.4175934"><ele>442.8</ele><time>2026-04-12T09:36:41.048Z</time></trkpt><trkpt lat="43.0004603" lon="13.4176729"><ele>447.0</ele><time>2026-04-12T09:36:43.004Z</time></trkpt><trkpt lat="43.0003719" lon="13.4177934"><ele>447.0</ele><time>2026-04-12T09:36:44.994Z</time></trkpt><trkpt lat="43.0002549" lon="13.4178869"><ele>447.00000000000006</ele><time>2026-04-12T09:36:47.041Z</time></trkpt><trkpt lat="43.0001954" lon="13.4179376"><ele>447.00000000000006</ele><time>2026-04-12T09:36:48.054Z</time></trkpt><trkpt lat="43.0000727" lon="13.4180268"><ele>447.0</ele><time>2026-04-12T09:36:50.03Z</time></trkpt><trkpt lat="42.9999963" lon="13.4180838"><ele>447.0</ele><time>2026-04-12T09:36:51.033Z</time></trkpt><trkpt lat="42.9999311" lon="13.418129"><ele>446.0</ele><time>2026-04-12T09:36:52.004Z</time></trkpt><trkpt lat="42.9998614" lon="13.4181853"><ele>445.0</ele><time>2026-04-12T09:36:53.028Z</time></trkpt><trkpt lat="42.9997884" lon="13.4182382"><ele>444.0</ele><time>2026-04-12T09:36:54.038Z</time></trkpt><trkpt lat="42.999728" lon="13.4182869"><ele>443.0</ele><time>2026-04-12T09:36:55.012Z</time></trkpt><trkpt lat="42.9996143" lon="13.418354"><ele>442.0</ele><time>2026-04-12T09:36:57.042Z</time></trkpt><trkpt lat="42.9995495" lon="13.4183818"><ele>441.0</ele><time>2026-04-12T09:36:58.034Z</time></trkpt><trkpt lat="42.9994216" lon="13.4184438"><ele>441.0</ele><time>2026-04-12T09:37:00.029Z</time></trkpt><trkpt lat="42.9993374" lon="13.4184717"><ele>441.0</ele><time>2026-04-12T09:37:01.036Z</time></trkpt><trkpt lat="42.9992529" lon="13.4184743"><ele>441.0</ele><time>2026-04-12T09:37:02.044Z</time></trkpt><trkpt lat="42.9991747" lon="13.418467"><ele>441.0</ele><time>2026-04-12T09:37:03.04Z</time></trkpt><trkpt lat="42.9990874" lon="13.4184877"><ele>441.0</ele><time>2026-04-12T09:37:04.04Z</time></trkpt><trkpt lat="42.9990093" lon="13.4185128"><ele>441.0</ele><time>2026-04-12T09:37:05.052Z</time></trkpt><trkpt lat="42.9989282" lon="13.4185188"><ele>445.8</ele><time>2026-04-12T09:37:06.002Z</time></trkpt><trkpt lat="42.9988433" lon="13.418527"><ele>450.6</ele><time>2026-04-12T09:37:07.048Z</time></trkpt><trkpt lat="42.9987648" lon="13.4185615"><ele>455.4</ele><time>2026-04-12T09:37:08.034Z</time></trkpt><trkpt lat="42.9986769" lon="13.4185787"><ele>460.2</ele><time>2026-04-12T09:37:09.033Z</time></trkpt><trkpt lat="42.9986003" lon="13.4185843"><ele>465.0</ele><time>2026-04-12T09:37:10.067Z</time></trkpt><trkpt lat="42.9984779" lon="13.4186453"><ele>465.0</ele><time>2026-04-12T09:37:12.06Z</time></trkpt><trkpt lat="42.9983858" lon="13.4187009"><ele>465.0</ele><time>2026-04-12T09:37:14.062Z</time></trkpt><trkpt lat="42.9982972" lon="13.4187706"><ele>465.0</ele><time>2026-04-12T09:37:15.07Z</time></trkpt><trkpt lat="42.9981949" lon="13.4188526"><ele>465.0</ele><time>2026-04-12T09:37:16.079Z</time></trkpt><trkpt lat="42.998077" lon="13.4189693"><ele>465.33333333333337</ele><time>2026-04-12T09:37:17.063Z</time></trkpt><trkpt lat="42.997943" lon="13.4191148"><ele>465.6666666666667</ele><time>2026-04-12T09:37:18.057Z</time></trkpt><trkpt lat="42.9977982" lon="13.4192557"><ele>466.0</ele><time>2026-04-12T09:37:18.997Z</time></trkpt><trkpt lat="42.9976561" lon="13.4193831"><ele>466.0</ele><time>2026-04-12T09:37:20.031Z</time></trkpt><trkpt lat="42.9975196" lon="13.4194604"><ele>466.0</ele><time>2026-04-12T09:37:21.03Z</time></trkpt><trkpt lat="42.9973992" lon="13.419538"><ele>466.0</ele><time>2026-04-12T09:37:22.048Z</time></trkpt><trkpt lat="42.997299" lon="13.4195994"><ele>466.0</ele><time>2026-04-12T09:37:23.05Z</time></trkpt><trkpt lat="42.9972083" lon="13.4196323"><ele>467.5</ele><time>2026-04-12T09:37:24.05Z</time></trkpt><trkpt lat="42.9971064" lon="13.4196293"><ele>469.0</ele><time>2026-04-12T09:37:25.034Z</time></trkpt><trkpt lat="42.9969932" lon="13.4196215"><ele>470.5</ele><time>2026-04-12T09:37:26.04Z</time></trkpt><trkpt lat="42.9968647" lon="13.4196036"><ele>472.0</ele><time>2026-04-12T09:37:27.054Z</time></trkpt><trkpt lat="42.9967351" lon="13.4195742"><ele>472.0</ele><time>2026-04-12T09:37:28.035Z</time></trkpt><trkpt lat="42.9966269" lon="13.4195364"><ele>472.00000000000006</ele><time>2026-04-12T09:37:29.031Z</time></trkpt><trkpt lat="42.9965253" lon="13.4195106"><ele>472.00000000000006</ele><time>2026-04-12T09:37:30.047Z</time></trkpt><trkpt lat="42.9964223" lon="13.4195158"><ele>472.0</ele><time>2026-04-12T09:37:31.032Z</time></trkpt><trkpt lat="42.996334" lon="13.4195503"><ele>472.0</ele><time>2026-04-12T09:37:32.03Z</time></trkpt><trkpt lat="42.9962633" lon="13.4195764"><ele>472.0</ele><time>2026-04-12T09:37:33.036Z</time></trkpt><trkpt lat="42.9962005" lon="13.4196226"><ele>472.00000000000006</ele><time>2026-04-12T09:37:34.061Z</time></trkpt><trkpt lat="42.9961047" lon="13.4196742"><ele>472.00000000000006</ele><time>2026-04-12T09:37:35.033Z</time></trkpt><trkpt lat="42.9960028" lon="13.4197182"><ele>472.0</ele><time>2026-04-12T09:37:36.045Z</time></trkpt><trkpt lat="42.9959025" lon="13.4197387"><ele>472.0</ele><time>2026-04-12T09:37:37.033Z</time></trkpt><trkpt lat="42.9958243" lon="13.4197073"><ele>470.8</ele><time>2026-04-12T09:37:38.016Z</time></trkpt><trkpt lat="42.9957553" lon="13.4196153"><ele>469.6</ele><time>2026-04-12T09:37:39.026Z</time></trkpt><trkpt lat="42.9956965" lon="13.4195126"><ele>468.40000000000003</ele><time>2026-04-12T09:37:40.036Z</time></trkpt><trkpt lat="42.9956264" lon="13.4193984"><ele>467.20000000000005</ele><time>2026-04-12T09:37:41.029Z</time></trkpt><trkpt lat="42.9955368" lon="13.419305"><ele>466.0</ele><time>2026-04-12T09:37:42.049Z</time></trkpt><trkpt lat="42.9954331" lon="13.4192187"><ele>466.0</ele><time>2026-04-12T09:37:43.005Z</time></trkpt><trkpt lat="42.9953351" lon="13.4191433"><ele>466.0</ele><time>2026-04-12T09:37:44.029Z</time></trkpt><trkpt lat="42.9952218" lon="13.419068"><ele>466.0</ele><time>2026-04-12T09:37:45.017Z</time></trkpt><trkpt lat="42.9951006" lon="13.4189751"><ele>466.0</ele><time>2026-04-12T09:37:46.039Z</time></trkpt><trkpt lat="42.9949651" lon="13.4188636"><ele>467.6666666666667</ele><time>2026-04-12T09:37:47.041Z</time></trkpt><trkpt lat="42.9948264" lon="13.4187544"><ele>469.33333333333337</ele><time>2026-04-12T09:37:48.044Z</time></trkpt><trkpt lat="42.9946916" lon="13.4186745"><ele>471.0</ele><time>2026-04-12T09:37:49.034Z</time></trkpt><trkpt lat="42.9945538" lon="13.4186144"><ele>471.0</ele><time>2026-04-12T09:37:50.041Z</time></trkpt><trkpt lat="42.9944301" lon="13.4185615"><ele>471.0</ele><time>2026-04-12T09:37:51.04Z</time></trkpt><trkpt lat="42.9943109" lon="13.4185035"><ele>471.0</ele><time>2026-04-12T09:37:52.048Z</time></trkpt><trkpt lat="42.9942109" lon="13.4184166"><ele>471.0</ele><time>2026-04-12T09:37:53.041Z</time></trkpt><trkpt lat="42.9941314" lon="13.4183072"><ele>474.0</ele><time>2026-04-12T09:37:54.044Z</time></trkpt><trkpt lat="42.9940494" lon="13.4182044"><ele>477.0</ele><time>2026-04-12T09:37:55.046Z</time></trkpt><trkpt lat="42.9939699" lon="13.4180792"><ele>480.0</ele><time>2026-04-12T09:37:56.016Z</time></trkpt><trkpt lat="42.9939008" lon="13.4179573"><ele>483.0</ele><time>2026-04-12T09:37:57.035Z</time></trkpt><trkpt lat="42.993842" lon="13.4178261"><ele>483.0</ele><time>2026-04-12T09:37:58.049Z</time></trkpt><trkpt lat="42.9938181" lon="13.4176643"><ele>483.0</ele><time>2026-04-12T09:37:59.031Z</time></trkpt><trkpt lat="42.9937922" lon="13.4175014"><ele>483.0</ele><time>2026-04-12T09:38:00.048Z</time></trkpt><trkpt lat="42.9937647" lon="13.4173497"><ele>483.0</ele><time>2026-04-12T09:38:01.032Z</time></trkpt><trkpt lat="42.9937206" lon="13.4171863"><ele>483.0</ele><time>2026-04-12T09:38:02.052Z</time></trkpt><trkpt lat="42.993663" lon="13.417027"><ele>483.0</ele><time>2026-04-12T09:38:03.034Z</time></trkpt><trkpt lat="42.9935971" lon="13.4168676"><ele>483.0</ele><time>2026-04-12T09:38:04.047Z</time></trkpt><trkpt lat="42.9935485" lon="13.4167267"><ele>483.0</ele><time>2026-04-12T09:38:05.038Z</time></trkpt><trkpt lat="42.9935033" lon="13.4165893"><ele>483.0</ele><time>2026-04-12T09:38:06.042Z</time></trkpt><trkpt lat="42.9934668" lon="13.4164748"><ele>483.0</ele><time>2026-04-12T09:38:07.038Z</time></trkpt><trkpt lat="42.9934364" lon="13.4163901"><ele>483.0</ele><time>2026-04-12T09:38:08.024Z</time></trkpt><trkpt lat="42.993437" lon="13.4162568"><ele>483.0</ele><time>2026-04-12T09:38:10.048Z</time></trkpt><trkpt lat="42.9934925" lon="13.4161906"><ele>483.0</ele><time>2026-04-12T09:38:11.012Z</time></trkpt><trkpt lat="42.9935611" lon="13.4161277"><ele>483.0</ele><time>2026-04-12T09:38:12.038Z</time></trkpt><trkpt lat="42.9936295" lon="13.41609"><ele>484.5</ele><time>2026-04-12T09:38:13.037Z</time></trkpt><trkpt lat="42.9936977" lon="13.41606"><ele>486.0</ele><time>2026-04-12T09:38:13.987Z</time></trkpt><trkpt lat="42.9937645" lon="13.4160383"><ele>487.5</ele><time>2026-04-12T09:38:15.033Z</time></trkpt><trkpt lat="42.993875" lon="13.415959"><ele>489.0</ele><time>2026-04-12T09:38:17.036Z</time></trkpt><trkpt lat="42.9939271" lon="13.4158788"><ele>490.5</ele><time>2026-04-12T09:38:18.035Z</time></trkpt><trkpt lat="42.9939908" lon="13.4158223"><ele>492.0</ele><time>2026-04-12T09:38:19.04Z</time></trkpt><trkpt lat="42.9940441" lon="13.4157691"><ele>492.0</ele><time>2026-04-12T09:38:20.057Z</time></trkpt><trkpt lat="42.9940911" lon="13.4156846"><ele>492.0</ele><time>2026-04-12T09:38:21.036Z</time></trkpt><trkpt lat="42.9941231" lon="13.4155705"><ele>492.0</ele><time>2026-04-12T09:38:22.037Z</time></trkpt><trkpt lat="42.9941532" lon="13.415462"><ele>492.0</ele><time>2026-04-12T09:38:23.048Z</time></trkpt><trkpt lat="42.9941843" lon="13.4153599"><ele>492.0</ele><time>2026-04-12T09:38:24.026Z</time></trkpt><trkpt lat="42.9942107" lon="13.4152777"><ele>492.0</ele><time>2026-04-12T09:38:25.015Z</time></trkpt><trkpt lat="42.9942379" lon="13.4151996"><ele>489.0</ele><time>2026-04-12T09:38:26.034Z</time></trkpt><trkpt lat="42.9942841" lon="13.4150579"><ele>486.0</ele><time>2026-04-12T09:38:28.03Z</time></trkpt><trkpt lat="42.9942974" lon="13.4149445"><ele>483.0</ele><time>2026-04-12T09:38:30.012Z</time></trkpt><trkpt lat="42.9942915" lon="13.4148348"><ele>480.0</ele><time>2026-04-12T09:38:31.029Z</time></trkpt><trkpt lat="42.9942979" lon="13.4147479"><ele>477.0</ele><time>2026-04-12T09:38:32.049Z</time></trkpt><trkpt lat="42.9943049" lon="13.4146339"><ele>474.0</ele><time>2026-04-12T09:38:33.052Z</time></trkpt><trkpt lat="42.994305" lon="13.4145041"><ele>473.6</ele><time>2026-04-12T09:38:34.024Z</time></trkpt><trkpt lat="42.9943132" lon="13.4143545"><ele>473.2</ele><time>2026-04-12T09:38:35.029Z</time></trkpt><trkpt lat="42.9943243" lon="13.4141999"><ele>472.80000000000007</ele><time>2026-04-12T09:38:36.04Z</time></trkpt><trkpt lat="42.9943173" lon="13.4140549"><ele>472.40000000000003</ele><time>2026-04-12T09:38:37.065Z</time></trkpt><trkpt lat="42.9943075" lon="13.413904"><ele>472.0</ele><time>2026-04-12T09:38:38.049Z</time></trkpt><trkpt lat="42.994298" lon="13.4137407"><ele>471.1666666666667</ele><time>2026-04-12T09:38:39.026Z</time></trkpt><trkpt lat="42.994307" lon="13.4136035"><ele>470.33333333333337</ele><time>2026-04-12T09:38:40.053Z</time></trkpt><trkpt lat="42.9943239" lon="13.4135154"><ele>469.5</ele><time>2026-04-12T09:38:41.056Z</time></trkpt><trkpt lat="42.994364" lon="13.4134459"><ele>468.66666666666663</ele><time>2026-04-12T09:38:42.044Z</time></trkpt><trkpt lat="42.994414" lon="13.4133569"><ele>467.8333333333333</ele><time>2026-04-12T09:38:43.048Z</time></trkpt><trkpt lat="42.9944523" lon="13.4132817"><ele>467.0</ele><time>2026-04-12T09:38:44.033Z</time></trkpt><trkpt lat="42.9944919" lon="13.4131276"><ele>467.0</ele><time>2026-04-12T09:38:46.042Z</time></trkpt><trkpt lat="42.9944926" lon="13.4129971"><ele>467.00000000000006</ele><time>2026-04-12T09:38:47.046Z</time></trkpt><trkpt lat="42.9944937" lon="13.4128426"><ele>467.00000000000006</ele><time>2026-04-12T09:38:48.032Z</time></trkpt><trkpt lat="42.9944955" lon="13.4126829"><ele>467.0</ele><time>2026-04-12T09:38:49.036Z</time></trkpt><trkpt lat="42.9944815" lon="13.4125433"><ele>467.0</ele><time>2026-04-12T09:38:50.1Z</time></trkpt><trkpt lat="42.9944755" lon="13.41242"><ele>465.8571428571428</ele><time>2026-04-12T09:38:51.046Z</time></trkpt><trkpt lat="42.9944581" lon="13.4123096"><ele>464.71428571428567</ele><time>2026-04-12T09:38:52.05Z</time></trkpt><trkpt lat="42.9944411" lon="13.4122174"><ele>463.57142857142856</ele><time>2026-04-12T09:38:53.046Z</time></trkpt><trkpt lat="42.9944169" lon="13.4121218"><ele>462.4285714285714</ele><time>2026-04-12T09:38:54.022Z</time></trkpt><trkpt lat="42.9943936" lon="13.4120234"><ele>461.2857142857142</ele><time>2026-04-12T09:38:55.047Z</time></trkpt><trkpt lat="42.9943867" lon="13.4119336"><ele>460.14285714285717</ele><time>2026-04-12T09:38:56.054Z</time></trkpt><trkpt lat="42.994395" lon="13.4118367"><ele>459.0</ele><time>2026-04-12T09:38:57.019Z</time></trkpt><trkpt lat="42.9944097" lon="13.4117505"><ele>456.3333333333333</ele><time>2026-04-12T09:38:58.038Z</time></trkpt><trkpt lat="42.9944743" lon="13.411629"><ele>453.66666666666663</ele><time>2026-04-12T09:39:00.035Z</time></trkpt><trkpt lat="42.9945534" lon="13.4115002"><ele>451.0</ele><time>2026-04-12T09:39:02.043Z</time></trkpt><trkpt lat="42.9946031" lon="13.4114205"><ele>448.3333333333333</ele><time>2026-04-12T09:39:03.053Z</time></trkpt><trkpt lat="42.9946494" lon="13.4113612"><ele>445.66666666666663</ele><time>2026-04-12T09:39:04.055Z</time></trkpt><trkpt lat="42.994696" lon="13.4112957"><ele>443.0</ele><time>2026-04-12T09:39:05.069Z</time></trkpt><trkpt lat="42.99473" lon="13.4112163"><ele>440.59999999999997</ele><time>2026-04-12T09:39:06.044Z</time></trkpt><trkpt lat="42.9947902" lon="13.41107"><ele>438.19999999999993</ele><time>2026-04-12T09:39:08.033Z</time></trkpt><trkpt lat="42.9948236" lon="13.4109874"><ele>435.8</ele><time>2026-04-12T09:39:09.052Z</time></trkpt><trkpt lat="42.994881" lon="13.4108603"><ele>433.4</ele><time>2026-04-12T09:39:11.042Z</time></trkpt><trkpt lat="42.9949123" lon="13.4107268"><ele>431.0</ele><time>2026-04-12T09:39:13.073Z</time></trkpt><trkpt lat="42.9949363" lon="13.410645"><ele>431.0</ele><time>2026-04-12T09:39:15.049Z</time></trkpt><trkpt lat="42.9949975" lon="13.4105583"><ele>431.0</ele><time>2026-04-12T09:39:17.033Z</time></trkpt><trkpt lat="42.9950572" lon="13.4104648"><ele>431.0</ele><time>2026-04-12T09:39:19.046Z</time></trkpt><trkpt lat="42.9950865" lon="13.4103835"><ele>431.0</ele><time>2026-04-12T09:39:21.043Z</time></trkpt><trkpt lat="42.9952001" lon="13.4104275"><ele>431.0</ele><time>2026-04-12T09:39:24.039Z</time></trkpt><trkpt lat="42.995285" lon="13.4104687"><ele>427.66666666666663</ele><time>2026-04-12T09:39:25.03Z</time></trkpt><trkpt lat="42.9953767" lon="13.4104757"><ele>424.3333333333333</ele><time>2026-04-12T09:39:26.033Z</time></trkpt><trkpt lat="42.9954649" lon="13.4104549"><ele>421.0</ele><time>2026-04-12T09:39:27.055Z</time></trkpt><trkpt lat="42.9955492" lon="13.41043"><ele>417.66666666666663</ele><time>2026-04-12T09:39:28.038Z</time></trkpt><trkpt lat="42.9956114" lon="13.4103956"><ele>414.3333333333333</ele><time>2026-04-12T09:39:29.05Z</time></trkpt><trkpt lat="42.99568" lon="13.4103547"><ele>411.0</ele><time>2026-04-12T09:39:30.047Z</time></trkpt><trkpt lat="42.9957629" lon="13.4102658"><ele>411.20000000000005</ele><time>2026-04-12T09:39:32.037Z</time></trkpt><trkpt lat="42.9958389" lon="13.4101401"><ele>411.40000000000003</ele><time>2026-04-12T09:39:34.03Z</time></trkpt><trkpt lat="42.9959325" lon="13.4100421"><ele>411.6</ele><time>2026-04-12T09:39:36.036Z</time></trkpt><trkpt lat="42.9960302" lon="13.409996"><ele>411.8</ele><time>2026-04-12T09:39:38.049Z</time></trkpt><trkpt lat="42.9961082" lon="13.4099558"><ele>412.0</ele><time>2026-04-12T09:39:41.022Z</time></trkpt><trkpt lat="42.9961789" lon="13.4098899"><ele>412.00000000000006</ele><time>2026-04-12T09:39:43.057Z</time></trkpt><trkpt lat="42.9962727" lon="13.409817"><ele>412.0</ele><time>2026-04-12T09:39:45.034Z</time></trkpt><trkpt lat="42.9963406" lon="13.409795"><ele>412.0</ele><time>2026-04-12T09:39:46.039Z</time></trkpt><trkpt lat="42.9964127" lon="13.4097578"><ele>412.0</ele><time>2026-04-12T09:39:47.048Z</time></trkpt><trkpt lat="42.9964689" lon="13.4097144"><ele>412.00000000000006</ele><time>2026-04-12T09:39:48.046Z</time></trkpt><trkpt lat="42.9965596" lon="13.4096835"><ele>412.0</ele><time>2026-04-12T09:39:50.029Z</time></trkpt><trkpt lat="42.9966221" lon="13.4097141"><ele>409.6666666666667</ele><time>2026-04-12T09:39:51.044Z</time></trkpt><trkpt lat="42.996707" lon="13.4097543"><ele>407.33333333333337</ele><time>2026-04-12T09:39:53.057Z</time></trkpt><trkpt lat="42.9967889" lon="13.4097103"><ele>405.0</ele><time>2026-04-12T09:39:55.011Z</time></trkpt><trkpt lat="42.9968788" lon="13.4096129"><ele>402.66666666666663</ele><time>2026-04-12T09:39:57.037Z</time></trkpt><trkpt lat="42.9969185" lon="13.4095445"><ele>400.3333333333333</ele><time>2026-04-12T09:39:58.036Z</time></trkpt><trkpt lat="42.9969701" lon="13.4094752"><ele>398.0</ele><time>2026-04-12T09:39:59.028Z</time></trkpt><trkpt lat="42.9970193" lon="13.4094093"><ele>397.3333333333333</ele><time>2026-04-12T09:40:00.051Z</time></trkpt><trkpt lat="42.9970722" lon="13.4093405"><ele>396.66666666666663</ele><time>2026-04-12T09:40:01.023Z</time></trkpt><trkpt lat="42.9971269" lon="13.4092596"><ele>396.0</ele><time>2026-04-12T09:40:02.012Z</time></trkpt><trkpt lat="42.9971799" lon="13.4091913"><ele>395.33333333333337</ele><time>2026-04-12T09:40:03.029Z</time></trkpt><trkpt lat="42.9972441" lon="13.4091269"><ele>394.6666666666667</ele><time>2026-04-12T09:40:04.047Z</time></trkpt><trkpt lat="42.9973107" lon="13.4090553"><ele>394.0</ele><time>2026-04-12T09:40:05.053Z</time></trkpt><trkpt lat="42.9973772" lon="13.4089929"><ele>394.00000000000006</ele><time>2026-04-12T09:40:06.051Z</time></trkpt><trkpt lat="42.9974454" lon="13.4089307"><ele>394.0</ele><time>2026-04-12T09:40:07.04Z</time></trkpt><trkpt lat="42.9974781" lon="13.4088324"><ele>394.0</ele><time>2026-04-12T09:40:08.041Z</time></trkpt><trkpt lat="42.9975205" lon="13.408752"><ele>394.0</ele><time>2026-04-12T09:40:09.049Z</time></trkpt><trkpt lat="42.997583" lon="13.408669"><ele>394.00000000000006</ele><time>2026-04-12T09:40:10.04Z</time></trkpt><trkpt lat="42.9976337" lon="13.4086143"><ele>394.0</ele><time>2026-04-12T09:40:11.035Z</time></trkpt><trkpt lat="42.9976889" lon="13.4085631"><ele>391.2</ele><time>2026-04-12T09:40:12.048Z</time></trkpt><trkpt lat="42.9977596" lon="13.4085272"><ele>388.4</ele><time>2026-04-12T09:40:13.051Z</time></trkpt><trkpt lat="42.9978943" lon="13.4084683"><ele>385.6</ele><time>2026-04-12T09:40:15.052Z</time></trkpt><trkpt lat="42.9979722" lon="13.4084382"><ele>382.8</ele><time>2026-04-12T09:40:16.047Z</time></trkpt><trkpt lat="42.9980526" lon="13.4084076"><ele>380.0</ele><time>2026-04-12T09:40:17.041Z</time></trkpt><trkpt lat="42.998139" lon="13.4083926"><ele>380.0</ele><time>2026-04-12T09:40:18.029Z</time></trkpt><trkpt lat="42.9982076" lon="13.4083802"><ele>380.0</ele><time>2026-04-12T09:40:19.034Z</time></trkpt><trkpt lat="42.9983405" lon="13.4083759"><ele>380.0</ele><time>2026-04-12T09:40:21.031Z</time></trkpt><trkpt lat="42.9984077" lon="13.4083781"><ele>380.0</ele><time>2026-04-12T09:40:22.03Z</time></trkpt><trkpt lat="42.9984955" lon="13.4083694"><ele>380.0</ele><time>2026-04-12T09:40:23.038Z</time></trkpt><trkpt lat="42.998582" lon="13.408356"><ele>380.0</ele><time>2026-04-12T09:40:24.037Z</time></trkpt><trkpt lat="42.9986797" lon="13.4083001"><ele>378.5</ele><time>2026-04-12T09:40:25.049Z</time></trkpt><trkpt lat="42.9987565" lon="13.4082474"><ele>377.0</ele><time>2026-04-12T09:40:26.003Z</time></trkpt><trkpt lat="42.9988202" lon="13.4081956"><ele>375.5</ele><time>2026-04-12T09:40:27.034Z</time></trkpt><trkpt lat="42.9988836" lon="13.4081479"><ele>374.0</ele><time>2026-04-12T09:40:28.044Z</time></trkpt><trkpt lat="42.9989469" lon="13.4080955"><ele>372.5</ele><time>2026-04-12T09:40:29.045Z</time></trkpt><trkpt lat="42.9990129" lon="13.4080512"><ele>371.0</ele><time>2026-04-12T09:40:30.014Z</time></trkpt><trkpt lat="42.999076" lon="13.4080008"><ele>370.83333333333337</ele><time>2026-04-12T09:40:31.046Z</time></trkpt><trkpt lat="42.9991327" lon="13.4079221"><ele>370.6666666666667</ele><time>2026-04-12T09:40:31.988Z</time></trkpt><trkpt lat="42.9991889" lon="13.4078553"><ele>370.5</ele><time>2026-04-12T09:40:33.054Z</time></trkpt><trkpt lat="42.999242" lon="13.4077869"><ele>370.3333333333333</ele><time>2026-04-12T09:40:34.047Z</time></trkpt><trkpt lat="42.9993004" lon="13.4077317"><ele>370.16666666666663</ele><time>2026-04-12T09:40:35.047Z</time></trkpt><trkpt lat="42.9993759" lon="13.4076812"><ele>370.0</ele><time>2026-04-12T09:40:36.031Z</time></trkpt><trkpt lat="42.9994501" lon="13.4076283"><ele>370.0</ele><time>2026-04-12T09:40:37.001Z</time></trkpt><trkpt lat="42.9995281" lon="13.4075672"><ele>370.0</ele><time>2026-04-12T09:40:38.016Z</time></trkpt><trkpt lat="42.9995883" lon="13.4075235"><ele>370.0</ele><time>2026-04-12T09:40:39.04Z</time></trkpt><trkpt lat="42.9996518" lon="13.4074106"><ele>370.0</ele><time>2026-04-12T09:40:41.036Z</time></trkpt><trkpt lat="42.9996832" lon="13.4073242"><ele>370.0</ele><time>2026-04-12T09:40:42.035Z</time></trkpt><trkpt lat="42.9997423" lon="13.4071686"><ele>368.8</ele><time>2026-04-12T09:40:44.037Z</time></trkpt><trkpt lat="42.9997748" lon="13.4070943"><ele>367.6</ele><time>2026-04-12T09:40:45.038Z</time></trkpt><trkpt lat="42.9998679" lon="13.4070016"><ele>366.4</ele><time>2026-04-12T09:40:47.038Z</time></trkpt><trkpt lat="42.9999341" lon="13.4068739"><ele>365.2</ele><time>2026-04-12T09:40:49.049Z</time></trkpt><trkpt lat="43.0000042" lon="13.4068032"><ele>364.0</ele><time>2026-04-12T09:40:51.041Z</time></trkpt><trkpt lat="43.0000405" lon="13.4067079"><ele>364.0</ele><time>2026-04-12T09:40:54.059Z</time></trkpt><trkpt lat="42.9999455" lon="13.406754"><ele>364.0</ele><time>2026-04-12T09:40:57.031Z</time></trkpt><trkpt lat="42.9998844" lon="13.4067756"><ele>364.0</ele><time>2026-04-12T09:40:59.031Z</time></trkpt><trkpt lat="42.9998221" lon="13.4068082"><ele>364.0</ele><time>2026-04-12T09:41:01.033Z</time></trkpt><trkpt lat="42.9997608" lon="13.4068454"><ele>364.0</ele><time>2026-04-12T09:41:04.026Z</time></trkpt><trkpt lat="42.9996834" lon="13.4068545"><ele>364.0</ele><time>2026-04-12T09:41:07.021Z</time></trkpt><trkpt lat="42.9996002" lon="13.406833"><ele>364.0</ele><time>2026-04-12T09:41:11.035Z</time></trkpt><trkpt lat="42.9995388" lon="13.4068609"><ele>364.0</ele><time>2026-04-12T09:41:13.021Z</time></trkpt><trkpt lat="42.999472" lon="13.4068459"><ele>364.0</ele><time>2026-04-12T09:41:16.021Z</time></trkpt><trkpt lat="42.9993716" lon="13.4068605"><ele>364.0</ele><time>2026-04-12T09:41:19.027Z</time></trkpt><trkpt lat="42.9993068" lon="13.4068925"><ele>364.0</ele><time>2026-04-12T09:41:22.025Z</time></trkpt><trkpt lat="42.9992452" lon="13.4069323"><ele>364.0</ele><time>2026-04-12T09:41:28.03Z</time></trkpt><trkpt lat="42.9991654" lon="13.406939"><ele>364.57142857142856</ele><time>2026-04-12T09:41:34.017Z</time></trkpt><trkpt lat="42.9990986" lon="13.406984"><ele>365.1428571428571</ele><time>2026-04-12T09:41:37.049Z</time></trkpt><trkpt lat="42.9990245" lon="13.4070069"><ele>365.7142857142857</ele><time>2026-04-12T09:41:42.03Z</time></trkpt><trkpt lat="42.9989896" lon="13.4070888"><ele>366.2857142857143</ele><time>2026-04-12T09:41:46.046Z</time></trkpt><trkpt lat="42.998967" lon="13.4071767"><ele>366.85714285714283</ele><time>2026-04-12T09:41:50.044Z</time></trkpt><trkpt lat="42.9988811" lon="13.407179"><ele>367.42857142857144</ele><time>2026-04-12T09:41:53.036Z</time></trkpt><trkpt lat="42.998819" lon="13.4071636"><ele>368.0</ele><time>2026-04-12T09:41:55.046Z</time></trkpt><trkpt lat="42.9987484" lon="13.4071374"><ele>368.0</ele><time>2026-04-12T09:41:58.048Z</time></trkpt><trkpt lat="42.9985543" lon="13.4071494"><ele>368.0</ele><time>2026-04-12T09:42:00.007Z</time></trkpt><trkpt lat="42.998424" lon="13.4071629"><ele>368.0</ele><time>2026-04-12T09:42:01.033Z</time></trkpt><trkpt lat="42.9983599" lon="13.4071622"><ele>368.0</ele><time>2026-04-12T09:42:03.069Z</time></trkpt><trkpt lat="42.9982919" lon="13.4072071"><ele>368.5</ele><time>2026-04-12T09:42:04.969Z</time></trkpt><trkpt lat="42.9979966" lon="13.4072411"><ele>369.0</ele><time>2026-04-12T09:42:10.04Z</time></trkpt><trkpt lat="42.9979225" lon="13.407229"><ele>369.5</ele><time>2026-04-12T09:42:11.04Z</time></trkpt><trkpt lat="42.9978502" lon="13.4072491"><ele>370.0</ele><time>2026-04-12T09:42:13.021Z</time></trkpt><trkpt lat="42.9976108" lon="13.4073398"><ele>370.0</ele><time>2026-04-12T09:42:13.995Z</time></trkpt><trkpt lat="42.9975096" lon="13.4073705"><ele>370.0</ele><time>2026-04-12T09:42:16.054Z</time></trkpt><trkpt lat="42.9974443" lon="13.4074045"><ele>370.0</ele><time>2026-04-12T09:42:18.042Z</time></trkpt><trkpt lat="42.9973818" lon="13.4074445"><ele>370.0</ele><time>2026-04-12T09:42:21.042Z</time></trkpt><trkpt lat="42.99731" lon="13.4074801"><ele>370.0</ele><time>2026-04-12T09:42:23.036Z</time></trkpt><trkpt lat="42.997214" lon="13.4075178"><ele>370.0</ele><time>2026-04-12T09:42:25.054Z</time></trkpt><trkpt lat="42.997143" lon="13.4075514"><ele>370.0</ele><time>2026-04-12T09:42:27.032Z</time></trkpt><trkpt lat="42.9970608" lon="13.4075945"><ele>370.0</ele><time>2026-04-12T09:42:30.05Z</time></trkpt><trkpt lat="42.9969883" lon="13.4076305"><ele>370.0</ele><time>2026-04-12T09:42:32.044Z</time></trkpt><trkpt lat="42.9969126" lon="13.4076579"><ele>370.0</ele><time>2026-04-12T09:42:34.018Z</time></trkpt><trkpt lat="42.9968084" lon="13.4077192"><ele>370.0</ele><time>2026-04-12T09:42:37.046Z</time></trkpt><trkpt lat="42.9967317" lon="13.4077247"><ele>370.0</ele><time>2026-04-12T09:42:39.051Z</time></trkpt><trkpt lat="42.9966335" lon="13.4077541"><ele>370.4</ele><time>2026-04-12T09:42:41.039Z</time></trkpt><trkpt lat="42.9965596" lon="13.4078004"><ele>370.8</ele><time>2026-04-12T09:42:43.041Z</time></trkpt><trkpt lat="42.9964753" lon="13.4078338"><ele>371.20000000000005</ele><time>2026-04-12T09:42:45.036Z</time></trkpt><trkpt lat="42.9963287" lon="13.4077692"><ele>371.6</ele><time>2026-04-12T09:42:47.041Z</time></trkpt><trkpt lat="42.996235" lon="13.4077576"><ele>372.0</ele><time>2026-04-12T09:42:49.029Z</time></trkpt><trkpt lat="42.9961574" lon="13.407823"><ele>372.0</ele><time>2026-04-12T09:42:51.06Z</time></trkpt><trkpt lat="42.9960983" lon="13.4078644"><ele>372.0</ele><time>2026-04-12T09:42:52.04Z</time></trkpt><trkpt lat="42.9959546" lon="13.4078759"><ele>372.0</ele><time>2026-04-12T09:42:54.053Z</time></trkpt><trkpt lat="42.9958792" lon="13.4078164"><ele>372.0</ele><time>2026-04-12T09:42:57.041Z</time></trkpt><trkpt lat="42.9958551" lon="13.4077077"><ele>372.0</ele><time>2026-04-12T09:43:00.04Z</time></trkpt><trkpt lat="42.9957862" lon="13.4077032"><ele>372.0</ele><time>2026-04-12T09:43:02.033Z</time></trkpt><trkpt lat="42.995665" lon="13.4077548"><ele>372.3333333333333</ele><time>2026-04-12T09:43:04.043Z</time></trkpt><trkpt lat="42.9955739" lon="13.4077659"><ele>372.6666666666667</ele><time>2026-04-12T09:43:06.029Z</time></trkpt><trkpt lat="42.9954819" lon="13.4078149"><ele>373.0</ele><time>2026-04-12T09:43:08.046Z</time></trkpt><trkpt lat="42.9954195" lon="13.4078553"><ele>373.33333333333337</ele><time>2026-04-12T09:43:09.043Z</time></trkpt><trkpt lat="42.9953633" lon="13.4079077"><ele>373.6666666666667</ele><time>2026-04-12T09:43:10.043Z</time></trkpt><trkpt lat="42.9952812" lon="13.408009"><ele>374.0</ele><time>2026-04-12T09:43:12.04Z</time></trkpt><trkpt lat="42.9952011" lon="13.4081182"><ele>374.2</ele><time>2026-04-12T09:43:14.042Z</time></trkpt><trkpt lat="42.995154" lon="13.4082008"><ele>374.4</ele><time>2026-04-12T09:43:15.03Z</time></trkpt><trkpt lat="42.9950625" lon="13.4082871"><ele>374.6</ele><time>2026-04-12T09:43:17.034Z</time></trkpt><trkpt lat="42.9950578" lon="13.4081857"><ele>374.8</ele><time>2026-04-12T09:43:25.044Z</time></trkpt><trkpt lat="42.9950008" lon="13.4080778"><ele>375.0</ele><time>2026-04-12T09:43:27.037Z</time></trkpt><trkpt lat="42.994937" lon="13.4079387"><ele>375.0</ele><time>2026-04-12T09:43:29.054Z</time></trkpt><trkpt lat="42.9949117" lon="13.4078564"><ele>375.0</ele><time>2026-04-12T09:43:31.035Z</time></trkpt><trkpt lat="42.9948938" lon="13.4077403"><ele>375.0</ele><time>2026-04-12T09:43:33.043Z</time></trkpt><trkpt lat="42.9949045" lon="13.4076243"><ele>375.0</ele><time>2026-04-12T09:43:35.044Z</time></trkpt><trkpt lat="42.9949299" lon="13.40754"><ele>375.0</ele><time>2026-04-12T09:43:37.014Z</time></trkpt><trkpt lat="42.994871" lon="13.4074963"><ele>375.0</ele><time>2026-04-12T09:43:40.039Z</time></trkpt><trkpt lat="42.9947932" lon="13.4075051"><ele>375.0</ele><time>2026-04-12T09:43:42.01Z</time></trkpt><trkpt lat="42.9947152" lon="13.4075202"><ele>375.0</ele><time>2026-04-12T09:43:44.033Z</time></trkpt><trkpt lat="42.9946081" lon="13.4075626"><ele>375.0</ele><time>2026-04-12T09:43:46.048Z</time></trkpt><trkpt lat="42.9945464" lon="13.4076308"><ele>375.0</ele><time>2026-04-12T09:43:47.021Z</time></trkpt><trkpt lat="42.994486" lon="13.4076689"><ele>375.0</ele><time>2026-04-12T09:43:48.052Z</time></trkpt><trkpt lat="42.9944196" lon="13.4076736"><ele>375.0</ele><time>2026-04-12T09:43:50.044Z</time></trkpt><trkpt lat="42.9943379" lon="13.4075851"><ele>375.0</ele><time>2026-04-12T09:43:52.039Z</time></trkpt><trkpt lat="42.9942619" lon="13.4075244"><ele>375.0</ele><time>2026-04-12T09:43:54.037Z</time></trkpt><trkpt lat="42.9941862" lon="13.4074476"><ele>375.0</ele><time>2026-04-12T09:43:55.056Z</time></trkpt><trkpt lat="42.9941285" lon="13.4074037"><ele>375.0</ele><time>2026-04-12T09:43:56.044Z</time></trkpt><trkpt lat="42.9940699" lon="13.4073502"><ele>375.0</ele><time>2026-04-12T09:43:57.041Z</time></trkpt><trkpt lat="42.9940004" lon="13.4072926"><ele>375.0</ele><time>2026-04-12T09:43:58.056Z</time></trkpt><trkpt lat="42.993932" lon="13.4072492"><ele>375.0</ele><time>2026-04-12T09:43:59.058Z</time></trkpt><trkpt lat="42.993865" lon="13.4072176"><ele>376.2</ele><time>2026-04-12T09:44:00.043Z</time></trkpt><trkpt lat="42.9937766" lon="13.4072117"><ele>377.4</ele><time>2026-04-12T09:44:02.046Z</time></trkpt><trkpt lat="42.993709" lon="13.4071611"><ele>378.6</ele><time>2026-04-12T09:44:04.059Z</time></trkpt><trkpt lat="42.9936535" lon="13.4070933"><ele>379.8</ele><time>2026-04-12T09:44:05.04Z</time></trkpt><trkpt lat="42.9935384" lon="13.4069928"><ele>381.0</ele><time>2026-04-12T09:44:07.024Z</time></trkpt><trkpt lat="42.9934571" lon="13.4069374"><ele>383.6</ele><time>2026-04-12T09:44:08.016Z</time></trkpt><trkpt lat="42.9933952" lon="13.4068729"><ele>386.20000000000005</ele><time>2026-04-12T09:44:09.04Z</time></trkpt><trkpt lat="42.993354" lon="13.4068022"><ele>388.79999999999995</ele><time>2026-04-12T09:44:10.052Z</time></trkpt><trkpt lat="42.9932627" lon="13.4066869"><ele>391.4</ele><time>2026-04-12T09:44:12.039Z</time></trkpt><trkpt lat="42.9931457" lon="13.4066131"><ele>394.0</ele><time>2026-04-12T09:44:14.021Z</time></trkpt><trkpt lat="42.9930825" lon="13.4066167"><ele>396.1666666666667</ele><time>2026-04-12T09:44:15.009Z</time></trkpt><trkpt lat="42.9929881" lon="13.4066467"><ele>398.33333333333337</ele><time>2026-04-12T09:44:16.028Z</time></trkpt><trkpt lat="42.9929077" lon="13.4066703"><ele>400.5</ele><time>2026-04-12T09:44:17.012Z</time></trkpt><trkpt lat="42.9928101" lon="13.4067067"><ele>402.66666666666663</ele><time>2026-04-12T09:44:18.024Z</time></trkpt><trkpt lat="42.9927264" lon="13.4067259"><ele>404.8333333333333</ele><time>2026-04-12T09:44:19.02Z</time></trkpt><trkpt lat="42.9926476" lon="13.4067369"><ele>407.0</ele><time>2026-04-12T09:44:20.041Z</time></trkpt><trkpt lat="42.9925616" lon="13.4067452"><ele>410.99999999999994</ele><time>2026-04-12T09:44:21.045Z</time></trkpt><trkpt lat="42.9924717" lon="13.4067646"><ele>415.0</ele><time>2026-04-12T09:44:22.044Z</time></trkpt><trkpt lat="42.992386" lon="13.4067754"><ele>419.0</ele><time>2026-04-12T09:44:23.038Z</time></trkpt><trkpt lat="42.9922981" lon="13.4067918"><ele>423.0</ele><time>2026-04-12T09:44:24.041Z</time></trkpt><trkpt lat="42.9922114" lon="13.4068054"><ele>426.99999999999994</ele><time>2026-04-12T09:44:25.044Z</time></trkpt><trkpt lat="42.9921298" lon="13.4068382"><ele>431.0</ele><time>2026-04-12T09:44:26.01Z</time></trkpt><trkpt lat="42.992057" lon="13.40686"><ele>430.99999999999994</ele><time>2026-04-12T09:44:27.039Z</time></trkpt><trkpt lat="42.9919921" lon="13.4068813"><ele>431.0</ele><time>2026-04-12T09:44:28.061Z</time></trkpt><trkpt lat="42.9918637" lon="13.4069157"><ele>431.0</ele><time>2026-04-12T09:44:30.038Z</time></trkpt><trkpt lat="42.9917965" lon="13.406896"><ele>431.0</ele><time>2026-04-12T09:44:31.041Z</time></trkpt><trkpt lat="42.9917194" lon="13.4068929"><ele>430.99999999999994</ele><time>2026-04-12T09:44:32.04Z</time></trkpt><trkpt lat="42.9916555" lon="13.4069268"><ele>431.0</ele><time>2026-04-12T09:44:33.043Z</time></trkpt><trkpt lat="42.991586" lon="13.406961"><ele>437.20000000000005</ele><time>2026-04-12T09:44:34.038Z</time></trkpt><trkpt lat="42.9915102" lon="13.4069749"><ele>443.40000000000003</ele><time>2026-04-12T09:44:35.006Z</time></trkpt><trkpt lat="42.9914292" lon="13.4070202"><ele>449.6</ele><time>2026-04-12T09:44:36.038Z</time></trkpt><trkpt lat="42.9913173" lon="13.4070097"><ele>455.8</ele><time>2026-04-12T09:44:38.039Z</time></trkpt><trkpt lat="42.991236" lon="13.4069744"><ele>462.0</ele><time>2026-04-12T09:44:39.039Z</time></trkpt><trkpt lat="42.9911355" lon="13.4069591"><ele>462.0</ele><time>2026-04-12T09:44:40.044Z</time></trkpt><trkpt lat="42.9910294" lon="13.4069312"><ele>462.0</ele><time>2026-04-12T09:44:41.041Z</time></trkpt><trkpt lat="42.9909354" lon="13.4068976"><ele>462.0</ele><time>2026-04-12T09:44:42.036Z</time></trkpt><trkpt lat="42.9908441" lon="13.4068526"><ele>462.0</ele><time>2026-04-12T09:44:43.029Z</time></trkpt><trkpt lat="42.9907823" lon="13.4068168"><ele>462.0</ele><time>2026-04-12T09:44:44.033Z</time></trkpt><trkpt lat="42.9907056" lon="13.4068229"><ele>462.0</ele><time>2026-04-12T09:44:45.05Z</time></trkpt><trkpt lat="42.9906129" lon="13.4068227"><ele>465.40000000000003</ele><time>2026-04-12T09:44:46.042Z</time></trkpt><trkpt lat="42.9904915" lon="13.4068605"><ele>468.80000000000007</ele><time>2026-04-12T09:44:47.039Z</time></trkpt><trkpt lat="42.9904015" lon="13.4068762"><ele>472.2</ele><time>2026-04-12T09:44:48.023Z</time></trkpt><trkpt lat="42.9903369" lon="13.406903"><ele>475.6</ele><time>2026-04-12T09:44:49.043Z</time></trkpt><trkpt lat="42.9902952" lon="13.4070934"><ele>479.0</ele><time>2026-04-12T09:44:51.036Z</time></trkpt><trkpt lat="42.990263" lon="13.4072252"><ele>473.25</ele><time>2026-04-12T09:44:52.029Z</time></trkpt><trkpt lat="42.9902179" lon="13.4073285"><ele>467.5</ele><time>2026-04-12T09:44:53.017Z</time></trkpt><trkpt lat="42.9901006" lon="13.4074259"><ele>461.75</ele><time>2026-04-12T09:44:55.033Z</time></trkpt><trkpt lat="42.9899534" lon="13.4073992"><ele>456.0</ele><time>2026-04-12T09:44:57.049Z</time></trkpt><trkpt lat="42.9898638" lon="13.4073484"><ele>456.0</ele><time>2026-04-12T09:44:58.049Z</time></trkpt><trkpt lat="42.9897602" lon="13.4072896"><ele>456.0</ele><time>2026-04-12T09:44:59.046Z</time></trkpt><trkpt lat="42.9896656" lon="13.4072207"><ele>456.0</ele><time>2026-04-12T09:45:00.021Z</time></trkpt><trkpt lat="42.9895806" lon="13.4071564"><ele>456.0</ele><time>2026-04-12T09:45:01.042Z</time></trkpt><trkpt lat="42.9895147" lon="13.4071007"><ele>456.0</ele><time>2026-04-12T09:45:02.055Z</time></trkpt><trkpt lat="42.9894456" lon="13.4070327"><ele>458.5</ele><time>2026-04-12T09:45:03.037Z</time></trkpt><trkpt lat="42.9893874" lon="13.4069671"><ele>461.0</ele><time>2026-04-12T09:45:04.056Z</time></trkpt><trkpt lat="42.9893279" lon="13.4068996"><ele>463.5</ele><time>2026-04-12T09:45:05.055Z</time></trkpt><trkpt lat="42.989286" lon="13.4068288"><ele>466.0</ele><time>2026-04-12T09:45:06.04Z</time></trkpt><trkpt lat="42.9892439" lon="13.4067455"><ele>468.5</ele><time>2026-04-12T09:45:07.049Z</time></trkpt><trkpt lat="42.9891586" lon="13.4066077"><ele>471.0</ele><time>2026-04-12T09:45:09.047Z</time></trkpt><trkpt lat="42.9891018" lon="13.4065441"><ele>471.0</ele><time>2026-04-12T09:45:10.051Z</time></trkpt><trkpt lat="42.9890179" lon="13.4064499"><ele>471.0</ele><time>2026-04-12T09:45:12.05Z</time></trkpt><trkpt lat="42.9889758" lon="13.4063663"><ele>471.0</ele><time>2026-04-12T09:45:13.042Z</time></trkpt><trkpt lat="42.9889204" lon="13.4063091"><ele>471.0</ele><time>2026-04-12T09:45:14.053Z</time></trkpt><trkpt lat="42.9888694" lon="13.4062223"><ele>471.0</ele><time>2026-04-12T09:45:15.043Z</time></trkpt><trkpt lat="42.9887418" lon="13.4061608"><ele>475.8333333333333</ele><time>2026-04-12T09:45:17.031Z</time></trkpt><trkpt lat="42.9886754" lon="13.4061271"><ele>480.66666666666663</ele><time>2026-04-12T09:45:18.018Z</time></trkpt><trkpt lat="42.9886083" lon="13.4060748"><ele>485.5</ele><time>2026-04-12T09:45:19.044Z</time></trkpt><trkpt lat="42.9885052" lon="13.4059446"><ele>490.3333333333333</ele><time>2026-04-12T09:45:21.02Z</time></trkpt><trkpt lat="42.9884497" lon="13.4058759"><ele>495.16666666666663</ele><time>2026-04-12T09:45:22.029Z</time></trkpt><trkpt lat="42.9883984" lon="13.4058086"><ele>500.0</ele><time>2026-04-12T09:45:23.034Z</time></trkpt><trkpt lat="42.9883442" lon="13.4057421"><ele>501.8333333333333</ele><time>2026-04-12T09:45:24.011Z</time></trkpt><trkpt lat="42.9882872" lon="13.4056667"><ele>503.66666666666663</ele><time>2026-04-12T09:45:25.025Z</time></trkpt><trkpt lat="42.988232" lon="13.4055932"><ele>505.5</ele><time>2026-04-12T09:45:26.017Z</time></trkpt><trkpt lat="42.9881847" lon="13.4055328"><ele>507.33333333333337</ele><time>2026-04-12T09:45:27.024Z</time></trkpt><trkpt lat="42.9881161" lon="13.4054714"><ele>509.1666666666667</ele><time>2026-04-12T09:45:28.03Z</time></trkpt><trkpt lat="42.9880428" lon="13.4054331"><ele>511.0</ele><time>2026-04-12T09:45:29.033Z</time></trkpt><trkpt lat="42.987949" lon="13.4053942"><ele>511.0</ele><time>2026-04-12T09:45:30.035Z</time></trkpt><trkpt lat="42.9878354" lon="13.405358"><ele>511.0</ele><time>2026-04-12T09:45:31.027Z</time></trkpt><trkpt lat="42.9877381" lon="13.4053367"><ele>511.0</ele><time>2026-04-12T09:45:32.035Z</time></trkpt><trkpt lat="42.9876432" lon="13.4053237"><ele>511.0</ele><time>2026-04-12T09:45:33.049Z</time></trkpt><trkpt lat="42.9875399" lon="13.4053082"><ele>511.0</ele><time>2026-04-12T09:45:34.027Z</time></trkpt><trkpt lat="42.9874596" lon="13.4052856"><ele>510.00000000000006</ele><time>2026-04-12T09:45:35.032Z</time></trkpt><trkpt lat="42.9873958" lon="13.4052573"><ele>509.0</ele><time>2026-04-12T09:45:36.036Z</time></trkpt><trkpt lat="42.9872888" lon="13.4051979"><ele>508.0</ele><time>2026-04-12T09:45:38.044Z</time></trkpt><trkpt lat="42.9871678" lon="13.4052176"><ele>507.0</ele><time>2026-04-12T09:45:40.035Z</time></trkpt><trkpt lat="42.9870992" lon="13.4052289"><ele>506.00000000000006</ele><time>2026-04-12T09:45:41.032Z</time></trkpt><trkpt lat="42.9870655" lon="13.40515"><ele>505.0</ele><time>2026-04-12T09:45:45.036Z</time></trkpt><trkpt lat="42.9870733" lon="13.4050461"><ele>505.00000000000006</ele><time>2026-04-12T09:45:47.024Z</time></trkpt><trkpt lat="42.9871038" lon="13.4049657"><ele>505.0</ele><time>2026-04-12T09:45:48.015Z</time></trkpt><trkpt lat="42.9871564" lon="13.4048871"><ele>505.0</ele><time>2026-04-12T09:45:49.02Z</time></trkpt><trkpt lat="42.987191" lon="13.4047988"><ele>505.0</ele><time>2026-04-12T09:45:50.009Z</time></trkpt><trkpt lat="42.9872197" lon="13.404686"><ele>505.00000000000006</ele><time>2026-04-12T09:45:50.976Z</time></trkpt><trkpt lat="42.9872431" lon="13.4045632"><ele>505.0</ele><time>2026-04-12T09:45:51.996Z</time></trkpt><trkpt lat="42.9872855" lon="13.4044613"><ele>509.1666666666667</ele><time>2026-04-12T09:45:53.012Z</time></trkpt><trkpt lat="42.9873473" lon="13.40436"><ele>513.3333333333334</ele><time>2026-04-12T09:45:54.031Z</time></trkpt><trkpt lat="42.9874249" lon="13.4043035"><ele>517.5</ele><time>2026-04-12T09:45:55.027Z</time></trkpt><trkpt lat="42.9875196" lon="13.4042791"><ele>521.6666666666666</ele><time>2026-04-12T09:45:56.013Z</time></trkpt><trkpt lat="42.9876019" lon="13.4042801"><ele>525.8333333333333</ele><time>2026-04-12T09:45:57.031Z</time></trkpt><trkpt lat="42.9876793" lon="13.4042942"><ele>530.0</ele><time>2026-04-12T09:45:58.022Z</time></trkpt><trkpt lat="42.9877697" lon="13.4043139"><ele>531.1666666666666</ele><time>2026-04-12T09:45:59.037Z</time></trkpt><trkpt lat="42.9878561" lon="13.4043347"><ele>532.3333333333333</ele><time>2026-04-12T09:45:59.983Z</time></trkpt><trkpt lat="42.9879452" lon="13.4043518"><ele>533.5</ele><time>2026-04-12T09:46:00.999Z</time></trkpt><trkpt lat="42.9880151" lon="13.404369"><ele>534.6666666666666</ele><time>2026-04-12T09:46:02.035Z</time></trkpt><trkpt lat="42.9880894" lon="13.4043833"><ele>535.8333333333334</ele><time>2026-04-12T09:46:03.027Z</time></trkpt><trkpt lat="42.9881598" lon="13.4043861"><ele>537.0</ele><time>2026-04-12T09:46:04.032Z</time></trkpt><trkpt lat="42.9882737" lon="13.4044142"><ele>534.2</ele><time>2026-04-12T09:46:05.996Z</time></trkpt><trkpt lat="42.9883976" lon="13.4044443"><ele>531.4000000000001</ele><time>2026-04-12T09:46:08.029Z</time></trkpt><trkpt lat="42.9884685" lon="13.4044209"><ele>528.5999999999999</ele><time>2026-04-12T09:46:09.031Z</time></trkpt><trkpt lat="42.9885295" lon="13.4043955"><ele>525.8</ele><time>2026-04-12T09:46:10.041Z</time></trkpt><trkpt lat="42.9886494" lon="13.4043734"><ele>523.0</ele><time>2026-04-12T09:46:16.025Z</time></trkpt><trkpt lat="42.9887926" lon="13.4043815"><ele>523.0</ele><time>2026-04-12T09:46:27.033Z</time></trkpt><trkpt lat="42.9887855" lon="13.4042807"><ele>523.0</ele><time>2026-04-12T09:46:31.034Z</time></trkpt><trkpt lat="42.9886651" lon="13.4042102"><ele>523.0</ele><time>2026-04-12T09:46:33.03Z</time></trkpt><trkpt lat="42.988603" lon="13.4041737"><ele>523.0</ele><time>2026-04-12T09:46:34.01Z</time></trkpt><trkpt lat="42.9885081" lon="13.4041202"><ele>523.0</ele><time>2026-04-12T09:46:36.008Z</time></trkpt><trkpt lat="42.9884735" lon="13.4040445"><ele>523.0</ele><time>2026-04-12T09:46:37.04Z</time></trkpt><trkpt lat="42.988408" lon="13.4039382"><ele>525.3333333333334</ele><time>2026-04-12T09:46:38.043Z</time></trkpt><trkpt lat="42.9883407" lon="13.4038611"><ele>527.6666666666667</ele><time>2026-04-12T09:46:39.016Z</time></trkpt><trkpt lat="42.9882719" lon="13.4037968"><ele>530.0</ele><time>2026-04-12T09:46:40.037Z</time></trkpt><trkpt lat="42.9882063" lon="13.4037211"><ele>532.3333333333334</ele><time>2026-04-12T09:46:41.044Z</time></trkpt><trkpt lat="42.9881364" lon="13.4036379"><ele>534.6666666666666</ele><time>2026-04-12T09:46:42.013Z</time></trkpt><trkpt lat="42.9880616" lon="13.4035744"><ele>537.0</ele><time>2026-04-12T09:46:43.007Z</time></trkpt><trkpt lat="42.9879962" lon="13.4035211"><ele>542.0</ele><time>2026-04-12T09:46:44.035Z</time></trkpt><trkpt lat="42.9879288" lon="13.4034593"><ele>547.0</ele><time>2026-04-12T09:46:45.041Z</time></trkpt><trkpt lat="42.9878231" lon="13.4033841"><ele>552.0</ele><time>2026-04-12T09:46:46.038Z</time></trkpt><trkpt lat="42.9877366" lon="13.4033333"><ele>557.0</ele><time>2026-04-12T09:46:47.036Z</time></trkpt><trkpt lat="42.9876395" lon="13.4032605"><ele>562.0</ele><time>2026-04-12T09:46:48.032Z</time></trkpt><trkpt lat="42.9875376" lon="13.4031873"><ele>562.4</ele><time>2026-04-12T09:46:49.034Z</time></trkpt><trkpt lat="42.987443" lon="13.4031365"><ele>562.8000000000001</ele><time>2026-04-12T09:46:50.023Z</time></trkpt><trkpt lat="42.9873537" lon="13.403062"><ele>563.2</ele><time>2026-04-12T09:46:51.019Z</time></trkpt><trkpt lat="42.9872876" lon="13.4029902"><ele>563.6</ele><time>2026-04-12T09:46:52.039Z</time></trkpt><trkpt lat="42.9872249" lon="13.4029425"><ele>564.0</ele><time>2026-04-12T09:46:53.006Z</time></trkpt><trkpt lat="42.9871279" lon="13.4028797"><ele>570.4</ele><time>2026-04-12T09:46:54.029Z</time></trkpt><trkpt lat="42.9870366" lon="13.4028322"><ele>576.8</ele><time>2026-04-12T09:46:55.029Z</time></trkpt><trkpt lat="42.9869559" lon="13.4027832"><ele>583.2</ele><time>2026-04-12T09:46:56.016Z</time></trkpt><trkpt lat="42.9868608" lon="13.4027103"><ele>589.6</ele><time>2026-04-12T09:46:57.026Z</time></trkpt><trkpt lat="42.9867868" lon="13.4027592"><ele>596.0</ele><time>2026-04-12T09:46:58.04Z</time></trkpt><trkpt lat="42.9866977" lon="13.4027976"><ele>596.75</ele><time>2026-04-12T09:46:59.04Z</time></trkpt><trkpt lat="42.986561" lon="13.4028369"><ele>597.5</ele><time>2026-04-12T09:47:00.047Z</time></trkpt><trkpt lat="42.9864341" lon="13.4028893"><ele>598.25</ele><time>2026-04-12T09:47:01.033Z</time></trkpt><trkpt lat="42.9863104" lon="13.4029456"><ele>599.0</ele><time>2026-04-12T09:47:02.045Z</time></trkpt><trkpt lat="42.9861663" lon="13.4030295"><ele>594.0</ele><time>2026-04-12T09:47:03.017Z</time></trkpt><trkpt lat="42.9860258" lon="13.4031239"><ele>589.0</ele><time>2026-04-12T09:47:04.038Z</time></trkpt><trkpt lat="42.9859072" lon="13.4032227"><ele>584.0</ele><time>2026-04-12T09:47:05.057Z</time></trkpt><trkpt lat="42.9857825" lon="13.4032709"><ele>579.0</ele><time>2026-04-12T09:47:06.023Z</time></trkpt><trkpt lat="42.9856502" lon="13.403304"><ele>579.0</ele><time>2026-04-12T09:47:07.036Z</time></trkpt><trkpt lat="42.9855245" lon="13.403332"><ele>579.0</ele><time>2026-04-12T09:47:08.051Z</time></trkpt><trkpt lat="42.9853922" lon="13.4033012"><ele>579.0</ele><time>2026-04-12T09:47:09.042Z</time></trkpt><trkpt lat="42.9852668" lon="13.403232"><ele>579.0</ele><time>2026-04-12T09:47:10.029Z</time></trkpt><trkpt lat="42.9851333" lon="13.4031336"><ele>582.25</ele><time>2026-04-12T09:47:11.039Z</time></trkpt><trkpt lat="42.9849973" lon="13.403043"><ele>585.5</ele><time>2026-04-12T09:47:12.05Z</time></trkpt><trkpt lat="42.9848529" lon="13.402971"><ele>588.75</ele><time>2026-04-12T09:47:13.031Z</time></trkpt><trkpt lat="42.9847231" lon="13.4029073"><ele>592.0</ele><time>2026-04-12T09:47:14.044Z</time></trkpt><trkpt lat="42.9846063" lon="13.4028353"><ele>592.0</ele><time>2026-04-12T09:47:15.028Z</time></trkpt><trkpt lat="42.9845119" lon="13.4027342"><ele>592.0</ele><time>2026-04-12T09:47:16.027Z</time></trkpt><trkpt lat="42.9844152" lon="13.4026402"><ele>592.0</ele><time>2026-04-12T09:47:17.029Z</time></trkpt><trkpt lat="42.9843299" lon="13.4025646"><ele>592.0</ele><time>2026-04-12T09:47:18.02Z</time></trkpt><trkpt lat="42.9842621" lon="13.4025242"><ele>592.0</ele><time>2026-04-12T09:47:19.025Z</time></trkpt><trkpt lat="42.9841346" lon="13.4025385"><ele>592.0</ele><time>2026-04-12T09:47:21.023Z</time></trkpt><trkpt lat="42.9840813" lon="13.4025878"><ele>592.0</ele><time>2026-04-12T09:47:21.966Z</time></trkpt><trkpt lat="42.9841314" lon="13.4027498"><ele>592.0</ele><time>2026-04-12T09:47:23.968Z</time></trkpt><trkpt lat="42.9842074" lon="13.4028324"><ele>592.0</ele><time>2026-04-12T09:47:24.998Z</time></trkpt><trkpt lat="42.9843246" lon="13.4029415"><ele>592.0</ele><time>2026-04-12T09:47:26.007Z</time></trkpt><trkpt lat="42.9844494" lon="13.4030511"><ele>582.6666666666667</ele><time>2026-04-12T09:47:27.018Z</time></trkpt><trkpt lat="42.9845899" lon="13.4031632"><ele>573.3333333333334</ele><time>2026-04-12T09:47:27.971Z</time></trkpt><trkpt lat="42.9847184" lon="13.4032766"><ele>564.0</ele><time>2026-04-12T09:47:28.971Z</time></trkpt><trkpt lat="42.9848396" lon="13.403391"><ele>564.0</ele><time>2026-04-12T09:47:29.981Z</time></trkpt><trkpt lat="42.984939" lon="13.4034954"><ele>564.0</ele><time>2026-04-12T09:47:30.984Z</time></trkpt><trkpt lat="42.9850237" lon="13.403603"><ele>564.0</ele><time>2026-04-12T09:47:31.974Z</time></trkpt><trkpt lat="42.9850844" lon="13.4037322"><ele>564.0</ele><time>2026-04-12T09:47:33.003Z</time></trkpt><trkpt lat="42.9851253" lon="13.4038863"><ele>560.75</ele><time>2026-04-12T09:47:34.003Z</time></trkpt><trkpt lat="42.98514" lon="13.4040404"><ele>557.5</ele><time>2026-04-12T09:47:35.02Z</time></trkpt><trkpt lat="42.9851614" lon="13.4042018"><ele>554.25</ele><time>2026-04-12T09:47:36.008Z</time></trkpt><trkpt lat="42.9851954" lon="13.4043557"><ele>551.0</ele><time>2026-04-12T09:47:36.979Z</time></trkpt><trkpt lat="42.98525" lon="13.4044906"><ele>551.0</ele><time>2026-04-12T09:47:38.002Z</time></trkpt><trkpt lat="42.985325" lon="13.4046213"><ele>551.0</ele><time>2026-04-12T09:47:39.017Z</time></trkpt><trkpt lat="42.9854164" lon="13.4047415"><ele>551.0</ele><time>2026-04-12T09:47:40.029Z</time></trkpt><trkpt lat="42.985527" lon="13.4048553"><ele>551.0</ele><time>2026-04-12T09:47:41.044Z</time></trkpt><trkpt lat="42.9856425" lon="13.4049698"><ele>545.0</ele><time>2026-04-12T09:47:42.05Z</time></trkpt><trkpt lat="42.9857508" lon="13.4050865"><ele>539.0</ele><time>2026-04-12T09:47:43.028Z</time></trkpt><trkpt lat="42.9858397" lon="13.4051919"><ele>533.0</ele><time>2026-04-12T09:47:44.03Z</time></trkpt><trkpt lat="42.9859185" lon="13.405286"><ele>527.0</ele><time>2026-04-12T09:47:45.031Z</time></trkpt><trkpt lat="42.9860184" lon="13.4053628"><ele>525.6</ele><time>2026-04-12T09:47:46.037Z</time></trkpt><trkpt lat="42.9861197" lon="13.4054307"><ele>524.2</ele><time>2026-04-12T09:47:46.993Z</time></trkpt><trkpt lat="42.9862175" lon="13.4054957"><ele>522.8</ele><time>2026-04-12T09:47:48.033Z</time></trkpt><trkpt lat="42.986306" lon="13.4055459"><ele>521.4</ele><time>2026-04-12T09:47:49.055Z</time></trkpt><trkpt lat="42.9863768" lon="13.4056021"><ele>520.0</ele><time>2026-04-12T09:47:50.037Z</time></trkpt><trkpt lat="42.9864131" lon="13.4056756"><ele>517.8</ele><time>2026-04-12T09:47:50.984Z</time></trkpt><trkpt lat="42.9863815" lon="13.4057561"><ele>515.6</ele><time>2026-04-12T09:47:51.986Z</time></trkpt><trkpt lat="42.9862925" lon="13.4058102"><ele>513.4</ele><time>2026-04-12T09:47:53.027Z</time></trkpt><trkpt lat="42.9861894" lon="13.4058289"><ele>511.2</ele><time>2026-04-12T09:47:54.04Z</time></trkpt><trkpt lat="42.9860865" lon="13.4058011"><ele>509.0</ele><time>2026-04-12T09:47:55.038Z</time></trkpt><trkpt lat="42.9859704" lon="13.4057441"><ele>509.0</ele><time>2026-04-12T09:47:56.018Z</time></trkpt><trkpt lat="42.9858504" lon="13.4056777"><ele>509.0</ele><time>2026-04-12T09:47:57.028Z</time></trkpt><trkpt lat="42.9857239" lon="13.4055896"><ele>509.0</ele><time>2026-04-12T09:47:58.041Z</time></trkpt><trkpt lat="42.9855964" lon="13.4054697"><ele>509.0</ele><time>2026-04-12T09:47:59.054Z</time></trkpt><trkpt lat="42.9854638" lon="13.405337"><ele>515.0</ele><time>2026-04-12T09:48:00.05Z</time></trkpt><trkpt lat="42.9853231" lon="13.4052149"><ele>521.0</ele><time>2026-04-12T09:48:01.037Z</time></trkpt><trkpt lat="42.985174" lon="13.4051021"><ele>527.0</ele><time>2026-04-12T09:48:02.047Z</time></trkpt><trkpt lat="42.985039" lon="13.4050131"><ele>523.75</ele><time>2026-04-12T09:48:03.045Z</time></trkpt><trkpt lat="42.9849105" lon="13.4049483"><ele>520.5</ele><time>2026-04-12T09:48:04.041Z</time></trkpt><trkpt lat="42.9847741" lon="13.4049089"><ele>517.25</ele><time>2026-04-12T09:48:05.034Z</time></trkpt><trkpt lat="42.9846388" lon="13.4048951"><ele>514.0</ele><time>2026-04-12T09:48:06.027Z</time></trkpt><trkpt lat="42.9844916" lon="13.4048901"><ele>514.0</ele><time>2026-04-12T09:48:07.034Z</time></trkpt><trkpt lat="42.9843548" lon="13.404872"><ele>514.0</ele><time>2026-04-12T09:48:08.044Z</time></trkpt><trkpt lat="42.9842166" lon="13.404842"><ele>514.0</ele><time>2026-04-12T09:48:09.04Z</time></trkpt><trkpt lat="42.984059" lon="13.4047831"><ele>514.0</ele><time>2026-04-12T09:48:10.04Z</time></trkpt><trkpt lat="42.9839423" lon="13.4047176"><ele>514.8</ele><time>2026-04-12T09:48:11.063Z</time></trkpt><trkpt lat="42.9838318" lon="13.4046419"><ele>515.5999999999999</ele><time>2026-04-12T09:48:12.046Z</time></trkpt><trkpt lat="42.9837378" lon="13.4045605"><ele>516.4</ele><time>2026-04-12T09:48:13.062Z</time></trkpt><trkpt lat="42.9836652" lon="13.4044808"><ele>517.1999999999999</ele><time>2026-04-12T09:48:14.046Z</time></trkpt><trkpt lat="42.9835949" lon="13.4044173"><ele>518.0</ele><time>2026-04-12T09:48:15.029Z</time></trkpt><trkpt lat="42.9835225" lon="13.4043806"><ele>518.0</ele><time>2026-04-12T09:48:16.04Z</time></trkpt><trkpt lat="42.9834566" lon="13.4044035"><ele>518.0</ele><time>2026-04-12T09:48:17.023Z</time></trkpt><trkpt lat="42.9834049" lon="13.4045018"><ele>518.0</ele><time>2026-04-12T09:48:18.035Z</time></trkpt><trkpt lat="42.9833637" lon="13.404639"><ele>518.0</ele><time>2026-04-12T09:48:19Z</time></trkpt><trkpt lat="42.9833424" lon="13.4048005"><ele>518.0</ele><time>2026-04-12T09:48:20.019Z</time></trkpt><trkpt lat="42.9833394" lon="13.404986"><ele>512.5</ele><time>2026-04-12T09:48:21.029Z</time></trkpt><trkpt lat="42.9833459" lon="13.4051745"><ele>507.0</ele><time>2026-04-12T09:48:22.033Z</time></trkpt><trkpt lat="42.9833667" lon="13.4053691"><ele>501.5</ele><time>2026-04-12T09:48:23.002Z</time></trkpt><trkpt lat="42.9833884" lon="13.4055669"><ele>496.0</ele><time>2026-04-12T09:48:24.034Z</time></trkpt><trkpt lat="42.9833995" lon="13.4057382"><ele>494.4</ele><time>2026-04-12T09:48:25.04Z</time></trkpt><trkpt lat="42.9834013" lon="13.4058614"><ele>492.8</ele><time>2026-04-12T09:48:26.033Z</time></trkpt><trkpt lat="42.9833996" lon="13.4059611"><ele>491.19999999999993</ele><time>2026-04-12T09:48:27.033Z</time></trkpt><trkpt lat="42.983319" lon="13.4060508"><ele>489.59999999999997</ele><time>2026-04-12T09:48:29.033Z</time></trkpt><trkpt lat="42.983217" lon="13.4060329"><ele>488.0</ele><time>2026-04-12T09:48:30.049Z</time></trkpt><trkpt lat="42.9831006" lon="13.4059884"><ele>488.0</ele><time>2026-04-12T09:48:31.049Z</time></trkpt><trkpt lat="42.9829966" lon="13.405934"><ele>488.0</ele><time>2026-04-12T09:48:32.034Z</time></trkpt><trkpt lat="42.9828806" lon="13.405859"><ele>488.0</ele><time>2026-04-12T09:48:33.045Z</time></trkpt><trkpt lat="42.9827791" lon="13.4057491"><ele>488.0</ele><time>2026-04-12T09:48:34.024Z</time></trkpt><trkpt lat="42.9826819" lon="13.405642"><ele>488.0</ele><time>2026-04-12T09:48:35.041Z</time></trkpt><trkpt lat="42.9826037" lon="13.4055285"><ele>487.99999999999994</ele><time>2026-04-12T09:48:36.047Z</time></trkpt><trkpt lat="42.9825417" lon="13.4054069"><ele>487.99999999999994</ele><time>2026-04-12T09:48:37.053Z</time></trkpt><trkpt lat="42.9824905" lon="13.4052974"><ele>488.0</ele><time>2026-04-12T09:48:38.032Z</time></trkpt><trkpt lat="42.9824415" lon="13.405216"><ele>488.0</ele><time>2026-04-12T09:48:39.028Z</time></trkpt><trkpt lat="42.9823387" lon="13.4051651"><ele>486.99999999999994</ele><time>2026-04-12T09:48:41.041Z</time></trkpt><trkpt lat="42.9822824" lon="13.4052111"><ele>486.0</ele><time>2026-04-12T09:48:42.037Z</time></trkpt><trkpt lat="42.9822387" lon="13.4053276"><ele>485.0</ele><time>2026-04-12T09:48:43.025Z</time></trkpt><trkpt lat="42.9822204" lon="13.4054181"><ele>484.0</ele><time>2026-04-12T09:48:44.027Z</time></trkpt><trkpt lat="42.9822137" lon="13.4055502"><ele>482.99999999999994</ele><time>2026-04-12T09:48:45.032Z</time></trkpt><trkpt lat="42.9821936" lon="13.4056755"><ele>482.0</ele><time>2026-04-12T09:48:46.032Z</time></trkpt><trkpt lat="42.9821537" lon="13.4057817"><ele>482.0</ele><time>2026-04-12T09:48:47.043Z</time></trkpt><trkpt lat="42.9820877" lon="13.4058671"><ele>482.00000000000006</ele><time>2026-04-12T09:48:48.029Z</time></trkpt><trkpt lat="42.9819926" lon="13.4059132"><ele>482.00000000000006</ele><time>2026-04-12T09:48:49.042Z</time></trkpt><trkpt lat="42.9818909" lon="13.4059502"><ele>482.0</ele><time>2026-04-12T09:48:50.024Z</time></trkpt><trkpt lat="42.981794" lon="13.405994"><ele>482.0</ele><time>2026-04-12T09:48:51.032Z</time></trkpt><trkpt lat="42.9817087" lon="13.4060895"><ele>481.0</ele><time>2026-04-12T09:48:52.038Z</time></trkpt><trkpt lat="42.9816305" lon="13.4062085"><ele>480.00000000000006</ele><time>2026-04-12T09:48:53.038Z</time></trkpt><trkpt lat="42.98157" lon="13.4063474"><ele>479.00000000000006</ele><time>2026-04-12T09:48:54.037Z</time></trkpt><trkpt lat="42.9815167" lon="13.4064618"><ele>478.0</ele><time>2026-04-12T09:48:55.049Z</time></trkpt><trkpt lat="42.9814705" lon="13.4065473"><ele>477.0</ele><time>2026-04-12T09:48:56.04Z</time></trkpt><trkpt lat="42.9814013" lon="13.4065945"><ele>477.0</ele><time>2026-04-12T09:48:57.048Z</time></trkpt><trkpt lat="42.9813218" lon="13.406617"><ele>477.00000000000006</ele><time>2026-04-12T09:48:57.992Z</time></trkpt><trkpt lat="42.9812336" lon="13.4066044"><ele>477.00000000000006</ele><time>2026-04-12T09:48:59.019Z</time></trkpt><trkpt lat="42.9811376" lon="13.4065319"><ele>477.0</ele><time>2026-04-12T09:49:00.02Z</time></trkpt><trkpt lat="42.9810237" lon="13.4064507"><ele>477.0</ele><time>2026-04-12T09:49:01.024Z</time></trkpt><trkpt lat="42.9809011" lon="13.4063674"><ele>477.8</ele><time>2026-04-12T09:49:02.02Z</time></trkpt><trkpt lat="42.9807931" lon="13.4063175"><ele>478.6</ele><time>2026-04-12T09:49:03.037Z</time></trkpt><trkpt lat="42.9807031" lon="13.4062654"><ele>479.40000000000003</ele><time>2026-04-12T09:49:04.04Z</time></trkpt><trkpt lat="42.9806312" lon="13.4062543"><ele>480.20000000000005</ele><time>2026-04-12T09:49:05.048Z</time></trkpt><trkpt lat="42.9805616" lon="13.406315"><ele>481.0</ele><time>2026-04-12T09:49:06.03Z</time></trkpt><trkpt lat="42.9805058" lon="13.4064127"><ele>481.00000000000006</ele><time>2026-04-12T09:49:07.037Z</time></trkpt><trkpt lat="42.9804486" lon="13.4065509"><ele>481.0</ele><time>2026-04-12T09:49:08.042Z</time></trkpt><trkpt lat="42.9803869" lon="13.4066286"><ele>481.0</ele><time>2026-04-12T09:49:09.029Z</time></trkpt><trkpt lat="42.9803223" lon="13.406668"><ele>481.0</ele><time>2026-04-12T09:49:10.029Z</time></trkpt><trkpt lat="42.9802562" lon="13.4066804"><ele>481.00000000000006</ele><time>2026-04-12T09:49:11.006Z</time></trkpt><trkpt lat="42.9801762" lon="13.4066525"><ele>481.0</ele><time>2026-04-12T09:49:12.038Z</time></trkpt><trkpt lat="42.9800925" lon="13.4065822"><ele>481.0</ele><time>2026-04-12T09:49:13.01Z</time></trkpt><trkpt lat="42.980018" lon="13.4064848"><ele>481.0</ele><time>2026-04-12T09:49:14.036Z</time></trkpt><trkpt lat="42.9799378" lon="13.4063659"><ele>481.0</ele><time>2026-04-12T09:49:15.036Z</time></trkpt><trkpt lat="42.9798566" lon="13.4062302"><ele>481.0</ele><time>2026-04-12T09:49:16.026Z</time></trkpt><trkpt lat="42.9797823" lon="13.4061037"><ele>484.8</ele><time>2026-04-12T09:49:17.049Z</time></trkpt><trkpt lat="42.979741" lon="13.4059883"><ele>488.6</ele><time>2026-04-12T09:49:18.023Z</time></trkpt><trkpt lat="42.9797238" lon="13.4058571"><ele>492.4</ele><time>2026-04-12T09:49:19.034Z</time></trkpt><trkpt lat="42.9797062" lon="13.4057233"><ele>496.2</ele><time>2026-04-12T09:49:20.036Z</time></trkpt><trkpt lat="42.9796722" lon="13.4055909"><ele>500.0</ele><time>2026-04-12T09:49:21.041Z</time></trkpt><trkpt lat="42.9796196" lon="13.4054572"><ele>503.25</ele><time>2026-04-12T09:49:21.998Z</time></trkpt><trkpt lat="42.9795393" lon="13.405324"><ele>506.5</ele><time>2026-04-12T09:49:23.023Z</time></trkpt><trkpt lat="42.9794474" lon="13.4051894"><ele>509.75</ele><time>2026-04-12T09:49:24.055Z</time></trkpt><trkpt lat="42.979341" lon="13.4050284"><ele>513.0</ele><time>2026-04-12T09:49:25.03Z</time></trkpt><trkpt lat="42.9792268" lon="13.4048802"><ele>511.0</ele><time>2026-04-12T09:49:26.02Z</time></trkpt><trkpt lat="42.9791049" lon="13.4047597"><ele>509.0</ele><time>2026-04-12T09:49:27.017Z</time></trkpt><trkpt lat="42.9789895" lon="13.404635"><ele>507.0</ele><time>2026-04-12T09:49:28.029Z</time></trkpt><trkpt lat="42.9788756" lon="13.4045126"><ele>505.0</ele><time>2026-04-12T09:49:29.022Z</time></trkpt><trkpt lat="42.9787897" lon="13.4044053"><ele>510.2</ele><time>2026-04-12T09:49:30.008Z</time></trkpt><trkpt lat="42.9787037" lon="13.4043257"><ele>515.4</ele><time>2026-04-12T09:49:31.037Z</time></trkpt><trkpt lat="42.9786226" lon="13.4042696"><ele>520.6</ele><time>2026-04-12T09:49:31.995Z</time></trkpt><trkpt lat="42.9785404" lon="13.4042581"><ele>525.8</ele><time>2026-04-12T09:49:33.022Z</time></trkpt><trkpt lat="42.9784554" lon="13.4043002"><ele>531.0</ele><time>2026-04-12T09:49:34.037Z</time></trkpt><trkpt lat="42.978379" lon="13.4043877"><ele>530.4</ele><time>2026-04-12T09:49:35.028Z</time></trkpt><trkpt lat="42.9782883" lon="13.4045007"><ele>529.8</ele><time>2026-04-12T09:49:36.041Z</time></trkpt><trkpt lat="42.9781928" lon="13.4046075"><ele>529.1999999999999</ele><time>2026-04-12T09:49:36.98Z</time></trkpt><trkpt lat="42.9780946" lon="13.4046944"><ele>528.6</ele><time>2026-04-12T09:49:37.97Z</time></trkpt><trkpt lat="42.9780372" lon="13.4047783"><ele>528.0</ele><time>2026-04-12T09:49:38.985Z</time></trkpt><trkpt lat="42.9780041" lon="13.4048878"><ele>525.0</ele><time>2026-04-12T09:49:39.993Z</time></trkpt><trkpt lat="42.9779772" lon="13.4050106"><ele>522.0</ele><time>2026-04-12T09:49:40.971Z</time></trkpt><trkpt lat="42.9779693" lon="13.4051285"><ele>519.0</ele><time>2026-04-12T09:49:41.996Z</time></trkpt><trkpt lat="42.9779512" lon="13.4052247"><ele>516.0</ele><time>2026-04-12T09:49:42.996Z</time></trkpt><trkpt lat="42.9779065" lon="13.4053021"><ele>513.0</ele><time>2026-04-12T09:49:43.979Z</time></trkpt><trkpt lat="42.9778426" lon="13.4053525"><ele>510.0</ele><time>2026-04-12T09:49:45.011Z</time></trkpt><trkpt lat="42.9777621" lon="13.4053935"><ele>510.0</ele><time>2026-04-12T09:49:46.027Z</time></trkpt><trkpt lat="42.9776863" lon="13.4054238"><ele>510.0</ele><time>2026-04-12T09:49:47.016Z</time></trkpt><trkpt lat="42.9776097" lon="13.4054164"><ele>510.0</ele><time>2026-04-12T09:49:48.01Z</time></trkpt><trkpt lat="42.9775446" lon="13.4053588"><ele>510.0</ele><time>2026-04-12T09:49:49.023Z</time></trkpt><trkpt lat="42.97748" lon="13.4052893"><ele>510.0</ele><time>2026-04-12T09:49:50.007Z</time></trkpt><trkpt lat="42.9774031" lon="13.4052206"><ele>510.0</ele><time>2026-04-12T09:49:51.047Z</time></trkpt><trkpt lat="42.9773271" lon="13.4051872"><ele>513.6666666666666</ele><time>2026-04-12T09:49:52.021Z</time></trkpt><trkpt lat="42.9772478" lon="13.405185"><ele>517.3333333333334</ele><time>2026-04-12T09:49:53.024Z</time></trkpt><trkpt lat="42.9771722" lon="13.4052049"><ele>521.0</ele><time>2026-04-12T09:49:54.037Z</time></trkpt><trkpt lat="42.9771016" lon="13.4052162"><ele>524.6666666666667</ele><time>2026-04-12T09:49:55.029Z</time></trkpt><trkpt lat="42.977028" lon="13.4052276"><ele>528.3333333333334</ele><time>2026-04-12T09:49:56.051Z</time></trkpt><trkpt lat="42.9769236" lon="13.4052425"><ele>532.0</ele><time>2026-04-12T09:49:57.031Z</time></trkpt><trkpt lat="42.976788" lon="13.4052799"><ele>532.0</ele><time>2026-04-12T09:49:58.033Z</time></trkpt><trkpt lat="42.9766941" lon="13.4053523"><ele>532.0</ele><time>2026-04-12T09:49:59.031Z</time></trkpt><trkpt lat="42.9766171" lon="13.4053778"><ele>532.0</ele><time>2026-04-12T09:50:00.034Z</time></trkpt><trkpt lat="42.9765388" lon="13.4054111"><ele>532.0</ele><time>2026-04-12T09:50:01.053Z</time></trkpt><trkpt lat="42.9764465" lon="13.4053986"><ele>532.0</ele><time>2026-04-12T09:50:02.027Z</time></trkpt><trkpt lat="42.9763323" lon="13.4053429"><ele>535.25</ele><time>2026-04-12T09:50:03.003Z</time></trkpt><trkpt lat="42.9762065" lon="13.4052728"><ele>538.5</ele><time>2026-04-12T09:50:04.036Z</time></trkpt><trkpt lat="42.9760684" lon="13.405202"><ele>541.75</ele><time>2026-04-12T09:50:05.036Z</time></trkpt><trkpt lat="42.9759251" lon="13.4051221"><ele>545.0</ele><time>2026-04-12T09:50:06.04Z</time></trkpt><trkpt lat="42.9757863" lon="13.405057"><ele>546.5</ele><time>2026-04-12T09:50:07.049Z</time></trkpt><trkpt lat="42.9756674" lon="13.4050133"><ele>548.0</ele><time>2026-04-12T09:50:08.042Z</time></trkpt><trkpt lat="42.9755625" lon="13.4049817"><ele>549.5</ele><time>2026-04-12T09:50:09.051Z</time></trkpt><trkpt lat="42.9754646" lon="13.4049901"><ele>551.0</ele><time>2026-04-12T09:50:10.027Z</time></trkpt><trkpt lat="42.9753453" lon="13.4050249"><ele>551.0</ele><time>2026-04-12T09:50:11.039Z</time></trkpt><trkpt lat="42.9752388" lon="13.4050885"><ele>551.0</ele><time>2026-04-12T09:50:12.051Z</time></trkpt><trkpt lat="42.9751433" lon="13.4051912"><ele>551.0</ele><time>2026-04-12T09:50:13.053Z</time></trkpt><trkpt lat="42.9750587" lon="13.4052939"><ele>551.0</ele><time>2026-04-12T09:50:14.048Z</time></trkpt><trkpt lat="42.9749607" lon="13.4054393"><ele>550.0</ele><time>2026-04-12T09:50:15.046Z</time></trkpt><trkpt lat="42.974887" lon="13.4055617"><ele>549.0</ele><time>2026-04-12T09:50:16.04Z</time></trkpt><trkpt lat="42.9748222" lon="13.4056618"><ele>548.0</ele><time>2026-04-12T09:50:17.053Z</time></trkpt><trkpt lat="42.9747626" lon="13.4057308"><ele>547.0</ele><time>2026-04-12T09:50:18.052Z</time></trkpt><trkpt lat="42.9746763" lon="13.4058113"><ele>546.0</ele><time>2026-04-12T09:50:20.036Z</time></trkpt><trkpt lat="42.9746167" lon="13.405847"><ele>546.0</ele><time>2026-04-12T09:50:21.046Z</time></trkpt><trkpt lat="42.9745406" lon="13.4058995"><ele>546.0</ele><time>2026-04-12T09:50:22.028Z</time></trkpt><trkpt lat="42.9744318" lon="13.4059182"><ele>546.0</ele><time>2026-04-12T09:50:23.075Z</time></trkpt><trkpt lat="42.974308" lon="13.4059287"><ele>546.0</ele><time>2026-04-12T09:50:24.047Z</time></trkpt><trkpt lat="42.9741692" lon="13.405934"><ele>549.0</ele><time>2026-04-12T09:50:25.055Z</time></trkpt><trkpt lat="42.9740342" lon="13.4059042"><ele>552.0</ele><time>2026-04-12T09:50:26.046Z</time></trkpt><trkpt lat="42.9739143" lon="13.4058606"><ele>555.0</ele><time>2026-04-12T09:50:27.029Z</time></trkpt><trkpt lat="42.9738221" lon="13.4058216"><ele>558.0</ele><time>2026-04-12T09:50:28.056Z</time></trkpt><trkpt lat="42.9737341" lon="13.4058055"><ele>561.0</ele><time>2026-04-12T09:50:29.052Z</time></trkpt><trkpt lat="42.9736498" lon="13.4058064"><ele>561.0</ele><time>2026-04-12T09:50:30.053Z</time></trkpt><trkpt lat="42.9735698" lon="13.4058351"><ele>561.0</ele><time>2026-04-12T09:50:31.057Z</time></trkpt><trkpt lat="42.973505" lon="13.4059669"><ele>561.0</ele><time>2026-04-12T09:50:33.052Z</time></trkpt><trkpt lat="42.9735331" lon="13.4060689"><ele>561.0</ele><time>2026-04-12T09:50:34.051Z</time></trkpt><trkpt lat="42.973566" lon="13.4061504"><ele>561.0</ele><time>2026-04-12T09:50:35.047Z</time></trkpt><trkpt lat="42.9736222" lon="13.4062343"><ele>561.0</ele><time>2026-04-12T09:50:36.029Z</time></trkpt><trkpt lat="42.9737317" lon="13.4062876"><ele>557.2</ele><time>2026-04-12T09:50:37.025Z</time></trkpt><trkpt lat="42.9738576" lon="13.4063529"><ele>553.4000000000001</ele><time>2026-04-12T09:50:38.035Z</time></trkpt><trkpt lat="42.9739707" lon="13.4064238"><ele>549.6</ele><time>2026-04-12T09:50:39.018Z</time></trkpt><trkpt lat="42.9740584" lon="13.406465"><ele>545.8000000000001</ele><time>2026-04-12T09:50:40.008Z</time></trkpt><trkpt lat="42.9741329" lon="13.4064849"><ele>542.0</ele><time>2026-04-12T09:50:41.031Z</time></trkpt><trkpt lat="42.9742074" lon="13.4065151"><ele>542.0</ele><time>2026-04-12T09:50:42.042Z</time></trkpt><trkpt lat="42.974244" lon="13.406624"><ele>542.0</ele><time>2026-04-12T09:50:44.055Z</time></trkpt><trkpt lat="42.9741879" lon="13.4067038"><ele>542.0</ele><time>2026-04-12T09:50:45.031Z</time></trkpt><trkpt lat="42.9741049" lon="13.406728"><ele>542.0</ele><time>2026-04-12T09:50:46.029Z</time></trkpt><trkpt lat="42.9740167" lon="13.4067297"><ele>542.0</ele><time>2026-04-12T09:50:47.025Z</time></trkpt><trkpt lat="42.9739175" lon="13.4068405"><ele>542.0</ele><time>2026-04-12T09:50:49.004Z</time></trkpt><trkpt lat="42.9738717" lon="13.4069457"><ele>542.0</ele><time>2026-04-12T09:50:50.032Z</time></trkpt><trkpt lat="42.973836" lon="13.4070954"><ele>542.0</ele><time>2026-04-12T09:50:51.04Z</time></trkpt><trkpt lat="42.973797" lon="13.4072421"><ele>542.0</ele><time>2026-04-12T09:50:52.036Z</time></trkpt><trkpt lat="42.9737589" lon="13.4074006"><ele>542.0</ele><time>2026-04-12T09:50:53.048Z</time></trkpt><trkpt lat="42.9737165" lon="13.4075196"><ele>539.0</ele><time>2026-04-12T09:50:54.065Z</time></trkpt><trkpt lat="42.9736698" lon="13.4076251"><ele>536.0</ele><time>2026-04-12T09:50:55.015Z</time></trkpt><trkpt lat="42.9736107" lon="13.4077111"><ele>533.0</ele><time>2026-04-12T09:50:56.044Z</time></trkpt><trkpt lat="42.9735488" lon="13.4077909"><ele>530.0</ele><time>2026-04-12T09:50:57.054Z</time></trkpt><trkpt lat="42.9734616" lon="13.4078376"><ele>527.0</ele><time>2026-04-12T09:50:58.06Z</time></trkpt><trkpt lat="42.9733569" lon="13.4078613"><ele>527.0</ele><time>2026-04-12T09:50:59.069Z</time></trkpt><trkpt lat="42.9732453" lon="13.4078737"><ele>527.0</ele><time>2026-04-12T09:51:00.048Z</time></trkpt><trkpt lat="42.9731328" lon="13.4078744"><ele>527.0</ele><time>2026-04-12T09:51:01.06Z</time></trkpt><trkpt lat="42.9730228" lon="13.4078828"><ele>527.0</ele><time>2026-04-12T09:51:02.053Z</time></trkpt><trkpt lat="42.9729117" lon="13.4078945"><ele>527.0</ele><time>2026-04-12T09:51:03.053Z</time></trkpt><trkpt lat="42.9728086" lon="13.4079101"><ele>527.0</ele><time>2026-04-12T09:51:04.041Z</time></trkpt><trkpt lat="42.9727261" lon="13.407934"><ele>527.0</ele><time>2026-04-12T09:51:05.053Z</time></trkpt><trkpt lat="42.9726522" lon="13.4079721"><ele>527.0</ele><time>2026-04-12T09:51:06.046Z</time></trkpt><trkpt lat="42.97259" lon="13.4080217"><ele>527.0</ele><time>2026-04-12T09:51:07.047Z</time></trkpt><trkpt lat="42.9725405" lon="13.4080872"><ele>527.0</ele><time>2026-04-12T09:51:08.028Z</time></trkpt><trkpt lat="42.972504" lon="13.408191"><ele>527.0</ele><time>2026-04-12T09:51:09.058Z</time></trkpt><trkpt lat="42.9724718" lon="13.4083121"><ele>526.0</ele><time>2026-04-12T09:51:10.045Z</time></trkpt><trkpt lat="42.9724395" lon="13.4084581"><ele>525.0</ele><time>2026-04-12T09:51:11.057Z</time></trkpt><trkpt lat="42.9723976" lon="13.4086054"><ele>524.0</ele><time>2026-04-12T09:51:12.067Z</time></trkpt><trkpt lat="42.9723408" lon="13.4087543"><ele>523.0</ele><time>2026-04-12T09:51:13.056Z</time></trkpt><trkpt lat="42.97228" lon="13.4089053"><ele>522.5</ele><time>2026-04-12T09:51:14.046Z</time></trkpt><trkpt lat="42.9722165" lon="13.4090539"><ele>522.0</ele><time>2026-04-12T09:51:15.058Z</time></trkpt><trkpt lat="42.972159" lon="13.4092065"><ele>521.5</ele><time>2026-04-12T09:51:16.046Z</time></trkpt><trkpt lat="42.9720968" lon="13.4093549"><ele>521.0</ele><time>2026-04-12T09:51:17.047Z</time></trkpt><trkpt lat="42.9720317" lon="13.4094924"><ele>521.0</ele><time>2026-04-12T09:51:18.054Z</time></trkpt><trkpt lat="42.9719636" lon="13.4096291"><ele>521.0</ele><time>2026-04-12T09:51:19.052Z</time></trkpt><trkpt lat="42.9719107" lon="13.4097512"><ele>521.0</ele><time>2026-04-12T09:51:20.053Z</time></trkpt><trkpt lat="42.971862" lon="13.4098491"><ele>521.0</ele><time>2026-04-12T09:51:21.024Z</time></trkpt><trkpt lat="42.9718008" lon="13.409931"><ele>521.0</ele><time>2026-04-12T09:51:22.06Z</time></trkpt><trkpt lat="42.9717462" lon="13.4099925"><ele>521.0</ele><time>2026-04-12T09:51:23.041Z</time></trkpt><trkpt lat="42.9716827" lon="13.410112"><ele>521.0</ele><time>2026-04-12T09:51:25.052Z</time></trkpt><trkpt lat="42.9716368" lon="13.4102547"><ele>521.0</ele><time>2026-04-12T09:51:27.053Z</time></trkpt><trkpt lat="42.9716169" lon="13.4103798"><ele>521.0</ele><time>2026-04-12T09:51:29.044Z</time></trkpt><trkpt lat="42.971626" lon="13.4104706"><ele>521.0</ele><time>2026-04-12T09:51:30.052Z</time></trkpt><trkpt lat="42.9716868" lon="13.4105919"><ele>522.6</ele><time>2026-04-12T09:51:32.031Z</time></trkpt><trkpt lat="42.9717505" lon="13.4107117"><ele>524.2</ele><time>2026-04-12T09:51:34.038Z</time></trkpt><trkpt lat="42.9718108" lon="13.4108567"><ele>525.8</ele><time>2026-04-12T09:51:36.064Z</time></trkpt><trkpt lat="42.9718707" lon="13.411017"><ele>527.4</ele><time>2026-04-12T09:51:38.039Z</time></trkpt><trkpt lat="42.9719037" lon="13.4111073"><ele>529.0</ele><time>2026-04-12T09:51:39.029Z</time></trkpt><trkpt lat="42.9719282" lon="13.4112002"><ele>529.0</ele><time>2026-04-12T09:51:40.03Z</time></trkpt><trkpt lat="42.971946" lon="13.4113141"><ele>529.0</ele><time>2026-04-12T09:51:41.032Z</time></trkpt><trkpt lat="42.9719383" lon="13.4114114"><ele>529.0</ele><time>2026-04-12T09:51:42.04Z</time></trkpt><trkpt lat="42.9719191" lon="13.4115091"><ele>529.0</ele><time>2026-04-12T09:51:43.033Z</time></trkpt><trkpt lat="42.9718457" lon="13.4116525"><ele>529.0</ele><time>2026-04-12T09:51:45.04Z</time></trkpt><trkpt lat="42.9717254" lon="13.4117512"><ele>533.0</ele><time>2026-04-12T09:51:47.003Z</time></trkpt><trkpt lat="42.9716219" lon="13.4118372"><ele>537.0</ele><time>2026-04-12T09:51:49.036Z</time></trkpt><trkpt lat="42.9716414" lon="13.4120284"><ele>541.0</ele><time>2026-04-12T09:51:51.028Z</time></trkpt><trkpt lat="42.9716734" lon="13.41217"><ele>545.0</ele><time>2026-04-12T09:51:52.03Z</time></trkpt><trkpt lat="42.9716951" lon="13.412308"><ele>545.4</ele><time>2026-04-12T09:51:53.033Z</time></trkpt><trkpt lat="42.9717274" lon="13.4124509"><ele>545.8</ele><time>2026-04-12T09:51:54.046Z</time></trkpt><trkpt lat="42.971756" lon="13.4125656"><ele>546.2</ele><time>2026-04-12T09:51:55.03Z</time></trkpt><trkpt lat="42.9717939" lon="13.4126493"><ele>546.6</ele><time>2026-04-12T09:51:56.046Z</time></trkpt><trkpt lat="42.9718719" lon="13.4127827"><ele>547.0</ele><time>2026-04-12T09:51:58.054Z</time></trkpt><trkpt lat="42.9719436" lon="13.4128535"><ele>547.0</ele><time>2026-04-12T09:51:59.042Z</time></trkpt><trkpt lat="42.9720165" lon="13.4129721"><ele>547.0</ele><time>2026-04-12T09:52:01.043Z</time></trkpt><trkpt lat="42.9720822" lon="13.4130264"><ele>547.0</ele><time>2026-04-12T09:52:02.041Z</time></trkpt><trkpt lat="42.9721657" lon="13.4130907"><ele>547.0</ele><time>2026-04-12T09:52:04.048Z</time></trkpt><trkpt lat="42.972266" lon="13.4131097"><ele>547.0</ele><time>2026-04-12T09:52:05.052Z</time></trkpt><trkpt lat="42.9723492" lon="13.4131133"><ele>547.0</ele><time>2026-04-12T09:52:06.038Z</time></trkpt><trkpt lat="42.9724408" lon="13.4131273"><ele>547.0</ele><time>2026-04-12T09:52:07.039Z</time></trkpt><trkpt lat="42.972553" lon="13.4131494"><ele>547.0</ele><time>2026-04-12T09:52:08.055Z</time></trkpt><trkpt lat="42.9726389" lon="13.4132005"><ele>547.0</ele><time>2026-04-12T09:52:09.054Z</time></trkpt><trkpt lat="42.9727376" lon="13.4132975"><ele>547.0</ele><time>2026-04-12T09:52:10.058Z</time></trkpt><trkpt lat="42.9728116" lon="13.413395"><ele>547.4</ele><time>2026-04-12T09:52:11.04Z</time></trkpt><trkpt lat="42.9728859" lon="13.4134981"><ele>547.8000000000001</ele><time>2026-04-12T09:52:12.035Z</time></trkpt><trkpt lat="42.9729437" lon="13.4135765"><ele>548.2</ele><time>2026-04-12T09:52:13.056Z</time></trkpt><trkpt lat="42.9730177" lon="13.4136767"><ele>548.6</ele><time>2026-04-12T09:52:14.044Z</time></trkpt><trkpt lat="42.9730888" lon="13.4137836"><ele>549.0</ele><time>2026-04-12T09:52:15.063Z</time></trkpt><trkpt lat="42.9731414" lon="13.4138821"><ele>549.0</ele><time>2026-04-12T09:52:16.055Z</time></trkpt><trkpt lat="42.9731778" lon="13.4139847"><ele>549.0</ele><time>2026-04-12T09:52:17.049Z</time></trkpt><trkpt lat="42.9732018" lon="13.4141033"><ele>549.0</ele><time>2026-04-12T09:52:18.056Z</time></trkpt><trkpt lat="42.9732291" lon="13.4142211"><ele>549.0</ele><time>2026-04-12T09:52:19.048Z</time></trkpt><trkpt lat="42.9732659" lon="13.414317"><ele>549.0</ele><time>2026-04-12T09:52:20.003Z</time></trkpt><trkpt lat="42.9733283" lon="13.4144019"><ele>549.0</ele><time>2026-04-12T09:52:21.048Z</time></trkpt><trkpt lat="42.9734072" lon="13.4144781"><ele>547.5</ele><time>2026-04-12T09:52:22.046Z</time></trkpt><trkpt lat="42.9734805" lon="13.4145629"><ele>546.0</ele><time>2026-04-12T09:52:23.04Z</time></trkpt><trkpt lat="42.9735444" lon="13.4146442"><ele>544.5</ele><time>2026-04-12T09:52:24.033Z</time></trkpt><trkpt lat="42.9736058" lon="13.4147283"><ele>543.0</ele><time>2026-04-12T09:52:25.073Z</time></trkpt><trkpt lat="42.9736725" lon="13.414797"><ele>541.5</ele><time>2026-04-12T09:52:26.028Z</time></trkpt><trkpt lat="42.9737306" lon="13.4148518"><ele>540.0</ele><time>2026-04-12T09:52:27.032Z</time></trkpt><trkpt lat="42.9738314" lon="13.4148757"><ele>540.0</ele><time>2026-04-12T09:52:29.056Z</time></trkpt><trkpt lat="42.9738994" lon="13.4148756"><ele>540.0</ele><time>2026-04-12T09:52:30.04Z</time></trkpt><trkpt lat="42.9739653" lon="13.4148812"><ele>540.0</ele><time>2026-04-12T09:52:31.032Z</time></trkpt><trkpt lat="42.9740336" lon="13.4148793"><ele>540.0</ele><time>2026-04-12T09:52:32.029Z</time></trkpt><trkpt lat="42.9741544" lon="13.4148723"><ele>540.0</ele><time>2026-04-12T09:52:33.975Z</time></trkpt><trkpt lat="42.9742693" lon="13.4149004"><ele>540.0</ele><time>2026-04-12T09:52:36.031Z</time></trkpt><trkpt lat="42.9743374" lon="13.414947"><ele>537.3333333333334</ele><time>2026-04-12T09:52:37.025Z</time></trkpt><trkpt lat="42.9743502" lon="13.4150333"><ele>534.6666666666666</ele><time>2026-04-12T09:52:38.012Z</time></trkpt><trkpt lat="42.9743281" lon="13.4151829"><ele>532.0</ele><time>2026-04-12T09:52:40.032Z</time></trkpt><trkpt lat="42.9743322" lon="13.4152903"><ele>529.3333333333333</ele><time>2026-04-12T09:52:42.048Z</time></trkpt><trkpt lat="42.9744103" lon="13.415353"><ele>526.6666666666666</ele><time>2026-04-12T09:52:45.034Z</time></trkpt><trkpt lat="42.9745025" lon="13.4154085"><ele>524.0</ele><time>2026-04-12T09:52:47.03Z</time></trkpt><trkpt lat="42.9746035" lon="13.4154549"><ele>527.0</ele><time>2026-04-12T09:52:49.033Z</time></trkpt><trkpt lat="42.9746732" lon="13.4154872"><ele>530.0</ele><time>2026-04-12T09:52:50.029Z</time></trkpt><trkpt lat="42.974917" lon="13.415497"><ele>533.0</ele><time>2026-04-12T09:52:52.047Z</time></trkpt><trkpt lat="42.9750628" lon="13.4154494"><ele>533.0</ele><time>2026-04-12T09:52:53.994Z</time></trkpt><trkpt lat="42.9751454" lon="13.415342"><ele>533.0</ele><time>2026-04-12T09:52:55.009Z</time></trkpt><trkpt lat="42.9752268" lon="13.4152703"><ele>533.0</ele><time>2026-04-12T09:52:56.051Z</time></trkpt><trkpt lat="42.9752966" lon="13.4152061"><ele>533.0</ele><time>2026-04-12T09:52:57.026Z</time></trkpt><trkpt lat="42.9753608" lon="13.4151202"><ele>533.0</ele><time>2026-04-12T09:52:58.027Z</time></trkpt><trkpt lat="42.9754139" lon="13.4150176"><ele>533.0</ele><time>2026-04-12T09:52:59.024Z</time></trkpt><trkpt lat="42.9754703" lon="13.4149544"><ele>533.0</ele><time>2026-04-12T09:53:00.047Z</time></trkpt><trkpt lat="42.9755636" lon="13.4148669"><ele>533.0</ele><time>2026-04-12T09:53:01.027Z</time></trkpt><trkpt lat="42.9756483" lon="13.4148084"><ele>533.0</ele><time>2026-04-12T09:53:02.032Z</time></trkpt><trkpt lat="42.9757224" lon="13.414755"><ele>533.0</ele><time>2026-04-12T09:53:03.041Z</time></trkpt><trkpt lat="42.9757976" lon="13.4147145"><ele>533.0</ele><time>2026-04-12T09:53:04.047Z</time></trkpt><trkpt lat="42.9758699" lon="13.414691"><ele>532.1666666666666</ele><time>2026-04-12T09:53:05.034Z</time></trkpt><trkpt lat="42.9759586" lon="13.4146744"><ele>531.3333333333333</ele><time>2026-04-12T09:53:05.997Z</time></trkpt><trkpt lat="42.9760406" lon="13.4146769"><ele>530.5</ele><time>2026-04-12T09:53:07.002Z</time></trkpt><trkpt lat="42.9761245" lon="13.4147132"><ele>529.6666666666666</ele><time>2026-04-12T09:53:08.04Z</time></trkpt><trkpt lat="42.976207" lon="13.4147469"><ele>528.8333333333334</ele><time>2026-04-12T09:53:09.034Z</time></trkpt><trkpt lat="42.976304" lon="13.4147812"><ele>528.0</ele><time>2026-04-12T09:53:10.036Z</time></trkpt><trkpt lat="42.9763977" lon="13.414808"><ele>528.0</ele><time>2026-04-12T09:53:11.06Z</time></trkpt><trkpt lat="42.9764906" lon="13.4148339"><ele>528.0</ele><time>2026-04-12T09:53:12.027Z</time></trkpt><trkpt lat="42.9765678" lon="13.4148824"><ele>528.0</ele><time>2026-04-12T09:53:13.024Z</time></trkpt><trkpt lat="42.9766412" lon="13.4149443"><ele>528.0</ele><time>2026-04-12T09:53:14.036Z</time></trkpt><trkpt lat="42.9767197" lon="13.414988"><ele>528.0</ele><time>2026-04-12T09:53:15.057Z</time></trkpt><trkpt lat="42.9767646" lon="13.4150536"><ele>528.0</ele><time>2026-04-12T09:53:16.037Z</time></trkpt><trkpt lat="42.9768276" lon="13.4151015"><ele>524.25</ele><time>2026-04-12T09:53:17.032Z</time></trkpt><trkpt lat="42.9769662" lon="13.4151173"><ele>520.5</ele><time>2026-04-12T09:53:19.013Z</time></trkpt><trkpt lat="42.9771125" lon="13.4151029"><ele>516.75</ele><time>2026-04-12T09:53:20.029Z</time></trkpt><trkpt lat="42.9772578" lon="13.4150939"><ele>513.0</ele><time>2026-04-12T09:53:21.029Z</time></trkpt><trkpt lat="42.9773963" lon="13.4150915"><ele>513.0</ele><time>2026-04-12T09:53:22.027Z</time></trkpt><trkpt lat="42.9775019" lon="13.4150799"><ele>513.0</ele><time>2026-04-12T09:53:23.049Z</time></trkpt><trkpt lat="42.9775769" lon="13.4150488"><ele>513.0</ele><time>2026-04-12T09:53:24.047Z</time></trkpt><trkpt lat="42.977655" lon="13.4149791"><ele>513.0</ele><time>2026-04-12T09:53:25.041Z</time></trkpt><trkpt lat="42.9777095" lon="13.4149195"><ele>513.0</ele><time>2026-04-12T09:53:26.042Z</time></trkpt><trkpt lat="42.9777761" lon="13.4148912"><ele>513.0</ele><time>2026-04-12T09:53:27.056Z</time></trkpt><trkpt lat="42.9778423" lon="13.4148574"><ele>510.0</ele><time>2026-04-12T09:53:29.038Z</time></trkpt><trkpt lat="42.9778891" lon="13.4146763"><ele>506.99999999999994</ele><time>2026-04-12T09:53:31.027Z</time></trkpt><trkpt lat="42.9779087" lon="13.414558"><ele>503.99999999999994</ele><time>2026-04-12T09:53:32.011Z</time></trkpt><trkpt lat="42.9779376" lon="13.414449"><ele>501.0</ele><time>2026-04-12T09:53:33.032Z</time></trkpt><trkpt lat="42.9779742" lon="13.4143365"><ele>498.0</ele><time>2026-04-12T09:53:34.06Z</time></trkpt><trkpt lat="42.9780107" lon="13.4142471"><ele>498.0</ele><time>2026-04-12T09:53:35.022Z</time></trkpt><trkpt lat="42.9780659" lon="13.4141901"><ele>497.99999999999994</ele><time>2026-04-12T09:53:35.986Z</time></trkpt><trkpt lat="42.9781938" lon="13.4141689"><ele>497.99999999999994</ele><time>2026-04-12T09:53:38.034Z</time></trkpt><trkpt lat="42.9783063" lon="13.41417"><ele>498.0</ele><time>2026-04-12T09:53:40.032Z</time></trkpt><trkpt lat="42.9784068" lon="13.4141533"><ele>498.0</ele><time>2026-04-12T09:53:42.04Z</time></trkpt><trkpt lat="42.9784753" lon="13.4141492"><ele>497.1666666666667</ele><time>2026-04-12T09:53:43.055Z</time></trkpt><trkpt lat="42.9785401" lon="13.4141496"><ele>496.33333333333337</ele><time>2026-04-12T09:53:44.034Z</time></trkpt><trkpt lat="42.9786034" lon="13.4141414"><ele>495.5</ele><time>2026-04-12T09:53:45.041Z</time></trkpt><trkpt lat="42.9787331" lon="13.4141513"><ele>494.6666666666667</ele><time>2026-04-12T09:53:46.017Z</time></trkpt><trkpt lat="42.9788266" lon="13.4141336"><ele>493.83333333333337</ele><time>2026-04-12T09:53:47.049Z</time></trkpt><trkpt lat="42.9789224" lon="13.4141389"><ele>493.0</ele><time>2026-04-12T09:53:48.04Z</time></trkpt><trkpt lat="42.9790145" lon="13.4141356"><ele>493.00000000000006</ele><time>2026-04-12T09:53:49.045Z</time></trkpt><trkpt lat="42.9791047" lon="13.4141217"><ele>493.0</ele><time>2026-04-12T09:53:50.023Z</time></trkpt><trkpt lat="42.9791757" lon="13.414087"><ele>493.0</ele><time>2026-04-12T09:53:51.029Z</time></trkpt><trkpt lat="42.9792689" lon="13.414056"><ele>493.0</ele><time>2026-04-12T09:53:52.046Z</time></trkpt><trkpt lat="42.979355" lon="13.4140292"><ele>493.00000000000006</ele><time>2026-04-12T09:53:53.004Z</time></trkpt><trkpt lat="42.9794447" lon="13.4140116"><ele>493.0</ele><time>2026-04-12T09:53:54.048Z</time></trkpt><trkpt lat="42.9796102" lon="13.4139637"><ele>492.0</ele><time>2026-04-12T09:53:55.038Z</time></trkpt><trkpt lat="42.9797746" lon="13.4138977"><ele>491.0</ele><time>2026-04-12T09:53:56.049Z</time></trkpt><trkpt lat="42.9799456" lon="13.413832"><ele>490.0</ele><time>2026-04-12T09:53:57.019Z</time></trkpt><trkpt lat="42.9801107" lon="13.413772"><ele>486.33333333333337</ele><time>2026-04-12T09:53:58.033Z</time></trkpt><trkpt lat="42.9803329" lon="13.413722"><ele>482.66666666666663</ele><time>2026-04-12T09:53:59.039Z</time></trkpt><trkpt lat="42.9804849" lon="13.4136693"><ele>479.0</ele><time>2026-04-12T09:54:00.04Z</time></trkpt><trkpt lat="42.9806365" lon="13.4136662"><ele>479.0</ele><time>2026-04-12T09:54:01.033Z</time></trkpt><trkpt lat="42.980772" lon="13.4136759"><ele>479.0</ele><time>2026-04-12T09:54:02.034Z</time></trkpt><trkpt lat="42.9809134" lon="13.4136761"><ele>479.0</ele><time>2026-04-12T09:54:03.017Z</time></trkpt><trkpt lat="42.9810551" lon="13.4136895"><ele>479.0</ele><time>2026-04-12T09:54:04.03Z</time></trkpt><trkpt lat="42.9812159" lon="13.4137299"><ele>479.3333333333333</ele><time>2026-04-12T09:54:05.033Z</time></trkpt><trkpt lat="42.9814189" lon="13.4137545"><ele>479.66666666666663</ele><time>2026-04-12T09:54:06.039Z</time></trkpt><trkpt lat="42.9815764" lon="13.4137318"><ele>480.0</ele><time>2026-04-12T09:54:07.044Z</time></trkpt><trkpt lat="42.981719" lon="13.4137021"><ele>478.0</ele><time>2026-04-12T09:54:08.045Z</time></trkpt><trkpt lat="42.9818499" lon="13.4136604"><ele>476.0</ele><time>2026-04-12T09:54:09.044Z</time></trkpt><trkpt lat="42.9819655" lon="13.4136166"><ele>474.0</ele><time>2026-04-12T09:54:10.062Z</time></trkpt><trkpt lat="42.9820735" lon="13.4135884"><ele>472.0</ele><time>2026-04-12T09:54:11.04Z</time></trkpt><trkpt lat="42.9821745" lon="13.4135501"><ele>472.0</ele><time>2026-04-12T09:54:12.045Z</time></trkpt><trkpt lat="42.9822917" lon="13.4135472"><ele>472.00000000000006</ele><time>2026-04-12T09:54:13.039Z</time></trkpt><trkpt lat="42.9823753" lon="13.4135564"><ele>472.00000000000006</ele><time>2026-04-12T09:54:14.035Z</time></trkpt><trkpt lat="42.9824375" lon="13.4135701"><ele>472.0</ele><time>2026-04-12T09:54:15.038Z</time></trkpt><trkpt lat="42.982338" lon="13.4135463"><ele>472.0</ele><time>2026-04-12T09:54:29.056Z</time></trkpt><trkpt lat="42.9822118" lon="13.4135617"><ele>472.0</ele><time>2026-04-12T09:54:31.038Z</time></trkpt><trkpt lat="42.9820694" lon="13.4136205"><ele>472.00000000000006</ele><time>2026-04-12T09:54:33.036Z</time></trkpt><trkpt lat="42.9819801" lon="13.4136318"><ele>472.00000000000006</ele><time>2026-04-12T09:54:34.056Z</time></trkpt><trkpt lat="42.9818945" lon="13.413652"><ele>472.0</ele><time>2026-04-12T09:54:35.041Z</time></trkpt><trkpt lat="42.9818133" lon="13.4136712"><ele>472.0</ele><time>2026-04-12T09:54:36.052Z</time></trkpt><trkpt lat="42.9817226" lon="13.4136725"><ele>473.33333333333337</ele><time>2026-04-12T09:54:37.033Z</time></trkpt><trkpt lat="42.9816272" lon="13.413685"><ele>474.6666666666667</ele><time>2026-04-12T09:54:38.027Z</time></trkpt><trkpt lat="42.981538" lon="13.4137008"><ele>476.0</ele><time>2026-04-12T09:54:39.022Z</time></trkpt><trkpt lat="42.9814558" lon="13.413699"><ele>477.33333333333337</ele><time>2026-04-12T09:54:40.039Z</time></trkpt><trkpt lat="42.9813703" lon="13.4136989"><ele>478.6666666666667</ele><time>2026-04-12T09:54:41.034Z</time></trkpt><trkpt lat="42.9812819" lon="13.4137005"><ele>480.0</ele><time>2026-04-12T09:54:42.045Z</time></trkpt><trkpt lat="42.9812045" lon="13.4136936"><ele>480.0</ele><time>2026-04-12T09:54:43.033Z</time></trkpt><trkpt lat="42.9811234" lon="13.4136944"><ele>480.0</ele><time>2026-04-12T09:54:44.041Z</time></trkpt><trkpt lat="42.9810557" lon="13.4136824"><ele>480.0</ele><time>2026-04-12T09:54:45.034Z</time></trkpt><trkpt lat="42.9809815" lon="13.4136793"><ele>480.0</ele><time>2026-04-12T09:54:46.037Z</time></trkpt><trkpt lat="42.9809078" lon="13.4136701"><ele>480.0</ele><time>2026-04-12T09:54:47.037Z</time></trkpt><trkpt lat="42.9808294" lon="13.4136734"><ele>480.0</ele><time>2026-04-12T09:54:48.058Z</time></trkpt><trkpt lat="42.9807021" lon="13.4137003"><ele>479.8333333333333</ele><time>2026-04-12T09:54:50.033Z</time></trkpt><trkpt lat="42.980641" lon="13.4137412"><ele>479.66666666666663</ele><time>2026-04-12T09:54:51.045Z</time></trkpt><trkpt lat="42.9805611" lon="13.4137809"><ele>479.5</ele><time>2026-04-12T09:54:52.044Z</time></trkpt><trkpt lat="42.9804839" lon="13.4137985"><ele>479.3333333333333</ele><time>2026-04-12T09:54:53.035Z</time></trkpt><trkpt lat="42.9804008" lon="13.4138185"><ele>479.16666666666663</ele><time>2026-04-12T09:54:54.058Z</time></trkpt><trkpt lat="42.980318" lon="13.413829"><ele>479.0</ele><time>2026-04-12T09:54:55.001Z</time></trkpt><trkpt lat="42.9802355" lon="13.4138459"><ele>480.16666666666663</ele><time>2026-04-12T09:54:56.054Z</time></trkpt><trkpt lat="42.9801615" lon="13.4138628"><ele>481.3333333333333</ele><time>2026-04-12T09:54:57.053Z</time></trkpt><trkpt lat="42.9800783" lon="13.4138819"><ele>482.5</ele><time>2026-04-12T09:54:58.048Z</time></trkpt><trkpt lat="42.9799972" lon="13.4139024"><ele>483.66666666666663</ele><time>2026-04-12T09:54:59.044Z</time></trkpt><trkpt lat="42.9799093" lon="13.4139173"><ele>484.8333333333333</ele><time>2026-04-12T09:55:00.057Z</time></trkpt><trkpt lat="42.979827" lon="13.4139386"><ele>486.0</ele><time>2026-04-12T09:55:01.047Z</time></trkpt><trkpt lat="42.9797521" lon="13.4139393"><ele>486.57142857142856</ele><time>2026-04-12T09:55:02.044Z</time></trkpt><trkpt lat="42.9796756" lon="13.4139325"><ele>487.14285714285717</ele><time>2026-04-12T09:55:03.068Z</time></trkpt><trkpt lat="42.9796021" lon="13.4139347"><ele>487.7142857142857</ele><time>2026-04-12T09:55:04.048Z</time></trkpt><trkpt lat="42.9795238" lon="13.4139436"><ele>488.2857142857143</ele><time>2026-04-12T09:55:05.055Z</time></trkpt><trkpt lat="42.9794533" lon="13.4139652"><ele>488.8571428571429</ele><time>2026-04-12T09:55:06.05Z</time></trkpt><trkpt lat="42.9793855" lon="13.413995"><ele>489.42857142857144</ele><time>2026-04-12T09:55:07.076Z</time></trkpt><trkpt lat="42.9793137" lon="13.4140319"><ele>490.0</ele><time>2026-04-12T09:55:08.047Z</time></trkpt><trkpt lat="42.9792248" lon="13.4140621"><ele>490.6</ele><time>2026-04-12T09:55:09.024Z</time></trkpt><trkpt lat="42.9791333" lon="13.4141169"><ele>491.2</ele><time>2026-04-12T09:55:10.043Z</time></trkpt><trkpt lat="42.9790588" lon="13.4141384"><ele>491.79999999999995</ele><time>2026-04-12T09:55:11.019Z</time></trkpt><trkpt lat="42.9789777" lon="13.4141694"><ele>492.4</ele><time>2026-04-12T09:55:12.033Z</time></trkpt><trkpt lat="42.978881" lon="13.4141827"><ele>493.0</ele><time>2026-04-12T09:55:13.039Z</time></trkpt><trkpt lat="42.9787801" lon="13.4141988"><ele>493.00000000000006</ele><time>2026-04-12T09:55:14.018Z</time></trkpt><trkpt lat="42.9786717" lon="13.4141993"><ele>493.0</ele><time>2026-04-12T09:55:15.031Z</time></trkpt><trkpt lat="42.9785698" lon="13.4141825"><ele>493.0</ele><time>2026-04-12T09:55:16.033Z</time></trkpt><trkpt lat="42.9784836" lon="13.4141838"><ele>493.0</ele><time>2026-04-12T09:55:16.997Z</time></trkpt><trkpt lat="42.9784104" lon="13.4141947"><ele>493.00000000000006</ele><time>2026-04-12T09:55:18.051Z</time></trkpt><trkpt lat="42.9783382" lon="13.4142041"><ele>493.0</ele><time>2026-04-12T09:55:19.03Z</time></trkpt><trkpt lat="42.9782291" lon="13.4141995"><ele>492.83333333333337</ele><time>2026-04-12T09:55:20.045Z</time></trkpt><trkpt lat="42.9781304" lon="13.4142087"><ele>492.6666666666667</ele><time>2026-04-12T09:55:21.04Z</time></trkpt><trkpt lat="42.978057" lon="13.4142299"><ele>492.5</ele><time>2026-04-12T09:55:22.007Z</time></trkpt><trkpt lat="42.977995" lon="13.4142921"><ele>492.33333333333337</ele><time>2026-04-12T09:55:23.037Z</time></trkpt><trkpt lat="42.9779423" lon="13.4143966"><ele>492.1666666666667</ele><time>2026-04-12T09:55:24.028Z</time></trkpt><trkpt lat="42.9778971" lon="13.4145233"><ele>492.0</ele><time>2026-04-12T09:55:26.038Z</time></trkpt><trkpt lat="42.9778546" lon="13.4147053"><ele>492.0</ele><time>2026-04-12T09:55:28.022Z</time></trkpt><trkpt lat="42.9778309" lon="13.4148596"><ele>492.0</ele><time>2026-04-12T09:55:29.014Z</time></trkpt><trkpt lat="42.9778068" lon="13.415034"><ele>492.0</ele><time>2026-04-12T09:55:31.028Z</time></trkpt><trkpt lat="42.9777684" lon="13.4152241"><ele>492.0</ele><time>2026-04-12T09:55:33.029Z</time></trkpt><trkpt lat="42.9777477" lon="13.4153557"><ele>491.25</ele><time>2026-04-12T09:55:34.034Z</time></trkpt><trkpt lat="42.9776911" lon="13.415539"><ele>490.5</ele><time>2026-04-12T09:55:35.028Z</time></trkpt><trkpt lat="42.9776415" lon="13.4157057"><ele>489.75</ele><time>2026-04-12T09:55:36.051Z</time></trkpt><trkpt lat="42.9775922" lon="13.4159047"><ele>489.0</ele><time>2026-04-12T09:55:37.042Z</time></trkpt><trkpt lat="42.9775296" lon="13.4160851"><ele>494.25</ele><time>2026-04-12T09:55:38.04Z</time></trkpt><trkpt lat="42.9774717" lon="13.4162466"><ele>499.5</ele><time>2026-04-12T09:55:39.028Z</time></trkpt><trkpt lat="42.9774165" lon="13.4163958"><ele>504.75</ele><time>2026-04-12T09:55:40.056Z</time></trkpt><trkpt lat="42.9773583" lon="13.4165525"><ele>510.0</ele><time>2026-04-12T09:55:41.05Z</time></trkpt><trkpt lat="42.9772952" lon="13.4167024"><ele>510.0</ele><time>2026-04-12T09:55:42.04Z</time></trkpt><trkpt lat="42.9772326" lon="13.4168118"><ele>510.0</ele><time>2026-04-12T09:55:43.026Z</time></trkpt><trkpt lat="42.9771531" lon="13.4169114"><ele>510.0</ele><time>2026-04-12T09:55:44.047Z</time></trkpt><trkpt lat="42.977063" lon="13.416993"><ele>510.0</ele><time>2026-04-12T09:55:45.039Z</time></trkpt><trkpt lat="42.976962" lon="13.4170611"><ele>510.0</ele><time>2026-04-12T09:55:46.01Z</time></trkpt><trkpt lat="42.9768801" lon="13.417137"><ele>512.8</ele><time>2026-04-12T09:55:47.021Z</time></trkpt><trkpt lat="42.9768135" lon="13.4172137"><ele>515.6</ele><time>2026-04-12T09:55:48.027Z</time></trkpt><trkpt lat="42.9767514" lon="13.4172792"><ele>518.4</ele><time>2026-04-12T09:55:49.057Z</time></trkpt><trkpt lat="42.9766775" lon="13.4173226"><ele>521.2</ele><time>2026-04-12T09:55:50.033Z</time></trkpt><trkpt lat="42.9765958" lon="13.4173909"><ele>524.0</ele><time>2026-04-12T09:55:51.045Z</time></trkpt><trkpt lat="42.976518" lon="13.4174952"><ele>524.0</ele><time>2026-04-12T09:55:52.013Z</time></trkpt><trkpt lat="42.9764444" lon="13.417628"><ele>524.0</ele><time>2026-04-12T09:55:53.032Z</time></trkpt><trkpt lat="42.9763888" lon="13.417798"><ele>524.0</ele><time>2026-04-12T09:55:54.032Z</time></trkpt><trkpt lat="42.9763352" lon="13.417957"><ele>524.0</ele><time>2026-04-12T09:55:55.05Z</time></trkpt><trkpt lat="42.9762823" lon="13.4180989"><ele>522.8333333333333</ele><time>2026-04-12T09:55:56.031Z</time></trkpt><trkpt lat="42.9762521" lon="13.4181926"><ele>521.6666666666666</ele><time>2026-04-12T09:55:57.045Z</time></trkpt><trkpt lat="42.9762195" lon="13.4182743"><ele>520.5</ele><time>2026-04-12T09:55:58.031Z</time></trkpt><trkpt lat="42.9761731" lon="13.4183547"><ele>519.3333333333334</ele><time>2026-04-12T09:55:59.044Z</time></trkpt><trkpt lat="42.9761016" lon="13.4184223"><ele>518.1666666666667</ele><time>2026-04-12T09:56:00.053Z</time></trkpt><trkpt lat="42.9760128" lon="13.4184377"><ele>517.0</ele><time>2026-04-12T09:56:01.057Z</time></trkpt><trkpt lat="42.9759086" lon="13.4184452"><ele>520.0</ele><time>2026-04-12T09:56:02.037Z</time></trkpt><trkpt lat="42.975797" lon="13.4184296"><ele>523.0</ele><time>2026-04-12T09:56:03.039Z</time></trkpt><trkpt lat="42.9757025" lon="13.4184063"><ele>526.0</ele><time>2026-04-12T09:56:04.058Z</time></trkpt><trkpt lat="42.9756365" lon="13.4183685"><ele>529.0</ele><time>2026-04-12T09:56:05.036Z</time></trkpt><trkpt lat="42.9755074" lon="13.4183395"><ele>532.0</ele><time>2026-04-12T09:56:07.023Z</time></trkpt><trkpt lat="42.9755271" lon="13.4184827"><ele>532.0</ele><time>2026-04-12T09:56:11.064Z</time></trkpt><trkpt lat="42.9755862" lon="13.4185402"><ele>532.0</ele><time>2026-04-12T09:56:12.001Z</time></trkpt><trkpt lat="42.975662" lon="13.4186239"><ele>532.0</ele><time>2026-04-12T09:56:13.039Z</time></trkpt><trkpt lat="42.9757469" lon="13.4187261"><ele>532.0</ele><time>2026-04-12T09:56:14.019Z</time></trkpt><trkpt lat="42.9758333" lon="13.4188358"><ele>532.0</ele><time>2026-04-12T09:56:15.032Z</time></trkpt><trkpt lat="42.9759123" lon="13.4189507"><ele>530.8000000000001</ele><time>2026-04-12T09:56:16.048Z</time></trkpt><trkpt lat="42.9760024" lon="13.4190468"><ele>529.6</ele><time>2026-04-12T09:56:17.053Z</time></trkpt><trkpt lat="42.9760917" lon="13.419157"><ele>528.4000000000001</ele><time>2026-04-12T09:56:18.032Z</time></trkpt><trkpt lat="42.9761705" lon="13.41925"><ele>527.2</ele><time>2026-04-12T09:56:19.025Z</time></trkpt><trkpt lat="42.976225" lon="13.4193753"><ele>526.0</ele><time>2026-04-12T09:56:20.049Z</time></trkpt><trkpt lat="42.9762493" lon="13.4195116"><ele>530.0</ele><time>2026-04-12T09:56:21.033Z</time></trkpt><trkpt lat="42.976258" lon="13.4196618"><ele>534.0</ele><time>2026-04-12T09:56:22.037Z</time></trkpt><trkpt lat="42.9762666" lon="13.419808"><ele>538.0</ele><time>2026-04-12T09:56:23.053Z</time></trkpt><trkpt lat="42.976313" lon="13.4199507"><ele>542.0</ele><time>2026-04-12T09:56:24.024Z</time></trkpt><trkpt lat="42.9764273" lon="13.4200606"><ele>542.0</ele><time>2026-04-12T09:56:25.027Z</time></trkpt><trkpt lat="42.9765522" lon="13.4201523"><ele>542.0</ele><time>2026-04-12T09:56:26.036Z</time></trkpt><trkpt lat="42.9766646" lon="13.4202026"><ele>542.0</ele><time>2026-04-12T09:56:27.052Z</time></trkpt><trkpt lat="42.9768054" lon="13.4202309"><ele>542.0</ele><time>2026-04-12T09:56:28.052Z</time></trkpt><trkpt lat="42.9769506" lon="13.4202137"><ele>542.25</ele><time>2026-04-12T09:56:29.027Z</time></trkpt><trkpt lat="42.9770969" lon="13.4202194"><ele>542.5</ele><time>2026-04-12T09:56:30.029Z</time></trkpt><trkpt lat="42.9772235" lon="13.4202483"><ele>542.75</ele><time>2026-04-12T09:56:31.027Z</time></trkpt><trkpt lat="42.977319" lon="13.4202893"><ele>543.0</ele><time>2026-04-12T09:56:32.037Z</time></trkpt><trkpt lat="42.9774169" lon="13.4203382"><ele>543.0</ele><time>2026-04-12T09:56:33.044Z</time></trkpt><trkpt lat="42.9775012" lon="13.4204226"><ele>543.0</ele><time>2026-04-12T09:56:34.035Z</time></trkpt><trkpt lat="42.9775578" lon="13.4205383"><ele>543.0</ele><time>2026-04-12T09:56:34.984Z</time></trkpt><trkpt lat="42.9775792" lon="13.4206706"><ele>543.0</ele><time>2026-04-12T09:56:36.05Z</time></trkpt><trkpt lat="42.9775683" lon="13.420805"><ele>543.0</ele><time>2026-04-12T09:56:37.041Z</time></trkpt><trkpt lat="42.9775211" lon="13.4209517"><ele>546.0</ele><time>2026-04-12T09:56:38.044Z</time></trkpt><trkpt lat="42.9774733" lon="13.4211062"><ele>549.0</ele><time>2026-04-12T09:56:39.033Z</time></trkpt><trkpt lat="42.9774405" lon="13.4212586"><ele>552.0</ele><time>2026-04-12T09:56:40.045Z</time></trkpt><trkpt lat="42.977433" lon="13.4214117"><ele>555.0</ele><time>2026-04-12T09:56:41.059Z</time></trkpt><trkpt lat="42.9774476" lon="13.4215658"><ele>556.3333333333334</ele><time>2026-04-12T09:56:42.052Z</time></trkpt><trkpt lat="42.9774975" lon="13.4217143"><ele>557.6666666666667</ele><time>2026-04-12T09:56:43.028Z</time></trkpt><trkpt lat="42.9775836" lon="13.4218797"><ele>559.0</ele><time>2026-04-12T09:56:44.01Z</time></trkpt><trkpt lat="42.9776898" lon="13.4220896"><ele>557.3333333333334</ele><time>2026-04-12T09:56:45.046Z</time></trkpt><trkpt lat="42.9778078" lon="13.4223303"><ele>555.6666666666666</ele><time>2026-04-12T09:56:46.043Z</time></trkpt><trkpt lat="42.9779177" lon="13.4225861"><ele>554.0</ele><time>2026-04-12T09:56:47.037Z</time></trkpt><trkpt lat="42.9780217" lon="13.4228404"><ele>557.6666666666666</ele><time>2026-04-12T09:56:48.06Z</time></trkpt><trkpt lat="42.9781034" lon="13.4231131"><ele>561.3333333333334</ele><time>2026-04-12T09:56:49.049Z</time></trkpt><trkpt lat="42.9781824" lon="13.4233553"><ele>565.0</ele><time>2026-04-12T09:56:50.046Z</time></trkpt><trkpt lat="42.9782333" lon="13.4235925"><ele>565.0</ele><time>2026-04-12T09:56:51.032Z</time></trkpt><trkpt lat="42.9782824" lon="13.4238104"><ele>565.0</ele><time>2026-04-12T09:56:52.058Z</time></trkpt><trkpt lat="42.97833" lon="13.4239868"><ele>565.0</ele><time>2026-04-12T09:56:53.048Z</time></trkpt><trkpt lat="42.9783849" lon="13.4241151"><ele>565.0</ele><time>2026-04-12T09:56:54.04Z</time></trkpt><trkpt lat="42.9784665" lon="13.4242189"><ele>568.75</ele><time>2026-04-12T09:56:55.058Z</time></trkpt><trkpt lat="42.9785782" lon="13.424298"><ele>572.5</ele><time>2026-04-12T09:56:56.046Z</time></trkpt><trkpt lat="42.9786679" lon="13.4243573"><ele>576.25</ele><time>2026-04-12T09:56:57.05Z</time></trkpt><trkpt lat="42.9787675" lon="13.4243563"><ele>580.0</ele><time>2026-04-12T09:56:58.026Z</time></trkpt><trkpt lat="42.9788895" lon="13.4243078"><ele>580.0</ele><time>2026-04-12T09:56:59.041Z</time></trkpt><trkpt lat="42.9790022" lon="13.4242283"><ele>580.0</ele><time>2026-04-12T09:57:00.054Z</time></trkpt><trkpt lat="42.9790664" lon="13.424098"><ele>580.0</ele><time>2026-04-12T09:57:00.995Z</time></trkpt><trkpt lat="42.9791268" lon="13.4239571"><ele>580.0</ele><time>2026-04-12T09:57:02.038Z</time></trkpt><trkpt lat="42.9791779" lon="13.4238115"><ele>579.4</ele><time>2026-04-12T09:57:03.038Z</time></trkpt><trkpt lat="42.9792272" lon="13.4236887"><ele>578.8</ele><time>2026-04-12T09:57:04.045Z</time></trkpt><trkpt lat="42.9792989" lon="13.4235901"><ele>578.2</ele><time>2026-04-12T09:57:04.985Z</time></trkpt><trkpt lat="42.9793989" lon="13.4235299"><ele>577.6</ele><time>2026-04-12T09:57:06.058Z</time></trkpt><trkpt lat="42.979499" lon="13.4235232"><ele>577.0</ele><time>2026-04-12T09:57:07.045Z</time></trkpt><trkpt lat="42.979607" lon="13.4235481"><ele>577.0</ele><time>2026-04-12T09:57:08.047Z</time></trkpt><trkpt lat="42.9797046" lon="13.4236275"><ele>577.0</ele><time>2026-04-12T09:57:09.041Z</time></trkpt><trkpt lat="42.9797753" lon="13.4237338"><ele>577.0</ele><time>2026-04-12T09:57:10.043Z</time></trkpt><trkpt lat="42.9798325" lon="13.4238645"><ele>577.0</ele><time>2026-04-12T09:57:11.041Z</time></trkpt><trkpt lat="42.9798841" lon="13.4240161"><ele>578.25</ele><time>2026-04-12T09:57:12.048Z</time></trkpt><trkpt lat="42.9799445" lon="13.4241658"><ele>579.5</ele><time>2026-04-12T09:57:13.027Z</time></trkpt><trkpt lat="42.9800282" lon="13.4243094"><ele>580.75</ele><time>2026-04-12T09:57:14.012Z</time></trkpt><trkpt lat="42.9801292" lon="13.4244648"><ele>582.0</ele><time>2026-04-12T09:57:15.042Z</time></trkpt><trkpt lat="42.9802624" lon="13.4246026"><ele>579.3333333333334</ele><time>2026-04-12T09:57:16.046Z</time></trkpt><trkpt lat="42.9804166" lon="13.4247134"><ele>576.6666666666667</ele><time>2026-04-12T09:57:17.052Z</time></trkpt><trkpt lat="42.980578" lon="13.4248068"><ele>574.0</ele><time>2026-04-12T09:57:18.033Z</time></trkpt><trkpt lat="42.9807449" lon="13.4248911"><ele>571.0</ele><time>2026-04-12T09:57:19.035Z</time></trkpt><trkpt lat="42.9809106" lon="13.4249456"><ele>568.0</ele><time>2026-04-12T09:57:20.034Z</time></trkpt><trkpt lat="42.9810516" lon="13.4249833"><ele>565.0</ele><time>2026-04-12T09:57:21.038Z</time></trkpt><trkpt lat="42.9811797" lon="13.4250245"><ele>562.0</ele><time>2026-04-12T09:57:22.029Z</time></trkpt><trkpt lat="42.9813031" lon="13.42507"><ele>562.0</ele><time>2026-04-12T09:57:23.047Z</time></trkpt><trkpt lat="42.9814082" lon="13.4251083"><ele>562.0</ele><time>2026-04-12T09:57:24.04Z</time></trkpt><trkpt lat="42.9814672" lon="13.4251862"><ele>562.0</ele><time>2026-04-12T09:57:26.033Z</time></trkpt><trkpt lat="42.9814012" lon="13.425242"><ele>562.0</ele><time>2026-04-12T09:57:33.05Z</time></trkpt><trkpt lat="42.9813172" lon="13.4252931"><ele>562.0</ele><time>2026-04-12T09:57:35.031Z</time></trkpt><trkpt lat="42.981246" lon="13.4253355"><ele>562.0</ele><time>2026-04-12T09:57:36.046Z</time></trkpt><trkpt lat="42.9811452" lon="13.4254061"><ele>562.0</ele><time>2026-04-12T09:57:37.034Z</time></trkpt><trkpt lat="42.9810313" lon="13.4254637"><ele>562.0</ele><time>2026-04-12T09:57:38.028Z</time></trkpt><trkpt lat="42.9809048" lon="13.4255156"><ele>562.0</ele><time>2026-04-12T09:57:39.047Z</time></trkpt><trkpt lat="42.9807687" lon="13.4255644"><ele>562.0</ele><time>2026-04-12T09:57:40.043Z</time></trkpt><trkpt lat="42.9806386" lon="13.4256216"><ele>565.0</ele><time>2026-04-12T09:57:41.051Z</time></trkpt><trkpt lat="42.9805373" lon="13.4256864"><ele>568.0</ele><time>2026-04-12T09:57:42.023Z</time></trkpt><trkpt lat="42.9804408" lon="13.4257443"><ele>571.0</ele><time>2026-04-12T09:57:43.052Z</time></trkpt><trkpt lat="42.9803461" lon="13.4258106"><ele>574.0</ele><time>2026-04-12T09:57:44.041Z</time></trkpt><trkpt lat="42.98026" lon="13.4258892"><ele>577.0</ele><time>2026-04-12T09:57:45.04Z</time></trkpt><trkpt lat="42.9801804" lon="13.4259659"><ele>577.0</ele><time>2026-04-12T09:57:46.052Z</time></trkpt><trkpt lat="42.9801281" lon="13.4260447"><ele>577.0</ele><time>2026-04-12T09:57:47.051Z</time></trkpt><trkpt lat="42.9800581" lon="13.4261485"><ele>577.0</ele><time>2026-04-12T09:57:49.055Z</time></trkpt><trkpt lat="42.979987" lon="13.4262296"><ele>577.0</ele><time>2026-04-12T09:57:51.091Z</time></trkpt><trkpt lat="42.9799161" lon="13.4263027"><ele>577.0</ele><time>2026-04-12T09:57:52.043Z</time></trkpt><trkpt lat="42.9798211" lon="13.4263348"><ele>579.8333333333334</ele><time>2026-04-12T09:57:54.048Z</time></trkpt><trkpt lat="42.9797456" lon="13.4263498"><ele>582.6666666666667</ele><time>2026-04-12T09:57:55.045Z</time></trkpt><trkpt lat="42.9796527" lon="13.4263767"><ele>585.5</ele><time>2026-04-12T09:57:56.057Z</time></trkpt><trkpt lat="42.9795668" lon="13.4263784"><ele>588.3333333333334</ele><time>2026-04-12T09:57:57.074Z</time></trkpt><trkpt lat="42.9794909" lon="13.4263233"><ele>591.1666666666666</ele><time>2026-04-12T09:57:58.031Z</time></trkpt><trkpt lat="42.9794169" lon="13.4262438"><ele>594.0</ele><time>2026-04-12T09:57:59.056Z</time></trkpt><trkpt lat="42.9793479" lon="13.4261639"><ele>594.8</ele><time>2026-04-12T09:58:00.039Z</time></trkpt><trkpt lat="42.97928" lon="13.4260887"><ele>595.5999999999999</ele><time>2026-04-12T09:58:01.04Z</time></trkpt><trkpt lat="42.9791966" lon="13.4260285"><ele>596.4</ele><time>2026-04-12T09:58:02.045Z</time></trkpt><trkpt lat="42.9791091" lon="13.4259974"><ele>597.1999999999999</ele><time>2026-04-12T09:58:03.037Z</time></trkpt><trkpt lat="42.97902" lon="13.4259815"><ele>598.0</ele><time>2026-04-12T09:58:04.051Z</time></trkpt><trkpt lat="42.9789227" lon="13.4259617"><ele>599.1999999999999</ele><time>2026-04-12T09:58:05.009Z</time></trkpt><trkpt lat="42.9788219" lon="13.4259315"><ele>600.4</ele><time>2026-04-12T09:58:06.052Z</time></trkpt><trkpt lat="42.9787338" lon="13.4258952"><ele>601.5999999999999</ele><time>2026-04-12T09:58:07.006Z</time></trkpt><trkpt lat="42.9786507" lon="13.4258717"><ele>602.8</ele><time>2026-04-12T09:58:08.048Z</time></trkpt><trkpt lat="42.978516" lon="13.4258629"><ele>604.0</ele><time>2026-04-12T09:58:10.035Z</time></trkpt><trkpt lat="42.9784289" lon="13.4258558"><ele>605.6</ele><time>2026-04-12T09:58:11.052Z</time></trkpt><trkpt lat="42.9783201" lon="13.425846"><ele>607.2</ele><time>2026-04-12T09:58:12.045Z</time></trkpt><trkpt lat="42.9782079" lon="13.4258213"><ele>608.8000000000001</ele><time>2026-04-12T09:58:13.066Z</time></trkpt><trkpt lat="42.9781066" lon="13.4258043"><ele>610.4</ele><time>2026-04-12T09:58:14.051Z</time></trkpt><trkpt lat="42.978012" lon="13.4257899"><ele>612.0</ele><time>2026-04-12T09:58:15.065Z</time></trkpt><trkpt lat="42.9778986" lon="13.4257689"><ele>612.0</ele><time>2026-04-12T09:58:16.052Z</time></trkpt><trkpt lat="42.9777935" lon="13.4257428"><ele>612.0</ele><time>2026-04-12T09:58:17.061Z</time></trkpt><trkpt lat="42.9776906" lon="13.42572"><ele>612.0</ele><time>2026-04-12T09:58:18.043Z</time></trkpt><trkpt lat="42.9775904" lon="13.4256868"><ele>612.0</ele><time>2026-04-12T09:58:19.027Z</time></trkpt><trkpt lat="42.9774932" lon="13.4256544"><ele>612.0</ele><time>2026-04-12T09:58:20.037Z</time></trkpt><trkpt lat="42.977402" lon="13.4256044"><ele>612.2</ele><time>2026-04-12T09:58:21.035Z</time></trkpt><trkpt lat="42.9773076" lon="13.4255498"><ele>612.4000000000001</ele><time>2026-04-12T09:58:22.02Z</time></trkpt><trkpt lat="42.9772157" lon="13.425508"><ele>612.5999999999999</ele><time>2026-04-12T09:58:23.043Z</time></trkpt><trkpt lat="42.9771235" lon="13.4254961"><ele>612.8</ele><time>2026-04-12T09:58:24.041Z</time></trkpt><trkpt lat="42.9770303" lon="13.4254778"><ele>613.0</ele><time>2026-04-12T09:58:25.047Z</time></trkpt><trkpt lat="42.9769215" lon="13.425452"><ele>613.0</ele><time>2026-04-12T09:58:26.038Z</time></trkpt><trkpt lat="42.9768156" lon="13.4254289"><ele>613.0</ele><time>2026-04-12T09:58:27.032Z</time></trkpt><trkpt lat="42.9767109" lon="13.4254168"><ele>613.0</ele><time>2026-04-12T09:58:28.03Z</time></trkpt><trkpt lat="42.9766061" lon="13.4254427"><ele>613.0</ele><time>2026-04-12T09:58:29.033Z</time></trkpt><trkpt lat="42.9764993" lon="13.4254793"><ele>613.0</ele><time>2026-04-12T09:58:30.03Z</time></trkpt><trkpt lat="42.9763935" lon="13.4255179"><ele>616.1999999999999</ele><time>2026-04-12T09:58:31.031Z</time></trkpt><trkpt lat="42.9763051" lon="13.4255432"><ele>619.4</ele><time>2026-04-12T09:58:32.004Z</time></trkpt><trkpt lat="42.9762189" lon="13.4255635"><ele>622.5999999999999</ele><time>2026-04-12T09:58:33.044Z</time></trkpt><trkpt lat="42.9761244" lon="13.4255871"><ele>625.8</ele><time>2026-04-12T09:58:34.048Z</time></trkpt><trkpt lat="42.9760313" lon="13.425626"><ele>629.0</ele><time>2026-04-12T09:58:35.047Z</time></trkpt><trkpt lat="42.9759469" lon="13.4256754"><ele>629.0</ele><time>2026-04-12T09:58:36.019Z</time></trkpt><trkpt lat="42.9758873" lon="13.4257424"><ele>629.0</ele><time>2026-04-12T09:58:37.062Z</time></trkpt><trkpt lat="42.9758324" lon="13.425822"><ele>629.0</ele><time>2026-04-12T09:58:38.065Z</time></trkpt><trkpt lat="42.9757754" lon="13.4259038"><ele>629.0</ele><time>2026-04-12T09:58:39.071Z</time></trkpt><trkpt lat="42.9757289" lon="13.4259686"><ele>629.0</ele><time>2026-04-12T09:58:40.037Z</time></trkpt><trkpt lat="42.9756922" lon="13.4260438"><ele>629.0</ele><time>2026-04-12T09:58:41.069Z</time></trkpt><trkpt lat="42.9756593" lon="13.4261383"><ele>629.0</ele><time>2026-04-12T09:58:42.035Z</time></trkpt><trkpt lat="42.9756333" lon="13.4262472"><ele>630.0</ele><time>2026-04-12T09:58:43.048Z</time></trkpt><trkpt lat="42.9756043" lon="13.4263742"><ele>631.0</ele><time>2026-04-12T09:58:44.047Z</time></trkpt><trkpt lat="42.9755917" lon="13.4265003"><ele>632.0</ele><time>2026-04-12T09:58:45.059Z</time></trkpt><trkpt lat="42.975588" lon="13.4266161"><ele>633.0</ele><time>2026-04-12T09:58:46.012Z</time></trkpt><trkpt lat="42.9755981" lon="13.4267291"><ele>634.0</ele><time>2026-04-12T09:58:47.01Z</time></trkpt><trkpt lat="42.975626" lon="13.4268316"><ele>635.0</ele><time>2026-04-12T09:58:48.059Z</time></trkpt><trkpt lat="42.9756376" lon="13.4269417"><ele>635.0</ele><time>2026-04-12T09:58:49.017Z</time></trkpt><trkpt lat="42.9756373" lon="13.4270439"><ele>635.0</ele><time>2026-04-12T09:58:50.045Z</time></trkpt><trkpt lat="42.975636" lon="13.4271497"><ele>635.0</ele><time>2026-04-12T09:58:51.058Z</time></trkpt><trkpt lat="42.9756523" lon="13.427296"><ele>635.0</ele><time>2026-04-12T09:58:53.058Z</time></trkpt><trkpt lat="42.9757228" lon="13.4273832"><ele>635.0</ele><time>2026-04-12T09:58:55.047Z</time></trkpt><trkpt lat="42.9757913" lon="13.4274318"><ele>635.0</ele><time>2026-04-12T09:58:58.038Z</time></trkpt><trkpt lat="42.9758616" lon="13.427485"><ele>626.2</ele><time>2026-04-12T09:59:00.044Z</time></trkpt><trkpt lat="42.9759806" lon="13.4275455"><ele>617.4</ele><time>2026-04-12T09:59:02.03Z</time></trkpt><trkpt lat="42.9760503" lon="13.4276511"><ele>608.6</ele><time>2026-04-12T09:59:04.034Z</time></trkpt><trkpt lat="42.9761172" lon="13.4277525"><ele>599.8</ele><time>2026-04-12T09:59:06.039Z</time></trkpt><trkpt lat="42.9761504" lon="13.4278408"><ele>591.0</ele><time>2026-04-12T09:59:08.033Z</time></trkpt><trkpt lat="42.9761409" lon="13.427954"><ele>588.8333333333334</ele><time>2026-04-12T09:59:10.047Z</time></trkpt><trkpt lat="42.9761132" lon="13.4280669"><ele>586.6666666666666</ele><time>2026-04-12T09:59:12.036Z</time></trkpt><trkpt lat="42.9760954" lon="13.42816"><ele>584.5</ele><time>2026-04-12T09:59:14.037Z</time></trkpt><trkpt lat="42.9761002" lon="13.428267"><ele>582.3333333333333</ele><time>2026-04-12T09:59:16.044Z</time></trkpt><trkpt lat="42.9761231" lon="13.4284407"><ele>580.1666666666666</ele><time>2026-04-12T09:59:18.041Z</time></trkpt><trkpt lat="42.9761441" lon="13.4285269"><ele>578.0</ele><time>2026-04-12T09:59:19.045Z</time></trkpt><trkpt lat="42.9761611" lon="13.4286155"><ele>578.0</ele><time>2026-04-12T09:59:20.06Z</time></trkpt><trkpt lat="42.9761633" lon="13.4287088"><ele>578.0</ele><time>2026-04-12T09:59:21.024Z</time></trkpt><trkpt lat="42.9761514" lon="13.4288065"><ele>578.0</ele><time>2026-04-12T09:59:22.039Z</time></trkpt><trkpt lat="42.9761454" lon="13.4289678"><ele>578.0</ele><time>2026-04-12T09:59:24.047Z</time></trkpt><trkpt lat="42.9761257" lon="13.4290592"><ele>578.0</ele><time>2026-04-12T09:59:25.031Z</time></trkpt><trkpt lat="42.9760808" lon="13.4291771"><ele>578.0</ele><time>2026-04-12T09:59:26.986Z</time></trkpt><trkpt lat="42.9760524" lon="13.4293174"><ele>574.6666666666666</ele><time>2026-04-12T09:59:29.016Z</time></trkpt><trkpt lat="42.9760616" lon="13.4294264"><ele>571.3333333333333</ele><time>2026-04-12T09:59:31.038Z</time></trkpt><trkpt lat="42.9761263" lon="13.4294524"><ele>568.0</ele><time>2026-04-12T09:59:34.033Z</time></trkpt><trkpt lat="42.9761968" lon="13.4294198"><ele>564.6666666666666</ele><time>2026-04-12T09:59:36.029Z</time></trkpt><trkpt lat="42.9762647" lon="13.4293707"><ele>561.3333333333334</ele><time>2026-04-12T09:59:37.039Z</time></trkpt><trkpt lat="42.9763598" lon="13.4293109"><ele>558.0</ele><time>2026-04-12T09:59:37.986Z</time></trkpt><trkpt lat="42.9764538" lon="13.4292579"><ele>558.0</ele><time>2026-04-12T09:59:39.023Z</time></trkpt><trkpt lat="42.9765362" lon="13.429203"><ele>558.0</ele><time>2026-04-12T09:59:40.024Z</time></trkpt><trkpt lat="42.9766231" lon="13.4291419"><ele>558.0</ele><time>2026-04-12T09:59:41.015Z</time></trkpt><trkpt lat="42.976702" lon="13.4290948"><ele>558.0</ele><time>2026-04-12T09:59:42.044Z</time></trkpt><trkpt lat="42.9767729" lon="13.4290651"><ele>558.0</ele><time>2026-04-12T09:59:43.016Z</time></trkpt><trkpt lat="42.9768493" lon="13.4290709"><ele>558.0</ele><time>2026-04-12T09:59:44.027Z</time></trkpt><trkpt lat="42.976945" lon="13.4290803"><ele>555.0</ele><time>2026-04-12T09:59:45.032Z</time></trkpt><trkpt lat="42.9770451" lon="13.4290988"><ele>552.0</ele><time>2026-04-12T09:59:46.053Z</time></trkpt><trkpt lat="42.9771241" lon="13.4291128"><ele>549.0</ele><time>2026-04-12T09:59:47.045Z</time></trkpt><trkpt lat="42.9772213" lon="13.4291127"><ele>546.0</ele><time>2026-04-12T09:59:48.046Z</time></trkpt><trkpt lat="42.9773028" lon="13.4291005"><ele>543.0</ele><time>2026-04-12T09:59:49.045Z</time></trkpt><trkpt lat="42.9773646" lon="13.4290666"><ele>540.0</ele><time>2026-04-12T09:59:50.019Z</time></trkpt><trkpt lat="42.977484" lon="13.4290555"><ele>540.8</ele><time>2026-04-12T09:59:52.053Z</time></trkpt><trkpt lat="42.9776043" lon="13.4290352"><ele>541.6</ele><time>2026-04-12T09:59:54.037Z</time></trkpt><trkpt lat="42.9776752" lon="13.4290061"><ele>542.4</ele><time>2026-04-12T09:59:55.067Z</time></trkpt><trkpt lat="42.9777617" lon="13.4289995"><ele>543.2</ele><time>2026-04-12T09:59:56.04Z</time></trkpt><trkpt lat="42.9778477" lon="13.4290041"><ele>544.0</ele><time>2026-04-12T09:59:57.051Z</time></trkpt><trkpt lat="42.9779314" lon="13.4290066"><ele>544.0</ele><time>2026-04-12T09:59:58.052Z</time></trkpt><trkpt lat="42.9780171" lon="13.4290093"><ele>544.0</ele><time>2026-04-12T09:59:59.041Z</time></trkpt><trkpt lat="42.9781161" lon="13.4290225"><ele>544.0</ele><time>2026-04-12T10:00:00.05Z</time></trkpt><trkpt lat="42.9782004" lon="13.4290559"><ele>544.0</ele><time>2026-04-12T10:00:01.007Z</time></trkpt><trkpt lat="42.9782849" lon="13.4291099"><ele>544.0</ele><time>2026-04-12T10:00:02.053Z</time></trkpt><trkpt lat="42.9783697" lon="13.4291919"><ele>544.5</ele><time>2026-04-12T10:00:03.058Z</time></trkpt><trkpt lat="42.9784309" lon="13.4292905"><ele>545.0</ele><time>2026-04-12T10:00:04.043Z</time></trkpt><trkpt lat="42.9784722" lon="13.4293728"><ele>545.5</ele><time>2026-04-12T10:00:05.047Z</time></trkpt><trkpt lat="42.9785268" lon="13.4294197"><ele>546.0</ele><time>2026-04-12T10:00:06.046Z</time></trkpt><trkpt lat="42.9785899" lon="13.4294337"><ele>546.5</ele><time>2026-04-12T10:00:07.052Z</time></trkpt><trkpt lat="42.9786644" lon="13.4294439"><ele>547.0</ele><time>2026-04-12T10:00:08.047Z</time></trkpt><trkpt lat="42.9787517" lon="13.429448"><ele>547.0</ele><time>2026-04-12T10:00:09.049Z</time></trkpt><trkpt lat="42.9788354" lon="13.4294391"><ele>547.0</ele><time>2026-04-12T10:00:10.045Z</time></trkpt><trkpt lat="42.9789074" lon="13.429403"><ele>547.0</ele><time>2026-04-12T10:00:11.011Z</time></trkpt><trkpt lat="42.9789768" lon="13.4293641"><ele>547.0</ele><time>2026-04-12T10:00:12.048Z</time></trkpt><trkpt lat="42.9790423" lon="13.4293087"><ele>547.0</ele><time>2026-04-12T10:00:13.043Z</time></trkpt><trkpt lat="42.9791216" lon="13.429241"><ele>547.0</ele><time>2026-04-12T10:00:14.049Z</time></trkpt><trkpt lat="42.9791957" lon="13.4291801"><ele>544.8000000000001</ele><time>2026-04-12T10:00:15.049Z</time></trkpt><trkpt lat="42.9792717" lon="13.4290997"><ele>542.6</ele><time>2026-04-12T10:00:16.04Z</time></trkpt><trkpt lat="42.9793683" lon="13.4290278"><ele>540.4000000000001</ele><time>2026-04-12T10:00:17.034Z</time></trkpt><trkpt lat="42.9794732" lon="13.4289709"><ele>538.2</ele><time>2026-04-12T10:00:18.033Z</time></trkpt><trkpt lat="42.9795753" lon="13.4289363"><ele>536.0</ele><time>2026-04-12T10:00:19.046Z</time></trkpt><trkpt lat="42.979643" lon="13.4289121"><ele>536.0</ele><time>2026-04-12T10:00:20.04Z</time></trkpt><trkpt lat="42.9797447" lon="13.4288958"><ele>536.0</ele><time>2026-04-12T10:00:21.04Z</time></trkpt><trkpt lat="42.9798685" lon="13.4288407"><ele>536.0</ele><time>2026-04-12T10:00:22.031Z</time></trkpt><trkpt lat="42.9799851" lon="13.4287782"><ele>536.0</ele><time>2026-04-12T10:00:23.008Z</time></trkpt><trkpt lat="42.980088" lon="13.4287076"><ele>537.5</ele><time>2026-04-12T10:00:24.042Z</time></trkpt><trkpt lat="42.9801772" lon="13.4286479"><ele>539.0</ele><time>2026-04-12T10:00:25.033Z</time></trkpt><trkpt lat="42.9802933" lon="13.4285978"><ele>540.5</ele><time>2026-04-12T10:00:25.999Z</time></trkpt><trkpt lat="42.9804191" lon="13.428544"><ele>542.0</ele><time>2026-04-12T10:00:27.032Z</time></trkpt><trkpt lat="42.9805454" lon="13.4285234"><ele>542.0</ele><time>2026-04-12T10:00:28.044Z</time></trkpt><trkpt lat="42.980674" lon="13.4285319"><ele>542.0</ele><time>2026-04-12T10:00:29.045Z</time></trkpt><trkpt lat="42.9808245" lon="13.4285602"><ele>542.0</ele><time>2026-04-12T10:00:30.024Z</time></trkpt><trkpt lat="42.98097" lon="13.4285776"><ele>542.0</ele><time>2026-04-12T10:00:30.99Z</time></trkpt><trkpt lat="42.9810884" lon="13.4286096"><ele>541.6</ele><time>2026-04-12T10:00:32.069Z</time></trkpt><trkpt lat="42.9812001" lon="13.4286749"><ele>541.2</ele><time>2026-04-12T10:00:33.047Z</time></trkpt><trkpt lat="42.9812734" lon="13.4287504"><ele>540.8</ele><time>2026-04-12T10:00:34.065Z</time></trkpt><trkpt lat="42.9813233" lon="13.4288631"><ele>540.4</ele><time>2026-04-12T10:00:35.042Z</time></trkpt><trkpt lat="42.9813553" lon="13.4289941"><ele>540.0</ele><time>2026-04-12T10:00:36.04Z</time></trkpt><trkpt lat="42.9813839" lon="13.4291364"><ele>539.8333333333334</ele><time>2026-04-12T10:00:37.049Z</time></trkpt><trkpt lat="42.9814007" lon="13.4292831"><ele>539.6666666666666</ele><time>2026-04-12T10:00:38.027Z</time></trkpt><trkpt lat="42.9814168" lon="13.4294171"><ele>539.5</ele><time>2026-04-12T10:00:39.049Z</time></trkpt><trkpt lat="42.9814564" lon="13.4295163"><ele>539.3333333333333</ele><time>2026-04-12T10:00:40.04Z</time></trkpt><trkpt lat="42.9814944" lon="13.4296043"><ele>539.1666666666666</ele><time>2026-04-12T10:00:41.057Z</time></trkpt><trkpt lat="42.9815299" lon="13.429683"><ele>539.0</ele><time>2026-04-12T10:00:42.044Z</time></trkpt><trkpt lat="42.9815694" lon="13.4297588"><ele>539.4</ele><time>2026-04-12T10:00:43.046Z</time></trkpt><trkpt lat="42.9816557" lon="13.4298735"><ele>539.8</ele><time>2026-04-12T10:00:45.067Z</time></trkpt><trkpt lat="42.9817129" lon="13.4299231"><ele>540.2</ele><time>2026-04-12T10:00:46.039Z</time></trkpt><trkpt lat="42.9817666" lon="13.4299864"><ele>540.6</ele><time>2026-04-12T10:00:47.042Z</time></trkpt><trkpt lat="42.9818246" lon="13.4300305"><ele>541.0</ele><time>2026-04-12T10:00:48.049Z</time></trkpt><trkpt lat="42.9819626" lon="13.4300404"><ele>540.5</ele><time>2026-04-12T10:00:50.042Z</time></trkpt><trkpt lat="42.9820334" lon="13.4300602"><ele>540.0</ele><time>2026-04-12T10:00:51.068Z</time></trkpt><trkpt lat="42.9820952" lon="13.4301013"><ele>539.5</ele><time>2026-04-12T10:00:52.035Z</time></trkpt><trkpt lat="42.9821499" lon="13.4302294"><ele>539.0</ele><time>2026-04-12T10:00:54.078Z</time></trkpt><trkpt lat="42.9821319" lon="13.430359"><ele>538.5</ele><time>2026-04-12T10:00:56.055Z</time></trkpt><trkpt lat="42.9821243" lon="13.4304479"><ele>538.0</ele><time>2026-04-12T10:00:57.055Z</time></trkpt><trkpt lat="42.9821398" lon="13.4305697"><ele>538.0</ele><time>2026-04-12T10:00:59.041Z</time></trkpt><trkpt lat="42.9821946" lon="13.4306436"><ele>538.0</ele><time>2026-04-12T10:01:01.046Z</time></trkpt><trkpt lat="42.9823031" lon="13.4306773"><ele>538.0</ele><time>2026-04-12T10:01:03.049Z</time></trkpt><trkpt lat="42.9823823" lon="13.4307095"><ele>538.0</ele><time>2026-04-12T10:01:04.045Z</time></trkpt><trkpt lat="42.9824492" lon="13.4307431"><ele>538.0</ele><time>2026-04-12T10:01:05.043Z</time></trkpt><trkpt lat="42.9825121" lon="13.4307788"><ele>538.0</ele><time>2026-04-12T10:01:06.052Z</time></trkpt><trkpt lat="42.9825857" lon="13.4307973"><ele>539.6666666666667</ele><time>2026-04-12T10:01:07.044Z</time></trkpt><trkpt lat="42.9826559" lon="13.4308106"><ele>541.3333333333334</ele><time>2026-04-12T10:01:08.041Z</time></trkpt><trkpt lat="42.982741" lon="13.4308238"><ele>543.0</ele><time>2026-04-12T10:01:09.04Z</time></trkpt><trkpt lat="42.9828152" lon="13.4308316"><ele>544.6666666666666</ele><time>2026-04-12T10:01:10.027Z</time></trkpt><trkpt lat="42.982894" lon="13.4308425"><ele>546.3333333333333</ele><time>2026-04-12T10:01:11.042Z</time></trkpt><trkpt lat="42.9829661" lon="13.4308291"><ele>548.0</ele><time>2026-04-12T10:01:12.066Z</time></trkpt><trkpt lat="42.9830772" lon="13.4307445"><ele>548.0</ele><time>2026-04-12T10:01:14.034Z</time></trkpt><trkpt lat="42.9831418" lon="13.4307322"><ele>548.0</ele><time>2026-04-12T10:01:15.047Z</time></trkpt><trkpt lat="42.9832066" lon="13.4307162"><ele>548.0</ele><time>2026-04-12T10:01:16.029Z</time></trkpt><trkpt lat="42.9832806" lon="13.4306976"><ele>548.0</ele><time>2026-04-12T10:01:18.059Z</time></trkpt><trkpt lat="42.9834082" lon="13.4307044"><ele>548.0</ele><time>2026-04-12T10:01:20.04Z</time></trkpt><trkpt lat="42.9835039" lon="13.4307507"><ele>548.0</ele><time>2026-04-12T10:01:21.035Z</time></trkpt><trkpt lat="42.9836229" lon="13.4308191"><ele>546.3333333333333</ele><time>2026-04-12T10:01:22.032Z</time></trkpt><trkpt lat="42.9837349" lon="13.4309254"><ele>544.6666666666666</ele><time>2026-04-12T10:01:23.023Z</time></trkpt><trkpt lat="42.9838556" lon="13.4310552"><ele>543.0</ele><time>2026-04-12T10:01:24.013Z</time></trkpt><trkpt lat="42.9839713" lon="13.4312169"><ele>544.3333333333334</ele><time>2026-04-12T10:01:24.994Z</time></trkpt><trkpt lat="42.9840537" lon="13.4313911"><ele>545.6666666666667</ele><time>2026-04-12T10:01:26Z</time></trkpt><trkpt lat="42.9841316" lon="13.4315786"><ele>547.0</ele><time>2026-04-12T10:01:27.005Z</time></trkpt><trkpt lat="42.9842005" lon="13.4317659"><ele>547.0</ele><time>2026-04-12T10:01:28.013Z</time></trkpt><trkpt lat="42.9842622" lon="13.4319324"><ele>547.0</ele><time>2026-04-12T10:01:29.04Z</time></trkpt><trkpt lat="42.9843276" lon="13.4320712"><ele>547.0</ele><time>2026-04-12T10:01:30.046Z</time></trkpt><trkpt lat="42.9844043" lon="13.4322061"><ele>547.0</ele><time>2026-04-12T10:01:31.035Z</time></trkpt><trkpt lat="42.9845016" lon="13.4323043"><ele>549.75</ele><time>2026-04-12T10:01:32.036Z</time></trkpt><trkpt lat="42.9846131" lon="13.4323883"><ele>552.5</ele><time>2026-04-12T10:01:33.034Z</time></trkpt><trkpt lat="42.984736" lon="13.4324488"><ele>555.25</ele><time>2026-04-12T10:01:34.031Z</time></trkpt><trkpt lat="42.9848844" lon="13.4325014"><ele>558.0</ele><time>2026-04-12T10:01:35.042Z</time></trkpt><trkpt lat="42.9850424" lon="13.4325588"><ele>558.75</ele><time>2026-04-12T10:01:36.033Z</time></trkpt><trkpt lat="42.9851947" lon="13.4326128"><ele>559.5</ele><time>2026-04-12T10:01:37.036Z</time></trkpt><trkpt lat="42.9853206" lon="13.4326746"><ele>560.25</ele><time>2026-04-12T10:01:38.049Z</time></trkpt><trkpt lat="42.9854026" lon="13.4327457"><ele>561.0</ele><time>2026-04-12T10:01:39.042Z</time></trkpt><trkpt lat="42.9854228" lon="13.4328702"><ele>561.0</ele><time>2026-04-12T10:01:41.022Z</time></trkpt><trkpt lat="42.9853563" lon="13.4329127"><ele>561.0</ele><time>2026-04-12T10:01:42.039Z</time></trkpt><trkpt lat="42.9852737" lon="13.4329327"><ele>561.0</ele><time>2026-04-12T10:01:43.009Z</time></trkpt><trkpt lat="42.9851761" lon="13.4329244"><ele>561.0</ele><time>2026-04-12T10:01:44.007Z</time></trkpt><trkpt lat="42.9850836" lon="13.4329318"><ele>561.0</ele><time>2026-04-12T10:01:45.039Z</time></trkpt><trkpt lat="42.9850021" lon="13.4329654"><ele>561.0</ele><time>2026-04-12T10:01:46.041Z</time></trkpt><trkpt lat="42.9849303" lon="13.4330491"><ele>563.0</ele><time>2026-04-12T10:01:47.039Z</time></trkpt><trkpt lat="42.9848763" lon="13.4332155"><ele>565.0</ele><time>2026-04-12T10:01:48.032Z</time></trkpt><trkpt lat="42.9848325" lon="13.4334178"><ele>567.0</ele><time>2026-04-12T10:01:49.022Z</time></trkpt><trkpt lat="42.9847887" lon="13.4336314"><ele>570.3333333333334</ele><time>2026-04-12T10:01:50.041Z</time></trkpt><trkpt lat="42.9847387" lon="13.4338546"><ele>573.6666666666667</ele><time>2026-04-12T10:01:51.03Z</time></trkpt><trkpt lat="42.9846883" lon="13.4340645"><ele>577.0</ele><time>2026-04-12T10:01:52.035Z</time></trkpt><trkpt lat="42.9846264" lon="13.4342416"><ele>577.0</ele><time>2026-04-12T10:01:53.03Z</time></trkpt><trkpt lat="42.9845685" lon="13.4343763"><ele>577.0</ele><time>2026-04-12T10:01:54.035Z</time></trkpt><trkpt lat="42.984488" lon="13.4344714"><ele>577.0</ele><time>2026-04-12T10:01:55.025Z</time></trkpt><trkpt lat="42.9843891" lon="13.4344965"><ele>577.0</ele><time>2026-04-12T10:01:56.037Z</time></trkpt><trkpt lat="42.9842857" lon="13.4344846"><ele>577.0</ele><time>2026-04-12T10:01:56.989Z</time></trkpt><trkpt lat="42.9841927" lon="13.4344386"><ele>576.0</ele><time>2026-04-12T10:01:58.041Z</time></trkpt><trkpt lat="42.9840958" lon="13.4344328"><ele>575.0</ele><time>2026-04-12T10:01:59.033Z</time></trkpt><trkpt lat="42.9839852" lon="13.4344785"><ele>574.0</ele><time>2026-04-12T10:02:00.031Z</time></trkpt><trkpt lat="42.9838992" lon="13.4345634"><ele>573.0</ele><time>2026-04-12T10:02:01.035Z</time></trkpt><trkpt lat="42.9838648" lon="13.434698"><ele>572.0</ele><time>2026-04-12T10:02:02.035Z</time></trkpt><trkpt lat="42.9838577" lon="13.434855"><ele>575.2</ele><time>2026-04-12T10:02:03.024Z</time></trkpt><trkpt lat="42.9838641" lon="13.4350068"><ele>578.4000000000001</ele><time>2026-04-12T10:02:04.031Z</time></trkpt><trkpt lat="42.9838417" lon="13.4351304"><ele>581.5999999999999</ele><time>2026-04-12T10:02:05.032Z</time></trkpt><trkpt lat="42.9837767" lon="13.4352323"><ele>584.8</ele><time>2026-04-12T10:02:06.019Z</time></trkpt><trkpt lat="42.9836924" lon="13.4352746"><ele>588.0</ele><time>2026-04-12T10:02:07.048Z</time></trkpt><trkpt lat="42.9835862" lon="13.4352858"><ele>588.0</ele><time>2026-04-12T10:02:08.031Z</time></trkpt><trkpt lat="42.9834729" lon="13.4352705"><ele>588.0</ele><time>2026-04-12T10:02:09.047Z</time></trkpt><trkpt lat="42.9833576" lon="13.4352421"><ele>588.0</ele><time>2026-04-12T10:02:10.037Z</time></trkpt><trkpt lat="42.9832529" lon="13.4352254"><ele>588.0</ele><time>2026-04-12T10:02:11.04Z</time></trkpt><trkpt lat="42.9831725" lon="13.4352511"><ele>588.0</ele><time>2026-04-12T10:02:11.989Z</time></trkpt><trkpt lat="42.9831089" lon="13.4352881"><ele>588.4</ele><time>2026-04-12T10:02:13.054Z</time></trkpt><trkpt lat="42.9830475" lon="13.4353277"><ele>588.8</ele><time>2026-04-12T10:02:14.032Z</time></trkpt><trkpt lat="42.9829683" lon="13.4354439"><ele>589.2</ele><time>2026-04-12T10:02:16.036Z</time></trkpt><trkpt lat="42.9829339" lon="13.4355184"><ele>589.6</ele><time>2026-04-12T10:02:17.033Z</time></trkpt><trkpt lat="42.9829085" lon="13.4356441"><ele>590.0</ele><time>2026-04-12T10:02:18.032Z</time></trkpt><trkpt lat="42.982891" lon="13.435802"><ele>590.0</ele><time>2026-04-12T10:02:18.989Z</time></trkpt><trkpt lat="42.9828734" lon="13.4359621"><ele>590.0</ele><time>2026-04-12T10:02:20.037Z</time></trkpt><trkpt lat="42.9828507" lon="13.4361096"><ele>590.0</ele><time>2026-04-12T10:02:21.048Z</time></trkpt><trkpt lat="42.9828225" lon="13.4362614"><ele>590.0</ele><time>2026-04-12T10:02:22.032Z</time></trkpt><trkpt lat="42.982787" lon="13.4364059"><ele>590.4</ele><time>2026-04-12T10:02:23.046Z</time></trkpt><trkpt lat="42.98276" lon="13.436551"><ele>590.8</ele><time>2026-04-12T10:02:24.045Z</time></trkpt><trkpt lat="42.9827455" lon="13.4366991"><ele>591.2</ele><time>2026-04-12T10:02:25.036Z</time></trkpt><trkpt lat="42.982723" lon="13.4368188"><ele>591.6</ele><time>2026-04-12T10:02:26.036Z</time></trkpt><trkpt lat="42.9826951" lon="13.4369317"><ele>592.0</ele><time>2026-04-12T10:02:27.036Z</time></trkpt><trkpt lat="42.9826739" lon="13.4370374"><ele>592.0</ele><time>2026-04-12T10:02:28.035Z</time></trkpt><trkpt lat="42.9826525" lon="13.4371432"><ele>592.0</ele><time>2026-04-12T10:02:29.032Z</time></trkpt><trkpt lat="42.9826218" lon="13.4372663"><ele>592.0</ele><time>2026-04-12T10:02:31.041Z</time></trkpt><trkpt lat="42.9825104" lon="13.4373003"><ele>592.0</ele><time>2026-04-12T10:02:33.02Z</time></trkpt><trkpt lat="42.982447" lon="13.4372427"><ele>592.0</ele><time>2026-04-12T10:02:34.048Z</time></trkpt><trkpt lat="42.9823703" lon="13.4371657"><ele>587.8333333333334</ele><time>2026-04-12T10:02:35.032Z</time></trkpt><trkpt lat="42.9823066" lon="13.4370816"><ele>583.6666666666667</ele><time>2026-04-12T10:02:36.052Z</time></trkpt><trkpt lat="42.9822516" lon="13.4370005"><ele>579.5</ele><time>2026-04-12T10:02:37.032Z</time></trkpt><trkpt lat="42.9822125" lon="13.4369286"><ele>575.3333333333334</ele><time>2026-04-12T10:02:38.039Z</time></trkpt><trkpt lat="42.9821789" lon="13.436851"><ele>571.1666666666666</ele><time>2026-04-12T10:02:39.034Z</time></trkpt><trkpt lat="42.9821051" lon="13.4367169"><ele>567.0</ele><time>2026-04-12T10:02:41.039Z</time></trkpt><trkpt lat="42.9820521" lon="13.4366614"><ele>567.0</ele><time>2026-04-12T10:02:42.048Z</time></trkpt><trkpt lat="42.9819821" lon="13.4366308"><ele>567.0</ele><time>2026-04-12T10:02:43.042Z</time></trkpt><trkpt lat="42.9819102" lon="13.4365829"><ele>567.0</ele><time>2026-04-12T10:02:44.021Z</time></trkpt><trkpt lat="42.981833" lon="13.4365317"><ele>567.0</ele><time>2026-04-12T10:02:45.029Z</time></trkpt><trkpt lat="42.9817628" lon="13.4364751"><ele>567.0</ele><time>2026-04-12T10:02:46.027Z</time></trkpt><trkpt lat="42.9817036" lon="13.4364014"><ele>567.0</ele><time>2026-04-12T10:02:47.037Z</time></trkpt><trkpt lat="42.9816422" lon="13.4363338"><ele>566.5</ele><time>2026-04-12T10:02:48.042Z</time></trkpt><trkpt lat="42.9815806" lon="13.4362753"><ele>566.0</ele><time>2026-04-12T10:02:49.045Z</time></trkpt><trkpt lat="42.9815267" lon="13.4361959"><ele>565.5</ele><time>2026-04-12T10:02:50.052Z</time></trkpt><trkpt lat="42.981443" lon="13.4361815"><ele>565.0</ele><time>2026-04-12T10:02:52.038Z</time></trkpt><trkpt lat="42.9814958" lon="13.4362754"><ele>564.5</ele><time>2026-04-12T10:02:56.058Z</time></trkpt><trkpt lat="42.981541" lon="13.4363394"><ele>564.0</ele><time>2026-04-12T10:02:57.025Z</time></trkpt><trkpt lat="42.9815839" lon="13.4364397"><ele>566.6666666666666</ele><time>2026-04-12T10:02:58.048Z</time></trkpt><trkpt lat="42.9816127" lon="13.4365465"><ele>569.3333333333334</ele><time>2026-04-12T10:02:59.042Z</time></trkpt><trkpt lat="42.9816207" lon="13.4366683"><ele>572.0</ele><time>2026-04-12T10:03:00.047Z</time></trkpt><trkpt lat="42.9816291" lon="13.4367999"><ele>574.6666666666667</ele><time>2026-04-12T10:03:01.05Z</time></trkpt><trkpt lat="42.9816391" lon="13.4369235"><ele>577.3333333333334</ele><time>2026-04-12T10:03:02.049Z</time></trkpt><trkpt lat="42.9816566" lon="13.4370384"><ele>580.0</ele><time>2026-04-12T10:03:03.072Z</time></trkpt><trkpt lat="42.9816865" lon="13.4371584"><ele>581.2</ele><time>2026-04-12T10:03:04.057Z</time></trkpt><trkpt lat="42.981731" lon="13.4372809"><ele>582.4</ele><time>2026-04-12T10:03:05.001Z</time></trkpt><trkpt lat="42.9817823" lon="13.4374106"><ele>583.6</ele><time>2026-04-12T10:03:06.054Z</time></trkpt><trkpt lat="42.9818246" lon="13.4375364"><ele>584.8</ele><time>2026-04-12T10:03:07.048Z</time></trkpt><trkpt lat="42.9818562" lon="13.4376689"><ele>586.0</ele><time>2026-04-12T10:03:08.035Z</time></trkpt><trkpt lat="42.9818795" lon="13.4378097"><ele>586.0</ele><time>2026-04-12T10:03:09.052Z</time></trkpt><trkpt lat="42.9819014" lon="13.4379459"><ele>586.0</ele><time>2026-04-12T10:03:10.067Z</time></trkpt><trkpt lat="42.9819211" lon="13.4380736"><ele>586.0</ele><time>2026-04-12T10:03:11.038Z</time></trkpt><trkpt lat="42.9819336" lon="13.4382016"><ele>586.0</ele><time>2026-04-12T10:03:12.046Z</time></trkpt><trkpt lat="42.9819254" lon="13.438327"><ele>586.0</ele><time>2026-04-12T10:03:13.027Z</time></trkpt><trkpt lat="42.9819071" lon="13.4384354"><ele>590.1666666666667</ele><time>2026-04-12T10:03:14.031Z</time></trkpt><trkpt lat="42.9818698" lon="13.4385366"><ele>594.3333333333334</ele><time>2026-04-12T10:03:15.061Z</time></trkpt><trkpt lat="42.9818254" lon="13.4386325"><ele>598.5</ele><time>2026-04-12T10:03:16.026Z</time></trkpt><trkpt lat="42.9817699" lon="13.4387304"><ele>602.6666666666666</ele><time>2026-04-12T10:03:17.037Z</time></trkpt><trkpt lat="42.9817262" lon="13.4388035"><ele>606.8333333333333</ele><time>2026-04-12T10:03:18.019Z</time></trkpt><trkpt lat="42.981687" lon="13.4388743"><ele>611.0</ele><time>2026-04-12T10:03:19.035Z</time></trkpt><trkpt lat="42.9816278" lon="13.4389869"><ele>613.3333333333333</ele><time>2026-04-12T10:03:21.031Z</time></trkpt><trkpt lat="42.9816011" lon="13.4390814"><ele>615.6666666666666</ele><time>2026-04-12T10:03:23.038Z</time></trkpt><trkpt lat="42.9816239" lon="13.4392106"><ele>618.0</ele><time>2026-04-12T10:03:25.049Z</time></trkpt><trkpt lat="42.9816787" lon="13.4392801"><ele>620.3333333333334</ele><time>2026-04-12T10:03:26.039Z</time></trkpt><trkpt lat="42.9817462" lon="13.439346"><ele>622.6666666666667</ele><time>2026-04-12T10:03:27.036Z</time></trkpt><trkpt lat="42.9818198" lon="13.4394264"><ele>625.0</ele><time>2026-04-12T10:03:28.042Z</time></trkpt><trkpt lat="42.9818898" lon="13.4395019"><ele>626.8</ele><time>2026-04-12T10:03:29.061Z</time></trkpt><trkpt lat="42.9819651" lon="13.4395886"><ele>628.6</ele><time>2026-04-12T10:03:30.056Z</time></trkpt><trkpt lat="42.9820342" lon="13.4396812"><ele>630.4</ele><time>2026-04-12T10:03:31.045Z</time></trkpt><trkpt lat="42.9820947" lon="13.4397824"><ele>632.2</ele><time>2026-04-12T10:03:32.036Z</time></trkpt><trkpt lat="42.9821503" lon="13.4398826"><ele>634.0</ele><time>2026-04-12T10:03:33.04Z</time></trkpt><trkpt lat="42.9822245" lon="13.4399641"><ele>634.4</ele><time>2026-04-12T10:03:34.053Z</time></trkpt><trkpt lat="42.9822912" lon="13.4400531"><ele>634.8</ele><time>2026-04-12T10:03:35.069Z</time></trkpt><trkpt lat="42.9823607" lon="13.4401565"><ele>635.2</ele><time>2026-04-12T10:03:36.065Z</time></trkpt><trkpt lat="42.9824353" lon="13.4402608"><ele>635.6</ele><time>2026-04-12T10:03:37.071Z</time></trkpt><trkpt lat="42.9825127" lon="13.4403764"><ele>636.0</ele><time>2026-04-12T10:03:38.057Z</time></trkpt><trkpt lat="42.9826075" lon="13.4404732"><ele>636.0</ele><time>2026-04-12T10:03:39.059Z</time></trkpt><trkpt lat="42.9827049" lon="13.4405727"><ele>636.0</ele><time>2026-04-12T10:03:40.048Z</time></trkpt><trkpt lat="42.9828349" lon="13.4406916"><ele>636.0</ele><time>2026-04-12T10:03:41.038Z</time></trkpt><trkpt lat="42.9829714" lon="13.4408237"><ele>636.0</ele><time>2026-04-12T10:03:42Z</time></trkpt><trkpt lat="42.9831045" lon="13.4409566"><ele>636.0</ele><time>2026-04-12T10:03:43.056Z</time></trkpt><trkpt lat="42.983218" lon="13.441082"><ele>636.0</ele><time>2026-04-12T10:03:44.055Z</time></trkpt><trkpt lat="42.9833308" lon="13.4412229"><ele>636.0</ele><time>2026-04-12T10:03:45.08Z</time></trkpt><trkpt lat="42.9834429" lon="13.4413642"><ele>638.75</ele><time>2026-04-12T10:03:46.056Z</time></trkpt><trkpt lat="42.9835527" lon="13.4414896"><ele>641.5</ele><time>2026-04-12T10:03:47.029Z</time></trkpt><trkpt lat="42.9836578" lon="13.4416295"><ele>644.25</ele><time>2026-04-12T10:03:48.034Z</time></trkpt><trkpt lat="42.9837527" lon="13.441766"><ele>647.0</ele><time>2026-04-12T10:03:49.08Z</time></trkpt><trkpt lat="42.9838438" lon="13.4419046"><ele>647.0</ele><time>2026-04-12T10:03:50.063Z</time></trkpt><trkpt lat="42.9839211" lon="13.4420242"><ele>647.0</ele><time>2026-04-12T10:03:51.052Z</time></trkpt><trkpt lat="42.9840044" lon="13.4421191"><ele>647.0</ele><time>2026-04-12T10:03:52.061Z</time></trkpt><trkpt lat="42.984075" lon="13.4422043"><ele>647.0</ele><time>2026-04-12T10:03:53.036Z</time></trkpt><trkpt lat="42.9841354" lon="13.4423141"><ele>647.0</ele><time>2026-04-12T10:03:54.043Z</time></trkpt><trkpt lat="42.9841849" lon="13.4424366"><ele>650.0</ele><time>2026-04-12T10:03:55.049Z</time></trkpt><trkpt lat="42.9842287" lon="13.4425559"><ele>653.0</ele><time>2026-04-12T10:03:56.063Z</time></trkpt><trkpt lat="42.9842689" lon="13.4426741"><ele>656.0</ele><time>2026-04-12T10:03:57.05Z</time></trkpt><trkpt lat="42.9843038" lon="13.4427975"><ele>659.0</ele><time>2026-04-12T10:03:58.015Z</time></trkpt><trkpt lat="42.9843362" lon="13.4429204"><ele>662.0</ele><time>2026-04-12T10:03:59.053Z</time></trkpt><trkpt lat="42.9843691" lon="13.4430431"><ele>664.0</ele><time>2026-04-12T10:04:00.057Z</time></trkpt><trkpt lat="42.9844129" lon="13.4431548"><ele>666.0</ele><time>2026-04-12T10:04:01.047Z</time></trkpt><trkpt lat="42.9844645" lon="13.4432562"><ele>668.0</ele><time>2026-04-12T10:04:02.032Z</time></trkpt><trkpt lat="42.984518" lon="13.4433646"><ele>670.0</ele><time>2026-04-12T10:04:03.051Z</time></trkpt><trkpt lat="42.9845841" lon="13.4434707"><ele>672.0</ele><time>2026-04-12T10:04:04.047Z</time></trkpt><trkpt lat="42.984639" lon="13.4435942"><ele>672.0</ele><time>2026-04-12T10:04:05.048Z</time></trkpt><trkpt lat="42.9847178" lon="13.4437149"><ele>672.0</ele><time>2026-04-12T10:04:06.06Z</time></trkpt><trkpt lat="42.9847956" lon="13.4438448"><ele>672.0</ele><time>2026-04-12T10:04:07.059Z</time></trkpt><trkpt lat="42.9848628" lon="13.4439586"><ele>672.0</ele><time>2026-04-12T10:04:08.079Z</time></trkpt><trkpt lat="42.9849096" lon="13.4440626"><ele>672.0</ele><time>2026-04-12T10:04:09.064Z</time></trkpt><trkpt lat="42.9849519" lon="13.4441683"><ele>673.4000000000001</ele><time>2026-04-12T10:04:10.032Z</time></trkpt><trkpt lat="42.9850072" lon="13.4442846"><ele>674.8000000000001</ele><time>2026-04-12T10:04:11.072Z</time></trkpt><trkpt lat="42.9850567" lon="13.4444019"><ele>676.2</ele><time>2026-04-12T10:04:12.041Z</time></trkpt><trkpt lat="42.9851105" lon="13.4445162"><ele>677.6</ele><time>2026-04-12T10:04:13.03Z</time></trkpt><trkpt lat="42.985142" lon="13.4446288"><ele>679.0</ele><time>2026-04-12T10:04:14.047Z</time></trkpt><trkpt lat="42.9851717" lon="13.4447543"><ele>680.3333333333334</ele><time>2026-04-12T10:04:15.048Z</time></trkpt><trkpt lat="42.9851999" lon="13.4448714"><ele>681.6666666666667</ele><time>2026-04-12T10:04:16.06Z</time></trkpt><trkpt lat="42.9852323" lon="13.4449872"><ele>683.0</ele><time>2026-04-12T10:04:17.056Z</time></trkpt><trkpt lat="42.9852552" lon="13.4451037"><ele>684.3333333333334</ele><time>2026-04-12T10:04:18.022Z</time></trkpt><trkpt lat="42.9852911" lon="13.4452128"><ele>685.6666666666666</ele><time>2026-04-12T10:04:19.034Z</time></trkpt><trkpt lat="42.9853369" lon="13.4453069"><ele>687.0</ele><time>2026-04-12T10:04:20.048Z</time></trkpt><trkpt lat="42.9853794" lon="13.4454112"><ele>687.8333333333334</ele><time>2026-04-12T10:04:21.026Z</time></trkpt><trkpt lat="42.9854299" lon="13.4454871"><ele>688.6666666666666</ele><time>2026-04-12T10:04:22.036Z</time></trkpt><trkpt lat="42.9854845" lon="13.445546"><ele>689.5</ele><time>2026-04-12T10:04:23.008Z</time></trkpt><trkpt lat="42.9855539" lon="13.4455934"><ele>690.3333333333333</ele><time>2026-04-12T10:04:24.036Z</time></trkpt><trkpt lat="42.9856254" lon="13.4456392"><ele>691.1666666666666</ele><time>2026-04-12T10:04:25.041Z</time></trkpt><trkpt lat="42.9856968" lon="13.4456658"><ele>692.0</ele><time>2026-04-12T10:04:25.996Z</time></trkpt><trkpt lat="42.9857759" lon="13.4456861"><ele>693.6</ele><time>2026-04-12T10:04:27.03Z</time></trkpt><trkpt lat="42.9858599" lon="13.4457051"><ele>695.2</ele><time>2026-04-12T10:04:28.013Z</time></trkpt><trkpt lat="42.9859466" lon="13.4457303"><ele>696.8</ele><time>2026-04-12T10:04:29.044Z</time></trkpt><trkpt lat="42.9860364" lon="13.4457809"><ele>698.4</ele><time>2026-04-12T10:04:30.047Z</time></trkpt><trkpt lat="42.9861422" lon="13.4458242"><ele>700.0</ele><time>2026-04-12T10:04:31.047Z</time></trkpt><trkpt lat="42.9862574" lon="13.4458448"><ele>700.0</ele><time>2026-04-12T10:04:32.056Z</time></trkpt><trkpt lat="42.9863802" lon="13.4458233"><ele>700.0</ele><time>2026-04-12T10:04:33.047Z</time></trkpt><trkpt lat="42.9864931" lon="13.4457905"><ele>700.0</ele><time>2026-04-12T10:04:34.06Z</time></trkpt><trkpt lat="42.9866001" lon="13.4457381"><ele>700.0</ele><time>2026-04-12T10:04:35.031Z</time></trkpt><trkpt lat="42.9867011" lon="13.4456357"><ele>702.6666666666667</ele><time>2026-04-12T10:04:36.044Z</time></trkpt><trkpt lat="42.9868051" lon="13.4455071"><ele>705.3333333333334</ele><time>2026-04-12T10:04:37.048Z</time></trkpt><trkpt lat="42.9869057" lon="13.445354"><ele>708.0</ele><time>2026-04-12T10:04:38.049Z</time></trkpt><trkpt lat="42.987013" lon="13.4451914"><ele>708.0</ele><time>2026-04-12T10:04:39.048Z</time></trkpt><trkpt lat="42.9871284" lon="13.4450214"><ele>708.0</ele><time>2026-04-12T10:04:40.053Z</time></trkpt><trkpt lat="42.987248" lon="13.4448348"><ele>708.0</ele><time>2026-04-12T10:04:41.045Z</time></trkpt><trkpt lat="42.9873673" lon="13.444649"><ele>707.0</ele><time>2026-04-12T10:04:42.065Z</time></trkpt><trkpt lat="42.9874898" lon="13.444463"><ele>706.0</ele><time>2026-04-12T10:04:43.056Z</time></trkpt><trkpt lat="42.9876076" lon="13.4442906"><ele>705.0</ele><time>2026-04-12T10:04:44.05Z</time></trkpt><trkpt lat="42.9877221" lon="13.4441049"><ele>710.6666666666666</ele><time>2026-04-12T10:04:45.065Z</time></trkpt><trkpt lat="42.9878257" lon="13.4438987"><ele>716.3333333333333</ele><time>2026-04-12T10:04:46.062Z</time></trkpt><trkpt lat="42.9879121" lon="13.4436752"><ele>722.0</ele><time>2026-04-12T10:04:47.014Z</time></trkpt><trkpt lat="42.9879874" lon="13.4434483"><ele>722.0</ele><time>2026-04-12T10:04:48.053Z</time></trkpt><trkpt lat="42.9880616" lon="13.4432183"><ele>722.0</ele><time>2026-04-12T10:04:49.067Z</time></trkpt><trkpt lat="42.988124" lon="13.4430186"><ele>722.0</ele><time>2026-04-12T10:04:50.048Z</time></trkpt><trkpt lat="42.9881846" lon="13.4428521"><ele>720.6666666666666</ele><time>2026-04-12T10:04:51.024Z</time></trkpt><trkpt lat="42.9882591" lon="13.4427445"><ele>719.3333333333333</ele><time>2026-04-12T10:04:52.038Z</time></trkpt><trkpt lat="42.9883166" lon="13.4426707"><ele>718.0</ele><time>2026-04-12T10:04:53.039Z</time></trkpt><trkpt lat="42.9883969" lon="13.4426298"><ele>716.6666666666666</ele><time>2026-04-12T10:04:54.036Z</time></trkpt><trkpt lat="42.9884845" lon="13.4426182"><ele>715.3333333333334</ele><time>2026-04-12T10:04:55.028Z</time></trkpt><trkpt lat="42.9885481" lon="13.4426518"><ele>714.0</ele><time>2026-04-12T10:04:56.055Z</time></trkpt><trkpt lat="42.9886397" lon="13.4427326"><ele>714.0</ele><time>2026-04-12T10:04:58.047Z</time></trkpt><trkpt lat="42.9886798" lon="13.4426464"><ele>714.0</ele><time>2026-04-12T10:05:02.039Z</time></trkpt><trkpt lat="42.9886017" lon="13.4425162"><ele>714.0</ele><time>2026-04-12T10:05:04.026Z</time></trkpt><trkpt lat="42.9885375" lon="13.4424781"><ele>714.0</ele><time>2026-04-12T10:05:05.04Z</time></trkpt><trkpt lat="42.9884745" lon="13.4424345"><ele>714.0</ele><time>2026-04-12T10:05:06.039Z</time></trkpt><trkpt lat="42.9884134" lon="13.4424081"><ele>714.0</ele><time>2026-04-12T10:05:07.07Z</time></trkpt><trkpt lat="42.9882805" lon="13.4424281"><ele>713.4000000000001</ele><time>2026-04-12T10:05:09.031Z</time></trkpt><trkpt lat="42.9881507" lon="13.4424306"><ele>712.8</ele><time>2026-04-12T10:05:11.072Z</time></trkpt><trkpt lat="42.988037" lon="13.4424723"><ele>712.2</ele><time>2026-04-12T10:05:13.064Z</time></trkpt><trkpt lat="42.9879727" lon="13.4424535"><ele>711.5999999999999</ele><time>2026-04-12T10:05:15.06Z</time></trkpt><trkpt lat="42.9880403" lon="13.4425043"><ele>711.0</ele><time>2026-04-12T10:05:25.053Z</time></trkpt><trkpt lat="42.9881275" lon="13.4424693"><ele>711.0</ele><time>2026-04-12T10:05:27.024Z</time></trkpt><trkpt lat="42.988219" lon="13.4424407"><ele>711.0</ele><time>2026-04-12T10:05:29Z</time></trkpt><trkpt lat="42.9882849" lon="13.4424164"><ele>711.0</ele><time>2026-04-12T10:05:32.032Z</time></trkpt><trkpt lat="42.9882069" lon="13.4424092"><ele>711.0</ele><time>2026-04-12T10:05:39.048Z</time></trkpt><trkpt lat="42.9882407" lon="13.4422905"><ele>711.0</ele><time>2026-04-12T10:05:44.019Z</time></trkpt><trkpt lat="42.9883003" lon="13.4422535"><ele>711.0</ele><time>2026-04-12T10:05:55.047Z</time></trkpt><trkpt lat="42.9883641" lon="13.4422165"><ele>711.5</ele><time>2026-04-12T10:05:57.039Z</time></trkpt><trkpt lat="42.988445" lon="13.4421807"><ele>712.0</ele><time>2026-04-12T10:05:59.046Z</time></trkpt><trkpt lat="42.9885069" lon="13.4421538"><ele>712.5</ele><time>2026-04-12T10:06:00.072Z</time></trkpt><trkpt lat="42.9885969" lon="13.442095"><ele>713.0</ele><time>2026-04-12T10:06:02.055Z</time></trkpt><trkpt lat="42.9886765" lon="13.4420901"><ele>713.5</ele><time>2026-04-12T10:06:05.043Z</time></trkpt><trkpt lat="42.9887747" lon="13.4421667"><ele>714.0</ele><time>2026-04-12T10:06:07.057Z</time></trkpt><trkpt lat="42.9888316" lon="13.4422118"><ele>714.0</ele><time>2026-04-12T10:06:08.018Z</time></trkpt><trkpt lat="42.9889451" lon="13.4422869"><ele>714.0</ele><time>2026-04-12T10:06:10.063Z</time></trkpt><trkpt lat="42.9890148" lon="13.442343"><ele>714.0</ele><time>2026-04-12T10:06:12.054Z</time></trkpt><trkpt lat="42.9890744" lon="13.4424069"><ele>714.0</ele><time>2026-04-12T10:06:14.04Z</time></trkpt><trkpt lat="42.9892035" lon="13.442506"><ele>714.0</ele><time>2026-04-12T10:06:16.038Z</time></trkpt><trkpt lat="42.9892883" lon="13.4425552"><ele>711.4000000000001</ele><time>2026-04-12T10:06:17.046Z</time></trkpt><trkpt lat="42.9893775" lon="13.4426017"><ele>708.8</ele><time>2026-04-12T10:06:18.027Z</time></trkpt><trkpt lat="42.9894592" lon="13.442648"><ele>706.2</ele><time>2026-04-12T10:06:19.051Z</time></trkpt><trkpt lat="42.9895478" lon="13.442692"><ele>703.5999999999999</ele><time>2026-04-12T10:06:20.032Z</time></trkpt><trkpt lat="42.9896336" lon="13.4427255"><ele>701.0</ele><time>2026-04-12T10:06:21.023Z</time></trkpt><trkpt lat="42.9897224" lon="13.442753"><ele>701.0</ele><time>2026-04-12T10:06:22.01Z</time></trkpt><trkpt lat="42.9898087" lon="13.4427776"><ele>701.0</ele><time>2026-04-12T10:06:23.038Z</time></trkpt><trkpt lat="42.9898957" lon="13.4427997"><ele>701.0</ele><time>2026-04-12T10:06:24.025Z</time></trkpt><trkpt lat="42.9899814" lon="13.4428329"><ele>701.0</ele><time>2026-04-12T10:06:25.048Z</time></trkpt><trkpt lat="42.9900566" lon="13.4428825"><ele>701.0</ele><time>2026-04-12T10:06:26.036Z</time></trkpt><trkpt lat="42.9901124" lon="13.4429335"><ele>701.0</ele><time>2026-04-12T10:06:27.035Z</time></trkpt><trkpt lat="42.9901598" lon="13.4429996"><ele>703.1666666666666</ele><time>2026-04-12T10:06:28.046Z</time></trkpt><trkpt lat="42.9902228" lon="13.4430965"><ele>705.3333333333333</ele><time>2026-04-12T10:06:29.007Z</time></trkpt><trkpt lat="42.9902894" lon="13.4431842"><ele>707.5</ele><time>2026-04-12T10:06:30.024Z</time></trkpt><trkpt lat="42.9903502" lon="13.443269"><ele>709.6666666666666</ele><time>2026-04-12T10:06:31.002Z</time></trkpt><trkpt lat="42.9904141" lon="13.4433592"><ele>711.8333333333334</ele><time>2026-04-12T10:06:32.035Z</time></trkpt><trkpt lat="42.9904722" lon="13.44341"><ele>714.0</ele><time>2026-04-12T10:06:32.988Z</time></trkpt><trkpt lat="42.9905385" lon="13.4434674"><ele>714.0</ele><time>2026-04-12T10:06:34.043Z</time></trkpt><trkpt lat="42.9905996" lon="13.4435021"><ele>714.0</ele><time>2026-04-12T10:06:35.034Z</time></trkpt><trkpt lat="42.9907015" lon="13.4435003"><ele>714.0</ele><time>2026-04-12T10:06:37.027Z</time></trkpt><trkpt lat="42.9908191" lon="13.4433595"><ele>714.0</ele><time>2026-04-12T10:06:38.97Z</time></trkpt><trkpt lat="42.9908729" lon="13.4433059"><ele>714.0</ele><time>2026-04-12T10:06:39.969Z</time></trkpt><trkpt lat="42.9909284" lon="13.4431389"><ele>714.1666666666666</ele><time>2026-04-12T10:06:41.985Z</time></trkpt><trkpt lat="42.9909683" lon="13.4430292"><ele>714.3333333333334</ele><time>2026-04-12T10:06:43.974Z</time></trkpt><trkpt lat="42.9910288" lon="13.4429836"><ele>714.5</ele><time>2026-04-12T10:06:47.004Z</time></trkpt><trkpt lat="42.9910741" lon="13.4429141"><ele>714.6666666666667</ele><time>2026-04-12T10:06:48.976Z</time></trkpt><trkpt lat="42.9911549" lon="13.4429458"><ele>714.8333333333334</ele><time>2026-04-12T10:06:52.009Z</time></trkpt><trkpt lat="42.9912158" lon="13.4429832"><ele>715.0</ele><time>2026-04-12T10:06:52.996Z</time></trkpt><trkpt lat="42.9912945" lon="13.443067"><ele>715.0</ele><time>2026-04-12T10:06:55.023Z</time></trkpt><trkpt lat="42.9912277" lon="13.4431404"><ele>715.0</ele><time>2026-04-12T10:06:59.033Z</time></trkpt><trkpt lat="42.9911345" lon="13.4431514"><ele>715.0</ele><time>2026-04-12T10:07:01.038Z</time></trkpt><trkpt lat="42.991071" lon="13.4431878"><ele>715.0</ele><time>2026-04-12T10:07:03.03Z</time></trkpt><trkpt lat="42.9911381" lon="13.4432195"><ele>715.0</ele><time>2026-04-12T10:07:08.034Z</time></trkpt><trkpt lat="42.9912119" lon="13.4432259"><ele>715.0</ele><time>2026-04-12T10:07:10.018Z</time></trkpt><trkpt lat="42.9912708" lon="13.4432568"><ele>715.0</ele><time>2026-04-12T10:07:11.039Z</time></trkpt><trkpt lat="42.9913228" lon="13.4433363"><ele>715.0</ele><time>2026-04-12T10:07:13.054Z</time></trkpt><trkpt lat="42.9914297" lon="13.4433607"><ele>715.0</ele><time>2026-04-12T10:07:15.028Z</time></trkpt><trkpt lat="42.9914954" lon="13.4434025"><ele>715.0</ele><time>2026-04-12T10:07:17.047Z</time></trkpt><trkpt lat="42.9915324" lon="13.4434878"><ele>715.0</ele><time>2026-04-12T10:07:22.019Z</time></trkpt><trkpt lat="42.9914385" lon="13.4435025"><ele>715.0</ele><time>2026-04-12T10:07:26.038Z</time></trkpt><trkpt lat="42.991373" lon="13.4435313"><ele>715.0</ele><time>2026-04-12T10:07:28.039Z</time></trkpt><trkpt lat="42.9914605" lon="13.4435568"><ele>715.0</ele><time>2026-04-12T10:07:35.033Z</time></trkpt><trkpt lat="42.9914975" lon="13.4436696"><ele>715.0</ele><time>2026-04-12T10:07:38.02Z</time></trkpt><trkpt lat="42.9915471" lon="13.443756"><ele>715.0</ele><time>2026-04-12T10:07:40.031Z</time></trkpt><trkpt lat="42.991618" lon="13.443816"><ele>715.0</ele><time>2026-04-12T10:07:43.036Z</time></trkpt><trkpt lat="42.9916752" lon="13.4438844"><ele>715.0</ele><time>2026-04-12T10:07:47.01Z</time></trkpt><trkpt lat="42.9916696" lon="13.4439813"><ele>718.1666666666667</ele><time>2026-04-12T10:07:50.047Z</time></trkpt><trkpt lat="42.9916077" lon="13.4440777"><ele>721.3333333333334</ele><time>2026-04-12T10:07:52.033Z</time></trkpt><trkpt lat="42.9915511" lon="13.4441191"><ele>724.5</ele><time>2026-04-12T10:07:53.047Z</time></trkpt><trkpt lat="42.9914458" lon="13.4441756"><ele>727.6666666666666</ele><time>2026-04-12T10:07:55.05Z</time></trkpt><trkpt lat="42.991385" lon="13.4442031"><ele>730.8333333333333</ele><time>2026-04-12T10:07:56.054Z</time></trkpt><trkpt lat="42.9913181" lon="13.4442953"><ele>734.0</ele><time>2026-04-12T10:07:58.042Z</time></trkpt><trkpt lat="42.9913399" lon="13.444443"><ele>734.0</ele><time>2026-04-12T10:08:00.032Z</time></trkpt><trkpt lat="42.9913599" lon="13.4445476"><ele>734.0</ele><time>2026-04-12T10:08:02.019Z</time></trkpt><trkpt lat="42.9914114" lon="13.4446468"><ele>734.0</ele><time>2026-04-12T10:08:05.044Z</time></trkpt><trkpt lat="42.9914857" lon="13.4446846"><ele>734.0</ele><time>2026-04-12T10:08:08.051Z</time></trkpt><trkpt lat="42.9915582" lon="13.444748"><ele>734.0</ele><time>2026-04-12T10:08:10.043Z</time></trkpt><trkpt lat="42.9916516" lon="13.4448199"><ele>734.0</ele><time>2026-04-12T10:08:11.974Z</time></trkpt><trkpt lat="42.9918584" lon="13.4448311"><ele>738.1666666666666</ele><time>2026-04-12T10:08:14.03Z</time></trkpt><trkpt lat="42.9919326" lon="13.4448425"><ele>742.3333333333333</ele><time>2026-04-12T10:08:15.038Z</time></trkpt><trkpt lat="42.9919977" lon="13.4448784"><ele>746.5</ele><time>2026-04-12T10:08:16.013Z</time></trkpt><trkpt lat="42.9920598" lon="13.444909"><ele>750.6666666666666</ele><time>2026-04-12T10:08:17.035Z</time></trkpt><trkpt lat="42.9921264" lon="13.4450594"><ele>754.8333333333334</ele><time>2026-04-12T10:08:19.035Z</time></trkpt><trkpt lat="42.9921707" lon="13.445197"><ele>759.0</ele><time>2026-04-12T10:08:21.035Z</time></trkpt><trkpt lat="42.9921695" lon="13.4453582"><ele>761.6</ele><time>2026-04-12T10:08:23.035Z</time></trkpt><trkpt lat="42.9921506" lon="13.4454718"><ele>764.2</ele><time>2026-04-12T10:08:25.041Z</time></trkpt><trkpt lat="42.9920941" lon="13.4455954"><ele>766.8000000000001</ele><time>2026-04-12T10:08:27.029Z</time></trkpt><trkpt lat="42.9920599" lon="13.4457253"><ele>769.4000000000001</ele><time>2026-04-12T10:08:29.038Z</time></trkpt><trkpt lat="42.9920253" lon="13.445859"><ele>772.0</ele><time>2026-04-12T10:08:31.015Z</time></trkpt><trkpt lat="42.991988" lon="13.445986"><ele>771.9999999999999</ele><time>2026-04-12T10:08:33.055Z</time></trkpt><trkpt lat="42.9919665" lon="13.4461294"><ele>772.0</ele><time>2026-04-12T10:08:35.043Z</time></trkpt><trkpt lat="42.9919672" lon="13.4462288"><ele>772.0</ele><time>2026-04-12T10:08:36.046Z</time></trkpt><trkpt lat="42.991966" lon="13.4463402"><ele>772.0</ele><time>2026-04-12T10:08:37.056Z</time></trkpt><trkpt lat="42.9919555" lon="13.4464571"><ele>771.9999999999999</ele><time>2026-04-12T10:08:38.046Z</time></trkpt><trkpt lat="42.9919274" lon="13.4465688"><ele>772.0</ele><time>2026-04-12T10:08:38.978Z</time></trkpt><trkpt lat="42.9919131" lon="13.4466814"><ele>773.8333333333333</ele><time>2026-04-12T10:08:40.041Z</time></trkpt><trkpt lat="42.9919022" lon="13.4467842"><ele>775.6666666666666</ele><time>2026-04-12T10:08:41.051Z</time></trkpt><trkpt lat="42.9919028" lon="13.4468725"><ele>777.5</ele><time>2026-04-12T10:08:43.05Z</time></trkpt><trkpt lat="42.9919665" lon="13.4469353"><ele>779.3333333333333</ele><time>2026-04-12T10:08:45.047Z</time></trkpt><trkpt lat="42.9920196" lon="13.4469889"><ele>781.1666666666666</ele><time>2026-04-12T10:08:46.015Z</time></trkpt><trkpt lat="42.9921098" lon="13.4470192"><ele>783.0</ele><time>2026-04-12T10:08:47.058Z</time></trkpt><trkpt lat="42.9922083" lon="13.4470723"><ele>783.0</ele><time>2026-04-12T10:08:48.053Z</time></trkpt><trkpt lat="42.9922948" lon="13.4470949"><ele>783.0</ele><time>2026-04-12T10:08:49.059Z</time></trkpt><trkpt lat="42.9923636" lon="13.4471843"><ele>783.0</ele><time>2026-04-12T10:08:51.048Z</time></trkpt><trkpt lat="42.9923554" lon="13.4472755"><ele>783.0</ele><time>2026-04-12T10:08:53.036Z</time></trkpt><trkpt lat="42.9922984" lon="13.4473773"><ele>783.0</ele><time>2026-04-12T10:08:56.044Z</time></trkpt><trkpt lat="42.9922731" lon="13.447479"><ele>783.0</ele><time>2026-04-12T10:08:57.045Z</time></trkpt><trkpt lat="42.9922402" lon="13.4475882"><ele>786.25</ele><time>2026-04-12T10:08:58.041Z</time></trkpt><trkpt lat="42.992207" lon="13.4477179"><ele>789.5</ele><time>2026-04-12T10:08:59.022Z</time></trkpt><trkpt lat="42.9921798" lon="13.4478529"><ele>792.75</ele><time>2026-04-12T10:09:00.055Z</time></trkpt><trkpt lat="42.9921556" lon="13.4480057"><ele>796.0</ele><time>2026-04-12T10:09:01.037Z</time></trkpt><trkpt lat="42.9921434" lon="13.4481955"><ele>800.5</ele><time>2026-04-12T10:09:02.032Z</time></trkpt><trkpt lat="42.9921032" lon="13.4483588"><ele>805.0</ele><time>2026-04-12T10:09:03.04Z</time></trkpt><trkpt lat="42.9920689" lon="13.4485285"><ele>809.5</ele><time>2026-04-12T10:09:03.999Z</time></trkpt><trkpt lat="42.9920011" lon="13.4486934"><ele>814.0</ele><time>2026-04-12T10:09:05.037Z</time></trkpt><trkpt lat="42.9919155" lon="13.4488473"><ele>821.0</ele><time>2026-04-12T10:09:06.019Z</time></trkpt><trkpt lat="42.9918316" lon="13.4489984"><ele>828.0</ele><time>2026-04-12T10:09:07.043Z</time></trkpt><trkpt lat="42.9917569" lon="13.4491583"><ele>835.0</ele><time>2026-04-12T10:09:08.054Z</time></trkpt><trkpt lat="42.9916792" lon="13.449322"><ele>842.0</ele><time>2026-04-12T10:09:09.045Z</time></trkpt><trkpt lat="42.991595" lon="13.4495029"><ele>827.6666666666667</ele><time>2026-04-12T10:09:10.052Z</time></trkpt><trkpt lat="42.9915123" lon="13.4496936"><ele>813.3333333333333</ele><time>2026-04-12T10:09:11.049Z</time></trkpt><trkpt lat="42.9914295" lon="13.4498658"><ele>799.0</ele><time>2026-04-12T10:09:12.043Z</time></trkpt><trkpt lat="42.991357" lon="13.4500446"><ele>799.0</ele><time>2026-04-12T10:09:13.036Z</time></trkpt><trkpt lat="42.9912935" lon="13.4502096"><ele>799.0</ele><time>2026-04-12T10:09:14.021Z</time></trkpt><trkpt lat="42.9912212" lon="13.4503627"><ele>799.0</ele><time>2026-04-12T10:09:15.042Z</time></trkpt><trkpt lat="42.9911399" lon="13.4505026"><ele>799.0</ele><time>2026-04-12T10:09:16.043Z</time></trkpt><trkpt lat="42.9910732" lon="13.4506554"><ele>805.4000000000001</ele><time>2026-04-12T10:09:17.05Z</time></trkpt><trkpt lat="42.9910024" lon="13.4507789"><ele>811.8</ele><time>2026-04-12T10:09:18.028Z</time></trkpt><trkpt lat="42.9909386" lon="13.450885"><ele>818.2</ele><time>2026-04-12T10:09:19.013Z</time></trkpt><trkpt lat="42.9908866" lon="13.4509943"><ele>824.5999999999999</ele><time>2026-04-12T10:09:20.025Z</time></trkpt><trkpt lat="42.9908328" lon="13.4510776"><ele>831.0</ele><time>2026-04-12T10:09:21.026Z</time></trkpt><trkpt lat="42.9907726" lon="13.4512195"><ele>821.0</ele><time>2026-04-12T10:09:23.016Z</time></trkpt><trkpt lat="42.9907285" lon="13.4513267"><ele>811.0</ele><time>2026-04-12T10:09:24.034Z</time></trkpt><trkpt lat="42.9906715" lon="13.4514578"><ele>801.0</ele><time>2026-04-12T10:09:25.017Z</time></trkpt><trkpt lat="42.9906033" lon="13.4516023"><ele>791.0</ele><time>2026-04-12T10:09:26.005Z</time></trkpt><trkpt lat="42.990509" lon="13.451734"><ele>791.0</ele><time>2026-04-12T10:09:27.017Z</time></trkpt><trkpt lat="42.9904142" lon="13.4518632"><ele>791.0</ele><time>2026-04-12T10:09:28.019Z</time></trkpt><trkpt lat="42.9903218" lon="13.4520023"><ele>791.0</ele><time>2026-04-12T10:09:29.028Z</time></trkpt><trkpt lat="42.9902133" lon="13.4521432"><ele>791.0</ele><time>2026-04-12T10:09:30.032Z</time></trkpt><trkpt lat="42.9901123" lon="13.4522784"><ele>787.25</ele><time>2026-04-12T10:09:31.019Z</time></trkpt><trkpt lat="42.9900019" lon="13.452413"><ele>783.5</ele><time>2026-04-12T10:09:32.03Z</time></trkpt><trkpt lat="42.9899199" lon="13.4525574"><ele>779.75</ele><time>2026-04-12T10:09:33.008Z</time></trkpt><trkpt lat="42.989857" lon="13.4527171"><ele>776.0</ele><time>2026-04-12T10:09:34.024Z</time></trkpt><trkpt lat="42.9898044" lon="13.4528693"><ele>779.3333333333334</ele><time>2026-04-12T10:09:35.037Z</time></trkpt><trkpt lat="42.9897557" lon="13.4530026"><ele>782.6666666666667</ele><time>2026-04-12T10:09:36.044Z</time></trkpt><trkpt lat="42.9897235" lon="13.453128"><ele>786.0</ele><time>2026-04-12T10:09:37.03Z</time></trkpt><trkpt lat="42.9896991" lon="13.4532361"><ele>789.3333333333333</ele><time>2026-04-12T10:09:38.011Z</time></trkpt><trkpt lat="42.9896966" lon="13.4533496"><ele>792.6666666666666</ele><time>2026-04-12T10:09:39.039Z</time></trkpt><trkpt lat="42.9897128" lon="13.4534416"><ele>796.0</ele><time>2026-04-12T10:09:40.052Z</time></trkpt><trkpt lat="42.9897432" lon="13.4535461"><ele>796.0</ele><time>2026-04-12T10:09:41.022Z</time></trkpt><trkpt lat="42.9897731" lon="13.4536342"><ele>796.0</ele><time>2026-04-12T10:09:42.018Z</time></trkpt><trkpt lat="42.9898362" lon="13.4537459"><ele>796.0</ele><time>2026-04-12T10:09:43.034Z</time></trkpt><trkpt lat="42.9898865" lon="13.4538777"><ele>796.0</ele><time>2026-04-12T10:09:44.041Z</time></trkpt><trkpt lat="42.9899333" lon="13.4540063"><ele>796.0</ele><time>2026-04-12T10:09:45.01Z</time></trkpt><trkpt lat="42.9899704" lon="13.454143"><ele>795.8</ele><time>2026-04-12T10:09:46.045Z</time></trkpt><trkpt lat="42.9899853" lon="13.4542739"><ele>795.5999999999999</ele><time>2026-04-12T10:09:47.019Z</time></trkpt><trkpt lat="42.9899871" lon="13.4543947"><ele>795.4</ele><time>2026-04-12T10:09:48.03Z</time></trkpt><trkpt lat="42.9899662" lon="13.4545374"><ele>795.2</ele><time>2026-04-12T10:09:49.026Z</time></trkpt><trkpt lat="42.9899254" lon="13.4546732"><ele>795.0</ele><time>2026-04-12T10:09:50.032Z</time></trkpt><trkpt lat="42.9898738" lon="13.4548426"><ele>794.0</ele><time>2026-04-12T10:09:51.022Z</time></trkpt><trkpt lat="42.9898149" lon="13.4550265"><ele>793.0</ele><time>2026-04-12T10:09:52.023Z</time></trkpt><trkpt lat="42.9897615" lon="13.455216"><ele>792.0</ele><time>2026-04-12T10:09:53.017Z</time></trkpt><trkpt lat="42.9896827" lon="13.4554164"><ele>788.3333333333333</ele><time>2026-04-12T10:09:54.016Z</time></trkpt><trkpt lat="42.9896115" lon="13.4556174"><ele>784.6666666666666</ele><time>2026-04-12T10:09:55.027Z</time></trkpt><trkpt lat="42.9895548" lon="13.4558142"><ele>781.0</ele><time>2026-04-12T10:09:55.99Z</time></trkpt><trkpt lat="42.9894835" lon="13.4560069"><ele>781.0</ele><time>2026-04-12T10:09:57.039Z</time></trkpt><trkpt lat="42.9894241" lon="13.4561955"><ele>781.0</ele><time>2026-04-12T10:09:58.047Z</time></trkpt><trkpt lat="42.9893515" lon="13.4563795"><ele>781.0</ele><time>2026-04-12T10:09:59.051Z</time></trkpt><trkpt lat="42.9892823" lon="13.4565691"><ele>776.0</ele><time>2026-04-12T10:10:00.064Z</time></trkpt><trkpt lat="42.9892083" lon="13.456777"><ele>771.0</ele><time>2026-04-12T10:10:01.05Z</time></trkpt><trkpt lat="42.9891389" lon="13.4569796"><ele>766.0</ele><time>2026-04-12T10:10:02.039Z</time></trkpt><trkpt lat="42.9890746" lon="13.4571829"><ele>763.25</ele><time>2026-04-12T10:10:03.062Z</time></trkpt><trkpt lat="42.9890246" lon="13.4573677"><ele>760.5</ele><time>2026-04-12T10:10:04.055Z</time></trkpt><trkpt lat="42.9889727" lon="13.4575169"><ele>757.75</ele><time>2026-04-12T10:10:05.038Z</time></trkpt><trkpt lat="42.9889296" lon="13.4576518"><ele>755.0</ele><time>2026-04-12T10:10:06.053Z</time></trkpt><trkpt lat="42.9888877" lon="13.4577708"><ele>755.0</ele><time>2026-04-12T10:10:07.076Z</time></trkpt><trkpt lat="42.9888352" lon="13.4578621"><ele>755.0</ele><time>2026-04-12T10:10:08.059Z</time></trkpt><trkpt lat="42.9887791" lon="13.4579233"><ele>755.0</ele><time>2026-04-12T10:10:09.029Z</time></trkpt><trkpt lat="42.9887086" lon="13.4579598"><ele>755.0</ele><time>2026-04-12T10:10:10.05Z</time></trkpt><trkpt lat="42.9886336" lon="13.4579588"><ele>755.0</ele><time>2026-04-12T10:10:11.039Z</time></trkpt><trkpt lat="42.9885646" lon="13.4579505"><ele>755.0</ele><time>2026-04-12T10:10:12.045Z</time></trkpt><trkpt lat="42.9884644" lon="13.457985"><ele>754.1428571428571</ele><time>2026-04-12T10:10:14.064Z</time></trkpt><trkpt lat="42.9884243" lon="13.4580696"><ele>753.2857142857143</ele><time>2026-04-12T10:10:16.062Z</time></trkpt><trkpt lat="42.988393" lon="13.4581864"><ele>752.4285714285714</ele><time>2026-04-12T10:10:58.046Z</time></trkpt><trkpt lat="42.9883741" lon="13.4582738"><ele>751.5714285714286</ele><time>2026-04-12T10:11:20.041Z</time></trkpt><trkpt lat="42.988309" lon="13.4582492"><ele>750.7142857142858</ele><time>2026-04-12T10:11:32.036Z</time></trkpt><trkpt lat="42.9882447" lon="13.4582321"><ele>749.8571428571429</ele><time>2026-04-12T10:11:42.995Z</time></trkpt><trkpt lat="42.988176" lon="13.4582586"><ele>749.0</ele><time>2026-04-12T10:11:55.027Z</time></trkpt><trkpt lat="42.9881527" lon="13.4583466"><ele>748.1428571428571</ele><time>2026-04-12T10:12:02.014Z</time></trkpt><trkpt lat="42.9880952" lon="13.4583994"><ele>747.2857142857142</ele><time>2026-04-12T10:13:09.058Z</time></trkpt><trkpt lat="42.9881355" lon="13.4583278"><ele>746.4285714285714</ele><time>2026-04-12T10:14:38.986Z</time></trkpt><trkpt lat="42.9881808" lon="13.4582576"><ele>745.5714285714286</ele><time>2026-04-12T10:29:13.032Z</time></trkpt><trkpt lat="42.988173" lon="13.4583481"><ele>744.7142857142857</ele><time>2026-04-12T10:29:28.997Z</time></trkpt><trkpt lat="42.988201" lon="13.4582682"><ele>743.8571428571429</ele><time>2026-04-12T10:31:31.042Z</time></trkpt><trkpt lat="42.988264" lon="13.4582486"><ele>743.0</ele><time>2026-04-12T10:32:49.018Z</time></trkpt><trkpt lat="42.9883291" lon="13.4582632"><ele>743.8571428571429</ele><time>2026-04-12T10:32:57.02Z</time></trkpt><trkpt lat="42.9883908" lon="13.4582437"><ele>744.7142857142857</ele><time>2026-04-12T10:33:14.018Z</time></trkpt><trkpt lat="42.9884075" lon="13.4581427"><ele>745.5714285714286</ele><time>2026-04-12T10:34:37.041Z</time></trkpt><trkpt lat="42.9884137" lon="13.4580377"><ele>746.4285714285714</ele><time>2026-04-12T10:36:38.051Z</time></trkpt><trkpt lat="42.9884681" lon="13.4579631"><ele>747.2857142857142</ele><time>2026-04-12T10:36:41.053Z</time></trkpt><trkpt lat="42.9885342" lon="13.4579589"><ele>748.1428571428571</ele><time>2026-04-12T10:36:44.023Z</time></trkpt><trkpt lat="42.9885879" lon="13.457886"><ele>749.0</ele><time>2026-04-12T10:37:01.052Z</time></trkpt><trkpt lat="42.9885436" lon="13.4579483"><ele>749.0</ele><time>2026-04-12T10:37:09.035Z</time></trkpt><trkpt lat="42.988511" lon="13.4580232"><ele>749.0</ele><time>2026-04-12T10:37:25.044Z</time></trkpt><trkpt lat="42.9884926" lon="13.4581258"><ele>749.0</ele><time>2026-04-12T10:37:27.055Z</time></trkpt><trkpt lat="42.9884836" lon="13.4582124"><ele>749.0</ele><time>2026-04-12T10:37:29.039Z</time></trkpt><trkpt lat="42.9884953" lon="13.4583383"><ele>749.0</ele><time>2026-04-12T10:37:32.017Z</time></trkpt><trkpt lat="42.9885022" lon="13.4584393"><ele>749.0</ele><time>2026-04-12T10:37:34.027Z</time></trkpt><trkpt lat="42.9885062" lon="13.4585678"><ele>749.0</ele><time>2026-04-12T10:37:36.042Z</time></trkpt><trkpt lat="42.9885006" lon="13.4587014"><ele>749.0</ele><time>2026-04-12T10:37:38.051Z</time></trkpt><trkpt lat="42.9884655" lon="13.4588372"><ele>749.0</ele><time>2026-04-12T10:37:40.037Z</time></trkpt><trkpt lat="42.9884732" lon="13.4589447"><ele>749.0</ele><time>2026-04-12T10:37:42.053Z</time></trkpt><trkpt lat="42.9885358" lon="13.4589931"><ele>749.0</ele><time>2026-04-12T10:37:44.045Z</time></trkpt><trkpt lat="42.9886082" lon="13.4589712"><ele>749.0</ele><time>2026-04-12T10:37:46.021Z</time></trkpt><trkpt lat="42.9886622" lon="13.4589171"><ele>749.0</ele><time>2026-04-12T10:37:47.049Z</time></trkpt><trkpt lat="42.9887187" lon="13.458845"><ele>749.0</ele><time>2026-04-12T10:37:48.036Z</time></trkpt><trkpt lat="42.9887781" lon="13.4587523"><ele>749.0</ele><time>2026-04-12T10:37:49.037Z</time></trkpt><trkpt lat="42.988835" lon="13.4586476"><ele>749.0</ele><time>2026-04-12T10:37:50.063Z</time></trkpt><trkpt lat="42.9888876" lon="13.4585349"><ele>749.0</ele><time>2026-04-12T10:37:51.046Z</time></trkpt><trkpt lat="42.9889315" lon="13.4584152"><ele>749.0</ele><time>2026-04-12T10:37:52.046Z</time></trkpt><trkpt lat="42.9889777" lon="13.4582774"><ele>749.0</ele><time>2026-04-12T10:37:53.06Z</time></trkpt><trkpt lat="42.9890341" lon="13.4581478"><ele>749.0</ele><time>2026-04-12T10:37:54.029Z</time></trkpt><trkpt lat="42.9890927" lon="13.4580263"><ele>749.0</ele><time>2026-04-12T10:37:55.034Z</time></trkpt><trkpt lat="42.9891554" lon="13.4579065"><ele>749.0</ele><time>2026-04-12T10:37:56.052Z</time></trkpt><trkpt lat="42.9892205" lon="13.4577888"><ele>750.3333333333333</ele><time>2026-04-12T10:37:57.041Z</time></trkpt><trkpt lat="42.9892854" lon="13.4576767"><ele>751.6666666666666</ele><time>2026-04-12T10:37:58.027Z</time></trkpt><trkpt lat="42.9893387" lon="13.4575743"><ele>753.0</ele><time>2026-04-12T10:37:59.039Z</time></trkpt><trkpt lat="42.9893946" lon="13.4574986"><ele>754.3333333333334</ele><time>2026-04-12T10:38:00.024Z</time></trkpt><trkpt lat="42.9894444" lon="13.4574267"><ele>755.6666666666667</ele><time>2026-04-12T10:38:01.025Z</time></trkpt><trkpt lat="42.9895011" lon="13.4573546"><ele>757.0</ele><time>2026-04-12T10:38:02.039Z</time></trkpt><trkpt lat="42.9895673" lon="13.4572944"><ele>757.0</ele><time>2026-04-12T10:38:03.043Z</time></trkpt><trkpt lat="42.9896372" lon="13.4572501"><ele>757.0</ele><time>2026-04-12T10:38:04.035Z</time></trkpt><trkpt lat="42.9897035" lon="13.4572385"><ele>757.0</ele><time>2026-04-12T10:38:05.024Z</time></trkpt><trkpt lat="42.9897703" lon="13.4572803"><ele>757.0</ele><time>2026-04-12T10:38:06.039Z</time></trkpt><trkpt lat="42.9898259" lon="13.4573809"><ele>757.0</ele><time>2026-04-12T10:38:07.037Z</time></trkpt><trkpt lat="42.98986" lon="13.4575182"><ele>757.0</ele><time>2026-04-12T10:38:08.025Z</time></trkpt><trkpt lat="42.9898853" lon="13.4576833"><ele>757.0</ele><time>2026-04-12T10:38:09.042Z</time></trkpt><trkpt lat="42.9899162" lon="13.4578387"><ele>757.0</ele><time>2026-04-12T10:38:10.041Z</time></trkpt><trkpt lat="42.9899568" lon="13.4579922"><ele>757.0</ele><time>2026-04-12T10:38:11.003Z</time></trkpt><trkpt lat="42.9899956" lon="13.4581647"><ele>757.0</ele><time>2026-04-12T10:38:12.031Z</time></trkpt><trkpt lat="42.9900437" lon="13.4583516"><ele>758.75</ele><time>2026-04-12T10:38:13.039Z</time></trkpt><trkpt lat="42.9900855" lon="13.4585389"><ele>760.5</ele><time>2026-04-12T10:38:14.017Z</time></trkpt><trkpt lat="42.9901229" lon="13.4587195"><ele>762.25</ele><time>2026-04-12T10:38:15.062Z</time></trkpt><trkpt lat="42.9901593" lon="13.4588897"><ele>764.0</ele><time>2026-04-12T10:38:16.06Z</time></trkpt><trkpt lat="42.9901915" lon="13.45904"><ele>760.8333333333333</ele><time>2026-04-12T10:38:17.042Z</time></trkpt><trkpt lat="42.9902313" lon="13.4591573"><ele>757.6666666666666</ele><time>2026-04-12T10:38:18.049Z</time></trkpt><trkpt lat="42.9902907" lon="13.4592522"><ele>754.5</ele><time>2026-04-12T10:38:19.048Z</time></trkpt><trkpt lat="42.990365" lon="13.4593051"><ele>751.3333333333334</ele><time>2026-04-12T10:38:20.035Z</time></trkpt><trkpt lat="42.9904329" lon="13.4593349"><ele>748.1666666666667</ele><time>2026-04-12T10:38:21.046Z</time></trkpt><trkpt lat="42.9905232" lon="13.4593325"><ele>745.0</ele><time>2026-04-12T10:38:22.049Z</time></trkpt><trkpt lat="42.9906486" lon="13.4593"><ele>745.0</ele><time>2026-04-12T10:38:23.032Z</time></trkpt><trkpt lat="42.9907988" lon="13.4592578"><ele>745.0</ele><time>2026-04-12T10:38:23.983Z</time></trkpt><trkpt lat="42.9909742" lon="13.4592093"><ele>745.0</ele><time>2026-04-12T10:38:25.042Z</time></trkpt><trkpt lat="42.991141" lon="13.4591576"><ele>741.3333333333334</ele><time>2026-04-12T10:38:26.054Z</time></trkpt><trkpt lat="42.9913097" lon="13.4591307"><ele>737.6666666666666</ele><time>2026-04-12T10:38:27.03Z</time></trkpt><trkpt lat="42.9914805" lon="13.4590717"><ele>734.0</ele><time>2026-04-12T10:38:28.057Z</time></trkpt><trkpt lat="42.9916545" lon="13.4590157"><ele>728.6666666666666</ele><time>2026-04-12T10:38:29.039Z</time></trkpt><trkpt lat="42.9918237" lon="13.458951"><ele>723.3333333333334</ele><time>2026-04-12T10:38:30.026Z</time></trkpt><trkpt lat="42.9919859" lon="13.458899"><ele>718.0</ele><time>2026-04-12T10:38:31.044Z</time></trkpt><trkpt lat="42.9921414" lon="13.4588404"><ele>719.3333333333334</ele><time>2026-04-12T10:38:32.052Z</time></trkpt><trkpt lat="42.9922891" lon="13.458778"><ele>720.6666666666666</ele><time>2026-04-12T10:38:33.048Z</time></trkpt><trkpt lat="42.9924466" lon="13.4587158"><ele>722.0</ele><time>2026-04-12T10:38:34Z</time></trkpt><trkpt lat="42.9925986" lon="13.4586538"><ele>722.0</ele><time>2026-04-12T10:38:35.038Z</time></trkpt><trkpt lat="42.9927446" lon="13.4585972"><ele>722.0</ele><time>2026-04-12T10:38:36.037Z</time></trkpt><trkpt lat="42.992886" lon="13.4585434"><ele>722.0</ele><time>2026-04-12T10:38:37.046Z</time></trkpt><trkpt lat="42.9930337" lon="13.4584876"><ele>722.0</ele><time>2026-04-12T10:38:38.073Z</time></trkpt><trkpt lat="42.9931705" lon="13.4584391"><ele>722.0</ele><time>2026-04-12T10:38:39.03Z</time></trkpt><trkpt lat="42.9933079" lon="13.4583958"><ele>722.0</ele><time>2026-04-12T10:38:40.058Z</time></trkpt><trkpt lat="42.9934488" lon="13.4583652"><ele>722.0</ele><time>2026-04-12T10:38:41.047Z</time></trkpt><trkpt lat="42.9935889" lon="13.4583333"><ele>719.75</ele><time>2026-04-12T10:38:42.068Z</time></trkpt><trkpt lat="42.9937302" lon="13.4582965"><ele>717.5</ele><time>2026-04-12T10:38:43.044Z</time></trkpt><trkpt lat="42.993869" lon="13.4582503"><ele>715.25</ele><time>2026-04-12T10:38:44.045Z</time></trkpt><trkpt lat="42.9940084" lon="13.4581829"><ele>713.0</ele><time>2026-04-12T10:38:45.05Z</time></trkpt><trkpt lat="42.9941469" lon="13.4581152"><ele>713.75</ele><time>2026-04-12T10:38:46.022Z</time></trkpt><trkpt lat="42.9942757" lon="13.4580344"><ele>714.5</ele><time>2026-04-12T10:38:47.039Z</time></trkpt><trkpt lat="42.9944067" lon="13.4579634"><ele>715.25</ele><time>2026-04-12T10:38:48.036Z</time></trkpt><trkpt lat="42.9945355" lon="13.4579025"><ele>716.0</ele><time>2026-04-12T10:38:49.05Z</time></trkpt><trkpt lat="42.9946639" lon="13.4578521"><ele>716.0</ele><time>2026-04-12T10:38:50.055Z</time></trkpt><trkpt lat="42.9948066" lon="13.457796"><ele>716.0</ele><time>2026-04-12T10:38:51.04Z</time></trkpt><trkpt lat="42.9949582" lon="13.4577439"><ele>716.0</ele><time>2026-04-12T10:38:52.049Z</time></trkpt><trkpt lat="42.9951059" lon="13.4576864"><ele>712.5</ele><time>2026-04-12T10:38:53.053Z</time></trkpt><trkpt lat="42.995251" lon="13.4576329"><ele>709.0</ele><time>2026-04-12T10:38:53.991Z</time></trkpt><trkpt lat="42.9953929" lon="13.4575709"><ele>705.5</ele><time>2026-04-12T10:38:55.001Z</time></trkpt><trkpt lat="42.9955303" lon="13.4575159"><ele>702.0</ele><time>2026-04-12T10:38:56.021Z</time></trkpt><trkpt lat="42.9956598" lon="13.457442"><ele>702.0</ele><time>2026-04-12T10:38:57.041Z</time></trkpt><trkpt lat="42.9957836" lon="13.457355"><ele>702.0</ele><time>2026-04-12T10:38:58.046Z</time></trkpt><trkpt lat="42.9958981" lon="13.4572698"><ele>702.0</ele><time>2026-04-12T10:38:59.039Z</time></trkpt><trkpt lat="42.9960075" lon="13.4571919"><ele>702.0</ele><time>2026-04-12T10:39:00.031Z</time></trkpt><trkpt lat="42.9961156" lon="13.4571166"><ele>701.8</ele><time>2026-04-12T10:39:01.037Z</time></trkpt><trkpt lat="42.9962243" lon="13.4570451"><ele>701.6</ele><time>2026-04-12T10:39:02.034Z</time></trkpt><trkpt lat="42.9963262" lon="13.4569889"><ele>701.4</ele><time>2026-04-12T10:39:03.007Z</time></trkpt><trkpt lat="42.9964205" lon="13.4569186"><ele>701.1999999999999</ele><time>2026-04-12T10:39:04.039Z</time></trkpt><trkpt lat="42.9965157" lon="13.4568722"><ele>701.0</ele><time>2026-04-12T10:39:05.019Z</time></trkpt><trkpt lat="42.9965997" lon="13.456841"><ele>698.0</ele><time>2026-04-12T10:39:06.034Z</time></trkpt><trkpt lat="42.996678" lon="13.4568419"><ele>695.0</ele><time>2026-04-12T10:39:07.049Z</time></trkpt><trkpt lat="42.9967391" lon="13.456992"><ele>692.0</ele><time>2026-04-12T10:39:09.043Z</time></trkpt><trkpt lat="42.9967036" lon="13.4570774"><ele>689.0</ele><time>2026-04-12T10:39:10.035Z</time></trkpt><trkpt lat="42.9966184" lon="13.4571449"><ele>686.0</ele><time>2026-04-12T10:39:11.036Z</time></trkpt><trkpt lat="42.9965192" lon="13.4572055"><ele>686.0</ele><time>2026-04-12T10:39:12.059Z</time></trkpt><trkpt lat="42.9964033" lon="13.4572551"><ele>686.0</ele><time>2026-04-12T10:39:13.046Z</time></trkpt><trkpt lat="42.9962934" lon="13.4573127"><ele>686.0</ele><time>2026-04-12T10:39:14.061Z</time></trkpt><trkpt lat="42.9961909" lon="13.4573908"><ele>686.0</ele><time>2026-04-12T10:39:15.073Z</time></trkpt><trkpt lat="42.9961027" lon="13.4575097"><ele>686.0</ele><time>2026-04-12T10:39:16.049Z</time></trkpt><trkpt lat="42.9960394" lon="13.4576718"><ele>686.0</ele><time>2026-04-12T10:39:17.055Z</time></trkpt><trkpt lat="42.9959934" lon="13.4578467"><ele>686.0</ele><time>2026-04-12T10:39:18.014Z</time></trkpt><trkpt lat="42.9959398" lon="13.4580301"><ele>686.0</ele><time>2026-04-12T10:39:19.042Z</time></trkpt><trkpt lat="42.9958704" lon="13.4582107"><ele>686.5</ele><time>2026-04-12T10:39:20.056Z</time></trkpt><trkpt lat="42.9957836" lon="13.4583927"><ele>687.0</ele><time>2026-04-12T10:39:21.055Z</time></trkpt><trkpt lat="42.9957015" lon="13.4585591"><ele>687.5</ele><time>2026-04-12T10:39:22.05Z</time></trkpt><trkpt lat="42.9956224" lon="13.4587177"><ele>688.0</ele><time>2026-04-12T10:39:23.009Z</time></trkpt><trkpt lat="42.9955512" lon="13.4588608"><ele>685.75</ele><time>2026-04-12T10:39:24.054Z</time></trkpt><trkpt lat="42.9954898" lon="13.4590064"><ele>683.5</ele><time>2026-04-12T10:39:25.037Z</time></trkpt><trkpt lat="42.9954529" lon="13.4591605"><ele>681.25</ele><time>2026-04-12T10:39:26.049Z</time></trkpt><trkpt lat="42.9954299" lon="13.4593279"><ele>679.0</ele><time>2026-04-12T10:39:26.981Z</time></trkpt><trkpt lat="42.9954379" lon="13.4595003"><ele>678.5</ele><time>2026-04-12T10:39:28.037Z</time></trkpt><trkpt lat="42.9954656" lon="13.4596431"><ele>678.0</ele><time>2026-04-12T10:39:29.036Z</time></trkpt><trkpt lat="42.9955067" lon="13.4597888"><ele>677.5</ele><time>2026-04-12T10:39:29.984Z</time></trkpt><trkpt lat="42.9955744" lon="13.4599224"><ele>677.0</ele><time>2026-04-12T10:39:31.025Z</time></trkpt><trkpt lat="42.9956559" lon="13.4600268"><ele>677.0</ele><time>2026-04-12T10:39:31.989Z</time></trkpt><trkpt lat="42.9957727" lon="13.4600981"><ele>677.0</ele><time>2026-04-12T10:39:33.043Z</time></trkpt><trkpt lat="42.9959057" lon="13.4601531"><ele>677.0</ele><time>2026-04-12T10:39:34.04Z</time></trkpt><trkpt lat="42.9960637" lon="13.4601749"><ele>677.0</ele><time>2026-04-12T10:39:35.02Z</time></trkpt><trkpt lat="42.9962331" lon="13.4601906"><ele>675.0</ele><time>2026-04-12T10:39:36.047Z</time></trkpt><trkpt lat="42.9964131" lon="13.4602086"><ele>673.0</ele><time>2026-04-12T10:39:37.026Z</time></trkpt><trkpt lat="42.9965946" lon="13.4602309"><ele>671.0</ele><time>2026-04-12T10:39:38.067Z</time></trkpt><trkpt lat="42.9967686" lon="13.4602453"><ele>667.3333333333333</ele><time>2026-04-12T10:39:39.077Z</time></trkpt><trkpt lat="42.9969264" lon="13.4602644"><ele>663.6666666666666</ele><time>2026-04-12T10:39:40.048Z</time></trkpt><trkpt lat="42.9970843" lon="13.4602805"><ele>660.0</ele><time>2026-04-12T10:39:41.054Z</time></trkpt><trkpt lat="42.9972436" lon="13.4602956"><ele>660.0</ele><time>2026-04-12T10:39:42.048Z</time></trkpt><trkpt lat="42.9973856" lon="13.4602988"><ele>660.0</ele><time>2026-04-12T10:39:43.039Z</time></trkpt><trkpt lat="42.9975141" lon="13.4603057"><ele>660.0</ele><time>2026-04-12T10:39:44.055Z</time></trkpt><trkpt lat="42.9976343" lon="13.4603265"><ele>660.0</ele><time>2026-04-12T10:39:45.043Z</time></trkpt><trkpt lat="42.9977303" lon="13.4603818"><ele>657.4</ele><time>2026-04-12T10:39:46.065Z</time></trkpt><trkpt lat="42.9977954" lon="13.4604743"><ele>654.8</ele><time>2026-04-12T10:39:47Z</time></trkpt><trkpt lat="42.9978243" lon="13.4606149"><ele>652.2</ele><time>2026-04-12T10:39:48.046Z</time></trkpt><trkpt lat="42.9978293" lon="13.4607669"><ele>649.6</ele><time>2026-04-12T10:39:49.035Z</time></trkpt><trkpt lat="42.9977865" lon="13.4609074"><ele>647.0</ele><time>2026-04-12T10:39:50.055Z</time></trkpt><trkpt lat="42.9977143" lon="13.4610271"><ele>647.0</ele><time>2026-04-12T10:39:51.044Z</time></trkpt><trkpt lat="42.997622" lon="13.4611396"><ele>647.0</ele><time>2026-04-12T10:39:52.06Z</time></trkpt><trkpt lat="42.9975183" lon="13.461242"><ele>647.0</ele><time>2026-04-12T10:39:53.037Z</time></trkpt><trkpt lat="42.9974052" lon="13.461358"><ele>647.0</ele><time>2026-04-12T10:39:54.051Z</time></trkpt><trkpt lat="42.9972934" lon="13.4614827"><ele>648.6666666666666</ele><time>2026-04-12T10:39:55.044Z</time></trkpt><trkpt lat="42.9971726" lon="13.4616153"><ele>650.3333333333334</ele><time>2026-04-12T10:39:56.047Z</time></trkpt><trkpt lat="42.9970485" lon="13.4617407"><ele>652.0</ele><time>2026-04-12T10:39:57.042Z</time></trkpt><trkpt lat="42.9969289" lon="13.4618794"><ele>652.0</ele><time>2026-04-12T10:39:58.062Z</time></trkpt><trkpt lat="42.9968111" lon="13.4620139"><ele>652.0</ele><time>2026-04-12T10:39:59.054Z</time></trkpt><trkpt lat="42.9967001" lon="13.4621423"><ele>652.0</ele><time>2026-04-12T10:40:00.036Z</time></trkpt><trkpt lat="42.9966029" lon="13.4622799"><ele>652.0</ele><time>2026-04-12T10:40:01.039Z</time></trkpt><trkpt lat="42.9965317" lon="13.4624147"><ele>652.25</ele><time>2026-04-12T10:40:02.055Z</time></trkpt><trkpt lat="42.9964903" lon="13.4625692"><ele>652.5</ele><time>2026-04-12T10:40:03.049Z</time></trkpt><trkpt lat="42.9964797" lon="13.4627391"><ele>652.75</ele><time>2026-04-12T10:40:04.045Z</time></trkpt><trkpt lat="42.9964913" lon="13.4629189"><ele>653.0</ele><time>2026-04-12T10:40:05.05Z</time></trkpt><trkpt lat="42.996509" lon="13.4631073"><ele>649.6666666666666</ele><time>2026-04-12T10:40:06.051Z</time></trkpt><trkpt lat="42.9965357" lon="13.4633062"><ele>646.3333333333334</ele><time>2026-04-12T10:40:06.994Z</time></trkpt><trkpt lat="42.9965659" lon="13.4635217"><ele>643.0</ele><time>2026-04-12T10:40:08.055Z</time></trkpt><trkpt lat="42.9965958" lon="13.4637448"><ele>641.0</ele><time>2026-04-12T10:40:09.054Z</time></trkpt><trkpt lat="42.9966217" lon="13.4639786"><ele>639.0</ele><time>2026-04-12T10:40:10.057Z</time></trkpt><trkpt lat="42.9966479" lon="13.4641922"><ele>637.0</ele><time>2026-04-12T10:40:11.049Z</time></trkpt><trkpt lat="42.9966742" lon="13.4643935"><ele>635.25</ele><time>2026-04-12T10:40:12.062Z</time></trkpt><trkpt lat="42.9966981" lon="13.4645819"><ele>633.5</ele><time>2026-04-12T10:40:13.041Z</time></trkpt><trkpt lat="42.9967195" lon="13.4647558"><ele>631.75</ele><time>2026-04-12T10:40:14.057Z</time></trkpt><trkpt lat="42.9967387" lon="13.464909"><ele>630.0</ele><time>2026-04-12T10:40:15.062Z</time></trkpt><trkpt lat="42.9967508" lon="13.4650322"><ele>630.5</ele><time>2026-04-12T10:40:15.999Z</time></trkpt><trkpt lat="42.9967591" lon="13.4651558"><ele>631.0</ele><time>2026-04-12T10:40:18.016Z</time></trkpt><trkpt lat="42.9966695" lon="13.4651742"><ele>631.5</ele><time>2026-04-12T10:40:21.048Z</time></trkpt><trkpt lat="42.996612" lon="13.4651137"><ele>632.0</ele><time>2026-04-12T10:40:22.043Z</time></trkpt><trkpt lat="42.9965563" lon="13.4650344"><ele>632.5</ele><time>2026-04-12T10:40:23.051Z</time></trkpt><trkpt lat="42.9964831" lon="13.4649443"><ele>633.0</ele><time>2026-04-12T10:40:24.056Z</time></trkpt><trkpt lat="42.9963956" lon="13.4648476"><ele>633.0</ele><time>2026-04-12T10:40:25.05Z</time></trkpt><trkpt lat="42.9962988" lon="13.4647495"><ele>633.0</ele><time>2026-04-12T10:40:26.042Z</time></trkpt><trkpt lat="42.9961973" lon="13.4646515"><ele>633.0</ele><time>2026-04-12T10:40:27.052Z</time></trkpt><trkpt lat="42.9961101" lon="13.4645506"><ele>633.0</ele><time>2026-04-12T10:40:28.039Z</time></trkpt><trkpt lat="42.9960278" lon="13.4644493"><ele>633.1999999999999</ele><time>2026-04-12T10:40:29.04Z</time></trkpt><trkpt lat="42.9959454" lon="13.4643468"><ele>633.4</ele><time>2026-04-12T10:40:30.047Z</time></trkpt><trkpt lat="42.9958662" lon="13.4642349"><ele>633.5999999999999</ele><time>2026-04-12T10:40:31.062Z</time></trkpt><trkpt lat="42.9957904" lon="13.4641185"><ele>633.8</ele><time>2026-04-12T10:40:32.059Z</time></trkpt><trkpt lat="42.9957" lon="13.464044"><ele>634.0</ele><time>2026-04-12T10:40:33.047Z</time></trkpt><trkpt lat="42.9956096" lon="13.4639821"><ele>634.0</ele><time>2026-04-12T10:40:33.996Z</time></trkpt><trkpt lat="42.9955207" lon="13.4639283"><ele>634.0</ele><time>2026-04-12T10:40:35.059Z</time></trkpt><trkpt lat="42.9954321" lon="13.4638552"><ele>634.0</ele><time>2026-04-12T10:40:36.042Z</time></trkpt><trkpt lat="42.9953311" lon="13.4638013"><ele>634.0</ele><time>2026-04-12T10:40:37.031Z</time></trkpt><trkpt lat="42.9952304" lon="13.4637499"><ele>634.0</ele><time>2026-04-12T10:40:38.032Z</time></trkpt><trkpt lat="42.9951114" lon="13.463718"><ele>634.0</ele><time>2026-04-12T10:40:39.049Z</time></trkpt><trkpt lat="42.9949964" lon="13.4637069"><ele>634.0</ele><time>2026-04-12T10:40:40.053Z</time></trkpt><trkpt lat="42.9948811" lon="13.4637272"><ele>634.0</ele><time>2026-04-12T10:40:41.055Z</time></trkpt><trkpt lat="42.9947502" lon="13.4637921"><ele>634.0</ele><time>2026-04-12T10:40:42.068Z</time></trkpt><trkpt lat="42.994622" lon="13.4638583"><ele>634.0</ele><time>2026-04-12T10:40:43.061Z</time></trkpt><trkpt lat="42.9945019" lon="13.4638997"><ele>634.0</ele><time>2026-04-12T10:40:44.044Z</time></trkpt><trkpt lat="42.9944018" lon="13.4639319"><ele>634.0</ele><time>2026-04-12T10:40:45.06Z</time></trkpt><trkpt lat="42.9943171" lon="13.4639446"><ele>634.0</ele><time>2026-04-12T10:40:46.053Z</time></trkpt><trkpt lat="42.9942505" lon="13.4639568"><ele>634.0</ele><time>2026-04-12T10:40:47.049Z</time></trkpt><trkpt lat="42.9941612" lon="13.4640948"><ele>635.0</ele><time>2026-04-12T10:40:49.014Z</time></trkpt><trkpt lat="42.9941148" lon="13.4641956"><ele>636.0</ele><time>2026-04-12T10:40:50.041Z</time></trkpt><trkpt lat="42.9940651" lon="13.4642996"><ele>637.0</ele><time>2026-04-12T10:40:51.046Z</time></trkpt><trkpt lat="42.9940097" lon="13.464407"><ele>638.0</ele><time>2026-04-12T10:40:52.044Z</time></trkpt><trkpt lat="42.993952" lon="13.4645157"><ele>639.0</ele><time>2026-04-12T10:40:53.043Z</time></trkpt><trkpt lat="42.9939001" lon="13.4646368"><ele>639.0</ele><time>2026-04-12T10:40:54.071Z</time></trkpt><trkpt lat="42.9938494" lon="13.4647726"><ele>639.0</ele><time>2026-04-12T10:40:55.008Z</time></trkpt><trkpt lat="42.9938083" lon="13.4648906"><ele>639.0</ele><time>2026-04-12T10:40:56.05Z</time></trkpt><trkpt lat="42.9937621" lon="13.464995"><ele>639.0</ele><time>2026-04-12T10:40:57.057Z</time></trkpt><trkpt lat="42.9937111" lon="13.4650849"><ele>639.0</ele><time>2026-04-12T10:40:58.049Z</time></trkpt><trkpt lat="42.9936586" lon="13.4651624"><ele>639.0</ele><time>2026-04-12T10:40:59.036Z</time></trkpt><trkpt lat="42.9936044" lon="13.4652362"><ele>639.0</ele><time>2026-04-12T10:41:00.049Z</time></trkpt><trkpt lat="42.9935375" lon="13.4652965"><ele>639.0</ele><time>2026-04-12T10:41:01.065Z</time></trkpt><trkpt lat="42.993465" lon="13.4653602"><ele>639.0</ele><time>2026-04-12T10:41:02.035Z</time></trkpt><trkpt lat="42.9933689" lon="13.4654157"><ele>639.0</ele><time>2026-04-12T10:41:03.042Z</time></trkpt><trkpt lat="42.9932513" lon="13.4654659"><ele>639.0</ele><time>2026-04-12T10:41:04.043Z</time></trkpt><trkpt lat="42.993141" lon="13.4654939"><ele>639.0</ele><time>2026-04-12T10:41:05.044Z</time></trkpt><trkpt lat="42.9930215" lon="13.4655303"><ele>639.0</ele><time>2026-04-12T10:41:06.031Z</time></trkpt><trkpt lat="42.9929055" lon="13.4655552"><ele>639.0</ele><time>2026-04-12T10:41:07.032Z</time></trkpt><trkpt lat="42.9927893" lon="13.465579"><ele>639.0</ele><time>2026-04-12T10:41:08.044Z</time></trkpt><trkpt lat="42.992695" lon="13.4655873"><ele>639.0</ele><time>2026-04-12T10:41:09.019Z</time></trkpt><trkpt lat="42.9926053" lon="13.4655642"><ele>639.0</ele><time>2026-04-12T10:41:10.025Z</time></trkpt><trkpt lat="42.9925274" lon="13.4655868"><ele>639.0</ele><time>2026-04-12T10:41:11.049Z</time></trkpt><trkpt lat="42.9924357" lon="13.4656517"><ele>639.0</ele><time>2026-04-12T10:41:12.028Z</time></trkpt><trkpt lat="42.992343" lon="13.4657194"><ele>639.5</ele><time>2026-04-12T10:41:13.043Z</time></trkpt><trkpt lat="42.9922407" lon="13.4658042"><ele>640.0</ele><time>2026-04-12T10:41:14.045Z</time></trkpt><trkpt lat="42.992122" lon="13.4658846"><ele>640.5</ele><time>2026-04-12T10:41:15.024Z</time></trkpt><trkpt lat="42.9920019" lon="13.465981"><ele>641.0</ele><time>2026-04-12T10:41:16.046Z</time></trkpt><trkpt lat="42.9918898" lon="13.4660765"><ele>641.0</ele><time>2026-04-12T10:41:17.041Z</time></trkpt><trkpt lat="42.9917736" lon="13.4661672"><ele>641.0</ele><time>2026-04-12T10:41:18.059Z</time></trkpt><trkpt lat="42.9916499" lon="13.4662582"><ele>641.0</ele><time>2026-04-12T10:41:19.07Z</time></trkpt><trkpt lat="42.9915353" lon="13.4663583"><ele>641.0</ele><time>2026-04-12T10:41:20.061Z</time></trkpt><trkpt lat="42.9914277" lon="13.4664479"><ele>642.0</ele><time>2026-04-12T10:41:21.044Z</time></trkpt><trkpt lat="42.9913303" lon="13.4665383"><ele>643.0</ele><time>2026-04-12T10:41:22.024Z</time></trkpt><trkpt lat="42.9912482" lon="13.4666411"><ele>644.0</ele><time>2026-04-12T10:41:23.055Z</time></trkpt><trkpt lat="42.9911693" lon="13.4667528"><ele>645.0</ele><time>2026-04-12T10:41:24.006Z</time></trkpt><trkpt lat="42.9910975" lon="13.4668495"><ele>646.0</ele><time>2026-04-12T10:41:25.043Z</time></trkpt><trkpt lat="42.9910319" lon="13.4669187"><ele>646.0</ele><time>2026-04-12T10:41:26.043Z</time></trkpt><trkpt lat="42.990946" lon="13.4669664"><ele>646.0</ele><time>2026-04-12T10:41:27.06Z</time></trkpt><trkpt lat="42.9908444" lon="13.4670081"><ele>646.0</ele><time>2026-04-12T10:41:28.059Z</time></trkpt><trkpt lat="42.9907425" lon="13.467053"><ele>646.0</ele><time>2026-04-12T10:41:29.044Z</time></trkpt><trkpt lat="42.9906522" lon="13.4670999"><ele>646.0</ele><time>2026-04-12T10:41:30.04Z</time></trkpt><trkpt lat="42.9905772" lon="13.4671567"><ele>645.8</ele><time>2026-04-12T10:41:31.049Z</time></trkpt><trkpt lat="42.990494" lon="13.4672192"><ele>645.5999999999999</ele><time>2026-04-12T10:41:32.049Z</time></trkpt><trkpt lat="42.9904068" lon="13.467299"><ele>645.4</ele><time>2026-04-12T10:41:32.999Z</time></trkpt><trkpt lat="42.9903228" lon="13.4673806"><ele>645.2</ele><time>2026-04-12T10:41:34.065Z</time></trkpt><trkpt lat="42.9902489" lon="13.4674767"><ele>645.0</ele><time>2026-04-12T10:41:35.057Z</time></trkpt><trkpt lat="42.9901864" lon="13.4675802"><ele>645.0</ele><time>2026-04-12T10:41:36.053Z</time></trkpt><trkpt lat="42.9901354" lon="13.4676622"><ele>645.0</ele><time>2026-04-12T10:41:37.021Z</time></trkpt><trkpt lat="42.9900224" lon="13.4677333"><ele>645.0</ele><time>2026-04-12T10:41:39.037Z</time></trkpt><trkpt lat="42.989951" lon="13.4677608"><ele>645.0</ele><time>2026-04-12T10:41:40.008Z</time></trkpt><trkpt lat="42.9898862" lon="13.4677863"><ele>645.0</ele><time>2026-04-12T10:41:41.037Z</time></trkpt><trkpt lat="42.989811" lon="13.4677991"><ele>645.0</ele><time>2026-04-12T10:41:42.054Z</time></trkpt><trkpt lat="42.9897483" lon="13.4678135"><ele>644.8571428571429</ele><time>2026-04-12T10:41:43.035Z</time></trkpt><trkpt lat="42.989683" lon="13.4678421"><ele>644.7142857142857</ele><time>2026-04-12T10:41:44.039Z</time></trkpt><trkpt lat="42.989619" lon="13.4678541"><ele>644.5714285714286</ele><time>2026-04-12T10:41:45.027Z</time></trkpt><trkpt lat="42.9895512" lon="13.4678741"><ele>644.4285714285714</ele><time>2026-04-12T10:41:46.031Z</time></trkpt><trkpt lat="42.9894757" lon="13.4678866"><ele>644.2857142857142</ele><time>2026-04-12T10:41:47.042Z</time></trkpt><trkpt lat="42.9894099" lon="13.4678893"><ele>644.1428571428571</ele><time>2026-04-12T10:41:48.041Z</time></trkpt><trkpt lat="42.9893439" lon="13.4678956"><ele>644.0</ele><time>2026-04-12T10:41:49.058Z</time></trkpt><trkpt lat="42.9892747" lon="13.4679018"><ele>644.0</ele><time>2026-04-12T10:41:50.061Z</time></trkpt><trkpt lat="42.9891832" lon="13.4679399"><ele>644.0</ele><time>2026-04-12T10:41:52.073Z</time></trkpt><trkpt lat="42.989163" lon="13.4680637"><ele>644.0</ele><time>2026-04-12T10:41:54.007Z</time></trkpt><trkpt lat="42.9891748" lon="13.4681727"><ele>644.0</ele><time>2026-04-12T10:41:55.015Z</time></trkpt><trkpt lat="42.989192" lon="13.468272"><ele>644.0</ele><time>2026-04-12T10:41:56.004Z</time></trkpt><trkpt lat="42.9892232" lon="13.4683586"><ele>644.0</ele><time>2026-04-12T10:41:56.995Z</time></trkpt><trkpt lat="42.9892579" lon="13.4684449"><ele>643.8333333333333</ele><time>2026-04-12T10:41:58.033Z</time></trkpt><trkpt lat="42.9892807" lon="13.4685316"><ele>643.6666666666666</ele><time>2026-04-12T10:41:59.032Z</time></trkpt><trkpt lat="42.9892972" lon="13.4686159"><ele>643.5</ele><time>2026-04-12T10:42:00.044Z</time></trkpt><trkpt lat="42.9893495" lon="13.4688209"><ele>643.3333333333334</ele><time>2026-04-12T10:42:02.034Z</time></trkpt><trkpt lat="42.9893625" lon="13.4689263"><ele>643.1666666666667</ele><time>2026-04-12T10:42:03.016Z</time></trkpt><trkpt lat="42.9893643" lon="13.4690268"><ele>643.0</ele><time>2026-04-12T10:42:04.007Z</time></trkpt><trkpt lat="42.9893628" lon="13.4691222"><ele>643.0</ele><time>2026-04-12T10:42:05.029Z</time></trkpt><trkpt lat="42.9893512" lon="13.4692416"><ele>643.0</ele><time>2026-04-12T10:42:06.04Z</time></trkpt><trkpt lat="42.989329" lon="13.46935"><ele>643.0</ele><time>2026-04-12T10:42:07.033Z</time></trkpt><trkpt lat="42.9892704" lon="13.4694903"><ele>643.0</ele><time>2026-04-12T10:42:09.032Z</time></trkpt><trkpt lat="42.9891932" lon="13.4696181"><ele>643.0</ele><time>2026-04-12T10:42:11.033Z</time></trkpt><trkpt lat="42.9891636" lon="13.4697062"><ele>636.6</ele><time>2026-04-12T10:42:12.047Z</time></trkpt><trkpt lat="42.9891441" lon="13.4698001"><ele>630.1999999999999</ele><time>2026-04-12T10:42:13.036Z</time></trkpt><trkpt lat="42.9891211" lon="13.4698998"><ele>623.8</ele><time>2026-04-12T10:42:14.028Z</time></trkpt><trkpt lat="42.9891047" lon="13.4700061"><ele>617.4</ele><time>2026-04-12T10:42:15.027Z</time></trkpt><trkpt lat="42.9890752" lon="13.4701904"><ele>611.0</ele><time>2026-04-12T10:42:17.029Z</time></trkpt><trkpt lat="42.9890764" lon="13.4703148"><ele>611.0</ele><time>2026-04-12T10:42:18.019Z</time></trkpt><trkpt lat="42.9890815" lon="13.4704284"><ele>611.0</ele><time>2026-04-12T10:42:19.032Z</time></trkpt><trkpt lat="42.9890706" lon="13.4705327"><ele>611.0</ele><time>2026-04-12T10:42:20.063Z</time></trkpt><trkpt lat="42.9890491" lon="13.4706314"><ele>611.0</ele><time>2026-04-12T10:42:21.041Z</time></trkpt><trkpt lat="42.9890133" lon="13.4707425"><ele>611.0</ele><time>2026-04-12T10:42:22.045Z</time></trkpt><trkpt lat="42.9889853" lon="13.4708448"><ele>611.0</ele><time>2026-04-12T10:42:23.048Z</time></trkpt><trkpt lat="42.9889505" lon="13.4709354"><ele>610.5</ele><time>2026-04-12T10:42:24.031Z</time></trkpt><trkpt lat="42.9889153" lon="13.4710254"><ele>610.0</ele><time>2026-04-12T10:42:25.037Z</time></trkpt><trkpt lat="42.9888675" lon="13.4711088"><ele>609.5</ele><time>2026-04-12T10:42:26.041Z</time></trkpt><trkpt lat="42.9887953" lon="13.4712125"><ele>609.0</ele><time>2026-04-12T10:42:27.026Z</time></trkpt><trkpt lat="42.9887375" lon="13.4712536"><ele>608.5</ele><time>2026-04-12T10:42:28.052Z</time></trkpt><trkpt lat="42.9886804" lon="13.4712991"><ele>608.0</ele><time>2026-04-12T10:42:29.062Z</time></trkpt><trkpt lat="42.9886056" lon="13.4713719"><ele>608.0</ele><time>2026-04-12T10:42:30.037Z</time></trkpt><trkpt lat="42.9885222" lon="13.4714445"><ele>608.0</ele><time>2026-04-12T10:42:31.061Z</time></trkpt><trkpt lat="42.9884555" lon="13.4714954"><ele>608.0</ele><time>2026-04-12T10:42:32.044Z</time></trkpt><trkpt lat="42.9883896" lon="13.4715643"><ele>608.0</ele><time>2026-04-12T10:42:34.042Z</time></trkpt><trkpt lat="42.9883591" lon="13.4716676"><ele>608.0</ele><time>2026-04-12T10:42:36.039Z</time></trkpt><trkpt lat="42.9883909" lon="13.4717693"><ele>608.0</ele><time>2026-04-12T10:42:38.041Z</time></trkpt><trkpt lat="42.9884759" lon="13.4718713"><ele>608.0</ele><time>2026-04-12T10:42:40.051Z</time></trkpt><trkpt lat="42.9885458" lon="13.4719047"><ele>608.0</ele><time>2026-04-12T10:42:41.032Z</time></trkpt><trkpt lat="42.9886208" lon="13.4719427"><ele>608.0</ele><time>2026-04-12T10:42:42.042Z</time></trkpt><trkpt lat="42.9887097" lon="13.471976"><ele>608.0</ele><time>2026-04-12T10:42:43.056Z</time></trkpt><trkpt lat="42.9888014" lon="13.472003"><ele>608.0</ele><time>2026-04-12T10:42:44.046Z</time></trkpt><trkpt lat="42.9888897" lon="13.4720067"><ele>608.0</ele><time>2026-04-12T10:42:45.043Z</time></trkpt><trkpt lat="42.9889774" lon="13.4719865"><ele>608.0</ele><time>2026-04-12T10:42:46.053Z</time></trkpt><trkpt lat="42.9890474" lon="13.4719657"><ele>608.0</ele><time>2026-04-12T10:42:46.977Z</time></trkpt><trkpt lat="42.9891105" lon="13.4719465"><ele>608.0</ele><time>2026-04-12T10:42:47.977Z</time></trkpt><trkpt lat="42.9892292" lon="13.4719402"><ele>608.0</ele><time>2026-04-12T10:42:49.982Z</time></trkpt><trkpt lat="42.989343" lon="13.4719368"><ele>608.0</ele><time>2026-04-12T10:42:52.026Z</time></trkpt><trkpt lat="42.9894122" lon="13.4719178"><ele>608.0</ele><time>2026-04-12T10:42:53.051Z</time></trkpt><trkpt lat="42.9894913" lon="13.4718966"><ele>605.0</ele><time>2026-04-12T10:42:54.022Z</time></trkpt><trkpt lat="42.9895707" lon="13.4718497"><ele>602.0</ele><time>2026-04-12T10:42:55.038Z</time></trkpt><trkpt lat="42.9896594" lon="13.4718018"><ele>599.0</ele><time>2026-04-12T10:42:56.048Z</time></trkpt><trkpt lat="42.9897403" lon="13.4717577"><ele>596.0</ele><time>2026-04-12T10:42:57.034Z</time></trkpt><trkpt lat="42.9898086" lon="13.4717332"><ele>593.0</ele><time>2026-04-12T10:42:58.037Z</time></trkpt><trkpt lat="42.9898703" lon="13.4717075"><ele>590.0</ele><time>2026-04-12T10:42:59.041Z</time></trkpt><trkpt lat="42.9899841" lon="13.4716577"><ele>587.0</ele><time>2026-04-12T10:43:01.04Z</time></trkpt><trkpt lat="42.9900768" lon="13.4716248"><ele>584.0</ele><time>2026-04-12T10:43:03.042Z</time></trkpt><trkpt lat="42.9901733" lon="13.4716089"><ele>581.0</ele><time>2026-04-12T10:43:06.019Z</time></trkpt><trkpt lat="42.9902416" lon="13.4716198"><ele>578.0</ele><time>2026-04-12T10:43:10.036Z</time></trkpt><trkpt lat="42.9901778" lon="13.4716962"><ele>575.0</ele><time>2026-04-12T10:43:13.034Z</time></trkpt><trkpt lat="42.9900741" lon="13.471748"><ele>573.6666666666666</ele><time>2026-04-12T10:43:15.024Z</time></trkpt><trkpt lat="42.9899816" lon="13.4718067"><ele>572.3333333333333</ele><time>2026-04-12T10:43:16.052Z</time></trkpt><trkpt lat="42.9898952" lon="13.4718639"><ele>571.0</ele><time>2026-04-12T10:43:17.036Z</time></trkpt><trkpt lat="42.9898279" lon="13.4719111"><ele>569.6666666666666</ele><time>2026-04-12T10:43:18.031Z</time></trkpt><trkpt lat="42.9897711" lon="13.4719704"><ele>568.3333333333334</ele><time>2026-04-12T10:43:19.027Z</time></trkpt><trkpt lat="42.9897197" lon="13.4720596"><ele>567.0</ele><time>2026-04-12T10:43:20.048Z</time></trkpt><trkpt lat="42.9896599" lon="13.4722263"><ele>567.0</ele><time>2026-04-12T10:43:22.039Z</time></trkpt><trkpt lat="42.9896337" lon="13.4723317"><ele>567.0</ele><time>2026-04-12T10:43:23.05Z</time></trkpt><trkpt lat="42.9896128" lon="13.4724306"><ele>567.0</ele><time>2026-04-12T10:43:24.033Z</time></trkpt><trkpt lat="42.9895747" lon="13.4724994"><ele>567.0</ele><time>2026-04-12T10:43:25.029Z</time></trkpt><trkpt lat="42.9895315" lon="13.4725658"><ele>567.0</ele><time>2026-04-12T10:43:26.051Z</time></trkpt><trkpt lat="42.9894912" lon="13.472646"><ele>567.0</ele><time>2026-04-12T10:43:27.018Z</time></trkpt><trkpt lat="42.9894529" lon="13.4727169"><ele>567.0</ele><time>2026-04-12T10:43:28.052Z</time></trkpt><trkpt lat="42.9893621" lon="13.4728588"><ele>567.0</ele><time>2026-04-12T10:43:30.046Z</time></trkpt><trkpt lat="42.9893175" lon="13.4729473"><ele>567.0</ele><time>2026-04-12T10:43:31.028Z</time></trkpt><trkpt lat="42.9892666" lon="13.4730318"><ele>567.0</ele><time>2026-04-12T10:43:32.03Z</time></trkpt><trkpt lat="42.9892062" lon="13.4731188"><ele>567.0</ele><time>2026-04-12T10:43:33.049Z</time></trkpt><trkpt lat="42.9891591" lon="13.4731987"><ele>567.0</ele><time>2026-04-12T10:43:34.048Z</time></trkpt><trkpt lat="42.9891103" lon="13.4732837"><ele>567.0</ele><time>2026-04-12T10:43:35.038Z</time></trkpt><trkpt lat="42.9890558" lon="13.4733707"><ele>567.0</ele><time>2026-04-12T10:43:36.043Z</time></trkpt><trkpt lat="42.9890006" lon="13.4734443"><ele>567.0</ele><time>2026-04-12T10:43:36.996Z</time></trkpt><trkpt lat="42.988952" lon="13.4735017"><ele>567.0</ele><time>2026-04-12T10:43:38.041Z</time></trkpt><trkpt lat="42.9888869" lon="13.4735987"><ele>567.0</ele><time>2026-04-12T10:43:39.047Z</time></trkpt><trkpt lat="42.9888296" lon="13.4736379"><ele>567.0</ele><time>2026-04-12T10:43:40.045Z</time></trkpt><trkpt lat="42.9887444" lon="13.4736671"><ele>567.0</ele><time>2026-04-12T10:43:41.051Z</time></trkpt><trkpt lat="42.9886764" lon="13.4736788"><ele>567.0</ele><time>2026-04-12T10:43:42.045Z</time></trkpt><trkpt lat="42.9886093" lon="13.4736545"><ele>567.0</ele><time>2026-04-12T10:43:43.041Z</time></trkpt><trkpt lat="42.9885168" lon="13.4735693"><ele>567.0</ele><time>2026-04-12T10:43:45.052Z</time></trkpt><trkpt lat="42.9884579" lon="13.4735069"><ele>567.0</ele><time>2026-04-12T10:43:47.001Z</time></trkpt><trkpt lat="42.9884127" lon="13.4733706"><ele>567.0</ele><time>2026-04-12T10:43:49.054Z</time></trkpt><trkpt lat="42.9883982" lon="13.4732754"><ele>567.0</ele><time>2026-04-12T10:43:49.996Z</time></trkpt><trkpt lat="42.9883694" lon="13.4731945"><ele>567.5</ele><time>2026-04-12T10:43:51.029Z</time></trkpt><trkpt lat="42.9883306" lon="13.4731142"><ele>568.0</ele><time>2026-04-12T10:43:51.997Z</time></trkpt><trkpt lat="42.9882885" lon="13.4730333"><ele>568.5</ele><time>2026-04-12T10:43:53.046Z</time></trkpt><trkpt lat="42.9882402" lon="13.4729384"><ele>569.0</ele><time>2026-04-12T10:43:54.049Z</time></trkpt><trkpt lat="42.9881913" lon="13.4728509"><ele>569.5</ele><time>2026-04-12T10:43:55.029Z</time></trkpt><trkpt lat="42.9881455" lon="13.4727744"><ele>570.0</ele><time>2026-04-12T10:43:56.044Z</time></trkpt><trkpt lat="42.9880803" lon="13.4727205"><ele>570.0</ele><time>2026-04-12T10:43:57.046Z</time></trkpt><trkpt lat="42.9879977" lon="13.4726957"><ele>570.0</ele><time>2026-04-12T10:43:58.028Z</time></trkpt><trkpt lat="42.9879139" lon="13.4726587"><ele>570.0</ele><time>2026-04-12T10:43:59.033Z</time></trkpt><trkpt lat="42.9878374" lon="13.4726133"><ele>570.0</ele><time>2026-04-12T10:44:00.043Z</time></trkpt><trkpt lat="42.9877643" lon="13.4725676"><ele>570.0</ele><time>2026-04-12T10:44:01.05Z</time></trkpt><trkpt lat="42.9876994" lon="13.4725286"><ele>570.0</ele><time>2026-04-12T10:44:02.039Z</time></trkpt><trkpt lat="42.9876338" lon="13.4724922"><ele>570.0</ele><time>2026-04-12T10:44:03.049Z</time></trkpt><trkpt lat="42.9875672" lon="13.4724542"><ele>570.0</ele><time>2026-04-12T10:44:04.032Z</time></trkpt><trkpt lat="42.9874726" lon="13.4724249"><ele>570.0</ele><time>2026-04-12T10:44:06.03Z</time></trkpt><trkpt lat="42.9874032" lon="13.4724229"><ele>570.0</ele><time>2026-04-12T10:44:08.03Z</time></trkpt><trkpt lat="42.9873678" lon="13.4725104"><ele>570.0</ele><time>2026-04-12T10:44:10.043Z</time></trkpt><trkpt lat="42.9873832" lon="13.4726464"><ele>570.0</ele><time>2026-04-12T10:44:12.041Z</time></trkpt><trkpt lat="42.9874157" lon="13.4727318"><ele>567.2</ele><time>2026-04-12T10:44:13.044Z</time></trkpt><trkpt lat="42.9874767" lon="13.4728919"><ele>564.4</ele><time>2026-04-12T10:44:14.999Z</time></trkpt><trkpt lat="42.9875006" lon="13.4729889"><ele>561.6</ele><time>2026-04-12T10:44:15.991Z</time></trkpt><trkpt lat="42.9875259" lon="13.4731009"><ele>558.8</ele><time>2026-04-12T10:44:17.033Z</time></trkpt><trkpt lat="42.9875587" lon="13.4732219"><ele>556.0</ele><time>2026-04-12T10:44:17.977Z</time></trkpt><trkpt lat="42.9875818" lon="13.4733614"><ele>556.0</ele><time>2026-04-12T10:44:19.017Z</time></trkpt><trkpt lat="42.9875972" lon="13.4734737"><ele>556.0</ele><time>2026-04-12T10:44:20.032Z</time></trkpt><trkpt lat="42.9875936" lon="13.4735802"><ele>556.0</ele><time>2026-04-12T10:44:21.028Z</time></trkpt><trkpt lat="42.9875739" lon="13.4736907"><ele>556.0</ele><time>2026-04-12T10:44:22.022Z</time></trkpt><trkpt lat="42.9875609" lon="13.4737967"><ele>556.0</ele><time>2026-04-12T10:44:23.041Z</time></trkpt><trkpt lat="42.9875486" lon="13.4738973"><ele>556.0</ele><time>2026-04-12T10:44:24.034Z</time></trkpt><trkpt lat="42.9875266" lon="13.4739999"><ele>544.6</ele><time>2026-04-12T10:44:25.038Z</time></trkpt><trkpt lat="42.9874817" lon="13.4741548"><ele>533.2</ele><time>2026-04-12T10:44:27.031Z</time></trkpt><trkpt lat="42.9874525" lon="13.4742311"><ele>521.8</ele><time>2026-04-12T10:44:28.04Z</time></trkpt><trkpt lat="42.9874066" lon="13.4744001"><ele>510.4</ele><time>2026-04-12T10:44:29.981Z</time></trkpt><trkpt lat="42.9873991" lon="13.4745162"><ele>499.0</ele><time>2026-04-12T10:44:31.036Z</time></trkpt><trkpt lat="42.9873923" lon="13.4746446"><ele>498.4</ele><time>2026-04-12T10:44:32.036Z</time></trkpt><trkpt lat="42.9873975" lon="13.4747738"><ele>497.79999999999995</ele><time>2026-04-12T10:44:33.047Z</time></trkpt><trkpt lat="42.9874031" lon="13.4749129"><ele>497.20000000000005</ele><time>2026-04-12T10:44:34.037Z</time></trkpt><trkpt lat="42.9874151" lon="13.4750641"><ele>496.6</ele><time>2026-04-12T10:44:35.041Z</time></trkpt><trkpt lat="42.987427" lon="13.4752004"><ele>496.0</ele><time>2026-04-12T10:44:36.031Z</time></trkpt><trkpt lat="42.9874424" lon="13.4753369"><ele>497.4</ele><time>2026-04-12T10:44:37.026Z</time></trkpt><trkpt lat="42.9874592" lon="13.4754687"><ele>498.8</ele><time>2026-04-12T10:44:38.025Z</time></trkpt><trkpt lat="42.987504" lon="13.4755929"><ele>500.19999999999993</ele><time>2026-04-12T10:44:39.041Z</time></trkpt><trkpt lat="42.987554" lon="13.4756974"><ele>501.59999999999997</ele><time>2026-04-12T10:44:40.049Z</time></trkpt><trkpt lat="42.9876341" lon="13.4757674"><ele>503.0</ele><time>2026-04-12T10:44:41.047Z</time></trkpt><trkpt lat="42.9877368" lon="13.4758289"><ele>503.0</ele><time>2026-04-12T10:44:42.067Z</time></trkpt><trkpt lat="42.9878408" lon="13.4758938"><ele>502.99999999999994</ele><time>2026-04-12T10:44:43.041Z</time></trkpt><trkpt lat="42.9879351" lon="13.4759587"><ele>502.99999999999994</ele><time>2026-04-12T10:44:44.054Z</time></trkpt><trkpt lat="42.9880279" lon="13.476015"><ele>503.0</ele><time>2026-04-12T10:44:45.022Z</time></trkpt><trkpt lat="42.9881102" lon="13.4760742"><ele>503.0</ele><time>2026-04-12T10:44:46.044Z</time></trkpt><trkpt lat="42.9881815" lon="13.4761238"><ele>503.0</ele><time>2026-04-12T10:44:47.06Z</time></trkpt><trkpt lat="42.9882554" lon="13.4761435"><ele>502.99999999999994</ele><time>2026-04-12T10:44:48.052Z</time></trkpt><trkpt lat="42.9883292" lon="13.4761376"><ele>502.99999999999994</ele><time>2026-04-12T10:44:49.057Z</time></trkpt><trkpt lat="42.9884257" lon="13.4760569"><ele>503.0</ele><time>2026-04-12T10:44:50Z</time></trkpt><trkpt lat="42.9885449" lon="13.4759437"><ele>503.0</ele><time>2026-04-12T10:44:51.034Z</time></trkpt><trkpt lat="42.9886785" lon="13.4758055"><ele>500.0</ele><time>2026-04-12T10:44:52.03Z</time></trkpt><trkpt lat="42.9887791" lon="13.4756588"><ele>497.0</ele><time>2026-04-12T10:44:53.043Z</time></trkpt><trkpt lat="42.9888793" lon="13.4755112"><ele>494.0</ele><time>2026-04-12T10:44:54.044Z</time></trkpt><trkpt lat="42.9889768" lon="13.475357"><ele>491.0</ele><time>2026-04-12T10:44:55.038Z</time></trkpt><trkpt lat="42.9890725" lon="13.4752217"><ele>497.0</ele><time>2026-04-12T10:44:56.029Z</time></trkpt><trkpt lat="42.9891654" lon="13.4751003"><ele>503.0</ele><time>2026-04-12T10:44:57.035Z</time></trkpt><trkpt lat="42.9892632" lon="13.4749823"><ele>509.0</ele><time>2026-04-12T10:44:58.031Z</time></trkpt><trkpt lat="42.9893571" lon="13.4748483"><ele>515.0</ele><time>2026-04-12T10:44:59.032Z</time></trkpt><trkpt lat="42.9894181" lon="13.4747922"><ele>515.0</ele><time>2026-04-12T10:45:00.034Z</time></trkpt><trkpt lat="42.9894736" lon="13.4746884"><ele>515.0</ele><time>2026-04-12T10:45:02.033Z</time></trkpt><trkpt lat="42.9895343" lon="13.4745698"><ele>515.0</ele><time>2026-04-12T10:45:03.035Z</time></trkpt><trkpt lat="42.9895924" lon="13.4744965"><ele>515.0</ele><time>2026-04-12T10:45:04.047Z</time></trkpt><trkpt lat="42.9896431" lon="13.4744207"><ele>515.0</ele><time>2026-04-12T10:45:05.033Z</time></trkpt><trkpt lat="42.989739" lon="13.4744072"><ele>515.0</ele><time>2026-04-12T10:45:07.04Z</time></trkpt><trkpt lat="42.9898125" lon="13.4744797"><ele>515.0</ele><time>2026-04-12T10:45:07.99Z</time></trkpt><trkpt lat="42.9898773" lon="13.4746002"><ele>515.0</ele><time>2026-04-12T10:45:09.043Z</time></trkpt><trkpt lat="42.9899248" lon="13.4747578"><ele>515.0</ele><time>2026-04-12T10:45:10.036Z</time></trkpt><trkpt lat="42.989985" lon="13.4749468"><ele>513.0</ele><time>2026-04-12T10:45:11.049Z</time></trkpt><trkpt lat="42.9900419" lon="13.4751241"><ele>511.0</ele><time>2026-04-12T10:45:12.043Z</time></trkpt><trkpt lat="42.9901006" lon="13.4752822"><ele>509.0</ele><time>2026-04-12T10:45:13.051Z</time></trkpt><trkpt lat="42.9901467" lon="13.4754348"><ele>507.0</ele><time>2026-04-12T10:45:14.018Z</time></trkpt><trkpt lat="42.9902001" lon="13.4755654"><ele>507.0</ele><time>2026-04-12T10:45:15.037Z</time></trkpt><trkpt lat="42.990249" lon="13.4756664"><ele>507.0</ele><time>2026-04-12T10:45:16.037Z</time></trkpt><trkpt lat="42.9902961" lon="13.4757435"><ele>507.0</ele><time>2026-04-12T10:45:17.043Z</time></trkpt><trkpt lat="42.9903575" lon="13.4757866"><ele>507.0</ele><time>2026-04-12T10:45:18.039Z</time></trkpt><trkpt lat="42.9904474" lon="13.4757781"><ele>507.0</ele><time>2026-04-12T10:45:19.04Z</time></trkpt><trkpt lat="42.9905569" lon="13.4757208"><ele>507.0</ele><time>2026-04-12T10:45:20.035Z</time></trkpt><trkpt lat="42.9906605" lon="13.4756726"><ele>507.0</ele><time>2026-04-12T10:45:21.019Z</time></trkpt><trkpt lat="42.9907462" lon="13.4756386"><ele>507.0</ele><time>2026-04-12T10:45:22.037Z</time></trkpt><trkpt lat="42.9908171" lon="13.4756165"><ele>507.0</ele><time>2026-04-12T10:45:23.041Z</time></trkpt><trkpt lat="42.9908792" lon="13.4755758"><ele>507.0</ele><time>2026-04-12T10:45:23.98Z</time></trkpt><trkpt lat="42.9909457" lon="13.475517"><ele>507.0</ele><time>2026-04-12T10:45:26Z</time></trkpt><trkpt lat="42.9908683" lon="13.4754692"><ele>507.0</ele><time>2026-04-12T10:45:29.99Z</time></trkpt><trkpt lat="42.9908091" lon="13.4754199"><ele>511.1666666666667</ele><time>2026-04-12T10:45:31.025Z</time></trkpt><trkpt lat="42.9907517" lon="13.47538"><ele>515.3333333333334</ele><time>2026-04-12T10:45:32.033Z</time></trkpt><trkpt lat="42.9906855" lon="13.4753447"><ele>519.5</ele><time>2026-04-12T10:45:33.015Z</time></trkpt><trkpt lat="42.9906134" lon="13.475306"><ele>523.6666666666667</ele><time>2026-04-12T10:45:34.006Z</time></trkpt><trkpt lat="42.9905526" lon="13.4752705"><ele>527.8333333333334</ele><time>2026-04-12T10:45:35.022Z</time></trkpt><trkpt lat="42.9904425" lon="13.4751779"><ele>532.0</ele><time>2026-04-12T10:45:37.044Z</time></trkpt><trkpt lat="42.9904035" lon="13.4750979"><ele>532.0</ele><time>2026-04-12T10:45:38.012Z</time></trkpt><trkpt lat="42.9903725" lon="13.4750096"><ele>532.0</ele><time>2026-04-12T10:45:39.041Z</time></trkpt><trkpt lat="42.9903654" lon="13.4749095"><ele>532.0</ele><time>2026-04-12T10:45:40.037Z</time></trkpt><trkpt lat="42.9903764" lon="13.4748164"><ele>532.0</ele><time>2026-04-12T10:45:41.029Z</time></trkpt><trkpt lat="42.9903984" lon="13.4747286"><ele>532.0</ele><time>2026-04-12T10:45:42.041Z</time></trkpt><trkpt lat="42.9903946" lon="13.4746111"><ele>532.0</ele><time>2026-04-12T10:45:43.012Z</time></trkpt><trkpt lat="42.9903682" lon="13.4744968"><ele>534.6666666666667</ele><time>2026-04-12T10:45:44.041Z</time></trkpt><trkpt lat="42.9903391" lon="13.4743772"><ele>537.3333333333334</ele><time>2026-04-12T10:45:45.038Z</time></trkpt><trkpt lat="42.9903131" lon="13.4742726"><ele>540.0</ele><time>2026-04-12T10:45:46.004Z</time></trkpt><trkpt lat="42.9902983" lon="13.474188"><ele>542.6666666666666</ele><time>2026-04-12T10:45:47.036Z</time></trkpt><trkpt lat="42.9903002" lon="13.4740589"><ele>545.3333333333333</ele><time>2026-04-12T10:45:49.051Z</time></trkpt><trkpt lat="42.9903082" lon="13.4739594"><ele>548.0</ele><time>2026-04-12T10:45:50.041Z</time></trkpt><trkpt lat="42.9903262" lon="13.4738601"><ele>550.5</ele><time>2026-04-12T10:45:51.038Z</time></trkpt><trkpt lat="42.9903474" lon="13.4737634"><ele>553.0</ele><time>2026-04-12T10:45:52.049Z</time></trkpt><trkpt lat="42.9903804" lon="13.4736737"><ele>555.5</ele><time>2026-04-12T10:45:53.056Z</time></trkpt><trkpt lat="42.9904099" lon="13.4735628"><ele>558.0</ele><time>2026-04-12T10:45:54.047Z</time></trkpt><trkpt lat="42.9904387" lon="13.4734533"><ele>560.5</ele><time>2026-04-12T10:45:55.033Z</time></trkpt><trkpt lat="42.9904657" lon="13.4733372"><ele>563.0</ele><time>2026-04-12T10:45:56.029Z</time></trkpt><trkpt lat="42.9905087" lon="13.4732293"><ele>563.0</ele><time>2026-04-12T10:45:57.036Z</time></trkpt><trkpt lat="42.9905515" lon="13.4731209"><ele>563.0</ele><time>2026-04-12T10:45:58.037Z</time></trkpt><trkpt lat="42.9906055" lon="13.4730276"><ele>563.0</ele><time>2026-04-12T10:45:59.03Z</time></trkpt><trkpt lat="42.9906735" lon="13.4729363"><ele>563.0</ele><time>2026-04-12T10:46:00.031Z</time></trkpt><trkpt lat="42.9907442" lon="13.4728416"><ele>563.0</ele><time>2026-04-12T10:46:01.023Z</time></trkpt><trkpt lat="42.9908162" lon="13.4727376"><ele>566.75</ele><time>2026-04-12T10:46:02.03Z</time></trkpt><trkpt lat="42.9908879" lon="13.472614"><ele>570.5</ele><time>2026-04-12T10:46:03.049Z</time></trkpt><trkpt lat="42.9909669" lon="13.4724911"><ele>574.25</ele><time>2026-04-12T10:46:04.03Z</time></trkpt><trkpt lat="42.9910391" lon="13.4723788"><ele>578.0</ele><time>2026-04-12T10:46:05.047Z</time></trkpt><trkpt lat="42.9911006" lon="13.4722609"><ele>578.0</ele><time>2026-04-12T10:46:06.035Z</time></trkpt><trkpt lat="42.9911691" lon="13.4721714"><ele>578.0</ele><time>2026-04-12T10:46:07.025Z</time></trkpt><trkpt lat="42.9912404" lon="13.472102"><ele>578.0</ele><time>2026-04-12T10:46:08.007Z</time></trkpt><trkpt lat="42.9913065" lon="13.4720165"><ele>578.0</ele><time>2026-04-12T10:46:09.002Z</time></trkpt><trkpt lat="42.9913858" lon="13.471934"><ele>578.0</ele><time>2026-04-12T10:46:10.047Z</time></trkpt><trkpt lat="42.9914633" lon="13.4718525"><ele>578.0</ele><time>2026-04-12T10:46:11.047Z</time></trkpt><trkpt lat="42.9915386" lon="13.4717438"><ele>578.0</ele><time>2026-04-12T10:46:12.041Z</time></trkpt><trkpt lat="42.9916173" lon="13.4716502"><ele>578.0</ele><time>2026-04-12T10:46:13.052Z</time></trkpt><trkpt lat="42.9917135" lon="13.4715505"><ele>578.0</ele><time>2026-04-12T10:46:14.043Z</time></trkpt><trkpt lat="42.9918017" lon="13.471469"><ele>578.0</ele><time>2026-04-12T10:46:15.036Z</time></trkpt><trkpt lat="42.9918831" lon="13.4713742"><ele>578.0</ele><time>2026-04-12T10:46:16.034Z</time></trkpt><trkpt lat="42.9919716" lon="13.4712911"><ele>578.0</ele><time>2026-04-12T10:46:17.025Z</time></trkpt><trkpt lat="42.9920693" lon="13.4712149"><ele>578.0</ele><time>2026-04-12T10:46:18.04Z</time></trkpt><trkpt lat="42.9921631" lon="13.471141"><ele>578.0</ele><time>2026-04-12T10:46:19.05Z</time></trkpt><trkpt lat="42.9922785" lon="13.4710824"><ele>578.1999999999999</ele><time>2026-04-12T10:46:20.051Z</time></trkpt><trkpt lat="42.9923829" lon="13.4710028"><ele>578.4</ele><time>2026-04-12T10:46:21.062Z</time></trkpt><trkpt lat="42.9924726" lon="13.4709232"><ele>578.5999999999999</ele><time>2026-04-12T10:46:22.05Z</time></trkpt><trkpt lat="42.9925522" lon="13.4708626"><ele>578.8</ele><time>2026-04-12T10:46:23.048Z</time></trkpt><trkpt lat="42.9926335" lon="13.4708211"><ele>579.0</ele><time>2026-04-12T10:46:24.032Z</time></trkpt><trkpt lat="42.9927056" lon="13.4707887"><ele>579.1666666666666</ele><time>2026-04-12T10:46:25.05Z</time></trkpt><trkpt lat="42.9927893" lon="13.4707807"><ele>579.3333333333334</ele><time>2026-04-12T10:46:26.052Z</time></trkpt><trkpt lat="42.9928723" lon="13.4707707"><ele>579.5</ele><time>2026-04-12T10:46:27.035Z</time></trkpt><trkpt lat="42.9929547" lon="13.4707574"><ele>579.6666666666667</ele><time>2026-04-12T10:46:28.045Z</time></trkpt><trkpt lat="42.9930408" lon="13.4707496"><ele>579.8333333333334</ele><time>2026-04-12T10:46:29.037Z</time></trkpt><trkpt lat="42.99312" lon="13.4707393"><ele>580.0</ele><time>2026-04-12T10:46:29.986Z</time></trkpt><trkpt lat="42.9932104" lon="13.4706852"><ele>580.0</ele><time>2026-04-12T10:46:31.06Z</time></trkpt><trkpt lat="42.9933038" lon="13.4706086"><ele>580.0</ele><time>2026-04-12T10:46:32.017Z</time></trkpt><trkpt lat="42.9933983" lon="13.4705043"><ele>580.0</ele><time>2026-04-12T10:46:33.05Z</time></trkpt><trkpt lat="42.9934867" lon="13.47039"><ele>580.0</ele><time>2026-04-12T10:46:34.048Z</time></trkpt><trkpt lat="42.9935726" lon="13.4703059"><ele>580.8</ele><time>2026-04-12T10:46:35.037Z</time></trkpt><trkpt lat="42.9936588" lon="13.4702344"><ele>581.6</ele><time>2026-04-12T10:46:36.044Z</time></trkpt><trkpt lat="42.9937544" lon="13.4701515"><ele>582.4</ele><time>2026-04-12T10:46:37.054Z</time></trkpt><trkpt lat="42.9938374" lon="13.4700799"><ele>583.2</ele><time>2026-04-12T10:46:38.035Z</time></trkpt><trkpt lat="42.9939101" lon="13.4699988"><ele>584.0</ele><time>2026-04-12T10:46:39.04Z</time></trkpt><trkpt lat="42.9939685" lon="13.4698886"><ele>584.0</ele><time>2026-04-12T10:46:40.049Z</time></trkpt><trkpt lat="42.9940154" lon="13.4697694"><ele>584.0</ele><time>2026-04-12T10:46:41.041Z</time></trkpt><trkpt lat="42.9940309" lon="13.4696674"><ele>584.0</ele><time>2026-04-12T10:46:42.011Z</time></trkpt><trkpt lat="42.9940319" lon="13.4695667"><ele>584.0</ele><time>2026-04-12T10:46:43.039Z</time></trkpt><trkpt lat="42.9940569" lon="13.4694683"><ele>584.0</ele><time>2026-04-12T10:46:44.033Z</time></trkpt><trkpt lat="42.9941175" lon="13.4694115"><ele>584.0</ele><time>2026-04-12T10:46:45.03Z</time></trkpt><trkpt lat="42.9941863" lon="13.4694082"><ele>588.5</ele><time>2026-04-12T10:46:46.04Z</time></trkpt><trkpt lat="42.994298" lon="13.4694355"><ele>593.0</ele><time>2026-04-12T10:46:47.05Z</time></trkpt><trkpt lat="42.9944112" lon="13.4694772"><ele>597.5</ele><time>2026-04-12T10:46:48.051Z</time></trkpt><trkpt lat="42.9945227" lon="13.4695265"><ele>602.0</ele><time>2026-04-12T10:46:49.048Z</time></trkpt><trkpt lat="42.994638" lon="13.4695775"><ele>597.75</ele><time>2026-04-12T10:46:50.036Z</time></trkpt><trkpt lat="42.9947541" lon="13.4696256"><ele>593.5</ele><time>2026-04-12T10:46:51.023Z</time></trkpt><trkpt lat="42.9948722" lon="13.4696801"><ele>589.25</ele><time>2026-04-12T10:46:52.041Z</time></trkpt><trkpt lat="42.9950016" lon="13.4697093"><ele>585.0</ele><time>2026-04-12T10:46:53.04Z</time></trkpt><trkpt lat="42.9951519" lon="13.4697212"><ele>583.6666666666666</ele><time>2026-04-12T10:46:54.06Z</time></trkpt><trkpt lat="42.9953116" lon="13.4697347"><ele>582.3333333333333</ele><time>2026-04-12T10:46:55.059Z</time></trkpt><trkpt lat="42.9954628" lon="13.4697482"><ele>581.0</ele><time>2026-04-12T10:46:56.035Z</time></trkpt><trkpt lat="42.9956111" lon="13.469778"><ele>581.0</ele><time>2026-04-12T10:46:57.022Z</time></trkpt><trkpt lat="42.9957607" lon="13.4698108"><ele>581.0</ele><time>2026-04-12T10:46:58.031Z</time></trkpt><trkpt lat="42.9959075" lon="13.4698314"><ele>581.0</ele><time>2026-04-12T10:46:59.037Z</time></trkpt><trkpt lat="42.9960599" lon="13.4698225"><ele>580.6666666666666</ele><time>2026-04-12T10:47:00.059Z</time></trkpt><trkpt lat="42.9962215" lon="13.4698147"><ele>580.3333333333334</ele><time>2026-04-12T10:47:01.042Z</time></trkpt><trkpt lat="42.9963906" lon="13.4698275"><ele>580.0</ele><time>2026-04-12T10:47:02.056Z</time></trkpt><trkpt lat="42.9965223" lon="13.4698909"><ele>580.0</ele><time>2026-04-12T10:47:03.052Z</time></trkpt><trkpt lat="42.996648" lon="13.4699885"><ele>580.0</ele><time>2026-04-12T10:47:04.044Z</time></trkpt><trkpt lat="42.9967757" lon="13.4700974"><ele>580.0</ele><time>2026-04-12T10:47:04.981Z</time></trkpt><trkpt lat="42.9968849" lon="13.470194"><ele>580.0</ele><time>2026-04-12T10:47:06.002Z</time></trkpt><trkpt lat="42.9969947" lon="13.4702905"><ele>580.5</ele><time>2026-04-12T10:47:07.027Z</time></trkpt><trkpt lat="42.9971084" lon="13.4703694"><ele>581.0</ele><time>2026-04-12T10:47:08.034Z</time></trkpt><trkpt lat="42.9972463" lon="13.4703969"><ele>581.5</ele><time>2026-04-12T10:47:09.033Z</time></trkpt><trkpt lat="42.9973887" lon="13.4703938"><ele>582.0</ele><time>2026-04-12T10:47:10.027Z</time></trkpt><trkpt lat="42.997534" lon="13.4703962"><ele>582.0</ele><time>2026-04-12T10:47:11.042Z</time></trkpt><trkpt lat="42.9976727" lon="13.4703811"><ele>582.0</ele><time>2026-04-12T10:47:12.028Z</time></trkpt><trkpt lat="42.9977947" lon="13.4703643"><ele>582.0</ele><time>2026-04-12T10:47:13.028Z</time></trkpt><trkpt lat="42.9979086" lon="13.4703589"><ele>582.0</ele><time>2026-04-12T10:47:14.036Z</time></trkpt><trkpt lat="42.9980079" lon="13.470383"><ele>580.2</ele><time>2026-04-12T10:47:15.028Z</time></trkpt><trkpt lat="42.9980737" lon="13.4704642"><ele>578.4000000000001</ele><time>2026-04-12T10:47:16.013Z</time></trkpt><trkpt lat="42.9981229" lon="13.4705936"><ele>576.5999999999999</ele><time>2026-04-12T10:47:17.031Z</time></trkpt><trkpt lat="42.9981612" lon="13.4707525"><ele>574.8</ele><time>2026-04-12T10:47:18.033Z</time></trkpt><trkpt lat="42.9982019" lon="13.4709132"><ele>573.0</ele><time>2026-04-12T10:47:19.037Z</time></trkpt><trkpt lat="42.9982468" lon="13.4710551"><ele>573.0</ele><time>2026-04-12T10:47:20.049Z</time></trkpt><trkpt lat="42.9982882" lon="13.4711826"><ele>573.0</ele><time>2026-04-12T10:47:21.034Z</time></trkpt><trkpt lat="42.9983188" lon="13.4712884"><ele>573.0</ele><time>2026-04-12T10:47:22.035Z</time></trkpt><trkpt lat="42.9983497" lon="13.4713659"><ele>573.0</ele><time>2026-04-12T10:47:23.028Z</time></trkpt><trkpt lat="42.9984005" lon="13.4714956"><ele>573.0</ele><time>2026-04-12T10:47:25.029Z</time></trkpt><trkpt lat="42.9984498" lon="13.4716079"><ele>569.0</ele><time>2026-04-12T10:47:26.053Z</time></trkpt><trkpt lat="42.9984912" lon="13.4717175"><ele>565.0</ele><time>2026-04-12T10:47:27.054Z</time></trkpt><trkpt lat="42.9985427" lon="13.47183"><ele>561.0</ele><time>2026-04-12T10:47:28.061Z</time></trkpt><trkpt lat="42.9985975" lon="13.4719457"><ele>557.0</ele><time>2026-04-12T10:47:29.041Z</time></trkpt><trkpt lat="42.9986576" lon="13.4720709"><ele>553.0</ele><time>2026-04-12T10:47:30.039Z</time></trkpt><trkpt lat="42.9987149" lon="13.4722196"><ele>553.0</ele><time>2026-04-12T10:47:31.044Z</time></trkpt><trkpt lat="42.9987648" lon="13.4723729"><ele>553.0</ele><time>2026-04-12T10:47:32.056Z</time></trkpt><trkpt lat="42.9988092" lon="13.4725362"><ele>553.0</ele><time>2026-04-12T10:47:33.05Z</time></trkpt><trkpt lat="42.9988554" lon="13.472714"><ele>553.0</ele><time>2026-04-12T10:47:34.048Z</time></trkpt><trkpt lat="42.998907" lon="13.4728999"><ele>555.0</ele><time>2026-04-12T10:47:35.06Z</time></trkpt><trkpt lat="42.9989618" lon="13.4730855"><ele>557.0</ele><time>2026-04-12T10:47:36.05Z</time></trkpt><trkpt lat="42.999017" lon="13.473279"><ele>559.0</ele><time>2026-04-12T10:47:37.068Z</time></trkpt><trkpt lat="42.9990732" lon="13.473474"><ele>559.0</ele><time>2026-04-12T10:47:38.049Z</time></trkpt><trkpt lat="42.9991291" lon="13.4736678"><ele>559.0</ele><time>2026-04-12T10:47:39.035Z</time></trkpt><trkpt lat="42.9991882" lon="13.4738654"><ele>559.0</ele><time>2026-04-12T10:47:40.051Z</time></trkpt><trkpt lat="42.9992504" lon="13.4740588"><ele>560.6666666666667</ele><time>2026-04-12T10:47:41.062Z</time></trkpt><trkpt lat="42.9993225" lon="13.4742469"><ele>562.3333333333334</ele><time>2026-04-12T10:47:42.042Z</time></trkpt><trkpt lat="42.9994036" lon="13.47443"><ele>564.0</ele><time>2026-04-12T10:47:43.059Z</time></trkpt><trkpt lat="42.9994885" lon="13.4746193"><ele>564.0</ele><time>2026-04-12T10:47:44.021Z</time></trkpt><trkpt lat="42.9995816" lon="13.4748094"><ele>564.0</ele><time>2026-04-12T10:47:45.049Z</time></trkpt><trkpt lat="42.9996797" lon="13.4749986"><ele>564.0</ele><time>2026-04-12T10:47:46.047Z</time></trkpt><trkpt lat="42.9997757" lon="13.4751961"><ele>564.0</ele><time>2026-04-12T10:47:47.024Z</time></trkpt><trkpt lat="42.9998697" lon="13.4753814"><ele>564.0</ele><time>2026-04-12T10:47:48.03Z</time></trkpt><trkpt lat="42.9999624" lon="13.4755519"><ele>564.0</ele><time>2026-04-12T10:47:49.042Z</time></trkpt><trkpt lat="43.0000659" lon="13.4757089"><ele>570.6666666666666</ele><time>2026-04-12T10:47:49.984Z</time></trkpt><trkpt lat="43.000176" lon="13.4758543"><ele>577.3333333333333</ele><time>2026-04-12T10:47:51.032Z</time></trkpt><trkpt lat="43.0002983" lon="13.475979"><ele>584.0</ele><time>2026-04-12T10:47:52.031Z</time></trkpt><trkpt lat="43.0004377" lon="13.4760887"><ele>584.0</ele><time>2026-04-12T10:47:53.053Z</time></trkpt><trkpt lat="43.000596" lon="13.4761955"><ele>584.0</ele><time>2026-04-12T10:47:54.018Z</time></trkpt><trkpt lat="43.0007482" lon="13.4762935"><ele>584.0</ele><time>2026-04-12T10:47:55.018Z</time></trkpt><trkpt lat="43.0008837" lon="13.4763782"><ele>587.0</ele><time>2026-04-12T10:47:56.055Z</time></trkpt><trkpt lat="43.0009957" lon="13.4764678"><ele>590.0</ele><time>2026-04-12T10:47:57.037Z</time></trkpt><trkpt lat="43.0011037" lon="13.4765843"><ele>593.0</ele><time>2026-04-12T10:47:58.036Z</time></trkpt><trkpt lat="43.0012009" lon="13.4767127"><ele>596.0</ele><time>2026-04-12T10:47:59.002Z</time></trkpt><trkpt lat="43.0012897" lon="13.4768625"><ele>596.0</ele><time>2026-04-12T10:48:00.044Z</time></trkpt><trkpt lat="43.0013548" lon="13.4770377"><ele>596.0</ele><time>2026-04-12T10:48:01.024Z</time></trkpt><trkpt lat="43.0013985" lon="13.4772491"><ele>596.0</ele><time>2026-04-12T10:48:02.008Z</time></trkpt><trkpt lat="43.0014512" lon="13.4774561"><ele>597.25</ele><time>2026-04-12T10:48:03.025Z</time></trkpt><trkpt lat="43.0015018" lon="13.4776385"><ele>598.5</ele><time>2026-04-12T10:48:04.038Z</time></trkpt><trkpt lat="43.0015493" lon="13.4778141"><ele>599.75</ele><time>2026-04-12T10:48:05.056Z</time></trkpt><trkpt lat="43.0016016" lon="13.4779682"><ele>601.0</ele><time>2026-04-12T10:48:06.045Z</time></trkpt><trkpt lat="43.001653" lon="13.478084"><ele>599.1666666666667</ele><time>2026-04-12T10:48:07.061Z</time></trkpt><trkpt lat="43.0016957" lon="13.4781707"><ele>597.3333333333334</ele><time>2026-04-12T10:48:08.045Z</time></trkpt><trkpt lat="43.0017692" lon="13.4782525"><ele>595.5</ele><time>2026-04-12T10:48:10.022Z</time></trkpt><trkpt lat="43.0018358" lon="13.4782488"><ele>593.6666666666666</ele><time>2026-04-12T10:48:13.037Z</time></trkpt><trkpt lat="43.0019192" lon="13.4782064"><ele>591.8333333333333</ele><time>2026-04-12T10:48:16.05Z</time></trkpt><trkpt lat="43.0020195" lon="13.4781631"><ele>590.0</ele><time>2026-04-12T10:48:18.041Z</time></trkpt><trkpt lat="43.0020865" lon="13.4781447"><ele>590.0</ele><time>2026-04-12T10:48:19.047Z</time></trkpt><trkpt lat="43.0021974" lon="13.4781399"><ele>590.0</ele><time>2026-04-12T10:48:21.035Z</time></trkpt><trkpt lat="43.0022604" lon="13.4781453"><ele>590.0</ele><time>2026-04-12T10:48:22.032Z</time></trkpt><trkpt lat="43.0023498" lon="13.4781322"><ele>590.0</ele><time>2026-04-12T10:48:24.015Z</time></trkpt><trkpt lat="43.0024763" lon="13.4781"><ele>590.0</ele><time>2026-04-12T10:48:26.033Z</time></trkpt><trkpt lat="43.0025556" lon="13.4780967"><ele>589.6</ele><time>2026-04-12T10:48:27.027Z</time></trkpt><trkpt lat="43.0026366" lon="13.4781036"><ele>589.2</ele><time>2026-04-12T10:48:28.042Z</time></trkpt><trkpt lat="43.0027308" lon="13.4781331"><ele>588.8</ele><time>2026-04-12T10:48:29.034Z</time></trkpt><trkpt lat="43.0028389" lon="13.4781887"><ele>588.4</ele><time>2026-04-12T10:48:30.012Z</time></trkpt><trkpt lat="43.0029536" lon="13.4782714"><ele>588.0</ele><time>2026-04-12T10:48:31.041Z</time></trkpt><trkpt lat="43.0030654" lon="13.4783705"><ele>588.0</ele><time>2026-04-12T10:48:32.032Z</time></trkpt><trkpt lat="43.0031884" lon="13.4784582"><ele>588.0</ele><time>2026-04-12T10:48:33.037Z</time></trkpt><trkpt lat="43.0033238" lon="13.4785569"><ele>588.0</ele><time>2026-04-12T10:48:34.034Z</time></trkpt><trkpt lat="43.0034481" lon="13.4786512"><ele>588.0</ele><time>2026-04-12T10:48:34.999Z</time></trkpt><trkpt lat="43.0035578" lon="13.478749"><ele>587.25</ele><time>2026-04-12T10:48:36.008Z</time></trkpt><trkpt lat="43.0036703" lon="13.4788314"><ele>586.5</ele><time>2026-04-12T10:48:37.049Z</time></trkpt><trkpt lat="43.0037757" lon="13.4788978"><ele>585.75</ele><time>2026-04-12T10:48:38.051Z</time></trkpt><trkpt lat="43.0038815" lon="13.4789615"><ele>585.0</ele><time>2026-04-12T10:48:39.044Z</time></trkpt><trkpt lat="43.0039866" lon="13.4790243"><ele>585.0</ele><time>2026-04-12T10:48:40.075Z</time></trkpt><trkpt lat="43.0040823" lon="13.4790993"><ele>585.0</ele><time>2026-04-12T10:48:41.048Z</time></trkpt><trkpt lat="43.004173" lon="13.4791926"><ele>585.0</ele><time>2026-04-12T10:48:42.057Z</time></trkpt><trkpt lat="43.0042579" lon="13.4793037"><ele>585.0</ele><time>2026-04-12T10:48:43.058Z</time></trkpt><trkpt lat="43.0043384" lon="13.4794153"><ele>583.25</ele><time>2026-04-12T10:48:44.05Z</time></trkpt><trkpt lat="43.0044214" lon="13.4795323"><ele>581.5</ele><time>2026-04-12T10:48:45.014Z</time></trkpt><trkpt lat="43.0045082" lon="13.4796597"><ele>579.75</ele><time>2026-04-12T10:48:46.012Z</time></trkpt><trkpt lat="43.0045899" lon="13.479774"><ele>578.0</ele><time>2026-04-12T10:48:47.051Z</time></trkpt><trkpt lat="43.0046791" lon="13.4798784"><ele>577.5</ele><time>2026-04-12T10:48:48.063Z</time></trkpt><trkpt lat="43.0047698" lon="13.4799931"><ele>577.0</ele><time>2026-04-12T10:48:49.082Z</time></trkpt><trkpt lat="43.0048457" lon="13.4801186"><ele>576.5</ele><time>2026-04-12T10:48:50.054Z</time></trkpt><trkpt lat="43.0049159" lon="13.4802382"><ele>576.0</ele><time>2026-04-12T10:48:51.05Z</time></trkpt><trkpt lat="43.0049947" lon="13.4803658"><ele>575.0</ele><time>2026-04-12T10:48:52.052Z</time></trkpt><trkpt lat="43.0050739" lon="13.4804753"><ele>574.0</ele><time>2026-04-12T10:48:53.026Z</time></trkpt><trkpt lat="43.0051653" lon="13.4805952"><ele>573.0</ele><time>2026-04-12T10:48:54.073Z</time></trkpt><trkpt lat="43.0052614" lon="13.480725"><ele>572.0</ele><time>2026-04-12T10:48:55.057Z</time></trkpt><trkpt lat="43.0053614" lon="13.4808398"><ele>572.0</ele><time>2026-04-12T10:48:56.057Z</time></trkpt><trkpt lat="43.0054625" lon="13.4809589"><ele>572.0</ele><time>2026-04-12T10:48:57.019Z</time></trkpt><trkpt lat="43.0055579" lon="13.4810776"><ele>572.0</ele><time>2026-04-12T10:48:58.007Z</time></trkpt><trkpt lat="43.0056436" lon="13.4811915"><ele>572.0</ele><time>2026-04-12T10:48:59.009Z</time></trkpt><trkpt lat="43.0057284" lon="13.4813107"><ele>571.75</ele><time>2026-04-12T10:49:00.043Z</time></trkpt><trkpt lat="43.005813" lon="13.4814251"><ele>571.5</ele><time>2026-04-12T10:49:01.05Z</time></trkpt><trkpt lat="43.0059024" lon="13.4815446"><ele>571.25</ele><time>2026-04-12T10:49:02.055Z</time></trkpt><trkpt lat="43.005997" lon="13.4816639"><ele>571.0</ele><time>2026-04-12T10:49:03.017Z</time></trkpt><trkpt lat="43.0060881" lon="13.4817836"><ele>571.0</ele><time>2026-04-12T10:49:04.046Z</time></trkpt><trkpt lat="43.0061822" lon="13.481911"><ele>571.0</ele><time>2026-04-12T10:49:05.053Z</time></trkpt><trkpt lat="43.0062821" lon="13.4820271"><ele>571.0</ele><time>2026-04-12T10:49:06.039Z</time></trkpt><trkpt lat="43.0063806" lon="13.4821412"><ele>571.0</ele><time>2026-04-12T10:49:07.045Z</time></trkpt><trkpt lat="43.0064847" lon="13.4822534"><ele>569.25</ele><time>2026-04-12T10:49:08.039Z</time></trkpt><trkpt lat="43.0065738" lon="13.4823622"><ele>567.5</ele><time>2026-04-12T10:49:09.047Z</time></trkpt><trkpt lat="43.0066637" lon="13.4824554"><ele>565.75</ele><time>2026-04-12T10:49:10.06Z</time></trkpt><trkpt lat="43.0067563" lon="13.4825493"><ele>564.0</ele><time>2026-04-12T10:49:11.045Z</time></trkpt><trkpt lat="43.006845" lon="13.4826405"><ele>564.0</ele><time>2026-04-12T10:49:12.012Z</time></trkpt><trkpt lat="43.0069401" lon="13.4827222"><ele>564.0</ele><time>2026-04-12T10:49:13.048Z</time></trkpt><trkpt lat="43.0070344" lon="13.4827948"><ele>564.0</ele><time>2026-04-12T10:49:14.041Z</time></trkpt><trkpt lat="43.0071301" lon="13.4828529"><ele>564.0</ele><time>2026-04-12T10:49:15.047Z</time></trkpt><trkpt lat="43.0072446" lon="13.4828958"><ele>564.0</ele><time>2026-04-12T10:49:16.058Z</time></trkpt><trkpt lat="43.0073565" lon="13.4829252"><ele>561.25</ele><time>2026-04-12T10:49:17.048Z</time></trkpt><trkpt lat="43.0074769" lon="13.4829536"><ele>558.5</ele><time>2026-04-12T10:49:18.056Z</time></trkpt><trkpt lat="43.0076026" lon="13.4829816"><ele>555.75</ele><time>2026-04-12T10:49:19.053Z</time></trkpt><trkpt lat="43.0077289" lon="13.4830051"><ele>553.0</ele><time>2026-04-12T10:49:20.059Z</time></trkpt><trkpt lat="43.0078629" lon="13.483018"><ele>551.75</ele><time>2026-04-12T10:49:21.001Z</time></trkpt><trkpt lat="43.0079986" lon="13.4830277"><ele>550.5</ele><time>2026-04-12T10:49:22.058Z</time></trkpt><trkpt lat="43.0081277" lon="13.4830338"><ele>549.25</ele><time>2026-04-12T10:49:23.056Z</time></trkpt><trkpt lat="43.0082529" lon="13.4830401"><ele>548.0</ele><time>2026-04-12T10:49:24.049Z</time></trkpt><trkpt lat="43.008381" lon="13.4830548"><ele>546.75</ele><time>2026-04-12T10:49:25.049Z</time></trkpt><trkpt lat="43.0085073" lon="13.4830687"><ele>545.5</ele><time>2026-04-12T10:49:26.052Z</time></trkpt><trkpt lat="43.0086285" lon="13.4830819"><ele>544.25</ele><time>2026-04-12T10:49:27.07Z</time></trkpt><trkpt lat="43.008747" lon="13.4830991"><ele>543.0</ele><time>2026-04-12T10:49:28.053Z</time></trkpt><trkpt lat="43.0088718" lon="13.4831099"><ele>543.0</ele><time>2026-04-12T10:49:29.062Z</time></trkpt><trkpt lat="43.0089981" lon="13.4831237"><ele>543.0</ele><time>2026-04-12T10:49:30.044Z</time></trkpt><trkpt lat="43.0091247" lon="13.4831336"><ele>543.0</ele><time>2026-04-12T10:49:31.048Z</time></trkpt><trkpt lat="43.0092494" lon="13.4831465"><ele>543.0</ele><time>2026-04-12T10:49:32.055Z</time></trkpt><trkpt lat="43.0093574" lon="13.4831615"><ele>540.1999999999999</ele><time>2026-04-12T10:49:33.076Z</time></trkpt><trkpt lat="43.0094586" lon="13.483174"><ele>537.4</ele><time>2026-04-12T10:49:34.065Z</time></trkpt><trkpt lat="43.0095623" lon="13.4831831"><ele>534.5999999999999</ele><time>2026-04-12T10:49:35.066Z</time></trkpt><trkpt lat="43.0096653" lon="13.4832009"><ele>531.8</ele><time>2026-04-12T10:49:36.053Z</time></trkpt><trkpt lat="43.0097747" lon="13.4832114"><ele>529.0</ele><time>2026-04-12T10:49:37.042Z</time></trkpt><trkpt lat="43.0098963" lon="13.4832367"><ele>526.0</ele><time>2026-04-12T10:49:38.059Z</time></trkpt><trkpt lat="43.0100286" lon="13.4832844"><ele>523.0</ele><time>2026-04-12T10:49:39.072Z</time></trkpt><trkpt lat="43.0101655" lon="13.4833325"><ele>520.0</ele><time>2026-04-12T10:49:40.06Z</time></trkpt><trkpt lat="43.0103107" lon="13.483374"><ele>517.0</ele><time>2026-04-12T10:49:41.058Z</time></trkpt><trkpt lat="43.0104606" lon="13.4834167"><ele>517.0</ele><time>2026-04-12T10:49:42.016Z</time></trkpt><trkpt lat="43.010603" lon="13.4834527"><ele>517.0</ele><time>2026-04-12T10:49:43.065Z</time></trkpt><trkpt lat="43.0107349" lon="13.4834995"><ele>517.0</ele><time>2026-04-12T10:49:44.003Z</time></trkpt><trkpt lat="43.01086" lon="13.4835431"><ele>517.0</ele><time>2026-04-12T10:49:45.016Z</time></trkpt><trkpt lat="43.0109757" lon="13.4835992"><ele>515.8000000000001</ele><time>2026-04-12T10:49:46.054Z</time></trkpt><trkpt lat="43.0110875" lon="13.4836627"><ele>514.6</ele><time>2026-04-12T10:49:47.048Z</time></trkpt><trkpt lat="43.011183" lon="13.4837199"><ele>513.4000000000001</ele><time>2026-04-12T10:49:47.98Z</time></trkpt><trkpt lat="43.0112676" lon="13.483784"><ele>512.2</ele><time>2026-04-12T10:49:48.978Z</time></trkpt><trkpt lat="43.0113444" lon="13.4838336"><ele>511.0</ele><time>2026-04-12T10:49:49.979Z</time></trkpt><trkpt lat="43.011405" lon="13.4838608"><ele>511.0</ele><time>2026-04-12T10:49:51.032Z</time></trkpt><trkpt lat="43.0114943" lon="13.4838008"><ele>511.0</ele><time>2026-04-12T10:49:53.015Z</time></trkpt><trkpt lat="43.0115707" lon="13.4837131"><ele>511.0</ele><time>2026-04-12T10:49:55.015Z</time></trkpt><trkpt lat="43.0116499" lon="13.4836234"><ele>511.0</ele><time>2026-04-12T10:49:57.053Z</time></trkpt><trkpt lat="43.0117331" lon="13.4835174"><ele>511.0</ele><time>2026-04-12T10:49:59.017Z</time></trkpt><trkpt lat="43.0118372" lon="13.4833938"><ele>510.8</ele><time>2026-04-12T10:50:01.031Z</time></trkpt><trkpt lat="43.0119035" lon="13.4833121"><ele>510.6</ele><time>2026-04-12T10:50:02.037Z</time></trkpt><trkpt lat="43.0119778" lon="13.4832238"><ele>510.4</ele><time>2026-04-12T10:50:03.05Z</time></trkpt><trkpt lat="43.0120548" lon="13.4831263"><ele>510.2</ele><time>2026-04-12T10:50:04.021Z</time></trkpt><trkpt lat="43.0121343" lon="13.4830175"><ele>510.0</ele><time>2026-04-12T10:50:05.043Z</time></trkpt><trkpt lat="43.0122075" lon="13.4828909"><ele>510.0</ele><time>2026-04-12T10:50:06.059Z</time></trkpt><trkpt lat="43.0122752" lon="13.4827305"><ele>510.0</ele><time>2026-04-12T10:50:07.038Z</time></trkpt><trkpt lat="43.0123411" lon="13.4825731"><ele>510.0</ele><time>2026-04-12T10:50:07.98Z</time></trkpt><trkpt lat="43.0124001" lon="13.4824246"><ele>510.0</ele><time>2026-04-12T10:50:09.037Z</time></trkpt><trkpt lat="43.0124389" lon="13.4822815"><ele>510.0</ele><time>2026-04-12T10:50:10.051Z</time></trkpt><trkpt lat="43.0124573" lon="13.4821118"><ele>510.0</ele><time>2026-04-12T10:50:11.045Z</time></trkpt><trkpt lat="43.0124735" lon="13.4819276"><ele>510.0</ele><time>2026-04-12T10:50:12.052Z</time></trkpt><trkpt lat="43.012493" lon="13.4817432"><ele>510.0</ele><time>2026-04-12T10:50:13.012Z</time></trkpt><trkpt lat="43.0125216" lon="13.4815764"><ele>509.75</ele><time>2026-04-12T10:50:14.04Z</time></trkpt><trkpt lat="43.0125567" lon="13.4814176"><ele>509.5</ele><time>2026-04-12T10:50:15.048Z</time></trkpt><trkpt lat="43.0125942" lon="13.4812599"><ele>509.25</ele><time>2026-04-12T10:50:16.05Z</time></trkpt><trkpt lat="43.0126341" lon="13.4810957"><ele>509.0</ele><time>2026-04-12T10:50:17.041Z</time></trkpt><trkpt lat="43.0126785" lon="13.4809289"><ele>509.0</ele><time>2026-04-12T10:50:18.024Z</time></trkpt><trkpt lat="43.012728" lon="13.4807587"><ele>509.0</ele><time>2026-04-12T10:50:19.037Z</time></trkpt><trkpt lat="43.0127946" lon="13.4805876"><ele>509.0</ele><time>2026-04-12T10:50:20.036Z</time></trkpt><trkpt lat="43.0128681" lon="13.4804115"><ele>509.0</ele><time>2026-04-12T10:50:21.056Z</time></trkpt><trkpt lat="43.0129307" lon="13.4802302"><ele>506.0</ele><time>2026-04-12T10:50:22.016Z</time></trkpt><trkpt lat="43.0129799" lon="13.4800545"><ele>503.0</ele><time>2026-04-12T10:50:23.055Z</time></trkpt><trkpt lat="43.0130173" lon="13.4798784"><ele>500.0</ele><time>2026-04-12T10:50:24.068Z</time></trkpt><trkpt lat="43.0130518" lon="13.4797044"><ele>497.0</ele><time>2026-04-12T10:50:25.03Z</time></trkpt><trkpt lat="43.0130864" lon="13.4795204"><ele>494.75</ele><time>2026-04-12T10:50:26.054Z</time></trkpt><trkpt lat="43.013133" lon="13.4793387"><ele>492.5</ele><time>2026-04-12T10:50:27.046Z</time></trkpt><trkpt lat="43.0131855" lon="13.4791604"><ele>490.25</ele><time>2026-04-12T10:50:28.055Z</time></trkpt><trkpt lat="43.0132439" lon="13.4789902"><ele>488.0</ele><time>2026-04-12T10:50:29.04Z</time></trkpt><trkpt lat="43.0133023" lon="13.4788375"><ele>489.4</ele><time>2026-04-12T10:50:30.038Z</time></trkpt><trkpt lat="43.0133517" lon="13.4787083"><ele>490.79999999999995</ele><time>2026-04-12T10:50:31.056Z</time></trkpt><trkpt lat="43.0134056" lon="13.4785993"><ele>492.2</ele><time>2026-04-12T10:50:32.059Z</time></trkpt><trkpt lat="43.0134656" lon="13.4785103"><ele>493.6</ele><time>2026-04-12T10:50:33.069Z</time></trkpt><trkpt lat="43.0135388" lon="13.478434"><ele>495.0</ele><time>2026-04-12T10:50:33.997Z</time></trkpt><trkpt lat="43.0136344" lon="13.4783413"><ele>495.0</ele><time>2026-04-12T10:50:35.047Z</time></trkpt><trkpt lat="43.0137419" lon="13.4782348"><ele>495.0</ele><time>2026-04-12T10:50:36.072Z</time></trkpt><trkpt lat="43.0138622" lon="13.4781212"><ele>495.0</ele><time>2026-04-12T10:50:37.056Z</time></trkpt><trkpt lat="43.0139914" lon="13.4779968"><ele>495.0</ele><time>2026-04-12T10:50:38.05Z</time></trkpt><trkpt lat="43.014118" lon="13.4778822"><ele>495.25</ele><time>2026-04-12T10:50:39.047Z</time></trkpt><trkpt lat="43.0142479" lon="13.4777673"><ele>495.5</ele><time>2026-04-12T10:50:40.065Z</time></trkpt><trkpt lat="43.0143758" lon="13.4776644"><ele>495.75</ele><time>2026-04-12T10:50:41.042Z</time></trkpt><trkpt lat="43.0145066" lon="13.47758"><ele>496.0</ele><time>2026-04-12T10:50:42.072Z</time></trkpt><trkpt lat="43.0146399" lon="13.4775052"><ele>496.0</ele><time>2026-04-12T10:50:43.05Z</time></trkpt><trkpt lat="43.0147708" lon="13.4774276"><ele>496.0</ele><time>2026-04-12T10:50:44.042Z</time></trkpt><trkpt lat="43.0148926" lon="13.4773562"><ele>496.0</ele><time>2026-04-12T10:50:45.045Z</time></trkpt><trkpt lat="43.0150123" lon="13.4772766"><ele>496.0</ele><time>2026-04-12T10:50:46.016Z</time></trkpt><trkpt lat="43.0151349" lon="13.4772094"><ele>495.0</ele><time>2026-04-12T10:50:47.016Z</time></trkpt><trkpt lat="43.0152586" lon="13.4771362"><ele>494.0</ele><time>2026-04-12T10:50:48.056Z</time></trkpt><trkpt lat="43.0153848" lon="13.4770671"><ele>493.0</ele><time>2026-04-12T10:50:49.057Z</time></trkpt><trkpt lat="43.0155142" lon="13.4769937"><ele>492.0</ele><time>2026-04-12T10:50:50.054Z</time></trkpt><trkpt lat="43.0156453" lon="13.4769179"><ele>491.5</ele><time>2026-04-12T10:50:51.054Z</time></trkpt><trkpt lat="43.0157776" lon="13.4768339"><ele>491.0</ele><time>2026-04-12T10:50:52.054Z</time></trkpt><trkpt lat="43.0159146" lon="13.4767427"><ele>490.5</ele><time>2026-04-12T10:50:53.061Z</time></trkpt><trkpt lat="43.0160531" lon="13.4766618"><ele>490.0</ele><time>2026-04-12T10:50:54.055Z</time></trkpt><trkpt lat="43.0161908" lon="13.4765953"><ele>487.0</ele><time>2026-04-12T10:50:55.058Z</time></trkpt><trkpt lat="43.0163278" lon="13.4765318"><ele>484.0</ele><time>2026-04-12T10:50:56.061Z</time></trkpt><trkpt lat="43.0164488" lon="13.4764763"><ele>481.0</ele><time>2026-04-12T10:50:57.071Z</time></trkpt><trkpt lat="43.0165517" lon="13.4764155"><ele>478.0</ele><time>2026-04-12T10:50:58.011Z</time></trkpt><trkpt lat="43.0166471" lon="13.4763543"><ele>478.79999999999995</ele><time>2026-04-12T10:50:59.023Z</time></trkpt><trkpt lat="43.0167389" lon="13.4762898"><ele>479.59999999999997</ele><time>2026-04-12T10:51:00.016Z</time></trkpt><trkpt lat="43.0168291" lon="13.4762333"><ele>480.40000000000003</ele><time>2026-04-12T10:51:01.005Z</time></trkpt><trkpt lat="43.0169339" lon="13.4761774"><ele>481.20000000000005</ele><time>2026-04-12T10:51:02.004Z</time></trkpt><trkpt lat="43.0170332" lon="13.4761291"><ele>482.0</ele><time>2026-04-12T10:51:03.016Z</time></trkpt><trkpt lat="43.0171532" lon="13.4760713"><ele>478.5</ele><time>2026-04-12T10:51:04.001Z</time></trkpt><trkpt lat="43.0172759" lon="13.4759974"><ele>475.0</ele><time>2026-04-12T10:51:05.049Z</time></trkpt><trkpt lat="43.0173951" lon="13.4759169"><ele>471.5</ele><time>2026-04-12T10:51:06.065Z</time></trkpt><trkpt lat="43.0175131" lon="13.4758366"><ele>468.0</ele><time>2026-04-12T10:51:07.027Z</time></trkpt><trkpt lat="43.0176335" lon="13.4757438"><ele>468.0</ele><time>2026-04-12T10:51:08.049Z</time></trkpt><trkpt lat="43.0177515" lon="13.475643"><ele>468.0</ele><time>2026-04-12T10:51:09.046Z</time></trkpt><trkpt lat="43.0178661" lon="13.4755444"><ele>468.0</ele><time>2026-04-12T10:51:10.063Z</time></trkpt><trkpt lat="43.0179798" lon="13.4754395"><ele>468.0</ele><time>2026-04-12T10:51:11.067Z</time></trkpt><trkpt lat="43.0180794" lon="13.4753287"><ele>463.25</ele><time>2026-04-12T10:51:12.036Z</time></trkpt><trkpt lat="43.0181724" lon="13.4752268"><ele>458.5</ele><time>2026-04-12T10:51:12.992Z</time></trkpt><trkpt lat="43.0182634" lon="13.4751316"><ele>453.75</ele><time>2026-04-12T10:51:14.014Z</time></trkpt><trkpt lat="43.01836" lon="13.475052"><ele>449.0</ele><time>2026-04-12T10:51:15.026Z</time></trkpt><trkpt lat="43.0184631" lon="13.4749903"><ele>449.0</ele><time>2026-04-12T10:51:16.036Z</time></trkpt><trkpt lat="43.0185649" lon="13.4749529"><ele>449.0</ele><time>2026-04-12T10:51:17.048Z</time></trkpt><trkpt lat="43.018659" lon="13.4749361"><ele>449.0</ele><time>2026-04-12T10:51:18.037Z</time></trkpt><trkpt lat="43.0187394" lon="13.4749443"><ele>449.0</ele><time>2026-04-12T10:51:19.078Z</time></trkpt><trkpt lat="43.0188169" lon="13.4750009"><ele>449.0</ele><time>2026-04-12T10:51:20.034Z</time></trkpt><trkpt lat="43.0188792" lon="13.4750888"><ele>448.99999999999994</ele><time>2026-04-12T10:51:21.012Z</time></trkpt><trkpt lat="43.0189273" lon="13.4751572"><ele>449.0</ele><time>2026-04-12T10:51:22.006Z</time></trkpt><trkpt lat="43.0190031" lon="13.4752194"><ele>449.0</ele><time>2026-04-12T10:51:24.057Z</time></trkpt><trkpt lat="43.019079" lon="13.4751047"><ele>449.0</ele><time>2026-04-12T10:51:26.042Z</time></trkpt><trkpt lat="43.0190946" lon="13.4750041"><ele>448.99999999999994</ele><time>2026-04-12T10:51:27.025Z</time></trkpt><trkpt lat="43.0191053" lon="13.4748827"><ele>449.0</ele><time>2026-04-12T10:51:28.061Z</time></trkpt><trkpt lat="43.0191004" lon="13.4747506"><ele>449.0</ele><time>2026-04-12T10:51:29.07Z</time></trkpt><trkpt lat="43.0190845" lon="13.4746045"><ele>449.0</ele><time>2026-04-12T10:51:30.045Z</time></trkpt><trkpt lat="43.019066" lon="13.4744508"><ele>449.0</ele><time>2026-04-12T10:51:31.048Z</time></trkpt><trkpt lat="43.0190451" lon="13.4743122"><ele>449.0</ele><time>2026-04-12T10:51:32.004Z</time></trkpt><trkpt lat="43.0190234" lon="13.4741891"><ele>449.0</ele><time>2026-04-12T10:51:33.014Z</time></trkpt><trkpt lat="43.019008" lon="13.4740855"><ele>442.2</ele><time>2026-04-12T10:51:34.007Z</time></trkpt><trkpt lat="43.0189951" lon="13.4739809"><ele>435.4</ele><time>2026-04-12T10:51:35.051Z</time></trkpt><trkpt lat="43.0189917" lon="13.4738588"><ele>428.6</ele><time>2026-04-12T10:51:36.065Z</time></trkpt><trkpt lat="43.0189963" lon="13.4737277"><ele>421.8</ele><time>2026-04-12T10:51:37.039Z</time></trkpt><trkpt lat="43.0190146" lon="13.4735804"><ele>415.0</ele><time>2026-04-12T10:51:38.063Z</time></trkpt><trkpt lat="43.0190263" lon="13.4734619"><ele>415.33333333333337</ele><time>2026-04-12T10:51:39.046Z</time></trkpt><trkpt lat="43.0190433" lon="13.4733666"><ele>415.6666666666667</ele><time>2026-04-12T10:51:40.043Z</time></trkpt><trkpt lat="43.0190697" lon="13.473263"><ele>416.0</ele><time>2026-04-12T10:51:41.03Z</time></trkpt><trkpt lat="43.0191143" lon="13.4731592"><ele>416.33333333333337</ele><time>2026-04-12T10:51:42.041Z</time></trkpt><trkpt lat="43.0191843" lon="13.4730724"><ele>416.6666666666667</ele><time>2026-04-12T10:51:43.05Z</time></trkpt><trkpt lat="43.0192612" lon="13.4729912"><ele>417.0</ele><time>2026-04-12T10:51:44.056Z</time></trkpt><trkpt lat="43.0193616" lon="13.4729197"><ele>417.0</ele><time>2026-04-12T10:51:45.028Z</time></trkpt><trkpt lat="43.019469" lon="13.4728528"><ele>417.0</ele><time>2026-04-12T10:51:46.037Z</time></trkpt><trkpt lat="43.0195598" lon="13.4727806"><ele>417.0</ele><time>2026-04-12T10:51:47.032Z</time></trkpt><trkpt lat="43.0196445" lon="13.472699"><ele>417.0</ele><time>2026-04-12T10:51:48.02Z</time></trkpt><trkpt lat="43.0197317" lon="13.4726263"><ele>417.0</ele><time>2026-04-12T10:51:49.031Z</time></trkpt><trkpt lat="43.0198017" lon="13.4725601"><ele>417.0</ele><time>2026-04-12T10:51:50.034Z</time></trkpt><trkpt lat="43.0198583" lon="13.4724926"><ele>417.0</ele><time>2026-04-12T10:51:51.043Z</time></trkpt><trkpt lat="43.0198987" lon="13.4723981"><ele>417.0</ele><time>2026-04-12T10:51:52.045Z</time></trkpt><trkpt lat="43.0199182" lon="13.4723013"><ele>417.0</ele><time>2026-04-12T10:51:53.031Z</time></trkpt><trkpt lat="43.0199516" lon="13.4721858"><ele>417.0</ele><time>2026-04-12T10:51:54.061Z</time></trkpt><trkpt lat="43.0199823" lon="13.4720479"><ele>417.0</ele><time>2026-04-12T10:51:55.048Z</time></trkpt><trkpt lat="43.02002" lon="13.471882"><ele>414.25</ele><time>2026-04-12T10:51:56.035Z</time></trkpt><trkpt lat="43.0200532" lon="13.4717125"><ele>411.5</ele><time>2026-04-12T10:51:57.045Z</time></trkpt><trkpt lat="43.0200871" lon="13.4715514"><ele>408.75</ele><time>2026-04-12T10:51:58.048Z</time></trkpt><trkpt lat="43.0201138" lon="13.4713876"><ele>406.0</ele><time>2026-04-12T10:51:59.047Z</time></trkpt><trkpt lat="43.0201427" lon="13.4712323"><ele>404.20000000000005</ele><time>2026-04-12T10:52:00.035Z</time></trkpt><trkpt lat="43.0201703" lon="13.4710793"><ele>402.40000000000003</ele><time>2026-04-12T10:52:01.034Z</time></trkpt><trkpt lat="43.020196" lon="13.4709338"><ele>400.6</ele><time>2026-04-12T10:52:02.032Z</time></trkpt><trkpt lat="43.020218" lon="13.4708018"><ele>398.8</ele><time>2026-04-12T10:52:03.05Z</time></trkpt><trkpt lat="43.0202586" lon="13.4706634"><ele>397.0</ele><time>2026-04-12T10:52:04.014Z</time></trkpt><trkpt lat="43.0203193" lon="13.4705416"><ele>397.0</ele><time>2026-04-12T10:52:05.058Z</time></trkpt><trkpt lat="43.0203862" lon="13.470442"><ele>397.0</ele><time>2026-04-12T10:52:06.043Z</time></trkpt><trkpt lat="43.0204614" lon="13.4703555"><ele>397.0</ele><time>2026-04-12T10:52:07.038Z</time></trkpt><trkpt lat="43.020542" lon="13.4702727"><ele>397.0</ele><time>2026-04-12T10:52:08.052Z</time></trkpt><trkpt lat="43.0206287" lon="13.4701887"><ele>397.0</ele><time>2026-04-12T10:52:09.035Z</time></trkpt><trkpt lat="43.0207188" lon="13.470094"><ele>394.0</ele><time>2026-04-12T10:52:10.041Z</time></trkpt><trkpt lat="43.0208096" lon="13.4699701"><ele>391.0</ele><time>2026-04-12T10:52:11.054Z</time></trkpt><trkpt lat="43.0209043" lon="13.4698342"><ele>388.0</ele><time>2026-04-12T10:52:12.056Z</time></trkpt><trkpt lat="43.0209998" lon="13.4696902"><ele>385.0</ele><time>2026-04-12T10:52:13.075Z</time></trkpt><trkpt lat="43.0210991" lon="13.4695484"><ele>384.0</ele><time>2026-04-12T10:52:14.053Z</time></trkpt><trkpt lat="43.0211861" lon="13.4694068"><ele>383.0</ele><time>2026-04-12T10:52:15.049Z</time></trkpt><trkpt lat="43.0212787" lon="13.4692625"><ele>382.0</ele><time>2026-04-12T10:52:16.059Z</time></trkpt><trkpt lat="43.0213734" lon="13.4691129"><ele>381.0</ele><time>2026-04-12T10:52:17.016Z</time></trkpt><trkpt lat="43.0214702" lon="13.4689672"><ele>381.0</ele><time>2026-04-12T10:52:18.03Z</time></trkpt><trkpt lat="43.0215675" lon="13.4688195"><ele>381.0</ele><time>2026-04-12T10:52:19.043Z</time></trkpt><trkpt lat="43.0216555" lon="13.468674"><ele>381.0</ele><time>2026-04-12T10:52:20.044Z</time></trkpt><trkpt lat="43.021743" lon="13.4685248"><ele>381.0</ele><time>2026-04-12T10:52:21.047Z</time></trkpt><trkpt lat="43.0218286" lon="13.4683742"><ele>378.25</ele><time>2026-04-12T10:52:22.062Z</time></trkpt><trkpt lat="43.021916" lon="13.4682221"><ele>375.5</ele><time>2026-04-12T10:52:23.013Z</time></trkpt><trkpt lat="43.0220107" lon="13.468073"><ele>372.75</ele><time>2026-04-12T10:52:24.008Z</time></trkpt><trkpt lat="43.0221037" lon="13.467921"><ele>370.0</ele><time>2026-04-12T10:52:25.009Z</time></trkpt><trkpt lat="43.0221975" lon="13.4677716"><ele>367.5</ele><time>2026-04-12T10:52:26.009Z</time></trkpt><trkpt lat="43.0222922" lon="13.4676255"><ele>365.0</ele><time>2026-04-12T10:52:27.014Z</time></trkpt><trkpt lat="43.0223871" lon="13.4674802"><ele>362.5</ele><time>2026-04-12T10:52:28.034Z</time></trkpt><trkpt lat="43.0224852" lon="13.4673275"><ele>360.0</ele><time>2026-04-12T10:52:29.049Z</time></trkpt><trkpt lat="43.0225836" lon="13.4671716"><ele>358.25</ele><time>2026-04-12T10:52:30.049Z</time></trkpt><trkpt lat="43.0226772" lon="13.4670129"><ele>356.5</ele><time>2026-04-12T10:52:31.041Z</time></trkpt><trkpt lat="43.0227648" lon="13.4668639"><ele>354.75</ele><time>2026-04-12T10:52:31.999Z</time></trkpt><trkpt lat="43.0228433" lon="13.4667147"><ele>353.0</ele><time>2026-04-12T10:52:33.031Z</time></trkpt><trkpt lat="43.0229234" lon="13.4665727"><ele>353.0</ele><time>2026-04-12T10:52:34.046Z</time></trkpt><trkpt lat="43.0230032" lon="13.4664333"><ele>353.0</ele><time>2026-04-12T10:52:35.051Z</time></trkpt><trkpt lat="43.0230754" lon="13.466297"><ele>353.0</ele><time>2026-04-12T10:52:36.047Z</time></trkpt><trkpt lat="43.0231396" lon="13.4661673"><ele>353.0</ele><time>2026-04-12T10:52:37.047Z</time></trkpt><trkpt lat="43.0231962" lon="13.4660436"><ele>351.79999999999995</ele><time>2026-04-12T10:52:38.033Z</time></trkpt><trkpt lat="43.0232476" lon="13.4659112"><ele>350.6</ele><time>2026-04-12T10:52:39.056Z</time></trkpt><trkpt lat="43.0233046" lon="13.4657784"><ele>349.4</ele><time>2026-04-12T10:52:40.027Z</time></trkpt><trkpt lat="43.0233643" lon="13.4656437"><ele>348.20000000000005</ele><time>2026-04-12T10:52:41.082Z</time></trkpt><trkpt lat="43.0234248" lon="13.465519"><ele>347.0</ele><time>2026-04-12T10:52:42.052Z</time></trkpt><trkpt lat="43.0234859" lon="13.4654045"><ele>345.1666666666667</ele><time>2026-04-12T10:52:43.075Z</time></trkpt><trkpt lat="43.023543" lon="13.4653002"><ele>343.33333333333337</ele><time>2026-04-12T10:52:44.07Z</time></trkpt><trkpt lat="43.0235967" lon="13.4652114"><ele>341.5</ele><time>2026-04-12T10:52:45.069Z</time></trkpt><trkpt lat="43.0236584" lon="13.4651556"><ele>339.6666666666667</ele><time>2026-04-12T10:52:46.013Z</time></trkpt><trkpt lat="43.0237308" lon="13.4651204"><ele>337.8333333333333</ele><time>2026-04-12T10:52:47.011Z</time></trkpt><trkpt lat="43.0238074" lon="13.4651129"><ele>336.0</ele><time>2026-04-12T10:52:48.059Z</time></trkpt><trkpt lat="43.0238863" lon="13.4651382"><ele>336.0</ele><time>2026-04-12T10:52:49.056Z</time></trkpt><trkpt lat="43.0239683" lon="13.4651772"><ele>336.0</ele><time>2026-04-12T10:52:50.042Z</time></trkpt><trkpt lat="43.024052" lon="13.4652233"><ele>336.0</ele><time>2026-04-12T10:52:51.057Z</time></trkpt><trkpt lat="43.0241498" lon="13.4652689"><ele>336.0</ele><time>2026-04-12T10:52:52.04Z</time></trkpt><trkpt lat="43.0242516" lon="13.4653095"><ele>336.0</ele><time>2026-04-12T10:52:53.017Z</time></trkpt><trkpt lat="43.0243615" lon="13.4653465"><ele>334.8</ele><time>2026-04-12T10:52:54.011Z</time></trkpt><trkpt lat="43.024467" lon="13.4653848"><ele>333.6</ele><time>2026-04-12T10:52:55.028Z</time></trkpt><trkpt lat="43.0245783" lon="13.4654195"><ele>332.4</ele><time>2026-04-12T10:52:56.04Z</time></trkpt><trkpt lat="43.0246819" lon="13.4654597"><ele>331.2</ele><time>2026-04-12T10:52:56.997Z</time></trkpt><trkpt lat="43.0247772" lon="13.4654969"><ele>330.0</ele><time>2026-04-12T10:52:58.006Z</time></trkpt><trkpt lat="43.0248678" lon="13.4655334"><ele>330.0</ele><time>2026-04-12T10:52:59.013Z</time></trkpt><trkpt lat="43.0249562" lon="13.4655815"><ele>330.0</ele><time>2026-04-12T10:53:00.007Z</time></trkpt><trkpt lat="43.0250411" lon="13.4656307"><ele>330.0</ele><time>2026-04-12T10:53:01.003Z</time></trkpt><trkpt lat="43.025121" lon="13.4657087"><ele>330.0</ele><time>2026-04-12T10:53:02.005Z</time></trkpt><trkpt lat="43.0251879" lon="13.4657988"><ele>330.0</ele><time>2026-04-12T10:53:03.009Z</time></trkpt><trkpt lat="43.0252542" lon="13.4658901"><ele>327.1666666666667</ele><time>2026-04-12T10:53:04.011Z</time></trkpt><trkpt lat="43.0253211" lon="13.4659777"><ele>324.3333333333333</ele><time>2026-04-12T10:53:05.007Z</time></trkpt><trkpt lat="43.0253698" lon="13.466059"><ele>321.5</ele><time>2026-04-12T10:53:06.011Z</time></trkpt><trkpt lat="43.0254225" lon="13.4661211"><ele>318.66666666666663</ele><time>2026-04-12T10:53:07.011Z</time></trkpt><trkpt lat="43.0255425" lon="13.4661399"><ele>315.8333333333333</ele><time>2026-04-12T10:53:09.017Z</time></trkpt><trkpt lat="43.0256037" lon="13.4660903"><ele>313.0</ele><time>2026-04-12T10:53:10.048Z</time></trkpt><trkpt lat="43.0256599" lon="13.4660266"><ele>313.0</ele><time>2026-04-12T10:53:11.063Z</time></trkpt><trkpt lat="43.0256959" lon="13.4659447"><ele>313.0</ele><time>2026-04-12T10:53:12.042Z</time></trkpt><trkpt lat="43.0257135" lon="13.4658275"><ele>313.0</ele><time>2026-04-12T10:53:13.043Z</time></trkpt><trkpt lat="43.025733" lon="13.4656871"><ele>313.0</ele><time>2026-04-12T10:53:14.044Z</time></trkpt><trkpt lat="43.0257569" lon="13.4655389"><ele>313.0</ele><time>2026-04-12T10:53:15.007Z</time></trkpt><trkpt lat="43.0257791" lon="13.4654065"><ele>312.0</ele><time>2026-04-12T10:53:16.008Z</time></trkpt><trkpt lat="43.0257952" lon="13.4652593"><ele>311.0</ele><time>2026-04-12T10:53:17.01Z</time></trkpt><trkpt lat="43.0258136" lon="13.4651094"><ele>310.0</ele><time>2026-04-12T10:53:17.999Z</time></trkpt><trkpt lat="43.0258234" lon="13.4649643"><ele>309.0</ele><time>2026-04-12T10:53:19.003Z</time></trkpt><trkpt lat="43.0258336" lon="13.4648193"><ele>308.0</ele><time>2026-04-12T10:53:20.01Z</time></trkpt><trkpt lat="43.025849" lon="13.4646789"><ele>302.5</ele><time>2026-04-12T10:53:21.006Z</time></trkpt><trkpt lat="43.025857" lon="13.4645456"><ele>297.0</ele><time>2026-04-12T10:53:22.007Z</time></trkpt><trkpt lat="43.0258697" lon="13.4644258"><ele>291.5</ele><time>2026-04-12T10:53:23.004Z</time></trkpt><trkpt lat="43.025874" lon="13.4643245"><ele>286.0</ele><time>2026-04-12T10:53:24.014Z</time></trkpt><trkpt lat="43.0258863" lon="13.4642389"><ele>280.5</ele><time>2026-04-12T10:53:24.999Z</time></trkpt><trkpt lat="43.0259142" lon="13.4640984"><ele>275.0</ele><time>2026-04-12T10:53:27.009Z</time></trkpt><trkpt lat="43.025986" lon="13.4640633"><ele>275.0</ele><time>2026-04-12T10:53:30.045Z</time></trkpt><trkpt lat="43.0260276" lon="13.4641309"><ele>275.0</ele><time>2026-04-12T10:53:31.061Z</time></trkpt><trkpt lat="43.0260554" lon="13.4642395"><ele>275.0</ele><time>2026-04-12T10:53:32.047Z</time></trkpt><trkpt lat="43.0260846" lon="13.4643875"><ele>275.0</ele><time>2026-04-12T10:53:33.061Z</time></trkpt><trkpt lat="43.0261162" lon="13.4645405"><ele>275.0</ele><time>2026-04-12T10:53:34.044Z</time></trkpt><trkpt lat="43.0261612" lon="13.4646881"><ele>277.0</ele><time>2026-04-12T10:53:35.067Z</time></trkpt><trkpt lat="43.0262202" lon="13.4648203"><ele>279.0</ele><time>2026-04-12T10:53:36.057Z</time></trkpt><trkpt lat="43.0263115" lon="13.464921"><ele>281.0</ele><time>2026-04-12T10:53:37.042Z</time></trkpt><trkpt lat="43.0264315" lon="13.4649963"><ele>283.0</ele><time>2026-04-12T10:53:38.04Z</time></trkpt><trkpt lat="43.0265669" lon="13.4650563"><ele>278.5</ele><time>2026-04-12T10:53:39.043Z</time></trkpt><trkpt lat="43.0267001" lon="13.4651256"><ele>274.0</ele><time>2026-04-12T10:53:40.05Z</time></trkpt><trkpt lat="43.0268405" lon="13.4651899"><ele>269.5</ele><time>2026-04-12T10:53:41.061Z</time></trkpt><trkpt lat="43.0269921" lon="13.4652287"><ele>265.0</ele><time>2026-04-12T10:53:42.024Z</time></trkpt><trkpt lat="43.0271394" lon="13.4652658"><ele>265.0</ele><time>2026-04-12T10:53:43.06Z</time></trkpt><trkpt lat="43.0272942" lon="13.4653021"><ele>265.0</ele><time>2026-04-12T10:53:44.044Z</time></trkpt><trkpt lat="43.0274494" lon="13.465338"><ele>265.0</ele><time>2026-04-12T10:53:45.041Z</time></trkpt><trkpt lat="43.0276059" lon="13.465377"><ele>264.75</ele><time>2026-04-12T10:53:46.016Z</time></trkpt><trkpt lat="43.0277571" lon="13.465408"><ele>264.5</ele><time>2026-04-12T10:53:47.043Z</time></trkpt><trkpt lat="43.0279054" lon="13.4654182"><ele>264.25</ele><time>2026-04-12T10:53:48.052Z</time></trkpt><trkpt lat="43.0280474" lon="13.465395"><ele>264.0</ele><time>2026-04-12T10:53:49.031Z</time></trkpt><trkpt lat="43.0281954" lon="13.4653352"><ele>264.6666666666667</ele><time>2026-04-12T10:53:50.044Z</time></trkpt><trkpt lat="43.0283618" lon="13.4652487"><ele>265.33333333333337</ele><time>2026-04-12T10:53:51.047Z</time></trkpt><trkpt lat="43.02852" lon="13.4651262"><ele>266.0</ele><time>2026-04-12T10:53:52.042Z</time></trkpt><trkpt lat="43.0286745" lon="13.4649949"><ele>266.0</ele><time>2026-04-12T10:53:53.047Z</time></trkpt><trkpt lat="43.0288174" lon="13.4648649"><ele>266.0</ele><time>2026-04-12T10:53:54.05Z</time></trkpt><trkpt lat="43.0289479" lon="13.4647483"><ele>266.0</ele><time>2026-04-12T10:53:55.018Z</time></trkpt><trkpt lat="43.0290798" lon="13.4646525"><ele>267.75</ele><time>2026-04-12T10:53:56.051Z</time></trkpt><trkpt lat="43.0292059" lon="13.4645909"><ele>269.5</ele><time>2026-04-12T10:53:57.052Z</time></trkpt><trkpt lat="43.0293465" lon="13.4645795"><ele>271.25</ele><time>2026-04-12T10:53:58.058Z</time></trkpt><trkpt lat="43.0294939" lon="13.4646178"><ele>273.0</ele><time>2026-04-12T10:53:59.047Z</time></trkpt><trkpt lat="43.0296305" lon="13.464677"><ele>273.0</ele><time>2026-04-12T10:53:59.992Z</time></trkpt><trkpt lat="43.0297546" lon="13.4647855"><ele>273.0</ele><time>2026-04-12T10:54:01.023Z</time></trkpt><trkpt lat="43.0298747" lon="13.464915"><ele>273.0</ele><time>2026-04-12T10:54:02.03Z</time></trkpt><trkpt lat="43.0299856" lon="13.4650669"><ele>271.3333333333333</ele><time>2026-04-12T10:54:03.066Z</time></trkpt><trkpt lat="43.0300966" lon="13.465217"><ele>269.66666666666663</ele><time>2026-04-12T10:54:04.04Z</time></trkpt><trkpt lat="43.0302216" lon="13.4653722"><ele>268.0</ele><time>2026-04-12T10:54:04.989Z</time></trkpt><trkpt lat="43.0303473" lon="13.4655215"><ele>273.66666666666663</ele><time>2026-04-12T10:54:06.034Z</time></trkpt><trkpt lat="43.0304644" lon="13.4656739"><ele>279.3333333333333</ele><time>2026-04-12T10:54:07.029Z</time></trkpt><trkpt lat="43.0305923" lon="13.465802"><ele>285.0</ele><time>2026-04-12T10:54:07.989Z</time></trkpt><trkpt lat="43.0307258" lon="13.4658964"><ele>279.3333333333333</ele><time>2026-04-12T10:54:09.036Z</time></trkpt><trkpt lat="43.0308761" lon="13.4659508"><ele>273.66666666666663</ele><time>2026-04-12T10:54:10.031Z</time></trkpt><trkpt lat="43.0310349" lon="13.4659983"><ele>268.0</ele><time>2026-04-12T10:54:11.029Z</time></trkpt><trkpt lat="43.0312031" lon="13.4660237"><ele>268.0</ele><time>2026-04-12T10:54:12.029Z</time></trkpt><trkpt lat="43.0313732" lon="13.4660534"><ele>268.0</ele><time>2026-04-12T10:54:13.015Z</time></trkpt><trkpt lat="43.031538" lon="13.4660901"><ele>268.0</ele><time>2026-04-12T10:54:14.024Z</time></trkpt><trkpt lat="43.0316818" lon="13.4661547"><ele>265.3333333333333</ele><time>2026-04-12T10:54:15Z</time></trkpt><trkpt lat="43.0318342" lon="13.4662537"><ele>262.6666666666667</ele><time>2026-04-12T10:54:16.016Z</time></trkpt><trkpt lat="43.0319796" lon="13.4663487"><ele>260.0</ele><time>2026-04-12T10:54:17.013Z</time></trkpt><trkpt lat="43.0321296" lon="13.4664329"><ele>264.0</ele><time>2026-04-12T10:54:18.044Z</time></trkpt><trkpt lat="43.0322888" lon="13.4665019"><ele>268.0</ele><time>2026-04-12T10:54:19.023Z</time></trkpt><trkpt lat="43.0324455" lon="13.4665659"><ele>272.0</ele><time>2026-04-12T10:54:20.018Z</time></trkpt><trkpt lat="43.0326147" lon="13.4666133"><ele>272.0</ele><time>2026-04-12T10:54:21.001Z</time></trkpt><trkpt lat="43.0327757" lon="13.4666383"><ele>272.0</ele><time>2026-04-12T10:54:22.045Z</time></trkpt><trkpt lat="43.0329444" lon="13.4666287"><ele>272.0</ele><time>2026-04-12T10:54:23.045Z</time></trkpt><trkpt lat="43.0331057" lon="13.4666129"><ele>272.0</ele><time>2026-04-12T10:54:24.057Z</time></trkpt><trkpt lat="43.0332632" lon="13.4665786"><ele>272.0</ele><time>2026-04-12T10:54:25.021Z</time></trkpt><trkpt lat="43.0334127" lon="13.4665334"><ele>272.0</ele><time>2026-04-12T10:54:26.047Z</time></trkpt><trkpt lat="43.0335614" lon="13.4664921"><ele>271.0</ele><time>2026-04-12T10:54:27.029Z</time></trkpt><trkpt lat="43.0337188" lon="13.4664875"><ele>270.0</ele><time>2026-04-12T10:54:28.035Z</time></trkpt><trkpt lat="43.033877" lon="13.4664969"><ele>269.0</ele><time>2026-04-12T10:54:29.051Z</time></trkpt><trkpt lat="43.0340383" lon="13.4665172"><ele>269.33333333333337</ele><time>2026-04-12T10:54:30.033Z</time></trkpt><trkpt lat="43.0341964" lon="13.4665495"><ele>269.6666666666667</ele><time>2026-04-12T10:54:31.041Z</time></trkpt><trkpt lat="43.0343539" lon="13.4665834"><ele>270.0</ele><time>2026-04-12T10:54:32.039Z</time></trkpt><trkpt lat="43.0345057" lon="13.4666198"><ele>270.0</ele><time>2026-04-12T10:54:33.037Z</time></trkpt><trkpt lat="43.0346572" lon="13.4666544"><ele>270.0</ele><time>2026-04-12T10:54:34.047Z</time></trkpt><trkpt lat="43.0348127" lon="13.4666745"><ele>270.0</ele><time>2026-04-12T10:54:35.05Z</time></trkpt><trkpt lat="43.0349711" lon="13.4666985"><ele>269.0</ele><time>2026-04-12T10:54:36.054Z</time></trkpt><trkpt lat="43.0351299" lon="13.4667346"><ele>268.0</ele><time>2026-04-12T10:54:37.08Z</time></trkpt><trkpt lat="43.0352892" lon="13.4667727"><ele>267.0</ele><time>2026-04-12T10:54:38.071Z</time></trkpt><trkpt lat="43.035447" lon="13.4668038"><ele>267.0</ele><time>2026-04-12T10:54:39.057Z</time></trkpt><trkpt lat="43.0356085" lon="13.466826"><ele>267.0</ele><time>2026-04-12T10:54:39.987Z</time></trkpt><trkpt lat="43.0357663" lon="13.4668375"><ele>267.0</ele><time>2026-04-12T10:54:41.041Z</time></trkpt><trkpt lat="43.0359295" lon="13.4668408"><ele>265.3333333333333</ele><time>2026-04-12T10:54:42.072Z</time></trkpt><trkpt lat="43.0360939" lon="13.4668053"><ele>263.66666666666663</ele><time>2026-04-12T10:54:43.082Z</time></trkpt><trkpt lat="43.0362581" lon="13.4667618"><ele>262.0</ele><time>2026-04-12T10:54:44.063Z</time></trkpt><trkpt lat="43.0364259" lon="13.466717"><ele>262.0</ele><time>2026-04-12T10:54:45.045Z</time></trkpt><trkpt lat="43.0365943" lon="13.4666694"><ele>262.0</ele><time>2026-04-12T10:54:46.041Z</time></trkpt><trkpt lat="43.0367526" lon="13.4666289"><ele>262.0</ele><time>2026-04-12T10:54:47.058Z</time></trkpt><trkpt lat="43.0369222" lon="13.4665886"><ele>262.66666666666663</ele><time>2026-04-12T10:54:48.061Z</time></trkpt><trkpt lat="43.0370909" lon="13.4665548"><ele>263.3333333333333</ele><time>2026-04-12T10:54:49.045Z</time></trkpt><trkpt lat="43.0372547" lon="13.4665397"><ele>264.0</ele><time>2026-04-12T10:54:50.048Z</time></trkpt><trkpt lat="43.0374158" lon="13.4665632"><ele>264.6666666666667</ele><time>2026-04-12T10:54:50.992Z</time></trkpt><trkpt lat="43.0375792" lon="13.4666137"><ele>265.33333333333337</ele><time>2026-04-12T10:54:52.033Z</time></trkpt><trkpt lat="43.0377424" lon="13.4666722"><ele>266.0</ele><time>2026-04-12T10:54:53.046Z</time></trkpt><trkpt lat="43.0379055" lon="13.4667473"><ele>266.0</ele><time>2026-04-12T10:54:54.042Z</time></trkpt><trkpt lat="43.0380767" lon="13.4668149"><ele>266.0</ele><time>2026-04-12T10:54:55.02Z</time></trkpt><trkpt lat="43.0382439" lon="13.4668788"><ele>266.0</ele><time>2026-04-12T10:54:56.051Z</time></trkpt><trkpt lat="43.0384134" lon="13.4669466"><ele>267.6666666666667</ele><time>2026-04-12T10:54:57.055Z</time></trkpt><trkpt lat="43.0385847" lon="13.4670105"><ele>269.3333333333333</ele><time>2026-04-12T10:54:58.027Z</time></trkpt><trkpt lat="43.0387545" lon="13.4670798"><ele>271.0</ele><time>2026-04-12T10:54:59.051Z</time></trkpt><trkpt lat="43.0389206" lon="13.4671523"><ele>271.0</ele><time>2026-04-12T10:55:00.052Z</time></trkpt><trkpt lat="43.0390849" lon="13.4672229"><ele>271.0</ele><time>2026-04-12T10:55:01.031Z</time></trkpt><trkpt lat="43.0392497" lon="13.4672791"><ele>271.0</ele><time>2026-04-12T10:55:02.039Z</time></trkpt><trkpt lat="43.039416" lon="13.4673425"><ele>267.0</ele><time>2026-04-12T10:55:03.029Z</time></trkpt><trkpt lat="43.039581" lon="13.4674114"><ele>263.0</ele><time>2026-04-12T10:55:04.038Z</time></trkpt><trkpt lat="43.0397536" lon="13.4674771"><ele>259.0</ele><time>2026-04-12T10:55:05.019Z</time></trkpt><trkpt lat="43.0399228" lon="13.4675379"><ele>257.66666666666663</ele><time>2026-04-12T10:55:06.055Z</time></trkpt><trkpt lat="43.0400974" lon="13.4675997"><ele>256.3333333333333</ele><time>2026-04-12T10:55:07.047Z</time></trkpt><trkpt lat="43.0402699" lon="13.4676668"><ele>255.0</ele><time>2026-04-12T10:55:08.048Z</time></trkpt><trkpt lat="43.0404367" lon="13.4677282"><ele>255.0</ele><time>2026-04-12T10:55:09.031Z</time></trkpt><trkpt lat="43.0405994" lon="13.4677889"><ele>255.0</ele><time>2026-04-12T10:55:10.047Z</time></trkpt><trkpt lat="43.040749" lon="13.4678621"><ele>255.0</ele><time>2026-04-12T10:55:11.048Z</time></trkpt><trkpt lat="43.0408821" lon="13.4679684"><ele>255.33333333333331</ele><time>2026-04-12T10:55:12.024Z</time></trkpt><trkpt lat="43.041003" lon="13.4681263"><ele>255.66666666666666</ele><time>2026-04-12T10:55:13.053Z</time></trkpt><trkpt lat="43.041115" lon="13.4682885"><ele>256.0</ele><time>2026-04-12T10:55:14.042Z</time></trkpt><trkpt lat="43.0412278" lon="13.4684669"><ele>256.0</ele><time>2026-04-12T10:55:15.037Z</time></trkpt><trkpt lat="43.041346" lon="13.4686508"><ele>256.0</ele><time>2026-04-12T10:55:16.03Z</time></trkpt><trkpt lat="43.0414703" lon="13.4688361"><ele>256.0</ele><time>2026-04-12T10:55:17.035Z</time></trkpt><trkpt lat="43.0415948" lon="13.4690263"><ele>254.0</ele><time>2026-04-12T10:55:18.058Z</time></trkpt><trkpt lat="43.0417189" lon="13.469224"><ele>252.0</ele><time>2026-04-12T10:55:19.05Z</time></trkpt><trkpt lat="43.0418428" lon="13.4694137"><ele>250.0</ele><time>2026-04-12T10:55:20.036Z</time></trkpt><trkpt lat="43.041959" lon="13.4696013"><ele>251.33333333333331</ele><time>2026-04-12T10:55:21.044Z</time></trkpt><trkpt lat="43.0420793" lon="13.4697911"><ele>252.66666666666669</ele><time>2026-04-12T10:55:22.04Z</time></trkpt><trkpt lat="43.0421931" lon="13.4699696"><ele>254.0</ele><time>2026-04-12T10:55:23.059Z</time></trkpt><trkpt lat="43.0423097" lon="13.4701507"><ele>254.0</ele><time>2026-04-12T10:55:24.045Z</time></trkpt><trkpt lat="43.0424326" lon="13.4703257"><ele>254.0</ele><time>2026-04-12T10:55:25.045Z</time></trkpt><trkpt lat="43.0425541" lon="13.4704995"><ele>254.0</ele><time>2026-04-12T10:55:25.982Z</time></trkpt><trkpt lat="43.0426749" lon="13.470677"><ele>252.66666666666669</ele><time>2026-04-12T10:55:27.053Z</time></trkpt><trkpt lat="43.0428015" lon="13.4708412"><ele>251.33333333333331</ele><time>2026-04-12T10:55:28.067Z</time></trkpt><trkpt lat="43.0429261" lon="13.47098"><ele>250.0</ele><time>2026-04-12T10:55:29.058Z</time></trkpt><trkpt lat="43.043064" lon="13.4710947"><ele>250.0</ele><time>2026-04-12T10:55:30.075Z</time></trkpt><trkpt lat="43.0432293" lon="13.4711691"><ele>250.0</ele><time>2026-04-12T10:55:31.03Z</time></trkpt><trkpt lat="43.0434012" lon="13.4712248"><ele>250.0</ele><time>2026-04-12T10:55:32.025Z</time></trkpt><trkpt lat="43.0435716" lon="13.4712541"><ele>250.66666666666666</ele><time>2026-04-12T10:55:33.048Z</time></trkpt><trkpt lat="43.0437498" lon="13.4712825"><ele>251.33333333333331</ele><time>2026-04-12T10:55:34.054Z</time></trkpt><trkpt lat="43.0439168" lon="13.4713211"><ele>252.0</ele><time>2026-04-12T10:55:35.065Z</time></trkpt><trkpt lat="43.0440581" lon="13.4713486"><ele>251.0</ele><time>2026-04-12T10:55:36.043Z</time></trkpt><trkpt lat="43.0441763" lon="13.4713687"><ele>250.0</ele><time>2026-04-12T10:55:37.016Z</time></trkpt><trkpt lat="43.0442873" lon="13.4713935"><ele>249.0</ele><time>2026-04-12T10:55:38.033Z</time></trkpt><trkpt lat="43.0443813" lon="13.4714022"><ele>248.0</ele><time>2026-04-12T10:55:39.057Z</time></trkpt><trkpt lat="43.0444492" lon="13.4714133"><ele>247.0</ele><time>2026-04-12T10:55:39.977Z</time></trkpt><trkpt lat="43.0445379" lon="13.4714643"><ele>247.0</ele><time>2026-04-12T10:55:42.004Z</time></trkpt><trkpt lat="43.0445471" lon="13.4715932"><ele>247.0</ele><time>2026-04-12T10:55:44.011Z</time></trkpt><trkpt lat="43.0444517" lon="13.4717025"><ele>247.0</ele><time>2026-04-12T10:55:46.05Z</time></trkpt><trkpt lat="43.0443812" lon="13.4717736"><ele>247.0</ele><time>2026-04-12T10:55:47.037Z</time></trkpt><trkpt lat="43.0442989" lon="13.4718624"><ele>247.0</ele><time>2026-04-12T10:55:48.055Z</time></trkpt><trkpt lat="43.0442175" lon="13.4719626"><ele>247.0</ele><time>2026-04-12T10:55:49.048Z</time></trkpt><trkpt lat="43.0441408" lon="13.4720748"><ele>247.0</ele><time>2026-04-12T10:55:50.054Z</time></trkpt><trkpt lat="43.0440692" lon="13.4721901"><ele>247.0</ele><time>2026-04-12T10:55:51.05Z</time></trkpt><trkpt lat="43.0440061" lon="13.4722906"><ele>247.0</ele><time>2026-04-12T10:55:52.075Z</time></trkpt><trkpt lat="43.0439824" lon="13.4724082"><ele>247.0</ele><time>2026-04-12T10:55:53.042Z</time></trkpt><trkpt lat="43.0439821" lon="13.4725472"><ele>248.0</ele><time>2026-04-12T10:55:54.04Z</time></trkpt><trkpt lat="43.0440096" lon="13.4726661"><ele>249.0</ele><time>2026-04-12T10:55:55.049Z</time></trkpt><trkpt lat="43.044068" lon="13.4727944"><ele>250.0</ele><time>2026-04-12T10:55:56.035Z</time></trkpt><trkpt lat="43.0441436" lon="13.4728911"><ele>251.0</ele><time>2026-04-12T10:55:57.037Z</time></trkpt><trkpt lat="43.044242" lon="13.4729639"><ele>252.0</ele><time>2026-04-12T10:55:58.055Z</time></trkpt><trkpt lat="43.0443476" lon="13.4730292"><ele>253.6</ele><time>2026-04-12T10:55:59.041Z</time></trkpt><trkpt lat="43.0444497" lon="13.4730698"><ele>255.2</ele><time>2026-04-12T10:56:00.067Z</time></trkpt><trkpt lat="43.0445474" lon="13.4730981"><ele>256.8</ele><time>2026-04-12T10:56:01.045Z</time></trkpt><trkpt lat="43.0446513" lon="13.473106"><ele>258.4</ele><time>2026-04-12T10:56:01.99Z</time></trkpt><trkpt lat="43.0447498" lon="13.4731176"><ele>260.0</ele><time>2026-04-12T10:56:03.048Z</time></trkpt><trkpt lat="43.0448412" lon="13.4731422"><ele>260.0</ele><time>2026-04-12T10:56:04.035Z</time></trkpt><trkpt lat="43.0449254" lon="13.4731722"><ele>260.0</ele><time>2026-04-12T10:56:05.029Z</time></trkpt><trkpt lat="43.0449939" lon="13.4732152"><ele>260.0</ele><time>2026-04-12T10:56:06.019Z</time></trkpt><trkpt lat="43.045056" lon="13.4732992"><ele>260.0</ele><time>2026-04-12T10:56:07.024Z</time></trkpt><trkpt lat="43.0450939" lon="13.4734099"><ele>260.0</ele><time>2026-04-12T10:56:08.035Z</time></trkpt><trkpt lat="43.0451219" lon="13.473548"><ele>260.0</ele><time>2026-04-12T10:56:09.02Z</time></trkpt><trkpt lat="43.0451507" lon="13.4737005"><ele>261.25</ele><time>2026-04-12T10:56:10.042Z</time></trkpt><trkpt lat="43.0451773" lon="13.4738711"><ele>262.5</ele><time>2026-04-12T10:56:11.044Z</time></trkpt><trkpt lat="43.0452275" lon="13.4740316"><ele>263.75</ele><time>2026-04-12T10:56:12.006Z</time></trkpt><trkpt lat="43.0452993" lon="13.4741582"><ele>265.0</ele><time>2026-04-12T10:56:13.071Z</time></trkpt><trkpt lat="43.0453895" lon="13.4742652"><ele>265.0</ele><time>2026-04-12T10:56:14.023Z</time></trkpt><trkpt lat="43.04548" lon="13.4743383"><ele>265.0</ele><time>2026-04-12T10:56:15.044Z</time></trkpt><trkpt lat="43.0455905" lon="13.4743954"><ele>265.0</ele><time>2026-04-12T10:56:16.044Z</time></trkpt><trkpt lat="43.0457133" lon="13.4744426"><ele>265.0</ele><time>2026-04-12T10:56:17.047Z</time></trkpt><trkpt lat="43.0458251" lon="13.474513"><ele>265.75</ele><time>2026-04-12T10:56:18.064Z</time></trkpt><trkpt lat="43.0459434" lon="13.4745804"><ele>266.5</ele><time>2026-04-12T10:56:19.048Z</time></trkpt><trkpt lat="43.0460534" lon="13.4746693"><ele>267.25</ele><time>2026-04-12T10:56:20.035Z</time></trkpt><trkpt lat="43.0461571" lon="13.4747698"><ele>268.0</ele><time>2026-04-12T10:56:21.05Z</time></trkpt><trkpt lat="43.0462642" lon="13.4748668"><ele>269.5</ele><time>2026-04-12T10:56:22.061Z</time></trkpt><trkpt lat="43.046373" lon="13.4749749"><ele>271.0</ele><time>2026-04-12T10:56:23.054Z</time></trkpt><trkpt lat="43.0464926" lon="13.4750761"><ele>272.5</ele><time>2026-04-12T10:56:24.068Z</time></trkpt><trkpt lat="43.0466217" lon="13.4751636"><ele>274.0</ele><time>2026-04-12T10:56:25.028Z</time></trkpt><trkpt lat="43.0467561" lon="13.4752478"><ele>274.0</ele><time>2026-04-12T10:56:26.039Z</time></trkpt><trkpt lat="43.0468841" lon="13.4753318"><ele>274.0</ele><time>2026-04-12T10:56:27.041Z</time></trkpt><trkpt lat="43.0470201" lon="13.4754103"><ele>274.0</ele><time>2026-04-12T10:56:28.015Z</time></trkpt><trkpt lat="43.0471653" lon="13.4754994"><ele>274.0</ele><time>2026-04-12T10:56:29.004Z</time></trkpt><trkpt lat="43.0473077" lon="13.4755856"><ele>274.3333333333333</ele><time>2026-04-12T10:56:30.032Z</time></trkpt><trkpt lat="43.0474594" lon="13.4756832"><ele>274.6666666666667</ele><time>2026-04-12T10:56:31.048Z</time></trkpt><trkpt lat="43.047605" lon="13.4757716"><ele>275.0</ele><time>2026-04-12T10:56:32.052Z</time></trkpt><trkpt lat="43.0477517" lon="13.4758553"><ele>275.0</ele><time>2026-04-12T10:56:33.068Z</time></trkpt><trkpt lat="43.0478993" lon="13.475948"><ele>275.0</ele><time>2026-04-12T10:56:34.063Z</time></trkpt><trkpt lat="43.0480405" lon="13.4760374"><ele>275.0</ele><time>2026-04-12T10:56:35.029Z</time></trkpt><trkpt lat="43.0481759" lon="13.476115"><ele>275.25</ele><time>2026-04-12T10:56:36.045Z</time></trkpt><trkpt lat="43.0482987" lon="13.4762035"><ele>275.5</ele><time>2026-04-12T10:56:37.044Z</time></trkpt><trkpt lat="43.0484124" lon="13.4762727"><ele>275.75</ele><time>2026-04-12T10:56:38.046Z</time></trkpt><trkpt lat="43.0485032" lon="13.4763301"><ele>276.0</ele><time>2026-04-12T10:56:39.052Z</time></trkpt><trkpt lat="43.0485937" lon="13.4763834"><ele>276.0</ele><time>2026-04-12T10:56:40.053Z</time></trkpt><trkpt lat="43.0486823" lon="13.4764434"><ele>276.0</ele><time>2026-04-12T10:56:41.063Z</time></trkpt><trkpt lat="43.0487763" lon="13.4764992"><ele>276.0</ele><time>2026-04-12T10:56:42.048Z</time></trkpt><trkpt lat="43.0488677" lon="13.4765559"><ele>276.0</ele><time>2026-04-12T10:56:43.049Z</time></trkpt><trkpt lat="43.0489569" lon="13.4766113"><ele>276.0</ele><time>2026-04-12T10:56:44.037Z</time></trkpt><trkpt lat="43.0490398" lon="13.4766683"><ele>276.0</ele><time>2026-04-12T10:56:45.037Z</time></trkpt><trkpt lat="43.0491242" lon="13.4767201"><ele>276.0</ele><time>2026-04-12T10:56:46.045Z</time></trkpt><trkpt lat="43.049206" lon="13.4767693"><ele>276.0</ele><time>2026-04-12T10:56:47.02Z</time></trkpt><trkpt lat="43.0492785" lon="13.4768183"><ele>276.0</ele><time>2026-04-12T10:56:48.042Z</time></trkpt><trkpt lat="43.0493603" lon="13.4768686"><ele>276.0</ele><time>2026-04-12T10:56:49.054Z</time></trkpt><trkpt lat="43.0494426" lon="13.4769226"><ele>276.0</ele><time>2026-04-12T10:56:50.055Z</time></trkpt><trkpt lat="43.0495331" lon="13.4769692"><ele>276.40000000000003</ele><time>2026-04-12T10:56:51.039Z</time></trkpt><trkpt lat="43.0496191" lon="13.4770194"><ele>276.8</ele><time>2026-04-12T10:56:52.049Z</time></trkpt><trkpt lat="43.0497147" lon="13.4770612"><ele>277.20000000000005</ele><time>2026-04-12T10:56:52.979Z</time></trkpt><trkpt lat="43.0498081" lon="13.4771257"><ele>277.6</ele><time>2026-04-12T10:56:54.049Z</time></trkpt><trkpt lat="43.04992" lon="13.4772"><ele>278.0</ele><time>2026-04-12T10:56:55.061Z</time></trkpt><trkpt lat="43.0500408" lon="13.477262"><ele>278.2</ele><time>2026-04-12T10:56:56.044Z</time></trkpt><trkpt lat="43.0501539" lon="13.4773286"><ele>278.4</ele><time>2026-04-12T10:56:57.056Z</time></trkpt><trkpt lat="43.0502601" lon="13.4773822"><ele>278.59999999999997</ele><time>2026-04-12T10:56:58.049Z</time></trkpt><trkpt lat="43.0503531" lon="13.4774155"><ele>278.8</ele><time>2026-04-12T10:56:59.045Z</time></trkpt><trkpt lat="43.0504333" lon="13.4774603"><ele>279.0</ele><time>2026-04-12T10:57:00.044Z</time></trkpt><trkpt lat="43.0504957" lon="13.4775197"><ele>279.0</ele><time>2026-04-12T10:57:01.034Z</time></trkpt><trkpt lat="43.0505598" lon="13.477592"><ele>279.0</ele><time>2026-04-12T10:57:02.021Z</time></trkpt><trkpt lat="43.0506251" lon="13.4776581"><ele>279.0</ele><time>2026-04-12T10:57:03.054Z</time></trkpt><trkpt lat="43.0506901" lon="13.4777007"><ele>279.0</ele><time>2026-04-12T10:57:04.036Z</time></trkpt><trkpt lat="43.0507533" lon="13.4777564"><ele>279.0</ele><time>2026-04-12T10:57:05.006Z</time></trkpt><trkpt lat="43.0508157" lon="13.4778162"><ele>279.0</ele><time>2026-04-12T10:57:06.05Z</time></trkpt><trkpt lat="43.0508951" lon="13.4778892"><ele>280.0</ele><time>2026-04-12T10:57:07.056Z</time></trkpt><trkpt lat="43.0509771" lon="13.4779654"><ele>281.0</ele><time>2026-04-12T10:57:08.054Z</time></trkpt><trkpt lat="43.0510735" lon="13.4780439"><ele>282.0</ele><time>2026-04-12T10:57:09.039Z</time></trkpt><trkpt lat="43.0511616" lon="13.4781595"><ele>283.0</ele><time>2026-04-12T10:57:10.012Z</time></trkpt><trkpt lat="43.0512412" lon="13.478313"><ele>283.0</ele><time>2026-04-12T10:57:11.043Z</time></trkpt><trkpt lat="43.0513117" lon="13.4784511"><ele>283.0</ele><time>2026-04-12T10:57:12.013Z</time></trkpt><trkpt lat="43.0513589" lon="13.4785921"><ele>283.0</ele><time>2026-04-12T10:57:13.057Z</time></trkpt><trkpt lat="43.0513845" lon="13.4787538"><ele>283.0</ele><time>2026-04-12T10:57:14.051Z</time></trkpt><trkpt lat="43.0514005" lon="13.4789242"><ele>284.66666666666663</ele><time>2026-04-12T10:57:15.019Z</time></trkpt><trkpt lat="43.051401" lon="13.4791286"><ele>286.3333333333333</ele><time>2026-04-12T10:57:16.045Z</time></trkpt><trkpt lat="43.0514025" lon="13.4793455"><ele>288.0</ele><time>2026-04-12T10:57:17.054Z</time></trkpt><trkpt lat="43.0514124" lon="13.479576"><ele>292.3333333333333</ele><time>2026-04-12T10:57:18.045Z</time></trkpt><trkpt lat="43.0514459" lon="13.4798214"><ele>296.66666666666663</ele><time>2026-04-12T10:57:19.053Z</time></trkpt><trkpt lat="43.0514829" lon="13.480068"><ele>301.0</ele><time>2026-04-12T10:57:20.061Z</time></trkpt><trkpt lat="43.0515408" lon="13.480314"><ele>298.66666666666663</ele><time>2026-04-12T10:57:21.037Z</time></trkpt><trkpt lat="43.0515966" lon="13.4805596"><ele>296.3333333333333</ele><time>2026-04-12T10:57:22.042Z</time></trkpt><trkpt lat="43.0516509" lon="13.4808162"><ele>294.0</ele><time>2026-04-12T10:57:23.057Z</time></trkpt><trkpt lat="43.0517081" lon="13.4810652"><ele>299.0</ele><time>2026-04-12T10:57:24.039Z</time></trkpt><trkpt lat="43.05176" lon="13.4813047"><ele>304.0</ele><time>2026-04-12T10:57:25.036Z</time></trkpt><trkpt lat="43.0518154" lon="13.4815338"><ele>309.0</ele><time>2026-04-12T10:57:26.039Z</time></trkpt><trkpt lat="43.0518686" lon="13.4817696"><ele>309.0</ele><time>2026-04-12T10:57:27.056Z</time></trkpt><trkpt lat="43.05192" lon="13.4820104"><ele>309.0</ele><time>2026-04-12T10:57:28.04Z</time></trkpt><trkpt lat="43.0519696" lon="13.482256"><ele>309.0</ele><time>2026-04-12T10:57:29.056Z</time></trkpt><trkpt lat="43.0520261" lon="13.4824981"><ele>313.3333333333333</ele><time>2026-04-12T10:57:30.01Z</time></trkpt><trkpt lat="43.0520784" lon="13.4827399"><ele>317.66666666666663</ele><time>2026-04-12T10:57:31.029Z</time></trkpt><trkpt lat="43.0521381" lon="13.4829802"><ele>322.0</ele><time>2026-04-12T10:57:32.046Z</time></trkpt><trkpt lat="43.0521918" lon="13.483211"><ele>325.0</ele><time>2026-04-12T10:57:33.048Z</time></trkpt><trkpt lat="43.0522511" lon="13.4834261"><ele>328.0</ele><time>2026-04-12T10:57:34.038Z</time></trkpt><trkpt lat="43.0523071" lon="13.4836464"><ele>331.0</ele><time>2026-04-12T10:57:35.039Z</time></trkpt><trkpt lat="43.0523592" lon="13.4838695"><ele>331.66666666666663</ele><time>2026-04-12T10:57:36.057Z</time></trkpt><trkpt lat="43.0523992" lon="13.4840948"><ele>332.3333333333333</ele><time>2026-04-12T10:57:37.038Z</time></trkpt><trkpt lat="43.0524211" lon="13.4842952"><ele>333.0</ele><time>2026-04-12T10:57:38.044Z</time></trkpt><trkpt lat="43.0524465" lon="13.4844855"><ele>331.3333333333333</ele><time>2026-04-12T10:57:39.04Z</time></trkpt><trkpt lat="43.0524783" lon="13.4846896"><ele>329.66666666666663</ele><time>2026-04-12T10:57:40.044Z</time></trkpt><trkpt lat="43.0525194" lon="13.4849069"><ele>328.0</ele><time>2026-04-12T10:57:41.028Z</time></trkpt><trkpt lat="43.0525639" lon="13.4851179"><ele>328.0</ele><time>2026-04-12T10:57:42.04Z</time></trkpt><trkpt lat="43.0526178" lon="13.4853025"><ele>328.0</ele><time>2026-04-12T10:57:43.059Z</time></trkpt><trkpt lat="43.0526594" lon="13.4854638"><ele>328.0</ele><time>2026-04-12T10:57:44.051Z</time></trkpt><trkpt lat="43.0526909" lon="13.4855884"><ele>328.0</ele><time>2026-04-12T10:57:45.045Z</time></trkpt><trkpt lat="43.0527147" lon="13.485679"><ele>328.0</ele><time>2026-04-12T10:57:46.047Z</time></trkpt><trkpt lat="43.0527724" lon="13.4857628"><ele>329.0</ele><time>2026-04-12T10:57:48.055Z</time></trkpt><trkpt lat="43.0528664" lon="13.4857791"><ele>330.0</ele><time>2026-04-12T10:57:51.061Z</time></trkpt><trkpt lat="43.0530362" lon="13.4857161"><ele>331.0</ele><time>2026-04-12T10:57:53.021Z</time></trkpt><trkpt lat="43.0531896" lon="13.4856341"><ele>332.0</ele><time>2026-04-12T10:57:54.047Z</time></trkpt><trkpt lat="43.0533301" lon="13.4855402"><ele>329.75</ele><time>2026-04-12T10:57:55.045Z</time></trkpt><trkpt lat="43.0534678" lon="13.4854596"><ele>327.5</ele><time>2026-04-12T10:57:56.012Z</time></trkpt><trkpt lat="43.0535882" lon="13.4853724"><ele>325.25</ele><time>2026-04-12T10:57:57.028Z</time></trkpt><trkpt lat="43.053726" lon="13.4852903"><ele>323.0</ele><time>2026-04-12T10:57:58.048Z</time></trkpt><trkpt lat="43.0538356" lon="13.485219"><ele>322.2</ele><time>2026-04-12T10:57:59.039Z</time></trkpt><trkpt lat="43.053939" lon="13.4851559"><ele>321.4</ele><time>2026-04-12T10:58:00.034Z</time></trkpt><trkpt lat="43.0540355" lon="13.4850932"><ele>320.59999999999997</ele><time>2026-04-12T10:58:01.022Z</time></trkpt><trkpt lat="43.0541356" lon="13.4850481"><ele>319.79999999999995</ele><time>2026-04-12T10:58:02.014Z</time></trkpt><trkpt lat="43.0542436" lon="13.4850264"><ele>319.0</ele><time>2026-04-12T10:58:03.002Z</time></trkpt><trkpt lat="43.0543488" lon="13.4849942"><ele>319.0</ele><time>2026-04-12T10:58:03.996Z</time></trkpt><trkpt lat="43.0544454" lon="13.48497"><ele>319.0</ele><time>2026-04-12T10:58:05.028Z</time></trkpt><trkpt lat="43.0545191" lon="13.484919"><ele>319.0</ele><time>2026-04-12T10:58:06.036Z</time></trkpt><trkpt lat="43.0546024" lon="13.4848243"><ele>319.0</ele><time>2026-04-12T10:58:08.017Z</time></trkpt><trkpt lat="43.0545697" lon="13.4846808"><ele>319.0</ele><time>2026-04-12T10:58:09.036Z</time></trkpt><trkpt lat="43.0544967" lon="13.4844925"><ele>317.5</ele><time>2026-04-12T10:58:10.02Z</time></trkpt><trkpt lat="43.0544505" lon="13.4842807"><ele>316.0</ele><time>2026-04-12T10:58:11.039Z</time></trkpt><trkpt lat="43.0544268" lon="13.4840956"><ele>314.5</ele><time>2026-04-12T10:58:12.043Z</time></trkpt><trkpt lat="43.054422" lon="13.4839254"><ele>313.0</ele><time>2026-04-12T10:58:13.021Z</time></trkpt><trkpt lat="43.0544249" lon="13.4837611"><ele>313.0</ele><time>2026-04-12T10:58:14.063Z</time></trkpt><trkpt lat="43.0544332" lon="13.4835867"><ele>313.0</ele><time>2026-04-12T10:58:15.048Z</time></trkpt><trkpt lat="43.05445" lon="13.4834031"><ele>313.0</ele><time>2026-04-12T10:58:16.035Z</time></trkpt><trkpt lat="43.054464" lon="13.4832062"><ele>313.0</ele><time>2026-04-12T10:58:17.012Z</time></trkpt><trkpt lat="43.0544818" lon="13.4830139"><ele>313.75</ele><time>2026-04-12T10:58:18.004Z</time></trkpt><trkpt lat="43.0545024" lon="13.482815"><ele>314.5</ele><time>2026-04-12T10:58:19.029Z</time></trkpt><trkpt lat="43.0545391" lon="13.4826225"><ele>315.25</ele><time>2026-04-12T10:58:20.028Z</time></trkpt><trkpt lat="43.0545737" lon="13.482441"><ele>316.0</ele><time>2026-04-12T10:58:21.027Z</time></trkpt><trkpt lat="43.0546147" lon="13.482261"><ele>317.25</ele><time>2026-04-12T10:58:22.016Z</time></trkpt><trkpt lat="43.054653" lon="13.482083"><ele>318.5</ele><time>2026-04-12T10:58:23.005Z</time></trkpt><trkpt lat="43.0546953" lon="13.4819136"><ele>319.75</ele><time>2026-04-12T10:58:24.049Z</time></trkpt><trkpt lat="43.0547231" lon="13.4817422"><ele>321.0</ele><time>2026-04-12T10:58:25.034Z</time></trkpt><trkpt lat="43.0547439" lon="13.4815875"><ele>321.0</ele><time>2026-04-12T10:58:26.047Z</time></trkpt><trkpt lat="43.0547689" lon="13.4814549"><ele>321.0</ele><time>2026-04-12T10:58:27.044Z</time></trkpt><trkpt lat="43.0547977" lon="13.4813426"><ele>321.0</ele><time>2026-04-12T10:58:28.035Z</time></trkpt><trkpt lat="43.0548324" lon="13.481249"><ele>321.0</ele><time>2026-04-12T10:58:29.064Z</time></trkpt><trkpt lat="43.0548622" lon="13.4811589"><ele>321.0</ele><time>2026-04-12T10:58:30.056Z</time></trkpt><trkpt lat="43.0548846" lon="13.4810657"><ele>321.0</ele><time>2026-04-12T10:58:31.056Z</time></trkpt><trkpt lat="43.0548981" lon="13.4809662"><ele>321.0</ele><time>2026-04-12T10:58:32.045Z</time></trkpt><trkpt lat="43.0549161" lon="13.480873"><ele>321.0</ele><time>2026-04-12T10:58:33.025Z</time></trkpt><trkpt lat="43.0549284" lon="13.4807844"><ele>321.0</ele><time>2026-04-12T10:58:34.045Z</time></trkpt><trkpt lat="43.0549393" lon="13.4806808"><ele>321.0</ele><time>2026-04-12T10:58:35.052Z</time></trkpt><trkpt lat="43.0549506" lon="13.4805752"><ele>321.0</ele><time>2026-04-12T10:58:36.05Z</time></trkpt><trkpt lat="43.0549579" lon="13.4804624"><ele>321.0</ele><time>2026-04-12T10:58:37.045Z</time></trkpt><trkpt lat="43.0549738" lon="13.4803581"><ele>321.0</ele><time>2026-04-12T10:58:38.045Z</time></trkpt><trkpt lat="43.0549955" lon="13.4802621"><ele>321.0</ele><time>2026-04-12T10:58:39.047Z</time></trkpt><trkpt lat="43.055017" lon="13.4801797"><ele>321.0</ele><time>2026-04-12T10:58:40.053Z</time></trkpt><trkpt lat="43.055042" lon="13.4800833"><ele>321.0</ele><time>2026-04-12T10:58:41.042Z</time></trkpt><trkpt lat="43.0550668" lon="13.4799935"><ele>321.0</ele><time>2026-04-12T10:58:42.035Z</time></trkpt><trkpt lat="43.055084" lon="13.4798985"><ele>321.0</ele><time>2026-04-12T10:58:43.046Z</time></trkpt><trkpt lat="43.0550728" lon="13.4797294"><ele>321.0</ele><time>2026-04-12T10:58:45.064Z</time></trkpt><trkpt lat="43.0550516" lon="13.4796348"><ele>321.0</ele><time>2026-04-12T10:58:46.002Z</time></trkpt><trkpt lat="43.0550284" lon="13.479533"><ele>321.0</ele><time>2026-04-12T10:58:47.034Z</time></trkpt><trkpt lat="43.0550084" lon="13.4794205"><ele>321.0</ele><time>2026-04-12T10:58:48.061Z</time></trkpt><trkpt lat="43.0549861" lon="13.479308"><ele>321.0</ele><time>2026-04-12T10:58:49.034Z</time></trkpt><trkpt lat="43.0549537" lon="13.4791991"><ele>321.0</ele><time>2026-04-12T10:58:50.046Z</time></trkpt><trkpt lat="43.0549086" lon="13.4790811"><ele>318.0</ele><time>2026-04-12T10:58:51.036Z</time></trkpt><trkpt lat="43.0548564" lon="13.4789693"><ele>315.0</ele><time>2026-04-12T10:58:52.036Z</time></trkpt><trkpt lat="43.0548095" lon="13.4788617"><ele>312.0</ele><time>2026-04-12T10:58:53.063Z</time></trkpt><trkpt lat="43.0547607" lon="13.4787544"><ele>309.0</ele><time>2026-04-12T10:58:54.056Z</time></trkpt><trkpt lat="43.0547127" lon="13.4786453"><ele>306.0</ele><time>2026-04-12T10:58:55.064Z</time></trkpt><trkpt lat="43.0546743" lon="13.4785389"><ele>303.8333333333333</ele><time>2026-04-12T10:58:56.046Z</time></trkpt><trkpt lat="43.0546417" lon="13.4784372"><ele>301.6666666666667</ele><time>2026-04-12T10:58:57.041Z</time></trkpt><trkpt lat="43.0546081" lon="13.4783318"><ele>299.5</ele><time>2026-04-12T10:58:58.061Z</time></trkpt><trkpt lat="43.0545788" lon="13.4782319"><ele>297.33333333333337</ele><time>2026-04-12T10:58:59.053Z</time></trkpt><trkpt lat="43.0545493" lon="13.4781363"><ele>295.1666666666667</ele><time>2026-04-12T10:59:00.055Z</time></trkpt><trkpt lat="43.0545209" lon="13.4780409"><ele>293.0</ele><time>2026-04-12T10:59:01.047Z</time></trkpt><trkpt lat="43.0544886" lon="13.4779457"><ele>291.6666666666667</ele><time>2026-04-12T10:59:02.047Z</time></trkpt><trkpt lat="43.0544566" lon="13.4778649"><ele>290.33333333333337</ele><time>2026-04-12T10:59:03.052Z</time></trkpt><trkpt lat="43.054411" lon="13.477711"><ele>289.0</ele><time>2026-04-12T10:59:05.053Z</time></trkpt><trkpt lat="43.0543695" lon="13.4775966"><ele>287.6666666666667</ele><time>2026-04-12T10:59:07.021Z</time></trkpt><trkpt lat="43.0543391" lon="13.4775137"><ele>286.3333333333333</ele><time>2026-04-12T10:59:09.008Z</time></trkpt><trkpt lat="43.0543164" lon="13.4774121"><ele>285.0</ele><time>2026-04-12T10:59:12.037Z</time></trkpt><trkpt lat="43.0543418" lon="13.4773027"><ele>285.0</ele><time>2026-04-12T10:59:19.01Z</time></trkpt><trkpt lat="43.0543677" lon="13.4771974"><ele>285.0</ele><time>2026-04-12T10:59:22.053Z</time></trkpt><trkpt lat="43.0543972" lon="13.4770994"><ele>285.0</ele><time>2026-04-12T10:59:25.036Z</time></trkpt><trkpt lat="43.0544339" lon="13.4769747"><ele>285.0</ele><time>2026-04-12T10:59:27.028Z</time></trkpt><trkpt lat="43.0544352" lon="13.476809"><ele>285.0</ele><time>2026-04-12T10:59:29.007Z</time></trkpt><trkpt lat="43.0544323" lon="13.4766583"><ele>283.4</ele><time>2026-04-12T10:59:31.009Z</time></trkpt><trkpt lat="43.0544318" lon="13.4765023"><ele>281.8</ele><time>2026-04-12T10:59:33.043Z</time></trkpt><trkpt lat="43.0544373" lon="13.476338"><ele>280.2</ele><time>2026-04-12T10:59:35.042Z</time></trkpt><trkpt lat="43.0544392" lon="13.4762494"><ele>278.6</ele><time>2026-04-12T10:59:36.034Z</time></trkpt><trkpt lat="43.0544463" lon="13.4761372"><ele>277.0</ele><time>2026-04-12T10:59:37.043Z</time></trkpt><trkpt lat="43.0544553" lon="13.4760161"><ele>275.6</ele><time>2026-04-12T10:59:38.008Z</time></trkpt><trkpt lat="43.054461" lon="13.4758854"><ele>274.2</ele><time>2026-04-12T10:59:39.001Z</time></trkpt><trkpt lat="43.054464" lon="13.4757414"><ele>272.8</ele><time>2026-04-12T10:59:39.995Z</time></trkpt><trkpt lat="43.0544698" lon="13.4755918"><ele>271.4</ele><time>2026-04-12T10:59:41.059Z</time></trkpt><trkpt lat="43.0544732" lon="13.4754458"><ele>270.0</ele><time>2026-04-12T10:59:42.011Z</time></trkpt><trkpt lat="43.0544762" lon="13.4752924"><ele>269.2</ele><time>2026-04-12T10:59:43.015Z</time></trkpt><trkpt lat="43.0544813" lon="13.4751369"><ele>268.4</ele><time>2026-04-12T10:59:44.011Z</time></trkpt><trkpt lat="43.0544822" lon="13.4750013"><ele>267.6</ele><time>2026-04-12T10:59:45.013Z</time></trkpt><trkpt lat="43.054482" lon="13.4748666"><ele>266.8</ele><time>2026-04-12T10:59:46.051Z</time></trkpt><trkpt lat="43.0544854" lon="13.4747038"><ele>266.0</ele><time>2026-04-12T10:59:47.06Z</time></trkpt><trkpt lat="43.0544815" lon="13.4745323"><ele>265.0</ele><time>2026-04-12T10:59:48.054Z</time></trkpt><trkpt lat="43.0544789" lon="13.4743634"><ele>264.0</ele><time>2026-04-12T10:59:49.041Z</time></trkpt><trkpt lat="43.0544843" lon="13.4741938"><ele>263.0</ele><time>2026-04-12T10:59:50.012Z</time></trkpt><trkpt lat="43.0544883" lon="13.4740161"><ele>262.0</ele><time>2026-04-12T10:59:51.013Z</time></trkpt><trkpt lat="43.0544937" lon="13.4738399"><ele>261.5</ele><time>2026-04-12T10:59:52.009Z</time></trkpt><trkpt lat="43.054499" lon="13.473652"><ele>261.0</ele><time>2026-04-12T10:59:53.01Z</time></trkpt><trkpt lat="43.0545039" lon="13.4734716"><ele>260.5</ele><time>2026-04-12T10:59:54.011Z</time></trkpt><trkpt lat="43.0545063" lon="13.4732788"><ele>260.0</ele><time>2026-04-12T10:59:55.011Z</time></trkpt><trkpt lat="43.0545101" lon="13.4730857"><ele>258.75</ele><time>2026-04-12T10:59:56.015Z</time></trkpt><trkpt lat="43.0545113" lon="13.4728914"><ele>257.5</ele><time>2026-04-12T10:59:57.015Z</time></trkpt><trkpt lat="43.0545162" lon="13.4726938"><ele>256.25</ele><time>2026-04-12T10:59:58.017Z</time></trkpt><trkpt lat="43.0545214" lon="13.4724944"><ele>255.0</ele><time>2026-04-12T10:59:59.053Z</time></trkpt><trkpt lat="43.0545283" lon="13.4722937"><ele>255.0</ele><time>2026-04-12T11:00:00.013Z</time></trkpt><trkpt lat="43.0545346" lon="13.4721077"><ele>255.0</ele><time>2026-04-12T11:00:01.017Z</time></trkpt><trkpt lat="43.0545302" lon="13.4719322"><ele>255.0</ele><time>2026-04-12T11:00:01.999Z</time></trkpt><trkpt lat="43.0545314" lon="13.4717524"><ele>255.0</ele><time>2026-04-12T11:00:03.015Z</time></trkpt><trkpt lat="43.0545353" lon="13.4715768"><ele>255.0</ele><time>2026-04-12T11:00:04.017Z</time></trkpt><trkpt lat="43.054538" lon="13.4714123"><ele>255.0</ele><time>2026-04-12T11:00:05.013Z</time></trkpt><trkpt lat="43.054549" lon="13.4712582"><ele>255.0</ele><time>2026-04-12T11:00:05.983Z</time></trkpt><trkpt lat="43.054569" lon="13.4710982"><ele>255.0</ele><time>2026-04-12T11:00:07.026Z</time></trkpt><trkpt lat="43.0546038" lon="13.4709376"><ele>255.0</ele><time>2026-04-12T11:00:08.022Z</time></trkpt><trkpt lat="43.0546364" lon="13.4707704"><ele>255.0</ele><time>2026-04-12T11:00:09.024Z</time></trkpt><trkpt lat="43.0546614" lon="13.4706054"><ele>255.0</ele><time>2026-04-12T11:00:10.049Z</time></trkpt><trkpt lat="43.0546831" lon="13.4704465"><ele>255.0</ele><time>2026-04-12T11:00:11.02Z</time></trkpt><trkpt lat="43.0547036" lon="13.4703"><ele>254.6</ele><time>2026-04-12T11:00:12.043Z</time></trkpt><trkpt lat="43.0547288" lon="13.4701631"><ele>254.2</ele><time>2026-04-12T11:00:12.984Z</time></trkpt><trkpt lat="43.0547672" lon="13.4700357"><ele>253.8</ele><time>2026-04-12T11:00:14.039Z</time></trkpt><trkpt lat="43.05481" lon="13.4699205"><ele>253.4</ele><time>2026-04-12T11:00:15.058Z</time></trkpt><trkpt lat="43.054848" lon="13.4698094"><ele>253.0</ele><time>2026-04-12T11:00:16.04Z</time></trkpt><trkpt lat="43.0548808" lon="13.4696826"><ele>251.2</ele><time>2026-04-12T11:00:17.068Z</time></trkpt><trkpt lat="43.0549024" lon="13.4695533"><ele>249.4</ele><time>2026-04-12T11:00:18.022Z</time></trkpt><trkpt lat="43.0549031" lon="13.469409"><ele>247.59999999999997</ele><time>2026-04-12T11:00:19.017Z</time></trkpt><trkpt lat="43.0548872" lon="13.4692653"><ele>245.79999999999998</ele><time>2026-04-12T11:00:20.039Z</time></trkpt><trkpt lat="43.0548656" lon="13.469131"><ele>244.0</ele><time>2026-04-12T11:00:21.049Z</time></trkpt><trkpt lat="43.054845" lon="13.4690152"><ele>244.0</ele><time>2026-04-12T11:00:22.058Z</time></trkpt><trkpt lat="43.0548191" lon="13.4689159"><ele>243.99999999999997</ele><time>2026-04-12T11:00:23.065Z</time></trkpt><trkpt lat="43.0548051" lon="13.4688306"><ele>243.99999999999997</ele><time>2026-04-12T11:00:24.033Z</time></trkpt><trkpt lat="43.0548005" lon="13.4687137"><ele>244.0</ele><time>2026-04-12T11:00:26.027Z</time></trkpt><trkpt lat="43.0547892" lon="13.4685328"><ele>244.0</ele><time>2026-04-12T11:00:28.066Z</time></trkpt><trkpt lat="43.0547783" lon="13.4684058"><ele>242.39999999999998</ele><time>2026-04-12T11:00:29.059Z</time></trkpt><trkpt lat="43.0547611" lon="13.4682651"><ele>240.79999999999998</ele><time>2026-04-12T11:00:30.045Z</time></trkpt><trkpt lat="43.0547491" lon="13.4681232"><ele>239.20000000000002</ele><time>2026-04-12T11:00:31.051Z</time></trkpt><trkpt lat="43.0547353" lon="13.4680089"><ele>237.60000000000002</ele><time>2026-04-12T11:00:32.038Z</time></trkpt><trkpt lat="43.0547106" lon="13.4679056"><ele>236.0</ele><time>2026-04-12T11:00:33.002Z</time></trkpt><trkpt lat="43.0547094" lon="13.4677624"><ele>235.20000000000002</ele><time>2026-04-12T11:00:35.051Z</time></trkpt><trkpt lat="43.0547945" lon="13.4676741"><ele>234.40000000000003</ele><time>2026-04-12T11:00:37.071Z</time></trkpt><trkpt lat="43.0548758" lon="13.4676574"><ele>233.6</ele><time>2026-04-12T11:00:38.057Z</time></trkpt><trkpt lat="43.0549862" lon="13.4676607"><ele>232.8</ele><time>2026-04-12T11:00:38.991Z</time></trkpt><trkpt lat="43.0550979" lon="13.4676649"><ele>232.0</ele><time>2026-04-12T11:00:40.053Z</time></trkpt><trkpt lat="43.0552182" lon="13.4676652"><ele>231.75</ele><time>2026-04-12T11:00:41.056Z</time></trkpt><trkpt lat="43.0553438" lon="13.4676464"><ele>231.5</ele><time>2026-04-12T11:00:42.054Z</time></trkpt><trkpt lat="43.0554651" lon="13.4676171"><ele>231.25</ele><time>2026-04-12T11:00:43.03Z</time></trkpt><trkpt lat="43.055594" lon="13.4675557"><ele>231.0</ele><time>2026-04-12T11:00:44.05Z</time></trkpt><trkpt lat="43.0557161" lon="13.467445"><ele>232.25</ele><time>2026-04-12T11:00:45.052Z</time></trkpt><trkpt lat="43.0558413" lon="13.4673321"><ele>233.5</ele><time>2026-04-12T11:00:46.059Z</time></trkpt><trkpt lat="43.0559613" lon="13.4672108"><ele>234.75</ele><time>2026-04-12T11:00:47.009Z</time></trkpt><trkpt lat="43.0560691" lon="13.4670818"><ele>236.0</ele><time>2026-04-12T11:00:48.009Z</time></trkpt><trkpt lat="43.0561691" lon="13.4669629"><ele>233.5</ele><time>2026-04-12T11:00:49.029Z</time></trkpt><trkpt lat="43.0562745" lon="13.4668634"><ele>231.0</ele><time>2026-04-12T11:00:50.035Z</time></trkpt><trkpt lat="43.056373" lon="13.4667678"><ele>228.5</ele><time>2026-04-12T11:00:51.049Z</time></trkpt><trkpt lat="43.0564728" lon="13.4666924"><ele>226.0</ele><time>2026-04-12T11:00:52.053Z</time></trkpt><trkpt lat="43.0565605" lon="13.4666069"><ele>225.66666666666666</ele><time>2026-04-12T11:00:53.051Z</time></trkpt><trkpt lat="43.056642" lon="13.4665175"><ele>225.33333333333331</ele><time>2026-04-12T11:00:54.044Z</time></trkpt><trkpt lat="43.0567132" lon="13.4664331"><ele>225.0</ele><time>2026-04-12T11:00:55.072Z</time></trkpt><trkpt lat="43.0567763" lon="13.4663594"><ele>224.66666666666669</ele><time>2026-04-12T11:00:56.074Z</time></trkpt><trkpt lat="43.0568487" lon="13.466306"><ele>224.33333333333334</ele><time>2026-04-12T11:00:57.05Z</time></trkpt><trkpt lat="43.0569129" lon="13.4662582"><ele>224.0</ele><time>2026-04-12T11:00:58.055Z</time></trkpt><trkpt lat="43.0569728" lon="13.4662153"><ele>223.83333333333334</ele><time>2026-04-12T11:00:59.046Z</time></trkpt><trkpt lat="43.057031" lon="13.4661715"><ele>223.66666666666669</ele><time>2026-04-12T11:01:00.06Z</time></trkpt><trkpt lat="43.0571418" lon="13.4660922"><ele>223.5</ele><time>2026-04-12T11:01:02.029Z</time></trkpt><trkpt lat="43.0572043" lon="13.4660407"><ele>223.33333333333331</ele><time>2026-04-12T11:01:03.048Z</time></trkpt><trkpt lat="43.0572744" lon="13.4659768"><ele>223.16666666666666</ele><time>2026-04-12T11:01:04.046Z</time></trkpt><trkpt lat="43.0573547" lon="13.4659203"><ele>223.0</ele><time>2026-04-12T11:01:05.039Z</time></trkpt><trkpt lat="43.0574377" lon="13.4658495"><ele>223.0</ele><time>2026-04-12T11:01:06.039Z</time></trkpt><trkpt lat="43.0575291" lon="13.4657627"><ele>223.0</ele><time>2026-04-12T11:01:07.072Z</time></trkpt><trkpt lat="43.0576373" lon="13.4656739"><ele>223.0</ele><time>2026-04-12T11:01:08.012Z</time></trkpt><trkpt lat="43.0577505" lon="13.4655905"><ele>223.0</ele><time>2026-04-12T11:01:09.015Z</time></trkpt><trkpt lat="43.057857" lon="13.4655155"><ele>223.0</ele><time>2026-04-12T11:01:10.023Z</time></trkpt><trkpt lat="43.0579587" lon="13.4654606"><ele>223.0</ele><time>2026-04-12T11:01:11.012Z</time></trkpt><trkpt lat="43.0580574" lon="13.465413"><ele>223.0</ele><time>2026-04-12T11:01:12.02Z</time></trkpt><trkpt lat="43.0581519" lon="13.4653663"><ele>223.0</ele><time>2026-04-12T11:01:13.014Z</time></trkpt><trkpt lat="43.0582375" lon="13.4653008"><ele>223.0</ele><time>2026-04-12T11:01:14.008Z</time></trkpt><trkpt lat="43.0583121" lon="13.4652123"><ele>223.0</ele><time>2026-04-12T11:01:15.008Z</time></trkpt><trkpt lat="43.0583941" lon="13.4651319"><ele>223.0</ele><time>2026-04-12T11:01:16.054Z</time></trkpt><trkpt lat="43.0584734" lon="13.465055"><ele>223.0</ele><time>2026-04-12T11:01:17.056Z</time></trkpt><trkpt lat="43.0585685" lon="13.4650047"><ele>223.0</ele><time>2026-04-12T11:01:18.061Z</time></trkpt><trkpt lat="43.0586621" lon="13.4649187"><ele>223.0</ele><time>2026-04-12T11:01:19.034Z</time></trkpt><trkpt lat="43.0587485" lon="13.4648242"><ele>223.0</ele><time>2026-04-12T11:01:20.058Z</time></trkpt><trkpt lat="43.058834" lon="13.4647252"><ele>223.0</ele><time>2026-04-12T11:01:21.07Z</time></trkpt><trkpt lat="43.0589101" lon="13.4646252"><ele>223.0</ele><time>2026-04-12T11:01:22.065Z</time></trkpt><trkpt lat="43.0589686" lon="13.4645449"><ele>223.0</ele><time>2026-04-12T11:01:23.043Z</time></trkpt><trkpt lat="43.0590187" lon="13.4644671"><ele>223.0</ele><time>2026-04-12T11:01:24.07Z</time></trkpt><trkpt lat="43.0590941" lon="13.4643731"><ele>221.8</ele><time>2026-04-12T11:01:26.056Z</time></trkpt><trkpt lat="43.0592138" lon="13.464362"><ele>220.60000000000002</ele><time>2026-04-12T11:01:28.067Z</time></trkpt><trkpt lat="43.0593006" lon="13.4643904"><ele>219.39999999999998</ele><time>2026-04-12T11:01:29.068Z</time></trkpt><trkpt lat="43.0593862" lon="13.4644157"><ele>218.2</ele><time>2026-04-12T11:01:30.074Z</time></trkpt><trkpt lat="43.0594803" lon="13.4644405"><ele>217.0</ele><time>2026-04-12T11:01:31.014Z</time></trkpt><trkpt lat="43.059581" lon="13.4644708"><ele>217.0</ele><time>2026-04-12T11:01:32.012Z</time></trkpt><trkpt lat="43.0596807" lon="13.4645108"><ele>217.0</ele><time>2026-04-12T11:01:33.054Z</time></trkpt><trkpt lat="43.0597892" lon="13.4645635"><ele>217.0</ele><time>2026-04-12T11:01:34.071Z</time></trkpt><trkpt lat="43.0599036" lon="13.4646197"><ele>217.0</ele><time>2026-04-12T11:01:35.055Z</time></trkpt><trkpt lat="43.0600155" lon="13.4646602"><ele>217.0</ele><time>2026-04-12T11:01:36.053Z</time></trkpt><trkpt lat="43.0601284" lon="13.4646971"><ele>217.0</ele><time>2026-04-12T11:01:37.008Z</time></trkpt><trkpt lat="43.0602414" lon="13.4647303"><ele>217.0</ele><time>2026-04-12T11:01:38.009Z</time></trkpt><trkpt lat="43.0603493" lon="13.4647598"><ele>217.0</ele><time>2026-04-12T11:01:39.047Z</time></trkpt><trkpt lat="43.0604423" lon="13.4647711"><ele>217.0</ele><time>2026-04-12T11:01:40.063Z</time></trkpt><trkpt lat="43.0605104" lon="13.4647553"><ele>216.99999999999997</ele><time>2026-04-12T11:01:41.064Z</time></trkpt><trkpt lat="43.0605711" lon="13.4647286"><ele>217.0</ele><time>2026-04-12T11:01:42.003Z</time></trkpt><trkpt lat="43.0606317" lon="13.4646634"><ele>217.0</ele><time>2026-04-12T11:01:43.022Z</time></trkpt><trkpt lat="43.0606837" lon="13.4645549"><ele>217.0</ele><time>2026-04-12T11:01:44.054Z</time></trkpt><trkpt lat="43.0607445" lon="13.464432"><ele>216.99999999999997</ele><time>2026-04-12T11:01:45.04Z</time></trkpt><trkpt lat="43.0608101" lon="13.4643194"><ele>217.0</ele><time>2026-04-12T11:01:46.052Z</time></trkpt><trkpt lat="43.06088" lon="13.4642491"><ele>216.99999999999997</ele><time>2026-04-12T11:01:47.014Z</time></trkpt><trkpt lat="43.0609667" lon="13.4642047"><ele>217.0</ele><time>2026-04-12T11:01:48.051Z</time></trkpt><trkpt lat="43.0610548" lon="13.464176"><ele>217.0</ele><time>2026-04-12T11:01:49.052Z</time></trkpt><trkpt lat="43.0611293" lon="13.4641517"><ele>217.0</ele><time>2026-04-12T11:01:50.042Z</time></trkpt><trkpt lat="43.0612196" lon="13.4641367"><ele>216.99999999999997</ele><time>2026-04-12T11:01:51.074Z</time></trkpt><trkpt lat="43.0613088" lon="13.4641212"><ele>217.0</ele><time>2026-04-12T11:01:52.024Z</time></trkpt><trkpt lat="43.0613963" lon="13.464121"><ele>217.0</ele><time>2026-04-12T11:01:53.071Z</time></trkpt><trkpt lat="43.0614824" lon="13.4641324"><ele>217.0</ele><time>2026-04-12T11:01:54.05Z</time></trkpt><trkpt lat="43.0615779" lon="13.4641604"><ele>217.0</ele><time>2026-04-12T11:01:55.056Z</time></trkpt><trkpt lat="43.0616834" lon="13.4641863"><ele>217.0</ele><time>2026-04-12T11:01:56.064Z</time></trkpt><trkpt lat="43.0617943" lon="13.4642177"><ele>217.0</ele><time>2026-04-12T11:01:57.051Z</time></trkpt><trkpt lat="43.0619101" lon="13.4642473"><ele>216.25</ele><time>2026-04-12T11:01:58.02Z</time></trkpt><trkpt lat="43.0620306" lon="13.4642855"><ele>215.5</ele><time>2026-04-12T11:01:59.016Z</time></trkpt><trkpt lat="43.062156" lon="13.4643184"><ele>214.75</ele><time>2026-04-12T11:02:00.027Z</time></trkpt><trkpt lat="43.0622717" lon="13.4643543"><ele>214.0</ele><time>2026-04-12T11:02:01.017Z</time></trkpt><trkpt lat="43.0623795" lon="13.464385"><ele>214.25</ele><time>2026-04-12T11:02:02.014Z</time></trkpt><trkpt lat="43.0624942" lon="13.4644178"><ele>214.5</ele><time>2026-04-12T11:02:03.014Z</time></trkpt><trkpt lat="43.0626127" lon="13.4644524"><ele>214.75</ele><time>2026-04-12T11:02:04.019Z</time></trkpt><trkpt lat="43.0627361" lon="13.4644896"><ele>215.0</ele><time>2026-04-12T11:02:05.042Z</time></trkpt><trkpt lat="43.062853" lon="13.464536"><ele>215.0</ele><time>2026-04-12T11:02:06.04Z</time></trkpt><trkpt lat="43.0629625" lon="13.4645785"><ele>215.0</ele><time>2026-04-12T11:02:07.033Z</time></trkpt><trkpt lat="43.0630664" lon="13.4646252"><ele>215.0</ele><time>2026-04-12T11:02:08.009Z</time></trkpt><trkpt lat="43.063171" lon="13.4646686"><ele>215.0</ele><time>2026-04-12T11:02:09.013Z</time></trkpt><trkpt lat="43.0632752" lon="13.4647127"><ele>215.0</ele><time>2026-04-12T11:02:10.035Z</time></trkpt><trkpt lat="43.0633849" lon="13.4647489"><ele>215.0</ele><time>2026-04-12T11:02:11.037Z</time></trkpt><trkpt lat="43.0634941" lon="13.4647685"><ele>215.0</ele><time>2026-04-12T11:02:12.074Z</time></trkpt><trkpt lat="43.0636079" lon="13.4647871"><ele>215.0</ele><time>2026-04-12T11:02:13.012Z</time></trkpt><trkpt lat="43.0637273" lon="13.464801"><ele>215.0</ele><time>2026-04-12T11:02:14.015Z</time></trkpt><trkpt lat="43.0638462" lon="13.4648312"><ele>215.0</ele><time>2026-04-12T11:02:15.037Z</time></trkpt><trkpt lat="43.0639527" lon="13.4648729"><ele>215.0</ele><time>2026-04-12T11:02:16.034Z</time></trkpt><trkpt lat="43.0640487" lon="13.464927"><ele>215.0</ele><time>2026-04-12T11:02:17.016Z</time></trkpt><trkpt lat="43.0641299" lon="13.4649729"><ele>215.0</ele><time>2026-04-12T11:02:18.014Z</time></trkpt><trkpt lat="43.064208" lon="13.4650282"><ele>215.0</ele><time>2026-04-12T11:02:19.011Z</time></trkpt><trkpt lat="43.0642726" lon="13.4650949"><ele>215.0</ele><time>2026-04-12T11:02:20.056Z</time></trkpt><trkpt lat="43.064329" lon="13.4651669"><ele>215.0</ele><time>2026-04-12T11:02:21.049Z</time></trkpt><trkpt lat="43.0644136" lon="13.4652819"><ele>215.0</ele><time>2026-04-12T11:02:23.056Z</time></trkpt><trkpt lat="43.0645368" lon="13.4653029"><ele>215.0</ele><time>2026-04-12T11:02:25.044Z</time></trkpt><trkpt lat="43.0646199" lon="13.4652969"><ele>215.0</ele><time>2026-04-12T11:02:26.044Z</time></trkpt><trkpt lat="43.0646969" lon="13.4652998"><ele>215.00000000000003</ele><time>2026-04-12T11:02:27.013Z</time></trkpt><trkpt lat="43.0647634" lon="13.4653232"><ele>215.0</ele><time>2026-04-12T11:02:28.023Z</time></trkpt><trkpt lat="43.0648306" lon="13.4653561"><ele>215.0</ele><time>2026-04-12T11:02:29.055Z</time></trkpt><trkpt lat="43.0649097" lon="13.4654073"><ele>215.0</ele><time>2026-04-12T11:02:30.016Z</time></trkpt><trkpt lat="43.0649865" lon="13.4654988"><ele>215.00000000000003</ele><time>2026-04-12T11:02:31.013Z</time></trkpt><trkpt lat="43.0650591" lon="13.4655873"><ele>215.0</ele><time>2026-04-12T11:02:32.055Z</time></trkpt><trkpt lat="43.0651378" lon="13.4656839"><ele>214.2</ele><time>2026-04-12T11:02:33.032Z</time></trkpt><trkpt lat="43.0652004" lon="13.4657752"><ele>213.4</ele><time>2026-04-12T11:02:34.057Z</time></trkpt><trkpt lat="43.0652663" lon="13.4658759"><ele>212.60000000000002</ele><time>2026-04-12T11:02:35.058Z</time></trkpt><trkpt lat="43.0653242" lon="13.4659933"><ele>211.8</ele><time>2026-04-12T11:02:36.012Z</time></trkpt><trkpt lat="43.0653815" lon="13.4660898"><ele>211.0</ele><time>2026-04-12T11:02:37.011Z</time></trkpt><trkpt lat="43.0654441" lon="13.4661765"><ele>210.99999999999997</ele><time>2026-04-12T11:02:38.052Z</time></trkpt><trkpt lat="43.0654904" lon="13.4662419"><ele>211.0</ele><time>2026-04-12T11:02:39.041Z</time></trkpt><trkpt lat="43.0655694" lon="13.4662699"><ele>211.0</ele><time>2026-04-12T11:02:41.009Z</time></trkpt><trkpt lat="43.0656456" lon="13.466218"><ele>211.0</ele><time>2026-04-12T11:02:44.06Z</time></trkpt><trkpt lat="43.0657149" lon="13.4661634"><ele>210.99999999999997</ele><time>2026-04-12T11:02:47.071Z</time></trkpt><trkpt lat="43.0658074" lon="13.4660879"><ele>211.0</ele><time>2026-04-12T11:02:50.048Z</time></trkpt><trkpt lat="43.0658992" lon="13.4660102"><ele>211.0</ele><time>2026-04-12T11:02:52.058Z</time></trkpt><trkpt lat="43.0659673" lon="13.4659719"><ele>211.0</ele><time>2026-04-12T11:02:53.057Z</time></trkpt><trkpt lat="43.0660744" lon="13.4659203"><ele>211.0</ele><time>2026-04-12T11:02:55.069Z</time></trkpt><trkpt lat="43.0662038" lon="13.4658781"><ele>211.0</ele><time>2026-04-12T11:02:57.061Z</time></trkpt><trkpt lat="43.0663407" lon="13.4658245"><ele>210.99999999999997</ele><time>2026-04-12T11:02:59.013Z</time></trkpt><trkpt lat="43.0664661" lon="13.4657755"><ele>211.0</ele><time>2026-04-12T11:03:01.044Z</time></trkpt><trkpt lat="43.0665349" lon="13.4657643"><ele>211.0</ele><time>2026-04-12T11:03:02.037Z</time></trkpt><trkpt lat="43.0666065" lon="13.4657548"><ele>211.0</ele><time>2026-04-12T11:03:03.039Z</time></trkpt><trkpt lat="43.0666775" lon="13.4657672"><ele>210.99999999999997</ele><time>2026-04-12T11:03:04.041Z</time></trkpt><trkpt lat="43.0667544" lon="13.4657807"><ele>211.0</ele><time>2026-04-12T11:03:05.045Z</time></trkpt><trkpt lat="43.0668365" lon="13.465813"><ele>210.66666666666666</ele><time>2026-04-12T11:03:06.047Z</time></trkpt><trkpt lat="43.0668924" lon="13.4658575"><ele>210.33333333333331</ele><time>2026-04-12T11:03:07.038Z</time></trkpt><trkpt lat="43.0669571" lon="13.465919"><ele>210.0</ele><time>2026-04-12T11:03:08.037Z</time></trkpt><trkpt lat="43.0670424" lon="13.4660326"><ele>209.66666666666669</ele><time>2026-04-12T11:03:10.006Z</time></trkpt><trkpt lat="43.0671311" lon="13.4660941"><ele>209.33333333333334</ele><time>2026-04-12T11:03:12.049Z</time></trkpt><trkpt lat="43.0672" lon="13.466133"><ele>209.0</ele><time>2026-04-12T11:03:14.05Z</time></trkpt><trkpt lat="43.0672791" lon="13.4661564"><ele>209.00000000000003</ele><time>2026-04-12T11:03:17.041Z</time></trkpt><trkpt lat="43.067369" lon="13.4661842"><ele>209.0</ele><time>2026-04-12T11:03:20.042Z</time></trkpt><trkpt lat="43.0674463" lon="13.4662415"><ele>209.0</ele><time>2026-04-12T11:03:23.052Z</time></trkpt><trkpt lat="43.0675274" lon="13.4662798"><ele>209.0</ele><time>2026-04-12T11:03:27.054Z</time></trkpt><trkpt lat="43.0676071" lon="13.4663308"><ele>209.00000000000003</ele><time>2026-04-12T11:03:30.058Z</time></trkpt><trkpt lat="43.0676807" lon="13.4663832"><ele>209.0</ele><time>2026-04-12T11:03:32.049Z</time></trkpt><trkpt lat="43.0677441" lon="13.4664442"><ele>208.79999999999998</ele><time>2026-04-12T11:03:34.065Z</time></trkpt><trkpt lat="43.0678152" lon="13.4664874"><ele>208.6</ele><time>2026-04-12T11:03:36.026Z</time></trkpt><trkpt lat="43.0678962" lon="13.4665155"><ele>208.4</ele><time>2026-04-12T11:03:38.05Z</time></trkpt><trkpt lat="43.0680063" lon="13.4665764"><ele>208.2</ele><time>2026-04-12T11:03:40.048Z</time></trkpt><trkpt lat="43.068076" lon="13.4666474"><ele>208.0</ele><time>2026-04-12T11:03:42.064Z</time></trkpt><trkpt lat="43.068153" lon="13.4667175"><ele>207.99999999999997</ele><time>2026-04-12T11:03:44.061Z</time></trkpt><trkpt lat="43.0682184" lon="13.4667658"><ele>208.0</ele><time>2026-04-12T11:03:46.049Z</time></trkpt><trkpt lat="43.0682843" lon="13.4667289"><ele>208.0</ele><time>2026-04-12T11:03:49.062Z</time></trkpt><trkpt lat="43.0682659" lon="13.4666231"><ele>208.0</ele><time>2026-04-12T11:03:53.054Z</time></trkpt><trkpt lat="43.0682112" lon="13.4665045"><ele>207.99999999999997</ele><time>2026-04-12T11:03:56.029Z</time></trkpt><trkpt lat="43.0681532" lon="13.4664191"><ele>208.0</ele><time>2026-04-12T11:03:58.068Z</time></trkpt><trkpt lat="43.0680903" lon="13.4663047"><ele>207.83333333333331</ele><time>2026-04-12T11:04:00.026Z</time></trkpt><trkpt lat="43.0680407" lon="13.4662102"><ele>207.66666666666666</ele><time>2026-04-12T11:04:02.058Z</time></trkpt><trkpt lat="43.068048" lon="13.4661175"><ele>207.5</ele><time>2026-04-12T11:04:04.029Z</time></trkpt><trkpt lat="43.0681048" lon="13.4660643"><ele>207.33333333333331</ele><time>2026-04-12T11:04:07.009Z</time></trkpt><trkpt lat="43.0681839" lon="13.4661634"><ele>207.16666666666666</ele><time>2026-04-12T11:04:10.01Z</time></trkpt><trkpt lat="43.0682747" lon="13.4662509"><ele>207.0</ele><time>2026-04-12T11:04:12.022Z</time></trkpt><trkpt lat="43.0683584" lon="13.4663613"><ele>207.0</ele><time>2026-04-12T11:04:14.034Z</time></trkpt><trkpt lat="43.0684372" lon="13.466468"><ele>207.0</ele><time>2026-04-12T11:04:16.031Z</time></trkpt><trkpt lat="43.068499" lon="13.4665671"><ele>207.0</ele><time>2026-04-12T11:04:18.054Z</time></trkpt><trkpt lat="43.0685039" lon="13.4666737"><ele>207.0</ele><time>2026-04-12T11:04:20.032Z</time></trkpt><trkpt lat="43.0685245" lon="13.4667591"><ele>207.0</ele><time>2026-04-12T11:04:23.065Z</time></trkpt><trkpt lat="43.0685757" lon="13.4668652"><ele>207.0</ele><time>2026-04-12T11:04:26.018Z</time></trkpt><trkpt lat="43.0686112" lon="13.4669377"><ele>207.0</ele><time>2026-04-12T11:04:28.061Z</time></trkpt><trkpt lat="43.0686561" lon="13.4670313"><ele>207.0</ele><time>2026-04-12T11:04:30.058Z</time></trkpt><trkpt lat="43.0687024" lon="13.4671079"><ele>207.0</ele><time>2026-04-12T11:04:32.056Z</time></trkpt><trkpt lat="43.0687502" lon="13.467184"><ele>207.0</ele><time>2026-04-12T11:04:34.037Z</time></trkpt><trkpt lat="43.0687892" lon="13.4672628"><ele>207.0</ele><time>2026-04-12T11:04:36.062Z</time></trkpt><trkpt lat="43.0688435" lon="13.467341"><ele>207.0</ele><time>2026-04-12T11:04:38.049Z</time></trkpt><trkpt lat="43.0689142" lon="13.4674166"><ele>207.2</ele><time>2026-04-12T11:04:40.064Z</time></trkpt><trkpt lat="43.0689795" lon="13.467507"><ele>207.39999999999998</ele><time>2026-04-12T11:04:42.059Z</time></trkpt><trkpt lat="43.069059" lon="13.4676299"><ele>207.60000000000002</ele><time>2026-04-12T11:04:44.012Z</time></trkpt><trkpt lat="43.0691113" lon="13.4676826"><ele>207.8</ele><time>2026-04-12T11:04:45.043Z</time></trkpt><trkpt lat="43.0691849" lon="13.4677549"><ele>208.0</ele><time>2026-04-12T11:04:47.058Z</time></trkpt><trkpt lat="43.0692698" lon="13.4678303"><ele>207.83333333333331</ele><time>2026-04-12T11:04:49.057Z</time></trkpt><trkpt lat="43.0693262" lon="13.4679274"><ele>207.66666666666666</ele><time>2026-04-12T11:04:51.048Z</time></trkpt><trkpt lat="43.0693183" lon="13.4680674"><ele>207.5</ele><time>2026-04-12T11:04:54.06Z</time></trkpt><trkpt lat="43.0692545" lon="13.4681616"><ele>207.33333333333331</ele><time>2026-04-12T11:04:56.049Z</time></trkpt><trkpt lat="43.0692642" lon="13.4682689"><ele>207.16666666666666</ele><time>2026-04-12T11:05:00.052Z</time></trkpt><trkpt lat="43.0693339" lon="13.4683308"><ele>207.0</ele><time>2026-04-12T11:05:01.045Z</time></trkpt><trkpt lat="43.0694285" lon="13.4684004"><ele>207.0</ele><time>2026-04-12T11:05:02.019Z</time></trkpt><trkpt lat="43.0695098" lon="13.4685063"><ele>207.0</ele><time>2026-04-12T11:05:03.031Z</time></trkpt><trkpt lat="43.0695683" lon="13.4686081"><ele>207.0</ele><time>2026-04-12T11:05:04.016Z</time></trkpt><trkpt lat="43.0696272" lon="13.4686912"><ele>207.0</ele><time>2026-04-12T11:05:05.033Z</time></trkpt><trkpt lat="43.0696743" lon="13.4687582"><ele>207.0</ele><time>2026-04-12T11:05:06.027Z</time></trkpt><trkpt lat="43.0697231" lon="13.4688286"><ele>207.0</ele><time>2026-04-12T11:05:07.038Z</time></trkpt><trkpt lat="43.0697726" lon="13.4689042"><ele>207.2</ele><time>2026-04-12T11:05:09.034Z</time></trkpt><trkpt lat="43.0698344" lon="13.4689376"><ele>207.39999999999998</ele><time>2026-04-12T11:05:12.047Z</time></trkpt><trkpt lat="43.0699143" lon="13.4690214"><ele>207.60000000000002</ele><time>2026-04-12T11:05:14.058Z</time></trkpt><trkpt lat="43.070002" lon="13.4691007"><ele>207.8</ele><time>2026-04-12T11:05:15.998Z</time></trkpt><trkpt lat="43.0700672" lon="13.4692145"><ele>208.0</ele><time>2026-04-12T11:05:17.977Z</time></trkpt><trkpt lat="43.0701257" lon="13.4693473"><ele>207.83333333333331</ele><time>2026-04-12T11:05:19.978Z</time></trkpt><trkpt lat="43.0701855" lon="13.4694605"><ele>207.66666666666666</ele><time>2026-04-12T11:05:22.012Z</time></trkpt><trkpt lat="43.0702557" lon="13.4695824"><ele>207.5</ele><time>2026-04-12T11:05:24.032Z</time></trkpt><trkpt lat="43.0702961" lon="13.4696574"><ele>207.33333333333331</ele><time>2026-04-12T11:05:24.987Z</time></trkpt><trkpt lat="43.0703516" lon="13.4697259"><ele>207.16666666666666</ele><time>2026-04-12T11:05:26.032Z</time></trkpt><trkpt lat="43.0704012" lon="13.4698015"><ele>207.0</ele><time>2026-04-12T11:05:27.032Z</time></trkpt><trkpt lat="43.0704492" lon="13.4698838"><ele>207.0</ele><time>2026-04-12T11:05:28.01Z</time></trkpt><trkpt lat="43.0704901" lon="13.46997"><ele>207.0</ele><time>2026-04-12T11:05:29Z</time></trkpt><trkpt lat="43.0705379" lon="13.4700451"><ele>207.0</ele><time>2026-04-12T11:05:30.013Z</time></trkpt><trkpt lat="43.0706221" lon="13.4701619"><ele>207.0</ele><time>2026-04-12T11:05:31.992Z</time></trkpt><trkpt lat="43.0707037" lon="13.4702782"><ele>207.0</ele><time>2026-04-12T11:05:33.999Z</time></trkpt><trkpt lat="43.0707805" lon="13.4703275"><ele>206.83333333333334</ele><time>2026-04-12T11:05:37.04Z</time></trkpt><trkpt lat="43.0708633" lon="13.4702736"><ele>206.66666666666669</ele><time>2026-04-12T11:05:39.032Z</time></trkpt><trkpt lat="43.070961" lon="13.4701926"><ele>206.5</ele><time>2026-04-12T11:05:41.049Z</time></trkpt><trkpt lat="43.0710208" lon="13.4701526"><ele>206.33333333333334</ele><time>2026-04-12T11:05:42.044Z</time></trkpt><trkpt lat="43.0710885" lon="13.4701367"><ele>206.16666666666669</ele><time>2026-04-12T11:05:44.035Z</time></trkpt><trkpt lat="43.0711604" lon="13.4702045"><ele>206.0</ele><time>2026-04-12T11:05:46.053Z</time></trkpt><trkpt lat="43.0712299" lon="13.4702764"><ele>206.00000000000003</ele><time>2026-04-12T11:05:48.065Z</time></trkpt><trkpt lat="43.0712698" lon="13.4703735"><ele>206.0</ele><time>2026-04-12T11:05:50.07Z</time></trkpt><trkpt lat="43.0713269" lon="13.4704944"><ele>206.0</ele><time>2026-04-12T11:05:52.055Z</time></trkpt><trkpt lat="43.0713652" lon="13.4705693"><ele>206.0</ele><time>2026-04-12T11:05:53.056Z</time></trkpt><trkpt lat="43.0714091" lon="13.4706603"><ele>206.00000000000003</ele><time>2026-04-12T11:05:54.052Z</time></trkpt><trkpt lat="43.0714917" lon="13.4706926"><ele>206.0</ele><time>2026-04-12T11:05:57.032Z</time></trkpt><trkpt lat="43.07159" lon="13.4707578"><ele>205.60000000000002</ele><time>2026-04-12T11:05:59.057Z</time></trkpt><trkpt lat="43.0716786" lon="13.4708369"><ele>205.2</ele><time>2026-04-12T11:06:00.033Z</time></trkpt><trkpt lat="43.071735" lon="13.4709443"><ele>204.8</ele><time>2026-04-12T11:06:02.079Z</time></trkpt><trkpt lat="43.0717719" lon="13.4711059"><ele>204.39999999999998</ele><time>2026-04-12T11:06:04.021Z</time></trkpt><trkpt lat="43.0718305" lon="13.4712338"><ele>204.0</ele><time>2026-04-12T11:06:06.057Z</time></trkpt><trkpt lat="43.0718886" lon="13.4712899"><ele>204.0</ele><time>2026-04-12T11:06:07.014Z</time></trkpt><trkpt lat="43.0719423" lon="13.4714046"><ele>204.0</ele><time>2026-04-12T11:06:09.052Z</time></trkpt><trkpt lat="43.0720021" lon="13.4715421"><ele>204.0</ele><time>2026-04-12T11:06:11.053Z</time></trkpt><trkpt lat="43.0720454" lon="13.4716674"><ele>204.0</ele><time>2026-04-12T11:06:13.051Z</time></trkpt><trkpt lat="43.0721026" lon="13.4717795"><ele>204.0</ele><time>2026-04-12T11:06:15.002Z</time></trkpt><trkpt lat="43.0721092" lon="13.4718919"><ele>204.0</ele><time>2026-04-12T11:06:18.016Z</time></trkpt><trkpt lat="43.0720498" lon="13.4720035"><ele>204.0</ele><time>2026-04-12T11:06:20.01Z</time></trkpt><trkpt lat="43.0720051" lon="13.4721058"><ele>204.0</ele><time>2026-04-12T11:06:22.054Z</time></trkpt><trkpt lat="43.0719858" lon="13.4722051"><ele>204.0</ele><time>2026-04-12T11:06:24Z</time></trkpt><trkpt lat="43.0719864" lon="13.4722976"><ele>204.0</ele><time>2026-04-12T11:06:25.034Z</time></trkpt><trkpt lat="43.0719948" lon="13.472398"><ele>204.0</ele><time>2026-04-12T11:06:26.018Z</time></trkpt><trkpt lat="43.0720042" lon="13.4724964"><ele>205.33333333333334</ele><time>2026-04-12T11:06:27.043Z</time></trkpt><trkpt lat="43.0720342" lon="13.4726746"><ele>206.66666666666669</ele><time>2026-04-12T11:06:29.032Z</time></trkpt><trkpt lat="43.0720642" lon="13.4727606"><ele>208.0</ele><time>2026-04-12T11:06:30.037Z</time></trkpt><trkpt lat="43.0720932" lon="13.4728405"><ele>209.33333333333334</ele><time>2026-04-12T11:06:31.04Z</time></trkpt><trkpt lat="43.0721351" lon="13.4729377"><ele>210.66666666666669</ele><time>2026-04-12T11:06:32.037Z</time></trkpt><trkpt lat="43.0721847" lon="13.473021"><ele>212.0</ele><time>2026-04-12T11:06:33.037Z</time></trkpt><trkpt lat="43.072282" lon="13.4731301"><ele>211.50000000000003</ele><time>2026-04-12T11:06:35.033Z</time></trkpt><trkpt lat="43.0723245" lon="13.4732045"><ele>211.0</ele><time>2026-04-12T11:06:36.009Z</time></trkpt><trkpt lat="43.0724004" lon="13.47334"><ele>210.5</ele><time>2026-04-12T11:06:38.078Z</time></trkpt><trkpt lat="43.0724108" lon="13.4734284"><ele>210.0</ele><time>2026-04-12T11:06:39.047Z</time></trkpt><trkpt lat="43.0724253" lon="13.4735412"><ele>209.50000000000003</ele><time>2026-04-12T11:06:40.053Z</time></trkpt><trkpt lat="43.0724592" lon="13.4736641"><ele>209.0</ele><time>2026-04-12T11:06:41.053Z</time></trkpt><trkpt lat="43.0725195" lon="13.4737868"><ele>211.2</ele><time>2026-04-12T11:06:42.038Z</time></trkpt><trkpt lat="43.0725734" lon="13.4738883"><ele>213.39999999999998</ele><time>2026-04-12T11:06:43.046Z</time></trkpt><trkpt lat="43.0726416" lon="13.4739808"><ele>215.6</ele><time>2026-04-12T11:06:44.041Z</time></trkpt><trkpt lat="43.0727239" lon="13.4740751"><ele>217.8</ele><time>2026-04-12T11:06:45.05Z</time></trkpt><trkpt lat="43.0728141" lon="13.4741906"><ele>220.0</ele><time>2026-04-12T11:06:46.057Z</time></trkpt><trkpt lat="43.0728872" lon="13.4742841"><ele>220.0</ele><time>2026-04-12T11:06:47.059Z</time></trkpt><trkpt lat="43.0729461" lon="13.4743658"><ele>220.0</ele><time>2026-04-12T11:06:48.076Z</time></trkpt><trkpt lat="43.0730047" lon="13.4744415"><ele>220.0</ele><time>2026-04-12T11:06:49.077Z</time></trkpt><trkpt lat="43.073065" lon="13.4745372"><ele>220.0</ele><time>2026-04-12T11:06:50.05Z</time></trkpt><trkpt lat="43.0731222" lon="13.47465"><ele>220.0</ele><time>2026-04-12T11:06:51.069Z</time></trkpt><trkpt lat="43.0731778" lon="13.474791"><ele>219.5</ele><time>2026-04-12T11:06:52.04Z</time></trkpt><trkpt lat="43.0732465" lon="13.4749502"><ele>219.0</ele><time>2026-04-12T11:06:53.049Z</time></trkpt><trkpt lat="43.0733132" lon="13.4751339"><ele>218.5</ele><time>2026-04-12T11:06:54.061Z</time></trkpt><trkpt lat="43.0733664" lon="13.4753378"><ele>218.0</ele><time>2026-04-12T11:06:54.977Z</time></trkpt><trkpt lat="43.0734104" lon="13.4755549"><ele>219.66666666666669</ele><time>2026-04-12T11:06:56.021Z</time></trkpt><trkpt lat="43.0734452" lon="13.4757937"><ele>221.33333333333331</ele><time>2026-04-12T11:06:57.03Z</time></trkpt><trkpt lat="43.0734891" lon="13.4760164"><ele>223.0</ele><time>2026-04-12T11:06:58.055Z</time></trkpt><trkpt lat="43.0735342" lon="13.4762461"><ele>223.5</ele><time>2026-04-12T11:06:59.034Z</time></trkpt><trkpt lat="43.073572" lon="13.4764621"><ele>224.0</ele><time>2026-04-12T11:07:00.034Z</time></trkpt><trkpt lat="43.0736027" lon="13.4766628"><ele>224.5</ele><time>2026-04-12T11:07:01.053Z</time></trkpt><trkpt lat="43.0736297" lon="13.4768412"><ele>225.0</ele><time>2026-04-12T11:07:02.046Z</time></trkpt><trkpt lat="43.0736457" lon="13.4770179"><ele>226.0</ele><time>2026-04-12T11:07:03.055Z</time></trkpt><trkpt lat="43.0736505" lon="13.4771822"><ele>227.0</ele><time>2026-04-12T11:07:04.025Z</time></trkpt><trkpt lat="43.0736303" lon="13.4773358"><ele>228.0</ele><time>2026-04-12T11:07:05.037Z</time></trkpt><trkpt lat="43.0735866" lon="13.477497"><ele>229.0</ele><time>2026-04-12T11:07:06.02Z</time></trkpt><trkpt lat="43.073533" lon="13.4776604"><ele>229.0</ele><time>2026-04-12T11:07:07.057Z</time></trkpt><trkpt lat="43.0734881" lon="13.4778389"><ele>229.0</ele><time>2026-04-12T11:07:08.028Z</time></trkpt><trkpt lat="43.0734565" lon="13.4780351"><ele>229.0</ele><time>2026-04-12T11:07:09.035Z</time></trkpt><trkpt lat="43.0734235" lon="13.4782239"><ele>229.0</ele><time>2026-04-12T11:07:10.049Z</time></trkpt><trkpt lat="43.07343" lon="13.4784356"><ele>229.0</ele><time>2026-04-12T11:07:11.045Z</time></trkpt><trkpt lat="43.0734572" lon="13.4786585"><ele>229.0</ele><time>2026-04-12T11:07:12.031Z</time></trkpt><trkpt lat="43.07351" lon="13.4788987"><ele>229.0</ele><time>2026-04-12T11:07:13.031Z</time></trkpt><trkpt lat="43.0735816" lon="13.479141"><ele>230.66666666666666</ele><time>2026-04-12T11:07:14.035Z</time></trkpt><trkpt lat="43.0736647" lon="13.4793795"><ele>232.33333333333331</ele><time>2026-04-12T11:07:15.04Z</time></trkpt><trkpt lat="43.0737625" lon="13.4796055"><ele>234.0</ele><time>2026-04-12T11:07:16.033Z</time></trkpt><trkpt lat="43.0738699" lon="13.4798195"><ele>235.0</ele><time>2026-04-12T11:07:17.036Z</time></trkpt><trkpt lat="43.0739841" lon="13.4800095"><ele>236.0</ele><time>2026-04-12T11:07:18.037Z</time></trkpt><trkpt lat="43.0741009" lon="13.4801786"><ele>237.0</ele><time>2026-04-12T11:07:19.051Z</time></trkpt><trkpt lat="43.0742122" lon="13.4803548"><ele>233.0</ele><time>2026-04-12T11:07:20.037Z</time></trkpt><trkpt lat="43.0743339" lon="13.4805332"><ele>229.0</ele><time>2026-04-12T11:07:21.046Z</time></trkpt><trkpt lat="43.0744463" lon="13.4806986"><ele>225.0</ele><time>2026-04-12T11:07:22.055Z</time></trkpt><trkpt lat="43.0745566" lon="13.4808546"><ele>225.0</ele><time>2026-04-12T11:07:23.027Z</time></trkpt><trkpt lat="43.0746408" lon="13.4809854"><ele>225.0</ele><time>2026-04-12T11:07:24.031Z</time></trkpt><trkpt lat="43.0746967" lon="13.4811226"><ele>225.0</ele><time>2026-04-12T11:07:25.041Z</time></trkpt><trkpt lat="43.0747262" lon="13.4812785"><ele>225.0</ele><time>2026-04-12T11:07:26.033Z</time></trkpt><trkpt lat="43.0747231" lon="13.4814453"><ele>225.25</ele><time>2026-04-12T11:07:27.041Z</time></trkpt><trkpt lat="43.0746914" lon="13.4816155"><ele>225.5</ele><time>2026-04-12T11:07:28.03Z</time></trkpt><trkpt lat="43.0746464" lon="13.4817894"><ele>225.75</ele><time>2026-04-12T11:07:29.04Z</time></trkpt><trkpt lat="43.0746054" lon="13.4819473"><ele>226.0</ele><time>2026-04-12T11:07:30.051Z</time></trkpt><trkpt lat="43.0745767" lon="13.4821193"><ele>226.0</ele><time>2026-04-12T11:07:31.068Z</time></trkpt><trkpt lat="43.0745898" lon="13.4822908"><ele>226.0</ele><time>2026-04-12T11:07:32.053Z</time></trkpt><trkpt lat="43.0746274" lon="13.4824575"><ele>226.0</ele><time>2026-04-12T11:07:33.023Z</time></trkpt><trkpt lat="43.0746925" lon="13.4826289"><ele>226.0</ele><time>2026-04-12T11:07:34.063Z</time></trkpt><trkpt lat="43.0747729" lon="13.4828123"><ele>225.33333333333331</ele><time>2026-04-12T11:07:35.044Z</time></trkpt><trkpt lat="43.0748508" lon="13.4829924"><ele>224.66666666666669</ele><time>2026-04-12T11:07:36.072Z</time></trkpt><trkpt lat="43.0749297" lon="13.4831766"><ele>224.0</ele><time>2026-04-12T11:07:37.021Z</time></trkpt><trkpt lat="43.0750027" lon="13.4833589"><ele>224.0</ele><time>2026-04-12T11:07:38.022Z</time></trkpt><trkpt lat="43.0750733" lon="13.4835519"><ele>224.0</ele><time>2026-04-12T11:07:39.045Z</time></trkpt><trkpt lat="43.0751407" lon="13.4837416"><ele>224.0</ele><time>2026-04-12T11:07:40.048Z</time></trkpt><trkpt lat="43.0752104" lon="13.4839184"><ele>224.75</ele><time>2026-04-12T11:07:41.06Z</time></trkpt><trkpt lat="43.0752869" lon="13.4840836"><ele>225.5</ele><time>2026-04-12T11:07:42.03Z</time></trkpt><trkpt lat="43.0753676" lon="13.4842449"><ele>226.25</ele><time>2026-04-12T11:07:43.032Z</time></trkpt><trkpt lat="43.0754549" lon="13.484399"><ele>227.0</ele><time>2026-04-12T11:07:44.049Z</time></trkpt><trkpt lat="43.0755516" lon="13.4845532"><ele>227.0</ele><time>2026-04-12T11:07:45.036Z</time></trkpt><trkpt lat="43.0756368" lon="13.4847135"><ele>227.0</ele><time>2026-04-12T11:07:46.051Z</time></trkpt><trkpt lat="43.0757276" lon="13.4848801"><ele>227.0</ele><time>2026-04-12T11:07:47.048Z</time></trkpt><trkpt lat="43.0758272" lon="13.4850416"><ele>226.33333333333334</ele><time>2026-04-12T11:07:48.039Z</time></trkpt><trkpt lat="43.0759189" lon="13.4852131"><ele>225.66666666666669</ele><time>2026-04-12T11:07:49.051Z</time></trkpt><trkpt lat="43.0760096" lon="13.4853791"><ele>225.0</ele><time>2026-04-12T11:07:50.051Z</time></trkpt><trkpt lat="43.0761103" lon="13.4855476"><ele>224.66666666666669</ele><time>2026-04-12T11:07:51.053Z</time></trkpt><trkpt lat="43.0762098" lon="13.4857267"><ele>224.33333333333334</ele><time>2026-04-12T11:07:52.038Z</time></trkpt><trkpt lat="43.0763093" lon="13.485894"><ele>224.0</ele><time>2026-04-12T11:07:53.084Z</time></trkpt><trkpt lat="43.0763992" lon="13.4860675"><ele>224.0</ele><time>2026-04-12T11:07:54.064Z</time></trkpt><trkpt lat="43.0764978" lon="13.4862421"><ele>224.0</ele><time>2026-04-12T11:07:55.054Z</time></trkpt><trkpt lat="43.0765941" lon="13.486419"><ele>224.0</ele><time>2026-04-12T11:07:56.055Z</time></trkpt><trkpt lat="43.0766955" lon="13.486585"><ele>224.0</ele><time>2026-04-12T11:07:57.062Z</time></trkpt><trkpt lat="43.0767942" lon="13.4867617"><ele>224.0</ele><time>2026-04-12T11:07:58.06Z</time></trkpt><trkpt lat="43.0768854" lon="13.4869404"><ele>224.0</ele><time>2026-04-12T11:07:59.062Z</time></trkpt><trkpt lat="43.0769825" lon="13.4871187"><ele>224.33333333333334</ele><time>2026-04-12T11:08:00.051Z</time></trkpt><trkpt lat="43.0770826" lon="13.4873012"><ele>224.66666666666669</ele><time>2026-04-12T11:08:01.017Z</time></trkpt><trkpt lat="43.0771778" lon="13.4874779"><ele>225.0</ele><time>2026-04-12T11:08:02.057Z</time></trkpt><trkpt lat="43.0772715" lon="13.4876504"><ele>225.0</ele><time>2026-04-12T11:08:03.044Z</time></trkpt><trkpt lat="43.0773685" lon="13.487829"><ele>225.0</ele><time>2026-04-12T11:08:04.057Z</time></trkpt><trkpt lat="43.077462" lon="13.4880099"><ele>225.0</ele><time>2026-04-12T11:08:05.038Z</time></trkpt><trkpt lat="43.0775521" lon="13.4881965"><ele>225.0</ele><time>2026-04-12T11:08:06.03Z</time></trkpt><trkpt lat="43.077644" lon="13.4883779"><ele>225.0</ele><time>2026-04-12T11:08:07.051Z</time></trkpt><trkpt lat="43.0777454" lon="13.4885457"><ele>225.0</ele><time>2026-04-12T11:08:08.005Z</time></trkpt><trkpt lat="43.0778506" lon="13.4887056"><ele>225.33333333333331</ele><time>2026-04-12T11:08:09.056Z</time></trkpt><trkpt lat="43.0779695" lon="13.4888626"><ele>225.66666666666666</ele><time>2026-04-12T11:08:10.066Z</time></trkpt><trkpt lat="43.078099" lon="13.4890023"><ele>226.0</ele><time>2026-04-12T11:08:11.044Z</time></trkpt><trkpt lat="43.0782322" lon="13.489143"><ele>224.66666666666666</ele><time>2026-04-12T11:08:12.047Z</time></trkpt><trkpt lat="43.0783781" lon="13.48927"><ele>223.33333333333331</ele><time>2026-04-12T11:08:13.047Z</time></trkpt><trkpt lat="43.0785356" lon="13.489381"><ele>222.0</ele><time>2026-04-12T11:08:14.053Z</time></trkpt><trkpt lat="43.0786792" lon="13.4894655"><ele>222.0</ele><time>2026-04-12T11:08:15.039Z</time></trkpt><trkpt lat="43.078828" lon="13.4895402"><ele>222.0</ele><time>2026-04-12T11:08:16.042Z</time></trkpt><trkpt lat="43.0789784" lon="13.4896037"><ele>222.0</ele><time>2026-04-12T11:08:17.053Z</time></trkpt><trkpt lat="43.0791289" lon="13.4896652"><ele>221.66666666666669</ele><time>2026-04-12T11:08:18.033Z</time></trkpt><trkpt lat="43.0792807" lon="13.489725"><ele>221.33333333333334</ele><time>2026-04-12T11:08:19.039Z</time></trkpt><trkpt lat="43.0794374" lon="13.4897818"><ele>221.0</ele><time>2026-04-12T11:08:20.037Z</time></trkpt><trkpt lat="43.0795945" lon="13.4898459"><ele>221.0</ele><time>2026-04-12T11:08:21.048Z</time></trkpt><trkpt lat="43.0797471" lon="13.4899278"><ele>221.0</ele><time>2026-04-12T11:08:22.064Z</time></trkpt><trkpt lat="43.079905" lon="13.4900181"><ele>221.0</ele><time>2026-04-12T11:08:23.049Z</time></trkpt><trkpt lat="43.0800536" lon="13.4901063"><ele>220.0</ele><time>2026-04-12T11:08:24.056Z</time></trkpt><trkpt lat="43.0802062" lon="13.4902028"><ele>219.0</ele><time>2026-04-12T11:08:25.059Z</time></trkpt><trkpt lat="43.0803606" lon="13.4903116"><ele>218.0</ele><time>2026-04-12T11:08:26.049Z</time></trkpt><trkpt lat="43.0805129" lon="13.4904174"><ele>217.66666666666669</ele><time>2026-04-12T11:08:27.056Z</time></trkpt><trkpt lat="43.0806634" lon="13.4905229"><ele>217.33333333333331</ele><time>2026-04-12T11:08:28.044Z</time></trkpt><trkpt lat="43.0808018" lon="13.4906209"><ele>217.0</ele><time>2026-04-12T11:08:29.059Z</time></trkpt><trkpt lat="43.0809414" lon="13.4907289"><ele>217.0</ele><time>2026-04-12T11:08:30.046Z</time></trkpt><trkpt lat="43.0810723" lon="13.4908302"><ele>217.0</ele><time>2026-04-12T11:08:31.046Z</time></trkpt><trkpt lat="43.0811858" lon="13.4909287"><ele>217.0</ele><time>2026-04-12T11:08:32.049Z</time></trkpt><trkpt lat="43.0812952" lon="13.4910173"><ele>217.0</ele><time>2026-04-12T11:08:33.038Z</time></trkpt><trkpt lat="43.0813925" lon="13.4911"><ele>217.0</ele><time>2026-04-12T11:08:34.067Z</time></trkpt><trkpt lat="43.0814964" lon="13.4911825"><ele>217.0</ele><time>2026-04-12T11:08:35.052Z</time></trkpt><trkpt lat="43.0815919" lon="13.4912658"><ele>217.0</ele><time>2026-04-12T11:08:36.082Z</time></trkpt><trkpt lat="43.0816761" lon="13.4913479"><ele>217.0</ele><time>2026-04-12T11:08:37.068Z</time></trkpt><trkpt lat="43.0817432" lon="13.4914595"><ele>217.0</ele><time>2026-04-12T11:08:38.044Z</time></trkpt><trkpt lat="43.0817932" lon="13.4915872"><ele>216.5</ele><time>2026-04-12T11:08:39.042Z</time></trkpt><trkpt lat="43.0818358" lon="13.4917106"><ele>216.0</ele><time>2026-04-12T11:08:40.025Z</time></trkpt><trkpt lat="43.0818831" lon="13.491848"><ele>215.5</ele><time>2026-04-12T11:08:41.048Z</time></trkpt><trkpt lat="43.0819384" lon="13.4919948"><ele>215.0</ele><time>2026-04-12T11:08:42.029Z</time></trkpt><trkpt lat="43.0819939" lon="13.4921482"><ele>214.83333333333334</ele><time>2026-04-12T11:08:43.048Z</time></trkpt><trkpt lat="43.0820457" lon="13.4922855"><ele>214.66666666666669</ele><time>2026-04-12T11:08:44.045Z</time></trkpt><trkpt lat="43.0820946" lon="13.492403"><ele>214.5</ele><time>2026-04-12T11:08:45.042Z</time></trkpt><trkpt lat="43.0821414" lon="13.4925034"><ele>214.33333333333331</ele><time>2026-04-12T11:08:46.038Z</time></trkpt><trkpt lat="43.0821705" lon="13.49259"><ele>214.16666666666666</ele><time>2026-04-12T11:08:47.012Z</time></trkpt><trkpt lat="43.0822223" lon="13.4926675"><ele>214.0</ele><time>2026-04-12T11:08:49.057Z</time></trkpt><trkpt lat="43.0822437" lon="13.4925826"><ele>213.99999999999997</ele><time>2026-04-12T11:08:52.059Z</time></trkpt><trkpt lat="43.0822997" lon="13.4924868"><ele>214.0</ele><time>2026-04-12T11:08:55.057Z</time></trkpt><trkpt lat="43.0823681" lon="13.492433"><ele>214.0</ele><time>2026-04-12T11:08:57.053Z</time></trkpt><trkpt lat="43.0824385" lon="13.4923937"><ele>214.0</ele><time>2026-04-12T11:08:58.037Z</time></trkpt><trkpt lat="43.0825122" lon="13.492366"><ele>213.99999999999997</ele><time>2026-04-12T11:08:59.036Z</time></trkpt><trkpt lat="43.0825889" lon="13.4923434"><ele>214.0</ele><time>2026-04-12T11:09:00.04Z</time></trkpt><trkpt lat="43.0826624" lon="13.4923077"><ele>212.83333333333331</ele><time>2026-04-12T11:09:01.042Z</time></trkpt><trkpt lat="43.0827352" lon="13.4922733"><ele>211.66666666666666</ele><time>2026-04-12T11:09:02.04Z</time></trkpt><trkpt lat="43.0828233" lon="13.4922431"><ele>210.5</ele><time>2026-04-12T11:09:03.024Z</time></trkpt><trkpt lat="43.0829096" lon="13.4922293"><ele>209.33333333333331</ele><time>2026-04-12T11:09:04.04Z</time></trkpt><trkpt lat="43.082996" lon="13.4922438"><ele>208.16666666666666</ele><time>2026-04-12T11:09:05.046Z</time></trkpt><trkpt lat="43.0830788" lon="13.492278"><ele>207.0</ele><time>2026-04-12T11:09:06.055Z</time></trkpt><trkpt lat="43.0831522" lon="13.4923541"><ele>207.0</ele><time>2026-04-12T11:09:07.048Z</time></trkpt><trkpt lat="43.083204" lon="13.4924676"><ele>207.0</ele><time>2026-04-12T11:09:08.013Z</time></trkpt><trkpt lat="43.0832617" lon="13.4925941"><ele>207.0</ele><time>2026-04-12T11:09:09.048Z</time></trkpt><trkpt lat="43.0833273" lon="13.4927338"><ele>207.0</ele><time>2026-04-12T11:09:10.049Z</time></trkpt><trkpt lat="43.0833929" lon="13.4928359"><ele>207.0</ele><time>2026-04-12T11:09:11.049Z</time></trkpt><trkpt lat="43.0834623" lon="13.4929073"><ele>205.25</ele><time>2026-04-12T11:09:12.063Z</time></trkpt><trkpt lat="43.0835635" lon="13.4929423"><ele>203.5</ele><time>2026-04-12T11:09:13.054Z</time></trkpt><trkpt lat="43.083686" lon="13.4929318"><ele>201.75</ele><time>2026-04-12T11:09:14.061Z</time></trkpt><trkpt lat="43.0838157" lon="13.4929102"><ele>200.0</ele><time>2026-04-12T11:09:15.043Z</time></trkpt><trkpt lat="43.0839515" lon="13.492885"><ele>198.8</ele><time>2026-04-12T11:09:16.046Z</time></trkpt><trkpt lat="43.0840722" lon="13.4928631"><ele>197.6</ele><time>2026-04-12T11:09:17.045Z</time></trkpt><trkpt lat="43.084175" lon="13.4928563"><ele>196.39999999999998</ele><time>2026-04-12T11:09:18.048Z</time></trkpt><trkpt lat="43.0842712" lon="13.4928488"><ele>195.2</ele><time>2026-04-12T11:09:19.025Z</time></trkpt><trkpt lat="43.084348" lon="13.4928796"><ele>194.0</ele><time>2026-04-12T11:09:20.04Z</time></trkpt><trkpt lat="43.0843993" lon="13.4929568"><ele>192.25</ele><time>2026-04-12T11:09:21.045Z</time></trkpt><trkpt lat="43.0844454" lon="13.4930767"><ele>190.5</ele><time>2026-04-12T11:09:22.026Z</time></trkpt><trkpt lat="43.0844834" lon="13.4932284"><ele>188.75</ele><time>2026-04-12T11:09:23.04Z</time></trkpt><trkpt lat="43.0845203" lon="13.493397"><ele>187.0</ele><time>2026-04-12T11:09:24.043Z</time></trkpt><trkpt lat="43.0845628" lon="13.4935784"><ele>187.33333333333334</ele><time>2026-04-12T11:09:25.038Z</time></trkpt><trkpt lat="43.0846179" lon="13.493773"><ele>187.66666666666666</ele><time>2026-04-12T11:09:26.027Z</time></trkpt><trkpt lat="43.0846726" lon="13.4939752"><ele>188.0</ele><time>2026-04-12T11:09:27.033Z</time></trkpt><trkpt lat="43.0847209" lon="13.4941735"><ele>188.0</ele><time>2026-04-12T11:09:28.008Z</time></trkpt><trkpt lat="43.0847749" lon="13.4943837"><ele>188.0</ele><time>2026-04-12T11:09:29.028Z</time></trkpt><trkpt lat="43.0848292" lon="13.4945951"><ele>188.0</ele><time>2026-04-12T11:09:30.075Z</time></trkpt><trkpt lat="43.0848764" lon="13.494793"><ele>189.66666666666666</ele><time>2026-04-12T11:09:31.065Z</time></trkpt><trkpt lat="43.0849282" lon="13.4950002"><ele>191.33333333333331</ele><time>2026-04-12T11:09:32.048Z</time></trkpt><trkpt lat="43.0849848" lon="13.4952062"><ele>193.0</ele><time>2026-04-12T11:09:33.048Z</time></trkpt><trkpt lat="43.0850455" lon="13.4954097"><ele>190.33333333333331</ele><time>2026-04-12T11:09:34.065Z</time></trkpt><trkpt lat="43.0850989" lon="13.4956141"><ele>187.66666666666666</ele><time>2026-04-12T11:09:35.07Z</time></trkpt><trkpt lat="43.0851455" lon="13.4958149"><ele>185.0</ele><time>2026-04-12T11:09:36.044Z</time></trkpt><trkpt lat="43.0851953" lon="13.4960059"><ele>185.0</ele><time>2026-04-12T11:09:37.066Z</time></trkpt><trkpt lat="43.0852426" lon="13.4961861"><ele>185.0</ele><time>2026-04-12T11:09:38.049Z</time></trkpt><trkpt lat="43.0852834" lon="13.496376"><ele>185.0</ele><time>2026-04-12T11:09:39.038Z</time></trkpt><trkpt lat="43.0853162" lon="13.4965681"><ele>185.0</ele><time>2026-04-12T11:09:40.024Z</time></trkpt><trkpt lat="43.0853312" lon="13.4967657"><ele>185.0</ele><time>2026-04-12T11:09:41.025Z</time></trkpt><trkpt lat="43.0853321" lon="13.4969651"><ele>185.0</ele><time>2026-04-12T11:09:42.076Z</time></trkpt><trkpt lat="43.0853281" lon="13.4971691"><ele>185.0</ele><time>2026-04-12T11:09:43.064Z</time></trkpt><trkpt lat="43.0853175" lon="13.4973591"><ele>185.0</ele><time>2026-04-12T11:09:44.047Z</time></trkpt><trkpt lat="43.0853041" lon="13.4975496"><ele>185.0</ele><time>2026-04-12T11:09:45.003Z</time></trkpt><trkpt lat="43.0852856" lon="13.4977222"><ele>185.0</ele><time>2026-04-12T11:09:46.038Z</time></trkpt><trkpt lat="43.0852797" lon="13.4978884"><ele>185.0</ele><time>2026-04-12T11:09:47.038Z</time></trkpt><trkpt lat="43.0852595" lon="13.4980339"><ele>185.0</ele><time>2026-04-12T11:09:48.045Z</time></trkpt><trkpt lat="43.0852271" lon="13.4981626"><ele>184.8</ele><time>2026-04-12T11:09:49.013Z</time></trkpt><trkpt lat="43.0851967" lon="13.4982881"><ele>184.6</ele><time>2026-04-12T11:09:50.035Z</time></trkpt><trkpt lat="43.0851737" lon="13.4984197"><ele>184.39999999999998</ele><time>2026-04-12T11:09:51.044Z</time></trkpt><trkpt lat="43.0851546" lon="13.4985773"><ele>184.2</ele><time>2026-04-12T11:09:52.039Z</time></trkpt><trkpt lat="43.0851489" lon="13.4987471"><ele>184.0</ele><time>2026-04-12T11:09:53.038Z</time></trkpt><trkpt lat="43.0851576" lon="13.4989365"><ele>184.0</ele><time>2026-04-12T11:09:54.035Z</time></trkpt><trkpt lat="43.0851728" lon="13.4991298"><ele>184.0</ele><time>2026-04-12T11:09:55.031Z</time></trkpt><trkpt lat="43.0851888" lon="13.499334"><ele>184.0</ele><time>2026-04-12T11:09:56.033Z</time></trkpt><trkpt lat="43.0852079" lon="13.4995451"><ele>184.0</ele><time>2026-04-12T11:09:57.044Z</time></trkpt><trkpt lat="43.0852407" lon="13.4997669"><ele>184.0</ele><time>2026-04-12T11:09:58.035Z</time></trkpt><trkpt lat="43.0852881" lon="13.4999895"><ele>184.0</ele><time>2026-04-12T11:09:59.03Z</time></trkpt><trkpt lat="43.0853364" lon="13.5002163"><ele>184.0</ele><time>2026-04-12T11:10:00.04Z</time></trkpt><trkpt lat="43.0853835" lon="13.5004438"><ele>184.66666666666669</ele><time>2026-04-12T11:10:01.031Z</time></trkpt><trkpt lat="43.0854358" lon="13.5006677"><ele>185.33333333333334</ele><time>2026-04-12T11:10:02.039Z</time></trkpt><trkpt lat="43.0854943" lon="13.500896"><ele>186.0</ele><time>2026-04-12T11:10:03.043Z</time></trkpt><trkpt lat="43.0855501" lon="13.5011256"><ele>186.33333333333334</ele><time>2026-04-12T11:10:04.031Z</time></trkpt><trkpt lat="43.0856072" lon="13.5013515"><ele>186.66666666666669</ele><time>2026-04-12T11:10:05.053Z</time></trkpt><trkpt lat="43.0856721" lon="13.501578"><ele>187.0</ele><time>2026-04-12T11:10:06.048Z</time></trkpt><trkpt lat="43.085739" lon="13.5017949"><ele>185.33333333333334</ele><time>2026-04-12T11:10:07.059Z</time></trkpt><trkpt lat="43.0858025" lon="13.5020202"><ele>183.66666666666666</ele><time>2026-04-12T11:10:08.051Z</time></trkpt><trkpt lat="43.0858632" lon="13.5022288"><ele>182.0</ele><time>2026-04-12T11:10:09.038Z</time></trkpt><trkpt lat="43.085924" lon="13.5024159"><ele>182.0</ele><time>2026-04-12T11:10:10.049Z</time></trkpt><trkpt lat="43.0859752" lon="13.5026042"><ele>182.0</ele><time>2026-04-12T11:10:11.013Z</time></trkpt><trkpt lat="43.0860225" lon="13.5027988"><ele>182.0</ele><time>2026-04-12T11:10:12.041Z</time></trkpt><trkpt lat="43.0860664" lon="13.5029951"><ele>182.0</ele><time>2026-04-12T11:10:13.029Z</time></trkpt><trkpt lat="43.0861029" lon="13.503162"><ele>182.39999999999998</ele><time>2026-04-12T11:10:14.045Z</time></trkpt><trkpt lat="43.086136" lon="13.5033217"><ele>182.79999999999998</ele><time>2026-04-12T11:10:15.028Z</time></trkpt><trkpt lat="43.0861705" lon="13.5034728"><ele>183.2</ele><time>2026-04-12T11:10:16.029Z</time></trkpt><trkpt lat="43.0862072" lon="13.5036168"><ele>183.6</ele><time>2026-04-12T11:10:17.03Z</time></trkpt><trkpt lat="43.0862345" lon="13.503745"><ele>184.0</ele><time>2026-04-12T11:10:18.059Z</time></trkpt><trkpt lat="43.0862591" lon="13.5038584"><ele>184.83333333333334</ele><time>2026-04-12T11:10:19.043Z</time></trkpt><trkpt lat="43.0862805" lon="13.5039661"><ele>185.66666666666669</ele><time>2026-04-12T11:10:20.035Z</time></trkpt><trkpt lat="43.0863099" lon="13.5040515"><ele>186.5</ele><time>2026-04-12T11:10:21.038Z</time></trkpt><trkpt lat="43.0863471" lon="13.504202"><ele>187.33333333333334</ele><time>2026-04-12T11:10:23.045Z</time></trkpt><trkpt lat="43.0862731" lon="13.5043056"><ele>188.16666666666666</ele><time>2026-04-12T11:10:26.026Z</time></trkpt><trkpt lat="43.086212" lon="13.504342"><ele>189.0</ele><time>2026-04-12T11:10:27.014Z</time></trkpt><trkpt lat="43.0861255" lon="13.5043686"><ele>189.0</ele><time>2026-04-12T11:10:28.034Z</time></trkpt><trkpt lat="43.0860241" lon="13.5043865"><ele>189.0</ele><time>2026-04-12T11:10:29.034Z</time></trkpt><trkpt lat="43.0859251" lon="13.5044043"><ele>189.0</ele><time>2026-04-12T11:10:30.013Z</time></trkpt><trkpt lat="43.085831" lon="13.5044334"><ele>189.0</ele><time>2026-04-12T11:10:31.031Z</time></trkpt><trkpt lat="43.0857" lon="13.504483"><ele>189.0</ele><time>2026-04-12T11:10:32.039Z</time></trkpt><trkpt lat="43.0855375" lon="13.5045216"><ele>192.0</ele><time>2026-04-12T11:10:33.01Z</time></trkpt><trkpt lat="43.0854043" lon="13.5045363"><ele>195.0</ele><time>2026-04-12T11:10:34.04Z</time></trkpt><trkpt lat="43.0852913" lon="13.5045429"><ele>198.0</ele><time>2026-04-12T11:10:35.06Z</time></trkpt><trkpt lat="43.0851951" lon="13.5045636"><ele>201.0</ele><time>2026-04-12T11:10:36.039Z</time></trkpt><trkpt lat="43.0851074" lon="13.5045849"><ele>204.0</ele><time>2026-04-12T11:10:37.047Z</time></trkpt><trkpt lat="43.0850141" lon="13.5046161"><ele>207.0</ele><time>2026-04-12T11:10:38.047Z</time></trkpt><trkpt lat="43.0849286" lon="13.5046348"><ele>210.0</ele><time>2026-04-12T11:10:39.024Z</time></trkpt><trkpt lat="43.084825" lon="13.5046306"><ele>212.99999999999997</ele><time>2026-04-12T11:10:40.008Z</time></trkpt><trkpt lat="43.084727" lon="13.5046248"><ele>216.0</ele><time>2026-04-12T11:10:41.02Z</time></trkpt><trkpt lat="43.0846526" lon="13.5046351"><ele>219.0</ele><time>2026-04-12T11:10:42.06Z</time></trkpt><trkpt lat="43.084558" lon="13.5047879"><ele>219.0</ele><time>2026-04-12T11:10:44.023Z</time></trkpt><trkpt lat="43.0845161" lon="13.5049357"><ele>219.0</ele><time>2026-04-12T11:10:45.039Z</time></trkpt><trkpt lat="43.0844931" lon="13.5051173"><ele>219.0</ele><time>2026-04-12T11:10:46.029Z</time></trkpt><trkpt lat="43.0844887" lon="13.505309"><ele>219.0</ele><time>2026-04-12T11:10:47.049Z</time></trkpt><trkpt lat="43.0844749" lon="13.5054941"><ele>220.75</ele><time>2026-04-12T11:10:48.034Z</time></trkpt><trkpt lat="43.0844416" lon="13.5056622"><ele>222.5</ele><time>2026-04-12T11:10:49.041Z</time></trkpt><trkpt lat="43.0844004" lon="13.505827"><ele>224.25</ele><time>2026-04-12T11:10:50.032Z</time></trkpt><trkpt lat="43.08435" lon="13.5059835"><ele>226.0</ele><time>2026-04-12T11:10:51.02Z</time></trkpt><trkpt lat="43.0842983" lon="13.5061429"><ele>230.0</ele><time>2026-04-12T11:10:52.005Z</time></trkpt><trkpt lat="43.0842258" lon="13.5063109"><ele>234.0</ele><time>2026-04-12T11:10:53.001Z</time></trkpt><trkpt lat="43.0841449" lon="13.5064865"><ele>238.0</ele><time>2026-04-12T11:10:54.053Z</time></trkpt><trkpt lat="43.0840702" lon="13.5066573"><ele>242.0</ele><time>2026-04-12T11:10:55.015Z</time></trkpt><trkpt lat="43.0839892" lon="13.5068138"><ele>244.5</ele><time>2026-04-12T11:10:56.01Z</time></trkpt><trkpt lat="43.0839095" lon="13.506972"><ele>247.0</ele><time>2026-04-12T11:10:57.041Z</time></trkpt><trkpt lat="43.0838367" lon="13.5071231"><ele>249.5</ele><time>2026-04-12T11:10:58.045Z</time></trkpt><trkpt lat="43.0837652" lon="13.507283"><ele>252.0</ele><time>2026-04-12T11:10:59.025Z</time></trkpt><trkpt lat="43.0836798" lon="13.5074415"><ele>255.0</ele><time>2026-04-12T11:11:00.033Z</time></trkpt><trkpt lat="43.0835929" lon="13.5075978"><ele>258.0</ele><time>2026-04-12T11:11:01.037Z</time></trkpt><trkpt lat="43.0834999" lon="13.5077565"><ele>261.0</ele><time>2026-04-12T11:11:02.04Z</time></trkpt><trkpt lat="43.0834021" lon="13.5079347"><ele>264.6666666666667</ele><time>2026-04-12T11:11:03.035Z</time></trkpt><trkpt lat="43.0832925" lon="13.5081087"><ele>268.33333333333337</ele><time>2026-04-12T11:11:04.037Z</time></trkpt><trkpt lat="43.0831706" lon="13.5082935"><ele>272.0</ele><time>2026-04-12T11:11:05.034Z</time></trkpt><trkpt lat="43.0830533" lon="13.5084821"><ele>276.33333333333337</ele><time>2026-04-12T11:11:06.035Z</time></trkpt><trkpt lat="43.0829538" lon="13.5086446"><ele>280.6666666666667</ele><time>2026-04-12T11:11:07.026Z</time></trkpt><trkpt lat="43.0828577" lon="13.5088067"><ele>285.0</ele><time>2026-04-12T11:11:08.041Z</time></trkpt><trkpt lat="43.0827637" lon="13.5089684"><ele>285.75</ele><time>2026-04-12T11:11:09.042Z</time></trkpt><trkpt lat="43.0826782" lon="13.5091221"><ele>286.5</ele><time>2026-04-12T11:11:10.062Z</time></trkpt><trkpt lat="43.082596" lon="13.5092474"><ele>287.25</ele><time>2026-04-12T11:11:11.045Z</time></trkpt><trkpt lat="43.0825355" lon="13.5093722"><ele>288.0</ele><time>2026-04-12T11:11:12.054Z</time></trkpt><trkpt lat="43.0824637" lon="13.509483"><ele>290.4</ele><time>2026-04-12T11:11:13.067Z</time></trkpt><trkpt lat="43.0823897" lon="13.5095701"><ele>292.8</ele><time>2026-04-12T11:11:13.991Z</time></trkpt><trkpt lat="43.0823089" lon="13.5096285"><ele>295.2</ele><time>2026-04-12T11:11:15.05Z</time></trkpt><trkpt lat="43.0822162" lon="13.5096607"><ele>297.6</ele><time>2026-04-12T11:11:16.037Z</time></trkpt><trkpt lat="43.0821176" lon="13.5097024"><ele>300.0</ele><time>2026-04-12T11:11:17.044Z</time></trkpt><trkpt lat="43.082038" lon="13.5097494"><ele>300.0</ele><time>2026-04-12T11:11:18.057Z</time></trkpt><trkpt lat="43.0819631" lon="13.5098713"><ele>300.0</ele><time>2026-04-12T11:11:20.05Z</time></trkpt><trkpt lat="43.0819654" lon="13.5099826"><ele>300.0</ele><time>2026-04-12T11:11:21.027Z</time></trkpt><trkpt lat="43.0819703" lon="13.5101631"><ele>300.0</ele><time>2026-04-12T11:11:22.027Z</time></trkpt><trkpt lat="43.0819888" lon="13.5103627"><ele>298.75</ele><time>2026-04-12T11:11:23.035Z</time></trkpt><trkpt lat="43.082008" lon="13.5105613"><ele>297.5</ele><time>2026-04-12T11:11:24.024Z</time></trkpt><trkpt lat="43.0820181" lon="13.5107297"><ele>296.25</ele><time>2026-04-12T11:11:25.055Z</time></trkpt><trkpt lat="43.0820257" lon="13.510858"><ele>295.0</ele><time>2026-04-12T11:11:26.032Z</time></trkpt><trkpt lat="43.0820354" lon="13.5109766"><ele>295.0</ele><time>2026-04-12T11:11:27.041Z</time></trkpt><trkpt lat="43.0820489" lon="13.5111025"><ele>295.0</ele><time>2026-04-12T11:11:29.042Z</time></trkpt><trkpt lat="43.0820972" lon="13.5111863"><ele>295.0</ele><time>2026-04-12T11:11:31.039Z</time></trkpt><trkpt lat="43.0821509" lon="13.5112418"><ele>295.0</ele><time>2026-04-12T11:11:32.057Z</time></trkpt><trkpt lat="43.0822493" lon="13.5113038"><ele>295.0</ele><time>2026-04-12T11:11:33.039Z</time></trkpt><trkpt lat="43.0823502" lon="13.51139"><ele>293.66666666666663</ele><time>2026-04-12T11:11:34.052Z</time></trkpt><trkpt lat="43.082462" lon="13.5115254"><ele>292.3333333333333</ele><time>2026-04-12T11:11:35.053Z</time></trkpt><trkpt lat="43.0825644" lon="13.5116811"><ele>291.0</ele><time>2026-04-12T11:11:36.038Z</time></trkpt><trkpt lat="43.082677" lon="13.5118528"><ele>291.0</ele><time>2026-04-12T11:11:37.029Z</time></trkpt><trkpt lat="43.0827921" lon="13.512038"><ele>291.0</ele><time>2026-04-12T11:11:38.051Z</time></trkpt><trkpt lat="43.0829103" lon="13.5122109"><ele>291.0</ele><time>2026-04-12T11:11:39.034Z</time></trkpt><trkpt lat="43.0830304" lon="13.5123991"><ele>290.6666666666667</ele><time>2026-04-12T11:11:40.042Z</time></trkpt><trkpt lat="43.0831574" lon="13.5125934"><ele>290.33333333333337</ele><time>2026-04-12T11:11:41.036Z</time></trkpt><trkpt lat="43.0832938" lon="13.5127911"><ele>290.0</ele><time>2026-04-12T11:11:42.035Z</time></trkpt><trkpt lat="43.0834291" lon="13.513"><ele>286.33333333333337</ele><time>2026-04-12T11:11:43.065Z</time></trkpt><trkpt lat="43.0835583" lon="13.5132025"><ele>282.6666666666667</ele><time>2026-04-12T11:11:44.06Z</time></trkpt><trkpt lat="43.0836841" lon="13.5133972"><ele>279.0</ele><time>2026-04-12T11:11:45.026Z</time></trkpt><trkpt lat="43.0838116" lon="13.5135798"><ele>279.3333333333333</ele><time>2026-04-12T11:11:46.063Z</time></trkpt><trkpt lat="43.0839346" lon="13.5137663"><ele>279.66666666666663</ele><time>2026-04-12T11:11:47.055Z</time></trkpt><trkpt lat="43.0840578" lon="13.5139637"><ele>280.0</ele><time>2026-04-12T11:11:48.055Z</time></trkpt><trkpt lat="43.084171" lon="13.5141559"><ele>280.0</ele><time>2026-04-12T11:11:49.058Z</time></trkpt><trkpt lat="43.0842691" lon="13.5143518"><ele>280.0</ele><time>2026-04-12T11:11:50.014Z</time></trkpt><trkpt lat="43.0843646" lon="13.514548"><ele>280.0</ele><time>2026-04-12T11:11:51.043Z</time></trkpt><trkpt lat="43.0844498" lon="13.5147519"><ele>278.0</ele><time>2026-04-12T11:11:52.056Z</time></trkpt><trkpt lat="43.0845306" lon="13.514949"><ele>276.0</ele><time>2026-04-12T11:11:53.058Z</time></trkpt><trkpt lat="43.0846103" lon="13.5151494"><ele>274.0</ele><time>2026-04-12T11:11:54.036Z</time></trkpt><trkpt lat="43.0846811" lon="13.5153552"><ele>271.3333333333333</ele><time>2026-04-12T11:11:55.049Z</time></trkpt><trkpt lat="43.0847439" lon="13.5155692"><ele>268.6666666666667</ele><time>2026-04-12T11:11:56.053Z</time></trkpt><trkpt lat="43.0848089" lon="13.5157867"><ele>266.0</ele><time>2026-04-12T11:11:57.06Z</time></trkpt><trkpt lat="43.0848643" lon="13.5160065"><ele>266.0</ele><time>2026-04-12T11:11:58.056Z</time></trkpt><trkpt lat="43.0849231" lon="13.5162302"><ele>266.0</ele><time>2026-04-12T11:11:59.069Z</time></trkpt><trkpt lat="43.0849752" lon="13.5164491"><ele>266.0</ele><time>2026-04-12T11:12:00.078Z</time></trkpt><trkpt lat="43.0850224" lon="13.5166804"><ele>271.33333333333337</ele><time>2026-04-12T11:12:01.053Z</time></trkpt><trkpt lat="43.0850751" lon="13.5169064"><ele>276.6666666666667</ele><time>2026-04-12T11:12:02.043Z</time></trkpt><trkpt lat="43.0851219" lon="13.5171383"><ele>282.0</ele><time>2026-04-12T11:12:03.064Z</time></trkpt><trkpt lat="43.0851699" lon="13.5173738"><ele>282.0</ele><time>2026-04-12T11:12:04.032Z</time></trkpt><trkpt lat="43.0852217" lon="13.517611"><ele>282.0</ele><time>2026-04-12T11:12:05.064Z</time></trkpt><trkpt lat="43.0852724" lon="13.5178455"><ele>282.0</ele><time>2026-04-12T11:12:06.053Z</time></trkpt><trkpt lat="43.0853224" lon="13.5180796"><ele>281.0</ele><time>2026-04-12T11:12:07.06Z</time></trkpt><trkpt lat="43.0853758" lon="13.5183201"><ele>280.0</ele><time>2026-04-12T11:12:08.044Z</time></trkpt><trkpt lat="43.0854351" lon="13.5185618"><ele>279.0</ele><time>2026-04-12T11:12:09.041Z</time></trkpt><trkpt lat="43.0854848" lon="13.5187997"><ele>276.6666666666667</ele><time>2026-04-12T11:12:10.06Z</time></trkpt><trkpt lat="43.0855369" lon="13.519041"><ele>274.33333333333337</ele><time>2026-04-12T11:12:11.046Z</time></trkpt><trkpt lat="43.0855939" lon="13.5192974"><ele>272.0</ele><time>2026-04-12T11:12:12.02Z</time></trkpt><trkpt lat="43.0856472" lon="13.5195523"><ele>270.6666666666667</ele><time>2026-04-12T11:12:13.045Z</time></trkpt><trkpt lat="43.0856896" lon="13.5197898"><ele>269.3333333333333</ele><time>2026-04-12T11:12:14.049Z</time></trkpt><trkpt lat="43.085735" lon="13.5200089"><ele>268.0</ele><time>2026-04-12T11:12:15.053Z</time></trkpt><trkpt lat="43.0857974" lon="13.5202188"><ele>269.66666666666663</ele><time>2026-04-12T11:12:16.048Z</time></trkpt><trkpt lat="43.0858689" lon="13.5203951"><ele>271.3333333333333</ele><time>2026-04-12T11:12:17.063Z</time></trkpt><trkpt lat="43.085959" lon="13.5205678"><ele>273.0</ele><time>2026-04-12T11:12:18.043Z</time></trkpt><trkpt lat="43.0860645" lon="13.5207255"><ele>273.0</ele><time>2026-04-12T11:12:19.049Z</time></trkpt><trkpt lat="43.0861934" lon="13.5208593"><ele>273.0</ele><time>2026-04-12T11:12:20.04Z</time></trkpt><trkpt lat="43.0863533" lon="13.5210059"><ele>273.0</ele><time>2026-04-12T11:12:21.039Z</time></trkpt><trkpt lat="43.086539" lon="13.5211723"><ele>271.6666666666667</ele><time>2026-04-12T11:12:22.054Z</time></trkpt><trkpt lat="43.0867288" lon="13.521325"><ele>270.33333333333337</ele><time>2026-04-12T11:12:23.047Z</time></trkpt><trkpt lat="43.0869205" lon="13.5214781"><ele>269.0</ele><time>2026-04-12T11:12:24.042Z</time></trkpt><trkpt lat="43.0870935" lon="13.5216181"><ele>269.0</ele><time>2026-04-12T11:12:25.029Z</time></trkpt><trkpt lat="43.0872646" lon="13.5217631"><ele>269.0</ele><time>2026-04-12T11:12:26.059Z</time></trkpt><trkpt lat="43.0874213" lon="13.5219038"><ele>269.0</ele><time>2026-04-12T11:12:27.048Z</time></trkpt><trkpt lat="43.087576" lon="13.5220426"><ele>268.33333333333337</ele><time>2026-04-12T11:12:28.051Z</time></trkpt><trkpt lat="43.0877226" lon="13.5221837"><ele>267.6666666666667</ele><time>2026-04-12T11:12:29.054Z</time></trkpt><trkpt lat="43.0878622" lon="13.522307"><ele>267.0</ele><time>2026-04-12T11:12:30.059Z</time></trkpt><trkpt lat="43.0879764" lon="13.5224201"><ele>267.0</ele><time>2026-04-12T11:12:31.02Z</time></trkpt><trkpt lat="43.0880578" lon="13.522536"><ele>267.0</ele><time>2026-04-12T11:12:32.047Z</time></trkpt><trkpt lat="43.0881392" lon="13.5226282"><ele>267.0</ele><time>2026-04-12T11:12:33.057Z</time></trkpt><trkpt lat="43.0882044" lon="13.5227121"><ele>267.0</ele><time>2026-04-12T11:12:34.047Z</time></trkpt><trkpt lat="43.0882555" lon="13.5227867"><ele>267.0</ele><time>2026-04-12T11:12:35.048Z</time></trkpt><trkpt lat="43.0883031" lon="13.5228462"><ele>269.1666666666667</ele><time>2026-04-12T11:12:36.059Z</time></trkpt><trkpt lat="43.0883822" lon="13.5228591"><ele>271.3333333333333</ele><time>2026-04-12T11:12:38.046Z</time></trkpt><trkpt lat="43.0884448" lon="13.5227585"><ele>273.5</ele><time>2026-04-12T11:12:40.037Z</time></trkpt><trkpt lat="43.0884735" lon="13.5226789"><ele>275.66666666666663</ele><time>2026-04-12T11:12:41.052Z</time></trkpt><trkpt lat="43.0884906" lon="13.5225775"><ele>277.8333333333333</ele><time>2026-04-12T11:12:42.034Z</time></trkpt><trkpt lat="43.0885014" lon="13.5224771"><ele>280.0</ele><time>2026-04-12T11:12:43.016Z</time></trkpt><trkpt lat="43.0885364" lon="13.5223922"><ele>280.0</ele><time>2026-04-12T11:12:44.053Z</time></trkpt><trkpt lat="43.0885758" lon="13.5223194"><ele>280.0</ele><time>2026-04-12T11:12:45.018Z</time></trkpt><trkpt lat="43.0886536" lon="13.5222181"><ele>280.0</ele><time>2026-04-12T11:12:47.041Z</time></trkpt><trkpt lat="43.0887488" lon="13.5220984"><ele>280.0</ele><time>2026-04-12T11:12:49.052Z</time></trkpt><trkpt lat="43.088801" lon="13.522024"><ele>280.0</ele><time>2026-04-12T11:12:50.033Z</time></trkpt><trkpt lat="43.08886" lon="13.5219506"><ele>279.3333333333333</ele><time>2026-04-12T11:12:51.04Z</time></trkpt><trkpt lat="43.0889244" lon="13.5218608"><ele>278.66666666666663</ele><time>2026-04-12T11:12:52.028Z</time></trkpt><trkpt lat="43.0889862" lon="13.5217651"><ele>278.0</ele><time>2026-04-12T11:12:53.043Z</time></trkpt><trkpt lat="43.0890556" lon="13.5216816"><ele>277.3333333333333</ele><time>2026-04-12T11:12:54.038Z</time></trkpt><trkpt lat="43.089122" lon="13.5216204"><ele>276.6666666666667</ele><time>2026-04-12T11:12:55.047Z</time></trkpt><trkpt lat="43.0891971" lon="13.5215583"><ele>276.0</ele><time>2026-04-12T11:12:56.053Z</time></trkpt><trkpt lat="43.0892777" lon="13.5215185"><ele>273.6</ele><time>2026-04-12T11:12:57.053Z</time></trkpt><trkpt lat="43.0893601" lon="13.5214717"><ele>271.20000000000005</ele><time>2026-04-12T11:12:58.034Z</time></trkpt><trkpt lat="43.08944" lon="13.5214395"><ele>268.79999999999995</ele><time>2026-04-12T11:12:59.042Z</time></trkpt><trkpt lat="43.0895416" lon="13.5214305"><ele>266.4</ele><time>2026-04-12T11:13:00.031Z</time></trkpt><trkpt lat="43.0896501" lon="13.5214322"><ele>264.0</ele><time>2026-04-12T11:13:01.04Z</time></trkpt><trkpt lat="43.0897536" lon="13.5214497"><ele>264.0</ele><time>2026-04-12T11:13:02.04Z</time></trkpt><trkpt lat="43.0898464" lon="13.5214587"><ele>264.0</ele><time>2026-04-12T11:13:03.041Z</time></trkpt><trkpt lat="43.0899435" lon="13.5214628"><ele>264.0</ele><time>2026-04-12T11:13:04.035Z</time></trkpt><trkpt lat="43.0900436" lon="13.5214752"><ele>264.0</ele><time>2026-04-12T11:13:05.029Z</time></trkpt><trkpt lat="43.0901404" lon="13.521481"><ele>264.0</ele><time>2026-04-12T11:13:06.019Z</time></trkpt><trkpt lat="43.0902277" lon="13.5215"><ele>262.0</ele><time>2026-04-12T11:13:07.034Z</time></trkpt><trkpt lat="43.0903155" lon="13.5215264"><ele>260.0</ele><time>2026-04-12T11:13:08.032Z</time></trkpt><trkpt lat="43.090404" lon="13.5215557"><ele>258.0</ele><time>2026-04-12T11:13:09.043Z</time></trkpt><trkpt lat="43.0904968" lon="13.5215705"><ele>256.0</ele><time>2026-04-12T11:13:10.055Z</time></trkpt><trkpt lat="43.0905975" lon="13.5215799"><ele>254.0</ele><time>2026-04-12T11:13:11.06Z</time></trkpt><trkpt lat="43.0906995" lon="13.5215913"><ele>251.33333333333334</ele><time>2026-04-12T11:13:12.045Z</time></trkpt><trkpt lat="43.0907859" lon="13.5216231"><ele>248.66666666666669</ele><time>2026-04-12T11:13:13.037Z</time></trkpt><trkpt lat="43.0908686" lon="13.5216568"><ele>246.0</ele><time>2026-04-12T11:13:14.052Z</time></trkpt><trkpt lat="43.0909529" lon="13.5216935"><ele>243.33333333333331</ele><time>2026-04-12T11:13:15.056Z</time></trkpt><trkpt lat="43.0910192" lon="13.5217173"><ele>240.66666666666666</ele><time>2026-04-12T11:13:16.037Z</time></trkpt><trkpt lat="43.0911238" lon="13.5217768"><ele>238.0</ele><time>2026-04-12T11:13:18.049Z</time></trkpt><trkpt lat="43.0911935" lon="13.5217572"><ele>237.99999999999997</ele><time>2026-04-12T11:13:20.049Z</time></trkpt><trkpt lat="43.0912021" lon="13.5216366"><ele>238.0</ele><time>2026-04-12T11:13:22.044Z</time></trkpt><trkpt lat="43.0911517" lon="13.5215378"><ele>238.0</ele><time>2026-04-12T11:13:23.026Z</time></trkpt><trkpt lat="43.091102" lon="13.521444"><ele>238.0</ele><time>2026-04-12T11:13:24.03Z</time></trkpt><trkpt lat="43.0910539" lon="13.5213352"><ele>237.99999999999997</ele><time>2026-04-12T11:13:25.035Z</time></trkpt><trkpt lat="43.0910023" lon="13.5212404"><ele>238.0</ele><time>2026-04-12T11:13:25.996Z</time></trkpt><trkpt lat="43.090945" lon="13.521143"><ele>237.33333333333331</ele><time>2026-04-12T11:13:26.987Z</time></trkpt><trkpt lat="43.090899" lon="13.5210507"><ele>236.66666666666666</ele><time>2026-04-12T11:13:28.042Z</time></trkpt><trkpt lat="43.0908531" lon="13.5209475"><ele>236.0</ele><time>2026-04-12T11:13:29.031Z</time></trkpt><trkpt lat="43.0908095" lon="13.5208435"><ele>235.33333333333331</ele><time>2026-04-12T11:13:30.032Z</time></trkpt><trkpt lat="43.0907729" lon="13.5207429"><ele>234.66666666666666</ele><time>2026-04-12T11:13:31.032Z</time></trkpt><trkpt lat="43.0907411" lon="13.5206456"><ele>234.0</ele><time>2026-04-12T11:13:32.041Z</time></trkpt><trkpt lat="43.0907209" lon="13.5205499"><ele>230.66666666666666</ele><time>2026-04-12T11:13:33.045Z</time></trkpt><trkpt lat="43.0907345" lon="13.5203926"><ele>227.33333333333331</ele><time>2026-04-12T11:13:35.04Z</time></trkpt><trkpt lat="43.0907698" lon="13.520303"><ele>224.0</ele><time>2026-04-12T11:13:36.032Z</time></trkpt><trkpt lat="43.0908046" lon="13.5202199"><ele>220.66666666666666</ele><time>2026-04-12T11:13:37.036Z</time></trkpt><trkpt lat="43.0908263" lon="13.5201234"><ele>217.33333333333331</ele><time>2026-04-12T11:13:38.037Z</time></trkpt><trkpt lat="43.0908361" lon="13.520026"><ele>214.0</ele><time>2026-04-12T11:13:39.044Z</time></trkpt><trkpt lat="43.0908287" lon="13.5199358"><ele>212.49999999999997</ele><time>2026-04-12T11:13:40.017Z</time></trkpt><trkpt lat="43.0908167" lon="13.5198343"><ele>211.0</ele><time>2026-04-12T11:13:41.019Z</time></trkpt><trkpt lat="43.0907981" lon="13.5197513"><ele>209.5</ele><time>2026-04-12T11:13:42.038Z</time></trkpt><trkpt lat="43.0907677" lon="13.5195898"><ele>208.0</ele><time>2026-04-12T11:13:43.991Z</time></trkpt><trkpt lat="43.0907851" lon="13.5194934"><ele>206.49999999999997</ele><time>2026-04-12T11:13:45.031Z</time></trkpt><trkpt lat="43.0908513" lon="13.5194479"><ele>205.0</ele><time>2026-04-12T11:13:47.043Z</time></trkpt><trkpt lat="43.090941" lon="13.5195243"><ele>204.99999999999997</ele><time>2026-04-12T11:13:48.99Z</time></trkpt><trkpt lat="43.0909985" lon="13.5195898"><ele>205.0</ele><time>2026-04-12T11:13:49.99Z</time></trkpt><trkpt lat="43.0910727" lon="13.5196492"><ele>205.0</ele><time>2026-04-12T11:13:51.043Z</time></trkpt><trkpt lat="43.0911443" lon="13.5197195"><ele>205.0</ele><time>2026-04-12T11:13:52.044Z</time></trkpt><trkpt lat="43.0912098" lon="13.5197869"><ele>204.99999999999997</ele><time>2026-04-12T11:13:53.029Z</time></trkpt><trkpt lat="43.0912687" lon="13.5198438"><ele>205.0</ele><time>2026-04-12T11:13:54.035Z</time></trkpt><trkpt lat="43.0913267" lon="13.5198788"><ele>205.0</ele><time>2026-04-12T11:13:55.03Z</time></trkpt><trkpt lat="43.091394" lon="13.5198966"><ele>205.0</ele><time>2026-04-12T11:13:56.049Z</time></trkpt><trkpt lat="43.0915172" lon="13.5198198"><ele>205.0</ele><time>2026-04-12T11:13:58.035Z</time></trkpt><trkpt lat="43.0916225" lon="13.5197054"><ele>205.0</ele><time>2026-04-12T11:14:00.046Z</time></trkpt><trkpt lat="43.0916956" lon="13.5196326"><ele>205.0</ele><time>2026-04-12T11:14:01.05Z</time></trkpt><trkpt lat="43.0917719" lon="13.5195522"><ele>200.6</ele><time>2026-04-12T11:14:02.026Z</time></trkpt><trkpt lat="43.0918496" lon="13.5194729"><ele>196.2</ele><time>2026-04-12T11:14:03.038Z</time></trkpt><trkpt lat="43.0919317" lon="13.5193832"><ele>191.8</ele><time>2026-04-12T11:14:04.046Z</time></trkpt><trkpt lat="43.092016" lon="13.5192947"><ele>187.4</ele><time>2026-04-12T11:14:05.027Z</time></trkpt><trkpt lat="43.0921045" lon="13.5192005"><ele>183.0</ele><time>2026-04-12T11:14:06.043Z</time></trkpt><trkpt lat="43.0921925" lon="13.5191083"><ele>183.0</ele><time>2026-04-12T11:14:07.045Z</time></trkpt><trkpt lat="43.0922682" lon="13.5190184"><ele>183.0</ele><time>2026-04-12T11:14:08.014Z</time></trkpt><trkpt lat="43.0923408" lon="13.5189403"><ele>183.0</ele><time>2026-04-12T11:14:09.001Z</time></trkpt><trkpt lat="43.0924148" lon="13.5188676"><ele>183.0</ele><time>2026-04-12T11:14:10.026Z</time></trkpt><trkpt lat="43.0924852" lon="13.518797"><ele>183.0</ele><time>2026-04-12T11:14:10.986Z</time></trkpt><trkpt lat="43.0925481" lon="13.518741"><ele>183.0</ele><time>2026-04-12T11:14:12.068Z</time></trkpt><trkpt lat="43.0926069" lon="13.5186895"><ele>182.2</ele><time>2026-04-12T11:14:13.015Z</time></trkpt><trkpt lat="43.0926852" lon="13.5185921"><ele>181.4</ele><time>2026-04-12T11:14:15.043Z</time></trkpt><trkpt lat="43.0927611" lon="13.5185551"><ele>180.6</ele><time>2026-04-12T11:14:18.036Z</time></trkpt><trkpt lat="43.0928273" lon="13.5187002"><ele>179.79999999999998</ele><time>2026-04-12T11:14:20.001Z</time></trkpt><trkpt lat="43.092875" lon="13.5187861"><ele>179.0</ele><time>2026-04-12T11:14:21.038Z</time></trkpt><trkpt lat="43.0929253" lon="13.5188887"><ele>178.6</ele><time>2026-04-12T11:14:22.03Z</time></trkpt><trkpt lat="43.0929846" lon="13.5190009"><ele>178.2</ele><time>2026-04-12T11:14:23.056Z</time></trkpt><trkpt lat="43.0930299" lon="13.5191049"><ele>177.79999999999998</ele><time>2026-04-12T11:14:24.037Z</time></trkpt><trkpt lat="43.0930678" lon="13.519185"><ele>177.39999999999998</ele><time>2026-04-12T11:14:25.019Z</time></trkpt><trkpt lat="43.0931517" lon="13.5192732"><ele>177.0</ele><time>2026-04-12T11:14:27.025Z</time></trkpt><trkpt lat="43.0932661" lon="13.5192354"><ele>176.39999999999998</ele><time>2026-04-12T11:14:29.047Z</time></trkpt><trkpt lat="43.0933376" lon="13.5191705"><ele>175.79999999999998</ele><time>2026-04-12T11:14:30.016Z</time></trkpt><trkpt lat="43.0934209" lon="13.5190838"><ele>175.2</ele><time>2026-04-12T11:14:31.047Z</time></trkpt><trkpt lat="43.0935114" lon="13.5189875"><ele>174.6</ele><time>2026-04-12T11:14:32.049Z</time></trkpt><trkpt lat="43.0936029" lon="13.5188817"><ele>174.0</ele><time>2026-04-12T11:14:33.046Z</time></trkpt><trkpt lat="43.093699" lon="13.5187733"><ele>174.0</ele><time>2026-04-12T11:14:34.06Z</time></trkpt><trkpt lat="43.0938057" lon="13.5186663"><ele>174.0</ele><time>2026-04-12T11:14:35.036Z</time></trkpt><trkpt lat="43.0939159" lon="13.5185507"><ele>174.0</ele><time>2026-04-12T11:14:36.057Z</time></trkpt><trkpt lat="43.0940224" lon="13.5184319"><ele>174.0</ele><time>2026-04-12T11:14:37.046Z</time></trkpt><trkpt lat="43.0941314" lon="13.5183179"><ele>173.0</ele><time>2026-04-12T11:14:38.063Z</time></trkpt><trkpt lat="43.0942394" lon="13.5182"><ele>172.0</ele><time>2026-04-12T11:14:39.058Z</time></trkpt><trkpt lat="43.0943538" lon="13.5180891"><ele>171.0</ele><time>2026-04-12T11:14:40.049Z</time></trkpt><trkpt lat="43.0944552" lon="13.5179769"><ele>170.0</ele><time>2026-04-12T11:14:41.034Z</time></trkpt><trkpt lat="43.094548" lon="13.5178707"><ele>170.0</ele><time>2026-04-12T11:14:42.032Z</time></trkpt><trkpt lat="43.0946341" lon="13.5177778"><ele>170.0</ele><time>2026-04-12T11:14:43.049Z</time></trkpt><trkpt lat="43.0946983" lon="13.5177096"><ele>170.0</ele><time>2026-04-12T11:14:44.043Z</time></trkpt><trkpt lat="43.0947787" lon="13.5176619"><ele>170.0</ele><time>2026-04-12T11:14:46.05Z</time></trkpt><trkpt lat="43.0948483" lon="13.5178053"><ele>170.0</ele><time>2026-04-12T11:14:48.038Z</time></trkpt><trkpt lat="43.0948701" lon="13.5179151"><ele>170.0</ele><time>2026-04-12T11:14:49.037Z</time></trkpt><trkpt lat="43.0948966" lon="13.5180448"><ele>170.0</ele><time>2026-04-12T11:14:50.024Z</time></trkpt><trkpt lat="43.094947" lon="13.5181901"><ele>170.0</ele><time>2026-04-12T11:14:51.009Z</time></trkpt><trkpt lat="43.0950023" lon="13.5183362"><ele>170.0</ele><time>2026-04-12T11:14:51.985Z</time></trkpt><trkpt lat="43.0950707" lon="13.5184882"><ele>169.5</ele><time>2026-04-12T11:14:53.029Z</time></trkpt><trkpt lat="43.0951478" lon="13.5186184"><ele>169.0</ele><time>2026-04-12T11:14:54.03Z</time></trkpt><trkpt lat="43.0952306" lon="13.5187447"><ele>168.5</ele><time>2026-04-12T11:14:55.079Z</time></trkpt><trkpt lat="43.0953037" lon="13.5188793"><ele>168.0</ele><time>2026-04-12T11:14:56.046Z</time></trkpt><trkpt lat="43.0953795" lon="13.5190244"><ele>168.0</ele><time>2026-04-12T11:14:57.037Z</time></trkpt><trkpt lat="43.0954575" lon="13.5191657"><ele>168.0</ele><time>2026-04-12T11:14:58.039Z</time></trkpt><trkpt lat="43.0955358" lon="13.5192921"><ele>168.0</ele><time>2026-04-12T11:14:59.007Z</time></trkpt><trkpt lat="43.0955942" lon="13.5194108"><ele>168.0</ele><time>2026-04-12T11:15:00.032Z</time></trkpt><trkpt lat="43.0956502" lon="13.5195431"><ele>168.0</ele><time>2026-04-12T11:15:01.043Z</time></trkpt><trkpt lat="43.0956961" lon="13.5197107"><ele>168.0</ele><time>2026-04-12T11:15:02.052Z</time></trkpt><trkpt lat="43.0957531" lon="13.5198682"><ele>168.0</ele><time>2026-04-12T11:15:03.053Z</time></trkpt><trkpt lat="43.0958071" lon="13.5200358"><ele>168.0</ele><time>2026-04-12T11:15:04.064Z</time></trkpt><trkpt lat="43.0958558" lon="13.5201936"><ele>167.60000000000002</ele><time>2026-04-12T11:15:05.064Z</time></trkpt><trkpt lat="43.0958931" lon="13.5203331"><ele>167.20000000000002</ele><time>2026-04-12T11:15:06.045Z</time></trkpt><trkpt lat="43.0959219" lon="13.5204626"><ele>166.8</ele><time>2026-04-12T11:15:07.045Z</time></trkpt><trkpt lat="43.0959373" lon="13.5205929"><ele>166.4</ele><time>2026-04-12T11:15:08.032Z</time></trkpt><trkpt lat="43.095945" lon="13.5207393"><ele>166.0</ele><time>2026-04-12T11:15:09.006Z</time></trkpt><trkpt lat="43.0959572" lon="13.5208946"><ele>166.0</ele><time>2026-04-12T11:15:10.059Z</time></trkpt><trkpt lat="43.0959681" lon="13.5210582"><ele>166.0</ele><time>2026-04-12T11:15:11.053Z</time></trkpt><trkpt lat="43.095976" lon="13.5212309"><ele>166.0</ele><time>2026-04-12T11:15:12.035Z</time></trkpt><trkpt lat="43.0959749" lon="13.5214154"><ele>166.0</ele><time>2026-04-12T11:15:13.047Z</time></trkpt><trkpt lat="43.0959783" lon="13.5216108"><ele>166.0</ele><time>2026-04-12T11:15:14.031Z</time></trkpt><trkpt lat="43.0959905" lon="13.5218054"><ele>166.0</ele><time>2026-04-12T11:15:15.068Z</time></trkpt><trkpt lat="43.0960237" lon="13.5219941"><ele>166.0</ele><time>2026-04-12T11:15:16.045Z</time></trkpt><trkpt lat="43.0960502" lon="13.5221479"><ele>166.0</ele><time>2026-04-12T11:15:17.055Z</time></trkpt><trkpt lat="43.0960785" lon="13.5223034"><ele>166.0</ele><time>2026-04-12T11:15:18.056Z</time></trkpt><trkpt lat="43.0960864" lon="13.5224484"><ele>166.0</ele><time>2026-04-12T11:15:19.05Z</time></trkpt><trkpt lat="43.0960639" lon="13.5225897"><ele>166.0</ele><time>2026-04-12T11:15:20.035Z</time></trkpt><trkpt lat="43.0960193" lon="13.5227451"><ele>166.0</ele><time>2026-04-12T11:15:21.034Z</time></trkpt><trkpt lat="43.0959773" lon="13.5229242"><ele>166.5</ele><time>2026-04-12T11:15:22.056Z</time></trkpt><trkpt lat="43.0959401" lon="13.5231053"><ele>167.0</ele><time>2026-04-12T11:15:23.043Z</time></trkpt><trkpt lat="43.0959314" lon="13.5232725"><ele>167.5</ele><time>2026-04-12T11:15:24.026Z</time></trkpt><trkpt lat="43.0959218" lon="13.5234289"><ele>168.0</ele><time>2026-04-12T11:15:25.035Z</time></trkpt><trkpt lat="43.0959381" lon="13.5235813"><ele>167.75</ele><time>2026-04-12T11:15:26.029Z</time></trkpt><trkpt lat="43.0959635" lon="13.5237411"><ele>167.5</ele><time>2026-04-12T11:15:27.061Z</time></trkpt><trkpt lat="43.095989" lon="13.5239346"><ele>167.25</ele><time>2026-04-12T11:15:28.044Z</time></trkpt><trkpt lat="43.0960217" lon="13.5241444"><ele>167.0</ele><time>2026-04-12T11:15:29.022Z</time></trkpt><trkpt lat="43.0960543" lon="13.5243529"><ele>167.0</ele><time>2026-04-12T11:15:30.029Z</time></trkpt><trkpt lat="43.0960935" lon="13.5245588"><ele>167.0</ele><time>2026-04-12T11:15:31.045Z</time></trkpt><trkpt lat="43.0961299" lon="13.524771"><ele>167.0</ele><time>2026-04-12T11:15:32.061Z</time></trkpt><trkpt lat="43.0961482" lon="13.5249722"><ele>167.0</ele><time>2026-04-12T11:15:33.039Z</time></trkpt><trkpt lat="43.0961716" lon="13.5251629"><ele>167.0</ele><time>2026-04-12T11:15:34.049Z</time></trkpt><trkpt lat="43.0962011" lon="13.5253399"><ele>167.0</ele><time>2026-04-12T11:15:35.041Z</time></trkpt><trkpt lat="43.09623" lon="13.525513"><ele>167.0</ele><time>2026-04-12T11:15:36.047Z</time></trkpt><trkpt lat="43.0962561" lon="13.525696"><ele>167.5</ele><time>2026-04-12T11:15:37.052Z</time></trkpt><trkpt lat="43.0962766" lon="13.5259002"><ele>168.0</ele><time>2026-04-12T11:15:38.033Z</time></trkpt><trkpt lat="43.0962878" lon="13.5260901"><ele>168.5</ele><time>2026-04-12T11:15:39.032Z</time></trkpt><trkpt lat="43.0962985" lon="13.5262724"><ele>169.0</ele><time>2026-04-12T11:15:40.038Z</time></trkpt><trkpt lat="43.0962988" lon="13.5264347"><ele>169.0</ele><time>2026-04-12T11:15:41.041Z</time></trkpt><trkpt lat="43.0962985" lon="13.5265811"><ele>169.0</ele><time>2026-04-12T11:15:42.034Z</time></trkpt><trkpt lat="43.0963005" lon="13.526719"><ele>169.0</ele><time>2026-04-12T11:15:43.066Z</time></trkpt><trkpt lat="43.0963177" lon="13.5268691"><ele>169.0</ele><time>2026-04-12T11:15:44.028Z</time></trkpt><trkpt lat="43.0963447" lon="13.5270439"><ele>169.0</ele><time>2026-04-12T11:15:45.038Z</time></trkpt><trkpt lat="43.0963599" lon="13.527225"><ele>169.5</ele><time>2026-04-12T11:15:46.034Z</time></trkpt><trkpt lat="43.0963691" lon="13.5273955"><ele>170.0</ele><time>2026-04-12T11:15:47.039Z</time></trkpt><trkpt lat="43.0963755" lon="13.5275655"><ele>170.5</ele><time>2026-04-12T11:15:48.056Z</time></trkpt><trkpt lat="43.0963857" lon="13.5277272"><ele>171.0</ele><time>2026-04-12T11:15:49.037Z</time></trkpt><trkpt lat="43.0964138" lon="13.5278868"><ele>170.75</ele><time>2026-04-12T11:15:50.023Z</time></trkpt><trkpt lat="43.0964342" lon="13.528044"><ele>170.5</ele><time>2026-04-12T11:15:51.037Z</time></trkpt><trkpt lat="43.0964547" lon="13.5282065"><ele>170.25</ele><time>2026-04-12T11:15:52.003Z</time></trkpt><trkpt lat="43.0964661" lon="13.5283925"><ele>170.0</ele><time>2026-04-12T11:15:53.032Z</time></trkpt><trkpt lat="43.0964808" lon="13.5285983"><ele>169.0</ele><time>2026-04-12T11:15:54.037Z</time></trkpt><trkpt lat="43.0965034" lon="13.5287976"><ele>168.0</ele><time>2026-04-12T11:15:55.012Z</time></trkpt><trkpt lat="43.0965251" lon="13.5290113"><ele>167.0</ele><time>2026-04-12T11:15:56.059Z</time></trkpt><trkpt lat="43.0965367" lon="13.5292337"><ele>167.0</ele><time>2026-04-12T11:15:57.002Z</time></trkpt><trkpt lat="43.0965587" lon="13.5294515"><ele>167.0</ele><time>2026-04-12T11:15:58.062Z</time></trkpt><trkpt lat="43.0965991" lon="13.5296492"><ele>167.0</ele><time>2026-04-12T11:15:59.041Z</time></trkpt><trkpt lat="43.0966423" lon="13.5298332"><ele>166.6</ele><time>2026-04-12T11:16:00.048Z</time></trkpt><trkpt lat="43.0966749" lon="13.5300149"><ele>166.2</ele><time>2026-04-12T11:16:01.034Z</time></trkpt><trkpt lat="43.0966927" lon="13.5301752"><ele>165.8</ele><time>2026-04-12T11:16:02.023Z</time></trkpt><trkpt lat="43.096703" lon="13.5303055"><ele>165.4</ele><time>2026-04-12T11:16:03.033Z</time></trkpt><trkpt lat="43.0967122" lon="13.5304353"><ele>165.0</ele><time>2026-04-12T11:16:04.042Z</time></trkpt><trkpt lat="43.0967142" lon="13.5305608"><ele>165.0</ele><time>2026-04-12T11:16:05.057Z</time></trkpt><trkpt lat="43.0967081" lon="13.5306932"><ele>165.0</ele><time>2026-04-12T11:16:06.048Z</time></trkpt><trkpt lat="43.0966923" lon="13.5308295"><ele>165.0</ele><time>2026-04-12T11:16:07.054Z</time></trkpt><trkpt lat="43.0966827" lon="13.5309698"><ele>165.0</ele><time>2026-04-12T11:16:08.059Z</time></trkpt><trkpt lat="43.0966873" lon="13.5311116"><ele>165.0</ele><time>2026-04-12T11:16:09.051Z</time></trkpt><trkpt lat="43.0967028" lon="13.5312693"><ele>164.75</ele><time>2026-04-12T11:16:10.048Z</time></trkpt><trkpt lat="43.0967198" lon="13.5314469"><ele>164.5</ele><time>2026-04-12T11:16:11.054Z</time></trkpt><trkpt lat="43.0967402" lon="13.5316252"><ele>164.25</ele><time>2026-04-12T11:16:12.047Z</time></trkpt><trkpt lat="43.0967558" lon="13.5317953"><ele>164.0</ele><time>2026-04-12T11:16:13.054Z</time></trkpt><trkpt lat="43.0967795" lon="13.5319532"><ele>164.0</ele><time>2026-04-12T11:16:14.036Z</time></trkpt><trkpt lat="43.0968184" lon="13.532101"><ele>164.0</ele><time>2026-04-12T11:16:15.058Z</time></trkpt><trkpt lat="43.0968468" lon="13.5322473"><ele>164.0</ele><time>2026-04-12T11:16:16.056Z</time></trkpt><trkpt lat="43.0968732" lon="13.5324051"><ele>164.0</ele><time>2026-04-12T11:16:17.055Z</time></trkpt><trkpt lat="43.0969056" lon="13.5325593"><ele>164.0</ele><time>2026-04-12T11:16:18.065Z</time></trkpt><trkpt lat="43.0969453" lon="13.5327203"><ele>164.0</ele><time>2026-04-12T11:16:19.066Z</time></trkpt><trkpt lat="43.0969853" lon="13.5328744"><ele>164.0</ele><time>2026-04-12T11:16:20.049Z</time></trkpt><trkpt lat="43.0970284" lon="13.5330305"><ele>164.0</ele><time>2026-04-12T11:16:21.056Z</time></trkpt><trkpt lat="43.0970616" lon="13.533184"><ele>164.6</ele><time>2026-04-12T11:16:22.043Z</time></trkpt><trkpt lat="43.0970963" lon="13.5333229"><ele>165.2</ele><time>2026-04-12T11:16:23.047Z</time></trkpt><trkpt lat="43.0971451" lon="13.533448"><ele>165.79999999999998</ele><time>2026-04-12T11:16:24.049Z</time></trkpt><trkpt lat="43.0971964" lon="13.5335408"><ele>166.39999999999998</ele><time>2026-04-12T11:16:25.044Z</time></trkpt><trkpt lat="43.0972403" lon="13.5336167"><ele>167.0</ele><time>2026-04-12T11:16:26.051Z</time></trkpt><trkpt lat="43.097271" lon="13.5337226"><ele>167.5</ele><time>2026-04-12T11:16:26.995Z</time></trkpt><trkpt lat="43.097277" lon="13.5338747"><ele>168.0</ele><time>2026-04-12T11:16:28.045Z</time></trkpt><trkpt lat="43.0972742" lon="13.5340334"><ele>168.5</ele><time>2026-04-12T11:16:29.046Z</time></trkpt><trkpt lat="43.09729" lon="13.5341893"><ele>169.0</ele><time>2026-04-12T11:16:30.055Z</time></trkpt><trkpt lat="43.097323" lon="13.5343474"><ele>169.0</ele><time>2026-04-12T11:16:31.041Z</time></trkpt><trkpt lat="43.0973571" lon="13.5345178"><ele>169.0</ele><time>2026-04-12T11:16:32.029Z</time></trkpt><trkpt lat="43.0973916" lon="13.5346902"><ele>169.0</ele><time>2026-04-12T11:16:33.04Z</time></trkpt><trkpt lat="43.0974287" lon="13.5348603"><ele>169.0</ele><time>2026-04-12T11:16:34.046Z</time></trkpt><trkpt lat="43.0974688" lon="13.5350238"><ele>166.75</ele><time>2026-04-12T11:16:35.033Z</time></trkpt><trkpt lat="43.0975107" lon="13.5351872"><ele>164.5</ele><time>2026-04-12T11:16:36.045Z</time></trkpt><trkpt lat="43.0975542" lon="13.5353505"><ele>162.25</ele><time>2026-04-12T11:16:37.063Z</time></trkpt><trkpt lat="43.0975895" lon="13.5355177"><ele>160.0</ele><time>2026-04-12T11:16:38.049Z</time></trkpt><trkpt lat="43.0976181" lon="13.5356855"><ele>160.0</ele><time>2026-04-12T11:16:39.034Z</time></trkpt><trkpt lat="43.0976473" lon="13.5358618"><ele>160.0</ele><time>2026-04-12T11:16:40.049Z</time></trkpt><trkpt lat="43.0976756" lon="13.5360512"><ele>160.0</ele><time>2026-04-12T11:16:41.034Z</time></trkpt><trkpt lat="43.097696" lon="13.5362447"><ele>160.0</ele><time>2026-04-12T11:16:42.037Z</time></trkpt><trkpt lat="43.097712" lon="13.5364361"><ele>159.75</ele><time>2026-04-12T11:16:43.052Z</time></trkpt><trkpt lat="43.0977298" lon="13.5366346"><ele>159.5</ele><time>2026-04-12T11:16:44.034Z</time></trkpt><trkpt lat="43.0977376" lon="13.5368345"><ele>159.25</ele><time>2026-04-12T11:16:45.036Z</time></trkpt><trkpt lat="43.0977432" lon="13.537037"><ele>159.0</ele><time>2026-04-12T11:16:46.034Z</time></trkpt><trkpt lat="43.0977442" lon="13.5372392"><ele>159.0</ele><time>2026-04-12T11:16:47.028Z</time></trkpt><trkpt lat="43.0977379" lon="13.5374287"><ele>159.0</ele><time>2026-04-12T11:16:48.042Z</time></trkpt><trkpt lat="43.0977329" lon="13.5376369"><ele>159.0</ele><time>2026-04-12T11:16:49.034Z</time></trkpt><trkpt lat="43.0977252" lon="13.5378417"><ele>159.0</ele><time>2026-04-12T11:16:50.033Z</time></trkpt><trkpt lat="43.0977195" lon="13.5380416"><ele>158.75</ele><time>2026-04-12T11:16:51.052Z</time></trkpt><trkpt lat="43.0977119" lon="13.5382394"><ele>158.5</ele><time>2026-04-12T11:16:52.044Z</time></trkpt><trkpt lat="43.0977067" lon="13.538414"><ele>158.25</ele><time>2026-04-12T11:16:53.035Z</time></trkpt><trkpt lat="43.0976995" lon="13.5385742"><ele>158.0</ele><time>2026-04-12T11:16:54.061Z</time></trkpt><trkpt lat="43.097699" lon="13.5387366"><ele>158.5</ele><time>2026-04-12T11:16:55.003Z</time></trkpt><trkpt lat="43.0977079" lon="13.5388874"><ele>159.0</ele><time>2026-04-12T11:16:56.042Z</time></trkpt><trkpt lat="43.0977073" lon="13.5390515"><ele>159.5</ele><time>2026-04-12T11:16:57.032Z</time></trkpt><trkpt lat="43.0976961" lon="13.5392167"><ele>160.0</ele><time>2026-04-12T11:16:58.049Z</time></trkpt><trkpt lat="43.0976713" lon="13.5394032"><ele>159.75</ele><time>2026-04-12T11:16:59.025Z</time></trkpt><trkpt lat="43.0976557" lon="13.5395916"><ele>159.5</ele><time>2026-04-12T11:17:00.036Z</time></trkpt><trkpt lat="43.0976406" lon="13.5397767"><ele>159.25</ele><time>2026-04-12T11:17:01.043Z</time></trkpt><trkpt lat="43.0976167" lon="13.5399586"><ele>159.0</ele><time>2026-04-12T11:17:02.034Z</time></trkpt><trkpt lat="43.0976029" lon="13.5401437"><ele>159.0</ele><time>2026-04-12T11:17:03.047Z</time></trkpt><trkpt lat="43.0975736" lon="13.5403301"><ele>159.0</ele><time>2026-04-12T11:17:04.045Z</time></trkpt><trkpt lat="43.097542" lon="13.5405122"><ele>159.0</ele><time>2026-04-12T11:17:05.054Z</time></trkpt><trkpt lat="43.0975228" lon="13.5406805"><ele>159.0</ele><time>2026-04-12T11:17:06.048Z</time></trkpt><trkpt lat="43.0974853" lon="13.5408149"><ele>158.8</ele><time>2026-04-12T11:17:07.036Z</time></trkpt><trkpt lat="43.0974439" lon="13.5409308"><ele>158.60000000000002</ele><time>2026-04-12T11:17:08.032Z</time></trkpt><trkpt lat="43.0973967" lon="13.541041"><ele>158.4</ele><time>2026-04-12T11:17:09.048Z</time></trkpt><trkpt lat="43.097361" lon="13.5411703"><ele>158.20000000000002</ele><time>2026-04-12T11:17:10.051Z</time></trkpt><trkpt lat="43.0973423" lon="13.5413131"><ele>158.0</ele><time>2026-04-12T11:17:11.053Z</time></trkpt><trkpt lat="43.0973278" lon="13.5414689"><ele>158.20000000000002</ele><time>2026-04-12T11:17:12.066Z</time></trkpt><trkpt lat="43.0973099" lon="13.5416209"><ele>158.4</ele><time>2026-04-12T11:17:13.036Z</time></trkpt><trkpt lat="43.0972838" lon="13.5417692"><ele>158.60000000000002</ele><time>2026-04-12T11:17:14.05Z</time></trkpt><trkpt lat="43.0972654" lon="13.5419271"><ele>158.8</ele><time>2026-04-12T11:17:15.053Z</time></trkpt><trkpt lat="43.0972267" lon="13.5420572"><ele>159.0</ele><time>2026-04-12T11:17:16.062Z</time></trkpt><trkpt lat="43.0971887" lon="13.542134"><ele>159.0</ele><time>2026-04-12T11:17:17.051Z</time></trkpt><trkpt lat="43.0970818" lon="13.5422075"><ele>159.0</ele><time>2026-04-12T11:17:19.039Z</time></trkpt><trkpt lat="43.0970107" lon="13.5421828"><ele>159.0</ele><time>2026-04-12T11:17:20.053Z</time></trkpt><trkpt lat="43.0969308" lon="13.5421254"><ele>159.0</ele><time>2026-04-12T11:17:21.047Z</time></trkpt><trkpt lat="43.0968477" lon="13.5420509"><ele>159.0</ele><time>2026-04-12T11:17:22.057Z</time></trkpt><trkpt lat="43.0967671" lon="13.5419527"><ele>159.83333333333334</ele><time>2026-04-12T11:17:23.038Z</time></trkpt><trkpt lat="43.0967002" lon="13.5418686"><ele>160.66666666666666</ele><time>2026-04-12T11:17:24.048Z</time></trkpt><trkpt lat="43.0966429" lon="13.5417712"><ele>161.5</ele><time>2026-04-12T11:17:25.049Z</time></trkpt><trkpt lat="43.0966016" lon="13.5416838"><ele>162.33333333333331</ele><time>2026-04-12T11:17:26.049Z</time></trkpt><trkpt lat="43.0965524" lon="13.5415747"><ele>163.16666666666666</ele><time>2026-04-12T11:17:28.063Z</time></trkpt><trkpt lat="43.0966358" lon="13.541548"><ele>164.0</ele><time>2026-04-12T11:17:32.039Z</time></trkpt><trkpt lat="43.0966739" lon="13.5416342"><ele>164.0</ele><time>2026-04-12T11:17:33.046Z</time></trkpt><trkpt lat="43.0967299" lon="13.5417201"><ele>164.0</ele><time>2026-04-12T11:17:33.987Z</time></trkpt><trkpt lat="43.0967926" lon="13.5418147"><ele>164.0</ele><time>2026-04-12T11:17:34.988Z</time></trkpt><trkpt lat="43.0968846" lon="13.5419033"><ele>164.0</ele><time>2026-04-12T11:17:36.031Z</time></trkpt><trkpt lat="43.0970012" lon="13.5419783"><ele>164.0</ele><time>2026-04-12T11:17:37.031Z</time></trkpt><trkpt lat="43.0971277" lon="13.5420407"><ele>162.33333333333331</ele><time>2026-04-12T11:17:38.027Z</time></trkpt><trkpt lat="43.097274" lon="13.5420875"><ele>160.66666666666666</ele><time>2026-04-12T11:17:39.058Z</time></trkpt><trkpt lat="43.0974324" lon="13.5421208"><ele>159.0</ele><time>2026-04-12T11:17:40.017Z</time></trkpt><trkpt lat="43.0975916" lon="13.5421649"><ele>158.33333333333334</ele><time>2026-04-12T11:17:41.055Z</time></trkpt><trkpt lat="43.0977652" lon="13.5422031"><ele>157.66666666666669</ele><time>2026-04-12T11:17:42.029Z</time></trkpt><trkpt lat="43.0979318" lon="13.542238"><ele>157.0</ele><time>2026-04-12T11:17:43.043Z</time></trkpt><trkpt lat="43.098087" lon="13.5422661"><ele>157.0</ele><time>2026-04-12T11:17:44.037Z</time></trkpt><trkpt lat="43.0982355" lon="13.5422966"><ele>157.0</ele><time>2026-04-12T11:17:45.032Z</time></trkpt><trkpt lat="43.0983749" lon="13.5423307"><ele>157.0</ele><time>2026-04-12T11:17:46.036Z</time></trkpt><trkpt lat="43.0984963" lon="13.5423465"><ele>157.0</ele><time>2026-04-12T11:17:47.014Z</time></trkpt><trkpt lat="43.0986054" lon="13.5423378"><ele>157.5</ele><time>2026-04-12T11:17:47.995Z</time></trkpt><trkpt lat="43.0986977" lon="13.5423151"><ele>158.0</ele><time>2026-04-12T11:17:49.036Z</time></trkpt><trkpt lat="43.0987804" lon="13.542289"><ele>158.5</ele><time>2026-04-12T11:17:50.038Z</time></trkpt><trkpt lat="43.0988432" lon="13.5422644"><ele>159.0</ele><time>2026-04-12T11:17:51.032Z</time></trkpt><trkpt lat="43.0989212" lon="13.5422778"><ele>159.5</ele><time>2026-04-12T11:17:53.054Z</time></trkpt><trkpt lat="43.0988468" lon="13.5423953"><ele>160.0</ele><time>2026-04-12T11:17:56.036Z</time></trkpt><trkpt lat="43.0987322" lon="13.5424404"><ele>160.0</ele><time>2026-04-12T11:17:58.042Z</time></trkpt><trkpt lat="43.0986472" lon="13.5425506"><ele>160.0</ele><time>2026-04-12T11:18:00.026Z</time></trkpt><trkpt lat="43.0986119" lon="13.5426446"><ele>160.0</ele><time>2026-04-12T11:18:01.043Z</time></trkpt><trkpt lat="43.0985912" lon="13.542764"><ele>160.0</ele><time>2026-04-12T11:18:02.051Z</time></trkpt><trkpt lat="43.0985635" lon="13.5428984"><ele>160.0</ele><time>2026-04-12T11:18:03.032Z</time></trkpt><trkpt lat="43.0985277" lon="13.5430579"><ele>160.0</ele><time>2026-04-12T11:18:04.045Z</time></trkpt><trkpt lat="43.0984889" lon="13.5432528"><ele>160.0</ele><time>2026-04-12T11:18:05.055Z</time></trkpt><trkpt lat="43.0984589" lon="13.5434472"><ele>160.0</ele><time>2026-04-12T11:18:06.053Z</time></trkpt><trkpt lat="43.0984324" lon="13.5436512"><ele>160.0</ele><time>2026-04-12T11:18:07.044Z</time></trkpt><trkpt lat="43.0984107" lon="13.5438666"><ele>160.0</ele><time>2026-04-12T11:18:08.052Z</time></trkpt><trkpt lat="43.0983902" lon="13.5440916"><ele>160.0</ele><time>2026-04-12T11:18:09.06Z</time></trkpt><trkpt lat="43.0983681" lon="13.5443103"><ele>160.0</ele><time>2026-04-12T11:18:10.045Z</time></trkpt><trkpt lat="43.0983418" lon="13.5445284"><ele>159.66666666666669</ele><time>2026-04-12T11:18:11.026Z</time></trkpt><trkpt lat="43.0983216" lon="13.5447443"><ele>159.33333333333334</ele><time>2026-04-12T11:18:12.039Z</time></trkpt><trkpt lat="43.0982952" lon="13.5449551"><ele>159.0</ele><time>2026-04-12T11:18:13.05Z</time></trkpt><trkpt lat="43.0982614" lon="13.545167"><ele>158.5</ele><time>2026-04-12T11:18:14.05Z</time></trkpt><trkpt lat="43.0982385" lon="13.5453711"><ele>158.0</ele><time>2026-04-12T11:18:15.059Z</time></trkpt><trkpt lat="43.0982148" lon="13.5455734"><ele>157.5</ele><time>2026-04-12T11:18:16.061Z</time></trkpt><trkpt lat="43.0981897" lon="13.5457723"><ele>157.0</ele><time>2026-04-12T11:18:17.01Z</time></trkpt><trkpt lat="43.0981675" lon="13.5459735"><ele>157.0</ele><time>2026-04-12T11:18:18.042Z</time></trkpt><trkpt lat="43.0981417" lon="13.5461833"><ele>157.0</ele><time>2026-04-12T11:18:19.031Z</time></trkpt><trkpt lat="43.0981188" lon="13.5463898"><ele>157.0</ele><time>2026-04-12T11:18:20.047Z</time></trkpt><trkpt lat="43.0980975" lon="13.5466026"><ele>157.0</ele><time>2026-04-12T11:18:21.014Z</time></trkpt><trkpt lat="43.0980721" lon="13.546813"><ele>157.0</ele><time>2026-04-12T11:18:22.046Z</time></trkpt><trkpt lat="43.0980465" lon="13.5470232"><ele>157.0</ele><time>2026-04-12T11:18:23.041Z</time></trkpt><trkpt lat="43.0980204" lon="13.5472352"><ele>157.0</ele><time>2026-04-12T11:18:24.03Z</time></trkpt><trkpt lat="43.0979961" lon="13.547446"><ele>157.0</ele><time>2026-04-12T11:18:24.988Z</time></trkpt><trkpt lat="43.0979797" lon="13.5476334"><ele>157.0</ele><time>2026-04-12T11:18:26.019Z</time></trkpt><trkpt lat="43.0979603" lon="13.5477945"><ele>157.0</ele><time>2026-04-12T11:18:27.048Z</time></trkpt><trkpt lat="43.097927" lon="13.5479363"><ele>157.33333333333334</ele><time>2026-04-12T11:18:28.049Z</time></trkpt><trkpt lat="43.0978899" lon="13.5480447"><ele>157.66666666666669</ele><time>2026-04-12T11:18:29.042Z</time></trkpt><trkpt lat="43.0978497" lon="13.5481153"><ele>158.0</ele><time>2026-04-12T11:18:30.087Z</time></trkpt><trkpt lat="43.0977717" lon="13.5481573"><ele>158.33333333333334</ele><time>2026-04-12T11:18:32.044Z</time></trkpt><trkpt lat="43.0976772" lon="13.5482208"><ele>158.66666666666666</ele><time>2026-04-12T11:18:34.04Z</time></trkpt><trkpt lat="43.0976603" lon="13.5483306"><ele>159.0</ele><time>2026-04-12T11:18:35.036Z</time></trkpt><trkpt lat="43.0976663" lon="13.5484799"><ele>159.0</ele><time>2026-04-12T11:18:36.04Z</time></trkpt><trkpt lat="43.0976679" lon="13.5486996"><ele>159.0</ele><time>2026-04-12T11:18:37.019Z</time></trkpt><trkpt lat="43.0976706" lon="13.5489436"><ele>159.0</ele><time>2026-04-12T11:18:38.049Z</time></trkpt><trkpt lat="43.097678" lon="13.5491934"><ele>159.0</ele><time>2026-04-12T11:18:39.044Z</time></trkpt><trkpt lat="43.0976888" lon="13.5494099"><ele>159.0</ele><time>2026-04-12T11:18:40.06Z</time></trkpt><trkpt lat="43.0976984" lon="13.5495978"><ele>159.0</ele><time>2026-04-12T11:18:41.022Z</time></trkpt><trkpt lat="43.0977301" lon="13.5497643"><ele>159.0</ele><time>2026-04-12T11:18:42.007Z</time></trkpt><trkpt lat="43.0977563" lon="13.5499084"><ele>159.0</ele><time>2026-04-12T11:18:43.032Z</time></trkpt><trkpt lat="43.0977987" lon="13.5500229"><ele>159.0</ele><time>2026-04-12T11:18:44.039Z</time></trkpt><trkpt lat="43.0978528" lon="13.5501351"><ele>159.0</ele><time>2026-04-12T11:18:45.007Z</time></trkpt><trkpt lat="43.097913" lon="13.5502406"><ele>159.0</ele><time>2026-04-12T11:18:46.033Z</time></trkpt><trkpt lat="43.0979639" lon="13.550328"><ele>159.0</ele><time>2026-04-12T11:18:47.032Z</time></trkpt><trkpt lat="43.0980222" lon="13.5504626"><ele>158.8</ele><time>2026-04-12T11:18:49.037Z</time></trkpt><trkpt lat="43.09806" lon="13.5505749"><ele>158.60000000000002</ele><time>2026-04-12T11:18:51.038Z</time></trkpt><trkpt lat="43.0981108" lon="13.5506572"><ele>158.4</ele><time>2026-04-12T11:18:53.039Z</time></trkpt><trkpt lat="43.0981953" lon="13.5506464"><ele>158.20000000000002</ele><time>2026-04-12T11:18:55.016Z</time></trkpt><trkpt lat="43.0982943" lon="13.5506467"><ele>158.0</ele><time>2026-04-12T11:18:57.053Z</time></trkpt><trkpt lat="43.0984117" lon="13.550678"><ele>157.5</ele><time>2026-04-12T11:18:59.039Z</time></trkpt><trkpt lat="43.0985197" lon="13.5507432"><ele>157.0</ele><time>2026-04-12T11:19:01.047Z</time></trkpt><trkpt lat="43.098587" lon="13.5507745"><ele>156.5</ele><time>2026-04-12T11:19:02.054Z</time></trkpt><trkpt lat="43.0986654" lon="13.5507986"><ele>156.0</ele><time>2026-04-12T11:19:03.039Z</time></trkpt><trkpt lat="43.0987504" lon="13.5508238"><ele>155.5</ele><time>2026-04-12T11:19:04.049Z</time></trkpt><trkpt lat="43.0988354" lon="13.5508448"><ele>155.0</ele><time>2026-04-12T11:19:05.027Z</time></trkpt><trkpt lat="43.098916" lon="13.5508748"><ele>155.0</ele><time>2026-04-12T11:19:06.043Z</time></trkpt><trkpt lat="43.0989953" lon="13.550902"><ele>155.0</ele><time>2026-04-12T11:19:07.055Z</time></trkpt><trkpt lat="43.099078" lon="13.5509412"><ele>155.0</ele><time>2026-04-12T11:19:07.993Z</time></trkpt><trkpt lat="43.0991741" lon="13.5509858"><ele>155.0</ele><time>2026-04-12T11:19:09.052Z</time></trkpt><trkpt lat="43.0992681" lon="13.5510535"><ele>155.0</ele><time>2026-04-12T11:19:10.046Z</time></trkpt><trkpt lat="43.0993546" lon="13.5511086"><ele>154.4</ele><time>2026-04-12T11:19:11.044Z</time></trkpt><trkpt lat="43.099431" lon="13.5511701"><ele>153.8</ele><time>2026-04-12T11:19:12.012Z</time></trkpt><trkpt lat="43.0995187" lon="13.5512399"><ele>153.2</ele><time>2026-04-12T11:19:13.041Z</time></trkpt><trkpt lat="43.0996002" lon="13.5513095"><ele>152.6</ele><time>2026-04-12T11:19:14.06Z</time></trkpt><trkpt lat="43.0996892" lon="13.5513977"><ele>152.0</ele><time>2026-04-12T11:19:15.049Z</time></trkpt><trkpt lat="43.0997575" lon="13.5514801"><ele>152.0</ele><time>2026-04-12T11:19:16.041Z</time></trkpt><trkpt lat="43.0998158" lon="13.5515695"><ele>152.0</ele><time>2026-04-12T11:19:17.053Z</time></trkpt><trkpt lat="43.0998746" lon="13.5516383"><ele>152.0</ele><time>2026-04-12T11:19:18.053Z</time></trkpt><trkpt lat="43.0999348" lon="13.5516949"><ele>152.0</ele><time>2026-04-12T11:19:19.067Z</time></trkpt><trkpt lat="43.1000182" lon="13.5517827"><ele>152.0</ele><time>2026-04-12T11:19:21.053Z</time></trkpt><trkpt lat="43.1000825" lon="13.5518527"><ele>152.0</ele><time>2026-04-12T11:19:23.042Z</time></trkpt><trkpt lat="43.1001573" lon="13.5519153"><ele>152.4</ele><time>2026-04-12T11:19:25.039Z</time></trkpt><trkpt lat="43.1002216" lon="13.5519786"><ele>152.79999999999998</ele><time>2026-04-12T11:19:26.042Z</time></trkpt><trkpt lat="43.1003251" lon="13.552071"><ele>153.2</ele><time>2026-04-12T11:19:28.053Z</time></trkpt><trkpt lat="43.1004354" lon="13.5521873"><ele>153.6</ele><time>2026-04-12T11:19:30.056Z</time></trkpt><trkpt lat="43.100504" lon="13.5522516"><ele>154.0</ele><time>2026-04-12T11:19:31.035Z</time></trkpt><trkpt lat="43.1005645" lon="13.5523239"><ele>154.0</ele><time>2026-04-12T11:19:32.039Z</time></trkpt><trkpt lat="43.1006329" lon="13.5523864"><ele>154.0</ele><time>2026-04-12T11:19:33.038Z</time></trkpt><trkpt lat="43.1007187" lon="13.5524631"><ele>154.0</ele><time>2026-04-12T11:19:34.03Z</time></trkpt><trkpt lat="43.1008028" lon="13.552549"><ele>154.0</ele><time>2026-04-12T11:19:35.035Z</time></trkpt><trkpt lat="43.1008801" lon="13.5526381"><ele>154.0</ele><time>2026-04-12T11:19:36.011Z</time></trkpt><trkpt lat="43.1009453" lon="13.5527277"><ele>153.83333333333334</ele><time>2026-04-12T11:19:37Z</time></trkpt><trkpt lat="43.1010257" lon="13.5528139"><ele>153.66666666666669</ele><time>2026-04-12T11:19:38.064Z</time></trkpt><trkpt lat="43.1010989" lon="13.5529012"><ele>153.5</ele><time>2026-04-12T11:19:39.041Z</time></trkpt><trkpt lat="43.101167" lon="13.552958"><ele>153.33333333333334</ele><time>2026-04-12T11:19:40.04Z</time></trkpt><trkpt lat="43.101232" lon="13.5530154"><ele>153.16666666666666</ele><time>2026-04-12T11:19:41.036Z</time></trkpt><trkpt lat="43.1013053" lon="13.5530778"><ele>153.0</ele><time>2026-04-12T11:19:42.015Z</time></trkpt><trkpt lat="43.101385" lon="13.5531607"><ele>153.0</ele><time>2026-04-12T11:19:43.033Z</time></trkpt><trkpt lat="43.1014639" lon="13.5532332"><ele>153.0</ele><time>2026-04-12T11:19:44.04Z</time></trkpt><trkpt lat="43.1015473" lon="13.5532923"><ele>153.0</ele><time>2026-04-12T11:19:45.041Z</time></trkpt><trkpt lat="43.101633" lon="13.5533504"><ele>153.0</ele><time>2026-04-12T11:19:46.047Z</time></trkpt><trkpt lat="43.1017319" lon="13.5534319"><ele>153.0</ele><time>2026-04-12T11:19:47.008Z</time></trkpt><trkpt lat="43.1018214" lon="13.5535161"><ele>152.8</ele><time>2026-04-12T11:19:48.055Z</time></trkpt><trkpt lat="43.1019151" lon="13.5535987"><ele>152.60000000000002</ele><time>2026-04-12T11:19:49.049Z</time></trkpt><trkpt lat="43.101998" lon="13.553664"><ele>152.39999999999998</ele><time>2026-04-12T11:19:50.02Z</time></trkpt><trkpt lat="43.102078" lon="13.5537041"><ele>152.2</ele><time>2026-04-12T11:19:51.031Z</time></trkpt><trkpt lat="43.1021432" lon="13.553748"><ele>152.0</ele><time>2026-04-12T11:19:52.033Z</time></trkpt><trkpt lat="43.1021798" lon="13.5538574"><ele>152.0</ele><time>2026-04-12T11:19:54.002Z</time></trkpt><trkpt lat="43.1021316" lon="13.5539964"><ele>152.0</ele><time>2026-04-12T11:19:56.027Z</time></trkpt><trkpt lat="43.1020355" lon="13.5541327"><ele>152.0</ele><time>2026-04-12T11:19:58.001Z</time></trkpt><trkpt lat="43.1019622" lon="13.5542009"><ele>152.0</ele><time>2026-04-12T11:19:59.045Z</time></trkpt><trkpt lat="43.1018886" lon="13.5542692"><ele>152.0</ele><time>2026-04-12T11:20:00.091Z</time></trkpt><trkpt lat="43.1018191" lon="13.554343"><ele>152.0</ele><time>2026-04-12T11:20:01.052Z</time></trkpt><trkpt lat="43.1017453" lon="13.5544021"><ele>152.0</ele><time>2026-04-12T11:20:02.048Z</time></trkpt><trkpt lat="43.1016794" lon="13.5544733"><ele>152.0</ele><time>2026-04-12T11:20:03.042Z</time></trkpt><trkpt lat="43.1016058" lon="13.5545411"><ele>152.0</ele><time>2026-04-12T11:20:04.027Z</time></trkpt><trkpt lat="43.1015363" lon="13.5546224"><ele>152.0</ele><time>2026-04-12T11:20:05.047Z</time></trkpt><trkpt lat="43.1014531" lon="13.554723"><ele>151.5</ele><time>2026-04-12T11:20:06.047Z</time></trkpt><trkpt lat="43.1013711" lon="13.5548162"><ele>151.0</ele><time>2026-04-12T11:20:07.059Z</time></trkpt><trkpt lat="43.1013073" lon="13.5549111"><ele>150.5</ele><time>2026-04-12T11:20:08.054Z</time></trkpt><trkpt lat="43.1012654" lon="13.5550116"><ele>150.0</ele><time>2026-04-12T11:20:09.061Z</time></trkpt><trkpt lat="43.1012512" lon="13.5551059"><ele>149.5</ele><time>2026-04-12T11:20:10.052Z</time></trkpt><trkpt lat="43.1012666" lon="13.5551992"><ele>149.0</ele><time>2026-04-12T11:20:11.045Z</time></trkpt><trkpt lat="43.1013111" lon="13.5553143"><ele>149.33333333333331</ele><time>2026-04-12T11:20:12.048Z</time></trkpt><trkpt lat="43.1013768" lon="13.5554604"><ele>149.66666666666666</ele><time>2026-04-12T11:20:13.034Z</time></trkpt><trkpt lat="43.1014821" lon="13.5556607"><ele>150.0</ele><time>2026-04-12T11:20:14.051Z</time></trkpt><trkpt lat="43.1016152" lon="13.5558915"><ele>150.0</ele><time>2026-04-12T11:20:15.029Z</time></trkpt><trkpt lat="43.1017604" lon="13.5561522"><ele>150.0</ele><time>2026-04-12T11:20:16.051Z</time></trkpt><trkpt lat="43.1019048" lon="13.5564185"><ele>149.0</ele><time>2026-04-12T11:20:17.04Z</time></trkpt><trkpt lat="43.1020378" lon="13.5566537"><ele>148.0</ele><time>2026-04-12T11:20:18.036Z</time></trkpt><trkpt lat="43.102164" lon="13.5568734"><ele>147.0</ele><time>2026-04-12T11:20:19.029Z</time></trkpt><trkpt lat="43.1022955" lon="13.5571062"><ele>147.66666666666666</ele><time>2026-04-12T11:20:20.04Z</time></trkpt><trkpt lat="43.1024173" lon="13.5573312"><ele>148.33333333333331</ele><time>2026-04-12T11:20:21.055Z</time></trkpt><trkpt lat="43.1025355" lon="13.5575394"><ele>149.0</ele><time>2026-04-12T11:20:22.042Z</time></trkpt><trkpt lat="43.1026456" lon="13.5577446"><ele>149.0</ele><time>2026-04-12T11:20:23.037Z</time></trkpt><trkpt lat="43.1027577" lon="13.5579333"><ele>149.0</ele><time>2026-04-12T11:20:24.041Z</time></trkpt><trkpt lat="43.102862" lon="13.5581254"><ele>149.0</ele><time>2026-04-12T11:20:25.056Z</time></trkpt><trkpt lat="43.1029675" lon="13.5583147"><ele>149.0</ele><time>2026-04-12T11:20:26.051Z</time></trkpt><trkpt lat="43.1030793" lon="13.5585064"><ele>149.0</ele><time>2026-04-12T11:20:27.036Z</time></trkpt><trkpt lat="43.1031814" lon="13.5586976"><ele>149.0</ele><time>2026-04-12T11:20:28.028Z</time></trkpt><trkpt lat="43.1032759" lon="13.5588811"><ele>148.66666666666666</ele><time>2026-04-12T11:20:29.045Z</time></trkpt><trkpt lat="43.1033727" lon="13.5590511"><ele>148.33333333333334</ele><time>2026-04-12T11:20:29.973Z</time></trkpt><trkpt lat="43.1034682" lon="13.55922"><ele>148.0</ele><time>2026-04-12T11:20:31.049Z</time></trkpt><trkpt lat="43.1035676" lon="13.5593937"><ele>147.0</ele><time>2026-04-12T11:20:32.04Z</time></trkpt><trkpt lat="43.103662" lon="13.5595659"><ele>146.0</ele><time>2026-04-12T11:20:33.081Z</time></trkpt><trkpt lat="43.1037633" lon="13.5597454"><ele>145.0</ele><time>2026-04-12T11:20:34.049Z</time></trkpt><trkpt lat="43.1038647" lon="13.5599213"><ele>145.0</ele><time>2026-04-12T11:20:35.027Z</time></trkpt><trkpt lat="43.1039609" lon="13.5600991"><ele>145.0</ele><time>2026-04-12T11:20:36.05Z</time></trkpt><trkpt lat="43.1040573" lon="13.5602716"><ele>145.0</ele><time>2026-04-12T11:20:37.029Z</time></trkpt><trkpt lat="43.1041491" lon="13.5604467"><ele>145.33333333333334</ele><time>2026-04-12T11:20:38.036Z</time></trkpt><trkpt lat="43.1042429" lon="13.5606166"><ele>145.66666666666666</ele><time>2026-04-12T11:20:39.038Z</time></trkpt><trkpt lat="43.1043336" lon="13.5607857"><ele>146.0</ele><time>2026-04-12T11:20:40.043Z</time></trkpt><trkpt lat="43.1044275" lon="13.5609461"><ele>146.0</ele><time>2026-04-12T11:20:41.001Z</time></trkpt><trkpt lat="43.1045219" lon="13.5611188"><ele>146.0</ele><time>2026-04-12T11:20:42.044Z</time></trkpt><trkpt lat="43.104617" lon="13.5612913"><ele>146.0</ele><time>2026-04-12T11:20:43.022Z</time></trkpt><trkpt lat="43.1046976" lon="13.5614209"><ele>146.0</ele><time>2026-04-12T11:20:44.041Z</time></trkpt><trkpt lat="43.1047692" lon="13.5615447"><ele>145.75</ele><time>2026-04-12T11:20:45.023Z</time></trkpt><trkpt lat="43.1048461" lon="13.5616754"><ele>145.5</ele><time>2026-04-12T11:20:46.019Z</time></trkpt><trkpt lat="43.1049171" lon="13.5618055"><ele>145.25</ele><time>2026-04-12T11:20:47.04Z</time></trkpt><trkpt lat="43.1049951" lon="13.5619306"><ele>145.0</ele><time>2026-04-12T11:20:48.042Z</time></trkpt><trkpt lat="43.1050811" lon="13.5620773"><ele>145.5</ele><time>2026-04-12T11:20:49.042Z</time></trkpt><trkpt lat="43.1051701" lon="13.5622311"><ele>146.0</ele><time>2026-04-12T11:20:50.03Z</time></trkpt><trkpt lat="43.105253" lon="13.5623669"><ele>146.5</ele><time>2026-04-12T11:20:51.055Z</time></trkpt><trkpt lat="43.1053298" lon="13.5625045"><ele>147.0</ele><time>2026-04-12T11:20:52.053Z</time></trkpt><trkpt lat="43.1053915" lon="13.5626408"><ele>147.0</ele><time>2026-04-12T11:20:53.044Z</time></trkpt><trkpt lat="43.1054517" lon="13.5627606"><ele>147.0</ele><time>2026-04-12T11:20:54.067Z</time></trkpt><trkpt lat="43.1055115" lon="13.5628724"><ele>147.0</ele><time>2026-04-12T11:20:55.003Z</time></trkpt><trkpt lat="43.1055853" lon="13.563001"><ele>147.0</ele><time>2026-04-12T11:20:56.048Z</time></trkpt><trkpt lat="43.1056609" lon="13.5631398"><ele>146.75</ele><time>2026-04-12T11:20:57.045Z</time></trkpt><trkpt lat="43.105744" lon="13.5633028"><ele>146.5</ele><time>2026-04-12T11:20:58.042Z</time></trkpt><trkpt lat="43.105834" lon="13.5634681"><ele>146.25</ele><time>2026-04-12T11:20:59.046Z</time></trkpt><trkpt lat="43.1059274" lon="13.5636345"><ele>146.0</ele><time>2026-04-12T11:21:00.048Z</time></trkpt><trkpt lat="43.1060206" lon="13.5638101"><ele>145.66666666666666</ele><time>2026-04-12T11:21:01.036Z</time></trkpt><trkpt lat="43.106117" lon="13.5639799"><ele>145.33333333333334</ele><time>2026-04-12T11:21:02.053Z</time></trkpt><trkpt lat="43.1062125" lon="13.5641622"><ele>145.0</ele><time>2026-04-12T11:21:03.062Z</time></trkpt><trkpt lat="43.1063135" lon="13.5643394"><ele>145.0</ele><time>2026-04-12T11:21:04.061Z</time></trkpt><trkpt lat="43.1064149" lon="13.5645215"><ele>145.0</ele><time>2026-04-12T11:21:05.03Z</time></trkpt><trkpt lat="43.1065199" lon="13.5647052"><ele>145.0</ele><time>2026-04-12T11:21:06.053Z</time></trkpt><trkpt lat="43.1066223" lon="13.5648952"><ele>145.0</ele><time>2026-04-12T11:21:07.063Z</time></trkpt><trkpt lat="43.1067263" lon="13.5650897"><ele>145.0</ele><time>2026-04-12T11:21:08.007Z</time></trkpt><trkpt lat="43.106832" lon="13.5652749"><ele>145.0</ele><time>2026-04-12T11:21:09.038Z</time></trkpt><trkpt lat="43.1069389" lon="13.5654711"><ele>144.66666666666669</ele><time>2026-04-12T11:21:10.021Z</time></trkpt><trkpt lat="43.1070516" lon="13.5656701"><ele>144.33333333333334</ele><time>2026-04-12T11:21:11.035Z</time></trkpt><trkpt lat="43.107161" lon="13.5658675"><ele>144.0</ele><time>2026-04-12T11:21:12.053Z</time></trkpt><trkpt lat="43.1072712" lon="13.5660623"><ele>143.66666666666666</ele><time>2026-04-12T11:21:13.047Z</time></trkpt><trkpt lat="43.1073755" lon="13.5662555"><ele>143.33333333333331</ele><time>2026-04-12T11:21:14.065Z</time></trkpt><trkpt lat="43.107482" lon="13.5664402"><ele>143.0</ele><time>2026-04-12T11:21:15.055Z</time></trkpt><trkpt lat="43.1075873" lon="13.5666342"><ele>143.0</ele><time>2026-04-12T11:21:16.03Z</time></trkpt><trkpt lat="43.107696" lon="13.5668274"><ele>143.0</ele><time>2026-04-12T11:21:17.04Z</time></trkpt><trkpt lat="43.107805" lon="13.5670196"><ele>143.0</ele><time>2026-04-12T11:21:18.045Z</time></trkpt><trkpt lat="43.1079096" lon="13.5672094"><ele>143.0</ele><time>2026-04-12T11:21:19.051Z</time></trkpt><trkpt lat="43.1080154" lon="13.5673999"><ele>143.0</ele><time>2026-04-12T11:21:20.035Z</time></trkpt><trkpt lat="43.1081232" lon="13.5675973"><ele>143.0</ele><time>2026-04-12T11:21:21.04Z</time></trkpt><trkpt lat="43.108239" lon="13.5677903"><ele>143.33333333333331</ele><time>2026-04-12T11:21:22.058Z</time></trkpt><trkpt lat="43.1083508" lon="13.5679809"><ele>143.66666666666666</ele><time>2026-04-12T11:21:23.052Z</time></trkpt><trkpt lat="43.1084591" lon="13.5681742"><ele>144.0</ele><time>2026-04-12T11:21:24.054Z</time></trkpt><trkpt lat="43.1085689" lon="13.5683577"><ele>144.0</ele><time>2026-04-12T11:21:25.036Z</time></trkpt><trkpt lat="43.1086678" lon="13.5685258"><ele>144.0</ele><time>2026-04-12T11:21:26.05Z</time></trkpt><trkpt lat="43.1087585" lon="13.5686855"><ele>144.0</ele><time>2026-04-12T11:21:27.045Z</time></trkpt><trkpt lat="43.1088409" lon="13.5688269"><ele>144.0</ele><time>2026-04-12T11:21:28.051Z</time></trkpt><trkpt lat="43.1089165" lon="13.5689616"><ele>143.6</ele><time>2026-04-12T11:21:29.047Z</time></trkpt><trkpt lat="43.1089784" lon="13.5690592"><ele>143.2</ele><time>2026-04-12T11:21:30.041Z</time></trkpt><trkpt lat="43.1090266" lon="13.5691401"><ele>142.79999999999998</ele><time>2026-04-12T11:21:31.045Z</time></trkpt><trkpt lat="43.1091012" lon="13.5692348"><ele>142.4</ele><time>2026-04-12T11:21:33.059Z</time></trkpt><trkpt lat="43.1091833" lon="13.5692125"><ele>142.0</ele><time>2026-04-12T11:21:35.04Z</time></trkpt><trkpt lat="43.1092781" lon="13.5691239"><ele>142.66666666666669</ele><time>2026-04-12T11:21:37.047Z</time></trkpt><trkpt lat="43.1093488" lon="13.5690367"><ele>143.33333333333334</ele><time>2026-04-12T11:21:38.063Z</time></trkpt><trkpt lat="43.1094159" lon="13.5689554"><ele>144.0</ele><time>2026-04-12T11:21:39.051Z</time></trkpt><trkpt lat="43.109471" lon="13.5688664"><ele>144.66666666666666</ele><time>2026-04-12T11:21:40.066Z</time></trkpt><trkpt lat="43.1095155" lon="13.5687892"><ele>145.33333333333331</ele><time>2026-04-12T11:21:41.058Z</time></trkpt><trkpt lat="43.1095533" lon="13.5686989"><ele>146.0</ele><time>2026-04-12T11:21:43.034Z</time></trkpt><trkpt lat="43.1095815" lon="13.5688822"><ele>146.0</ele><time>2026-04-12T11:21:45.034Z</time></trkpt><trkpt lat="43.1095942" lon="13.5690331"><ele>146.0</ele><time>2026-04-12T11:21:46.044Z</time></trkpt><trkpt lat="43.109607" lon="13.5692144"><ele>146.0</ele><time>2026-04-12T11:21:47.026Z</time></trkpt><trkpt lat="43.1096383" lon="13.5694051"><ele>146.0</ele><time>2026-04-12T11:21:48.037Z</time></trkpt><trkpt lat="43.1096799" lon="13.5696184"><ele>145.0</ele><time>2026-04-12T11:21:49.036Z</time></trkpt><trkpt lat="43.1097326" lon="13.5698542"><ele>144.0</ele><time>2026-04-12T11:21:50.04Z</time></trkpt><trkpt lat="43.1097794" lon="13.5700976"><ele>143.0</ele><time>2026-04-12T11:21:51.04Z</time></trkpt><trkpt lat="43.1098316" lon="13.5703264"><ele>142.66666666666666</ele><time>2026-04-12T11:21:52.008Z</time></trkpt><trkpt lat="43.1098815" lon="13.5705401"><ele>142.33333333333334</ele><time>2026-04-12T11:21:53.034Z</time></trkpt><trkpt lat="43.1099292" lon="13.5707545"><ele>142.0</ele><time>2026-04-12T11:21:54.034Z</time></trkpt><trkpt lat="43.1099633" lon="13.5709808"><ele>143.0</ele><time>2026-04-12T11:21:55.047Z</time></trkpt><trkpt lat="43.1099946" lon="13.5712034"><ele>144.0</ele><time>2026-04-12T11:21:56.064Z</time></trkpt><trkpt lat="43.1100274" lon="13.5714182"><ele>145.0</ele><time>2026-04-12T11:21:57.042Z</time></trkpt><trkpt lat="43.1100672" lon="13.5716231"><ele>145.0</ele><time>2026-04-12T11:21:58.07Z</time></trkpt><trkpt lat="43.1101233" lon="13.5718298"><ele>145.0</ele><time>2026-04-12T11:21:59.055Z</time></trkpt><trkpt lat="43.1101896" lon="13.5720317"><ele>145.0</ele><time>2026-04-12T11:22:00.045Z</time></trkpt><trkpt lat="43.1102573" lon="13.572225"><ele>144.4</ele><time>2026-04-12T11:22:01.069Z</time></trkpt><trkpt lat="43.1103321" lon="13.5723856"><ele>143.8</ele><time>2026-04-12T11:22:02.042Z</time></trkpt><trkpt lat="43.1103892" lon="13.5725193"><ele>143.2</ele><time>2026-04-12T11:22:03.046Z</time></trkpt><trkpt lat="43.1104443" lon="13.572597"><ele>142.6</ele><time>2026-04-12T11:22:04.049Z</time></trkpt><trkpt lat="43.1105016" lon="13.5726348"><ele>142.0</ele><time>2026-04-12T11:22:06.057Z</time></trkpt><trkpt lat="43.1104493" lon="13.5725435"><ele>142.0</ele><time>2026-04-12T11:22:09.034Z</time></trkpt><trkpt lat="43.1103971" lon="13.5724594"><ele>142.0</ele><time>2026-04-12T11:22:10.033Z</time></trkpt><trkpt lat="43.1103467" lon="13.5723737"><ele>142.0</ele><time>2026-04-12T11:22:11.035Z</time></trkpt><trkpt lat="43.1103087" lon="13.572247"><ele>142.0</ele><time>2026-04-12T11:22:13.069Z</time></trkpt><trkpt lat="43.1103618" lon="13.5721576"><ele>142.0</ele><time>2026-04-12T11:22:15.051Z</time></trkpt><trkpt lat="43.1104999" lon="13.5721098"><ele>142.0</ele><time>2026-04-12T11:22:16.994Z</time></trkpt><trkpt lat="43.1105986" lon="13.5720837"><ele>142.0</ele><time>2026-04-12T11:22:18.032Z</time></trkpt><trkpt lat="43.1107002" lon="13.5720496"><ele>142.0</ele><time>2026-04-12T11:22:19.03Z</time></trkpt><trkpt lat="43.1107863" lon="13.5720133"><ele>142.0</ele><time>2026-04-12T11:22:20.059Z</time></trkpt><trkpt lat="43.1108593" lon="13.5719795"><ele>142.0</ele><time>2026-04-12T11:22:21.048Z</time></trkpt><trkpt lat="43.1109287" lon="13.5719736"><ele>142.0</ele><time>2026-04-12T11:22:21.977Z</time></trkpt><trkpt lat="43.1110154" lon="13.571986"><ele>142.4</ele><time>2026-04-12T11:22:23.001Z</time></trkpt><trkpt lat="43.1111111" lon="13.5720059"><ele>142.79999999999998</ele><time>2026-04-12T11:22:23.982Z</time></trkpt><trkpt lat="43.1112196" lon="13.5720384"><ele>143.2</ele><time>2026-04-12T11:22:24.983Z</time></trkpt><trkpt lat="43.1113247" lon="13.5720753"><ele>143.6</ele><time>2026-04-12T11:22:26.04Z</time></trkpt><trkpt lat="43.1114344" lon="13.5721168"><ele>144.0</ele><time>2026-04-12T11:22:27.034Z</time></trkpt><trkpt lat="43.1115518" lon="13.5721614"><ele>143.5</ele><time>2026-04-12T11:22:28.05Z</time></trkpt><trkpt lat="43.1116687" lon="13.5722179"><ele>143.0</ele><time>2026-04-12T11:22:29.04Z</time></trkpt><trkpt lat="43.1117916" lon="13.5722804"><ele>142.5</ele><time>2026-04-12T11:22:30.039Z</time></trkpt><trkpt lat="43.1119162" lon="13.5723515"><ele>142.0</ele><time>2026-04-12T11:22:31.038Z</time></trkpt><trkpt lat="43.1120435" lon="13.5724209"><ele>142.0</ele><time>2026-04-12T11:22:32.028Z</time></trkpt><trkpt lat="43.1121727" lon="13.5724908"><ele>142.0</ele><time>2026-04-12T11:22:33.027Z</time></trkpt><trkpt lat="43.1123039" lon="13.5725618"><ele>142.0</ele><time>2026-04-12T11:22:34.02Z</time></trkpt><trkpt lat="43.1124296" lon="13.5726371"><ele>142.0</ele><time>2026-04-12T11:22:35.018Z</time></trkpt><trkpt lat="43.1125492" lon="13.5726765"><ele>142.0</ele><time>2026-04-12T11:22:36.036Z</time></trkpt><trkpt lat="43.1126445" lon="13.5727042"><ele>142.0</ele><time>2026-04-12T11:22:37.026Z</time></trkpt><trkpt lat="43.1127445" lon="13.572738"><ele>142.0</ele><time>2026-04-12T11:22:38.048Z</time></trkpt><trkpt lat="43.112847" lon="13.5727783"><ele>142.0</ele><time>2026-04-12T11:22:39.053Z</time></trkpt><trkpt lat="43.1129507" lon="13.5728363"><ele>142.0</ele><time>2026-04-12T11:22:40.05Z</time></trkpt><trkpt lat="43.113057" lon="13.5728949"><ele>142.6</ele><time>2026-04-12T11:22:41.049Z</time></trkpt><trkpt lat="43.1131626" lon="13.5729529"><ele>143.2</ele><time>2026-04-12T11:22:42.029Z</time></trkpt><trkpt lat="43.113267" lon="13.5730132"><ele>143.8</ele><time>2026-04-12T11:22:43.019Z</time></trkpt><trkpt lat="43.1133718" lon="13.573072"><ele>144.4</ele><time>2026-04-12T11:22:44.037Z</time></trkpt><trkpt lat="43.1134724" lon="13.5731148"><ele>145.0</ele><time>2026-04-12T11:22:45.036Z</time></trkpt><trkpt lat="43.113563" lon="13.5731664"><ele>145.0</ele><time>2026-04-12T11:22:46.034Z</time></trkpt><trkpt lat="43.1136454" lon="13.5732216"><ele>145.0</ele><time>2026-04-12T11:22:47.043Z</time></trkpt><trkpt lat="43.1137092" lon="13.5732574"><ele>145.0</ele><time>2026-04-12T11:22:48.032Z</time></trkpt><trkpt lat="43.1138317" lon="13.5732567"><ele>145.0</ele><time>2026-04-12T11:22:50.036Z</time></trkpt><trkpt lat="43.1138975" lon="13.573202"><ele>145.0</ele><time>2026-04-12T11:22:51.009Z</time></trkpt><trkpt lat="43.1139679" lon="13.5731321"><ele>145.0</ele><time>2026-04-12T11:22:52.041Z</time></trkpt><trkpt lat="43.1140216" lon="13.5730813"><ele>145.2</ele><time>2026-04-12T11:22:53.037Z</time></trkpt><trkpt lat="43.1141211" lon="13.573058"><ele>145.4</ele><time>2026-04-12T11:22:55.036Z</time></trkpt><trkpt lat="43.1141855" lon="13.5730712"><ele>145.6</ele><time>2026-04-12T11:22:56.044Z</time></trkpt><trkpt lat="43.1142747" lon="13.5730641"><ele>145.8</ele><time>2026-04-12T11:22:58.021Z</time></trkpt><trkpt lat="43.1143865" lon="13.5729451"><ele>146.0</ele><time>2026-04-12T11:23:00.007Z</time></trkpt><trkpt lat="43.1144646" lon="13.5728201"><ele>146.0</ele><time>2026-04-12T11:23:01.016Z</time></trkpt><trkpt lat="43.1145525" lon="13.572671"><ele>146.0</ele><time>2026-04-12T11:23:01.973Z</time></trkpt><trkpt lat="43.1146516" lon="13.5725115"><ele>146.0</ele><time>2026-04-12T11:23:02.977Z</time></trkpt><trkpt lat="43.1147533" lon="13.572352"><ele>146.0</ele><time>2026-04-12T11:23:03.989Z</time></trkpt><trkpt lat="43.1148624" lon="13.5721877"><ele>147.33333333333331</ele><time>2026-04-12T11:23:04.972Z</time></trkpt><trkpt lat="43.1149668" lon="13.572018"><ele>148.66666666666666</ele><time>2026-04-12T11:23:06.044Z</time></trkpt><trkpt lat="43.115065" lon="13.5718384"><ele>150.0</ele><time>2026-04-12T11:23:07.046Z</time></trkpt><trkpt lat="43.1151682" lon="13.5716439"><ele>150.0</ele><time>2026-04-12T11:23:08.035Z</time></trkpt><trkpt lat="43.1152598" lon="13.5714498"><ele>150.0</ele><time>2026-04-12T11:23:09.023Z</time></trkpt><trkpt lat="43.1153443" lon="13.5712552"><ele>150.0</ele><time>2026-04-12T11:23:10.027Z</time></trkpt><trkpt lat="43.1154352" lon="13.5710596"><ele>149.75</ele><time>2026-04-12T11:23:11.021Z</time></trkpt><trkpt lat="43.1155207" lon="13.5708875"><ele>149.5</ele><time>2026-04-12T11:23:12.021Z</time></trkpt><trkpt lat="43.1156032" lon="13.5707345"><ele>149.25</ele><time>2026-04-12T11:23:13.035Z</time></trkpt><trkpt lat="43.115682" lon="13.5705954"><ele>149.0</ele><time>2026-04-12T11:23:14.031Z</time></trkpt><trkpt lat="43.115766" lon="13.5704819"><ele>149.4</ele><time>2026-04-12T11:23:15.007Z</time></trkpt><trkpt lat="43.115854" lon="13.5703879"><ele>149.8</ele><time>2026-04-12T11:23:16.036Z</time></trkpt><trkpt lat="43.1159488" lon="13.5702903"><ele>150.2</ele><time>2026-04-12T11:23:17.044Z</time></trkpt><trkpt lat="43.116029" lon="13.5702048"><ele>150.6</ele><time>2026-04-12T11:23:18.041Z</time></trkpt><trkpt lat="43.1160959" lon="13.5701006"><ele>151.0</ele><time>2026-04-12T11:23:19.051Z</time></trkpt><trkpt lat="43.1161623" lon="13.5699847"><ele>151.2</ele><time>2026-04-12T11:23:20.007Z</time></trkpt><trkpt lat="43.1162115" lon="13.5698698"><ele>151.39999999999998</ele><time>2026-04-12T11:23:21.045Z</time></trkpt><trkpt lat="43.1162434" lon="13.5697821"><ele>151.6</ele><time>2026-04-12T11:23:22.041Z</time></trkpt><trkpt lat="43.1163572" lon="13.5696889"><ele>151.79999999999998</ele><time>2026-04-12T11:23:24.046Z</time></trkpt><trkpt lat="43.1164333" lon="13.5696588"><ele>152.0</ele><time>2026-04-12T11:23:25.01Z</time></trkpt><trkpt lat="43.1165148" lon="13.5696182"><ele>152.2</ele><time>2026-04-12T11:23:26.027Z</time></trkpt><trkpt lat="43.1165955" lon="13.5695634"><ele>152.39999999999998</ele><time>2026-04-12T11:23:27.024Z</time></trkpt><trkpt lat="43.116677" lon="13.5694808"><ele>152.60000000000002</ele><time>2026-04-12T11:23:28.011Z</time></trkpt><trkpt lat="43.1167589" lon="13.5693812"><ele>152.8</ele><time>2026-04-12T11:23:29.053Z</time></trkpt><trkpt lat="43.1168512" lon="13.5692861"><ele>153.0</ele><time>2026-04-12T11:23:30.038Z</time></trkpt><trkpt lat="43.1169323" lon="13.5691981"><ele>153.20000000000002</ele><time>2026-04-12T11:23:31.035Z</time></trkpt><trkpt lat="43.1170208" lon="13.5691512"><ele>153.4</ele><time>2026-04-12T11:23:32.029Z</time></trkpt><trkpt lat="43.1170935" lon="13.5691139"><ele>153.60000000000002</ele><time>2026-04-12T11:23:33.033Z</time></trkpt><trkpt lat="43.1171938" lon="13.569061"><ele>153.8</ele><time>2026-04-12T11:23:35.042Z</time></trkpt><trkpt lat="43.1172796" lon="13.5690371"><ele>154.0</ele><time>2026-04-12T11:23:38.037Z</time></trkpt><trkpt lat="43.1173505" lon="13.5691477"><ele>154.0</ele><time>2026-04-12T11:23:40.044Z</time></trkpt><trkpt lat="43.1173864" lon="13.5692211"><ele>154.0</ele><time>2026-04-12T11:23:41.038Z</time></trkpt><trkpt lat="43.1174184" lon="13.5693"><ele>154.0</ele><time>2026-04-12T11:23:42.025Z</time></trkpt><trkpt lat="43.1174701" lon="13.5693905"><ele>154.0</ele><time>2026-04-12T11:23:43.012Z</time></trkpt><trkpt lat="43.1175249" lon="13.5694843"><ele>154.0</ele><time>2026-04-12T11:23:44.031Z</time></trkpt><trkpt lat="43.1175723" lon="13.5695842"><ele>154.0</ele><time>2026-04-12T11:23:45.03Z</time></trkpt><trkpt lat="43.1176276" lon="13.5696958"><ele>154.5</ele><time>2026-04-12T11:23:46.03Z</time></trkpt><trkpt lat="43.1176808" lon="13.569817"><ele>155.0</ele><time>2026-04-12T11:23:47.024Z</time></trkpt><trkpt lat="43.1177366" lon="13.5699484"><ele>155.5</ele><time>2026-04-12T11:23:48.049Z</time></trkpt><trkpt lat="43.1177947" lon="13.5700912"><ele>156.0</ele><time>2026-04-12T11:23:49.036Z</time></trkpt><trkpt lat="43.1178451" lon="13.5702355"><ele>155.5</ele><time>2026-04-12T11:23:50.031Z</time></trkpt><trkpt lat="43.1178953" lon="13.5703891"><ele>155.0</ele><time>2026-04-12T11:23:51.029Z</time></trkpt><trkpt lat="43.1179428" lon="13.5705351"><ele>154.5</ele><time>2026-04-12T11:23:52.038Z</time></trkpt><trkpt lat="43.1179868" lon="13.5706675"><ele>154.0</ele><time>2026-04-12T11:23:53.024Z</time></trkpt><trkpt lat="43.1180328" lon="13.5708058"><ele>154.0</ele><time>2026-04-12T11:23:54.052Z</time></trkpt><trkpt lat="43.1180815" lon="13.5709539"><ele>154.0</ele><time>2026-04-12T11:23:54.981Z</time></trkpt><trkpt lat="43.1181314" lon="13.5710946"><ele>154.0</ele><time>2026-04-12T11:23:56.036Z</time></trkpt><trkpt lat="43.1181811" lon="13.5712376"><ele>154.0</ele><time>2026-04-12T11:23:57.055Z</time></trkpt><trkpt lat="43.1182293" lon="13.5713839"><ele>154.0</ele><time>2026-04-12T11:23:58.047Z</time></trkpt><trkpt lat="43.1182829" lon="13.5715329"><ele>154.0</ele><time>2026-04-12T11:23:59.017Z</time></trkpt><trkpt lat="43.1183404" lon="13.5716852"><ele>154.0</ele><time>2026-04-12T11:24:00.053Z</time></trkpt><trkpt lat="43.1183956" lon="13.5718227"><ele>154.0</ele><time>2026-04-12T11:24:01.062Z</time></trkpt><trkpt lat="43.118447" lon="13.5719478"><ele>153.4</ele><time>2026-04-12T11:24:02.041Z</time></trkpt><trkpt lat="43.1184851" lon="13.5720686"><ele>152.8</ele><time>2026-04-12T11:24:03.053Z</time></trkpt><trkpt lat="43.1185238" lon="13.5721772"><ele>152.2</ele><time>2026-04-12T11:24:04.039Z</time></trkpt><trkpt lat="43.118563" lon="13.5722833"><ele>151.6</ele><time>2026-04-12T11:24:05.061Z</time></trkpt><trkpt lat="43.1186039" lon="13.5723962"><ele>151.0</ele><time>2026-04-12T11:24:06.05Z</time></trkpt><trkpt lat="43.1186474" lon="13.5725141"><ele>151.0</ele><time>2026-04-12T11:24:07.048Z</time></trkpt><trkpt lat="43.1186906" lon="13.5726315"><ele>151.0</ele><time>2026-04-12T11:24:08.053Z</time></trkpt><trkpt lat="43.1187337" lon="13.5727515"><ele>151.0</ele><time>2026-04-12T11:24:09.038Z</time></trkpt><trkpt lat="43.1187817" lon="13.5728755"><ele>151.0</ele><time>2026-04-12T11:24:10.04Z</time></trkpt><trkpt lat="43.1188281" lon="13.573005"><ele>151.0</ele><time>2026-04-12T11:24:11.066Z</time></trkpt><trkpt lat="43.1188763" lon="13.5731491"><ele>151.25</ele><time>2026-04-12T11:24:12.03Z</time></trkpt><trkpt lat="43.1189291" lon="13.573289"><ele>151.5</ele><time>2026-04-12T11:24:13.014Z</time></trkpt><trkpt lat="43.1189796" lon="13.5734341"><ele>151.75</ele><time>2026-04-12T11:24:14.025Z</time></trkpt><trkpt lat="43.1190296" lon="13.5735851"><ele>152.0</ele><time>2026-04-12T11:24:15.017Z</time></trkpt><trkpt lat="43.1190854" lon="13.5737356"><ele>152.0</ele><time>2026-04-12T11:24:16.034Z</time></trkpt><trkpt lat="43.1191423" lon="13.5738976"><ele>152.0</ele><time>2026-04-12T11:24:17.026Z</time></trkpt><trkpt lat="43.1191996" lon="13.5740635"><ele>152.0</ele><time>2026-04-12T11:24:18.034Z</time></trkpt><trkpt lat="43.1192589" lon="13.5742297"><ele>152.0</ele><time>2026-04-12T11:24:19.041Z</time></trkpt><trkpt lat="43.119324" lon="13.5744078"><ele>151.5</ele><time>2026-04-12T11:24:20.042Z</time></trkpt><trkpt lat="43.1193849" lon="13.5745839"><ele>151.0</ele><time>2026-04-12T11:24:21.034Z</time></trkpt><trkpt lat="43.1194489" lon="13.5747673"><ele>150.5</ele><time>2026-04-12T11:24:22.03Z</time></trkpt><trkpt lat="43.1195088" lon="13.5749483"><ele>150.0</ele><time>2026-04-12T11:24:23.017Z</time></trkpt><trkpt lat="43.1195683" lon="13.5751337"><ele>150.0</ele><time>2026-04-12T11:24:24.041Z</time></trkpt><trkpt lat="43.1196269" lon="13.5753205"><ele>150.0</ele><time>2026-04-12T11:24:25.026Z</time></trkpt><trkpt lat="43.1196877" lon="13.5755019"><ele>150.0</ele><time>2026-04-12T11:24:26.044Z</time></trkpt><trkpt lat="43.1197494" lon="13.5756916"><ele>150.0</ele><time>2026-04-12T11:24:27.003Z</time></trkpt><trkpt lat="43.1198075" lon="13.5758708"><ele>149.75</ele><time>2026-04-12T11:24:28.045Z</time></trkpt><trkpt lat="43.1198653" lon="13.5760521"><ele>149.5</ele><time>2026-04-12T11:24:29.057Z</time></trkpt><trkpt lat="43.1199247" lon="13.5762321"><ele>149.25</ele><time>2026-04-12T11:24:30.054Z</time></trkpt><trkpt lat="43.1199808" lon="13.576392"><ele>149.0</ele><time>2026-04-12T11:24:31.066Z</time></trkpt><trkpt lat="43.1200284" lon="13.5765379"><ele>149.0</ele><time>2026-04-12T11:24:32.041Z</time></trkpt><trkpt lat="43.1200717" lon="13.5766734"><ele>149.0</ele><time>2026-04-12T11:24:33.064Z</time></trkpt><trkpt lat="43.1201068" lon="13.5767994"><ele>149.0</ele><time>2026-04-12T11:24:34.046Z</time></trkpt><trkpt lat="43.1201394" lon="13.5769038"><ele>149.0</ele><time>2026-04-12T11:24:35.016Z</time></trkpt><trkpt lat="43.120157" lon="13.5770253"><ele>149.0</ele><time>2026-04-12T11:24:37.048Z</time></trkpt><trkpt lat="43.1201065" lon="13.5770867"><ele>149.0</ele><time>2026-04-12T11:24:39.068Z</time></trkpt><trkpt lat="43.12" lon="13.5771549"><ele>149.0</ele><time>2026-04-12T11:24:41.051Z</time></trkpt><trkpt lat="43.1199382" lon="13.5771942"><ele>149.0</ele><time>2026-04-12T11:24:42.053Z</time></trkpt><trkpt lat="43.1198697" lon="13.5772415"><ele>149.0</ele><time>2026-04-12T11:24:43.041Z</time></trkpt><trkpt lat="43.1198096" lon="13.577289"><ele>149.0</ele><time>2026-04-12T11:24:44.037Z</time></trkpt><trkpt lat="43.1197466" lon="13.5773396"><ele>149.0</ele><time>2026-04-12T11:24:45.022Z</time></trkpt><trkpt lat="43.1196878" lon="13.5773836"><ele>149.0</ele><time>2026-04-12T11:24:46.049Z</time></trkpt><trkpt lat="43.1195873" lon="13.5774283"><ele>146.0</ele><time>2026-04-12T11:24:48.04Z</time></trkpt><trkpt lat="43.1195356" lon="13.5773682"><ele>146.0</ele><time>2026-04-12T11:24:51.032Z</time></trkpt></trkseg></trk></gpx>